<?xml version="1.0" encoding="UTF-8" standalone="no" ?>
<gpx xmlns="http://www.topografix.com/GPX/1/1" xmlns:xsi="http://www.w3.org/2001/XMLSchema-instance" xsi:schemaLocation="http://www.topografix.com/GPX/1/1 http://www.topografix.com/GPX/1/1/gpx.xsd" version="1.1" creator="VisuGPX - https://www.visugpx.com">
  <metadata>
    <name>Boucle des ruisseaux de Chalosse</name>
  </metadata>
  <trk>
    <name><![CDATA[Habas Course]]></name>
    <trkseg>
      <trkpt lat="43.56734" lon="-0.93041">
        <ele>88</ele>
        <time>2021-05-08T08:03:04Z</time>
      </trkpt>
      <trkpt lat="43.56734" lon="-0.93039">
        <ele>88</ele>
        <time>2021-05-08T08:03:05Z</time>
      </trkpt>
      <trkpt lat="43.56734" lon="-0.93037">
        <ele>88</ele>
        <time>2021-05-08T08:03:06Z</time>
      </trkpt>
      <trkpt lat="43.56735" lon="-0.93035">
        <ele>88</ele>
        <time>2021-05-08T08:03:07Z</time>
      </trkpt>
      <trkpt lat="43.56736" lon="-0.93033">
        <ele>88</ele>
        <time>2021-05-08T08:03:08Z</time>
      </trkpt>
      <trkpt lat="43.56736" lon="-0.93031">
        <ele>88</ele>
        <time>2021-05-08T08:03:09Z</time>
      </trkpt>
      <trkpt lat="43.56737" lon="-0.93029">
        <ele>88</ele>
        <time>2021-05-08T08:03:10Z</time>
      </trkpt>
      <trkpt lat="43.56738" lon="-0.93027">
        <ele>88</ele>
        <time>2021-05-08T08:03:11Z</time>
      </trkpt>
      <trkpt lat="43.5674" lon="-0.93025">
        <ele>88</ele>
        <time>2021-05-08T08:03:12Z</time>
      </trkpt>
      <trkpt lat="43.56741" lon="-0.93023">
        <ele>88</ele>
        <time>2021-05-08T08:03:13Z</time>
      </trkpt>
      <trkpt lat="43.56743" lon="-0.93021">
        <ele>88</ele>
        <time>2021-05-08T08:03:14Z</time>
      </trkpt>
      <trkpt lat="43.56745" lon="-0.93018">
        <ele>88</ele>
        <time>2021-05-08T08:03:15Z</time>
      </trkpt>
      <trkpt lat="43.56747" lon="-0.93016">
        <ele>88</ele>
        <time>2021-05-08T08:03:16Z</time>
      </trkpt>
      <trkpt lat="43.56749" lon="-0.93014">
        <ele>88</ele>
        <time>2021-05-08T08:03:17Z</time>
      </trkpt>
      <trkpt lat="43.56751" lon="-0.93012">
        <ele>88</ele>
        <time>2021-05-08T08:03:18Z</time>
      </trkpt>
      <trkpt lat="43.56753" lon="-0.93009">
        <ele>88</ele>
        <time>2021-05-08T08:03:19Z</time>
      </trkpt>
      <trkpt lat="43.56755" lon="-0.93007">
        <ele>88</ele>
        <time>2021-05-08T08:03:20Z</time>
      </trkpt>
      <trkpt lat="43.56756" lon="-0.93005">
        <ele>88</ele>
        <time>2021-05-08T08:03:21Z</time>
      </trkpt>
      <trkpt lat="43.56757" lon="-0.93003">
        <ele>88</ele>
        <time>2021-05-08T08:03:22Z</time>
      </trkpt>
      <trkpt lat="43.56758" lon="-0.93001">
        <ele>89</ele>
        <time>2021-05-08T08:03:23Z</time>
      </trkpt>
      <trkpt lat="43.56759" lon="-0.92999">
        <ele>89</ele>
        <time>2021-05-08T08:03:24Z</time>
      </trkpt>
      <trkpt lat="43.56759" lon="-0.92997">
        <ele>89</ele>
        <time>2021-05-08T08:03:25Z</time>
      </trkpt>
      <trkpt lat="43.5676" lon="-0.92995">
        <ele>89</ele>
        <time>2021-05-08T08:03:26Z</time>
      </trkpt>
      <trkpt lat="43.56761" lon="-0.92993">
        <ele>89</ele>
        <time>2021-05-08T08:03:27Z</time>
      </trkpt>
      <trkpt lat="43.56762" lon="-0.92991">
        <ele>89</ele>
        <time>2021-05-08T08:03:28Z</time>
      </trkpt>
      <trkpt lat="43.56764" lon="-0.9299">
        <ele>89</ele>
        <time>2021-05-08T08:03:29Z</time>
      </trkpt>
      <trkpt lat="43.56765" lon="-0.92988">
        <ele>89</ele>
        <time>2021-05-08T08:03:30Z</time>
      </trkpt>
      <trkpt lat="43.56766" lon="-0.92986">
        <ele>89</ele>
        <time>2021-05-08T08:03:31Z</time>
      </trkpt>
      <trkpt lat="43.56768" lon="-0.92984">
        <ele>89</ele>
        <time>2021-05-08T08:03:32Z</time>
      </trkpt>
      <trkpt lat="43.56769" lon="-0.92982">
        <ele>90</ele>
        <time>2021-05-08T08:03:33Z</time>
      </trkpt>
      <trkpt lat="43.5677" lon="-0.92981">
        <ele>90</ele>
        <time>2021-05-08T08:03:34Z</time>
      </trkpt>
      <trkpt lat="43.56771" lon="-0.92979">
        <ele>90</ele>
        <time>2021-05-08T08:03:35Z</time>
      </trkpt>
      <trkpt lat="43.56772" lon="-0.92977">
        <ele>90</ele>
        <time>2021-05-08T08:03:36Z</time>
      </trkpt>
      <trkpt lat="43.56774" lon="-0.92975">
        <ele>90</ele>
        <time>2021-05-08T08:03:37Z</time>
      </trkpt>
      <trkpt lat="43.56775" lon="-0.92974">
        <ele>91</ele>
        <time>2021-05-08T08:03:38Z</time>
      </trkpt>
      <trkpt lat="43.56776" lon="-0.92972">
        <ele>91</ele>
        <time>2021-05-08T08:03:39Z</time>
      </trkpt>
      <trkpt lat="43.56778" lon="-0.9297">
        <ele>91</ele>
        <time>2021-05-08T08:03:40Z</time>
      </trkpt>
      <trkpt lat="43.56779" lon="-0.92968">
        <ele>91</ele>
        <time>2021-05-08T08:03:41Z</time>
      </trkpt>
      <trkpt lat="43.5678" lon="-0.92966">
        <ele>91</ele>
        <time>2021-05-08T08:03:42Z</time>
      </trkpt>
      <trkpt lat="43.56782" lon="-0.92964">
        <ele>92</ele>
        <time>2021-05-08T08:03:43Z</time>
      </trkpt>
      <trkpt lat="43.56783" lon="-0.92962">
        <ele>92</ele>
        <time>2021-05-08T08:03:44Z</time>
      </trkpt>
      <trkpt lat="43.56784" lon="-0.92959">
        <ele>92</ele>
        <time>2021-05-08T08:03:45Z</time>
      </trkpt>
      <trkpt lat="43.56786" lon="-0.92957">
        <ele>92</ele>
        <time>2021-05-08T08:03:46Z</time>
      </trkpt>
      <trkpt lat="43.56787" lon="-0.92955">
        <ele>92</ele>
        <time>2021-05-08T08:03:47Z</time>
      </trkpt>
      <trkpt lat="43.56788" lon="-0.92953">
        <ele>93</ele>
        <time>2021-05-08T08:03:48Z</time>
      </trkpt>
      <trkpt lat="43.56789" lon="-0.9295">
        <ele>93</ele>
        <time>2021-05-08T08:03:49Z</time>
      </trkpt>
      <trkpt lat="43.56791" lon="-0.92948">
        <ele>93</ele>
        <time>2021-05-08T08:03:50Z</time>
      </trkpt>
      <trkpt lat="43.56792" lon="-0.92946">
        <ele>93</ele>
        <time>2021-05-08T08:03:51Z</time>
      </trkpt>
      <trkpt lat="43.56793" lon="-0.92944">
        <ele>93</ele>
        <time>2021-05-08T08:03:52Z</time>
      </trkpt>
      <trkpt lat="43.56794" lon="-0.92942">
        <ele>94</ele>
        <time>2021-05-08T08:03:53Z</time>
      </trkpt>
      <trkpt lat="43.56795" lon="-0.92939">
        <ele>94</ele>
        <time>2021-05-08T08:03:54Z</time>
      </trkpt>
      <trkpt lat="43.56796" lon="-0.92937">
        <ele>94</ele>
        <time>2021-05-08T08:03:55Z</time>
      </trkpt>
      <trkpt lat="43.56797" lon="-0.92934">
        <ele>94</ele>
        <time>2021-05-08T08:03:56Z</time>
      </trkpt>
      <trkpt lat="43.56798" lon="-0.92932">
        <ele>94</ele>
        <time>2021-05-08T08:03:57Z</time>
      </trkpt>
      <trkpt lat="43.56799" lon="-0.92929">
        <ele>95</ele>
        <time>2021-05-08T08:03:58Z</time>
      </trkpt>
      <trkpt lat="43.568" lon="-0.92927">
        <ele>95</ele>
        <time>2021-05-08T08:03:59Z</time>
      </trkpt>
      <trkpt lat="43.56801" lon="-0.92925">
        <ele>95</ele>
        <time>2021-05-08T08:04:00Z</time>
      </trkpt>
      <trkpt lat="43.56802" lon="-0.92923">
        <ele>95</ele>
        <time>2021-05-08T08:04:01Z</time>
      </trkpt>
      <trkpt lat="43.56803" lon="-0.9292">
        <ele>95</ele>
        <time>2021-05-08T08:04:02Z</time>
      </trkpt>
      <trkpt lat="43.56804" lon="-0.92918">
        <ele>96</ele>
        <time>2021-05-08T08:04:03Z</time>
      </trkpt>
      <trkpt lat="43.56805" lon="-0.92916">
        <ele>96</ele>
        <time>2021-05-08T08:04:04Z</time>
      </trkpt>
      <trkpt lat="43.56806" lon="-0.92914">
        <ele>96</ele>
        <time>2021-05-08T08:04:05Z</time>
      </trkpt>
      <trkpt lat="43.56807" lon="-0.92912">
        <ele>96</ele>
        <time>2021-05-08T08:04:06Z</time>
      </trkpt>
      <trkpt lat="43.56809" lon="-0.9291">
        <ele>96</ele>
        <time>2021-05-08T08:04:07Z</time>
      </trkpt>
      <trkpt lat="43.5681" lon="-0.92908">
        <ele>97</ele>
        <time>2021-05-08T08:04:08Z</time>
      </trkpt>
      <trkpt lat="43.56811" lon="-0.92906">
        <ele>97</ele>
        <time>2021-05-08T08:04:09Z</time>
      </trkpt>
      <trkpt lat="43.56813" lon="-0.92904">
        <ele>97</ele>
        <time>2021-05-08T08:04:10Z</time>
      </trkpt>
      <trkpt lat="43.56814" lon="-0.92901">
        <ele>97</ele>
        <time>2021-05-08T08:04:11Z</time>
      </trkpt>
      <trkpt lat="43.56815" lon="-0.92899">
        <ele>97</ele>
        <time>2021-05-08T08:04:12Z</time>
      </trkpt>
      <trkpt lat="43.56816" lon="-0.92896">
        <ele>98</ele>
        <time>2021-05-08T08:04:13Z</time>
      </trkpt>
      <trkpt lat="43.56817" lon="-0.92894">
        <ele>98</ele>
        <time>2021-05-08T08:04:14Z</time>
      </trkpt>
      <trkpt lat="43.56818" lon="-0.92891">
        <ele>98</ele>
        <time>2021-05-08T08:04:15Z</time>
      </trkpt>
      <trkpt lat="43.56819" lon="-0.92889">
        <ele>98</ele>
        <time>2021-05-08T08:04:16Z</time>
      </trkpt>
      <trkpt lat="43.56819" lon="-0.92886">
        <ele>98</ele>
        <time>2021-05-08T08:04:17Z</time>
      </trkpt>
      <trkpt lat="43.5682" lon="-0.92883">
        <ele>99</ele>
        <time>2021-05-08T08:04:18Z</time>
      </trkpt>
      <trkpt lat="43.56821" lon="-0.9288">
        <ele>99</ele>
        <time>2021-05-08T08:04:19Z</time>
      </trkpt>
      <trkpt lat="43.56821" lon="-0.92878">
        <ele>99</ele>
        <time>2021-05-08T08:04:20Z</time>
      </trkpt>
      <trkpt lat="43.56822" lon="-0.92875">
        <ele>99</ele>
        <time>2021-05-08T08:04:21Z</time>
      </trkpt>
      <trkpt lat="43.56823" lon="-0.92873">
        <ele>99</ele>
        <time>2021-05-08T08:04:22Z</time>
      </trkpt>
      <trkpt lat="43.56824" lon="-0.9287">
        <ele>100</ele>
        <time>2021-05-08T08:04:23Z</time>
      </trkpt>
      <trkpt lat="43.56825" lon="-0.92868">
        <ele>100</ele>
        <time>2021-05-08T08:04:24Z</time>
      </trkpt>
      <trkpt lat="43.56826" lon="-0.92865">
        <ele>100</ele>
        <time>2021-05-08T08:04:25Z</time>
      </trkpt>
      <trkpt lat="43.56827" lon="-0.92862">
        <ele>100</ele>
        <time>2021-05-08T08:04:26Z</time>
      </trkpt>
      <trkpt lat="43.56828" lon="-0.9286">
        <ele>100</ele>
        <time>2021-05-08T08:04:27Z</time>
      </trkpt>
      <trkpt lat="43.56829" lon="-0.92858">
        <ele>100</ele>
        <time>2021-05-08T08:04:28Z</time>
      </trkpt>
      <trkpt lat="43.56829" lon="-0.92855">
        <ele>100</ele>
        <time>2021-05-08T08:04:29Z</time>
      </trkpt>
      <trkpt lat="43.5683" lon="-0.92853">
        <ele>100</ele>
        <time>2021-05-08T08:04:30Z</time>
      </trkpt>
      <trkpt lat="43.56831" lon="-0.92851">
        <ele>100</ele>
        <time>2021-05-08T08:04:31Z</time>
      </trkpt>
      <trkpt lat="43.56832" lon="-0.92848">
        <ele>100</ele>
        <time>2021-05-08T08:04:32Z</time>
      </trkpt>
      <trkpt lat="43.56833" lon="-0.92846">
        <ele>101</ele>
        <time>2021-05-08T08:04:33Z</time>
      </trkpt>
      <trkpt lat="43.56834" lon="-0.92844">
        <ele>101</ele>
        <time>2021-05-08T08:04:34Z</time>
      </trkpt>
      <trkpt lat="43.56835" lon="-0.92841">
        <ele>101</ele>
        <time>2021-05-08T08:04:35Z</time>
      </trkpt>
      <trkpt lat="43.56836" lon="-0.92839">
        <ele>101</ele>
        <time>2021-05-08T08:04:36Z</time>
      </trkpt>
      <trkpt lat="43.56837" lon="-0.92837">
        <ele>101</ele>
        <time>2021-05-08T08:04:37Z</time>
      </trkpt>
      <trkpt lat="43.56838" lon="-0.92835">
        <ele>102</ele>
        <time>2021-05-08T08:04:38Z</time>
      </trkpt>
      <trkpt lat="43.5684" lon="-0.92832">
        <ele>102</ele>
        <time>2021-05-08T08:04:39Z</time>
      </trkpt>
      <trkpt lat="43.56841" lon="-0.9283">
        <ele>102</ele>
        <time>2021-05-08T08:04:40Z</time>
      </trkpt>
      <trkpt lat="43.56842" lon="-0.92828">
        <ele>102</ele>
        <time>2021-05-08T08:04:41Z</time>
      </trkpt>
      <trkpt lat="43.56843" lon="-0.92825">
        <ele>102</ele>
        <time>2021-05-08T08:04:42Z</time>
      </trkpt>
      <trkpt lat="43.56844" lon="-0.92823">
        <ele>103</ele>
        <time>2021-05-08T08:04:43Z</time>
      </trkpt>
      <trkpt lat="43.56844" lon="-0.92821">
        <ele>103</ele>
        <time>2021-05-08T08:04:44Z</time>
      </trkpt>
      <trkpt lat="43.56845" lon="-0.92819">
        <ele>103</ele>
        <time>2021-05-08T08:04:45Z</time>
      </trkpt>
      <trkpt lat="43.56846" lon="-0.92816">
        <ele>103</ele>
        <time>2021-05-08T08:04:46Z</time>
      </trkpt>
      <trkpt lat="43.56846" lon="-0.92814">
        <ele>103</ele>
        <time>2021-05-08T08:04:47Z</time>
      </trkpt>
      <trkpt lat="43.56847" lon="-0.92812">
        <ele>103</ele>
        <time>2021-05-08T08:04:48Z</time>
      </trkpt>
      <trkpt lat="43.56847" lon="-0.9281">
        <ele>103</ele>
        <time>2021-05-08T08:04:49Z</time>
      </trkpt>
      <trkpt lat="43.56848" lon="-0.92807">
        <ele>103</ele>
        <time>2021-05-08T08:04:50Z</time>
      </trkpt>
      <trkpt lat="43.56849" lon="-0.92805">
        <ele>103</ele>
        <time>2021-05-08T08:04:51Z</time>
      </trkpt>
      <trkpt lat="43.5685" lon="-0.92802">
        <ele>103</ele>
        <time>2021-05-08T08:04:52Z</time>
      </trkpt>
      <trkpt lat="43.56851" lon="-0.928">
        <ele>104</ele>
        <time>2021-05-08T08:04:53Z</time>
      </trkpt>
      <trkpt lat="43.56852" lon="-0.92797">
        <ele>104</ele>
        <time>2021-05-08T08:04:54Z</time>
      </trkpt>
      <trkpt lat="43.56853" lon="-0.92794">
        <ele>104</ele>
        <time>2021-05-08T08:04:55Z</time>
      </trkpt>
      <trkpt lat="43.56853" lon="-0.92791">
        <ele>104</ele>
        <time>2021-05-08T08:04:56Z</time>
      </trkpt>
      <trkpt lat="43.56853" lon="-0.92788">
        <ele>104</ele>
        <time>2021-05-08T08:04:57Z</time>
      </trkpt>
      <trkpt lat="43.56853" lon="-0.92786">
        <ele>105</ele>
        <time>2021-05-08T08:04:58Z</time>
      </trkpt>
      <trkpt lat="43.56853" lon="-0.92783">
        <ele>105</ele>
        <time>2021-05-08T08:04:59Z</time>
      </trkpt>
      <trkpt lat="43.56852" lon="-0.92781">
        <ele>105</ele>
        <time>2021-05-08T08:05:00Z</time>
      </trkpt>
      <trkpt lat="43.56852" lon="-0.92778">
        <ele>105</ele>
        <time>2021-05-08T08:05:01Z</time>
      </trkpt>
      <trkpt lat="43.56852" lon="-0.92776">
        <ele>105</ele>
        <time>2021-05-08T08:05:02Z</time>
      </trkpt>
      <trkpt lat="43.56853" lon="-0.92775">
        <ele>106</ele>
        <time>2021-05-08T08:05:03Z</time>
      </trkpt>
      <trkpt lat="43.56853" lon="-0.92773">
        <ele>106</ele>
        <time>2021-05-08T08:05:04Z</time>
      </trkpt>
      <trkpt lat="43.56854" lon="-0.92772">
        <ele>106</ele>
        <time>2021-05-08T08:05:05Z</time>
      </trkpt>
      <trkpt lat="43.56855" lon="-0.9277">
        <ele>106</ele>
        <time>2021-05-08T08:05:06Z</time>
      </trkpt>
      <trkpt lat="43.56856" lon="-0.92769">
        <ele>106</ele>
        <time>2021-05-08T08:05:07Z</time>
      </trkpt>
      <trkpt lat="43.56857" lon="-0.92768">
        <ele>107</ele>
        <time>2021-05-08T08:05:08Z</time>
      </trkpt>
      <trkpt lat="43.56857" lon="-0.92766">
        <ele>107</ele>
        <time>2021-05-08T08:05:09Z</time>
      </trkpt>
      <trkpt lat="43.56857" lon="-0.92764">
        <ele>107</ele>
        <time>2021-05-08T08:05:10Z</time>
      </trkpt>
      <trkpt lat="43.56857" lon="-0.92762">
        <ele>107</ele>
        <time>2021-05-08T08:05:11Z</time>
      </trkpt>
      <trkpt lat="43.56856" lon="-0.9276">
        <ele>107</ele>
        <time>2021-05-08T08:05:12Z</time>
      </trkpt>
      <trkpt lat="43.56855" lon="-0.92758">
        <ele>107</ele>
        <time>2021-05-08T08:05:13Z</time>
      </trkpt>
      <trkpt lat="43.56854" lon="-0.92756">
        <ele>107</ele>
        <time>2021-05-08T08:05:14Z</time>
      </trkpt>
      <trkpt lat="43.56852" lon="-0.92754">
        <ele>107</ele>
        <time>2021-05-08T08:05:15Z</time>
      </trkpt>
      <trkpt lat="43.5685" lon="-0.92752">
        <ele>107</ele>
        <time>2021-05-08T08:05:16Z</time>
      </trkpt>
      <trkpt lat="43.56848" lon="-0.92751">
        <ele>107</ele>
        <time>2021-05-08T08:05:17Z</time>
      </trkpt>
      <trkpt lat="43.56846" lon="-0.92749">
        <ele>108</ele>
        <time>2021-05-08T08:05:18Z</time>
      </trkpt>
      <trkpt lat="43.56844" lon="-0.92748">
        <ele>108</ele>
        <time>2021-05-08T08:05:19Z</time>
      </trkpt>
      <trkpt lat="43.56842" lon="-0.92747">
        <ele>108</ele>
        <time>2021-05-08T08:05:20Z</time>
      </trkpt>
      <trkpt lat="43.5684" lon="-0.92746">
        <ele>108</ele>
        <time>2021-05-08T08:05:21Z</time>
      </trkpt>
      <trkpt lat="43.56838" lon="-0.92745">
        <ele>108</ele>
        <time>2021-05-08T08:05:22Z</time>
      </trkpt>
      <trkpt lat="43.56836" lon="-0.92744">
        <ele>108</ele>
        <time>2021-05-08T08:05:23Z</time>
      </trkpt>
      <trkpt lat="43.56834" lon="-0.92743">
        <ele>108</ele>
        <time>2021-05-08T08:05:24Z</time>
      </trkpt>
      <trkpt lat="43.56832" lon="-0.92742">
        <ele>108</ele>
        <time>2021-05-08T08:05:25Z</time>
      </trkpt>
      <trkpt lat="43.5683" lon="-0.9274">
        <ele>108</ele>
        <time>2021-05-08T08:05:26Z</time>
      </trkpt>
      <trkpt lat="43.56828" lon="-0.92739">
        <ele>108</ele>
        <time>2021-05-08T08:05:27Z</time>
      </trkpt>
      <trkpt lat="43.56826" lon="-0.92738">
        <ele>109</ele>
        <time>2021-05-08T08:05:28Z</time>
      </trkpt>
      <trkpt lat="43.56824" lon="-0.92738">
        <ele>109</ele>
        <time>2021-05-08T08:05:29Z</time>
      </trkpt>
      <trkpt lat="43.56822" lon="-0.92737">
        <ele>109</ele>
        <time>2021-05-08T08:05:30Z</time>
      </trkpt>
      <trkpt lat="43.5682" lon="-0.92736">
        <ele>109</ele>
        <time>2021-05-08T08:05:31Z</time>
      </trkpt>
      <trkpt lat="43.56819" lon="-0.92734">
        <ele>109</ele>
        <time>2021-05-08T08:05:32Z</time>
      </trkpt>
      <trkpt lat="43.56817" lon="-0.92733">
        <ele>110</ele>
        <time>2021-05-08T08:05:33Z</time>
      </trkpt>
      <trkpt lat="43.56815" lon="-0.92732">
        <ele>110</ele>
        <time>2021-05-08T08:05:34Z</time>
      </trkpt>
      <trkpt lat="43.56813" lon="-0.92731">
        <ele>110</ele>
        <time>2021-05-08T08:05:35Z</time>
      </trkpt>
      <trkpt lat="43.56811" lon="-0.92729">
        <ele>110</ele>
        <time>2021-05-08T08:05:36Z</time>
      </trkpt>
      <trkpt lat="43.56808" lon="-0.92728">
        <ele>110</ele>
        <time>2021-05-08T08:05:37Z</time>
      </trkpt>
      <trkpt lat="43.56806" lon="-0.92727">
        <ele>110</ele>
        <time>2021-05-08T08:05:38Z</time>
      </trkpt>
      <trkpt lat="43.56803" lon="-0.92725">
        <ele>110</ele>
        <time>2021-05-08T08:05:39Z</time>
      </trkpt>
      <trkpt lat="43.56801" lon="-0.92724">
        <ele>110</ele>
        <time>2021-05-08T08:05:40Z</time>
      </trkpt>
      <trkpt lat="43.56798" lon="-0.92722">
        <ele>110</ele>
        <time>2021-05-08T08:05:41Z</time>
      </trkpt>
      <trkpt lat="43.56796" lon="-0.92721">
        <ele>110</ele>
        <time>2021-05-08T08:05:42Z</time>
      </trkpt>
      <trkpt lat="43.56794" lon="-0.9272">
        <ele>111</ele>
        <time>2021-05-08T08:05:43Z</time>
      </trkpt>
      <trkpt lat="43.56791" lon="-0.92719">
        <ele>111</ele>
        <time>2021-05-08T08:05:44Z</time>
      </trkpt>
      <trkpt lat="43.56789" lon="-0.92718">
        <ele>111</ele>
        <time>2021-05-08T08:05:45Z</time>
      </trkpt>
      <trkpt lat="43.56787" lon="-0.92716">
        <ele>111</ele>
        <time>2021-05-08T08:05:46Z</time>
      </trkpt>
      <trkpt lat="43.56785" lon="-0.92715">
        <ele>111</ele>
        <time>2021-05-08T08:05:47Z</time>
      </trkpt>
      <trkpt lat="43.56783" lon="-0.92714">
        <ele>111</ele>
        <time>2021-05-08T08:05:48Z</time>
      </trkpt>
      <trkpt lat="43.56781" lon="-0.92712">
        <ele>111</ele>
        <time>2021-05-08T08:05:49Z</time>
      </trkpt>
      <trkpt lat="43.56779" lon="-0.92711">
        <ele>111</ele>
        <time>2021-05-08T08:05:50Z</time>
      </trkpt>
      <trkpt lat="43.56778" lon="-0.92709">
        <ele>111</ele>
        <time>2021-05-08T08:05:51Z</time>
      </trkpt>
      <trkpt lat="43.56776" lon="-0.92708">
        <ele>111</ele>
        <time>2021-05-08T08:05:52Z</time>
      </trkpt>
      <trkpt lat="43.56773" lon="-0.92706">
        <ele>112</ele>
        <time>2021-05-08T08:05:53Z</time>
      </trkpt>
      <trkpt lat="43.56771" lon="-0.92705">
        <ele>112</ele>
        <time>2021-05-08T08:05:54Z</time>
      </trkpt>
      <trkpt lat="43.56768" lon="-0.92704">
        <ele>112</ele>
        <time>2021-05-08T08:05:55Z</time>
      </trkpt>
      <trkpt lat="43.56766" lon="-0.92703">
        <ele>112</ele>
        <time>2021-05-08T08:05:56Z</time>
      </trkpt>
      <trkpt lat="43.56764" lon="-0.92702">
        <ele>112</ele>
        <time>2021-05-08T08:05:57Z</time>
      </trkpt>
      <trkpt lat="43.56761" lon="-0.92701">
        <ele>112</ele>
        <time>2021-05-08T08:05:58Z</time>
      </trkpt>
      <trkpt lat="43.56759" lon="-0.927">
        <ele>112</ele>
        <time>2021-05-08T08:05:59Z</time>
      </trkpt>
      <trkpt lat="43.56757" lon="-0.92699">
        <ele>112</ele>
        <time>2021-05-08T08:06:00Z</time>
      </trkpt>
      <trkpt lat="43.56755" lon="-0.92698">
        <ele>112</ele>
        <time>2021-05-08T08:06:01Z</time>
      </trkpt>
      <trkpt lat="43.56753" lon="-0.92697">
        <ele>112</ele>
        <time>2021-05-08T08:06:02Z</time>
      </trkpt>
      <trkpt lat="43.56751" lon="-0.92695">
        <ele>112</ele>
        <time>2021-05-08T08:06:03Z</time>
      </trkpt>
      <trkpt lat="43.56749" lon="-0.92694">
        <ele>112</ele>
        <time>2021-05-08T08:06:04Z</time>
      </trkpt>
      <trkpt lat="43.56747" lon="-0.92693">
        <ele>112</ele>
        <time>2021-05-08T08:06:05Z</time>
      </trkpt>
      <trkpt lat="43.56745" lon="-0.92691">
        <ele>112</ele>
        <time>2021-05-08T08:06:06Z</time>
      </trkpt>
      <trkpt lat="43.56742" lon="-0.9269">
        <ele>112</ele>
        <time>2021-05-08T08:06:07Z</time>
      </trkpt>
      <trkpt lat="43.5674" lon="-0.92688">
        <ele>112</ele>
        <time>2021-05-08T08:06:08Z</time>
      </trkpt>
      <trkpt lat="43.56737" lon="-0.92687">
        <ele>112</ele>
        <time>2021-05-08T08:06:09Z</time>
      </trkpt>
      <trkpt lat="43.56735" lon="-0.92686">
        <ele>112</ele>
        <time>2021-05-08T08:06:10Z</time>
      </trkpt>
      <trkpt lat="43.56732" lon="-0.92685">
        <ele>112</ele>
        <time>2021-05-08T08:06:11Z</time>
      </trkpt>
      <trkpt lat="43.5673" lon="-0.92684">
        <ele>112</ele>
        <time>2021-05-08T08:06:12Z</time>
      </trkpt>
      <trkpt lat="43.56727" lon="-0.92683">
        <ele>112</ele>
        <time>2021-05-08T08:06:13Z</time>
      </trkpt>
      <trkpt lat="43.56725" lon="-0.92682">
        <ele>112</ele>
        <time>2021-05-08T08:06:14Z</time>
      </trkpt>
      <trkpt lat="43.56722" lon="-0.92681">
        <ele>112</ele>
        <time>2021-05-08T08:06:15Z</time>
      </trkpt>
      <trkpt lat="43.5672" lon="-0.92679">
        <ele>112</ele>
        <time>2021-05-08T08:06:16Z</time>
      </trkpt>
      <trkpt lat="43.56718" lon="-0.92678">
        <ele>112</ele>
        <time>2021-05-08T08:06:17Z</time>
      </trkpt>
      <trkpt lat="43.56716" lon="-0.92677">
        <ele>112</ele>
        <time>2021-05-08T08:06:18Z</time>
      </trkpt>
      <trkpt lat="43.56713" lon="-0.92676">
        <ele>112</ele>
        <time>2021-05-08T08:06:19Z</time>
      </trkpt>
      <trkpt lat="43.56711" lon="-0.92675">
        <ele>112</ele>
        <time>2021-05-08T08:06:20Z</time>
      </trkpt>
      <trkpt lat="43.56709" lon="-0.92673">
        <ele>112</ele>
        <time>2021-05-08T08:06:21Z</time>
      </trkpt>
      <trkpt lat="43.56707" lon="-0.92672">
        <ele>112</ele>
        <time>2021-05-08T08:06:22Z</time>
      </trkpt>
      <trkpt lat="43.56704" lon="-0.92671">
        <ele>112</ele>
        <time>2021-05-08T08:06:23Z</time>
      </trkpt>
      <trkpt lat="43.56702" lon="-0.92671">
        <ele>111</ele>
        <time>2021-05-08T08:06:24Z</time>
      </trkpt>
      <trkpt lat="43.56699" lon="-0.9267">
        <ele>111</ele>
        <time>2021-05-08T08:06:25Z</time>
      </trkpt>
      <trkpt lat="43.56696" lon="-0.92669">
        <ele>111</ele>
        <time>2021-05-08T08:06:26Z</time>
      </trkpt>
      <trkpt lat="43.56693" lon="-0.92668">
        <ele>111</ele>
        <time>2021-05-08T08:06:27Z</time>
      </trkpt>
      <trkpt lat="43.5669" lon="-0.92667">
        <ele>111</ele>
        <time>2021-05-08T08:06:28Z</time>
      </trkpt>
      <trkpt lat="43.56687" lon="-0.92666">
        <ele>110</ele>
        <time>2021-05-08T08:06:29Z</time>
      </trkpt>
      <trkpt lat="43.56684" lon="-0.92666">
        <ele>110</ele>
        <time>2021-05-08T08:06:30Z</time>
      </trkpt>
      <trkpt lat="43.56681" lon="-0.92665">
        <ele>109</ele>
        <time>2021-05-08T08:06:31Z</time>
      </trkpt>
      <trkpt lat="43.56678" lon="-0.92664">
        <ele>109</ele>
        <time>2021-05-08T08:06:32Z</time>
      </trkpt>
      <trkpt lat="43.56675" lon="-0.92664">
        <ele>109</ele>
        <time>2021-05-08T08:06:33Z</time>
      </trkpt>
      <trkpt lat="43.56672" lon="-0.92664">
        <ele>108</ele>
        <time>2021-05-08T08:06:34Z</time>
      </trkpt>
      <trkpt lat="43.56669" lon="-0.92664">
        <ele>108</ele>
        <time>2021-05-08T08:06:35Z</time>
      </trkpt>
      <trkpt lat="43.56667" lon="-0.92663">
        <ele>108</ele>
        <time>2021-05-08T08:06:36Z</time>
      </trkpt>
      <trkpt lat="43.56664" lon="-0.92663">
        <ele>108</ele>
        <time>2021-05-08T08:06:37Z</time>
      </trkpt>
      <trkpt lat="43.56661" lon="-0.92662">
        <ele>108</ele>
        <time>2021-05-08T08:06:38Z</time>
      </trkpt>
      <trkpt lat="43.56659" lon="-0.92662">
        <ele>107</ele>
        <time>2021-05-08T08:06:39Z</time>
      </trkpt>
      <trkpt lat="43.56656" lon="-0.92661">
        <ele>107</ele>
        <time>2021-05-08T08:06:40Z</time>
      </trkpt>
      <trkpt lat="43.56654" lon="-0.92661">
        <ele>106</ele>
        <time>2021-05-08T08:06:41Z</time>
      </trkpt>
      <trkpt lat="43.56651" lon="-0.9266">
        <ele>106</ele>
        <time>2021-05-08T08:06:42Z</time>
      </trkpt>
      <trkpt lat="43.56648" lon="-0.9266">
        <ele>106</ele>
        <time>2021-05-08T08:06:43Z</time>
      </trkpt>
      <trkpt lat="43.56646" lon="-0.92659">
        <ele>105</ele>
        <time>2021-05-08T08:06:44Z</time>
      </trkpt>
      <trkpt lat="43.56643" lon="-0.92659">
        <ele>104</ele>
        <time>2021-05-08T08:06:45Z</time>
      </trkpt>
      <trkpt lat="43.5664" lon="-0.92658">
        <ele>104</ele>
        <time>2021-05-08T08:06:46Z</time>
      </trkpt>
      <trkpt lat="43.56637" lon="-0.92657">
        <ele>103</ele>
        <time>2021-05-08T08:06:47Z</time>
      </trkpt>
      <trkpt lat="43.56634" lon="-0.92657">
        <ele>103</ele>
        <time>2021-05-08T08:06:48Z</time>
      </trkpt>
      <trkpt lat="43.56632" lon="-0.92656">
        <ele>102</ele>
        <time>2021-05-08T08:06:49Z</time>
      </trkpt>
      <trkpt lat="43.56628" lon="-0.92655">
        <ele>102</ele>
        <time>2021-05-08T08:06:50Z</time>
      </trkpt>
      <trkpt lat="43.56625" lon="-0.92654">
        <ele>102</ele>
        <time>2021-05-08T08:06:51Z</time>
      </trkpt>
      <trkpt lat="43.56622" lon="-0.92654">
        <ele>102</ele>
        <time>2021-05-08T08:06:52Z</time>
      </trkpt>
      <trkpt lat="43.5662" lon="-0.92653">
        <ele>102</ele>
        <time>2021-05-08T08:06:53Z</time>
      </trkpt>
      <trkpt lat="43.56617" lon="-0.92652">
        <ele>101</ele>
        <time>2021-05-08T08:06:54Z</time>
      </trkpt>
      <trkpt lat="43.56614" lon="-0.92651">
        <ele>100</ele>
        <time>2021-05-08T08:06:55Z</time>
      </trkpt>
      <trkpt lat="43.56611" lon="-0.92651">
        <ele>100</ele>
        <time>2021-05-08T08:06:56Z</time>
      </trkpt>
      <trkpt lat="43.56609" lon="-0.92651">
        <ele>99</ele>
        <time>2021-05-08T08:06:57Z</time>
      </trkpt>
      <trkpt lat="43.56606" lon="-0.9265">
        <ele>99</ele>
        <time>2021-05-08T08:06:58Z</time>
      </trkpt>
      <trkpt lat="43.56603" lon="-0.9265">
        <ele>98</ele>
        <time>2021-05-08T08:06:59Z</time>
      </trkpt>
      <trkpt lat="43.566" lon="-0.92649">
        <ele>98</ele>
        <time>2021-05-08T08:07:00Z</time>
      </trkpt>
      <trkpt lat="43.56596" lon="-0.92648">
        <ele>97</ele>
        <time>2021-05-08T08:07:01Z</time>
      </trkpt>
      <trkpt lat="43.56593" lon="-0.92647">
        <ele>97</ele>
        <time>2021-05-08T08:07:02Z</time>
      </trkpt>
      <trkpt lat="43.5659" lon="-0.92646">
        <ele>97</ele>
        <time>2021-05-08T08:07:03Z</time>
      </trkpt>
      <trkpt lat="43.56587" lon="-0.92645">
        <ele>96</ele>
        <time>2021-05-08T08:07:04Z</time>
      </trkpt>
      <trkpt lat="43.56584" lon="-0.92643">
        <ele>96</ele>
        <time>2021-05-08T08:07:05Z</time>
      </trkpt>
      <trkpt lat="43.56581" lon="-0.92642">
        <ele>95</ele>
        <time>2021-05-08T08:07:06Z</time>
      </trkpt>
      <trkpt lat="43.56578" lon="-0.92641">
        <ele>95</ele>
        <time>2021-05-08T08:07:07Z</time>
      </trkpt>
      <trkpt lat="43.56576" lon="-0.9264">
        <ele>95</ele>
        <time>2021-05-08T08:07:08Z</time>
      </trkpt>
      <trkpt lat="43.56573" lon="-0.92639">
        <ele>94</ele>
        <time>2021-05-08T08:07:09Z</time>
      </trkpt>
      <trkpt lat="43.5657" lon="-0.92638">
        <ele>94</ele>
        <time>2021-05-08T08:07:10Z</time>
      </trkpt>
      <trkpt lat="43.56568" lon="-0.92636">
        <ele>94</ele>
        <time>2021-05-08T08:07:11Z</time>
      </trkpt>
      <trkpt lat="43.56565" lon="-0.92635">
        <ele>94</ele>
        <time>2021-05-08T08:07:12Z</time>
      </trkpt>
      <trkpt lat="43.56563" lon="-0.92633">
        <ele>94</ele>
        <time>2021-05-08T08:07:13Z</time>
      </trkpt>
      <trkpt lat="43.5656" lon="-0.92631">
        <ele>93</ele>
        <time>2021-05-08T08:07:14Z</time>
      </trkpt>
      <trkpt lat="43.56558" lon="-0.9263">
        <ele>93</ele>
        <time>2021-05-08T08:07:15Z</time>
      </trkpt>
      <trkpt lat="43.56556" lon="-0.92627">
        <ele>92</ele>
        <time>2021-05-08T08:07:16Z</time>
      </trkpt>
      <trkpt lat="43.56554" lon="-0.92625">
        <ele>92</ele>
        <time>2021-05-08T08:07:17Z</time>
      </trkpt>
      <trkpt lat="43.56552" lon="-0.92623">
        <ele>92</ele>
        <time>2021-05-08T08:07:18Z</time>
      </trkpt>
      <trkpt lat="43.5655" lon="-0.92621">
        <ele>91</ele>
        <time>2021-05-08T08:07:19Z</time>
      </trkpt>
      <trkpt lat="43.56547" lon="-0.92618">
        <ele>91</ele>
        <time>2021-05-08T08:07:20Z</time>
      </trkpt>
      <trkpt lat="43.56545" lon="-0.92616">
        <ele>90</ele>
        <time>2021-05-08T08:07:21Z</time>
      </trkpt>
      <trkpt lat="43.56543" lon="-0.92614">
        <ele>90</ele>
        <time>2021-05-08T08:07:22Z</time>
      </trkpt>
      <trkpt lat="43.5654" lon="-0.92612">
        <ele>90</ele>
        <time>2021-05-08T08:07:23Z</time>
      </trkpt>
      <trkpt lat="43.56538" lon="-0.92611">
        <ele>89</ele>
        <time>2021-05-08T08:07:24Z</time>
      </trkpt>
      <trkpt lat="43.56536" lon="-0.92609">
        <ele>89</ele>
        <time>2021-05-08T08:07:25Z</time>
      </trkpt>
      <trkpt lat="43.56534" lon="-0.92608">
        <ele>88</ele>
        <time>2021-05-08T08:07:26Z</time>
      </trkpt>
      <trkpt lat="43.56531" lon="-0.92606">
        <ele>88</ele>
        <time>2021-05-08T08:07:27Z</time>
      </trkpt>
      <trkpt lat="43.56529" lon="-0.92604">
        <ele>88</ele>
        <time>2021-05-08T08:07:28Z</time>
      </trkpt>
      <trkpt lat="43.56526" lon="-0.92603">
        <ele>87</ele>
        <time>2021-05-08T08:07:29Z</time>
      </trkpt>
      <trkpt lat="43.56524" lon="-0.92601">
        <ele>87</ele>
        <time>2021-05-08T08:07:30Z</time>
      </trkpt>
      <trkpt lat="43.56521" lon="-0.92598">
        <ele>87</ele>
        <time>2021-05-08T08:07:31Z</time>
      </trkpt>
      <trkpt lat="43.56519" lon="-0.92596">
        <ele>87</ele>
        <time>2021-05-08T08:07:32Z</time>
      </trkpt>
      <trkpt lat="43.56517" lon="-0.92594">
        <ele>87</ele>
        <time>2021-05-08T08:07:33Z</time>
      </trkpt>
      <trkpt lat="43.56515" lon="-0.92592">
        <ele>86</ele>
        <time>2021-05-08T08:07:34Z</time>
      </trkpt>
      <trkpt lat="43.56513" lon="-0.92589">
        <ele>86</ele>
        <time>2021-05-08T08:07:35Z</time>
      </trkpt>
      <trkpt lat="43.5651" lon="-0.92587">
        <ele>86</ele>
        <time>2021-05-08T08:07:36Z</time>
      </trkpt>
      <trkpt lat="43.56508" lon="-0.92585">
        <ele>86</ele>
        <time>2021-05-08T08:07:37Z</time>
      </trkpt>
      <trkpt lat="43.56506" lon="-0.92583">
        <ele>86</ele>
        <time>2021-05-08T08:07:38Z</time>
      </trkpt>
      <trkpt lat="43.56503" lon="-0.92581">
        <ele>85</ele>
        <time>2021-05-08T08:07:39Z</time>
      </trkpt>
      <trkpt lat="43.56501" lon="-0.9258">
        <ele>85</ele>
        <time>2021-05-08T08:07:40Z</time>
      </trkpt>
      <trkpt lat="43.56499" lon="-0.92578">
        <ele>84</ele>
        <time>2021-05-08T08:07:41Z</time>
      </trkpt>
      <trkpt lat="43.56496" lon="-0.92576">
        <ele>84</ele>
        <time>2021-05-08T08:07:42Z</time>
      </trkpt>
      <trkpt lat="43.56494" lon="-0.92575">
        <ele>84</ele>
        <time>2021-05-08T08:07:43Z</time>
      </trkpt>
      <trkpt lat="43.56491" lon="-0.92573">
        <ele>83</ele>
        <time>2021-05-08T08:07:44Z</time>
      </trkpt>
      <trkpt lat="43.56489" lon="-0.92571">
        <ele>83</ele>
        <time>2021-05-08T08:07:45Z</time>
      </trkpt>
      <trkpt lat="43.56486" lon="-0.92569">
        <ele>82</ele>
        <time>2021-05-08T08:07:46Z</time>
      </trkpt>
      <trkpt lat="43.56484" lon="-0.92568">
        <ele>82</ele>
        <time>2021-05-08T08:07:47Z</time>
      </trkpt>
      <trkpt lat="43.56481" lon="-0.92566">
        <ele>82</ele>
        <time>2021-05-08T08:07:48Z</time>
      </trkpt>
      <trkpt lat="43.56478" lon="-0.92564">
        <ele>81</ele>
        <time>2021-05-08T08:07:49Z</time>
      </trkpt>
      <trkpt lat="43.56475" lon="-0.92563">
        <ele>81</ele>
        <time>2021-05-08T08:07:50Z</time>
      </trkpt>
      <trkpt lat="43.56471" lon="-0.92561">
        <ele>81</ele>
        <time>2021-05-08T08:07:51Z</time>
      </trkpt>
      <trkpt lat="43.56468" lon="-0.92559">
        <ele>81</ele>
        <time>2021-05-08T08:07:52Z</time>
      </trkpt>
      <trkpt lat="43.56465" lon="-0.92557">
        <ele>81</ele>
        <time>2021-05-08T08:07:53Z</time>
      </trkpt>
      <trkpt lat="43.56463" lon="-0.92555">
        <ele>80</ele>
        <time>2021-05-08T08:07:54Z</time>
      </trkpt>
      <trkpt lat="43.5646" lon="-0.92554">
        <ele>80</ele>
        <time>2021-05-08T08:07:55Z</time>
      </trkpt>
      <trkpt lat="43.56458" lon="-0.92552">
        <ele>80</ele>
        <time>2021-05-08T08:07:56Z</time>
      </trkpt>
      <trkpt lat="43.56455" lon="-0.9255">
        <ele>80</ele>
        <time>2021-05-08T08:07:57Z</time>
      </trkpt>
      <trkpt lat="43.56452" lon="-0.92547">
        <ele>80</ele>
        <time>2021-05-08T08:07:58Z</time>
      </trkpt>
      <trkpt lat="43.5645" lon="-0.92545">
        <ele>79</ele>
        <time>2021-05-08T08:07:59Z</time>
      </trkpt>
      <trkpt lat="43.56448" lon="-0.92542">
        <ele>79</ele>
        <time>2021-05-08T08:08:00Z</time>
      </trkpt>
      <trkpt lat="43.56445" lon="-0.9254">
        <ele>79</ele>
        <time>2021-05-08T08:08:01Z</time>
      </trkpt>
      <trkpt lat="43.56443" lon="-0.92537">
        <ele>79</ele>
        <time>2021-05-08T08:08:02Z</time>
      </trkpt>
      <trkpt lat="43.56441" lon="-0.92534">
        <ele>79</ele>
        <time>2021-05-08T08:08:03Z</time>
      </trkpt>
      <trkpt lat="43.56439" lon="-0.92531">
        <ele>78</ele>
        <time>2021-05-08T08:08:04Z</time>
      </trkpt>
      <trkpt lat="43.56437" lon="-0.92528">
        <ele>78</ele>
        <time>2021-05-08T08:08:05Z</time>
      </trkpt>
      <trkpt lat="43.56435" lon="-0.92525">
        <ele>78</ele>
        <time>2021-05-08T08:08:06Z</time>
      </trkpt>
      <trkpt lat="43.56433" lon="-0.92522">
        <ele>78</ele>
        <time>2021-05-08T08:08:07Z</time>
      </trkpt>
      <trkpt lat="43.56431" lon="-0.92519">
        <ele>78</ele>
        <time>2021-05-08T08:08:08Z</time>
      </trkpt>
      <trkpt lat="43.56429" lon="-0.92516">
        <ele>78</ele>
        <time>2021-05-08T08:08:09Z</time>
      </trkpt>
      <trkpt lat="43.56428" lon="-0.92513">
        <ele>78</ele>
        <time>2021-05-08T08:08:10Z</time>
      </trkpt>
      <trkpt lat="43.56426" lon="-0.9251">
        <ele>78</ele>
        <time>2021-05-08T08:08:11Z</time>
      </trkpt>
      <trkpt lat="43.56425" lon="-0.92507">
        <ele>78</ele>
        <time>2021-05-08T08:08:12Z</time>
      </trkpt>
      <trkpt lat="43.56423" lon="-0.92504">
        <ele>78</ele>
        <time>2021-05-08T08:08:13Z</time>
      </trkpt>
      <trkpt lat="43.56421" lon="-0.92501">
        <ele>77</ele>
        <time>2021-05-08T08:08:14Z</time>
      </trkpt>
      <trkpt lat="43.5642" lon="-0.92499">
        <ele>77</ele>
        <time>2021-05-08T08:08:15Z</time>
      </trkpt>
      <trkpt lat="43.56418" lon="-0.92496">
        <ele>77</ele>
        <time>2021-05-08T08:08:16Z</time>
      </trkpt>
      <trkpt lat="43.56416" lon="-0.92493">
        <ele>77</ele>
        <time>2021-05-08T08:08:17Z</time>
      </trkpt>
      <trkpt lat="43.56414" lon="-0.92491">
        <ele>77</ele>
        <time>2021-05-08T08:08:18Z</time>
      </trkpt>
      <trkpt lat="43.56412" lon="-0.92488">
        <ele>77</ele>
        <time>2021-05-08T08:08:19Z</time>
      </trkpt>
      <trkpt lat="43.5641" lon="-0.92486">
        <ele>77</ele>
        <time>2021-05-08T08:08:20Z</time>
      </trkpt>
      <trkpt lat="43.56408" lon="-0.92483">
        <ele>77</ele>
        <time>2021-05-08T08:08:21Z</time>
      </trkpt>
      <trkpt lat="43.56406" lon="-0.92481">
        <ele>77</ele>
        <time>2021-05-08T08:08:22Z</time>
      </trkpt>
      <trkpt lat="43.56404" lon="-0.92478">
        <ele>77</ele>
        <time>2021-05-08T08:08:23Z</time>
      </trkpt>
      <trkpt lat="43.56402" lon="-0.92476">
        <ele>76</ele>
        <time>2021-05-08T08:08:24Z</time>
      </trkpt>
      <trkpt lat="43.564" lon="-0.92473">
        <ele>76</ele>
        <time>2021-05-08T08:08:25Z</time>
      </trkpt>
      <trkpt lat="43.56398" lon="-0.92471">
        <ele>76</ele>
        <time>2021-05-08T08:08:26Z</time>
      </trkpt>
      <trkpt lat="43.56396" lon="-0.92469">
        <ele>76</ele>
        <time>2021-05-08T08:08:27Z</time>
      </trkpt>
      <trkpt lat="43.56394" lon="-0.92468">
        <ele>76</ele>
        <time>2021-05-08T08:08:28Z</time>
      </trkpt>
      <trkpt lat="43.56392" lon="-0.92466">
        <ele>76</ele>
        <time>2021-05-08T08:08:29Z</time>
      </trkpt>
      <trkpt lat="43.5639" lon="-0.92465">
        <ele>76</ele>
        <time>2021-05-08T08:08:30Z</time>
      </trkpt>
      <trkpt lat="43.56388" lon="-0.92464">
        <ele>76</ele>
        <time>2021-05-08T08:08:31Z</time>
      </trkpt>
      <trkpt lat="43.56386" lon="-0.92462">
        <ele>76</ele>
        <time>2021-05-08T08:08:32Z</time>
      </trkpt>
      <trkpt lat="43.56385" lon="-0.92461">
        <ele>76</ele>
        <time>2021-05-08T08:08:33Z</time>
      </trkpt>
      <trkpt lat="43.56383" lon="-0.92459">
        <ele>76</ele>
        <time>2021-05-08T08:08:34Z</time>
      </trkpt>
      <trkpt lat="43.56381" lon="-0.92457">
        <ele>76</ele>
        <time>2021-05-08T08:08:35Z</time>
      </trkpt>
      <trkpt lat="43.5638" lon="-0.92455">
        <ele>76</ele>
        <time>2021-05-08T08:08:36Z</time>
      </trkpt>
      <trkpt lat="43.56378" lon="-0.92453">
        <ele>76</ele>
        <time>2021-05-08T08:08:37Z</time>
      </trkpt>
      <trkpt lat="43.56376" lon="-0.92451">
        <ele>77</ele>
        <time>2021-05-08T08:08:38Z</time>
      </trkpt>
      <trkpt lat="43.56374" lon="-0.92449">
        <ele>77</ele>
        <time>2021-05-08T08:08:39Z</time>
      </trkpt>
      <trkpt lat="43.56373" lon="-0.92446">
        <ele>77</ele>
        <time>2021-05-08T08:08:40Z</time>
      </trkpt>
      <trkpt lat="43.56371" lon="-0.92443">
        <ele>77</ele>
        <time>2021-05-08T08:08:41Z</time>
      </trkpt>
      <trkpt lat="43.5637" lon="-0.9244">
        <ele>77</ele>
        <time>2021-05-08T08:08:42Z</time>
      </trkpt>
      <trkpt lat="43.56368" lon="-0.92438">
        <ele>77</ele>
        <time>2021-05-08T08:08:43Z</time>
      </trkpt>
      <trkpt lat="43.56367" lon="-0.92435">
        <ele>77</ele>
        <time>2021-05-08T08:08:44Z</time>
      </trkpt>
      <trkpt lat="43.56365" lon="-0.92432">
        <ele>77</ele>
        <time>2021-05-08T08:08:45Z</time>
      </trkpt>
      <trkpt lat="43.56364" lon="-0.92429">
        <ele>77</ele>
        <time>2021-05-08T08:08:46Z</time>
      </trkpt>
      <trkpt lat="43.56363" lon="-0.92426">
        <ele>77</ele>
        <time>2021-05-08T08:08:47Z</time>
      </trkpt>
      <trkpt lat="43.56362" lon="-0.92424">
        <ele>78</ele>
        <time>2021-05-08T08:08:48Z</time>
      </trkpt>
      <trkpt lat="43.56361" lon="-0.92421">
        <ele>78</ele>
        <time>2021-05-08T08:08:49Z</time>
      </trkpt>
      <trkpt lat="43.5636" lon="-0.92418">
        <ele>78</ele>
        <time>2021-05-08T08:08:50Z</time>
      </trkpt>
      <trkpt lat="43.56359" lon="-0.92415">
        <ele>78</ele>
        <time>2021-05-08T08:08:51Z</time>
      </trkpt>
      <trkpt lat="43.56357" lon="-0.92413">
        <ele>78</ele>
        <time>2021-05-08T08:08:52Z</time>
      </trkpt>
      <trkpt lat="43.56356" lon="-0.9241">
        <ele>79</ele>
        <time>2021-05-08T08:08:53Z</time>
      </trkpt>
      <trkpt lat="43.56354" lon="-0.92407">
        <ele>79</ele>
        <time>2021-05-08T08:08:54Z</time>
      </trkpt>
      <trkpt lat="43.56353" lon="-0.92405">
        <ele>79</ele>
        <time>2021-05-08T08:08:55Z</time>
      </trkpt>
      <trkpt lat="43.56352" lon="-0.92403">
        <ele>79</ele>
        <time>2021-05-08T08:08:56Z</time>
      </trkpt>
      <trkpt lat="43.56351" lon="-0.924">
        <ele>79</ele>
        <time>2021-05-08T08:08:57Z</time>
      </trkpt>
      <trkpt lat="43.5635" lon="-0.92398">
        <ele>80</ele>
        <time>2021-05-08T08:08:58Z</time>
      </trkpt>
      <trkpt lat="43.56349" lon="-0.92395">
        <ele>80</ele>
        <time>2021-05-08T08:08:59Z</time>
      </trkpt>
      <trkpt lat="43.56347" lon="-0.92393">
        <ele>80</ele>
        <time>2021-05-08T08:09:00Z</time>
      </trkpt>
      <trkpt lat="43.56346" lon="-0.92391">
        <ele>80</ele>
        <time>2021-05-08T08:09:01Z</time>
      </trkpt>
      <trkpt lat="43.56344" lon="-0.92389">
        <ele>80</ele>
        <time>2021-05-08T08:09:02Z</time>
      </trkpt>
      <trkpt lat="43.56343" lon="-0.92387">
        <ele>81</ele>
        <time>2021-05-08T08:09:03Z</time>
      </trkpt>
      <trkpt lat="43.56341" lon="-0.92385">
        <ele>81</ele>
        <time>2021-05-08T08:09:04Z</time>
      </trkpt>
      <trkpt lat="43.5634" lon="-0.92383">
        <ele>81</ele>
        <time>2021-05-08T08:09:05Z</time>
      </trkpt>
      <trkpt lat="43.56338" lon="-0.92381">
        <ele>81</ele>
        <time>2021-05-08T08:09:06Z</time>
      </trkpt>
      <trkpt lat="43.56336" lon="-0.92379">
        <ele>81</ele>
        <time>2021-05-08T08:09:07Z</time>
      </trkpt>
      <trkpt lat="43.56334" lon="-0.92378">
        <ele>82</ele>
        <time>2021-05-08T08:09:08Z</time>
      </trkpt>
      <trkpt lat="43.56333" lon="-0.92377">
        <ele>82</ele>
        <time>2021-05-08T08:09:09Z</time>
      </trkpt>
      <trkpt lat="43.56331" lon="-0.92376">
        <ele>82</ele>
        <time>2021-05-08T08:09:10Z</time>
      </trkpt>
      <trkpt lat="43.56329" lon="-0.92376">
        <ele>82</ele>
        <time>2021-05-08T08:09:11Z</time>
      </trkpt>
      <trkpt lat="43.56327" lon="-0.92377">
        <ele>82</ele>
        <time>2021-05-08T08:09:12Z</time>
      </trkpt>
      <trkpt lat="43.56325" lon="-0.92377">
        <ele>83</ele>
        <time>2021-05-08T08:09:13Z</time>
      </trkpt>
      <trkpt lat="43.56323" lon="-0.92379">
        <ele>83</ele>
        <time>2021-05-08T08:09:14Z</time>
      </trkpt>
      <trkpt lat="43.56322" lon="-0.9238">
        <ele>83</ele>
        <time>2021-05-08T08:09:15Z</time>
      </trkpt>
      <trkpt lat="43.5632" lon="-0.92383">
        <ele>83</ele>
        <time>2021-05-08T08:09:16Z</time>
      </trkpt>
      <trkpt lat="43.56319" lon="-0.92385">
        <ele>83</ele>
        <time>2021-05-08T08:09:17Z</time>
      </trkpt>
      <trkpt lat="43.56318" lon="-0.92387">
        <ele>84</ele>
        <time>2021-05-08T08:09:18Z</time>
      </trkpt>
      <trkpt lat="43.56317" lon="-0.9239">
        <ele>84</ele>
        <time>2021-05-08T08:09:19Z</time>
      </trkpt>
      <trkpt lat="43.56315" lon="-0.92391">
        <ele>84</ele>
        <time>2021-05-08T08:09:20Z</time>
      </trkpt>
      <trkpt lat="43.56314" lon="-0.92393">
        <ele>84</ele>
        <time>2021-05-08T08:09:21Z</time>
      </trkpt>
      <trkpt lat="43.56313" lon="-0.92395">
        <ele>84</ele>
        <time>2021-05-08T08:09:22Z</time>
      </trkpt>
      <trkpt lat="43.56312" lon="-0.92396">
        <ele>85</ele>
        <time>2021-05-08T08:09:23Z</time>
      </trkpt>
      <trkpt lat="43.5631" lon="-0.92396">
        <ele>85</ele>
        <time>2021-05-08T08:09:24Z</time>
      </trkpt>
      <trkpt lat="43.56309" lon="-0.92397">
        <ele>85</ele>
        <time>2021-05-08T08:09:25Z</time>
      </trkpt>
      <trkpt lat="43.56307" lon="-0.92396">
        <ele>85</ele>
        <time>2021-05-08T08:09:26Z</time>
      </trkpt>
      <trkpt lat="43.56306" lon="-0.92396">
        <ele>85</ele>
        <time>2021-05-08T08:09:27Z</time>
      </trkpt>
      <trkpt lat="43.56304" lon="-0.92396">
        <ele>86</ele>
        <time>2021-05-08T08:09:28Z</time>
      </trkpt>
      <trkpt lat="43.56302" lon="-0.92396">
        <ele>86</ele>
        <time>2021-05-08T08:09:29Z</time>
      </trkpt>
      <trkpt lat="43.56301" lon="-0.92396">
        <ele>86</ele>
        <time>2021-05-08T08:09:30Z</time>
      </trkpt>
      <trkpt lat="43.56299" lon="-0.92396">
        <ele>87</ele>
        <time>2021-05-08T08:09:31Z</time>
      </trkpt>
      <trkpt lat="43.56298" lon="-0.92397">
        <ele>87</ele>
        <time>2021-05-08T08:09:32Z</time>
      </trkpt>
      <trkpt lat="43.56297" lon="-0.92397">
        <ele>88</ele>
        <time>2021-05-08T08:09:33Z</time>
      </trkpt>
      <trkpt lat="43.56296" lon="-0.92397">
        <ele>88</ele>
        <time>2021-05-08T08:09:34Z</time>
      </trkpt>
      <trkpt lat="43.56295" lon="-0.92397">
        <ele>88</ele>
        <time>2021-05-08T08:09:35Z</time>
      </trkpt>
      <trkpt lat="43.56293" lon="-0.92397">
        <ele>88</ele>
        <time>2021-05-08T08:09:36Z</time>
      </trkpt>
      <trkpt lat="43.56292" lon="-0.92397">
        <ele>88</ele>
        <time>2021-05-08T08:09:37Z</time>
      </trkpt>
      <trkpt lat="43.5629" lon="-0.92397">
        <ele>89</ele>
        <time>2021-05-08T08:09:38Z</time>
      </trkpt>
      <trkpt lat="43.56288" lon="-0.92398">
        <ele>89</ele>
        <time>2021-05-08T08:09:39Z</time>
      </trkpt>
      <trkpt lat="43.56287" lon="-0.92398">
        <ele>89</ele>
        <time>2021-05-08T08:09:40Z</time>
      </trkpt>
      <trkpt lat="43.56285" lon="-0.92398">
        <ele>89</ele>
        <time>2021-05-08T08:09:41Z</time>
      </trkpt>
      <trkpt lat="43.56283" lon="-0.92399">
        <ele>89</ele>
        <time>2021-05-08T08:09:42Z</time>
      </trkpt>
      <trkpt lat="43.56281" lon="-0.924">
        <ele>90</ele>
        <time>2021-05-08T08:09:43Z</time>
      </trkpt>
      <trkpt lat="43.56279" lon="-0.92401">
        <ele>90</ele>
        <time>2021-05-08T08:09:44Z</time>
      </trkpt>
      <trkpt lat="43.56277" lon="-0.92401">
        <ele>90</ele>
        <time>2021-05-08T08:09:45Z</time>
      </trkpt>
      <trkpt lat="43.56275" lon="-0.92402">
        <ele>91</ele>
        <time>2021-05-08T08:09:46Z</time>
      </trkpt>
      <trkpt lat="43.56273" lon="-0.92402">
        <ele>91</ele>
        <time>2021-05-08T08:09:47Z</time>
      </trkpt>
      <trkpt lat="43.56271" lon="-0.92403">
        <ele>92</ele>
        <time>2021-05-08T08:09:48Z</time>
      </trkpt>
      <trkpt lat="43.56269" lon="-0.92403">
        <ele>92</ele>
        <time>2021-05-08T08:09:49Z</time>
      </trkpt>
      <trkpt lat="43.56267" lon="-0.92404">
        <ele>92</ele>
        <time>2021-05-08T08:09:50Z</time>
      </trkpt>
      <trkpt lat="43.56265" lon="-0.92404">
        <ele>92</ele>
        <time>2021-05-08T08:09:51Z</time>
      </trkpt>
      <trkpt lat="43.56264" lon="-0.92405">
        <ele>92</ele>
        <time>2021-05-08T08:09:52Z</time>
      </trkpt>
      <trkpt lat="43.56262" lon="-0.92405">
        <ele>92</ele>
        <time>2021-05-08T08:09:53Z</time>
      </trkpt>
      <trkpt lat="43.5626" lon="-0.92405">
        <ele>92</ele>
        <time>2021-05-08T08:09:54Z</time>
      </trkpt>
      <trkpt lat="43.56259" lon="-0.92406">
        <ele>92</ele>
        <time>2021-05-08T08:09:55Z</time>
      </trkpt>
      <trkpt lat="43.56257" lon="-0.92406">
        <ele>92</ele>
        <time>2021-05-08T08:09:56Z</time>
      </trkpt>
      <trkpt lat="43.56255" lon="-0.92405">
        <ele>92</ele>
        <time>2021-05-08T08:09:57Z</time>
      </trkpt>
      <trkpt lat="43.56253" lon="-0.92405">
        <ele>93</ele>
        <time>2021-05-08T08:09:58Z</time>
      </trkpt>
      <trkpt lat="43.56252" lon="-0.92405">
        <ele>93</ele>
        <time>2021-05-08T08:09:59Z</time>
      </trkpt>
      <trkpt lat="43.5625" lon="-0.92405">
        <ele>93</ele>
        <time>2021-05-08T08:10:00Z</time>
      </trkpt>
      <trkpt lat="43.56248" lon="-0.92404">
        <ele>94</ele>
        <time>2021-05-08T08:10:01Z</time>
      </trkpt>
      <trkpt lat="43.56246" lon="-0.92404">
        <ele>94</ele>
        <time>2021-05-08T08:10:02Z</time>
      </trkpt>
      <trkpt lat="43.56244" lon="-0.92404">
        <ele>95</ele>
        <time>2021-05-08T08:10:03Z</time>
      </trkpt>
      <trkpt lat="43.56243" lon="-0.92403">
        <ele>95</ele>
        <time>2021-05-08T08:10:04Z</time>
      </trkpt>
      <trkpt lat="43.56241" lon="-0.92402">
        <ele>95</ele>
        <time>2021-05-08T08:10:05Z</time>
      </trkpt>
      <trkpt lat="43.5624" lon="-0.92401">
        <ele>95</ele>
        <time>2021-05-08T08:10:06Z</time>
      </trkpt>
      <trkpt lat="43.56238" lon="-0.924">
        <ele>95</ele>
        <time>2021-05-08T08:10:07Z</time>
      </trkpt>
      <trkpt lat="43.56237" lon="-0.92399">
        <ele>96</ele>
        <time>2021-05-08T08:10:08Z</time>
      </trkpt>
      <trkpt lat="43.56236" lon="-0.92398">
        <ele>96</ele>
        <time>2021-05-08T08:10:09Z</time>
      </trkpt>
      <trkpt lat="43.56235" lon="-0.92398">
        <ele>96</ele>
        <time>2021-05-08T08:10:10Z</time>
      </trkpt>
      <trkpt lat="43.56234" lon="-0.92397">
        <ele>96</ele>
        <time>2021-05-08T08:10:11Z</time>
      </trkpt>
      <trkpt lat="43.56233" lon="-0.92396">
        <ele>96</ele>
        <time>2021-05-08T08:10:12Z</time>
      </trkpt>
      <trkpt lat="43.56232" lon="-0.92395">
        <ele>97</ele>
        <time>2021-05-08T08:10:13Z</time>
      </trkpt>
      <trkpt lat="43.5623" lon="-0.92395">
        <ele>97</ele>
        <time>2021-05-08T08:10:14Z</time>
      </trkpt>
      <trkpt lat="43.56229" lon="-0.92394">
        <ele>97</ele>
        <time>2021-05-08T08:10:15Z</time>
      </trkpt>
      <trkpt lat="43.56228" lon="-0.92393">
        <ele>97</ele>
        <time>2021-05-08T08:10:16Z</time>
      </trkpt>
      <trkpt lat="43.56226" lon="-0.92393">
        <ele>97</ele>
        <time>2021-05-08T08:10:17Z</time>
      </trkpt>
      <trkpt lat="43.56225" lon="-0.92392">
        <ele>98</ele>
        <time>2021-05-08T08:10:18Z</time>
      </trkpt>
      <trkpt lat="43.56223" lon="-0.92392">
        <ele>98</ele>
        <time>2021-05-08T08:10:19Z</time>
      </trkpt>
      <trkpt lat="43.56222" lon="-0.92392">
        <ele>98</ele>
        <time>2021-05-08T08:10:20Z</time>
      </trkpt>
      <trkpt lat="43.5622" lon="-0.92391">
        <ele>98</ele>
        <time>2021-05-08T08:10:21Z</time>
      </trkpt>
      <trkpt lat="43.56218" lon="-0.92391">
        <ele>98</ele>
        <time>2021-05-08T08:10:22Z</time>
      </trkpt>
      <trkpt lat="43.56217" lon="-0.9239">
        <ele>99</ele>
        <time>2021-05-08T08:10:23Z</time>
      </trkpt>
      <trkpt lat="43.56215" lon="-0.9239">
        <ele>99</ele>
        <time>2021-05-08T08:10:24Z</time>
      </trkpt>
      <trkpt lat="43.56213" lon="-0.92389">
        <ele>99</ele>
        <time>2021-05-08T08:10:25Z</time>
      </trkpt>
      <trkpt lat="43.56212" lon="-0.92389">
        <ele>99</ele>
        <time>2021-05-08T08:10:26Z</time>
      </trkpt>
      <trkpt lat="43.5621" lon="-0.92388">
        <ele>99</ele>
        <time>2021-05-08T08:10:27Z</time>
      </trkpt>
      <trkpt lat="43.56209" lon="-0.92388">
        <ele>100</ele>
        <time>2021-05-08T08:10:28Z</time>
      </trkpt>
      <trkpt lat="43.56207" lon="-0.92387">
        <ele>100</ele>
        <time>2021-05-08T08:10:29Z</time>
      </trkpt>
      <trkpt lat="43.56205" lon="-0.92386">
        <ele>100</ele>
        <time>2021-05-08T08:10:30Z</time>
      </trkpt>
      <trkpt lat="43.56204" lon="-0.92385">
        <ele>100</ele>
        <time>2021-05-08T08:10:31Z</time>
      </trkpt>
      <trkpt lat="43.56202" lon="-0.92383">
        <ele>100</ele>
        <time>2021-05-08T08:10:32Z</time>
      </trkpt>
      <trkpt lat="43.56201" lon="-0.92381">
        <ele>101</ele>
        <time>2021-05-08T08:10:33Z</time>
      </trkpt>
      <trkpt lat="43.562" lon="-0.9238">
        <ele>101</ele>
        <time>2021-05-08T08:10:34Z</time>
      </trkpt>
      <trkpt lat="43.56198" lon="-0.92378">
        <ele>101</ele>
        <time>2021-05-08T08:10:35Z</time>
      </trkpt>
      <trkpt lat="43.56197" lon="-0.92376">
        <ele>102</ele>
        <time>2021-05-08T08:10:36Z</time>
      </trkpt>
      <trkpt lat="43.56196" lon="-0.92374">
        <ele>102</ele>
        <time>2021-05-08T08:10:37Z</time>
      </trkpt>
      <trkpt lat="43.56195" lon="-0.92373">
        <ele>103</ele>
        <time>2021-05-08T08:10:38Z</time>
      </trkpt>
      <trkpt lat="43.56194" lon="-0.92371">
        <ele>103</ele>
        <time>2021-05-08T08:10:39Z</time>
      </trkpt>
      <trkpt lat="43.56192" lon="-0.9237">
        <ele>103</ele>
        <time>2021-05-08T08:10:40Z</time>
      </trkpt>
      <trkpt lat="43.56191" lon="-0.92368">
        <ele>103</ele>
        <time>2021-05-08T08:10:41Z</time>
      </trkpt>
      <trkpt lat="43.56189" lon="-0.92366">
        <ele>103</ele>
        <time>2021-05-08T08:10:42Z</time>
      </trkpt>
      <trkpt lat="43.56187" lon="-0.92365">
        <ele>104</ele>
        <time>2021-05-08T08:10:43Z</time>
      </trkpt>
      <trkpt lat="43.56186" lon="-0.92362">
        <ele>104</ele>
        <time>2021-05-08T08:10:44Z</time>
      </trkpt>
      <trkpt lat="43.56184" lon="-0.9236">
        <ele>104</ele>
        <time>2021-05-08T08:10:45Z</time>
      </trkpt>
      <trkpt lat="43.56183" lon="-0.92357">
        <ele>104</ele>
        <time>2021-05-08T08:10:46Z</time>
      </trkpt>
      <trkpt lat="43.56181" lon="-0.92355">
        <ele>104</ele>
        <time>2021-05-08T08:10:47Z</time>
      </trkpt>
      <trkpt lat="43.5618" lon="-0.92353">
        <ele>104</ele>
        <time>2021-05-08T08:10:48Z</time>
      </trkpt>
      <trkpt lat="43.56178" lon="-0.92351">
        <ele>104</ele>
        <time>2021-05-08T08:10:49Z</time>
      </trkpt>
      <trkpt lat="43.56177" lon="-0.92348">
        <ele>104</ele>
        <time>2021-05-08T08:10:50Z</time>
      </trkpt>
      <trkpt lat="43.56175" lon="-0.92346">
        <ele>104</ele>
        <time>2021-05-08T08:10:51Z</time>
      </trkpt>
      <trkpt lat="43.56174" lon="-0.92344">
        <ele>104</ele>
        <time>2021-05-08T08:10:52Z</time>
      </trkpt>
      <trkpt lat="43.56172" lon="-0.92342">
        <ele>105</ele>
        <time>2021-05-08T08:10:53Z</time>
      </trkpt>
      <trkpt lat="43.56171" lon="-0.92339">
        <ele>105</ele>
        <time>2021-05-08T08:10:54Z</time>
      </trkpt>
      <trkpt lat="43.5617" lon="-0.92337">
        <ele>105</ele>
        <time>2021-05-08T08:10:55Z</time>
      </trkpt>
      <trkpt lat="43.56169" lon="-0.92335">
        <ele>105</ele>
        <time>2021-05-08T08:10:56Z</time>
      </trkpt>
      <trkpt lat="43.56168" lon="-0.92332">
        <ele>105</ele>
        <time>2021-05-08T08:10:57Z</time>
      </trkpt>
      <trkpt lat="43.56167" lon="-0.92329">
        <ele>105</ele>
        <time>2021-05-08T08:10:58Z</time>
      </trkpt>
      <trkpt lat="43.56167" lon="-0.92327">
        <ele>105</ele>
        <time>2021-05-08T08:10:59Z</time>
      </trkpt>
      <trkpt lat="43.56166" lon="-0.92324">
        <ele>105</ele>
        <time>2021-05-08T08:11:00Z</time>
      </trkpt>
      <trkpt lat="43.56165" lon="-0.92321">
        <ele>105</ele>
        <time>2021-05-08T08:11:01Z</time>
      </trkpt>
      <trkpt lat="43.56164" lon="-0.92318">
        <ele>105</ele>
        <time>2021-05-08T08:11:02Z</time>
      </trkpt>
      <trkpt lat="43.56163" lon="-0.92315">
        <ele>105</ele>
        <time>2021-05-08T08:11:03Z</time>
      </trkpt>
      <trkpt lat="43.56162" lon="-0.92312">
        <ele>105</ele>
        <time>2021-05-08T08:11:04Z</time>
      </trkpt>
      <trkpt lat="43.56162" lon="-0.92309">
        <ele>105</ele>
        <time>2021-05-08T08:11:05Z</time>
      </trkpt>
      <trkpt lat="43.56161" lon="-0.92306">
        <ele>105</ele>
        <time>2021-05-08T08:11:06Z</time>
      </trkpt>
      <trkpt lat="43.56161" lon="-0.92303">
        <ele>105</ele>
        <time>2021-05-08T08:11:07Z</time>
      </trkpt>
      <trkpt lat="43.5616" lon="-0.923">
        <ele>105</ele>
        <time>2021-05-08T08:11:08Z</time>
      </trkpt>
      <trkpt lat="43.56159" lon="-0.92296">
        <ele>105</ele>
        <time>2021-05-08T08:11:09Z</time>
      </trkpt>
      <trkpt lat="43.56158" lon="-0.92293">
        <ele>105</ele>
        <time>2021-05-08T08:11:10Z</time>
      </trkpt>
      <trkpt lat="43.56157" lon="-0.9229">
        <ele>105</ele>
        <time>2021-05-08T08:11:11Z</time>
      </trkpt>
      <trkpt lat="43.56156" lon="-0.92287">
        <ele>105</ele>
        <time>2021-05-08T08:11:12Z</time>
      </trkpt>
      <trkpt lat="43.56155" lon="-0.92284">
        <ele>105</ele>
        <time>2021-05-08T08:11:13Z</time>
      </trkpt>
      <trkpt lat="43.56154" lon="-0.92281">
        <ele>105</ele>
        <time>2021-05-08T08:11:14Z</time>
      </trkpt>
      <trkpt lat="43.56153" lon="-0.92278">
        <ele>105</ele>
        <time>2021-05-08T08:11:15Z</time>
      </trkpt>
      <trkpt lat="43.56152" lon="-0.92275">
        <ele>105</ele>
        <time>2021-05-08T08:11:16Z</time>
      </trkpt>
      <trkpt lat="43.56152" lon="-0.92272">
        <ele>105</ele>
        <time>2021-05-08T08:11:17Z</time>
      </trkpt>
      <trkpt lat="43.56151" lon="-0.92269">
        <ele>105</ele>
        <time>2021-05-08T08:11:18Z</time>
      </trkpt>
      <trkpt lat="43.5615" lon="-0.92266">
        <ele>105</ele>
        <time>2021-05-08T08:11:19Z</time>
      </trkpt>
      <trkpt lat="43.56149" lon="-0.92263">
        <ele>105</ele>
        <time>2021-05-08T08:11:20Z</time>
      </trkpt>
      <trkpt lat="43.56148" lon="-0.9226">
        <ele>105</ele>
        <time>2021-05-08T08:11:21Z</time>
      </trkpt>
      <trkpt lat="43.56147" lon="-0.92257">
        <ele>105</ele>
        <time>2021-05-08T08:11:22Z</time>
      </trkpt>
      <trkpt lat="43.56146" lon="-0.92254">
        <ele>106</ele>
        <time>2021-05-08T08:11:23Z</time>
      </trkpt>
      <trkpt lat="43.56146" lon="-0.92251">
        <ele>106</ele>
        <time>2021-05-08T08:11:24Z</time>
      </trkpt>
      <trkpt lat="43.56145" lon="-0.92248">
        <ele>106</ele>
        <time>2021-05-08T08:11:25Z</time>
      </trkpt>
      <trkpt lat="43.56144" lon="-0.92246">
        <ele>106</ele>
        <time>2021-05-08T08:11:26Z</time>
      </trkpt>
      <trkpt lat="43.56144" lon="-0.92243">
        <ele>106</ele>
        <time>2021-05-08T08:11:27Z</time>
      </trkpt>
      <trkpt lat="43.56143" lon="-0.9224">
        <ele>106</ele>
        <time>2021-05-08T08:11:28Z</time>
      </trkpt>
      <trkpt lat="43.56143" lon="-0.92237">
        <ele>106</ele>
        <time>2021-05-08T08:11:29Z</time>
      </trkpt>
      <trkpt lat="43.56143" lon="-0.92234">
        <ele>106</ele>
        <time>2021-05-08T08:11:30Z</time>
      </trkpt>
      <trkpt lat="43.56142" lon="-0.92231">
        <ele>106</ele>
        <time>2021-05-08T08:11:31Z</time>
      </trkpt>
      <trkpt lat="43.56142" lon="-0.92228">
        <ele>106</ele>
        <time>2021-05-08T08:11:32Z</time>
      </trkpt>
      <trkpt lat="43.56141" lon="-0.92225">
        <ele>107</ele>
        <time>2021-05-08T08:11:33Z</time>
      </trkpt>
      <trkpt lat="43.56141" lon="-0.92222">
        <ele>107</ele>
        <time>2021-05-08T08:11:34Z</time>
      </trkpt>
      <trkpt lat="43.5614" lon="-0.92219">
        <ele>107</ele>
        <time>2021-05-08T08:11:35Z</time>
      </trkpt>
      <trkpt lat="43.5614" lon="-0.92216">
        <ele>107</ele>
        <time>2021-05-08T08:11:36Z</time>
      </trkpt>
      <trkpt lat="43.5614" lon="-0.92213">
        <ele>107</ele>
        <time>2021-05-08T08:11:37Z</time>
      </trkpt>
      <trkpt lat="43.5614" lon="-0.9221">
        <ele>108</ele>
        <time>2021-05-08T08:11:38Z</time>
      </trkpt>
      <trkpt lat="43.5614" lon="-0.92208">
        <ele>108</ele>
        <time>2021-05-08T08:11:39Z</time>
      </trkpt>
      <trkpt lat="43.5614" lon="-0.92205">
        <ele>108</ele>
        <time>2021-05-08T08:11:40Z</time>
      </trkpt>
      <trkpt lat="43.5614" lon="-0.92202">
        <ele>108</ele>
        <time>2021-05-08T08:11:41Z</time>
      </trkpt>
      <trkpt lat="43.56141" lon="-0.92199">
        <ele>108</ele>
        <time>2021-05-08T08:11:42Z</time>
      </trkpt>
      <trkpt lat="43.56141" lon="-0.92196">
        <ele>109</ele>
        <time>2021-05-08T08:11:43Z</time>
      </trkpt>
      <trkpt lat="43.56142" lon="-0.92193">
        <ele>109</ele>
        <time>2021-05-08T08:11:44Z</time>
      </trkpt>
      <trkpt lat="43.56143" lon="-0.92191">
        <ele>109</ele>
        <time>2021-05-08T08:11:45Z</time>
      </trkpt>
      <trkpt lat="43.56143" lon="-0.92188">
        <ele>109</ele>
        <time>2021-05-08T08:11:46Z</time>
      </trkpt>
      <trkpt lat="43.56144" lon="-0.92185">
        <ele>109</ele>
        <time>2021-05-08T08:11:47Z</time>
      </trkpt>
      <trkpt lat="43.56144" lon="-0.92182">
        <ele>109</ele>
        <time>2021-05-08T08:11:48Z</time>
      </trkpt>
      <trkpt lat="43.56145" lon="-0.92179">
        <ele>109</ele>
        <time>2021-05-08T08:11:49Z</time>
      </trkpt>
      <trkpt lat="43.56146" lon="-0.92176">
        <ele>109</ele>
        <time>2021-05-08T08:11:50Z</time>
      </trkpt>
      <trkpt lat="43.56147" lon="-0.92173">
        <ele>109</ele>
        <time>2021-05-08T08:11:51Z</time>
      </trkpt>
      <trkpt lat="43.56147" lon="-0.9217">
        <ele>109</ele>
        <time>2021-05-08T08:11:52Z</time>
      </trkpt>
      <trkpt lat="43.56148" lon="-0.92168">
        <ele>110</ele>
        <time>2021-05-08T08:11:53Z</time>
      </trkpt>
      <trkpt lat="43.56149" lon="-0.92165">
        <ele>110</ele>
        <time>2021-05-08T08:11:54Z</time>
      </trkpt>
      <trkpt lat="43.56149" lon="-0.92163">
        <ele>110</ele>
        <time>2021-05-08T08:11:55Z</time>
      </trkpt>
      <trkpt lat="43.5615" lon="-0.9216">
        <ele>110</ele>
        <time>2021-05-08T08:11:56Z</time>
      </trkpt>
      <trkpt lat="43.5615" lon="-0.92157">
        <ele>110</ele>
        <time>2021-05-08T08:11:57Z</time>
      </trkpt>
      <trkpt lat="43.56151" lon="-0.92154">
        <ele>111</ele>
        <time>2021-05-08T08:11:58Z</time>
      </trkpt>
      <trkpt lat="43.56151" lon="-0.92151">
        <ele>111</ele>
        <time>2021-05-08T08:11:59Z</time>
      </trkpt>
      <trkpt lat="43.56151" lon="-0.92148">
        <ele>111</ele>
        <time>2021-05-08T08:12:00Z</time>
      </trkpt>
      <trkpt lat="43.56152" lon="-0.92145">
        <ele>111</ele>
        <time>2021-05-08T08:12:01Z</time>
      </trkpt>
      <trkpt lat="43.56152" lon="-0.92142">
        <ele>111</ele>
        <time>2021-05-08T08:12:02Z</time>
      </trkpt>
      <trkpt lat="43.56152" lon="-0.92139">
        <ele>112</ele>
        <time>2021-05-08T08:12:03Z</time>
      </trkpt>
      <trkpt lat="43.56152" lon="-0.92136">
        <ele>112</ele>
        <time>2021-05-08T08:12:04Z</time>
      </trkpt>
      <trkpt lat="43.56152" lon="-0.92133">
        <ele>112</ele>
        <time>2021-05-08T08:12:05Z</time>
      </trkpt>
      <trkpt lat="43.56152" lon="-0.9213">
        <ele>112</ele>
        <time>2021-05-08T08:12:06Z</time>
      </trkpt>
      <trkpt lat="43.56153" lon="-0.92127">
        <ele>112</ele>
        <time>2021-05-08T08:12:07Z</time>
      </trkpt>
      <trkpt lat="43.56153" lon="-0.92124">
        <ele>113</ele>
        <time>2021-05-08T08:12:08Z</time>
      </trkpt>
      <trkpt lat="43.56153" lon="-0.92121">
        <ele>113</ele>
        <time>2021-05-08T08:12:09Z</time>
      </trkpt>
      <trkpt lat="43.56153" lon="-0.92118">
        <ele>113</ele>
        <time>2021-05-08T08:12:10Z</time>
      </trkpt>
      <trkpt lat="43.56153" lon="-0.92115">
        <ele>113</ele>
        <time>2021-05-08T08:12:11Z</time>
      </trkpt>
      <trkpt lat="43.56153" lon="-0.92112">
        <ele>113</ele>
        <time>2021-05-08T08:12:12Z</time>
      </trkpt>
      <trkpt lat="43.56153" lon="-0.92109">
        <ele>113</ele>
        <time>2021-05-08T08:12:13Z</time>
      </trkpt>
      <trkpt lat="43.56153" lon="-0.92106">
        <ele>113</ele>
        <time>2021-05-08T08:12:14Z</time>
      </trkpt>
      <trkpt lat="43.56153" lon="-0.92103">
        <ele>113</ele>
        <time>2021-05-08T08:12:15Z</time>
      </trkpt>
      <trkpt lat="43.56153" lon="-0.921">
        <ele>113</ele>
        <time>2021-05-08T08:12:16Z</time>
      </trkpt>
      <trkpt lat="43.56153" lon="-0.92096">
        <ele>113</ele>
        <time>2021-05-08T08:12:17Z</time>
      </trkpt>
      <trkpt lat="43.56154" lon="-0.92093">
        <ele>114</ele>
        <time>2021-05-08T08:12:18Z</time>
      </trkpt>
      <trkpt lat="43.56154" lon="-0.9209">
        <ele>114</ele>
        <time>2021-05-08T08:12:19Z</time>
      </trkpt>
      <trkpt lat="43.56154" lon="-0.92087">
        <ele>114</ele>
        <time>2021-05-08T08:12:20Z</time>
      </trkpt>
      <trkpt lat="43.56154" lon="-0.92084">
        <ele>114</ele>
        <time>2021-05-08T08:12:21Z</time>
      </trkpt>
      <trkpt lat="43.56155" lon="-0.92081">
        <ele>114</ele>
        <time>2021-05-08T08:12:22Z</time>
      </trkpt>
      <trkpt lat="43.56155" lon="-0.92078">
        <ele>114</ele>
        <time>2021-05-08T08:12:23Z</time>
      </trkpt>
      <trkpt lat="43.56155" lon="-0.92074">
        <ele>114</ele>
        <time>2021-05-08T08:12:24Z</time>
      </trkpt>
      <trkpt lat="43.56155" lon="-0.92071">
        <ele>114</ele>
        <time>2021-05-08T08:12:25Z</time>
      </trkpt>
      <trkpt lat="43.56155" lon="-0.92068">
        <ele>114</ele>
        <time>2021-05-08T08:12:26Z</time>
      </trkpt>
      <trkpt lat="43.56155" lon="-0.92065">
        <ele>114</ele>
        <time>2021-05-08T08:12:27Z</time>
      </trkpt>
      <trkpt lat="43.56154" lon="-0.92062">
        <ele>114</ele>
        <time>2021-05-08T08:12:28Z</time>
      </trkpt>
      <trkpt lat="43.56154" lon="-0.92058">
        <ele>114</ele>
        <time>2021-05-08T08:12:29Z</time>
      </trkpt>
      <trkpt lat="43.56154" lon="-0.92055">
        <ele>114</ele>
        <time>2021-05-08T08:12:30Z</time>
      </trkpt>
      <trkpt lat="43.56153" lon="-0.92052">
        <ele>114</ele>
        <time>2021-05-08T08:12:31Z</time>
      </trkpt>
      <trkpt lat="43.56153" lon="-0.92049">
        <ele>114</ele>
        <time>2021-05-08T08:12:32Z</time>
      </trkpt>
      <trkpt lat="43.56152" lon="-0.92046">
        <ele>114</ele>
        <time>2021-05-08T08:12:33Z</time>
      </trkpt>
      <trkpt lat="43.56151" lon="-0.92043">
        <ele>114</ele>
        <time>2021-05-08T08:12:34Z</time>
      </trkpt>
      <trkpt lat="43.5615" lon="-0.92041">
        <ele>114</ele>
        <time>2021-05-08T08:12:35Z</time>
      </trkpt>
      <trkpt lat="43.56148" lon="-0.92038">
        <ele>114</ele>
        <time>2021-05-08T08:12:36Z</time>
      </trkpt>
      <trkpt lat="43.56147" lon="-0.92036">
        <ele>114</ele>
        <time>2021-05-08T08:12:37Z</time>
      </trkpt>
      <trkpt lat="43.56145" lon="-0.92033">
        <ele>114</ele>
        <time>2021-05-08T08:12:38Z</time>
      </trkpt>
      <trkpt lat="43.56144" lon="-0.92031">
        <ele>114</ele>
        <time>2021-05-08T08:12:39Z</time>
      </trkpt>
      <trkpt lat="43.56142" lon="-0.92029">
        <ele>114</ele>
        <time>2021-05-08T08:12:40Z</time>
      </trkpt>
      <trkpt lat="43.5614" lon="-0.92027">
        <ele>114</ele>
        <time>2021-05-08T08:12:41Z</time>
      </trkpt>
      <trkpt lat="43.56139" lon="-0.92025">
        <ele>114</ele>
        <time>2021-05-08T08:12:42Z</time>
      </trkpt>
      <trkpt lat="43.56137" lon="-0.92023">
        <ele>114</ele>
        <time>2021-05-08T08:12:43Z</time>
      </trkpt>
      <trkpt lat="43.56136" lon="-0.92021">
        <ele>114</ele>
        <time>2021-05-08T08:12:44Z</time>
      </trkpt>
      <trkpt lat="43.56134" lon="-0.92019">
        <ele>114</ele>
        <time>2021-05-08T08:12:45Z</time>
      </trkpt>
      <trkpt lat="43.56133" lon="-0.92017">
        <ele>114</ele>
        <time>2021-05-08T08:12:46Z</time>
      </trkpt>
      <trkpt lat="43.56131" lon="-0.92015">
        <ele>114</ele>
        <time>2021-05-08T08:12:47Z</time>
      </trkpt>
      <trkpt lat="43.5613" lon="-0.92013">
        <ele>114</ele>
        <time>2021-05-08T08:12:48Z</time>
      </trkpt>
      <trkpt lat="43.56129" lon="-0.92011">
        <ele>114</ele>
        <time>2021-05-08T08:12:49Z</time>
      </trkpt>
      <trkpt lat="43.56127" lon="-0.92009">
        <ele>114</ele>
        <time>2021-05-08T08:12:50Z</time>
      </trkpt>
      <trkpt lat="43.56126" lon="-0.92006">
        <ele>114</ele>
        <time>2021-05-08T08:12:51Z</time>
      </trkpt>
      <trkpt lat="43.56124" lon="-0.92004">
        <ele>114</ele>
        <time>2021-05-08T08:12:52Z</time>
      </trkpt>
      <trkpt lat="43.56122" lon="-0.92001">
        <ele>115</ele>
        <time>2021-05-08T08:12:53Z</time>
      </trkpt>
      <trkpt lat="43.56121" lon="-0.91998">
        <ele>115</ele>
        <time>2021-05-08T08:12:54Z</time>
      </trkpt>
      <trkpt lat="43.56119" lon="-0.91995">
        <ele>115</ele>
        <time>2021-05-08T08:12:55Z</time>
      </trkpt>
      <trkpt lat="43.56117" lon="-0.91993">
        <ele>115</ele>
        <time>2021-05-08T08:12:56Z</time>
      </trkpt>
      <trkpt lat="43.56115" lon="-0.9199">
        <ele>115</ele>
        <time>2021-05-08T08:12:57Z</time>
      </trkpt>
      <trkpt lat="43.56113" lon="-0.91988">
        <ele>115</ele>
        <time>2021-05-08T08:12:58Z</time>
      </trkpt>
      <trkpt lat="43.56112" lon="-0.91985">
        <ele>115</ele>
        <time>2021-05-08T08:12:59Z</time>
      </trkpt>
      <trkpt lat="43.5611" lon="-0.91983">
        <ele>115</ele>
        <time>2021-05-08T08:13:00Z</time>
      </trkpt>
      <trkpt lat="43.56108" lon="-0.91981">
        <ele>115</ele>
        <time>2021-05-08T08:13:01Z</time>
      </trkpt>
      <trkpt lat="43.56106" lon="-0.91979">
        <ele>115</ele>
        <time>2021-05-08T08:13:02Z</time>
      </trkpt>
      <trkpt lat="43.56105" lon="-0.91977">
        <ele>115</ele>
        <time>2021-05-08T08:13:03Z</time>
      </trkpt>
      <trkpt lat="43.56103" lon="-0.91974">
        <ele>115</ele>
        <time>2021-05-08T08:13:04Z</time>
      </trkpt>
      <trkpt lat="43.56101" lon="-0.91972">
        <ele>115</ele>
        <time>2021-05-08T08:13:05Z</time>
      </trkpt>
      <trkpt lat="43.56099" lon="-0.9197">
        <ele>115</ele>
        <time>2021-05-08T08:13:06Z</time>
      </trkpt>
      <trkpt lat="43.56097" lon="-0.91967">
        <ele>115</ele>
        <time>2021-05-08T08:13:07Z</time>
      </trkpt>
      <trkpt lat="43.56096" lon="-0.91964">
        <ele>115</ele>
        <time>2021-05-08T08:13:08Z</time>
      </trkpt>
      <trkpt lat="43.56094" lon="-0.91961">
        <ele>115</ele>
        <time>2021-05-08T08:13:09Z</time>
      </trkpt>
      <trkpt lat="43.56093" lon="-0.91958">
        <ele>115</ele>
        <time>2021-05-08T08:13:10Z</time>
      </trkpt>
      <trkpt lat="43.56092" lon="-0.91955">
        <ele>115</ele>
        <time>2021-05-08T08:13:11Z</time>
      </trkpt>
      <trkpt lat="43.56091" lon="-0.91953">
        <ele>115</ele>
        <time>2021-05-08T08:13:12Z</time>
      </trkpt>
      <trkpt lat="43.5609" lon="-0.9195">
        <ele>115</ele>
        <time>2021-05-08T08:13:13Z</time>
      </trkpt>
      <trkpt lat="43.56089" lon="-0.91947">
        <ele>115</ele>
        <time>2021-05-08T08:13:14Z</time>
      </trkpt>
      <trkpt lat="43.56088" lon="-0.91943">
        <ele>115</ele>
        <time>2021-05-08T08:13:15Z</time>
      </trkpt>
      <trkpt lat="43.56088" lon="-0.9194">
        <ele>115</ele>
        <time>2021-05-08T08:13:16Z</time>
      </trkpt>
      <trkpt lat="43.56088" lon="-0.91937">
        <ele>115</ele>
        <time>2021-05-08T08:13:17Z</time>
      </trkpt>
      <trkpt lat="43.56088" lon="-0.91933">
        <ele>115</ele>
        <time>2021-05-08T08:13:18Z</time>
      </trkpt>
      <trkpt lat="43.56088" lon="-0.9193">
        <ele>115</ele>
        <time>2021-05-08T08:13:19Z</time>
      </trkpt>
      <trkpt lat="43.56088" lon="-0.91926">
        <ele>115</ele>
        <time>2021-05-08T08:13:20Z</time>
      </trkpt>
      <trkpt lat="43.56088" lon="-0.91922">
        <ele>115</ele>
        <time>2021-05-08T08:13:21Z</time>
      </trkpt>
      <trkpt lat="43.56088" lon="-0.91919">
        <ele>115</ele>
        <time>2021-05-08T08:13:22Z</time>
      </trkpt>
      <trkpt lat="43.56087" lon="-0.91915">
        <ele>116</ele>
        <time>2021-05-08T08:13:23Z</time>
      </trkpt>
      <trkpt lat="43.56087" lon="-0.91911">
        <ele>116</ele>
        <time>2021-05-08T08:13:24Z</time>
      </trkpt>
      <trkpt lat="43.56087" lon="-0.91908">
        <ele>116</ele>
        <time>2021-05-08T08:13:25Z</time>
      </trkpt>
      <trkpt lat="43.56086" lon="-0.91904">
        <ele>116</ele>
        <time>2021-05-08T08:13:26Z</time>
      </trkpt>
      <trkpt lat="43.56086" lon="-0.91901">
        <ele>116</ele>
        <time>2021-05-08T08:13:27Z</time>
      </trkpt>
      <trkpt lat="43.56085" lon="-0.91898">
        <ele>116</ele>
        <time>2021-05-08T08:13:28Z</time>
      </trkpt>
      <trkpt lat="43.56085" lon="-0.91895">
        <ele>116</ele>
        <time>2021-05-08T08:13:29Z</time>
      </trkpt>
      <trkpt lat="43.56084" lon="-0.91891">
        <ele>116</ele>
        <time>2021-05-08T08:13:30Z</time>
      </trkpt>
      <trkpt lat="43.56084" lon="-0.91888">
        <ele>116</ele>
        <time>2021-05-08T08:13:31Z</time>
      </trkpt>
      <trkpt lat="43.56083" lon="-0.91885">
        <ele>116</ele>
        <time>2021-05-08T08:13:32Z</time>
      </trkpt>
      <trkpt lat="43.56082" lon="-0.91881">
        <ele>116</ele>
        <time>2021-05-08T08:13:33Z</time>
      </trkpt>
      <trkpt lat="43.56082" lon="-0.91878">
        <ele>116</ele>
        <time>2021-05-08T08:13:34Z</time>
      </trkpt>
      <trkpt lat="43.56081" lon="-0.91875">
        <ele>116</ele>
        <time>2021-05-08T08:13:35Z</time>
      </trkpt>
      <trkpt lat="43.56081" lon="-0.91871">
        <ele>116</ele>
        <time>2021-05-08T08:13:36Z</time>
      </trkpt>
      <trkpt lat="43.56081" lon="-0.91867">
        <ele>116</ele>
        <time>2021-05-08T08:13:37Z</time>
      </trkpt>
      <trkpt lat="43.5608" lon="-0.91864">
        <ele>116</ele>
        <time>2021-05-08T08:13:38Z</time>
      </trkpt>
      <trkpt lat="43.5608" lon="-0.9186">
        <ele>116</ele>
        <time>2021-05-08T08:13:39Z</time>
      </trkpt>
      <trkpt lat="43.5608" lon="-0.91857">
        <ele>116</ele>
        <time>2021-05-08T08:13:40Z</time>
      </trkpt>
      <trkpt lat="43.56079" lon="-0.91854">
        <ele>116</ele>
        <time>2021-05-08T08:13:41Z</time>
      </trkpt>
      <trkpt lat="43.56079" lon="-0.9185">
        <ele>116</ele>
        <time>2021-05-08T08:13:42Z</time>
      </trkpt>
      <trkpt lat="43.56079" lon="-0.91847">
        <ele>117</ele>
        <time>2021-05-08T08:13:43Z</time>
      </trkpt>
      <trkpt lat="43.56078" lon="-0.91844">
        <ele>117</ele>
        <time>2021-05-08T08:13:44Z</time>
      </trkpt>
      <trkpt lat="43.56078" lon="-0.91841">
        <ele>117</ele>
        <time>2021-05-08T08:13:45Z</time>
      </trkpt>
      <trkpt lat="43.56078" lon="-0.91837">
        <ele>117</ele>
        <time>2021-05-08T08:13:46Z</time>
      </trkpt>
      <trkpt lat="43.56078" lon="-0.91834">
        <ele>117</ele>
        <time>2021-05-08T08:13:47Z</time>
      </trkpt>
      <trkpt lat="43.56077" lon="-0.91831">
        <ele>117</ele>
        <time>2021-05-08T08:13:48Z</time>
      </trkpt>
      <trkpt lat="43.56076" lon="-0.91829">
        <ele>117</ele>
        <time>2021-05-08T08:13:49Z</time>
      </trkpt>
      <trkpt lat="43.56075" lon="-0.91825">
        <ele>117</ele>
        <time>2021-05-08T08:13:50Z</time>
      </trkpt>
      <trkpt lat="43.56074" lon="-0.91822">
        <ele>117</ele>
        <time>2021-05-08T08:13:51Z</time>
      </trkpt>
      <trkpt lat="43.56073" lon="-0.91819">
        <ele>117</ele>
        <time>2021-05-08T08:13:52Z</time>
      </trkpt>
      <trkpt lat="43.56072" lon="-0.91816">
        <ele>117</ele>
        <time>2021-05-08T08:13:53Z</time>
      </trkpt>
      <trkpt lat="43.56071" lon="-0.91813">
        <ele>117</ele>
        <time>2021-05-08T08:13:54Z</time>
      </trkpt>
      <trkpt lat="43.5607" lon="-0.9181">
        <ele>117</ele>
        <time>2021-05-08T08:13:55Z</time>
      </trkpt>
      <trkpt lat="43.56068" lon="-0.91808">
        <ele>117</ele>
        <time>2021-05-08T08:13:56Z</time>
      </trkpt>
      <trkpt lat="43.56067" lon="-0.91805">
        <ele>117</ele>
        <time>2021-05-08T08:13:57Z</time>
      </trkpt>
      <trkpt lat="43.56065" lon="-0.91804">
        <ele>117</ele>
        <time>2021-05-08T08:13:58Z</time>
      </trkpt>
      <trkpt lat="43.56063" lon="-0.91802">
        <ele>117</ele>
        <time>2021-05-08T08:13:59Z</time>
      </trkpt>
      <trkpt lat="43.5606" lon="-0.91801">
        <ele>117</ele>
        <time>2021-05-08T08:14:00Z</time>
      </trkpt>
      <trkpt lat="43.56058" lon="-0.918">
        <ele>117</ele>
        <time>2021-05-08T08:14:01Z</time>
      </trkpt>
      <trkpt lat="43.56055" lon="-0.91799">
        <ele>117</ele>
        <time>2021-05-08T08:14:02Z</time>
      </trkpt>
      <trkpt lat="43.56053" lon="-0.91799">
        <ele>118</ele>
        <time>2021-05-08T08:14:03Z</time>
      </trkpt>
      <trkpt lat="43.5605" lon="-0.91798">
        <ele>117</ele>
        <time>2021-05-08T08:14:04Z</time>
      </trkpt>
      <trkpt lat="43.56047" lon="-0.91798">
        <ele>117</ele>
        <time>2021-05-08T08:14:05Z</time>
      </trkpt>
      <trkpt lat="43.56044" lon="-0.91797">
        <ele>117</ele>
        <time>2021-05-08T08:14:06Z</time>
      </trkpt>
      <trkpt lat="43.56042" lon="-0.91796">
        <ele>117</ele>
        <time>2021-05-08T08:14:07Z</time>
      </trkpt>
      <trkpt lat="43.56039" lon="-0.91796">
        <ele>117</ele>
        <time>2021-05-08T08:14:08Z</time>
      </trkpt>
      <trkpt lat="43.56036" lon="-0.91795">
        <ele>116</ele>
        <time>2021-05-08T08:14:09Z</time>
      </trkpt>
      <trkpt lat="43.56034" lon="-0.91794">
        <ele>116</ele>
        <time>2021-05-08T08:14:10Z</time>
      </trkpt>
      <trkpt lat="43.56031" lon="-0.91793">
        <ele>116</ele>
        <time>2021-05-08T08:14:11Z</time>
      </trkpt>
      <trkpt lat="43.56028" lon="-0.91792">
        <ele>116</ele>
        <time>2021-05-08T08:14:12Z</time>
      </trkpt>
      <trkpt lat="43.56026" lon="-0.91791">
        <ele>116</ele>
        <time>2021-05-08T08:14:13Z</time>
      </trkpt>
      <trkpt lat="43.56023" lon="-0.91791">
        <ele>115</ele>
        <time>2021-05-08T08:14:14Z</time>
      </trkpt>
      <trkpt lat="43.5602" lon="-0.9179">
        <ele>115</ele>
        <time>2021-05-08T08:14:15Z</time>
      </trkpt>
      <trkpt lat="43.56017" lon="-0.91789">
        <ele>114</ele>
        <time>2021-05-08T08:14:16Z</time>
      </trkpt>
      <trkpt lat="43.56014" lon="-0.91788">
        <ele>114</ele>
        <time>2021-05-08T08:14:17Z</time>
      </trkpt>
      <trkpt lat="43.56011" lon="-0.91788">
        <ele>114</ele>
        <time>2021-05-08T08:14:18Z</time>
      </trkpt>
      <trkpt lat="43.56008" lon="-0.91787">
        <ele>113</ele>
        <time>2021-05-08T08:14:19Z</time>
      </trkpt>
      <trkpt lat="43.56005" lon="-0.91787">
        <ele>113</ele>
        <time>2021-05-08T08:14:20Z</time>
      </trkpt>
      <trkpt lat="43.56003" lon="-0.91787">
        <ele>113</ele>
        <time>2021-05-08T08:14:21Z</time>
      </trkpt>
      <trkpt lat="43.56" lon="-0.91786">
        <ele>113</ele>
        <time>2021-05-08T08:14:22Z</time>
      </trkpt>
      <trkpt lat="43.55997" lon="-0.91786">
        <ele>113</ele>
        <time>2021-05-08T08:14:23Z</time>
      </trkpt>
      <trkpt lat="43.55995" lon="-0.91785">
        <ele>112</ele>
        <time>2021-05-08T08:14:24Z</time>
      </trkpt>
      <trkpt lat="43.55992" lon="-0.91785">
        <ele>112</ele>
        <time>2021-05-08T08:14:25Z</time>
      </trkpt>
      <trkpt lat="43.55989" lon="-0.91785">
        <ele>112</ele>
        <time>2021-05-08T08:14:26Z</time>
      </trkpt>
      <trkpt lat="43.55987" lon="-0.91784">
        <ele>112</ele>
        <time>2021-05-08T08:14:27Z</time>
      </trkpt>
      <trkpt lat="43.55984" lon="-0.91784">
        <ele>112</ele>
        <time>2021-05-08T08:14:28Z</time>
      </trkpt>
      <trkpt lat="43.55982" lon="-0.91784">
        <ele>112</ele>
        <time>2021-05-08T08:14:29Z</time>
      </trkpt>
      <trkpt lat="43.55979" lon="-0.91784">
        <ele>112</ele>
        <time>2021-05-08T08:14:30Z</time>
      </trkpt>
      <trkpt lat="43.55977" lon="-0.91783">
        <ele>112</ele>
        <time>2021-05-08T08:14:31Z</time>
      </trkpt>
      <trkpt lat="43.55974" lon="-0.91783">
        <ele>112</ele>
        <time>2021-05-08T08:14:32Z</time>
      </trkpt>
      <trkpt lat="43.55972" lon="-0.91783">
        <ele>112</ele>
        <time>2021-05-08T08:14:33Z</time>
      </trkpt>
      <trkpt lat="43.55969" lon="-0.91782">
        <ele>112</ele>
        <time>2021-05-08T08:14:34Z</time>
      </trkpt>
      <trkpt lat="43.55966" lon="-0.91782">
        <ele>112</ele>
        <time>2021-05-08T08:14:35Z</time>
      </trkpt>
      <trkpt lat="43.55964" lon="-0.91781">
        <ele>112</ele>
        <time>2021-05-08T08:14:36Z</time>
      </trkpt>
      <trkpt lat="43.55961" lon="-0.9178">
        <ele>112</ele>
        <time>2021-05-08T08:14:37Z</time>
      </trkpt>
      <trkpt lat="43.55959" lon="-0.91779">
        <ele>112</ele>
        <time>2021-05-08T08:14:38Z</time>
      </trkpt>
      <trkpt lat="43.55956" lon="-0.91778">
        <ele>111</ele>
        <time>2021-05-08T08:14:39Z</time>
      </trkpt>
      <trkpt lat="43.55954" lon="-0.91776">
        <ele>111</ele>
        <time>2021-05-08T08:14:40Z</time>
      </trkpt>
      <trkpt lat="43.55952" lon="-0.91775">
        <ele>111</ele>
        <time>2021-05-08T08:14:41Z</time>
      </trkpt>
      <trkpt lat="43.55949" lon="-0.91773">
        <ele>111</ele>
        <time>2021-05-08T08:14:42Z</time>
      </trkpt>
      <trkpt lat="43.55947" lon="-0.91771">
        <ele>111</ele>
        <time>2021-05-08T08:14:43Z</time>
      </trkpt>
      <trkpt lat="43.55945" lon="-0.91769">
        <ele>111</ele>
        <time>2021-05-08T08:14:44Z</time>
      </trkpt>
      <trkpt lat="43.55943" lon="-0.91767">
        <ele>111</ele>
        <time>2021-05-08T08:14:45Z</time>
      </trkpt>
      <trkpt lat="43.55941" lon="-0.91765">
        <ele>111</ele>
        <time>2021-05-08T08:14:46Z</time>
      </trkpt>
      <trkpt lat="43.55939" lon="-0.91763">
        <ele>111</ele>
        <time>2021-05-08T08:14:47Z</time>
      </trkpt>
      <trkpt lat="43.55937" lon="-0.91761">
        <ele>111</ele>
        <time>2021-05-08T08:14:48Z</time>
      </trkpt>
      <trkpt lat="43.55935" lon="-0.91759">
        <ele>111</ele>
        <time>2021-05-08T08:14:49Z</time>
      </trkpt>
      <trkpt lat="43.55933" lon="-0.91757">
        <ele>111</ele>
        <time>2021-05-08T08:14:50Z</time>
      </trkpt>
      <trkpt lat="43.55931" lon="-0.91755">
        <ele>111</ele>
        <time>2021-05-08T08:14:51Z</time>
      </trkpt>
      <trkpt lat="43.55929" lon="-0.91753">
        <ele>111</ele>
        <time>2021-05-08T08:14:52Z</time>
      </trkpt>
      <trkpt lat="43.55927" lon="-0.91751">
        <ele>111</ele>
        <time>2021-05-08T08:14:53Z</time>
      </trkpt>
      <trkpt lat="43.55925" lon="-0.91749">
        <ele>110</ele>
        <time>2021-05-08T08:14:54Z</time>
      </trkpt>
      <trkpt lat="43.55924" lon="-0.91747">
        <ele>110</ele>
        <time>2021-05-08T08:14:55Z</time>
      </trkpt>
      <trkpt lat="43.55922" lon="-0.91745">
        <ele>110</ele>
        <time>2021-05-08T08:14:56Z</time>
      </trkpt>
      <trkpt lat="43.5592" lon="-0.91743">
        <ele>110</ele>
        <time>2021-05-08T08:14:57Z</time>
      </trkpt>
      <trkpt lat="43.55918" lon="-0.91741">
        <ele>110</ele>
        <time>2021-05-08T08:14:58Z</time>
      </trkpt>
      <trkpt lat="43.55916" lon="-0.91739">
        <ele>110</ele>
        <time>2021-05-08T08:14:59Z</time>
      </trkpt>
      <trkpt lat="43.55914" lon="-0.91737">
        <ele>110</ele>
        <time>2021-05-08T08:15:00Z</time>
      </trkpt>
      <trkpt lat="43.55912" lon="-0.91734">
        <ele>110</ele>
        <time>2021-05-08T08:15:01Z</time>
      </trkpt>
      <trkpt lat="43.5591" lon="-0.91732">
        <ele>110</ele>
        <time>2021-05-08T08:15:02Z</time>
      </trkpt>
      <trkpt lat="43.55909" lon="-0.9173">
        <ele>111</ele>
        <time>2021-05-08T08:15:03Z</time>
      </trkpt>
      <trkpt lat="43.55907" lon="-0.91728">
        <ele>111</ele>
        <time>2021-05-08T08:15:04Z</time>
      </trkpt>
      <trkpt lat="43.55905" lon="-0.91726">
        <ele>111</ele>
        <time>2021-05-08T08:15:05Z</time>
      </trkpt>
      <trkpt lat="43.55903" lon="-0.91724">
        <ele>111</ele>
        <time>2021-05-08T08:15:06Z</time>
      </trkpt>
      <trkpt lat="43.55901" lon="-0.91722">
        <ele>111</ele>
        <time>2021-05-08T08:15:07Z</time>
      </trkpt>
      <trkpt lat="43.55898" lon="-0.9172">
        <ele>111</ele>
        <time>2021-05-08T08:15:08Z</time>
      </trkpt>
      <trkpt lat="43.55896" lon="-0.91718">
        <ele>111</ele>
        <time>2021-05-08T08:15:09Z</time>
      </trkpt>
      <trkpt lat="43.55894" lon="-0.91716">
        <ele>111</ele>
        <time>2021-05-08T08:15:10Z</time>
      </trkpt>
      <trkpt lat="43.55892" lon="-0.91714">
        <ele>111</ele>
        <time>2021-05-08T08:15:11Z</time>
      </trkpt>
      <trkpt lat="43.5589" lon="-0.91712">
        <ele>111</ele>
        <time>2021-05-08T08:15:12Z</time>
      </trkpt>
      <trkpt lat="43.55888" lon="-0.91709">
        <ele>111</ele>
        <time>2021-05-08T08:15:13Z</time>
      </trkpt>
      <trkpt lat="43.55886" lon="-0.91707">
        <ele>111</ele>
        <time>2021-05-08T08:15:14Z</time>
      </trkpt>
      <trkpt lat="43.55884" lon="-0.91705">
        <ele>111</ele>
        <time>2021-05-08T08:15:15Z</time>
      </trkpt>
      <trkpt lat="43.55882" lon="-0.91703">
        <ele>111</ele>
        <time>2021-05-08T08:15:16Z</time>
      </trkpt>
      <trkpt lat="43.5588" lon="-0.91701">
        <ele>111</ele>
        <time>2021-05-08T08:15:17Z</time>
      </trkpt>
      <trkpt lat="43.55878" lon="-0.91699">
        <ele>111</ele>
        <time>2021-05-08T08:15:18Z</time>
      </trkpt>
      <trkpt lat="43.55876" lon="-0.91696">
        <ele>111</ele>
        <time>2021-05-08T08:15:19Z</time>
      </trkpt>
      <trkpt lat="43.55874" lon="-0.91694">
        <ele>111</ele>
        <time>2021-05-08T08:15:20Z</time>
      </trkpt>
      <trkpt lat="43.55872" lon="-0.91692">
        <ele>111</ele>
        <time>2021-05-08T08:15:21Z</time>
      </trkpt>
      <trkpt lat="43.5587" lon="-0.9169">
        <ele>111</ele>
        <time>2021-05-08T08:15:22Z</time>
      </trkpt>
      <trkpt lat="43.55868" lon="-0.91688">
        <ele>111</ele>
        <time>2021-05-08T08:15:23Z</time>
      </trkpt>
      <trkpt lat="43.55866" lon="-0.91686">
        <ele>111</ele>
        <time>2021-05-08T08:15:24Z</time>
      </trkpt>
      <trkpt lat="43.55863" lon="-0.91684">
        <ele>111</ele>
        <time>2021-05-08T08:15:25Z</time>
      </trkpt>
      <trkpt lat="43.55861" lon="-0.91682">
        <ele>111</ele>
        <time>2021-05-08T08:15:26Z</time>
      </trkpt>
      <trkpt lat="43.55859" lon="-0.9168">
        <ele>111</ele>
        <time>2021-05-08T08:15:27Z</time>
      </trkpt>
      <trkpt lat="43.55857" lon="-0.91678">
        <ele>112</ele>
        <time>2021-05-08T08:15:28Z</time>
      </trkpt>
      <trkpt lat="43.55854" lon="-0.91676">
        <ele>112</ele>
        <time>2021-05-08T08:15:29Z</time>
      </trkpt>
      <trkpt lat="43.55852" lon="-0.91674">
        <ele>112</ele>
        <time>2021-05-08T08:15:30Z</time>
      </trkpt>
      <trkpt lat="43.5585" lon="-0.91672">
        <ele>112</ele>
        <time>2021-05-08T08:15:31Z</time>
      </trkpt>
      <trkpt lat="43.55848" lon="-0.91669">
        <ele>112</ele>
        <time>2021-05-08T08:15:32Z</time>
      </trkpt>
      <trkpt lat="43.55846" lon="-0.91667">
        <ele>112</ele>
        <time>2021-05-08T08:15:33Z</time>
      </trkpt>
      <trkpt lat="43.55843" lon="-0.91664">
        <ele>112</ele>
        <time>2021-05-08T08:15:34Z</time>
      </trkpt>
      <trkpt lat="43.55841" lon="-0.91662">
        <ele>112</ele>
        <time>2021-05-08T08:15:35Z</time>
      </trkpt>
      <trkpt lat="43.55839" lon="-0.9166">
        <ele>112</ele>
        <time>2021-05-08T08:15:36Z</time>
      </trkpt>
      <trkpt lat="43.55837" lon="-0.91658">
        <ele>112</ele>
        <time>2021-05-08T08:15:37Z</time>
      </trkpt>
      <trkpt lat="43.55835" lon="-0.91656">
        <ele>112</ele>
        <time>2021-05-08T08:15:38Z</time>
      </trkpt>
      <trkpt lat="43.55832" lon="-0.91654">
        <ele>112</ele>
        <time>2021-05-08T08:15:39Z</time>
      </trkpt>
      <trkpt lat="43.5583" lon="-0.91653">
        <ele>112</ele>
        <time>2021-05-08T08:15:40Z</time>
      </trkpt>
      <trkpt lat="43.55827" lon="-0.91652">
        <ele>112</ele>
        <time>2021-05-08T08:15:41Z</time>
      </trkpt>
      <trkpt lat="43.55825" lon="-0.91651">
        <ele>112</ele>
        <time>2021-05-08T08:15:42Z</time>
      </trkpt>
      <trkpt lat="43.55823" lon="-0.91651">
        <ele>112</ele>
        <time>2021-05-08T08:15:43Z</time>
      </trkpt>
      <trkpt lat="43.55821" lon="-0.91651">
        <ele>112</ele>
        <time>2021-05-08T08:15:44Z</time>
      </trkpt>
      <trkpt lat="43.55819" lon="-0.91651">
        <ele>112</ele>
        <time>2021-05-08T08:15:45Z</time>
      </trkpt>
      <trkpt lat="43.55816" lon="-0.91651">
        <ele>112</ele>
        <time>2021-05-08T08:15:46Z</time>
      </trkpt>
      <trkpt lat="43.55814" lon="-0.91651">
        <ele>112</ele>
        <time>2021-05-08T08:15:47Z</time>
      </trkpt>
      <trkpt lat="43.55812" lon="-0.91652">
        <ele>113</ele>
        <time>2021-05-08T08:15:48Z</time>
      </trkpt>
      <trkpt lat="43.5581" lon="-0.91653">
        <ele>113</ele>
        <time>2021-05-08T08:15:49Z</time>
      </trkpt>
      <trkpt lat="43.55808" lon="-0.91654">
        <ele>113</ele>
        <time>2021-05-08T08:15:50Z</time>
      </trkpt>
      <trkpt lat="43.55806" lon="-0.91655">
        <ele>113</ele>
        <time>2021-05-08T08:15:51Z</time>
      </trkpt>
      <trkpt lat="43.55804" lon="-0.91657">
        <ele>113</ele>
        <time>2021-05-08T08:15:52Z</time>
      </trkpt>
      <trkpt lat="43.55802" lon="-0.91658">
        <ele>114</ele>
        <time>2021-05-08T08:15:53Z</time>
      </trkpt>
      <trkpt lat="43.55801" lon="-0.9166">
        <ele>114</ele>
        <time>2021-05-08T08:15:54Z</time>
      </trkpt>
      <trkpt lat="43.55799" lon="-0.91662">
        <ele>114</ele>
        <time>2021-05-08T08:15:55Z</time>
      </trkpt>
      <trkpt lat="43.55797" lon="-0.91663">
        <ele>114</ele>
        <time>2021-05-08T08:15:56Z</time>
      </trkpt>
      <trkpt lat="43.55795" lon="-0.91665">
        <ele>114</ele>
        <time>2021-05-08T08:15:57Z</time>
      </trkpt>
      <trkpt lat="43.55794" lon="-0.91667">
        <ele>115</ele>
        <time>2021-05-08T08:15:58Z</time>
      </trkpt>
      <trkpt lat="43.55792" lon="-0.91669">
        <ele>115</ele>
        <time>2021-05-08T08:15:59Z</time>
      </trkpt>
      <trkpt lat="43.55791" lon="-0.91671">
        <ele>115</ele>
        <time>2021-05-08T08:16:00Z</time>
      </trkpt>
      <trkpt lat="43.55789" lon="-0.91673">
        <ele>115</ele>
        <time>2021-05-08T08:16:01Z</time>
      </trkpt>
      <trkpt lat="43.55788" lon="-0.91674">
        <ele>115</ele>
        <time>2021-05-08T08:16:02Z</time>
      </trkpt>
      <trkpt lat="43.55787" lon="-0.91676">
        <ele>115</ele>
        <time>2021-05-08T08:16:03Z</time>
      </trkpt>
      <trkpt lat="43.55785" lon="-0.91677">
        <ele>115</ele>
        <time>2021-05-08T08:16:04Z</time>
      </trkpt>
      <trkpt lat="43.55784" lon="-0.91678">
        <ele>115</ele>
        <time>2021-05-08T08:16:05Z</time>
      </trkpt>
      <trkpt lat="43.55782" lon="-0.91679">
        <ele>115</ele>
        <time>2021-05-08T08:16:06Z</time>
      </trkpt>
      <trkpt lat="43.5578" lon="-0.91679">
        <ele>115</ele>
        <time>2021-05-08T08:16:07Z</time>
      </trkpt>
      <trkpt lat="43.55777" lon="-0.9168">
        <ele>116</ele>
        <time>2021-05-08T08:16:08Z</time>
      </trkpt>
      <trkpt lat="43.55775" lon="-0.91681">
        <ele>116</ele>
        <time>2021-05-08T08:16:09Z</time>
      </trkpt>
      <trkpt lat="43.55773" lon="-0.91681">
        <ele>116</ele>
        <time>2021-05-08T08:16:10Z</time>
      </trkpt>
      <trkpt lat="43.55771" lon="-0.91682">
        <ele>116</ele>
        <time>2021-05-08T08:16:11Z</time>
      </trkpt>
      <trkpt lat="43.55769" lon="-0.91683">
        <ele>116</ele>
        <time>2021-05-08T08:16:12Z</time>
      </trkpt>
      <trkpt lat="43.55767" lon="-0.91684">
        <ele>117</ele>
        <time>2021-05-08T08:16:13Z</time>
      </trkpt>
      <trkpt lat="43.55764" lon="-0.91685">
        <ele>117</ele>
        <time>2021-05-08T08:16:14Z</time>
      </trkpt>
      <trkpt lat="43.55762" lon="-0.91686">
        <ele>117</ele>
        <time>2021-05-08T08:16:15Z</time>
      </trkpt>
      <trkpt lat="43.55759" lon="-0.91687">
        <ele>117</ele>
        <time>2021-05-08T08:16:16Z</time>
      </trkpt>
      <trkpt lat="43.55756" lon="-0.91689">
        <ele>117</ele>
        <time>2021-05-08T08:16:17Z</time>
      </trkpt>
      <trkpt lat="43.55753" lon="-0.9169">
        <ele>117</ele>
        <time>2021-05-08T08:16:18Z</time>
      </trkpt>
      <trkpt lat="43.55751" lon="-0.91691">
        <ele>117</ele>
        <time>2021-05-08T08:16:19Z</time>
      </trkpt>
      <trkpt lat="43.55748" lon="-0.91692">
        <ele>117</ele>
        <time>2021-05-08T08:16:20Z</time>
      </trkpt>
      <trkpt lat="43.55746" lon="-0.91693">
        <ele>117</ele>
        <time>2021-05-08T08:16:21Z</time>
      </trkpt>
      <trkpt lat="43.55743" lon="-0.91694">
        <ele>117</ele>
        <time>2021-05-08T08:16:22Z</time>
      </trkpt>
      <trkpt lat="43.5574" lon="-0.91695">
        <ele>118</ele>
        <time>2021-05-08T08:16:23Z</time>
      </trkpt>
      <trkpt lat="43.55738" lon="-0.91696">
        <ele>118</ele>
        <time>2021-05-08T08:16:24Z</time>
      </trkpt>
      <trkpt lat="43.55735" lon="-0.91696">
        <ele>118</ele>
        <time>2021-05-08T08:16:25Z</time>
      </trkpt>
      <trkpt lat="43.55733" lon="-0.91698">
        <ele>118</ele>
        <time>2021-05-08T08:16:26Z</time>
      </trkpt>
      <trkpt lat="43.5573" lon="-0.91699">
        <ele>118</ele>
        <time>2021-05-08T08:16:27Z</time>
      </trkpt>
      <trkpt lat="43.55728" lon="-0.91701">
        <ele>118</ele>
        <time>2021-05-08T08:16:28Z</time>
      </trkpt>
      <trkpt lat="43.55725" lon="-0.91703">
        <ele>118</ele>
        <time>2021-05-08T08:16:29Z</time>
      </trkpt>
      <trkpt lat="43.55723" lon="-0.91704">
        <ele>118</ele>
        <time>2021-05-08T08:16:30Z</time>
      </trkpt>
      <trkpt lat="43.55721" lon="-0.91706">
        <ele>118</ele>
        <time>2021-05-08T08:16:31Z</time>
      </trkpt>
      <trkpt lat="43.55719" lon="-0.91708">
        <ele>118</ele>
        <time>2021-05-08T08:16:32Z</time>
      </trkpt>
      <trkpt lat="43.55717" lon="-0.9171">
        <ele>118</ele>
        <time>2021-05-08T08:16:33Z</time>
      </trkpt>
      <trkpt lat="43.55715" lon="-0.91712">
        <ele>118</ele>
        <time>2021-05-08T08:16:34Z</time>
      </trkpt>
      <trkpt lat="43.55713" lon="-0.91714">
        <ele>118</ele>
        <time>2021-05-08T08:16:35Z</time>
      </trkpt>
      <trkpt lat="43.5571" lon="-0.91715">
        <ele>118</ele>
        <time>2021-05-08T08:16:36Z</time>
      </trkpt>
      <trkpt lat="43.55708" lon="-0.91717">
        <ele>118</ele>
        <time>2021-05-08T08:16:37Z</time>
      </trkpt>
      <trkpt lat="43.55706" lon="-0.91718">
        <ele>118</ele>
        <time>2021-05-08T08:16:38Z</time>
      </trkpt>
      <trkpt lat="43.55703" lon="-0.9172">
        <ele>118</ele>
        <time>2021-05-08T08:16:39Z</time>
      </trkpt>
      <trkpt lat="43.55701" lon="-0.91721">
        <ele>118</ele>
        <time>2021-05-08T08:16:40Z</time>
      </trkpt>
      <trkpt lat="43.55699" lon="-0.91722">
        <ele>118</ele>
        <time>2021-05-08T08:16:41Z</time>
      </trkpt>
      <trkpt lat="43.55696" lon="-0.91724">
        <ele>118</ele>
        <time>2021-05-08T08:16:42Z</time>
      </trkpt>
      <trkpt lat="43.55694" lon="-0.91725">
        <ele>118</ele>
        <time>2021-05-08T08:16:43Z</time>
      </trkpt>
      <trkpt lat="43.55691" lon="-0.91727">
        <ele>117</ele>
        <time>2021-05-08T08:16:44Z</time>
      </trkpt>
      <trkpt lat="43.55689" lon="-0.91728">
        <ele>117</ele>
        <time>2021-05-08T08:16:45Z</time>
      </trkpt>
      <trkpt lat="43.55687" lon="-0.9173">
        <ele>117</ele>
        <time>2021-05-08T08:16:46Z</time>
      </trkpt>
      <trkpt lat="43.55684" lon="-0.91731">
        <ele>117</ele>
        <time>2021-05-08T08:16:47Z</time>
      </trkpt>
      <trkpt lat="43.55681" lon="-0.91733">
        <ele>117</ele>
        <time>2021-05-08T08:16:48Z</time>
      </trkpt>
      <trkpt lat="43.55679" lon="-0.91735">
        <ele>117</ele>
        <time>2021-05-08T08:16:49Z</time>
      </trkpt>
      <trkpt lat="43.55676" lon="-0.91736">
        <ele>117</ele>
        <time>2021-05-08T08:16:50Z</time>
      </trkpt>
      <trkpt lat="43.55674" lon="-0.91737">
        <ele>117</ele>
        <time>2021-05-08T08:16:51Z</time>
      </trkpt>
      <trkpt lat="43.55671" lon="-0.91739">
        <ele>117</ele>
        <time>2021-05-08T08:16:52Z</time>
      </trkpt>
      <trkpt lat="43.55669" lon="-0.9174">
        <ele>117</ele>
        <time>2021-05-08T08:16:53Z</time>
      </trkpt>
      <trkpt lat="43.55666" lon="-0.91742">
        <ele>116</ele>
        <time>2021-05-08T08:16:54Z</time>
      </trkpt>
      <trkpt lat="43.55664" lon="-0.91744">
        <ele>116</ele>
        <time>2021-05-08T08:16:55Z</time>
      </trkpt>
      <trkpt lat="43.55661" lon="-0.91745">
        <ele>115</ele>
        <time>2021-05-08T08:16:56Z</time>
      </trkpt>
      <trkpt lat="43.55658" lon="-0.91747">
        <ele>115</ele>
        <time>2021-05-08T08:16:57Z</time>
      </trkpt>
      <trkpt lat="43.55656" lon="-0.91749">
        <ele>115</ele>
        <time>2021-05-08T08:16:58Z</time>
      </trkpt>
      <trkpt lat="43.55654" lon="-0.9175">
        <ele>115</ele>
        <time>2021-05-08T08:16:59Z</time>
      </trkpt>
      <trkpt lat="43.55651" lon="-0.91752">
        <ele>115</ele>
        <time>2021-05-08T08:17:00Z</time>
      </trkpt>
      <trkpt lat="43.55649" lon="-0.91753">
        <ele>115</ele>
        <time>2021-05-08T08:17:01Z</time>
      </trkpt>
      <trkpt lat="43.55647" lon="-0.91755">
        <ele>115</ele>
        <time>2021-05-08T08:17:02Z</time>
      </trkpt>
      <trkpt lat="43.55644" lon="-0.91757">
        <ele>115</ele>
        <time>2021-05-08T08:17:03Z</time>
      </trkpt>
      <trkpt lat="43.55642" lon="-0.91758">
        <ele>114</ele>
        <time>2021-05-08T08:17:04Z</time>
      </trkpt>
      <trkpt lat="43.5564" lon="-0.9176">
        <ele>114</ele>
        <time>2021-05-08T08:17:05Z</time>
      </trkpt>
      <trkpt lat="43.55638" lon="-0.91762">
        <ele>114</ele>
        <time>2021-05-08T08:17:06Z</time>
      </trkpt>
      <trkpt lat="43.55636" lon="-0.91764">
        <ele>114</ele>
        <time>2021-05-08T08:17:07Z</time>
      </trkpt>
      <trkpt lat="43.55634" lon="-0.91766">
        <ele>114</ele>
        <time>2021-05-08T08:17:08Z</time>
      </trkpt>
      <trkpt lat="43.55632" lon="-0.91768">
        <ele>113</ele>
        <time>2021-05-08T08:17:09Z</time>
      </trkpt>
      <trkpt lat="43.55629" lon="-0.9177">
        <ele>113</ele>
        <time>2021-05-08T08:17:10Z</time>
      </trkpt>
      <trkpt lat="43.55627" lon="-0.91772">
        <ele>113</ele>
        <time>2021-05-08T08:17:11Z</time>
      </trkpt>
      <trkpt lat="43.55625" lon="-0.91774">
        <ele>113</ele>
        <time>2021-05-08T08:17:12Z</time>
      </trkpt>
      <trkpt lat="43.55622" lon="-0.91776">
        <ele>113</ele>
        <time>2021-05-08T08:17:13Z</time>
      </trkpt>
      <trkpt lat="43.5562" lon="-0.91777">
        <ele>112</ele>
        <time>2021-05-08T08:17:14Z</time>
      </trkpt>
      <trkpt lat="43.55617" lon="-0.91779">
        <ele>112</ele>
        <time>2021-05-08T08:17:15Z</time>
      </trkpt>
      <trkpt lat="43.55615" lon="-0.91781">
        <ele>112</ele>
        <time>2021-05-08T08:17:16Z</time>
      </trkpt>
      <trkpt lat="43.55612" lon="-0.91783">
        <ele>112</ele>
        <time>2021-05-08T08:17:17Z</time>
      </trkpt>
      <trkpt lat="43.5561" lon="-0.91785">
        <ele>112</ele>
        <time>2021-05-08T08:17:18Z</time>
      </trkpt>
      <trkpt lat="43.55608" lon="-0.91787">
        <ele>111</ele>
        <time>2021-05-08T08:17:19Z</time>
      </trkpt>
      <trkpt lat="43.55605" lon="-0.91789">
        <ele>111</ele>
        <time>2021-05-08T08:17:20Z</time>
      </trkpt>
      <trkpt lat="43.55603" lon="-0.91791">
        <ele>111</ele>
        <time>2021-05-08T08:17:21Z</time>
      </trkpt>
      <trkpt lat="43.55601" lon="-0.91793">
        <ele>111</ele>
        <time>2021-05-08T08:17:22Z</time>
      </trkpt>
      <trkpt lat="43.55598" lon="-0.91795">
        <ele>111</ele>
        <time>2021-05-08T08:17:23Z</time>
      </trkpt>
      <trkpt lat="43.55596" lon="-0.91797">
        <ele>110</ele>
        <time>2021-05-08T08:17:24Z</time>
      </trkpt>
      <trkpt lat="43.55593" lon="-0.91799">
        <ele>110</ele>
        <time>2021-05-08T08:17:25Z</time>
      </trkpt>
      <trkpt lat="43.55591" lon="-0.918">
        <ele>110</ele>
        <time>2021-05-08T08:17:26Z</time>
      </trkpt>
      <trkpt lat="43.55589" lon="-0.91802">
        <ele>110</ele>
        <time>2021-05-08T08:17:27Z</time>
      </trkpt>
      <trkpt lat="43.55586" lon="-0.91804">
        <ele>110</ele>
        <time>2021-05-08T08:17:28Z</time>
      </trkpt>
      <trkpt lat="43.55584" lon="-0.91806">
        <ele>109</ele>
        <time>2021-05-08T08:17:29Z</time>
      </trkpt>
      <trkpt lat="43.55582" lon="-0.91808">
        <ele>109</ele>
        <time>2021-05-08T08:17:30Z</time>
      </trkpt>
      <trkpt lat="43.55579" lon="-0.9181">
        <ele>109</ele>
        <time>2021-05-08T08:17:31Z</time>
      </trkpt>
      <trkpt lat="43.55577" lon="-0.91812">
        <ele>109</ele>
        <time>2021-05-08T08:17:32Z</time>
      </trkpt>
      <trkpt lat="43.55575" lon="-0.91814">
        <ele>109</ele>
        <time>2021-05-08T08:17:33Z</time>
      </trkpt>
      <trkpt lat="43.55573" lon="-0.91816">
        <ele>109</ele>
        <time>2021-05-08T08:17:34Z</time>
      </trkpt>
      <trkpt lat="43.55571" lon="-0.91818">
        <ele>109</ele>
        <time>2021-05-08T08:17:35Z</time>
      </trkpt>
      <trkpt lat="43.55569" lon="-0.91821">
        <ele>109</ele>
        <time>2021-05-08T08:17:36Z</time>
      </trkpt>
      <trkpt lat="43.55567" lon="-0.91823">
        <ele>109</ele>
        <time>2021-05-08T08:17:37Z</time>
      </trkpt>
      <trkpt lat="43.55565" lon="-0.91825">
        <ele>109</ele>
        <time>2021-05-08T08:17:38Z</time>
      </trkpt>
      <trkpt lat="43.55563" lon="-0.91827">
        <ele>108</ele>
        <time>2021-05-08T08:17:39Z</time>
      </trkpt>
      <trkpt lat="43.55561" lon="-0.91829">
        <ele>108</ele>
        <time>2021-05-08T08:17:40Z</time>
      </trkpt>
      <trkpt lat="43.55559" lon="-0.91831">
        <ele>108</ele>
        <time>2021-05-08T08:17:41Z</time>
      </trkpt>
      <trkpt lat="43.55556" lon="-0.91833">
        <ele>108</ele>
        <time>2021-05-08T08:17:42Z</time>
      </trkpt>
      <trkpt lat="43.55554" lon="-0.91834">
        <ele>108</ele>
        <time>2021-05-08T08:17:43Z</time>
      </trkpt>
      <trkpt lat="43.55552" lon="-0.91836">
        <ele>107</ele>
        <time>2021-05-08T08:17:44Z</time>
      </trkpt>
      <trkpt lat="43.5555" lon="-0.91838">
        <ele>107</ele>
        <time>2021-05-08T08:17:45Z</time>
      </trkpt>
      <trkpt lat="43.55548" lon="-0.91841">
        <ele>107</ele>
        <time>2021-05-08T08:17:46Z</time>
      </trkpt>
      <trkpt lat="43.55546" lon="-0.91843">
        <ele>107</ele>
        <time>2021-05-08T08:17:47Z</time>
      </trkpt>
      <trkpt lat="43.55543" lon="-0.91845">
        <ele>107</ele>
        <time>2021-05-08T08:17:48Z</time>
      </trkpt>
      <trkpt lat="43.55541" lon="-0.91847">
        <ele>106</ele>
        <time>2021-05-08T08:17:49Z</time>
      </trkpt>
      <trkpt lat="43.55539" lon="-0.91849">
        <ele>106</ele>
        <time>2021-05-08T08:17:50Z</time>
      </trkpt>
      <trkpt lat="43.55537" lon="-0.91851">
        <ele>106</ele>
        <time>2021-05-08T08:17:51Z</time>
      </trkpt>
      <trkpt lat="43.55535" lon="-0.91854">
        <ele>106</ele>
        <time>2021-05-08T08:17:52Z</time>
      </trkpt>
      <trkpt lat="43.55533" lon="-0.91856">
        <ele>106</ele>
        <time>2021-05-08T08:17:53Z</time>
      </trkpt>
      <trkpt lat="43.5553" lon="-0.91858">
        <ele>106</ele>
        <time>2021-05-08T08:17:54Z</time>
      </trkpt>
      <trkpt lat="43.55528" lon="-0.9186">
        <ele>106</ele>
        <time>2021-05-08T08:17:55Z</time>
      </trkpt>
      <trkpt lat="43.55526" lon="-0.91862">
        <ele>106</ele>
        <time>2021-05-08T08:17:56Z</time>
      </trkpt>
      <trkpt lat="43.55524" lon="-0.91864">
        <ele>106</ele>
        <time>2021-05-08T08:17:57Z</time>
      </trkpt>
      <trkpt lat="43.55522" lon="-0.91867">
        <ele>106</ele>
        <time>2021-05-08T08:17:58Z</time>
      </trkpt>
      <trkpt lat="43.5552" lon="-0.91869">
        <ele>105</ele>
        <time>2021-05-08T08:17:59Z</time>
      </trkpt>
      <trkpt lat="43.55517" lon="-0.91871">
        <ele>105</ele>
        <time>2021-05-08T08:18:00Z</time>
      </trkpt>
      <trkpt lat="43.55515" lon="-0.91873">
        <ele>105</ele>
        <time>2021-05-08T08:18:01Z</time>
      </trkpt>
      <trkpt lat="43.55512" lon="-0.91874">
        <ele>105</ele>
        <time>2021-05-08T08:18:02Z</time>
      </trkpt>
      <trkpt lat="43.55509" lon="-0.91875">
        <ele>105</ele>
        <time>2021-05-08T08:18:03Z</time>
      </trkpt>
      <trkpt lat="43.55507" lon="-0.91875">
        <ele>105</ele>
        <time>2021-05-08T08:18:04Z</time>
      </trkpt>
      <trkpt lat="43.55504" lon="-0.91875">
        <ele>105</ele>
        <time>2021-05-08T08:18:05Z</time>
      </trkpt>
      <trkpt lat="43.55502" lon="-0.91874">
        <ele>105</ele>
        <time>2021-05-08T08:18:06Z</time>
      </trkpt>
      <trkpt lat="43.555" lon="-0.91873">
        <ele>105</ele>
        <time>2021-05-08T08:18:07Z</time>
      </trkpt>
      <trkpt lat="43.55498" lon="-0.91871">
        <ele>105</ele>
        <time>2021-05-08T08:18:08Z</time>
      </trkpt>
      <trkpt lat="43.55496" lon="-0.91869">
        <ele>104</ele>
        <time>2021-05-08T08:18:09Z</time>
      </trkpt>
      <trkpt lat="43.55495" lon="-0.91867">
        <ele>104</ele>
        <time>2021-05-08T08:18:10Z</time>
      </trkpt>
      <trkpt lat="43.55493" lon="-0.91865">
        <ele>103</ele>
        <time>2021-05-08T08:18:11Z</time>
      </trkpt>
      <trkpt lat="43.55491" lon="-0.91863">
        <ele>103</ele>
        <time>2021-05-08T08:18:12Z</time>
      </trkpt>
      <trkpt lat="43.5549" lon="-0.91861">
        <ele>103</ele>
        <time>2021-05-08T08:18:13Z</time>
      </trkpt>
      <trkpt lat="43.55488" lon="-0.91859">
        <ele>102</ele>
        <time>2021-05-08T08:18:14Z</time>
      </trkpt>
      <trkpt lat="43.55486" lon="-0.91857">
        <ele>102</ele>
        <time>2021-05-08T08:18:15Z</time>
      </trkpt>
      <trkpt lat="43.55484" lon="-0.91855">
        <ele>102</ele>
        <time>2021-05-08T08:18:16Z</time>
      </trkpt>
      <trkpt lat="43.55482" lon="-0.91853">
        <ele>102</ele>
        <time>2021-05-08T08:18:17Z</time>
      </trkpt>
      <trkpt lat="43.5548" lon="-0.91851">
        <ele>102</ele>
        <time>2021-05-08T08:18:18Z</time>
      </trkpt>
      <trkpt lat="43.55478" lon="-0.91849">
        <ele>101</ele>
        <time>2021-05-08T08:18:19Z</time>
      </trkpt>
      <trkpt lat="43.55476" lon="-0.91847">
        <ele>101</ele>
        <time>2021-05-08T08:18:20Z</time>
      </trkpt>
      <trkpt lat="43.55475" lon="-0.91845">
        <ele>100</ele>
        <time>2021-05-08T08:18:21Z</time>
      </trkpt>
      <trkpt lat="43.55473" lon="-0.91843">
        <ele>100</ele>
        <time>2021-05-08T08:18:22Z</time>
      </trkpt>
      <trkpt lat="43.55471" lon="-0.91841">
        <ele>100</ele>
        <time>2021-05-08T08:18:23Z</time>
      </trkpt>
      <trkpt lat="43.5547" lon="-0.91839">
        <ele>99</ele>
        <time>2021-05-08T08:18:24Z</time>
      </trkpt>
      <trkpt lat="43.55468" lon="-0.91837">
        <ele>99</ele>
        <time>2021-05-08T08:18:25Z</time>
      </trkpt>
      <trkpt lat="43.55467" lon="-0.91835">
        <ele>99</ele>
        <time>2021-05-08T08:18:26Z</time>
      </trkpt>
      <trkpt lat="43.55465" lon="-0.91832">
        <ele>99</ele>
        <time>2021-05-08T08:18:27Z</time>
      </trkpt>
      <trkpt lat="43.55464" lon="-0.9183">
        <ele>99</ele>
        <time>2021-05-08T08:18:28Z</time>
      </trkpt>
      <trkpt lat="43.55462" lon="-0.91828">
        <ele>98</ele>
        <time>2021-05-08T08:18:29Z</time>
      </trkpt>
      <trkpt lat="43.5546" lon="-0.91826">
        <ele>98</ele>
        <time>2021-05-08T08:18:30Z</time>
      </trkpt>
      <trkpt lat="43.55458" lon="-0.91824">
        <ele>98</ele>
        <time>2021-05-08T08:18:31Z</time>
      </trkpt>
      <trkpt lat="43.55456" lon="-0.91822">
        <ele>98</ele>
        <time>2021-05-08T08:18:32Z</time>
      </trkpt>
      <trkpt lat="43.55454" lon="-0.9182">
        <ele>98</ele>
        <time>2021-05-08T08:18:33Z</time>
      </trkpt>
      <trkpt lat="43.55451" lon="-0.91817">
        <ele>97</ele>
        <time>2021-05-08T08:18:34Z</time>
      </trkpt>
      <trkpt lat="43.55449" lon="-0.91814">
        <ele>97</ele>
        <time>2021-05-08T08:18:35Z</time>
      </trkpt>
      <trkpt lat="43.55447" lon="-0.91812">
        <ele>96</ele>
        <time>2021-05-08T08:18:36Z</time>
      </trkpt>
      <trkpt lat="43.55444" lon="-0.91809">
        <ele>96</ele>
        <time>2021-05-08T08:18:37Z</time>
      </trkpt>
      <trkpt lat="43.55442" lon="-0.91806">
        <ele>96</ele>
        <time>2021-05-08T08:18:38Z</time>
      </trkpt>
      <trkpt lat="43.5544" lon="-0.91804">
        <ele>95</ele>
        <time>2021-05-08T08:18:39Z</time>
      </trkpt>
      <trkpt lat="43.55438" lon="-0.91801">
        <ele>95</ele>
        <time>2021-05-08T08:18:40Z</time>
      </trkpt>
      <trkpt lat="43.55436" lon="-0.91799">
        <ele>95</ele>
        <time>2021-05-08T08:18:41Z</time>
      </trkpt>
      <trkpt lat="43.55434" lon="-0.91798">
        <ele>95</ele>
        <time>2021-05-08T08:18:42Z</time>
      </trkpt>
      <trkpt lat="43.55431" lon="-0.91798">
        <ele>95</ele>
        <time>2021-05-08T08:18:43Z</time>
      </trkpt>
      <trkpt lat="43.55429" lon="-0.91798">
        <ele>94</ele>
        <time>2021-05-08T08:18:44Z</time>
      </trkpt>
      <trkpt lat="43.55427" lon="-0.91799">
        <ele>94</ele>
        <time>2021-05-08T08:18:45Z</time>
      </trkpt>
      <trkpt lat="43.55424" lon="-0.91801">
        <ele>93</ele>
        <time>2021-05-08T08:18:46Z</time>
      </trkpt>
      <trkpt lat="43.55422" lon="-0.91802">
        <ele>93</ele>
        <time>2021-05-08T08:18:47Z</time>
      </trkpt>
      <trkpt lat="43.5542" lon="-0.91804">
        <ele>93</ele>
        <time>2021-05-08T08:18:48Z</time>
      </trkpt>
      <trkpt lat="43.55417" lon="-0.91805">
        <ele>92</ele>
        <time>2021-05-08T08:18:49Z</time>
      </trkpt>
      <trkpt lat="43.55415" lon="-0.91807">
        <ele>92</ele>
        <time>2021-05-08T08:18:50Z</time>
      </trkpt>
      <trkpt lat="43.55413" lon="-0.91808">
        <ele>92</ele>
        <time>2021-05-08T08:18:51Z</time>
      </trkpt>
      <trkpt lat="43.5541" lon="-0.9181">
        <ele>92</ele>
        <time>2021-05-08T08:18:52Z</time>
      </trkpt>
      <trkpt lat="43.55408" lon="-0.91811">
        <ele>92</ele>
        <time>2021-05-08T08:18:53Z</time>
      </trkpt>
      <trkpt lat="43.55406" lon="-0.91813">
        <ele>91</ele>
        <time>2021-05-08T08:18:54Z</time>
      </trkpt>
      <trkpt lat="43.55404" lon="-0.91814">
        <ele>91</ele>
        <time>2021-05-08T08:18:55Z</time>
      </trkpt>
      <trkpt lat="43.55402" lon="-0.91816">
        <ele>91</ele>
        <time>2021-05-08T08:18:56Z</time>
      </trkpt>
      <trkpt lat="43.554" lon="-0.91818">
        <ele>91</ele>
        <time>2021-05-08T08:18:57Z</time>
      </trkpt>
      <trkpt lat="43.55398" lon="-0.91819">
        <ele>91</ele>
        <time>2021-05-08T08:18:58Z</time>
      </trkpt>
      <trkpt lat="43.55396" lon="-0.91821">
        <ele>90</ele>
        <time>2021-05-08T08:18:59Z</time>
      </trkpt>
      <trkpt lat="43.55394" lon="-0.91823">
        <ele>90</ele>
        <time>2021-05-08T08:19:00Z</time>
      </trkpt>
      <trkpt lat="43.55392" lon="-0.91824">
        <ele>90</ele>
        <time>2021-05-08T08:19:01Z</time>
      </trkpt>
      <trkpt lat="43.55391" lon="-0.91826">
        <ele>90</ele>
        <time>2021-05-08T08:19:02Z</time>
      </trkpt>
      <trkpt lat="43.55389" lon="-0.91827">
        <ele>90</ele>
        <time>2021-05-08T08:19:03Z</time>
      </trkpt>
      <trkpt lat="43.55387" lon="-0.91828">
        <ele>89</ele>
        <time>2021-05-08T08:19:04Z</time>
      </trkpt>
      <trkpt lat="43.55385" lon="-0.9183">
        <ele>89</ele>
        <time>2021-05-08T08:19:05Z</time>
      </trkpt>
      <trkpt lat="43.55384" lon="-0.91831">
        <ele>89</ele>
        <time>2021-05-08T08:19:06Z</time>
      </trkpt>
      <trkpt lat="43.55382" lon="-0.91833">
        <ele>89</ele>
        <time>2021-05-08T08:19:07Z</time>
      </trkpt>
      <trkpt lat="43.55381" lon="-0.91834">
        <ele>89</ele>
        <time>2021-05-08T08:19:08Z</time>
      </trkpt>
      <trkpt lat="43.55379" lon="-0.91835">
        <ele>88</ele>
        <time>2021-05-08T08:19:09Z</time>
      </trkpt>
      <trkpt lat="43.55377" lon="-0.91834">
        <ele>88</ele>
        <time>2021-05-08T08:19:10Z</time>
      </trkpt>
      <trkpt lat="43.55376" lon="-0.91834">
        <ele>88</ele>
        <time>2021-05-08T08:19:11Z</time>
      </trkpt>
      <trkpt lat="43.55374" lon="-0.91833">
        <ele>88</ele>
        <time>2021-05-08T08:19:12Z</time>
      </trkpt>
      <trkpt lat="43.55372" lon="-0.91832">
        <ele>88</ele>
        <time>2021-05-08T08:19:13Z</time>
      </trkpt>
      <trkpt lat="43.5537" lon="-0.9183">
        <ele>87</ele>
        <time>2021-05-08T08:19:14Z</time>
      </trkpt>
      <trkpt lat="43.55369" lon="-0.91828">
        <ele>87</ele>
        <time>2021-05-08T08:19:15Z</time>
      </trkpt>
      <trkpt lat="43.55367" lon="-0.91826">
        <ele>87</ele>
        <time>2021-05-08T08:19:16Z</time>
      </trkpt>
      <trkpt lat="43.55366" lon="-0.91824">
        <ele>87</ele>
        <time>2021-05-08T08:19:17Z</time>
      </trkpt>
      <trkpt lat="43.55364" lon="-0.91822">
        <ele>87</ele>
        <time>2021-05-08T08:19:18Z</time>
      </trkpt>
      <trkpt lat="43.55362" lon="-0.9182">
        <ele>86</ele>
        <time>2021-05-08T08:19:19Z</time>
      </trkpt>
      <trkpt lat="43.5536" lon="-0.91819">
        <ele>86</ele>
        <time>2021-05-08T08:19:20Z</time>
      </trkpt>
      <trkpt lat="43.55358" lon="-0.91817">
        <ele>86</ele>
        <time>2021-05-08T08:19:21Z</time>
      </trkpt>
      <trkpt lat="43.55356" lon="-0.91816">
        <ele>86</ele>
        <time>2021-05-08T08:19:22Z</time>
      </trkpt>
      <trkpt lat="43.55354" lon="-0.91814">
        <ele>86</ele>
        <time>2021-05-08T08:19:23Z</time>
      </trkpt>
      <trkpt lat="43.55352" lon="-0.91813">
        <ele>85</ele>
        <time>2021-05-08T08:19:24Z</time>
      </trkpt>
      <trkpt lat="43.5535" lon="-0.91811">
        <ele>85</ele>
        <time>2021-05-08T08:19:25Z</time>
      </trkpt>
      <trkpt lat="43.55348" lon="-0.91809">
        <ele>84</ele>
        <time>2021-05-08T08:19:26Z</time>
      </trkpt>
      <trkpt lat="43.55346" lon="-0.91808">
        <ele>84</ele>
        <time>2021-05-08T08:19:27Z</time>
      </trkpt>
      <trkpt lat="43.55345" lon="-0.91806">
        <ele>84</ele>
        <time>2021-05-08T08:19:28Z</time>
      </trkpt>
      <trkpt lat="43.55343" lon="-0.91804">
        <ele>83</ele>
        <time>2021-05-08T08:19:29Z</time>
      </trkpt>
      <trkpt lat="43.55341" lon="-0.91802">
        <ele>83</ele>
        <time>2021-05-08T08:19:30Z</time>
      </trkpt>
      <trkpt lat="43.5534" lon="-0.918">
        <ele>83</ele>
        <time>2021-05-08T08:19:31Z</time>
      </trkpt>
      <trkpt lat="43.55338" lon="-0.91798">
        <ele>83</ele>
        <time>2021-05-08T08:19:32Z</time>
      </trkpt>
      <trkpt lat="43.55337" lon="-0.91796">
        <ele>83</ele>
        <time>2021-05-08T08:19:33Z</time>
      </trkpt>
      <trkpt lat="43.55335" lon="-0.91794">
        <ele>82</ele>
        <time>2021-05-08T08:19:34Z</time>
      </trkpt>
      <trkpt lat="43.55334" lon="-0.91792">
        <ele>82</ele>
        <time>2021-05-08T08:19:35Z</time>
      </trkpt>
      <trkpt lat="43.55333" lon="-0.9179">
        <ele>82</ele>
        <time>2021-05-08T08:19:36Z</time>
      </trkpt>
      <trkpt lat="43.55332" lon="-0.91788">
        <ele>82</ele>
        <time>2021-05-08T08:19:37Z</time>
      </trkpt>
      <trkpt lat="43.5533" lon="-0.91786">
        <ele>82</ele>
        <time>2021-05-08T08:19:38Z</time>
      </trkpt>
      <trkpt lat="43.55329" lon="-0.91784">
        <ele>81</ele>
        <time>2021-05-08T08:19:39Z</time>
      </trkpt>
      <trkpt lat="43.55327" lon="-0.91782">
        <ele>81</ele>
        <time>2021-05-08T08:19:40Z</time>
      </trkpt>
      <trkpt lat="43.55326" lon="-0.91781">
        <ele>81</ele>
        <time>2021-05-08T08:19:41Z</time>
      </trkpt>
      <trkpt lat="43.55324" lon="-0.91779">
        <ele>81</ele>
        <time>2021-05-08T08:19:42Z</time>
      </trkpt>
      <trkpt lat="43.55323" lon="-0.91777">
        <ele>81</ele>
        <time>2021-05-08T08:19:43Z</time>
      </trkpt>
      <trkpt lat="43.55322" lon="-0.91775">
        <ele>81</ele>
        <time>2021-05-08T08:19:44Z</time>
      </trkpt>
      <trkpt lat="43.55321" lon="-0.91773">
        <ele>81</ele>
        <time>2021-05-08T08:19:45Z</time>
      </trkpt>
      <trkpt lat="43.5532" lon="-0.91771">
        <ele>81</ele>
        <time>2021-05-08T08:19:46Z</time>
      </trkpt>
      <trkpt lat="43.55318" lon="-0.91769">
        <ele>81</ele>
        <time>2021-05-08T08:19:47Z</time>
      </trkpt>
      <trkpt lat="43.55317" lon="-0.91767">
        <ele>81</ele>
        <time>2021-05-08T08:19:48Z</time>
      </trkpt>
      <trkpt lat="43.55316" lon="-0.91764">
        <ele>80</ele>
        <time>2021-05-08T08:19:49Z</time>
      </trkpt>
      <trkpt lat="43.55315" lon="-0.91762">
        <ele>80</ele>
        <time>2021-05-08T08:19:50Z</time>
      </trkpt>
      <trkpt lat="43.55314" lon="-0.91759">
        <ele>80</ele>
        <time>2021-05-08T08:19:51Z</time>
      </trkpt>
      <trkpt lat="43.55313" lon="-0.91757">
        <ele>80</ele>
        <time>2021-05-08T08:19:52Z</time>
      </trkpt>
      <trkpt lat="43.55312" lon="-0.91754">
        <ele>80</ele>
        <time>2021-05-08T08:19:53Z</time>
      </trkpt>
      <trkpt lat="43.55311" lon="-0.91751">
        <ele>79</ele>
        <time>2021-05-08T08:19:54Z</time>
      </trkpt>
      <trkpt lat="43.5531" lon="-0.91749">
        <ele>79</ele>
        <time>2021-05-08T08:19:55Z</time>
      </trkpt>
      <trkpt lat="43.55308" lon="-0.91747">
        <ele>79</ele>
        <time>2021-05-08T08:19:56Z</time>
      </trkpt>
      <trkpt lat="43.55307" lon="-0.91745">
        <ele>79</ele>
        <time>2021-05-08T08:19:57Z</time>
      </trkpt>
      <trkpt lat="43.55305" lon="-0.91743">
        <ele>79</ele>
        <time>2021-05-08T08:19:58Z</time>
      </trkpt>
      <trkpt lat="43.55304" lon="-0.91741">
        <ele>78</ele>
        <time>2021-05-08T08:19:59Z</time>
      </trkpt>
      <trkpt lat="43.55302" lon="-0.91739">
        <ele>78</ele>
        <time>2021-05-08T08:20:00Z</time>
      </trkpt>
      <trkpt lat="43.553" lon="-0.91737">
        <ele>78</ele>
        <time>2021-05-08T08:20:01Z</time>
      </trkpt>
      <trkpt lat="43.55299" lon="-0.91735">
        <ele>78</ele>
        <time>2021-05-08T08:20:02Z</time>
      </trkpt>
      <trkpt lat="43.55297" lon="-0.91733">
        <ele>78</ele>
        <time>2021-05-08T08:20:03Z</time>
      </trkpt>
      <trkpt lat="43.55295" lon="-0.91732">
        <ele>77</ele>
        <time>2021-05-08T08:20:04Z</time>
      </trkpt>
      <trkpt lat="43.55293" lon="-0.9173">
        <ele>77</ele>
        <time>2021-05-08T08:20:05Z</time>
      </trkpt>
      <trkpt lat="43.55292" lon="-0.91728">
        <ele>77</ele>
        <time>2021-05-08T08:20:06Z</time>
      </trkpt>
      <trkpt lat="43.5529" lon="-0.91726">
        <ele>77</ele>
        <time>2021-05-08T08:20:07Z</time>
      </trkpt>
      <trkpt lat="43.55289" lon="-0.91724">
        <ele>77</ele>
        <time>2021-05-08T08:20:08Z</time>
      </trkpt>
      <trkpt lat="43.55287" lon="-0.91722">
        <ele>77</ele>
        <time>2021-05-08T08:20:09Z</time>
      </trkpt>
      <trkpt lat="43.55285" lon="-0.9172">
        <ele>77</ele>
        <time>2021-05-08T08:20:10Z</time>
      </trkpt>
      <trkpt lat="43.55284" lon="-0.91718">
        <ele>77</ele>
        <time>2021-05-08T08:20:11Z</time>
      </trkpt>
      <trkpt lat="43.55282" lon="-0.91715">
        <ele>77</ele>
        <time>2021-05-08T08:20:12Z</time>
      </trkpt>
      <trkpt lat="43.55281" lon="-0.91713">
        <ele>77</ele>
        <time>2021-05-08T08:20:13Z</time>
      </trkpt>
      <trkpt lat="43.55279" lon="-0.91711">
        <ele>76</ele>
        <time>2021-05-08T08:20:14Z</time>
      </trkpt>
      <trkpt lat="43.55278" lon="-0.91709">
        <ele>76</ele>
        <time>2021-05-08T08:20:15Z</time>
      </trkpt>
      <trkpt lat="43.55276" lon="-0.91708">
        <ele>76</ele>
        <time>2021-05-08T08:20:16Z</time>
      </trkpt>
      <trkpt lat="43.55275" lon="-0.91706">
        <ele>76</ele>
        <time>2021-05-08T08:20:17Z</time>
      </trkpt>
      <trkpt lat="43.55273" lon="-0.91704">
        <ele>76</ele>
        <time>2021-05-08T08:20:18Z</time>
      </trkpt>
      <trkpt lat="43.55272" lon="-0.91702">
        <ele>75</ele>
        <time>2021-05-08T08:20:19Z</time>
      </trkpt>
      <trkpt lat="43.5527" lon="-0.917">
        <ele>75</ele>
        <time>2021-05-08T08:20:20Z</time>
      </trkpt>
      <trkpt lat="43.55269" lon="-0.91698">
        <ele>75</ele>
        <time>2021-05-08T08:20:21Z</time>
      </trkpt>
      <trkpt lat="43.55268" lon="-0.91696">
        <ele>75</ele>
        <time>2021-05-08T08:20:22Z</time>
      </trkpt>
      <trkpt lat="43.55266" lon="-0.91694">
        <ele>75</ele>
        <time>2021-05-08T08:20:23Z</time>
      </trkpt>
      <trkpt lat="43.55265" lon="-0.91692">
        <ele>74</ele>
        <time>2021-05-08T08:20:24Z</time>
      </trkpt>
      <trkpt lat="43.55263" lon="-0.9169">
        <ele>74</ele>
        <time>2021-05-08T08:20:25Z</time>
      </trkpt>
      <trkpt lat="43.55261" lon="-0.91687">
        <ele>74</ele>
        <time>2021-05-08T08:20:26Z</time>
      </trkpt>
      <trkpt lat="43.55259" lon="-0.91685">
        <ele>74</ele>
        <time>2021-05-08T08:20:27Z</time>
      </trkpt>
      <trkpt lat="43.55257" lon="-0.91683">
        <ele>74</ele>
        <time>2021-05-08T08:20:28Z</time>
      </trkpt>
      <trkpt lat="43.55256" lon="-0.91681">
        <ele>73</ele>
        <time>2021-05-08T08:20:29Z</time>
      </trkpt>
      <trkpt lat="43.55254" lon="-0.91678">
        <ele>73</ele>
        <time>2021-05-08T08:20:30Z</time>
      </trkpt>
      <trkpt lat="43.55252" lon="-0.91676">
        <ele>72</ele>
        <time>2021-05-08T08:20:31Z</time>
      </trkpt>
      <trkpt lat="43.5525" lon="-0.91675">
        <ele>72</ele>
        <time>2021-05-08T08:20:32Z</time>
      </trkpt>
      <trkpt lat="43.55248" lon="-0.91673">
        <ele>72</ele>
        <time>2021-05-08T08:20:33Z</time>
      </trkpt>
      <trkpt lat="43.55246" lon="-0.91672">
        <ele>71</ele>
        <time>2021-05-08T08:20:34Z</time>
      </trkpt>
      <trkpt lat="43.55243" lon="-0.9167">
        <ele>71</ele>
        <time>2021-05-08T08:20:35Z</time>
      </trkpt>
      <trkpt lat="43.55241" lon="-0.9167">
        <ele>71</ele>
        <time>2021-05-08T08:20:36Z</time>
      </trkpt>
      <trkpt lat="43.55239" lon="-0.91669">
        <ele>71</ele>
        <time>2021-05-08T08:20:37Z</time>
      </trkpt>
      <trkpt lat="43.55236" lon="-0.91668">
        <ele>71</ele>
        <time>2021-05-08T08:20:38Z</time>
      </trkpt>
      <trkpt lat="43.55234" lon="-0.91667">
        <ele>70</ele>
        <time>2021-05-08T08:20:39Z</time>
      </trkpt>
      <trkpt lat="43.55232" lon="-0.91667">
        <ele>70</ele>
        <time>2021-05-08T08:20:40Z</time>
      </trkpt>
      <trkpt lat="43.5523" lon="-0.91666">
        <ele>69</ele>
        <time>2021-05-08T08:20:41Z</time>
      </trkpt>
      <trkpt lat="43.55228" lon="-0.91666">
        <ele>69</ele>
        <time>2021-05-08T08:20:42Z</time>
      </trkpt>
      <trkpt lat="43.55227" lon="-0.91666">
        <ele>69</ele>
        <time>2021-05-08T08:20:43Z</time>
      </trkpt>
      <trkpt lat="43.55225" lon="-0.91667">
        <ele>69</ele>
        <time>2021-05-08T08:20:44Z</time>
      </trkpt>
      <trkpt lat="43.55224" lon="-0.91668">
        <ele>69</ele>
        <time>2021-05-08T08:20:45Z</time>
      </trkpt>
      <trkpt lat="43.55222" lon="-0.91669">
        <ele>69</ele>
        <time>2021-05-08T08:20:46Z</time>
      </trkpt>
      <trkpt lat="43.55221" lon="-0.9167">
        <ele>69</ele>
        <time>2021-05-08T08:20:47Z</time>
      </trkpt>
      <trkpt lat="43.55219" lon="-0.91671">
        <ele>69</ele>
        <time>2021-05-08T08:20:48Z</time>
      </trkpt>
      <trkpt lat="43.55218" lon="-0.91673">
        <ele>69</ele>
        <time>2021-05-08T08:20:49Z</time>
      </trkpt>
      <trkpt lat="43.55216" lon="-0.91674">
        <ele>69</ele>
        <time>2021-05-08T08:20:50Z</time>
      </trkpt>
      <trkpt lat="43.55215" lon="-0.91674">
        <ele>69</ele>
        <time>2021-05-08T08:20:51Z</time>
      </trkpt>
      <trkpt lat="43.55213" lon="-0.91675">
        <ele>69</ele>
        <time>2021-05-08T08:20:52Z</time>
      </trkpt>
      <trkpt lat="43.55211" lon="-0.91675">
        <ele>69</ele>
        <time>2021-05-08T08:20:53Z</time>
      </trkpt>
      <trkpt lat="43.5521" lon="-0.91676">
        <ele>69</ele>
        <time>2021-05-08T08:20:54Z</time>
      </trkpt>
      <trkpt lat="43.55208" lon="-0.91677">
        <ele>69</ele>
        <time>2021-05-08T08:20:55Z</time>
      </trkpt>
      <trkpt lat="43.55206" lon="-0.91677">
        <ele>69</ele>
        <time>2021-05-08T08:20:56Z</time>
      </trkpt>
      <trkpt lat="43.55205" lon="-0.91678">
        <ele>69</ele>
        <time>2021-05-08T08:20:57Z</time>
      </trkpt>
      <trkpt lat="43.55203" lon="-0.91679">
        <ele>69</ele>
        <time>2021-05-08T08:20:58Z</time>
      </trkpt>
      <trkpt lat="43.55201" lon="-0.9168">
        <ele>69</ele>
        <time>2021-05-08T08:20:59Z</time>
      </trkpt>
      <trkpt lat="43.55199" lon="-0.91682">
        <ele>69</ele>
        <time>2021-05-08T08:21:00Z</time>
      </trkpt>
      <trkpt lat="43.55197" lon="-0.91683">
        <ele>69</ele>
        <time>2021-05-08T08:21:01Z</time>
      </trkpt>
      <trkpt lat="43.55195" lon="-0.91685">
        <ele>69</ele>
        <time>2021-05-08T08:21:02Z</time>
      </trkpt>
      <trkpt lat="43.55193" lon="-0.91687">
        <ele>69</ele>
        <time>2021-05-08T08:21:03Z</time>
      </trkpt>
      <trkpt lat="43.55192" lon="-0.91689">
        <ele>69</ele>
        <time>2021-05-08T08:21:04Z</time>
      </trkpt>
      <trkpt lat="43.5519" lon="-0.91691">
        <ele>69</ele>
        <time>2021-05-08T08:21:05Z</time>
      </trkpt>
      <trkpt lat="43.55189" lon="-0.91693">
        <ele>69</ele>
        <time>2021-05-08T08:21:06Z</time>
      </trkpt>
      <trkpt lat="43.55188" lon="-0.91695">
        <ele>69</ele>
        <time>2021-05-08T08:21:07Z</time>
      </trkpt>
      <trkpt lat="43.55189" lon="-0.91698">
        <ele>69</ele>
        <time>2021-05-08T08:21:08Z</time>
      </trkpt>
      <trkpt lat="43.55189" lon="-0.917">
        <ele>69</ele>
        <time>2021-05-08T08:21:09Z</time>
      </trkpt>
      <trkpt lat="43.5519" lon="-0.91703">
        <ele>69</ele>
        <time>2021-05-08T08:21:10Z</time>
      </trkpt>
      <trkpt lat="43.55191" lon="-0.91705">
        <ele>69</ele>
        <time>2021-05-08T08:21:11Z</time>
      </trkpt>
      <trkpt lat="43.55192" lon="-0.91708">
        <ele>69</ele>
        <time>2021-05-08T08:21:12Z</time>
      </trkpt>
      <trkpt lat="43.55194" lon="-0.9171">
        <ele>70</ele>
        <time>2021-05-08T08:21:13Z</time>
      </trkpt>
      <trkpt lat="43.55195" lon="-0.91713">
        <ele>70</ele>
        <time>2021-05-08T08:21:14Z</time>
      </trkpt>
      <trkpt lat="43.55197" lon="-0.91715">
        <ele>70</ele>
        <time>2021-05-08T08:21:15Z</time>
      </trkpt>
      <trkpt lat="43.55198" lon="-0.91718">
        <ele>70</ele>
        <time>2021-05-08T08:21:16Z</time>
      </trkpt>
      <trkpt lat="43.55199" lon="-0.9172">
        <ele>70</ele>
        <time>2021-05-08T08:21:17Z</time>
      </trkpt>
      <trkpt lat="43.552" lon="-0.91723">
        <ele>71</ele>
        <time>2021-05-08T08:21:18Z</time>
      </trkpt>
      <trkpt lat="43.55201" lon="-0.91725">
        <ele>71</ele>
        <time>2021-05-08T08:21:19Z</time>
      </trkpt>
      <trkpt lat="43.55202" lon="-0.91728">
        <ele>71</ele>
        <time>2021-05-08T08:21:20Z</time>
      </trkpt>
      <trkpt lat="43.55203" lon="-0.91731">
        <ele>71</ele>
        <time>2021-05-08T08:21:21Z</time>
      </trkpt>
      <trkpt lat="43.55204" lon="-0.91734">
        <ele>71</ele>
        <time>2021-05-08T08:21:22Z</time>
      </trkpt>
      <trkpt lat="43.55206" lon="-0.91738">
        <ele>71</ele>
        <time>2021-05-08T08:21:23Z</time>
      </trkpt>
      <trkpt lat="43.55207" lon="-0.91742">
        <ele>71</ele>
        <time>2021-05-08T08:21:24Z</time>
      </trkpt>
      <trkpt lat="43.55216" lon="-0.9175">
        <ele>65</ele>
        <time>2021-05-08T08:23:20Z</time>
      </trkpt>
      <trkpt lat="43.55216" lon="-0.91751">
        <ele>65</ele>
        <time>2021-05-08T08:23:21Z</time>
      </trkpt>
      <trkpt lat="43.55217" lon="-0.91752">
        <ele>65</ele>
        <time>2021-05-08T08:23:22Z</time>
      </trkpt>
      <trkpt lat="43.55218" lon="-0.91753">
        <ele>65</ele>
        <time>2021-05-08T08:23:23Z</time>
      </trkpt>
      <trkpt lat="43.55219" lon="-0.91753">
        <ele>65</ele>
        <time>2021-05-08T08:23:24Z</time>
      </trkpt>
      <trkpt lat="43.55221" lon="-0.91755">
        <ele>65</ele>
        <time>2021-05-08T08:23:25Z</time>
      </trkpt>
      <trkpt lat="43.55222" lon="-0.91756">
        <ele>65</ele>
        <time>2021-05-08T08:23:26Z</time>
      </trkpt>
      <trkpt lat="43.55224" lon="-0.91757">
        <ele>65</ele>
        <time>2021-05-08T08:23:27Z</time>
      </trkpt>
      <trkpt lat="43.55226" lon="-0.91759">
        <ele>65</ele>
        <time>2021-05-08T08:23:28Z</time>
      </trkpt>
      <trkpt lat="43.55227" lon="-0.91761">
        <ele>65</ele>
        <time>2021-05-08T08:23:29Z</time>
      </trkpt>
      <trkpt lat="43.55229" lon="-0.91762">
        <ele>65</ele>
        <time>2021-05-08T08:23:30Z</time>
      </trkpt>
      <trkpt lat="43.55231" lon="-0.91764">
        <ele>65</ele>
        <time>2021-05-08T08:23:31Z</time>
      </trkpt>
      <trkpt lat="43.55233" lon="-0.91766">
        <ele>65</ele>
        <time>2021-05-08T08:23:32Z</time>
      </trkpt>
      <trkpt lat="43.55235" lon="-0.91768">
        <ele>65</ele>
        <time>2021-05-08T08:23:33Z</time>
      </trkpt>
      <trkpt lat="43.55237" lon="-0.9177">
        <ele>65</ele>
        <time>2021-05-08T08:23:34Z</time>
      </trkpt>
      <trkpt lat="43.55239" lon="-0.91772">
        <ele>65</ele>
        <time>2021-05-08T08:23:35Z</time>
      </trkpt>
      <trkpt lat="43.5524" lon="-0.91774">
        <ele>65</ele>
        <time>2021-05-08T08:23:36Z</time>
      </trkpt>
      <trkpt lat="43.55242" lon="-0.91776">
        <ele>65</ele>
        <time>2021-05-08T08:23:37Z</time>
      </trkpt>
      <trkpt lat="43.55244" lon="-0.91778">
        <ele>65</ele>
        <time>2021-05-08T08:23:38Z</time>
      </trkpt>
      <trkpt lat="43.55246" lon="-0.91781">
        <ele>65</ele>
        <time>2021-05-08T08:23:39Z</time>
      </trkpt>
      <trkpt lat="43.55248" lon="-0.91783">
        <ele>65</ele>
        <time>2021-05-08T08:23:40Z</time>
      </trkpt>
      <trkpt lat="43.55249" lon="-0.91785">
        <ele>65</ele>
        <time>2021-05-08T08:23:41Z</time>
      </trkpt>
      <trkpt lat="43.55251" lon="-0.91787">
        <ele>66</ele>
        <time>2021-05-08T08:23:42Z</time>
      </trkpt>
      <trkpt lat="43.55252" lon="-0.91789">
        <ele>66</ele>
        <time>2021-05-08T08:23:43Z</time>
      </trkpt>
      <trkpt lat="43.55254" lon="-0.9179">
        <ele>66</ele>
        <time>2021-05-08T08:23:44Z</time>
      </trkpt>
      <trkpt lat="43.55255" lon="-0.91792">
        <ele>66</ele>
        <time>2021-05-08T08:23:45Z</time>
      </trkpt>
      <trkpt lat="43.55257" lon="-0.91794">
        <ele>66</ele>
        <time>2021-05-08T08:23:46Z</time>
      </trkpt>
      <trkpt lat="43.55258" lon="-0.91796">
        <ele>67</ele>
        <time>2021-05-08T08:23:47Z</time>
      </trkpt>
      <trkpt lat="43.55259" lon="-0.91798">
        <ele>67</ele>
        <time>2021-05-08T08:23:48Z</time>
      </trkpt>
      <trkpt lat="43.5526" lon="-0.91801">
        <ele>67</ele>
        <time>2021-05-08T08:23:49Z</time>
      </trkpt>
      <trkpt lat="43.55261" lon="-0.91803">
        <ele>67</ele>
        <time>2021-05-08T08:23:50Z</time>
      </trkpt>
      <trkpt lat="43.55263" lon="-0.91805">
        <ele>67</ele>
        <time>2021-05-08T08:23:51Z</time>
      </trkpt>
      <trkpt lat="43.55264" lon="-0.91808">
        <ele>67</ele>
        <time>2021-05-08T08:23:52Z</time>
      </trkpt>
      <trkpt lat="43.55266" lon="-0.9181">
        <ele>67</ele>
        <time>2021-05-08T08:23:53Z</time>
      </trkpt>
      <trkpt lat="43.55267" lon="-0.91812">
        <ele>67</ele>
        <time>2021-05-08T08:23:54Z</time>
      </trkpt>
      <trkpt lat="43.55269" lon="-0.91814">
        <ele>67</ele>
        <time>2021-05-08T08:23:55Z</time>
      </trkpt>
      <trkpt lat="43.5527" lon="-0.91816">
        <ele>67</ele>
        <time>2021-05-08T08:23:56Z</time>
      </trkpt>
      <trkpt lat="43.55272" lon="-0.91818">
        <ele>68</ele>
        <time>2021-05-08T08:23:57Z</time>
      </trkpt>
      <trkpt lat="43.55273" lon="-0.9182">
        <ele>68</ele>
        <time>2021-05-08T08:23:58Z</time>
      </trkpt>
      <trkpt lat="43.55275" lon="-0.91822">
        <ele>68</ele>
        <time>2021-05-08T08:23:59Z</time>
      </trkpt>
      <trkpt lat="43.55276" lon="-0.91824">
        <ele>68</ele>
        <time>2021-05-08T08:24:00Z</time>
      </trkpt>
      <trkpt lat="43.55277" lon="-0.91826">
        <ele>68</ele>
        <time>2021-05-08T08:24:01Z</time>
      </trkpt>
      <trkpt lat="43.55279" lon="-0.91828">
        <ele>69</ele>
        <time>2021-05-08T08:24:02Z</time>
      </trkpt>
      <trkpt lat="43.5528" lon="-0.9183">
        <ele>69</ele>
        <time>2021-05-08T08:24:03Z</time>
      </trkpt>
      <trkpt lat="43.55281" lon="-0.91832">
        <ele>69</ele>
        <time>2021-05-08T08:24:04Z</time>
      </trkpt>
      <trkpt lat="43.55283" lon="-0.91834">
        <ele>69</ele>
        <time>2021-05-08T08:24:05Z</time>
      </trkpt>
      <trkpt lat="43.55284" lon="-0.91835">
        <ele>69</ele>
        <time>2021-05-08T08:24:06Z</time>
      </trkpt>
      <trkpt lat="43.55285" lon="-0.91837">
        <ele>69</ele>
        <time>2021-05-08T08:24:07Z</time>
      </trkpt>
      <trkpt lat="43.55287" lon="-0.91839">
        <ele>69</ele>
        <time>2021-05-08T08:24:08Z</time>
      </trkpt>
      <trkpt lat="43.55288" lon="-0.91841">
        <ele>69</ele>
        <time>2021-05-08T08:24:09Z</time>
      </trkpt>
      <trkpt lat="43.55289" lon="-0.91843">
        <ele>69</ele>
        <time>2021-05-08T08:24:10Z</time>
      </trkpt>
      <trkpt lat="43.55291" lon="-0.91844">
        <ele>69</ele>
        <time>2021-05-08T08:24:11Z</time>
      </trkpt>
      <trkpt lat="43.55292" lon="-0.91846">
        <ele>70</ele>
        <time>2021-05-08T08:24:12Z</time>
      </trkpt>
      <trkpt lat="43.55293" lon="-0.91848">
        <ele>70</ele>
        <time>2021-05-08T08:24:13Z</time>
      </trkpt>
      <trkpt lat="43.55294" lon="-0.9185">
        <ele>70</ele>
        <time>2021-05-08T08:24:14Z</time>
      </trkpt>
      <trkpt lat="43.55296" lon="-0.91852">
        <ele>70</ele>
        <time>2021-05-08T08:24:15Z</time>
      </trkpt>
      <trkpt lat="43.55297" lon="-0.91854">
        <ele>70</ele>
        <time>2021-05-08T08:24:16Z</time>
      </trkpt>
      <trkpt lat="43.55298" lon="-0.91856">
        <ele>71</ele>
        <time>2021-05-08T08:24:17Z</time>
      </trkpt>
      <trkpt lat="43.55299" lon="-0.91857">
        <ele>71</ele>
        <time>2021-05-08T08:24:18Z</time>
      </trkpt>
      <trkpt lat="43.553" lon="-0.91859">
        <ele>71</ele>
        <time>2021-05-08T08:24:19Z</time>
      </trkpt>
      <trkpt lat="43.55302" lon="-0.91861">
        <ele>71</ele>
        <time>2021-05-08T08:24:20Z</time>
      </trkpt>
      <trkpt lat="43.55303" lon="-0.91863">
        <ele>71</ele>
        <time>2021-05-08T08:24:21Z</time>
      </trkpt>
      <trkpt lat="43.55304" lon="-0.91865">
        <ele>72</ele>
        <time>2021-05-08T08:24:22Z</time>
      </trkpt>
      <trkpt lat="43.55306" lon="-0.91867">
        <ele>72</ele>
        <time>2021-05-08T08:24:23Z</time>
      </trkpt>
      <trkpt lat="43.55307" lon="-0.91869">
        <ele>72</ele>
        <time>2021-05-08T08:24:24Z</time>
      </trkpt>
      <trkpt lat="43.55308" lon="-0.91871">
        <ele>72</ele>
        <time>2021-05-08T08:24:25Z</time>
      </trkpt>
      <trkpt lat="43.5531" lon="-0.91873">
        <ele>72</ele>
        <time>2021-05-08T08:24:26Z</time>
      </trkpt>
      <trkpt lat="43.55311" lon="-0.91874">
        <ele>72</ele>
        <time>2021-05-08T08:24:27Z</time>
      </trkpt>
      <trkpt lat="43.55312" lon="-0.91876">
        <ele>72</ele>
        <time>2021-05-08T08:24:28Z</time>
      </trkpt>
      <trkpt lat="43.55313" lon="-0.91878">
        <ele>72</ele>
        <time>2021-05-08T08:24:29Z</time>
      </trkpt>
      <trkpt lat="43.55314" lon="-0.9188">
        <ele>73</ele>
        <time>2021-05-08T08:24:30Z</time>
      </trkpt>
      <trkpt lat="43.55315" lon="-0.91882">
        <ele>73</ele>
        <time>2021-05-08T08:24:31Z</time>
      </trkpt>
      <trkpt lat="43.55316" lon="-0.91884">
        <ele>74</ele>
        <time>2021-05-08T08:24:32Z</time>
      </trkpt>
      <trkpt lat="43.55317" lon="-0.91886">
        <ele>74</ele>
        <time>2021-05-08T08:24:33Z</time>
      </trkpt>
      <trkpt lat="43.55318" lon="-0.91888">
        <ele>74</ele>
        <time>2021-05-08T08:24:34Z</time>
      </trkpt>
      <trkpt lat="43.5532" lon="-0.91889">
        <ele>74</ele>
        <time>2021-05-08T08:24:35Z</time>
      </trkpt>
      <trkpt lat="43.55321" lon="-0.91891">
        <ele>74</ele>
        <time>2021-05-08T08:24:36Z</time>
      </trkpt>
      <trkpt lat="43.55322" lon="-0.91893">
        <ele>75</ele>
        <time>2021-05-08T08:24:37Z</time>
      </trkpt>
      <trkpt lat="43.55323" lon="-0.91895">
        <ele>75</ele>
        <time>2021-05-08T08:24:38Z</time>
      </trkpt>
      <trkpt lat="43.55324" lon="-0.91896">
        <ele>75</ele>
        <time>2021-05-08T08:24:39Z</time>
      </trkpt>
      <trkpt lat="43.55326" lon="-0.91898">
        <ele>75</ele>
        <time>2021-05-08T08:24:40Z</time>
      </trkpt>
      <trkpt lat="43.55327" lon="-0.919">
        <ele>75</ele>
        <time>2021-05-08T08:24:41Z</time>
      </trkpt>
      <trkpt lat="43.55329" lon="-0.91901">
        <ele>76</ele>
        <time>2021-05-08T08:24:42Z</time>
      </trkpt>
      <trkpt lat="43.5533" lon="-0.91903">
        <ele>76</ele>
        <time>2021-05-08T08:24:43Z</time>
      </trkpt>
      <trkpt lat="43.55331" lon="-0.91905">
        <ele>76</ele>
        <time>2021-05-08T08:24:44Z</time>
      </trkpt>
      <trkpt lat="43.55333" lon="-0.91906">
        <ele>76</ele>
        <time>2021-05-08T08:24:45Z</time>
      </trkpt>
      <trkpt lat="43.55334" lon="-0.91908">
        <ele>76</ele>
        <time>2021-05-08T08:24:46Z</time>
      </trkpt>
      <trkpt lat="43.55335" lon="-0.9191">
        <ele>77</ele>
        <time>2021-05-08T08:24:47Z</time>
      </trkpt>
      <trkpt lat="43.55337" lon="-0.91912">
        <ele>77</ele>
        <time>2021-05-08T08:24:48Z</time>
      </trkpt>
      <trkpt lat="43.55338" lon="-0.91913">
        <ele>77</ele>
        <time>2021-05-08T08:24:49Z</time>
      </trkpt>
      <trkpt lat="43.55339" lon="-0.91915">
        <ele>77</ele>
        <time>2021-05-08T08:24:50Z</time>
      </trkpt>
      <trkpt lat="43.5534" lon="-0.91917">
        <ele>77</ele>
        <time>2021-05-08T08:24:51Z</time>
      </trkpt>
      <trkpt lat="43.55341" lon="-0.91919">
        <ele>78</ele>
        <time>2021-05-08T08:24:52Z</time>
      </trkpt>
      <trkpt lat="43.55342" lon="-0.91921">
        <ele>78</ele>
        <time>2021-05-08T08:24:53Z</time>
      </trkpt>
      <trkpt lat="43.55343" lon="-0.91923">
        <ele>78</ele>
        <time>2021-05-08T08:24:54Z</time>
      </trkpt>
      <trkpt lat="43.55344" lon="-0.91925">
        <ele>79</ele>
        <time>2021-05-08T08:24:55Z</time>
      </trkpt>
      <trkpt lat="43.55345" lon="-0.91926">
        <ele>79</ele>
        <time>2021-05-08T08:24:56Z</time>
      </trkpt>
      <trkpt lat="43.55346" lon="-0.91928">
        <ele>80</ele>
        <time>2021-05-08T08:24:57Z</time>
      </trkpt>
      <trkpt lat="43.55347" lon="-0.9193">
        <ele>80</ele>
        <time>2021-05-08T08:24:58Z</time>
      </trkpt>
      <trkpt lat="43.55348" lon="-0.91932">
        <ele>80</ele>
        <time>2021-05-08T08:24:59Z</time>
      </trkpt>
      <trkpt lat="43.55349" lon="-0.91934">
        <ele>81</ele>
        <time>2021-05-08T08:25:00Z</time>
      </trkpt>
      <trkpt lat="43.55349" lon="-0.91936">
        <ele>81</ele>
        <time>2021-05-08T08:25:01Z</time>
      </trkpt>
      <trkpt lat="43.55349" lon="-0.91937">
        <ele>82</ele>
        <time>2021-05-08T08:25:02Z</time>
      </trkpt>
      <trkpt lat="43.55348" lon="-0.9194">
        <ele>82</ele>
        <time>2021-05-08T08:25:03Z</time>
      </trkpt>
      <trkpt lat="43.55347" lon="-0.91942">
        <ele>82</ele>
        <time>2021-05-08T08:25:04Z</time>
      </trkpt>
      <trkpt lat="43.55346" lon="-0.91944">
        <ele>82</ele>
        <time>2021-05-08T08:25:05Z</time>
      </trkpt>
      <trkpt lat="43.55345" lon="-0.91946">
        <ele>82</ele>
        <time>2021-05-08T08:25:06Z</time>
      </trkpt>
      <trkpt lat="43.55343" lon="-0.91948">
        <ele>83</ele>
        <time>2021-05-08T08:25:07Z</time>
      </trkpt>
      <trkpt lat="43.55341" lon="-0.91951">
        <ele>83</ele>
        <time>2021-05-08T08:25:08Z</time>
      </trkpt>
      <trkpt lat="43.55339" lon="-0.91953">
        <ele>83</ele>
        <time>2021-05-08T08:25:09Z</time>
      </trkpt>
      <trkpt lat="43.55337" lon="-0.91955">
        <ele>83</ele>
        <time>2021-05-08T08:25:10Z</time>
      </trkpt>
      <trkpt lat="43.55335" lon="-0.91958">
        <ele>83</ele>
        <time>2021-05-08T08:25:11Z</time>
      </trkpt>
      <trkpt lat="43.55333" lon="-0.9196">
        <ele>84</ele>
        <time>2021-05-08T08:25:12Z</time>
      </trkpt>
      <trkpt lat="43.55332" lon="-0.91962">
        <ele>84</ele>
        <time>2021-05-08T08:25:13Z</time>
      </trkpt>
      <trkpt lat="43.5533" lon="-0.91965">
        <ele>84</ele>
        <time>2021-05-08T08:25:14Z</time>
      </trkpt>
      <trkpt lat="43.55328" lon="-0.91967">
        <ele>84</ele>
        <time>2021-05-08T08:25:15Z</time>
      </trkpt>
      <trkpt lat="43.55326" lon="-0.91969">
        <ele>84</ele>
        <time>2021-05-08T08:25:16Z</time>
      </trkpt>
      <trkpt lat="43.55324" lon="-0.91971">
        <ele>85</ele>
        <time>2021-05-08T08:25:17Z</time>
      </trkpt>
      <trkpt lat="43.55322" lon="-0.91974">
        <ele>85</ele>
        <time>2021-05-08T08:25:18Z</time>
      </trkpt>
      <trkpt lat="43.5532" lon="-0.91976">
        <ele>85</ele>
        <time>2021-05-08T08:25:19Z</time>
      </trkpt>
      <trkpt lat="43.55318" lon="-0.91978">
        <ele>85</ele>
        <time>2021-05-08T08:25:20Z</time>
      </trkpt>
      <trkpt lat="43.55316" lon="-0.9198">
        <ele>85</ele>
        <time>2021-05-08T08:25:21Z</time>
      </trkpt>
      <trkpt lat="43.55314" lon="-0.91983">
        <ele>85</ele>
        <time>2021-05-08T08:25:22Z</time>
      </trkpt>
      <trkpt lat="43.55312" lon="-0.91985">
        <ele>85</ele>
        <time>2021-05-08T08:25:23Z</time>
      </trkpt>
      <trkpt lat="43.55311" lon="-0.91987">
        <ele>85</ele>
        <time>2021-05-08T08:25:24Z</time>
      </trkpt>
      <trkpt lat="43.55309" lon="-0.91989">
        <ele>85</ele>
        <time>2021-05-08T08:25:25Z</time>
      </trkpt>
      <trkpt lat="43.55307" lon="-0.91992">
        <ele>85</ele>
        <time>2021-05-08T08:25:26Z</time>
      </trkpt>
      <trkpt lat="43.55305" lon="-0.91994">
        <ele>85</ele>
        <time>2021-05-08T08:25:27Z</time>
      </trkpt>
      <trkpt lat="43.55304" lon="-0.91996">
        <ele>84</ele>
        <time>2021-05-08T08:25:28Z</time>
      </trkpt>
      <trkpt lat="43.55302" lon="-0.91998">
        <ele>84</ele>
        <time>2021-05-08T08:25:29Z</time>
      </trkpt>
      <trkpt lat="43.553" lon="-0.92001">
        <ele>84</ele>
        <time>2021-05-08T08:25:30Z</time>
      </trkpt>
      <trkpt lat="43.55298" lon="-0.92003">
        <ele>84</ele>
        <time>2021-05-08T08:25:31Z</time>
      </trkpt>
      <trkpt lat="43.55296" lon="-0.92005">
        <ele>84</ele>
        <time>2021-05-08T08:25:32Z</time>
      </trkpt>
      <trkpt lat="43.55295" lon="-0.92007">
        <ele>84</ele>
        <time>2021-05-08T08:25:33Z</time>
      </trkpt>
      <trkpt lat="43.55293" lon="-0.9201">
        <ele>84</ele>
        <time>2021-05-08T08:25:34Z</time>
      </trkpt>
      <trkpt lat="43.55291" lon="-0.92012">
        <ele>84</ele>
        <time>2021-05-08T08:25:35Z</time>
      </trkpt>
      <trkpt lat="43.55289" lon="-0.92014">
        <ele>84</ele>
        <time>2021-05-08T08:25:36Z</time>
      </trkpt>
      <trkpt lat="43.55288" lon="-0.92016">
        <ele>84</ele>
        <time>2021-05-08T08:25:37Z</time>
      </trkpt>
      <trkpt lat="43.55286" lon="-0.92018">
        <ele>84</ele>
        <time>2021-05-08T08:25:38Z</time>
      </trkpt>
      <trkpt lat="43.55285" lon="-0.92018">
        <ele>84</ele>
        <time>2021-05-08T08:25:39Z</time>
      </trkpt>
      <trkpt lat="43.55284" lon="-0.92019">
        <ele>84</ele>
        <time>2021-05-08T08:25:40Z</time>
      </trkpt>
      <trkpt lat="43.55282" lon="-0.92019">
        <ele>84</ele>
        <time>2021-05-08T08:25:41Z</time>
      </trkpt>
      <trkpt lat="43.55281" lon="-0.92019">
        <ele>84</ele>
        <time>2021-05-08T08:25:42Z</time>
      </trkpt>
      <trkpt lat="43.55279" lon="-0.92017">
        <ele>83</ele>
        <time>2021-05-08T08:25:43Z</time>
      </trkpt>
      <trkpt lat="43.55278" lon="-0.92015">
        <ele>83</ele>
        <time>2021-05-08T08:25:44Z</time>
      </trkpt>
      <trkpt lat="43.55276" lon="-0.92013">
        <ele>83</ele>
        <time>2021-05-08T08:25:45Z</time>
      </trkpt>
      <trkpt lat="43.55274" lon="-0.92011">
        <ele>83</ele>
        <time>2021-05-08T08:25:46Z</time>
      </trkpt>
      <trkpt lat="43.55272" lon="-0.92009">
        <ele>83</ele>
        <time>2021-05-08T08:25:47Z</time>
      </trkpt>
      <trkpt lat="43.5527" lon="-0.92007">
        <ele>82</ele>
        <time>2021-05-08T08:25:48Z</time>
      </trkpt>
      <trkpt lat="43.55267" lon="-0.92005">
        <ele>82</ele>
        <time>2021-05-08T08:25:49Z</time>
      </trkpt>
      <trkpt lat="43.55264" lon="-0.92003">
        <ele>82</ele>
        <time>2021-05-08T08:25:50Z</time>
      </trkpt>
      <trkpt lat="43.55263" lon="-0.92001">
        <ele>81</ele>
        <time>2021-05-08T08:26:13Z</time>
      </trkpt>
      <trkpt lat="43.55263" lon="-0.92">
        <ele>80</ele>
        <time>2021-05-08T08:26:14Z</time>
      </trkpt>
      <trkpt lat="43.55263" lon="-0.91999">
        <ele>79</ele>
        <time>2021-05-08T08:26:15Z</time>
      </trkpt>
      <trkpt lat="43.55262" lon="-0.91998">
        <ele>78</ele>
        <time>2021-05-08T08:26:16Z</time>
      </trkpt>
      <trkpt lat="43.55261" lon="-0.91997">
        <ele>77</ele>
        <time>2021-05-08T08:26:17Z</time>
      </trkpt>
      <trkpt lat="43.5526" lon="-0.91995">
        <ele>77</ele>
        <time>2021-05-08T08:26:18Z</time>
      </trkpt>
      <trkpt lat="43.55259" lon="-0.91993">
        <ele>77</ele>
        <time>2021-05-08T08:26:19Z</time>
      </trkpt>
      <trkpt lat="43.55256" lon="-0.91991">
        <ele>77</ele>
        <time>2021-05-08T08:26:20Z</time>
      </trkpt>
      <trkpt lat="43.55254" lon="-0.91988">
        <ele>77</ele>
        <time>2021-05-08T08:26:21Z</time>
      </trkpt>
      <trkpt lat="43.55252" lon="-0.91986">
        <ele>77</ele>
        <time>2021-05-08T08:26:22Z</time>
      </trkpt>
      <trkpt lat="43.5525" lon="-0.91984">
        <ele>77</ele>
        <time>2021-05-08T08:26:23Z</time>
      </trkpt>
      <trkpt lat="43.55247" lon="-0.91981">
        <ele>77</ele>
        <time>2021-05-08T08:26:24Z</time>
      </trkpt>
      <trkpt lat="43.55245" lon="-0.91979">
        <ele>77</ele>
        <time>2021-05-08T08:26:25Z</time>
      </trkpt>
      <trkpt lat="43.55242" lon="-0.91977">
        <ele>77</ele>
        <time>2021-05-08T08:26:26Z</time>
      </trkpt>
      <trkpt lat="43.5524" lon="-0.91974">
        <ele>77</ele>
        <time>2021-05-08T08:26:27Z</time>
      </trkpt>
      <trkpt lat="43.55237" lon="-0.91972">
        <ele>76</ele>
        <time>2021-05-08T08:26:28Z</time>
      </trkpt>
      <trkpt lat="43.55235" lon="-0.91969">
        <ele>76</ele>
        <time>2021-05-08T08:26:29Z</time>
      </trkpt>
      <trkpt lat="43.55233" lon="-0.91967">
        <ele>76</ele>
        <time>2021-05-08T08:26:30Z</time>
      </trkpt>
      <trkpt lat="43.5523" lon="-0.91965">
        <ele>76</ele>
        <time>2021-05-08T08:26:31Z</time>
      </trkpt>
      <trkpt lat="43.55228" lon="-0.91963">
        <ele>76</ele>
        <time>2021-05-08T08:26:32Z</time>
      </trkpt>
      <trkpt lat="43.55226" lon="-0.9196">
        <ele>76</ele>
        <time>2021-05-08T08:26:33Z</time>
      </trkpt>
      <trkpt lat="43.55224" lon="-0.91958">
        <ele>76</ele>
        <time>2021-05-08T08:26:34Z</time>
      </trkpt>
      <trkpt lat="43.55222" lon="-0.91956">
        <ele>76</ele>
        <time>2021-05-08T08:26:35Z</time>
      </trkpt>
      <trkpt lat="43.5522" lon="-0.91954">
        <ele>76</ele>
        <time>2021-05-08T08:26:36Z</time>
      </trkpt>
      <trkpt lat="43.55218" lon="-0.91952">
        <ele>76</ele>
        <time>2021-05-08T08:26:37Z</time>
      </trkpt>
      <trkpt lat="43.55216" lon="-0.9195">
        <ele>75</ele>
        <time>2021-05-08T08:26:38Z</time>
      </trkpt>
      <trkpt lat="43.55215" lon="-0.91948">
        <ele>75</ele>
        <time>2021-05-08T08:26:39Z</time>
      </trkpt>
      <trkpt lat="43.55213" lon="-0.91946">
        <ele>75</ele>
        <time>2021-05-08T08:26:40Z</time>
      </trkpt>
      <trkpt lat="43.55211" lon="-0.91944">
        <ele>75</ele>
        <time>2021-05-08T08:26:41Z</time>
      </trkpt>
      <trkpt lat="43.55209" lon="-0.91942">
        <ele>75</ele>
        <time>2021-05-08T08:26:42Z</time>
      </trkpt>
      <trkpt lat="43.55207" lon="-0.9194">
        <ele>75</ele>
        <time>2021-05-08T08:26:43Z</time>
      </trkpt>
      <trkpt lat="43.55205" lon="-0.91938">
        <ele>75</ele>
        <time>2021-05-08T08:26:44Z</time>
      </trkpt>
      <trkpt lat="43.55203" lon="-0.91936">
        <ele>75</ele>
        <time>2021-05-08T08:26:45Z</time>
      </trkpt>
      <trkpt lat="43.55201" lon="-0.91934">
        <ele>75</ele>
        <time>2021-05-08T08:26:46Z</time>
      </trkpt>
      <trkpt lat="43.55199" lon="-0.91932">
        <ele>75</ele>
        <time>2021-05-08T08:26:47Z</time>
      </trkpt>
      <trkpt lat="43.55197" lon="-0.91929">
        <ele>74</ele>
        <time>2021-05-08T08:26:48Z</time>
      </trkpt>
      <trkpt lat="43.55195" lon="-0.91927">
        <ele>74</ele>
        <time>2021-05-08T08:26:49Z</time>
      </trkpt>
      <trkpt lat="43.55193" lon="-0.91925">
        <ele>74</ele>
        <time>2021-05-08T08:26:50Z</time>
      </trkpt>
      <trkpt lat="43.55191" lon="-0.91922">
        <ele>74</ele>
        <time>2021-05-08T08:26:51Z</time>
      </trkpt>
      <trkpt lat="43.55189" lon="-0.9192">
        <ele>74</ele>
        <time>2021-05-08T08:26:52Z</time>
      </trkpt>
      <trkpt lat="43.55186" lon="-0.91918">
        <ele>73</ele>
        <time>2021-05-08T08:26:53Z</time>
      </trkpt>
      <trkpt lat="43.55184" lon="-0.91915">
        <ele>73</ele>
        <time>2021-05-08T08:26:54Z</time>
      </trkpt>
      <trkpt lat="43.55182" lon="-0.91913">
        <ele>73</ele>
        <time>2021-05-08T08:26:55Z</time>
      </trkpt>
      <trkpt lat="43.5518" lon="-0.91911">
        <ele>73</ele>
        <time>2021-05-08T08:26:56Z</time>
      </trkpt>
      <trkpt lat="43.55178" lon="-0.91908">
        <ele>73</ele>
        <time>2021-05-08T08:26:57Z</time>
      </trkpt>
      <trkpt lat="43.55176" lon="-0.91906">
        <ele>72</ele>
        <time>2021-05-08T08:26:58Z</time>
      </trkpt>
      <trkpt lat="43.55174" lon="-0.91903">
        <ele>72</ele>
        <time>2021-05-08T08:26:59Z</time>
      </trkpt>
      <trkpt lat="43.55172" lon="-0.91901">
        <ele>72</ele>
        <time>2021-05-08T08:27:00Z</time>
      </trkpt>
      <trkpt lat="43.55169" lon="-0.91899">
        <ele>72</ele>
        <time>2021-05-08T08:27:01Z</time>
      </trkpt>
      <trkpt lat="43.55167" lon="-0.91896">
        <ele>72</ele>
        <time>2021-05-08T08:27:02Z</time>
      </trkpt>
      <trkpt lat="43.55165" lon="-0.91894">
        <ele>71</ele>
        <time>2021-05-08T08:27:03Z</time>
      </trkpt>
      <trkpt lat="43.55163" lon="-0.91892">
        <ele>71</ele>
        <time>2021-05-08T08:27:04Z</time>
      </trkpt>
      <trkpt lat="43.55161" lon="-0.9189">
        <ele>71</ele>
        <time>2021-05-08T08:27:05Z</time>
      </trkpt>
      <trkpt lat="43.55159" lon="-0.91888">
        <ele>71</ele>
        <time>2021-05-08T08:27:06Z</time>
      </trkpt>
      <trkpt lat="43.55157" lon="-0.91886">
        <ele>71</ele>
        <time>2021-05-08T08:27:07Z</time>
      </trkpt>
      <trkpt lat="43.55155" lon="-0.91884">
        <ele>70</ele>
        <time>2021-05-08T08:27:08Z</time>
      </trkpt>
      <trkpt lat="43.55153" lon="-0.91881">
        <ele>70</ele>
        <time>2021-05-08T08:27:09Z</time>
      </trkpt>
      <trkpt lat="43.55151" lon="-0.91879">
        <ele>70</ele>
        <time>2021-05-08T08:27:10Z</time>
      </trkpt>
      <trkpt lat="43.55148" lon="-0.91877">
        <ele>70</ele>
        <time>2021-05-08T08:27:11Z</time>
      </trkpt>
      <trkpt lat="43.55146" lon="-0.91875">
        <ele>70</ele>
        <time>2021-05-08T08:27:12Z</time>
      </trkpt>
      <trkpt lat="43.55144" lon="-0.91873">
        <ele>69</ele>
        <time>2021-05-08T08:27:13Z</time>
      </trkpt>
      <trkpt lat="43.55142" lon="-0.91871">
        <ele>69</ele>
        <time>2021-05-08T08:27:14Z</time>
      </trkpt>
      <trkpt lat="43.5514" lon="-0.91869">
        <ele>69</ele>
        <time>2021-05-08T08:27:15Z</time>
      </trkpt>
      <trkpt lat="43.55138" lon="-0.91866">
        <ele>69</ele>
        <time>2021-05-08T08:27:16Z</time>
      </trkpt>
      <trkpt lat="43.55136" lon="-0.91864">
        <ele>69</ele>
        <time>2021-05-08T08:27:17Z</time>
      </trkpt>
      <trkpt lat="43.55134" lon="-0.91862">
        <ele>68</ele>
        <time>2021-05-08T08:27:18Z</time>
      </trkpt>
      <trkpt lat="43.55133" lon="-0.9186">
        <ele>68</ele>
        <time>2021-05-08T08:27:19Z</time>
      </trkpt>
      <trkpt lat="43.55131" lon="-0.91858">
        <ele>68</ele>
        <time>2021-05-08T08:27:20Z</time>
      </trkpt>
      <trkpt lat="43.5513" lon="-0.91856">
        <ele>68</ele>
        <time>2021-05-08T08:27:21Z</time>
      </trkpt>
      <trkpt lat="43.55128" lon="-0.91854">
        <ele>68</ele>
        <time>2021-05-08T08:27:22Z</time>
      </trkpt>
      <trkpt lat="43.55126" lon="-0.91853">
        <ele>67</ele>
        <time>2021-05-08T08:27:23Z</time>
      </trkpt>
      <trkpt lat="43.55125" lon="-0.91854">
        <ele>67</ele>
        <time>2021-05-08T08:27:24Z</time>
      </trkpt>
      <trkpt lat="43.55123" lon="-0.91854">
        <ele>67</ele>
        <time>2021-05-08T08:27:25Z</time>
      </trkpt>
      <trkpt lat="43.55122" lon="-0.91856">
        <ele>67</ele>
        <time>2021-05-08T08:27:26Z</time>
      </trkpt>
      <trkpt lat="43.5512" lon="-0.91858">
        <ele>67</ele>
        <time>2021-05-08T08:27:27Z</time>
      </trkpt>
      <trkpt lat="43.55119" lon="-0.9186">
        <ele>67</ele>
        <time>2021-05-08T08:27:28Z</time>
      </trkpt>
      <trkpt lat="43.55118" lon="-0.91863">
        <ele>67</ele>
        <time>2021-05-08T08:27:29Z</time>
      </trkpt>
      <trkpt lat="43.55117" lon="-0.91866">
        <ele>67</ele>
        <time>2021-05-08T08:27:30Z</time>
      </trkpt>
      <trkpt lat="43.55116" lon="-0.91869">
        <ele>67</ele>
        <time>2021-05-08T08:27:31Z</time>
      </trkpt>
      <trkpt lat="43.55114" lon="-0.91871">
        <ele>67</ele>
        <time>2021-05-08T08:27:32Z</time>
      </trkpt>
      <trkpt lat="43.55113" lon="-0.91873">
        <ele>67</ele>
        <time>2021-05-08T08:27:33Z</time>
      </trkpt>
      <trkpt lat="43.55111" lon="-0.91874">
        <ele>67</ele>
        <time>2021-05-08T08:27:34Z</time>
      </trkpt>
      <trkpt lat="43.55109" lon="-0.91875">
        <ele>67</ele>
        <time>2021-05-08T08:27:35Z</time>
      </trkpt>
      <trkpt lat="43.55106" lon="-0.91875">
        <ele>67</ele>
        <time>2021-05-08T08:27:36Z</time>
      </trkpt>
      <trkpt lat="43.55104" lon="-0.91875">
        <ele>67</ele>
        <time>2021-05-08T08:27:37Z</time>
      </trkpt>
      <trkpt lat="43.55102" lon="-0.91874">
        <ele>66</ele>
        <time>2021-05-08T08:27:38Z</time>
      </trkpt>
      <trkpt lat="43.551" lon="-0.91873">
        <ele>66</ele>
        <time>2021-05-08T08:27:39Z</time>
      </trkpt>
      <trkpt lat="43.55098" lon="-0.91871">
        <ele>66</ele>
        <time>2021-05-08T08:27:40Z</time>
      </trkpt>
      <trkpt lat="43.55096" lon="-0.9187">
        <ele>66</ele>
        <time>2021-05-08T08:27:41Z</time>
      </trkpt>
      <trkpt lat="43.55094" lon="-0.91868">
        <ele>66</ele>
        <time>2021-05-08T08:27:42Z</time>
      </trkpt>
      <trkpt lat="43.55092" lon="-0.91866">
        <ele>65</ele>
        <time>2021-05-08T08:27:43Z</time>
      </trkpt>
      <trkpt lat="43.5509" lon="-0.91864">
        <ele>65</ele>
        <time>2021-05-08T08:27:44Z</time>
      </trkpt>
      <trkpt lat="43.55087" lon="-0.91862">
        <ele>65</ele>
        <time>2021-05-08T08:27:45Z</time>
      </trkpt>
      <trkpt lat="43.55085" lon="-0.9186">
        <ele>65</ele>
        <time>2021-05-08T08:27:46Z</time>
      </trkpt>
      <trkpt lat="43.55083" lon="-0.91857">
        <ele>65</ele>
        <time>2021-05-08T08:27:47Z</time>
      </trkpt>
      <trkpt lat="43.55081" lon="-0.91854">
        <ele>65</ele>
        <time>2021-05-08T08:27:48Z</time>
      </trkpt>
      <trkpt lat="43.55079" lon="-0.91852">
        <ele>65</ele>
        <time>2021-05-08T08:27:49Z</time>
      </trkpt>
      <trkpt lat="43.55077" lon="-0.91849">
        <ele>65</ele>
        <time>2021-05-08T08:27:50Z</time>
      </trkpt>
      <trkpt lat="43.55074" lon="-0.91847">
        <ele>65</ele>
        <time>2021-05-08T08:27:51Z</time>
      </trkpt>
      <trkpt lat="43.55072" lon="-0.91844">
        <ele>65</ele>
        <time>2021-05-08T08:27:52Z</time>
      </trkpt>
      <trkpt lat="43.55069" lon="-0.91842">
        <ele>64</ele>
        <time>2021-05-08T08:27:53Z</time>
      </trkpt>
      <trkpt lat="43.55067" lon="-0.91841">
        <ele>64</ele>
        <time>2021-05-08T08:27:54Z</time>
      </trkpt>
      <trkpt lat="43.55064" lon="-0.91839">
        <ele>64</ele>
        <time>2021-05-08T08:27:55Z</time>
      </trkpt>
      <trkpt lat="43.55062" lon="-0.91837">
        <ele>64</ele>
        <time>2021-05-08T08:27:56Z</time>
      </trkpt>
      <trkpt lat="43.5506" lon="-0.91835">
        <ele>64</ele>
        <time>2021-05-08T08:27:57Z</time>
      </trkpt>
      <trkpt lat="43.55058" lon="-0.91833">
        <ele>63</ele>
        <time>2021-05-08T08:27:58Z</time>
      </trkpt>
      <trkpt lat="43.55056" lon="-0.9183">
        <ele>63</ele>
        <time>2021-05-08T08:27:59Z</time>
      </trkpt>
      <trkpt lat="43.55054" lon="-0.91827">
        <ele>63</ele>
        <time>2021-05-08T08:28:00Z</time>
      </trkpt>
      <trkpt lat="43.55053" lon="-0.91824">
        <ele>63</ele>
        <time>2021-05-08T08:28:01Z</time>
      </trkpt>
      <trkpt lat="43.55051" lon="-0.91822">
        <ele>63</ele>
        <time>2021-05-08T08:28:02Z</time>
      </trkpt>
      <trkpt lat="43.55049" lon="-0.91819">
        <ele>62</ele>
        <time>2021-05-08T08:28:03Z</time>
      </trkpt>
      <trkpt lat="43.55046" lon="-0.91817">
        <ele>62</ele>
        <time>2021-05-08T08:28:04Z</time>
      </trkpt>
      <trkpt lat="43.55044" lon="-0.91815">
        <ele>62</ele>
        <time>2021-05-08T08:28:05Z</time>
      </trkpt>
      <trkpt lat="43.55041" lon="-0.91813">
        <ele>62</ele>
        <time>2021-05-08T08:28:06Z</time>
      </trkpt>
      <trkpt lat="43.55038" lon="-0.91811">
        <ele>62</ele>
        <time>2021-05-08T08:28:07Z</time>
      </trkpt>
      <trkpt lat="43.55035" lon="-0.9181">
        <ele>62</ele>
        <time>2021-05-08T08:28:08Z</time>
      </trkpt>
      <trkpt lat="43.55032" lon="-0.91809">
        <ele>62</ele>
        <time>2021-05-08T08:28:09Z</time>
      </trkpt>
      <trkpt lat="43.5503" lon="-0.91808">
        <ele>62</ele>
        <time>2021-05-08T08:28:10Z</time>
      </trkpt>
      <trkpt lat="43.55027" lon="-0.91807">
        <ele>62</ele>
        <time>2021-05-08T08:28:11Z</time>
      </trkpt>
      <trkpt lat="43.55024" lon="-0.91805">
        <ele>62</ele>
        <time>2021-05-08T08:28:12Z</time>
      </trkpt>
      <trkpt lat="43.55022" lon="-0.91804">
        <ele>61</ele>
        <time>2021-05-08T08:28:13Z</time>
      </trkpt>
      <trkpt lat="43.55019" lon="-0.91802">
        <ele>61</ele>
        <time>2021-05-08T08:28:14Z</time>
      </trkpt>
      <trkpt lat="43.55017" lon="-0.918">
        <ele>61</ele>
        <time>2021-05-08T08:28:15Z</time>
      </trkpt>
      <trkpt lat="43.55014" lon="-0.91798">
        <ele>61</ele>
        <time>2021-05-08T08:28:16Z</time>
      </trkpt>
      <trkpt lat="43.55012" lon="-0.91796">
        <ele>61</ele>
        <time>2021-05-08T08:28:17Z</time>
      </trkpt>
      <trkpt lat="43.5501" lon="-0.91794">
        <ele>60</ele>
        <time>2021-05-08T08:28:18Z</time>
      </trkpt>
      <trkpt lat="43.55007" lon="-0.91792">
        <ele>60</ele>
        <time>2021-05-08T08:28:19Z</time>
      </trkpt>
      <trkpt lat="43.55005" lon="-0.9179">
        <ele>59</ele>
        <time>2021-05-08T08:28:20Z</time>
      </trkpt>
      <trkpt lat="43.55002" lon="-0.91789">
        <ele>59</ele>
        <time>2021-05-08T08:28:21Z</time>
      </trkpt>
      <trkpt lat="43.55" lon="-0.91787">
        <ele>59</ele>
        <time>2021-05-08T08:28:22Z</time>
      </trkpt>
      <trkpt lat="43.54998" lon="-0.91785">
        <ele>58</ele>
        <time>2021-05-08T08:28:23Z</time>
      </trkpt>
      <trkpt lat="43.54995" lon="-0.91785">
        <ele>58</ele>
        <time>2021-05-08T08:28:24Z</time>
      </trkpt>
      <trkpt lat="43.54993" lon="-0.91784">
        <ele>58</ele>
        <time>2021-05-08T08:28:25Z</time>
      </trkpt>
      <trkpt lat="43.5499" lon="-0.91784">
        <ele>58</ele>
        <time>2021-05-08T08:28:26Z</time>
      </trkpt>
      <trkpt lat="43.54988" lon="-0.91784">
        <ele>58</ele>
        <time>2021-05-08T08:28:27Z</time>
      </trkpt>
      <trkpt lat="43.54986" lon="-0.91784">
        <ele>57</ele>
        <time>2021-05-08T08:28:28Z</time>
      </trkpt>
      <trkpt lat="43.54983" lon="-0.91785">
        <ele>57</ele>
        <time>2021-05-08T08:28:29Z</time>
      </trkpt>
      <trkpt lat="43.54982" lon="-0.91787">
        <ele>57</ele>
        <time>2021-05-08T08:28:30Z</time>
      </trkpt>
      <trkpt lat="43.5498" lon="-0.91789">
        <ele>57</ele>
        <time>2021-05-08T08:28:31Z</time>
      </trkpt>
      <trkpt lat="43.54979" lon="-0.91792">
        <ele>57</ele>
        <time>2021-05-08T08:28:32Z</time>
      </trkpt>
      <trkpt lat="43.54978" lon="-0.91794">
        <ele>57</ele>
        <time>2021-05-08T08:28:33Z</time>
      </trkpt>
      <trkpt lat="43.54978" lon="-0.91798">
        <ele>57</ele>
        <time>2021-05-08T08:28:34Z</time>
      </trkpt>
      <trkpt lat="43.54977" lon="-0.91801">
        <ele>57</ele>
        <time>2021-05-08T08:28:35Z</time>
      </trkpt>
      <trkpt lat="43.54977" lon="-0.91804">
        <ele>57</ele>
        <time>2021-05-08T08:28:36Z</time>
      </trkpt>
      <trkpt lat="43.54977" lon="-0.91808">
        <ele>57</ele>
        <time>2021-05-08T08:28:37Z</time>
      </trkpt>
      <trkpt lat="43.54977" lon="-0.91811">
        <ele>57</ele>
        <time>2021-05-08T08:28:38Z</time>
      </trkpt>
      <trkpt lat="43.54977" lon="-0.91815">
        <ele>57</ele>
        <time>2021-05-08T08:28:39Z</time>
      </trkpt>
      <trkpt lat="43.54977" lon="-0.91818">
        <ele>57</ele>
        <time>2021-05-08T08:28:40Z</time>
      </trkpt>
      <trkpt lat="43.54977" lon="-0.91822">
        <ele>57</ele>
        <time>2021-05-08T08:28:41Z</time>
      </trkpt>
      <trkpt lat="43.54976" lon="-0.91825">
        <ele>58</ele>
        <time>2021-05-08T08:28:42Z</time>
      </trkpt>
      <trkpt lat="43.54975" lon="-0.91828">
        <ele>57</ele>
        <time>2021-05-08T08:28:43Z</time>
      </trkpt>
      <trkpt lat="43.54974" lon="-0.91831">
        <ele>57</ele>
        <time>2021-05-08T08:28:44Z</time>
      </trkpt>
      <trkpt lat="43.54973" lon="-0.91834">
        <ele>57</ele>
        <time>2021-05-08T08:28:45Z</time>
      </trkpt>
      <trkpt lat="43.54971" lon="-0.91836">
        <ele>57</ele>
        <time>2021-05-08T08:28:46Z</time>
      </trkpt>
      <trkpt lat="43.5497" lon="-0.91839">
        <ele>57</ele>
        <time>2021-05-08T08:28:47Z</time>
      </trkpt>
      <trkpt lat="43.54968" lon="-0.91841">
        <ele>57</ele>
        <time>2021-05-08T08:28:48Z</time>
      </trkpt>
      <trkpt lat="43.54966" lon="-0.91843">
        <ele>57</ele>
        <time>2021-05-08T08:28:49Z</time>
      </trkpt>
      <trkpt lat="43.54964" lon="-0.91845">
        <ele>57</ele>
        <time>2021-05-08T08:28:50Z</time>
      </trkpt>
      <trkpt lat="43.54962" lon="-0.91847">
        <ele>57</ele>
        <time>2021-05-08T08:28:51Z</time>
      </trkpt>
      <trkpt lat="43.54959" lon="-0.9185">
        <ele>57</ele>
        <time>2021-05-08T08:28:52Z</time>
      </trkpt>
      <trkpt lat="43.54957" lon="-0.91852">
        <ele>56</ele>
        <time>2021-05-08T08:28:53Z</time>
      </trkpt>
      <trkpt lat="43.54955" lon="-0.91855">
        <ele>56</ele>
        <time>2021-05-08T08:28:54Z</time>
      </trkpt>
      <trkpt lat="43.54953" lon="-0.91858">
        <ele>56</ele>
        <time>2021-05-08T08:28:55Z</time>
      </trkpt>
      <trkpt lat="43.54952" lon="-0.91861">
        <ele>56</ele>
        <time>2021-05-08T08:28:56Z</time>
      </trkpt>
      <trkpt lat="43.5495" lon="-0.91864">
        <ele>56</ele>
        <time>2021-05-08T08:28:57Z</time>
      </trkpt>
      <trkpt lat="43.54948" lon="-0.91867">
        <ele>56</ele>
        <time>2021-05-08T08:28:58Z</time>
      </trkpt>
      <trkpt lat="43.54947" lon="-0.9187">
        <ele>56</ele>
        <time>2021-05-08T08:28:59Z</time>
      </trkpt>
      <trkpt lat="43.54945" lon="-0.91873">
        <ele>56</ele>
        <time>2021-05-08T08:29:00Z</time>
      </trkpt>
      <trkpt lat="43.54944" lon="-0.91876">
        <ele>56</ele>
        <time>2021-05-08T08:29:01Z</time>
      </trkpt>
      <trkpt lat="43.54943" lon="-0.9188">
        <ele>56</ele>
        <time>2021-05-08T08:29:02Z</time>
      </trkpt>
      <trkpt lat="43.54941" lon="-0.91883">
        <ele>56</ele>
        <time>2021-05-08T08:29:03Z</time>
      </trkpt>
      <trkpt lat="43.5494" lon="-0.91886">
        <ele>56</ele>
        <time>2021-05-08T08:29:04Z</time>
      </trkpt>
      <trkpt lat="43.54938" lon="-0.91889">
        <ele>56</ele>
        <time>2021-05-08T08:29:05Z</time>
      </trkpt>
      <trkpt lat="43.54936" lon="-0.91892">
        <ele>56</ele>
        <time>2021-05-08T08:29:06Z</time>
      </trkpt>
      <trkpt lat="43.54935" lon="-0.91895">
        <ele>56</ele>
        <time>2021-05-08T08:29:07Z</time>
      </trkpt>
      <trkpt lat="43.54933" lon="-0.91898">
        <ele>56</ele>
        <time>2021-05-08T08:29:08Z</time>
      </trkpt>
      <trkpt lat="43.54931" lon="-0.919">
        <ele>56</ele>
        <time>2021-05-08T08:29:09Z</time>
      </trkpt>
      <trkpt lat="43.54929" lon="-0.91902">
        <ele>56</ele>
        <time>2021-05-08T08:29:10Z</time>
      </trkpt>
      <trkpt lat="43.54927" lon="-0.91905">
        <ele>56</ele>
        <time>2021-05-08T08:29:11Z</time>
      </trkpt>
      <trkpt lat="43.54925" lon="-0.91906">
        <ele>56</ele>
        <time>2021-05-08T08:29:12Z</time>
      </trkpt>
      <trkpt lat="43.54923" lon="-0.91908">
        <ele>56</ele>
        <time>2021-05-08T08:29:13Z</time>
      </trkpt>
      <trkpt lat="43.54921" lon="-0.9191">
        <ele>56</ele>
        <time>2021-05-08T08:29:14Z</time>
      </trkpt>
      <trkpt lat="43.54918" lon="-0.91912">
        <ele>56</ele>
        <time>2021-05-08T08:29:15Z</time>
      </trkpt>
      <trkpt lat="43.54916" lon="-0.91914">
        <ele>56</ele>
        <time>2021-05-08T08:29:16Z</time>
      </trkpt>
      <trkpt lat="43.54914" lon="-0.91915">
        <ele>57</ele>
        <time>2021-05-08T08:29:17Z</time>
      </trkpt>
      <trkpt lat="43.54912" lon="-0.91918">
        <ele>57</ele>
        <time>2021-05-08T08:29:18Z</time>
      </trkpt>
      <trkpt lat="43.54911" lon="-0.9192">
        <ele>57</ele>
        <time>2021-05-08T08:29:19Z</time>
      </trkpt>
      <trkpt lat="43.54909" lon="-0.91923">
        <ele>57</ele>
        <time>2021-05-08T08:29:20Z</time>
      </trkpt>
      <trkpt lat="43.54908" lon="-0.91925">
        <ele>57</ele>
        <time>2021-05-08T08:29:21Z</time>
      </trkpt>
      <trkpt lat="43.54906" lon="-0.91928">
        <ele>57</ele>
        <time>2021-05-08T08:29:22Z</time>
      </trkpt>
      <trkpt lat="43.54905" lon="-0.91931">
        <ele>57</ele>
        <time>2021-05-08T08:29:23Z</time>
      </trkpt>
      <trkpt lat="43.54904" lon="-0.91935">
        <ele>57</ele>
        <time>2021-05-08T08:29:24Z</time>
      </trkpt>
      <trkpt lat="43.54902" lon="-0.91938">
        <ele>57</ele>
        <time>2021-05-08T08:29:25Z</time>
      </trkpt>
      <trkpt lat="43.54901" lon="-0.91941">
        <ele>57</ele>
        <time>2021-05-08T08:29:26Z</time>
      </trkpt>
      <trkpt lat="43.549" lon="-0.91945">
        <ele>57</ele>
        <time>2021-05-08T08:29:27Z</time>
      </trkpt>
      <trkpt lat="43.54899" lon="-0.91949">
        <ele>57</ele>
        <time>2021-05-08T08:29:28Z</time>
      </trkpt>
      <trkpt lat="43.54898" lon="-0.91952">
        <ele>57</ele>
        <time>2021-05-08T08:29:29Z</time>
      </trkpt>
      <trkpt lat="43.54897" lon="-0.91956">
        <ele>57</ele>
        <time>2021-05-08T08:29:30Z</time>
      </trkpt>
      <trkpt lat="43.54896" lon="-0.9196">
        <ele>57</ele>
        <time>2021-05-08T08:29:31Z</time>
      </trkpt>
      <trkpt lat="43.54895" lon="-0.91963">
        <ele>57</ele>
        <time>2021-05-08T08:29:32Z</time>
      </trkpt>
      <trkpt lat="43.54895" lon="-0.91967">
        <ele>57</ele>
        <time>2021-05-08T08:29:33Z</time>
      </trkpt>
      <trkpt lat="43.54894" lon="-0.91971">
        <ele>57</ele>
        <time>2021-05-08T08:29:34Z</time>
      </trkpt>
      <trkpt lat="43.54894" lon="-0.91975">
        <ele>57</ele>
        <time>2021-05-08T08:29:35Z</time>
      </trkpt>
      <trkpt lat="43.54894" lon="-0.91979">
        <ele>57</ele>
        <time>2021-05-08T08:29:36Z</time>
      </trkpt>
      <trkpt lat="43.54894" lon="-0.91983">
        <ele>57</ele>
        <time>2021-05-08T08:29:37Z</time>
      </trkpt>
      <trkpt lat="43.54894" lon="-0.91986">
        <ele>56</ele>
        <time>2021-05-08T08:29:38Z</time>
      </trkpt>
      <trkpt lat="43.54894" lon="-0.9199">
        <ele>56</ele>
        <time>2021-05-08T08:29:39Z</time>
      </trkpt>
      <trkpt lat="43.54893" lon="-0.91992">
        <ele>56</ele>
        <time>2021-05-08T08:29:40Z</time>
      </trkpt>
      <trkpt lat="43.54892" lon="-0.91994">
        <ele>56</ele>
        <time>2021-05-08T08:29:41Z</time>
      </trkpt>
      <trkpt lat="43.54891" lon="-0.91994">
        <ele>56</ele>
        <time>2021-05-08T08:29:42Z</time>
      </trkpt>
      <trkpt lat="43.54889" lon="-0.91995">
        <ele>56</ele>
        <time>2021-05-08T08:29:43Z</time>
      </trkpt>
      <trkpt lat="43.54886" lon="-0.91994">
        <ele>56</ele>
        <time>2021-05-08T08:29:44Z</time>
      </trkpt>
      <trkpt lat="43.54884" lon="-0.91993">
        <ele>56</ele>
        <time>2021-05-08T08:29:45Z</time>
      </trkpt>
      <trkpt lat="43.54881" lon="-0.91992">
        <ele>56</ele>
        <time>2021-05-08T08:29:46Z</time>
      </trkpt>
      <trkpt lat="43.54878" lon="-0.91991">
        <ele>56</ele>
        <time>2021-05-08T08:29:47Z</time>
      </trkpt>
      <trkpt lat="43.54876" lon="-0.91989">
        <ele>56</ele>
        <time>2021-05-08T08:29:48Z</time>
      </trkpt>
      <trkpt lat="43.54873" lon="-0.91988">
        <ele>56</ele>
        <time>2021-05-08T08:29:49Z</time>
      </trkpt>
      <trkpt lat="43.5487" lon="-0.91987">
        <ele>56</ele>
        <time>2021-05-08T08:29:50Z</time>
      </trkpt>
      <trkpt lat="43.54868" lon="-0.91986">
        <ele>56</ele>
        <time>2021-05-08T08:29:51Z</time>
      </trkpt>
      <trkpt lat="43.54865" lon="-0.91985">
        <ele>56</ele>
        <time>2021-05-08T08:29:52Z</time>
      </trkpt>
      <trkpt lat="43.54862" lon="-0.91984">
        <ele>55</ele>
        <time>2021-05-08T08:29:53Z</time>
      </trkpt>
      <trkpt lat="43.54859" lon="-0.91983">
        <ele>55</ele>
        <time>2021-05-08T08:29:54Z</time>
      </trkpt>
      <trkpt lat="43.54857" lon="-0.91982">
        <ele>55</ele>
        <time>2021-05-08T08:29:55Z</time>
      </trkpt>
      <trkpt lat="43.54854" lon="-0.91981">
        <ele>55</ele>
        <time>2021-05-08T08:29:56Z</time>
      </trkpt>
      <trkpt lat="43.54851" lon="-0.9198">
        <ele>55</ele>
        <time>2021-05-08T08:29:57Z</time>
      </trkpt>
      <trkpt lat="43.54849" lon="-0.91979">
        <ele>55</ele>
        <time>2021-05-08T08:29:58Z</time>
      </trkpt>
      <trkpt lat="43.54846" lon="-0.91978">
        <ele>55</ele>
        <time>2021-05-08T08:29:59Z</time>
      </trkpt>
      <trkpt lat="43.54844" lon="-0.91977">
        <ele>55</ele>
        <time>2021-05-08T08:30:00Z</time>
      </trkpt>
      <trkpt lat="43.54841" lon="-0.91976">
        <ele>55</ele>
        <time>2021-05-08T08:30:01Z</time>
      </trkpt>
      <trkpt lat="43.54839" lon="-0.91975">
        <ele>55</ele>
        <time>2021-05-08T08:30:02Z</time>
      </trkpt>
      <trkpt lat="43.54836" lon="-0.91975">
        <ele>55</ele>
        <time>2021-05-08T08:30:03Z</time>
      </trkpt>
      <trkpt lat="43.54834" lon="-0.91974">
        <ele>55</ele>
        <time>2021-05-08T08:30:04Z</time>
      </trkpt>
      <trkpt lat="43.54831" lon="-0.91973">
        <ele>55</ele>
        <time>2021-05-08T08:30:05Z</time>
      </trkpt>
      <trkpt lat="43.54829" lon="-0.91972">
        <ele>55</ele>
        <time>2021-05-08T08:30:06Z</time>
      </trkpt>
      <trkpt lat="43.54826" lon="-0.91971">
        <ele>55</ele>
        <time>2021-05-08T08:30:07Z</time>
      </trkpt>
      <trkpt lat="43.54824" lon="-0.91971">
        <ele>55</ele>
        <time>2021-05-08T08:30:08Z</time>
      </trkpt>
      <trkpt lat="43.54821" lon="-0.9197">
        <ele>55</ele>
        <time>2021-05-08T08:30:09Z</time>
      </trkpt>
      <trkpt lat="43.54819" lon="-0.91969">
        <ele>55</ele>
        <time>2021-05-08T08:30:10Z</time>
      </trkpt>
      <trkpt lat="43.54817" lon="-0.91968">
        <ele>55</ele>
        <time>2021-05-08T08:30:11Z</time>
      </trkpt>
      <trkpt lat="43.54814" lon="-0.91968">
        <ele>56</ele>
        <time>2021-05-08T08:30:12Z</time>
      </trkpt>
      <trkpt lat="43.54811" lon="-0.91967">
        <ele>56</ele>
        <time>2021-05-08T08:30:13Z</time>
      </trkpt>
      <trkpt lat="43.54808" lon="-0.91966">
        <ele>56</ele>
        <time>2021-05-08T08:30:14Z</time>
      </trkpt>
      <trkpt lat="43.54805" lon="-0.91965">
        <ele>56</ele>
        <time>2021-05-08T08:30:15Z</time>
      </trkpt>
      <trkpt lat="43.54803" lon="-0.91964">
        <ele>56</ele>
        <time>2021-05-08T08:30:16Z</time>
      </trkpt>
      <trkpt lat="43.548" lon="-0.91964">
        <ele>56</ele>
        <time>2021-05-08T08:30:17Z</time>
      </trkpt>
      <trkpt lat="43.54797" lon="-0.91963">
        <ele>56</ele>
        <time>2021-05-08T08:30:18Z</time>
      </trkpt>
      <trkpt lat="43.54795" lon="-0.91962">
        <ele>56</ele>
        <time>2021-05-08T08:30:19Z</time>
      </trkpt>
      <trkpt lat="43.54792" lon="-0.91961">
        <ele>56</ele>
        <time>2021-05-08T08:30:20Z</time>
      </trkpt>
      <trkpt lat="43.54789" lon="-0.91961">
        <ele>56</ele>
        <time>2021-05-08T08:30:21Z</time>
      </trkpt>
      <trkpt lat="43.54787" lon="-0.9196">
        <ele>56</ele>
        <time>2021-05-08T08:30:22Z</time>
      </trkpt>
      <trkpt lat="43.54784" lon="-0.91959">
        <ele>56</ele>
        <time>2021-05-08T08:30:23Z</time>
      </trkpt>
      <trkpt lat="43.54781" lon="-0.91958">
        <ele>56</ele>
        <time>2021-05-08T08:30:24Z</time>
      </trkpt>
      <trkpt lat="43.54778" lon="-0.91957">
        <ele>56</ele>
        <time>2021-05-08T08:30:25Z</time>
      </trkpt>
      <trkpt lat="43.54775" lon="-0.91956">
        <ele>56</ele>
        <time>2021-05-08T08:30:26Z</time>
      </trkpt>
      <trkpt lat="43.54773" lon="-0.91954">
        <ele>56</ele>
        <time>2021-05-08T08:30:27Z</time>
      </trkpt>
      <trkpt lat="43.5477" lon="-0.91953">
        <ele>56</ele>
        <time>2021-05-08T08:30:28Z</time>
      </trkpt>
      <trkpt lat="43.54768" lon="-0.91951">
        <ele>56</ele>
        <time>2021-05-08T08:30:29Z</time>
      </trkpt>
      <trkpt lat="43.54765" lon="-0.9195">
        <ele>56</ele>
        <time>2021-05-08T08:30:30Z</time>
      </trkpt>
      <trkpt lat="43.54763" lon="-0.91948">
        <ele>56</ele>
        <time>2021-05-08T08:30:31Z</time>
      </trkpt>
      <trkpt lat="43.5476" lon="-0.91947">
        <ele>56</ele>
        <time>2021-05-08T08:30:32Z</time>
      </trkpt>
      <trkpt lat="43.54758" lon="-0.91946">
        <ele>56</ele>
        <time>2021-05-08T08:30:33Z</time>
      </trkpt>
      <trkpt lat="43.54755" lon="-0.91945">
        <ele>56</ele>
        <time>2021-05-08T08:30:34Z</time>
      </trkpt>
      <trkpt lat="43.54753" lon="-0.91944">
        <ele>56</ele>
        <time>2021-05-08T08:30:35Z</time>
      </trkpt>
      <trkpt lat="43.54751" lon="-0.91944">
        <ele>56</ele>
        <time>2021-05-08T08:30:36Z</time>
      </trkpt>
      <trkpt lat="43.54748" lon="-0.91943">
        <ele>56</ele>
        <time>2021-05-08T08:30:37Z</time>
      </trkpt>
      <trkpt lat="43.54746" lon="-0.91941">
        <ele>55</ele>
        <time>2021-05-08T08:30:38Z</time>
      </trkpt>
      <trkpt lat="43.54744" lon="-0.9194">
        <ele>55</ele>
        <time>2021-05-08T08:30:39Z</time>
      </trkpt>
      <trkpt lat="43.54743" lon="-0.91938">
        <ele>55</ele>
        <time>2021-05-08T08:30:40Z</time>
      </trkpt>
      <trkpt lat="43.54742" lon="-0.91936">
        <ele>55</ele>
        <time>2021-05-08T08:30:41Z</time>
      </trkpt>
      <trkpt lat="43.54741" lon="-0.91933">
        <ele>55</ele>
        <time>2021-05-08T08:30:42Z</time>
      </trkpt>
      <trkpt lat="43.5474" lon="-0.9193">
        <ele>55</ele>
        <time>2021-05-08T08:30:43Z</time>
      </trkpt>
      <trkpt lat="43.5474" lon="-0.91926">
        <ele>55</ele>
        <time>2021-05-08T08:30:44Z</time>
      </trkpt>
      <trkpt lat="43.5474" lon="-0.91922">
        <ele>55</ele>
        <time>2021-05-08T08:30:45Z</time>
      </trkpt>
      <trkpt lat="43.5474" lon="-0.91919">
        <ele>55</ele>
        <time>2021-05-08T08:30:46Z</time>
      </trkpt>
      <trkpt lat="43.5474" lon="-0.91915">
        <ele>55</ele>
        <time>2021-05-08T08:30:47Z</time>
      </trkpt>
      <trkpt lat="43.5474" lon="-0.91912">
        <ele>54</ele>
        <time>2021-05-08T08:30:48Z</time>
      </trkpt>
      <trkpt lat="43.5474" lon="-0.91908">
        <ele>54</ele>
        <time>2021-05-08T08:30:49Z</time>
      </trkpt>
      <trkpt lat="43.5474" lon="-0.91904">
        <ele>54</ele>
        <time>2021-05-08T08:30:50Z</time>
      </trkpt>
      <trkpt lat="43.5474" lon="-0.919">
        <ele>54</ele>
        <time>2021-05-08T08:30:51Z</time>
      </trkpt>
      <trkpt lat="43.5474" lon="-0.91896">
        <ele>54</ele>
        <time>2021-05-08T08:30:52Z</time>
      </trkpt>
      <trkpt lat="43.5474" lon="-0.91892">
        <ele>53</ele>
        <time>2021-05-08T08:30:53Z</time>
      </trkpt>
      <trkpt lat="43.54739" lon="-0.91889">
        <ele>53</ele>
        <time>2021-05-08T08:30:54Z</time>
      </trkpt>
      <trkpt lat="43.54739" lon="-0.91885">
        <ele>53</ele>
        <time>2021-05-08T08:30:55Z</time>
      </trkpt>
      <trkpt lat="43.54739" lon="-0.91882">
        <ele>53</ele>
        <time>2021-05-08T08:30:56Z</time>
      </trkpt>
      <trkpt lat="43.54739" lon="-0.91878">
        <ele>53</ele>
        <time>2021-05-08T08:30:57Z</time>
      </trkpt>
      <trkpt lat="43.54739" lon="-0.91874">
        <ele>52</ele>
        <time>2021-05-08T08:30:58Z</time>
      </trkpt>
      <trkpt lat="43.54739" lon="-0.91871">
        <ele>52</ele>
        <time>2021-05-08T08:30:59Z</time>
      </trkpt>
      <trkpt lat="43.54739" lon="-0.91867">
        <ele>52</ele>
        <time>2021-05-08T08:31:00Z</time>
      </trkpt>
      <trkpt lat="43.54739" lon="-0.91863">
        <ele>52</ele>
        <time>2021-05-08T08:31:01Z</time>
      </trkpt>
      <trkpt lat="43.54739" lon="-0.9186">
        <ele>52</ele>
        <time>2021-05-08T08:31:02Z</time>
      </trkpt>
      <trkpt lat="43.54739" lon="-0.91856">
        <ele>51</ele>
        <time>2021-05-08T08:31:03Z</time>
      </trkpt>
      <trkpt lat="43.54739" lon="-0.91852">
        <ele>51</ele>
        <time>2021-05-08T08:31:04Z</time>
      </trkpt>
      <trkpt lat="43.54739" lon="-0.91849">
        <ele>51</ele>
        <time>2021-05-08T08:31:05Z</time>
      </trkpt>
      <trkpt lat="43.54738" lon="-0.91845">
        <ele>51</ele>
        <time>2021-05-08T08:31:06Z</time>
      </trkpt>
      <trkpt lat="43.54737" lon="-0.91842">
        <ele>51</ele>
        <time>2021-05-08T08:31:07Z</time>
      </trkpt>
      <trkpt lat="43.54736" lon="-0.91838">
        <ele>51</ele>
        <time>2021-05-08T08:31:08Z</time>
      </trkpt>
      <trkpt lat="43.54735" lon="-0.91835">
        <ele>51</ele>
        <time>2021-05-08T08:31:09Z</time>
      </trkpt>
      <trkpt lat="43.54733" lon="-0.91832">
        <ele>51</ele>
        <time>2021-05-08T08:31:10Z</time>
      </trkpt>
      <trkpt lat="43.54732" lon="-0.91829">
        <ele>51</ele>
        <time>2021-05-08T08:31:11Z</time>
      </trkpt>
      <trkpt lat="43.5473" lon="-0.91826">
        <ele>51</ele>
        <time>2021-05-08T08:31:12Z</time>
      </trkpt>
      <trkpt lat="43.54729" lon="-0.91823">
        <ele>50</ele>
        <time>2021-05-08T08:31:13Z</time>
      </trkpt>
      <trkpt lat="43.54727" lon="-0.9182">
        <ele>50</ele>
        <time>2021-05-08T08:31:14Z</time>
      </trkpt>
      <trkpt lat="43.54725" lon="-0.91818">
        <ele>50</ele>
        <time>2021-05-08T08:31:15Z</time>
      </trkpt>
      <trkpt lat="43.54724" lon="-0.91816">
        <ele>50</ele>
        <time>2021-05-08T08:31:16Z</time>
      </trkpt>
      <trkpt lat="43.54722" lon="-0.91815">
        <ele>50</ele>
        <time>2021-05-08T08:31:17Z</time>
      </trkpt>
      <trkpt lat="43.54719" lon="-0.91814">
        <ele>50</ele>
        <time>2021-05-08T08:31:18Z</time>
      </trkpt>
      <trkpt lat="43.54717" lon="-0.91814">
        <ele>50</ele>
        <time>2021-05-08T08:31:19Z</time>
      </trkpt>
      <trkpt lat="43.54715" lon="-0.91814">
        <ele>50</ele>
        <time>2021-05-08T08:31:20Z</time>
      </trkpt>
      <trkpt lat="43.54712" lon="-0.91815">
        <ele>50</ele>
        <time>2021-05-08T08:31:21Z</time>
      </trkpt>
      <trkpt lat="43.5471" lon="-0.91816">
        <ele>50</ele>
        <time>2021-05-08T08:31:22Z</time>
      </trkpt>
      <trkpt lat="43.54708" lon="-0.91817">
        <ele>50</ele>
        <time>2021-05-08T08:31:23Z</time>
      </trkpt>
      <trkpt lat="43.54705" lon="-0.91818">
        <ele>50</ele>
        <time>2021-05-08T08:31:24Z</time>
      </trkpt>
      <trkpt lat="43.54703" lon="-0.9182">
        <ele>50</ele>
        <time>2021-05-08T08:31:25Z</time>
      </trkpt>
      <trkpt lat="43.54701" lon="-0.91821">
        <ele>50</ele>
        <time>2021-05-08T08:31:26Z</time>
      </trkpt>
      <trkpt lat="43.54699" lon="-0.91822">
        <ele>50</ele>
        <time>2021-05-08T08:31:27Z</time>
      </trkpt>
      <trkpt lat="43.54698" lon="-0.91823">
        <ele>50</ele>
        <time>2021-05-08T08:31:28Z</time>
      </trkpt>
      <trkpt lat="43.54696" lon="-0.91824">
        <ele>50</ele>
        <time>2021-05-08T08:31:29Z</time>
      </trkpt>
      <trkpt lat="43.54693" lon="-0.91824">
        <ele>50</ele>
        <time>2021-05-08T08:31:30Z</time>
      </trkpt>
      <trkpt lat="43.54691" lon="-0.91825">
        <ele>50</ele>
        <time>2021-05-08T08:31:31Z</time>
      </trkpt>
      <trkpt lat="43.54688" lon="-0.91825">
        <ele>50</ele>
        <time>2021-05-08T08:31:32Z</time>
      </trkpt>
      <trkpt lat="43.54685" lon="-0.91826">
        <ele>49</ele>
        <time>2021-05-08T08:31:33Z</time>
      </trkpt>
      <trkpt lat="43.54683" lon="-0.91826">
        <ele>49</ele>
        <time>2021-05-08T08:31:34Z</time>
      </trkpt>
      <trkpt lat="43.5468" lon="-0.91826">
        <ele>49</ele>
        <time>2021-05-08T08:31:35Z</time>
      </trkpt>
      <trkpt lat="43.54678" lon="-0.91826">
        <ele>49</ele>
        <time>2021-05-08T08:31:36Z</time>
      </trkpt>
      <trkpt lat="43.54676" lon="-0.91826">
        <ele>49</ele>
        <time>2021-05-08T08:31:37Z</time>
      </trkpt>
      <trkpt lat="43.54673" lon="-0.91825">
        <ele>48</ele>
        <time>2021-05-08T08:31:38Z</time>
      </trkpt>
      <trkpt lat="43.54671" lon="-0.91825">
        <ele>48</ele>
        <time>2021-05-08T08:31:39Z</time>
      </trkpt>
      <trkpt lat="43.54668" lon="-0.91824">
        <ele>48</ele>
        <time>2021-05-08T08:31:40Z</time>
      </trkpt>
      <trkpt lat="43.54665" lon="-0.91823">
        <ele>48</ele>
        <time>2021-05-08T08:31:41Z</time>
      </trkpt>
      <trkpt lat="43.54663" lon="-0.91822">
        <ele>48</ele>
        <time>2021-05-08T08:31:42Z</time>
      </trkpt>
      <trkpt lat="43.5466" lon="-0.91821">
        <ele>47</ele>
        <time>2021-05-08T08:31:43Z</time>
      </trkpt>
      <trkpt lat="43.54658" lon="-0.9182">
        <ele>47</ele>
        <time>2021-05-08T08:31:44Z</time>
      </trkpt>
      <trkpt lat="43.54656" lon="-0.91819">
        <ele>47</ele>
        <time>2021-05-08T08:31:45Z</time>
      </trkpt>
      <trkpt lat="43.54653" lon="-0.91819">
        <ele>47</ele>
        <time>2021-05-08T08:31:46Z</time>
      </trkpt>
      <trkpt lat="43.54651" lon="-0.91818">
        <ele>47</ele>
        <time>2021-05-08T08:31:47Z</time>
      </trkpt>
      <trkpt lat="43.54648" lon="-0.91817">
        <ele>47</ele>
        <time>2021-05-08T08:31:48Z</time>
      </trkpt>
      <trkpt lat="43.54645" lon="-0.91817">
        <ele>47</ele>
        <time>2021-05-08T08:31:49Z</time>
      </trkpt>
      <trkpt lat="43.54643" lon="-0.91816">
        <ele>47</ele>
        <time>2021-05-08T08:31:50Z</time>
      </trkpt>
      <trkpt lat="43.5464" lon="-0.91815">
        <ele>47</ele>
        <time>2021-05-08T08:31:51Z</time>
      </trkpt>
      <trkpt lat="43.54637" lon="-0.91814">
        <ele>47</ele>
        <time>2021-05-08T08:31:52Z</time>
      </trkpt>
      <trkpt lat="43.54635" lon="-0.91813">
        <ele>46</ele>
        <time>2021-05-08T08:31:53Z</time>
      </trkpt>
      <trkpt lat="43.54632" lon="-0.91812">
        <ele>46</ele>
        <time>2021-05-08T08:31:54Z</time>
      </trkpt>
      <trkpt lat="43.54629" lon="-0.91811">
        <ele>46</ele>
        <time>2021-05-08T08:31:55Z</time>
      </trkpt>
      <trkpt lat="43.54627" lon="-0.9181">
        <ele>46</ele>
        <time>2021-05-08T08:31:56Z</time>
      </trkpt>
      <trkpt lat="43.54625" lon="-0.91809">
        <ele>46</ele>
        <time>2021-05-08T08:31:57Z</time>
      </trkpt>
      <trkpt lat="43.54623" lon="-0.91807">
        <ele>46</ele>
        <time>2021-05-08T08:31:58Z</time>
      </trkpt>
      <trkpt lat="43.54621" lon="-0.91806">
        <ele>46</ele>
        <time>2021-05-08T08:31:59Z</time>
      </trkpt>
      <trkpt lat="43.54619" lon="-0.91804">
        <ele>46</ele>
        <time>2021-05-08T08:32:00Z</time>
      </trkpt>
      <trkpt lat="43.54617" lon="-0.91803">
        <ele>46</ele>
        <time>2021-05-08T08:32:01Z</time>
      </trkpt>
      <trkpt lat="43.54615" lon="-0.91801">
        <ele>46</ele>
        <time>2021-05-08T08:32:02Z</time>
      </trkpt>
      <trkpt lat="43.54612" lon="-0.91799">
        <ele>45</ele>
        <time>2021-05-08T08:32:03Z</time>
      </trkpt>
      <trkpt lat="43.5461" lon="-0.91798">
        <ele>45</ele>
        <time>2021-05-08T08:32:04Z</time>
      </trkpt>
      <trkpt lat="43.54607" lon="-0.91796">
        <ele>45</ele>
        <time>2021-05-08T08:32:05Z</time>
      </trkpt>
      <trkpt lat="43.54604" lon="-0.91794">
        <ele>45</ele>
        <time>2021-05-08T08:32:06Z</time>
      </trkpt>
      <trkpt lat="43.54601" lon="-0.91792">
        <ele>45</ele>
        <time>2021-05-08T08:32:07Z</time>
      </trkpt>
      <trkpt lat="43.54597" lon="-0.9179">
        <ele>44</ele>
        <time>2021-05-08T08:32:08Z</time>
      </trkpt>
      <trkpt lat="43.54594" lon="-0.91788">
        <ele>44</ele>
        <time>2021-05-08T08:32:09Z</time>
      </trkpt>
      <trkpt lat="43.54591" lon="-0.91786">
        <ele>44</ele>
        <time>2021-05-08T08:32:10Z</time>
      </trkpt>
      <trkpt lat="43.54588" lon="-0.91783">
        <ele>44</ele>
        <time>2021-05-08T08:32:11Z</time>
      </trkpt>
      <trkpt lat="43.54585" lon="-0.91781">
        <ele>44</ele>
        <time>2021-05-08T08:32:12Z</time>
      </trkpt>
      <trkpt lat="43.54583" lon="-0.91779">
        <ele>44</ele>
        <time>2021-05-08T08:32:13Z</time>
      </trkpt>
      <trkpt lat="43.54581" lon="-0.91777">
        <ele>44</ele>
        <time>2021-05-08T08:32:14Z</time>
      </trkpt>
      <trkpt lat="43.54579" lon="-0.91775">
        <ele>44</ele>
        <time>2021-05-08T08:32:15Z</time>
      </trkpt>
      <trkpt lat="43.54577" lon="-0.91772">
        <ele>44</ele>
        <time>2021-05-08T08:32:16Z</time>
      </trkpt>
      <trkpt lat="43.54575" lon="-0.91769">
        <ele>44</ele>
        <time>2021-05-08T08:32:17Z</time>
      </trkpt>
      <trkpt lat="43.54574" lon="-0.91765">
        <ele>43</ele>
        <time>2021-05-08T08:32:18Z</time>
      </trkpt>
      <trkpt lat="43.54572" lon="-0.91762">
        <ele>43</ele>
        <time>2021-05-08T08:32:19Z</time>
      </trkpt>
      <trkpt lat="43.54571" lon="-0.91758">
        <ele>43</ele>
        <time>2021-05-08T08:32:20Z</time>
      </trkpt>
      <trkpt lat="43.5457" lon="-0.91754">
        <ele>43</ele>
        <time>2021-05-08T08:32:21Z</time>
      </trkpt>
      <trkpt lat="43.54569" lon="-0.9175">
        <ele>43</ele>
        <time>2021-05-08T08:32:22Z</time>
      </trkpt>
      <trkpt lat="43.54569" lon="-0.91746">
        <ele>42</ele>
        <time>2021-05-08T08:32:23Z</time>
      </trkpt>
      <trkpt lat="43.54568" lon="-0.91743">
        <ele>42</ele>
        <time>2021-05-08T08:32:24Z</time>
      </trkpt>
      <trkpt lat="43.54567" lon="-0.91739">
        <ele>42</ele>
        <time>2021-05-08T08:32:25Z</time>
      </trkpt>
      <trkpt lat="43.54566" lon="-0.91736">
        <ele>42</ele>
        <time>2021-05-08T08:32:26Z</time>
      </trkpt>
      <trkpt lat="43.54565" lon="-0.91732">
        <ele>42</ele>
        <time>2021-05-08T08:32:27Z</time>
      </trkpt>
      <trkpt lat="43.54563" lon="-0.91729">
        <ele>41</ele>
        <time>2021-05-08T08:32:28Z</time>
      </trkpt>
      <trkpt lat="43.54562" lon="-0.91726">
        <ele>41</ele>
        <time>2021-05-08T08:32:29Z</time>
      </trkpt>
      <trkpt lat="43.5456" lon="-0.91723">
        <ele>41</ele>
        <time>2021-05-08T08:32:30Z</time>
      </trkpt>
      <trkpt lat="43.54558" lon="-0.9172">
        <ele>41</ele>
        <time>2021-05-08T08:32:31Z</time>
      </trkpt>
      <trkpt lat="43.54557" lon="-0.91717">
        <ele>41</ele>
        <time>2021-05-08T08:32:32Z</time>
      </trkpt>
      <trkpt lat="43.54555" lon="-0.91715">
        <ele>40</ele>
        <time>2021-05-08T08:32:33Z</time>
      </trkpt>
      <trkpt lat="43.54554" lon="-0.91711">
        <ele>40</ele>
        <time>2021-05-08T08:32:34Z</time>
      </trkpt>
      <trkpt lat="43.54552" lon="-0.91707">
        <ele>39</ele>
        <time>2021-05-08T08:32:35Z</time>
      </trkpt>
      <trkpt lat="43.5455" lon="-0.91703">
        <ele>39</ele>
        <time>2021-05-08T08:32:36Z</time>
      </trkpt>
      <trkpt lat="43.54549" lon="-0.91699">
        <ele>39</ele>
        <time>2021-05-08T08:32:37Z</time>
      </trkpt>
      <trkpt lat="43.54547" lon="-0.91695">
        <ele>38</ele>
        <time>2021-05-08T08:32:38Z</time>
      </trkpt>
      <trkpt lat="43.54545" lon="-0.91691">
        <ele>38</ele>
        <time>2021-05-08T08:32:39Z</time>
      </trkpt>
      <trkpt lat="43.54543" lon="-0.91688">
        <ele>38</ele>
        <time>2021-05-08T08:32:40Z</time>
      </trkpt>
      <trkpt lat="43.54542" lon="-0.91685">
        <ele>38</ele>
        <time>2021-05-08T08:32:41Z</time>
      </trkpt>
      <trkpt lat="43.5454" lon="-0.91683">
        <ele>38</ele>
        <time>2021-05-08T08:32:42Z</time>
      </trkpt>
      <trkpt lat="43.54538" lon="-0.91682">
        <ele>37</ele>
        <time>2021-05-08T08:32:43Z</time>
      </trkpt>
      <trkpt lat="43.54535" lon="-0.91681">
        <ele>37</ele>
        <time>2021-05-08T08:32:44Z</time>
      </trkpt>
      <trkpt lat="43.54533" lon="-0.91681">
        <ele>37</ele>
        <time>2021-05-08T08:32:45Z</time>
      </trkpt>
      <trkpt lat="43.54531" lon="-0.91681">
        <ele>37</ele>
        <time>2021-05-08T08:32:46Z</time>
      </trkpt>
      <trkpt lat="43.54529" lon="-0.91682">
        <ele>37</ele>
        <time>2021-05-08T08:32:47Z</time>
      </trkpt>
      <trkpt lat="43.54527" lon="-0.91684">
        <ele>36</ele>
        <time>2021-05-08T08:32:48Z</time>
      </trkpt>
      <trkpt lat="43.54525" lon="-0.91686">
        <ele>36</ele>
        <time>2021-05-08T08:32:49Z</time>
      </trkpt>
      <trkpt lat="43.54523" lon="-0.91688">
        <ele>36</ele>
        <time>2021-05-08T08:32:50Z</time>
      </trkpt>
      <trkpt lat="43.54522" lon="-0.9169">
        <ele>36</ele>
        <time>2021-05-08T08:32:51Z</time>
      </trkpt>
      <trkpt lat="43.54521" lon="-0.91693">
        <ele>36</ele>
        <time>2021-05-08T08:32:52Z</time>
      </trkpt>
      <trkpt lat="43.54519" lon="-0.91695">
        <ele>35</ele>
        <time>2021-05-08T08:32:53Z</time>
      </trkpt>
      <trkpt lat="43.54519" lon="-0.91697">
        <ele>35</ele>
        <time>2021-05-08T08:32:54Z</time>
      </trkpt>
      <trkpt lat="43.54518" lon="-0.917">
        <ele>35</ele>
        <time>2021-05-08T08:32:55Z</time>
      </trkpt>
      <trkpt lat="43.54517" lon="-0.91702">
        <ele>35</ele>
        <time>2021-05-08T08:32:56Z</time>
      </trkpt>
      <trkpt lat="43.54516" lon="-0.91704">
        <ele>35</ele>
        <time>2021-05-08T08:32:57Z</time>
      </trkpt>
      <trkpt lat="43.54515" lon="-0.91706">
        <ele>34</ele>
        <time>2021-05-08T08:32:58Z</time>
      </trkpt>
      <trkpt lat="43.54515" lon="-0.91707">
        <ele>34</ele>
        <time>2021-05-08T08:32:59Z</time>
      </trkpt>
      <trkpt lat="43.54514" lon="-0.91709">
        <ele>34</ele>
        <time>2021-05-08T08:33:00Z</time>
      </trkpt>
      <trkpt lat="43.54513" lon="-0.9171">
        <ele>34</ele>
        <time>2021-05-08T08:33:01Z</time>
      </trkpt>
      <trkpt lat="43.54511" lon="-0.91711">
        <ele>34</ele>
        <time>2021-05-08T08:33:02Z</time>
      </trkpt>
      <trkpt lat="43.5451" lon="-0.91712">
        <ele>34</ele>
        <time>2021-05-08T08:33:03Z</time>
      </trkpt>
      <trkpt lat="43.54509" lon="-0.91714">
        <ele>34</ele>
        <time>2021-05-08T08:33:04Z</time>
      </trkpt>
      <trkpt lat="43.54507" lon="-0.91716">
        <ele>34</ele>
        <time>2021-05-08T08:33:05Z</time>
      </trkpt>
      <trkpt lat="43.54506" lon="-0.9172">
        <ele>34</ele>
        <time>2021-05-08T08:33:06Z</time>
      </trkpt>
      <trkpt lat="43.54504" lon="-0.91723">
        <ele>34</ele>
        <time>2021-05-08T08:33:07Z</time>
      </trkpt>
      <trkpt lat="43.54503" lon="-0.91726">
        <ele>34</ele>
        <time>2021-05-08T08:33:08Z</time>
      </trkpt>
      <trkpt lat="43.54503" lon="-0.91729">
        <ele>34</ele>
        <time>2021-05-08T08:33:09Z</time>
      </trkpt>
      <trkpt lat="43.54502" lon="-0.91731">
        <ele>34</ele>
        <time>2021-05-08T08:33:10Z</time>
      </trkpt>
      <trkpt lat="43.54502" lon="-0.91734">
        <ele>34</ele>
        <time>2021-05-08T08:33:11Z</time>
      </trkpt>
      <trkpt lat="43.54501" lon="-0.91736">
        <ele>34</ele>
        <time>2021-05-08T08:33:12Z</time>
      </trkpt>
      <trkpt lat="43.54501" lon="-0.91739">
        <ele>34</ele>
        <time>2021-05-08T08:33:13Z</time>
      </trkpt>
      <trkpt lat="43.545" lon="-0.91742">
        <ele>34</ele>
        <time>2021-05-08T08:33:14Z</time>
      </trkpt>
      <trkpt lat="43.545" lon="-0.91744">
        <ele>34</ele>
        <time>2021-05-08T08:33:15Z</time>
      </trkpt>
      <trkpt lat="43.54499" lon="-0.91747">
        <ele>34</ele>
        <time>2021-05-08T08:33:16Z</time>
      </trkpt>
      <trkpt lat="43.54498" lon="-0.9175">
        <ele>34</ele>
        <time>2021-05-08T08:33:17Z</time>
      </trkpt>
      <trkpt lat="43.54497" lon="-0.91752">
        <ele>34</ele>
        <time>2021-05-08T08:33:18Z</time>
      </trkpt>
      <trkpt lat="43.54496" lon="-0.91754">
        <ele>34</ele>
        <time>2021-05-08T08:33:19Z</time>
      </trkpt>
      <trkpt lat="43.54494" lon="-0.91756">
        <ele>34</ele>
        <time>2021-05-08T08:33:20Z</time>
      </trkpt>
      <trkpt lat="43.54492" lon="-0.91758">
        <ele>34</ele>
        <time>2021-05-08T08:33:21Z</time>
      </trkpt>
      <trkpt lat="43.5449" lon="-0.9176">
        <ele>34</ele>
        <time>2021-05-08T08:33:22Z</time>
      </trkpt>
      <trkpt lat="43.54488" lon="-0.91761">
        <ele>34</ele>
        <time>2021-05-08T08:33:23Z</time>
      </trkpt>
      <trkpt lat="43.54485" lon="-0.91763">
        <ele>34</ele>
        <time>2021-05-08T08:33:24Z</time>
      </trkpt>
      <trkpt lat="43.54483" lon="-0.91764">
        <ele>34</ele>
        <time>2021-05-08T08:33:25Z</time>
      </trkpt>
      <trkpt lat="43.54481" lon="-0.91766">
        <ele>34</ele>
        <time>2021-05-08T08:33:26Z</time>
      </trkpt>
      <trkpt lat="43.54479" lon="-0.91767">
        <ele>35</ele>
        <time>2021-05-08T08:33:27Z</time>
      </trkpt>
      <trkpt lat="43.54478" lon="-0.91769">
        <ele>35</ele>
        <time>2021-05-08T08:33:28Z</time>
      </trkpt>
      <trkpt lat="43.54476" lon="-0.9177">
        <ele>35</ele>
        <time>2021-05-08T08:33:29Z</time>
      </trkpt>
      <trkpt lat="43.54475" lon="-0.91772">
        <ele>35</ele>
        <time>2021-05-08T08:33:30Z</time>
      </trkpt>
      <trkpt lat="43.54473" lon="-0.91773">
        <ele>35</ele>
        <time>2021-05-08T08:33:31Z</time>
      </trkpt>
      <trkpt lat="43.54472" lon="-0.91776">
        <ele>36</ele>
        <time>2021-05-08T08:33:32Z</time>
      </trkpt>
      <trkpt lat="43.54472" lon="-0.91778">
        <ele>36</ele>
        <time>2021-05-08T08:33:33Z</time>
      </trkpt>
      <trkpt lat="43.54471" lon="-0.9178">
        <ele>36</ele>
        <time>2021-05-08T08:33:34Z</time>
      </trkpt>
      <trkpt lat="43.5447" lon="-0.91783">
        <ele>36</ele>
        <time>2021-05-08T08:33:35Z</time>
      </trkpt>
      <trkpt lat="43.54469" lon="-0.91786">
        <ele>36</ele>
        <time>2021-05-08T08:33:36Z</time>
      </trkpt>
      <trkpt lat="43.54469" lon="-0.91789">
        <ele>36</ele>
        <time>2021-05-08T08:33:37Z</time>
      </trkpt>
      <trkpt lat="43.54468" lon="-0.91793">
        <ele>35</ele>
        <time>2021-05-08T08:33:38Z</time>
      </trkpt>
      <trkpt lat="43.54467" lon="-0.91796">
        <ele>35</ele>
        <time>2021-05-08T08:33:39Z</time>
      </trkpt>
      <trkpt lat="43.54466" lon="-0.918">
        <ele>35</ele>
        <time>2021-05-08T08:33:40Z</time>
      </trkpt>
      <trkpt lat="43.54466" lon="-0.91804">
        <ele>35</ele>
        <time>2021-05-08T08:33:41Z</time>
      </trkpt>
      <trkpt lat="43.54466" lon="-0.91807">
        <ele>35</ele>
        <time>2021-05-08T08:33:42Z</time>
      </trkpt>
      <trkpt lat="43.54465" lon="-0.91811">
        <ele>34</ele>
        <time>2021-05-08T08:33:43Z</time>
      </trkpt>
      <trkpt lat="43.54466" lon="-0.91814">
        <ele>34</ele>
        <time>2021-05-08T08:33:44Z</time>
      </trkpt>
      <trkpt lat="43.54466" lon="-0.91817">
        <ele>34</ele>
        <time>2021-05-08T08:33:45Z</time>
      </trkpt>
      <trkpt lat="43.54466" lon="-0.91821">
        <ele>34</ele>
        <time>2021-05-08T08:33:46Z</time>
      </trkpt>
      <trkpt lat="43.54466" lon="-0.91824">
        <ele>34</ele>
        <time>2021-05-08T08:33:47Z</time>
      </trkpt>
      <trkpt lat="43.54466" lon="-0.91827">
        <ele>34</ele>
        <time>2021-05-08T08:33:48Z</time>
      </trkpt>
      <trkpt lat="43.54466" lon="-0.9183">
        <ele>34</ele>
        <time>2021-05-08T08:33:49Z</time>
      </trkpt>
      <trkpt lat="43.54466" lon="-0.91833">
        <ele>34</ele>
        <time>2021-05-08T08:33:50Z</time>
      </trkpt>
      <trkpt lat="43.54467" lon="-0.91836">
        <ele>34</ele>
        <time>2021-05-08T08:33:51Z</time>
      </trkpt>
      <trkpt lat="43.54467" lon="-0.91839">
        <ele>34</ele>
        <time>2021-05-08T08:33:52Z</time>
      </trkpt>
      <trkpt lat="43.54467" lon="-0.91841">
        <ele>34</ele>
        <time>2021-05-08T08:33:53Z</time>
      </trkpt>
      <trkpt lat="43.54468" lon="-0.91844">
        <ele>34</ele>
        <time>2021-05-08T08:33:54Z</time>
      </trkpt>
      <trkpt lat="43.54468" lon="-0.91847">
        <ele>34</ele>
        <time>2021-05-08T08:33:55Z</time>
      </trkpt>
      <trkpt lat="43.54468" lon="-0.9185">
        <ele>34</ele>
        <time>2021-05-08T08:33:56Z</time>
      </trkpt>
      <trkpt lat="43.54469" lon="-0.91853">
        <ele>34</ele>
        <time>2021-05-08T08:33:57Z</time>
      </trkpt>
      <trkpt lat="43.54469" lon="-0.91855">
        <ele>33</ele>
        <time>2021-05-08T08:33:58Z</time>
      </trkpt>
      <trkpt lat="43.54468" lon="-0.91858">
        <ele>33</ele>
        <time>2021-05-08T08:33:59Z</time>
      </trkpt>
      <trkpt lat="43.54468" lon="-0.91861">
        <ele>33</ele>
        <time>2021-05-08T08:34:00Z</time>
      </trkpt>
      <trkpt lat="43.54468" lon="-0.91863">
        <ele>33</ele>
        <time>2021-05-08T08:34:01Z</time>
      </trkpt>
      <trkpt lat="43.54468" lon="-0.91866">
        <ele>33</ele>
        <time>2021-05-08T08:34:02Z</time>
      </trkpt>
      <trkpt lat="43.54468" lon="-0.91869">
        <ele>33</ele>
        <time>2021-05-08T08:34:03Z</time>
      </trkpt>
      <trkpt lat="43.54468" lon="-0.91872">
        <ele>33</ele>
        <time>2021-05-08T08:34:04Z</time>
      </trkpt>
      <trkpt lat="43.54468" lon="-0.91875">
        <ele>33</ele>
        <time>2021-05-08T08:34:05Z</time>
      </trkpt>
      <trkpt lat="43.54469" lon="-0.91878">
        <ele>33</ele>
        <time>2021-05-08T08:34:06Z</time>
      </trkpt>
      <trkpt lat="43.54469" lon="-0.91881">
        <ele>33</ele>
        <time>2021-05-08T08:34:07Z</time>
      </trkpt>
      <trkpt lat="43.5447" lon="-0.91884">
        <ele>33</ele>
        <time>2021-05-08T08:34:08Z</time>
      </trkpt>
      <trkpt lat="43.5447" lon="-0.91887">
        <ele>33</ele>
        <time>2021-05-08T08:34:09Z</time>
      </trkpt>
      <trkpt lat="43.54469" lon="-0.9189">
        <ele>33</ele>
        <time>2021-05-08T08:34:10Z</time>
      </trkpt>
      <trkpt lat="43.54469" lon="-0.91893">
        <ele>33</ele>
        <time>2021-05-08T08:34:11Z</time>
      </trkpt>
      <trkpt lat="43.54468" lon="-0.91898">
        <ele>33</ele>
        <time>2021-05-08T08:34:12Z</time>
      </trkpt>
      <trkpt lat="43.54468" lon="-0.91902">
        <ele>33</ele>
        <time>2021-05-08T08:34:13Z</time>
      </trkpt>
      <trkpt lat="43.54468" lon="-0.91907">
        <ele>33</ele>
        <time>2021-05-08T08:34:14Z</time>
      </trkpt>
      <trkpt lat="43.54468" lon="-0.91912">
        <ele>33</ele>
        <time>2021-05-08T08:34:15Z</time>
      </trkpt>
      <trkpt lat="43.54468" lon="-0.91916">
        <ele>33</ele>
        <time>2021-05-08T08:34:16Z</time>
      </trkpt>
      <trkpt lat="43.54468" lon="-0.91921">
        <ele>33</ele>
        <time>2021-05-08T08:34:17Z</time>
      </trkpt>
      <trkpt lat="43.54468" lon="-0.91925">
        <ele>33</ele>
        <time>2021-05-08T08:34:18Z</time>
      </trkpt>
      <trkpt lat="43.54469" lon="-0.91929">
        <ele>33</ele>
        <time>2021-05-08T08:34:19Z</time>
      </trkpt>
      <trkpt lat="43.54469" lon="-0.91933">
        <ele>33</ele>
        <time>2021-05-08T08:34:20Z</time>
      </trkpt>
      <trkpt lat="43.5447" lon="-0.91937">
        <ele>33</ele>
        <time>2021-05-08T08:34:21Z</time>
      </trkpt>
      <trkpt lat="43.54471" lon="-0.9194">
        <ele>33</ele>
        <time>2021-05-08T08:34:22Z</time>
      </trkpt>
      <trkpt lat="43.54471" lon="-0.91943">
        <ele>33</ele>
        <time>2021-05-08T08:34:23Z</time>
      </trkpt>
      <trkpt lat="43.54473" lon="-0.91946">
        <ele>33</ele>
        <time>2021-05-08T08:34:24Z</time>
      </trkpt>
      <trkpt lat="43.54474" lon="-0.91948">
        <ele>33</ele>
        <time>2021-05-08T08:34:25Z</time>
      </trkpt>
      <trkpt lat="43.54475" lon="-0.91949">
        <ele>33</ele>
        <time>2021-05-08T08:34:26Z</time>
      </trkpt>
      <trkpt lat="43.54477" lon="-0.91951">
        <ele>33</ele>
        <time>2021-05-08T08:34:27Z</time>
      </trkpt>
      <trkpt lat="43.54478" lon="-0.91952">
        <ele>33</ele>
        <time>2021-05-08T08:34:28Z</time>
      </trkpt>
      <trkpt lat="43.5448" lon="-0.91954">
        <ele>33</ele>
        <time>2021-05-08T08:34:29Z</time>
      </trkpt>
      <trkpt lat="43.54481" lon="-0.91956">
        <ele>33</ele>
        <time>2021-05-08T08:34:30Z</time>
      </trkpt>
      <trkpt lat="43.54483" lon="-0.91957">
        <ele>33</ele>
        <time>2021-05-08T08:34:31Z</time>
      </trkpt>
      <trkpt lat="43.54485" lon="-0.9196">
        <ele>33</ele>
        <time>2021-05-08T08:34:32Z</time>
      </trkpt>
      <trkpt lat="43.54487" lon="-0.91962">
        <ele>33</ele>
        <time>2021-05-08T08:34:33Z</time>
      </trkpt>
      <trkpt lat="43.54488" lon="-0.91964">
        <ele>33</ele>
        <time>2021-05-08T08:34:34Z</time>
      </trkpt>
      <trkpt lat="43.5449" lon="-0.91966">
        <ele>33</ele>
        <time>2021-05-08T08:34:35Z</time>
      </trkpt>
      <trkpt lat="43.54492" lon="-0.91967">
        <ele>33</ele>
        <time>2021-05-08T08:34:36Z</time>
      </trkpt>
      <trkpt lat="43.54493" lon="-0.91968">
        <ele>33</ele>
        <time>2021-05-08T08:34:37Z</time>
      </trkpt>
      <trkpt lat="43.54495" lon="-0.91968">
        <ele>33</ele>
        <time>2021-05-08T08:34:38Z</time>
      </trkpt>
      <trkpt lat="43.54496" lon="-0.91967">
        <ele>33</ele>
        <time>2021-05-08T08:34:39Z</time>
      </trkpt>
      <trkpt lat="43.54498" lon="-0.91967">
        <ele>33</ele>
        <time>2021-05-08T08:34:40Z</time>
      </trkpt>
      <trkpt lat="43.54499" lon="-0.91967">
        <ele>33</ele>
        <time>2021-05-08T08:34:41Z</time>
      </trkpt>
      <trkpt lat="43.54501" lon="-0.91968">
        <ele>33</ele>
        <time>2021-05-08T08:34:42Z</time>
      </trkpt>
      <trkpt lat="43.54502" lon="-0.91968">
        <ele>33</ele>
        <time>2021-05-08T08:34:43Z</time>
      </trkpt>
      <trkpt lat="43.54503" lon="-0.91969">
        <ele>33</ele>
        <time>2021-05-08T08:34:44Z</time>
      </trkpt>
      <trkpt lat="43.54504" lon="-0.9197">
        <ele>33</ele>
        <time>2021-05-08T08:34:45Z</time>
      </trkpt>
      <trkpt lat="43.54505" lon="-0.91972">
        <ele>33</ele>
        <time>2021-05-08T08:34:46Z</time>
      </trkpt>
      <trkpt lat="43.54506" lon="-0.91974">
        <ele>34</ele>
        <time>2021-05-08T08:34:47Z</time>
      </trkpt>
      <trkpt lat="43.54507" lon="-0.91975">
        <ele>34</ele>
        <time>2021-05-08T08:34:48Z</time>
      </trkpt>
      <trkpt lat="43.54508" lon="-0.91977">
        <ele>34</ele>
        <time>2021-05-08T08:34:49Z</time>
      </trkpt>
      <trkpt lat="43.54508" lon="-0.91979">
        <ele>34</ele>
        <time>2021-05-08T08:34:50Z</time>
      </trkpt>
      <trkpt lat="43.54508" lon="-0.91981">
        <ele>34</ele>
        <time>2021-05-08T08:34:51Z</time>
      </trkpt>
      <trkpt lat="43.54508" lon="-0.91983">
        <ele>35</ele>
        <time>2021-05-08T08:34:52Z</time>
      </trkpt>
      <trkpt lat="43.54508" lon="-0.91985">
        <ele>35</ele>
        <time>2021-05-08T08:34:53Z</time>
      </trkpt>
      <trkpt lat="43.54507" lon="-0.91987">
        <ele>35</ele>
        <time>2021-05-08T08:34:54Z</time>
      </trkpt>
      <trkpt lat="43.54507" lon="-0.91989">
        <ele>35</ele>
        <time>2021-05-08T08:34:55Z</time>
      </trkpt>
      <trkpt lat="43.54506" lon="-0.91991">
        <ele>35</ele>
        <time>2021-05-08T08:34:56Z</time>
      </trkpt>
      <trkpt lat="43.54505" lon="-0.91994">
        <ele>36</ele>
        <time>2021-05-08T08:34:57Z</time>
      </trkpt>
      <trkpt lat="43.54504" lon="-0.91996">
        <ele>36</ele>
        <time>2021-05-08T08:34:58Z</time>
      </trkpt>
      <trkpt lat="43.54503" lon="-0.91998">
        <ele>36</ele>
        <time>2021-05-08T08:34:59Z</time>
      </trkpt>
      <trkpt lat="43.54502" lon="-0.92001">
        <ele>36</ele>
        <time>2021-05-08T08:35:00Z</time>
      </trkpt>
      <trkpt lat="43.54501" lon="-0.92003">
        <ele>36</ele>
        <time>2021-05-08T08:35:01Z</time>
      </trkpt>
      <trkpt lat="43.54501" lon="-0.92006">
        <ele>37</ele>
        <time>2021-05-08T08:35:02Z</time>
      </trkpt>
      <trkpt lat="43.545" lon="-0.92008">
        <ele>37</ele>
        <time>2021-05-08T08:35:03Z</time>
      </trkpt>
      <trkpt lat="43.545" lon="-0.92011">
        <ele>37</ele>
        <time>2021-05-08T08:35:04Z</time>
      </trkpt>
      <trkpt lat="43.54499" lon="-0.92013">
        <ele>37</ele>
        <time>2021-05-08T08:35:05Z</time>
      </trkpt>
      <trkpt lat="43.54498" lon="-0.92016">
        <ele>37</ele>
        <time>2021-05-08T08:35:06Z</time>
      </trkpt>
      <trkpt lat="43.54498" lon="-0.92019">
        <ele>38</ele>
        <time>2021-05-08T08:35:07Z</time>
      </trkpt>
      <trkpt lat="43.54498" lon="-0.92022">
        <ele>38</ele>
        <time>2021-05-08T08:35:08Z</time>
      </trkpt>
      <trkpt lat="43.54498" lon="-0.92025">
        <ele>38</ele>
        <time>2021-05-08T08:35:09Z</time>
      </trkpt>
      <trkpt lat="43.54498" lon="-0.92027">
        <ele>38</ele>
        <time>2021-05-08T08:35:10Z</time>
      </trkpt>
      <trkpt lat="43.54499" lon="-0.9203">
        <ele>38</ele>
        <time>2021-05-08T08:35:11Z</time>
      </trkpt>
      <trkpt lat="43.54498" lon="-0.92032">
        <ele>39</ele>
        <time>2021-05-08T08:35:12Z</time>
      </trkpt>
      <trkpt lat="43.54498" lon="-0.92034">
        <ele>39</ele>
        <time>2021-05-08T08:35:13Z</time>
      </trkpt>
      <trkpt lat="43.54497" lon="-0.92036">
        <ele>39</ele>
        <time>2021-05-08T08:35:14Z</time>
      </trkpt>
      <trkpt lat="43.54497" lon="-0.92037">
        <ele>39</ele>
        <time>2021-05-08T08:35:15Z</time>
      </trkpt>
      <trkpt lat="43.54495" lon="-0.92039">
        <ele>39</ele>
        <time>2021-05-08T08:35:16Z</time>
      </trkpt>
      <trkpt lat="43.54493" lon="-0.9204">
        <ele>40</ele>
        <time>2021-05-08T08:35:17Z</time>
      </trkpt>
      <trkpt lat="43.54491" lon="-0.92041">
        <ele>40</ele>
        <time>2021-05-08T08:35:18Z</time>
      </trkpt>
      <trkpt lat="43.54489" lon="-0.92042">
        <ele>40</ele>
        <time>2021-05-08T08:35:19Z</time>
      </trkpt>
      <trkpt lat="43.54487" lon="-0.92043">
        <ele>40</ele>
        <time>2021-05-08T08:35:20Z</time>
      </trkpt>
      <trkpt lat="43.54484" lon="-0.92044">
        <ele>40</ele>
        <time>2021-05-08T08:35:21Z</time>
      </trkpt>
      <trkpt lat="43.54482" lon="-0.92045">
        <ele>40</ele>
        <time>2021-05-08T08:35:22Z</time>
      </trkpt>
      <trkpt lat="43.5448" lon="-0.92045">
        <ele>39</ele>
        <time>2021-05-08T08:35:23Z</time>
      </trkpt>
      <trkpt lat="43.54477" lon="-0.92046">
        <ele>39</ele>
        <time>2021-05-08T08:35:24Z</time>
      </trkpt>
      <trkpt lat="43.54475" lon="-0.92047">
        <ele>39</ele>
        <time>2021-05-08T08:35:25Z</time>
      </trkpt>
      <trkpt lat="43.54472" lon="-0.92047">
        <ele>39</ele>
        <time>2021-05-08T08:35:26Z</time>
      </trkpt>
      <trkpt lat="43.54469" lon="-0.92047">
        <ele>39</ele>
        <time>2021-05-08T08:35:27Z</time>
      </trkpt>
      <trkpt lat="43.54467" lon="-0.92048">
        <ele>39</ele>
        <time>2021-05-08T08:35:28Z</time>
      </trkpt>
      <trkpt lat="43.54464" lon="-0.92048">
        <ele>39</ele>
        <time>2021-05-08T08:35:29Z</time>
      </trkpt>
      <trkpt lat="43.54461" lon="-0.92048">
        <ele>39</ele>
        <time>2021-05-08T08:35:30Z</time>
      </trkpt>
      <trkpt lat="43.54459" lon="-0.92049">
        <ele>39</ele>
        <time>2021-05-08T08:35:31Z</time>
      </trkpt>
      <trkpt lat="43.54456" lon="-0.92049">
        <ele>39</ele>
        <time>2021-05-08T08:35:32Z</time>
      </trkpt>
      <trkpt lat="43.54454" lon="-0.9205">
        <ele>39</ele>
        <time>2021-05-08T08:35:33Z</time>
      </trkpt>
      <trkpt lat="43.54452" lon="-0.9205">
        <ele>39</ele>
        <time>2021-05-08T08:35:34Z</time>
      </trkpt>
      <trkpt lat="43.5445" lon="-0.92051">
        <ele>39</ele>
        <time>2021-05-08T08:35:35Z</time>
      </trkpt>
      <trkpt lat="43.54448" lon="-0.9205">
        <ele>39</ele>
        <time>2021-05-08T08:35:36Z</time>
      </trkpt>
      <trkpt lat="43.54446" lon="-0.9205">
        <ele>39</ele>
        <time>2021-05-08T08:35:37Z</time>
      </trkpt>
      <trkpt lat="43.54445" lon="-0.92048">
        <ele>38</ele>
        <time>2021-05-08T08:35:38Z</time>
      </trkpt>
      <trkpt lat="43.54444" lon="-0.92047">
        <ele>38</ele>
        <time>2021-05-08T08:35:39Z</time>
      </trkpt>
      <trkpt lat="43.54443" lon="-0.92045">
        <ele>37</ele>
        <time>2021-05-08T08:35:40Z</time>
      </trkpt>
      <trkpt lat="43.54441" lon="-0.92044">
        <ele>37</ele>
        <time>2021-05-08T08:35:41Z</time>
      </trkpt>
      <trkpt lat="43.5444" lon="-0.92042">
        <ele>37</ele>
        <time>2021-05-08T08:35:42Z</time>
      </trkpt>
      <trkpt lat="43.54439" lon="-0.92041">
        <ele>36</ele>
        <time>2021-05-08T08:35:43Z</time>
      </trkpt>
      <trkpt lat="43.54439" lon="-0.92039">
        <ele>36</ele>
        <time>2021-05-08T08:35:44Z</time>
      </trkpt>
      <trkpt lat="43.54438" lon="-0.92038">
        <ele>36</ele>
        <time>2021-05-08T08:35:45Z</time>
      </trkpt>
      <trkpt lat="43.54437" lon="-0.92036">
        <ele>36</ele>
        <time>2021-05-08T08:35:46Z</time>
      </trkpt>
      <trkpt lat="43.54437" lon="-0.92034">
        <ele>36</ele>
        <time>2021-05-08T08:35:47Z</time>
      </trkpt>
      <trkpt lat="43.54436" lon="-0.92033">
        <ele>35</ele>
        <time>2021-05-08T08:35:48Z</time>
      </trkpt>
      <trkpt lat="43.54436" lon="-0.92031">
        <ele>35</ele>
        <time>2021-05-08T08:35:49Z</time>
      </trkpt>
      <trkpt lat="43.54435" lon="-0.92029">
        <ele>35</ele>
        <time>2021-05-08T08:35:50Z</time>
      </trkpt>
      <trkpt lat="43.54434" lon="-0.92027">
        <ele>35</ele>
        <time>2021-05-08T08:35:51Z</time>
      </trkpt>
      <trkpt lat="43.54432" lon="-0.92026">
        <ele>35</ele>
        <time>2021-05-08T08:35:52Z</time>
      </trkpt>
      <trkpt lat="43.54431" lon="-0.92027">
        <ele>34</ele>
        <time>2021-05-08T08:35:53Z</time>
      </trkpt>
      <trkpt lat="43.54429" lon="-0.92027">
        <ele>34</ele>
        <time>2021-05-08T08:35:54Z</time>
      </trkpt>
      <trkpt lat="43.54428" lon="-0.92029">
        <ele>33</ele>
        <time>2021-05-08T08:35:55Z</time>
      </trkpt>
      <trkpt lat="43.54426" lon="-0.92032">
        <ele>33</ele>
        <time>2021-05-08T08:35:56Z</time>
      </trkpt>
      <trkpt lat="43.54426" lon="-0.92035">
        <ele>33</ele>
        <time>2021-05-08T08:35:57Z</time>
      </trkpt>
      <trkpt lat="43.54425" lon="-0.92038">
        <ele>32</ele>
        <time>2021-05-08T08:35:58Z</time>
      </trkpt>
      <trkpt lat="43.54425" lon="-0.92042">
        <ele>32</ele>
        <time>2021-05-08T08:35:59Z</time>
      </trkpt>
      <trkpt lat="43.54425" lon="-0.92046">
        <ele>32</ele>
        <time>2021-05-08T08:36:00Z</time>
      </trkpt>
      <trkpt lat="43.54425" lon="-0.9205">
        <ele>32</ele>
        <time>2021-05-08T08:36:01Z</time>
      </trkpt>
      <trkpt lat="43.54424" lon="-0.92054">
        <ele>32</ele>
        <time>2021-05-08T08:36:02Z</time>
      </trkpt>
      <trkpt lat="43.54424" lon="-0.92058">
        <ele>31</ele>
        <time>2021-05-08T08:36:03Z</time>
      </trkpt>
      <trkpt lat="43.54424" lon="-0.92062">
        <ele>31</ele>
        <time>2021-05-08T08:36:04Z</time>
      </trkpt>
      <trkpt lat="43.54424" lon="-0.92066">
        <ele>31</ele>
        <time>2021-05-08T08:36:05Z</time>
      </trkpt>
      <trkpt lat="43.54424" lon="-0.92069">
        <ele>31</ele>
        <time>2021-05-08T08:36:06Z</time>
      </trkpt>
      <trkpt lat="43.54424" lon="-0.92072">
        <ele>31</ele>
        <time>2021-05-08T08:36:07Z</time>
      </trkpt>
      <trkpt lat="43.54423" lon="-0.92075">
        <ele>31</ele>
        <time>2021-05-08T08:36:08Z</time>
      </trkpt>
      <trkpt lat="43.54422" lon="-0.92078">
        <ele>31</ele>
        <time>2021-05-08T08:36:09Z</time>
      </trkpt>
      <trkpt lat="43.54421" lon="-0.9208">
        <ele>31</ele>
        <time>2021-05-08T08:36:10Z</time>
      </trkpt>
      <trkpt lat="43.54419" lon="-0.92082">
        <ele>31</ele>
        <time>2021-05-08T08:36:11Z</time>
      </trkpt>
      <trkpt lat="43.54418" lon="-0.92084">
        <ele>31</ele>
        <time>2021-05-08T08:36:12Z</time>
      </trkpt>
      <trkpt lat="43.54416" lon="-0.92085">
        <ele>31</ele>
        <time>2021-05-08T08:36:13Z</time>
      </trkpt>
      <trkpt lat="43.54414" lon="-0.92087">
        <ele>31</ele>
        <time>2021-05-08T08:36:14Z</time>
      </trkpt>
      <trkpt lat="43.54411" lon="-0.92087">
        <ele>31</ele>
        <time>2021-05-08T08:36:15Z</time>
      </trkpt>
      <trkpt lat="43.54409" lon="-0.92088">
        <ele>31</ele>
        <time>2021-05-08T08:36:16Z</time>
      </trkpt>
      <trkpt lat="43.54406" lon="-0.92088">
        <ele>31</ele>
        <time>2021-05-08T08:36:17Z</time>
      </trkpt>
      <trkpt lat="43.54404" lon="-0.92089">
        <ele>30</ele>
        <time>2021-05-08T08:36:18Z</time>
      </trkpt>
      <trkpt lat="43.54401" lon="-0.92089">
        <ele>30</ele>
        <time>2021-05-08T08:36:19Z</time>
      </trkpt>
      <trkpt lat="43.54398" lon="-0.9209">
        <ele>30</ele>
        <time>2021-05-08T08:36:20Z</time>
      </trkpt>
      <trkpt lat="43.54396" lon="-0.9209">
        <ele>30</ele>
        <time>2021-05-08T08:36:21Z</time>
      </trkpt>
      <trkpt lat="43.54393" lon="-0.92091">
        <ele>30</ele>
        <time>2021-05-08T08:36:22Z</time>
      </trkpt>
      <trkpt lat="43.5439" lon="-0.92092">
        <ele>30</ele>
        <time>2021-05-08T08:36:23Z</time>
      </trkpt>
      <trkpt lat="43.54388" lon="-0.92093">
        <ele>30</ele>
        <time>2021-05-08T08:36:24Z</time>
      </trkpt>
      <trkpt lat="43.54385" lon="-0.92093">
        <ele>30</ele>
        <time>2021-05-08T08:36:25Z</time>
      </trkpt>
      <trkpt lat="43.54383" lon="-0.92094">
        <ele>30</ele>
        <time>2021-05-08T08:36:26Z</time>
      </trkpt>
      <trkpt lat="43.5438" lon="-0.92094">
        <ele>30</ele>
        <time>2021-05-08T08:36:27Z</time>
      </trkpt>
      <trkpt lat="43.54378" lon="-0.92094">
        <ele>30</ele>
        <time>2021-05-08T08:36:28Z</time>
      </trkpt>
      <trkpt lat="43.54376" lon="-0.92094">
        <ele>30</ele>
        <time>2021-05-08T08:36:29Z</time>
      </trkpt>
      <trkpt lat="43.54374" lon="-0.92094">
        <ele>30</ele>
        <time>2021-05-08T08:36:30Z</time>
      </trkpt>
      <trkpt lat="43.54371" lon="-0.92093">
        <ele>30</ele>
        <time>2021-05-08T08:36:31Z</time>
      </trkpt>
      <trkpt lat="43.54369" lon="-0.92093">
        <ele>30</ele>
        <time>2021-05-08T08:36:32Z</time>
      </trkpt>
      <trkpt lat="43.54367" lon="-0.92092">
        <ele>29</ele>
        <time>2021-05-08T08:36:33Z</time>
      </trkpt>
      <trkpt lat="43.54365" lon="-0.92092">
        <ele>29</ele>
        <time>2021-05-08T08:36:34Z</time>
      </trkpt>
      <trkpt lat="43.54362" lon="-0.92092">
        <ele>29</ele>
        <time>2021-05-08T08:36:35Z</time>
      </trkpt>
      <trkpt lat="43.5436" lon="-0.92092">
        <ele>29</ele>
        <time>2021-05-08T08:36:36Z</time>
      </trkpt>
      <trkpt lat="43.54357" lon="-0.92092">
        <ele>29</ele>
        <time>2021-05-08T08:36:37Z</time>
      </trkpt>
      <trkpt lat="43.54354" lon="-0.92092">
        <ele>29</ele>
        <time>2021-05-08T08:36:38Z</time>
      </trkpt>
      <trkpt lat="43.54351" lon="-0.92093">
        <ele>29</ele>
        <time>2021-05-08T08:36:39Z</time>
      </trkpt>
      <trkpt lat="43.54348" lon="-0.92094">
        <ele>29</ele>
        <time>2021-05-08T08:36:40Z</time>
      </trkpt>
      <trkpt lat="43.54345" lon="-0.92094">
        <ele>29</ele>
        <time>2021-05-08T08:36:41Z</time>
      </trkpt>
      <trkpt lat="43.54342" lon="-0.92095">
        <ele>29</ele>
        <time>2021-05-08T08:36:42Z</time>
      </trkpt>
      <trkpt lat="43.5434" lon="-0.92097">
        <ele>29</ele>
        <time>2021-05-08T08:36:43Z</time>
      </trkpt>
      <trkpt lat="43.54338" lon="-0.92098">
        <ele>29</ele>
        <time>2021-05-08T08:36:44Z</time>
      </trkpt>
      <trkpt lat="43.54336" lon="-0.92101">
        <ele>29</ele>
        <time>2021-05-08T08:36:45Z</time>
      </trkpt>
      <trkpt lat="43.54334" lon="-0.92103">
        <ele>29</ele>
        <time>2021-05-08T08:36:46Z</time>
      </trkpt>
      <trkpt lat="43.54333" lon="-0.92106">
        <ele>30</ele>
        <time>2021-05-08T08:36:47Z</time>
      </trkpt>
      <trkpt lat="43.54331" lon="-0.92109">
        <ele>29</ele>
        <time>2021-05-08T08:36:48Z</time>
      </trkpt>
      <trkpt lat="43.5433" lon="-0.92113">
        <ele>29</ele>
        <time>2021-05-08T08:36:49Z</time>
      </trkpt>
      <trkpt lat="43.54328" lon="-0.92117">
        <ele>29</ele>
        <time>2021-05-08T08:36:50Z</time>
      </trkpt>
      <trkpt lat="43.54327" lon="-0.92121">
        <ele>29</ele>
        <time>2021-05-08T08:36:51Z</time>
      </trkpt>
      <trkpt lat="43.54325" lon="-0.92126">
        <ele>29</ele>
        <time>2021-05-08T08:36:52Z</time>
      </trkpt>
      <trkpt lat="43.54324" lon="-0.9213">
        <ele>28</ele>
        <time>2021-05-08T08:36:53Z</time>
      </trkpt>
      <trkpt lat="43.54323" lon="-0.92135">
        <ele>28</ele>
        <time>2021-05-08T08:36:54Z</time>
      </trkpt>
      <trkpt lat="43.54323" lon="-0.92139">
        <ele>28</ele>
        <time>2021-05-08T08:36:55Z</time>
      </trkpt>
      <trkpt lat="43.54322" lon="-0.92143">
        <ele>28</ele>
        <time>2021-05-08T08:36:56Z</time>
      </trkpt>
      <trkpt lat="43.54322" lon="-0.92148">
        <ele>28</ele>
        <time>2021-05-08T08:36:57Z</time>
      </trkpt>
      <trkpt lat="43.54321" lon="-0.92152">
        <ele>28</ele>
        <time>2021-05-08T08:36:58Z</time>
      </trkpt>
      <trkpt lat="43.54321" lon="-0.92156">
        <ele>28</ele>
        <time>2021-05-08T08:36:59Z</time>
      </trkpt>
      <trkpt lat="43.54321" lon="-0.9216">
        <ele>28</ele>
        <time>2021-05-08T08:37:00Z</time>
      </trkpt>
      <trkpt lat="43.54321" lon="-0.92164">
        <ele>28</ele>
        <time>2021-05-08T08:37:01Z</time>
      </trkpt>
      <trkpt lat="43.5432" lon="-0.92168">
        <ele>28</ele>
        <time>2021-05-08T08:37:02Z</time>
      </trkpt>
      <trkpt lat="43.5432" lon="-0.92171">
        <ele>28</ele>
        <time>2021-05-08T08:37:03Z</time>
      </trkpt>
      <trkpt lat="43.54319" lon="-0.92175">
        <ele>28</ele>
        <time>2021-05-08T08:37:04Z</time>
      </trkpt>
      <trkpt lat="43.54318" lon="-0.92178">
        <ele>28</ele>
        <time>2021-05-08T08:37:05Z</time>
      </trkpt>
      <trkpt lat="43.54318" lon="-0.92182">
        <ele>28</ele>
        <time>2021-05-08T08:37:06Z</time>
      </trkpt>
      <trkpt lat="43.54317" lon="-0.92185">
        <ele>28</ele>
        <time>2021-05-08T08:37:07Z</time>
      </trkpt>
      <trkpt lat="43.54316" lon="-0.92189">
        <ele>28</ele>
        <time>2021-05-08T08:37:08Z</time>
      </trkpt>
      <trkpt lat="43.54315" lon="-0.92192">
        <ele>28</ele>
        <time>2021-05-08T08:37:09Z</time>
      </trkpt>
      <trkpt lat="43.54314" lon="-0.92195">
        <ele>28</ele>
        <time>2021-05-08T08:37:10Z</time>
      </trkpt>
      <trkpt lat="43.54313" lon="-0.92199">
        <ele>28</ele>
        <time>2021-05-08T08:37:11Z</time>
      </trkpt>
      <trkpt lat="43.54312" lon="-0.92202">
        <ele>28</ele>
        <time>2021-05-08T08:37:12Z</time>
      </trkpt>
      <trkpt lat="43.54311" lon="-0.92205">
        <ele>28</ele>
        <time>2021-05-08T08:37:13Z</time>
      </trkpt>
      <trkpt lat="43.54311" lon="-0.92209">
        <ele>28</ele>
        <time>2021-05-08T08:37:14Z</time>
      </trkpt>
      <trkpt lat="43.5431" lon="-0.92212">
        <ele>28</ele>
        <time>2021-05-08T08:37:15Z</time>
      </trkpt>
      <trkpt lat="43.5431" lon="-0.92215">
        <ele>28</ele>
        <time>2021-05-08T08:37:16Z</time>
      </trkpt>
      <trkpt lat="43.54309" lon="-0.92219">
        <ele>28</ele>
        <time>2021-05-08T08:37:17Z</time>
      </trkpt>
      <trkpt lat="43.54309" lon="-0.92222">
        <ele>28</ele>
        <time>2021-05-08T08:37:18Z</time>
      </trkpt>
      <trkpt lat="43.54309" lon="-0.92226">
        <ele>28</ele>
        <time>2021-05-08T08:37:19Z</time>
      </trkpt>
      <trkpt lat="43.54308" lon="-0.92229">
        <ele>28</ele>
        <time>2021-05-08T08:37:20Z</time>
      </trkpt>
      <trkpt lat="43.54308" lon="-0.92232">
        <ele>28</ele>
        <time>2021-05-08T08:37:21Z</time>
      </trkpt>
      <trkpt lat="43.54307" lon="-0.92236">
        <ele>28</ele>
        <time>2021-05-08T08:37:22Z</time>
      </trkpt>
      <trkpt lat="43.54307" lon="-0.92239">
        <ele>27</ele>
        <time>2021-05-08T08:37:23Z</time>
      </trkpt>
      <trkpt lat="43.54306" lon="-0.92242">
        <ele>27</ele>
        <time>2021-05-08T08:37:24Z</time>
      </trkpt>
      <trkpt lat="43.54305" lon="-0.92245">
        <ele>27</ele>
        <time>2021-05-08T08:37:25Z</time>
      </trkpt>
      <trkpt lat="43.54305" lon="-0.92247">
        <ele>27</ele>
        <time>2021-05-08T08:37:26Z</time>
      </trkpt>
      <trkpt lat="43.54304" lon="-0.9225">
        <ele>27</ele>
        <time>2021-05-08T08:37:27Z</time>
      </trkpt>
      <trkpt lat="43.54303" lon="-0.92253">
        <ele>27</ele>
        <time>2021-05-08T08:37:28Z</time>
      </trkpt>
      <trkpt lat="43.54302" lon="-0.92256">
        <ele>27</ele>
        <time>2021-05-08T08:37:29Z</time>
      </trkpt>
      <trkpt lat="43.543" lon="-0.92258">
        <ele>27</ele>
        <time>2021-05-08T08:37:30Z</time>
      </trkpt>
      <trkpt lat="43.54299" lon="-0.92261">
        <ele>27</ele>
        <time>2021-05-08T08:37:31Z</time>
      </trkpt>
      <trkpt lat="43.54297" lon="-0.92264">
        <ele>27</ele>
        <time>2021-05-08T08:37:32Z</time>
      </trkpt>
      <trkpt lat="43.54296" lon="-0.92266">
        <ele>27</ele>
        <time>2021-05-08T08:37:33Z</time>
      </trkpt>
      <trkpt lat="43.54294" lon="-0.92269">
        <ele>27</ele>
        <time>2021-05-08T08:37:34Z</time>
      </trkpt>
      <trkpt lat="43.54292" lon="-0.9227">
        <ele>27</ele>
        <time>2021-05-08T08:37:35Z</time>
      </trkpt>
      <trkpt lat="43.5429" lon="-0.92271">
        <ele>27</ele>
        <time>2021-05-08T08:37:36Z</time>
      </trkpt>
      <trkpt lat="43.54288" lon="-0.92271">
        <ele>27</ele>
        <time>2021-05-08T08:37:37Z</time>
      </trkpt>
      <trkpt lat="43.54286" lon="-0.92272">
        <ele>27</ele>
        <time>2021-05-08T08:37:38Z</time>
      </trkpt>
      <trkpt lat="43.54283" lon="-0.92271">
        <ele>27</ele>
        <time>2021-05-08T08:37:39Z</time>
      </trkpt>
      <trkpt lat="43.54281" lon="-0.92271">
        <ele>27</ele>
        <time>2021-05-08T08:37:40Z</time>
      </trkpt>
      <trkpt lat="43.54278" lon="-0.92271">
        <ele>27</ele>
        <time>2021-05-08T08:37:41Z</time>
      </trkpt>
      <trkpt lat="43.54275" lon="-0.92271">
        <ele>27</ele>
        <time>2021-05-08T08:37:42Z</time>
      </trkpt>
      <trkpt lat="43.54272" lon="-0.9227">
        <ele>27</ele>
        <time>2021-05-08T08:37:43Z</time>
      </trkpt>
      <trkpt lat="43.5427" lon="-0.92269">
        <ele>27</ele>
        <time>2021-05-08T08:37:44Z</time>
      </trkpt>
      <trkpt lat="43.54268" lon="-0.92267">
        <ele>27</ele>
        <time>2021-05-08T08:37:45Z</time>
      </trkpt>
      <trkpt lat="43.54265" lon="-0.92266">
        <ele>27</ele>
        <time>2021-05-08T08:37:46Z</time>
      </trkpt>
      <trkpt lat="43.54264" lon="-0.92264">
        <ele>27</ele>
        <time>2021-05-08T08:37:47Z</time>
      </trkpt>
      <trkpt lat="43.54262" lon="-0.92262">
        <ele>26</ele>
        <time>2021-05-08T08:37:48Z</time>
      </trkpt>
      <trkpt lat="43.54261" lon="-0.92261">
        <ele>26</ele>
        <time>2021-05-08T08:37:49Z</time>
      </trkpt>
      <trkpt lat="43.5426" lon="-0.92259">
        <ele>26</ele>
        <time>2021-05-08T08:37:50Z</time>
      </trkpt>
      <trkpt lat="43.54258" lon="-0.92257">
        <ele>26</ele>
        <time>2021-05-08T08:37:51Z</time>
      </trkpt>
      <trkpt lat="43.54256" lon="-0.92255">
        <ele>26</ele>
        <time>2021-05-08T08:37:52Z</time>
      </trkpt>
      <trkpt lat="43.54254" lon="-0.92253">
        <ele>26</ele>
        <time>2021-05-08T08:37:53Z</time>
      </trkpt>
      <trkpt lat="43.54253" lon="-0.92252">
        <ele>26</ele>
        <time>2021-05-08T08:37:54Z</time>
      </trkpt>
      <trkpt lat="43.5425" lon="-0.92251">
        <ele>26</ele>
        <time>2021-05-08T08:37:55Z</time>
      </trkpt>
      <trkpt lat="43.54247" lon="-0.9225">
        <ele>26</ele>
        <time>2021-05-08T08:37:56Z</time>
      </trkpt>
      <trkpt lat="43.54244" lon="-0.92249">
        <ele>26</ele>
        <time>2021-05-08T08:37:57Z</time>
      </trkpt>
      <trkpt lat="43.54241" lon="-0.92249">
        <ele>26</ele>
        <time>2021-05-08T08:37:58Z</time>
      </trkpt>
      <trkpt lat="43.54237" lon="-0.92249">
        <ele>26</ele>
        <time>2021-05-08T08:37:59Z</time>
      </trkpt>
      <trkpt lat="43.54234" lon="-0.92249">
        <ele>26</ele>
        <time>2021-05-08T08:38:00Z</time>
      </trkpt>
      <trkpt lat="43.5423" lon="-0.92249">
        <ele>26</ele>
        <time>2021-05-08T08:38:01Z</time>
      </trkpt>
      <trkpt lat="43.54227" lon="-0.9225">
        <ele>26</ele>
        <time>2021-05-08T08:38:02Z</time>
      </trkpt>
      <trkpt lat="43.54224" lon="-0.9225">
        <ele>26</ele>
        <time>2021-05-08T08:38:03Z</time>
      </trkpt>
      <trkpt lat="43.54221" lon="-0.92251">
        <ele>26</ele>
        <time>2021-05-08T08:38:04Z</time>
      </trkpt>
      <trkpt lat="43.54218" lon="-0.92251">
        <ele>26</ele>
        <time>2021-05-08T08:38:05Z</time>
      </trkpt>
      <trkpt lat="43.54216" lon="-0.92252">
        <ele>26</ele>
        <time>2021-05-08T08:38:06Z</time>
      </trkpt>
      <trkpt lat="43.54214" lon="-0.92253">
        <ele>27</ele>
        <time>2021-05-08T08:38:07Z</time>
      </trkpt>
      <trkpt lat="43.54212" lon="-0.92254">
        <ele>27</ele>
        <time>2021-05-08T08:38:08Z</time>
      </trkpt>
      <trkpt lat="43.54211" lon="-0.92256">
        <ele>27</ele>
        <time>2021-05-08T08:38:09Z</time>
      </trkpt>
      <trkpt lat="43.54209" lon="-0.92257">
        <ele>27</ele>
        <time>2021-05-08T08:38:10Z</time>
      </trkpt>
      <trkpt lat="43.54208" lon="-0.9226">
        <ele>27</ele>
        <time>2021-05-08T08:38:11Z</time>
      </trkpt>
      <trkpt lat="43.54207" lon="-0.92262">
        <ele>27</ele>
        <time>2021-05-08T08:38:12Z</time>
      </trkpt>
      <trkpt lat="43.54206" lon="-0.92265">
        <ele>27</ele>
        <time>2021-05-08T08:38:13Z</time>
      </trkpt>
      <trkpt lat="43.54206" lon="-0.92267">
        <ele>27</ele>
        <time>2021-05-08T08:38:14Z</time>
      </trkpt>
      <trkpt lat="43.54206" lon="-0.92269">
        <ele>28</ele>
        <time>2021-05-08T08:38:15Z</time>
      </trkpt>
      <trkpt lat="43.54206" lon="-0.92272">
        <ele>28</ele>
        <time>2021-05-08T08:38:16Z</time>
      </trkpt>
      <trkpt lat="43.54206" lon="-0.92274">
        <ele>29</ele>
        <time>2021-05-08T08:38:17Z</time>
      </trkpt>
      <trkpt lat="43.54207" lon="-0.92275">
        <ele>29</ele>
        <time>2021-05-08T08:38:18Z</time>
      </trkpt>
      <trkpt lat="43.54207" lon="-0.92277">
        <ele>29</ele>
        <time>2021-05-08T08:38:19Z</time>
      </trkpt>
      <trkpt lat="43.54208" lon="-0.92278">
        <ele>30</ele>
        <time>2021-05-08T08:38:20Z</time>
      </trkpt>
      <trkpt lat="43.54209" lon="-0.92279">
        <ele>30</ele>
        <time>2021-05-08T08:38:21Z</time>
      </trkpt>
      <trkpt lat="43.54209" lon="-0.9228">
        <ele>31</ele>
        <time>2021-05-08T08:38:22Z</time>
      </trkpt>
      <trkpt lat="43.5421" lon="-0.92282">
        <ele>31</ele>
        <time>2021-05-08T08:38:23Z</time>
      </trkpt>
      <trkpt lat="43.54211" lon="-0.92283">
        <ele>31</ele>
        <time>2021-05-08T08:38:24Z</time>
      </trkpt>
      <trkpt lat="43.54212" lon="-0.92285">
        <ele>32</ele>
        <time>2021-05-08T08:38:25Z</time>
      </trkpt>
      <trkpt lat="43.54213" lon="-0.92286">
        <ele>32</ele>
        <time>2021-05-08T08:38:26Z</time>
      </trkpt>
      <trkpt lat="43.54215" lon="-0.92288">
        <ele>33</ele>
        <time>2021-05-08T08:38:27Z</time>
      </trkpt>
      <trkpt lat="43.54216" lon="-0.9229">
        <ele>33</ele>
        <time>2021-05-08T08:38:28Z</time>
      </trkpt>
      <trkpt lat="43.54218" lon="-0.92291">
        <ele>33</ele>
        <time>2021-05-08T08:38:29Z</time>
      </trkpt>
      <trkpt lat="43.5422" lon="-0.92292">
        <ele>34</ele>
        <time>2021-05-08T08:38:30Z</time>
      </trkpt>
      <trkpt lat="43.54222" lon="-0.92293">
        <ele>34</ele>
        <time>2021-05-08T08:38:31Z</time>
      </trkpt>
      <trkpt lat="43.54224" lon="-0.92294">
        <ele>35</ele>
        <time>2021-05-08T08:38:32Z</time>
      </trkpt>
      <trkpt lat="43.54226" lon="-0.92294">
        <ele>35</ele>
        <time>2021-05-08T08:38:33Z</time>
      </trkpt>
      <trkpt lat="43.54228" lon="-0.92294">
        <ele>35</ele>
        <time>2021-05-08T08:38:34Z</time>
      </trkpt>
      <trkpt lat="43.5423" lon="-0.92294">
        <ele>35</ele>
        <time>2021-05-08T08:38:35Z</time>
      </trkpt>
      <trkpt lat="43.54233" lon="-0.92294">
        <ele>35</ele>
        <time>2021-05-08T08:38:36Z</time>
      </trkpt>
      <trkpt lat="43.54235" lon="-0.92294">
        <ele>35</ele>
        <time>2021-05-08T08:38:37Z</time>
      </trkpt>
      <trkpt lat="43.54237" lon="-0.92295">
        <ele>35</ele>
        <time>2021-05-08T08:38:38Z</time>
      </trkpt>
      <trkpt lat="43.54239" lon="-0.92296">
        <ele>35</ele>
        <time>2021-05-08T08:38:39Z</time>
      </trkpt>
      <trkpt lat="43.54241" lon="-0.92297">
        <ele>36</ele>
        <time>2021-05-08T08:38:40Z</time>
      </trkpt>
      <trkpt lat="43.54243" lon="-0.92298">
        <ele>36</ele>
        <time>2021-05-08T08:38:41Z</time>
      </trkpt>
      <trkpt lat="43.54245" lon="-0.923">
        <ele>37</ele>
        <time>2021-05-08T08:38:42Z</time>
      </trkpt>
      <trkpt lat="43.54247" lon="-0.92302">
        <ele>37</ele>
        <time>2021-05-08T08:38:43Z</time>
      </trkpt>
      <trkpt lat="43.54249" lon="-0.92303">
        <ele>37</ele>
        <time>2021-05-08T08:38:44Z</time>
      </trkpt>
      <trkpt lat="43.54251" lon="-0.92305">
        <ele>37</ele>
        <time>2021-05-08T08:38:45Z</time>
      </trkpt>
      <trkpt lat="43.54253" lon="-0.92307">
        <ele>37</ele>
        <time>2021-05-08T08:38:46Z</time>
      </trkpt>
      <trkpt lat="43.54255" lon="-0.92309">
        <ele>37</ele>
        <time>2021-05-08T08:38:47Z</time>
      </trkpt>
      <trkpt lat="43.54257" lon="-0.9231">
        <ele>37</ele>
        <time>2021-05-08T08:38:48Z</time>
      </trkpt>
      <trkpt lat="43.54259" lon="-0.92312">
        <ele>37</ele>
        <time>2021-05-08T08:38:49Z</time>
      </trkpt>
      <trkpt lat="43.54261" lon="-0.92313">
        <ele>37</ele>
        <time>2021-05-08T08:38:50Z</time>
      </trkpt>
      <trkpt lat="43.54264" lon="-0.92314">
        <ele>37</ele>
        <time>2021-05-08T08:38:51Z</time>
      </trkpt>
      <trkpt lat="43.54266" lon="-0.92315">
        <ele>38</ele>
        <time>2021-05-08T08:38:52Z</time>
      </trkpt>
      <trkpt lat="43.54268" lon="-0.92316">
        <ele>38</ele>
        <time>2021-05-08T08:38:53Z</time>
      </trkpt>
      <trkpt lat="43.54271" lon="-0.92317">
        <ele>38</ele>
        <time>2021-05-08T08:38:54Z</time>
      </trkpt>
      <trkpt lat="43.54273" lon="-0.92318">
        <ele>38</ele>
        <time>2021-05-08T08:38:55Z</time>
      </trkpt>
      <trkpt lat="43.54276" lon="-0.92318">
        <ele>38</ele>
        <time>2021-05-08T08:38:56Z</time>
      </trkpt>
      <trkpt lat="43.54278" lon="-0.92319">
        <ele>38</ele>
        <time>2021-05-08T08:38:57Z</time>
      </trkpt>
      <trkpt lat="43.5428" lon="-0.92319">
        <ele>38</ele>
        <time>2021-05-08T08:38:58Z</time>
      </trkpt>
      <trkpt lat="43.54283" lon="-0.92319">
        <ele>38</ele>
        <time>2021-05-08T08:38:59Z</time>
      </trkpt>
      <trkpt lat="43.54285" lon="-0.9232">
        <ele>38</ele>
        <time>2021-05-08T08:39:00Z</time>
      </trkpt>
      <trkpt lat="43.54288" lon="-0.9232">
        <ele>38</ele>
        <time>2021-05-08T08:39:01Z</time>
      </trkpt>
      <trkpt lat="43.5429" lon="-0.92321">
        <ele>38</ele>
        <time>2021-05-08T08:39:02Z</time>
      </trkpt>
      <trkpt lat="43.54293" lon="-0.92321">
        <ele>37</ele>
        <time>2021-05-08T08:39:03Z</time>
      </trkpt>
      <trkpt lat="43.54295" lon="-0.92321">
        <ele>37</ele>
        <time>2021-05-08T08:39:04Z</time>
      </trkpt>
      <trkpt lat="43.54298" lon="-0.92322">
        <ele>37</ele>
        <time>2021-05-08T08:39:05Z</time>
      </trkpt>
      <trkpt lat="43.543" lon="-0.92324">
        <ele>37</ele>
        <time>2021-05-08T08:39:06Z</time>
      </trkpt>
      <trkpt lat="43.54302" lon="-0.92326">
        <ele>37</ele>
        <time>2021-05-08T08:39:07Z</time>
      </trkpt>
      <trkpt lat="43.54303" lon="-0.92328">
        <ele>37</ele>
        <time>2021-05-08T08:39:08Z</time>
      </trkpt>
      <trkpt lat="43.54305" lon="-0.9233">
        <ele>37</ele>
        <time>2021-05-08T08:39:09Z</time>
      </trkpt>
      <trkpt lat="43.54307" lon="-0.92333">
        <ele>37</ele>
        <time>2021-05-08T08:39:10Z</time>
      </trkpt>
      <trkpt lat="43.54309" lon="-0.92336">
        <ele>37</ele>
        <time>2021-05-08T08:39:11Z</time>
      </trkpt>
      <trkpt lat="43.54311" lon="-0.92338">
        <ele>38</ele>
        <time>2021-05-08T08:39:12Z</time>
      </trkpt>
      <trkpt lat="43.54313" lon="-0.92339">
        <ele>38</ele>
        <time>2021-05-08T08:39:13Z</time>
      </trkpt>
      <trkpt lat="43.54315" lon="-0.92341">
        <ele>38</ele>
        <time>2021-05-08T08:39:14Z</time>
      </trkpt>
      <trkpt lat="43.54317" lon="-0.92342">
        <ele>38</ele>
        <time>2021-05-08T08:39:15Z</time>
      </trkpt>
      <trkpt lat="43.54319" lon="-0.92344">
        <ele>38</ele>
        <time>2021-05-08T08:39:16Z</time>
      </trkpt>
      <trkpt lat="43.5432" lon="-0.92345">
        <ele>39</ele>
        <time>2021-05-08T08:39:17Z</time>
      </trkpt>
      <trkpt lat="43.54322" lon="-0.92347">
        <ele>39</ele>
        <time>2021-05-08T08:39:18Z</time>
      </trkpt>
      <trkpt lat="43.54323" lon="-0.92348">
        <ele>39</ele>
        <time>2021-05-08T08:39:19Z</time>
      </trkpt>
      <trkpt lat="43.54324" lon="-0.9235">
        <ele>39</ele>
        <time>2021-05-08T08:39:20Z</time>
      </trkpt>
      <trkpt lat="43.54326" lon="-0.92352">
        <ele>39</ele>
        <time>2021-05-08T08:39:21Z</time>
      </trkpt>
      <trkpt lat="43.54327" lon="-0.92354">
        <ele>40</ele>
        <time>2021-05-08T08:39:22Z</time>
      </trkpt>
      <trkpt lat="43.54329" lon="-0.92356">
        <ele>40</ele>
        <time>2021-05-08T08:39:23Z</time>
      </trkpt>
      <trkpt lat="43.5433" lon="-0.92358">
        <ele>40</ele>
        <time>2021-05-08T08:39:24Z</time>
      </trkpt>
      <trkpt lat="43.54331" lon="-0.9236">
        <ele>40</ele>
        <time>2021-05-08T08:39:25Z</time>
      </trkpt>
      <trkpt lat="43.54332" lon="-0.92362">
        <ele>40</ele>
        <time>2021-05-08T08:39:26Z</time>
      </trkpt>
      <trkpt lat="43.54333" lon="-0.92365">
        <ele>41</ele>
        <time>2021-05-08T08:39:27Z</time>
      </trkpt>
      <trkpt lat="43.54335" lon="-0.92368">
        <ele>41</ele>
        <time>2021-05-08T08:39:28Z</time>
      </trkpt>
      <trkpt lat="43.54336" lon="-0.9237">
        <ele>41</ele>
        <time>2021-05-08T08:39:29Z</time>
      </trkpt>
      <trkpt lat="43.54338" lon="-0.92373">
        <ele>41</ele>
        <time>2021-05-08T08:39:30Z</time>
      </trkpt>
      <trkpt lat="43.54339" lon="-0.92376">
        <ele>41</ele>
        <time>2021-05-08T08:39:31Z</time>
      </trkpt>
      <trkpt lat="43.54341" lon="-0.92379">
        <ele>41</ele>
        <time>2021-05-08T08:39:32Z</time>
      </trkpt>
      <trkpt lat="43.54343" lon="-0.92381">
        <ele>41</ele>
        <time>2021-05-08T08:39:33Z</time>
      </trkpt>
      <trkpt lat="43.54345" lon="-0.92383">
        <ele>41</ele>
        <time>2021-05-08T08:39:34Z</time>
      </trkpt>
      <trkpt lat="43.54347" lon="-0.92385">
        <ele>41</ele>
        <time>2021-05-08T08:39:35Z</time>
      </trkpt>
      <trkpt lat="43.54349" lon="-0.92387">
        <ele>41</ele>
        <time>2021-05-08T08:39:36Z</time>
      </trkpt>
      <trkpt lat="43.54351" lon="-0.92388">
        <ele>42</ele>
        <time>2021-05-08T08:39:37Z</time>
      </trkpt>
      <trkpt lat="43.54353" lon="-0.92389">
        <ele>42</ele>
        <time>2021-05-08T08:39:38Z</time>
      </trkpt>
      <trkpt lat="43.54355" lon="-0.92391">
        <ele>42</ele>
        <time>2021-05-08T08:39:39Z</time>
      </trkpt>
      <trkpt lat="43.54357" lon="-0.92392">
        <ele>42</ele>
        <time>2021-05-08T08:39:40Z</time>
      </trkpt>
      <trkpt lat="43.54359" lon="-0.92393">
        <ele>42</ele>
        <time>2021-05-08T08:39:41Z</time>
      </trkpt>
      <trkpt lat="43.54361" lon="-0.92394">
        <ele>42</ele>
        <time>2021-05-08T08:39:42Z</time>
      </trkpt>
      <trkpt lat="43.54363" lon="-0.92396">
        <ele>42</ele>
        <time>2021-05-08T08:39:43Z</time>
      </trkpt>
      <trkpt lat="43.54365" lon="-0.92398">
        <ele>42</ele>
        <time>2021-05-08T08:39:44Z</time>
      </trkpt>
      <trkpt lat="43.54366" lon="-0.924">
        <ele>42</ele>
        <time>2021-05-08T08:39:45Z</time>
      </trkpt>
      <trkpt lat="43.54368" lon="-0.92402">
        <ele>42</ele>
        <time>2021-05-08T08:39:46Z</time>
      </trkpt>
      <trkpt lat="43.54369" lon="-0.92404">
        <ele>42</ele>
        <time>2021-05-08T08:39:47Z</time>
      </trkpt>
      <trkpt lat="43.54371" lon="-0.92406">
        <ele>42</ele>
        <time>2021-05-08T08:39:48Z</time>
      </trkpt>
      <trkpt lat="43.54372" lon="-0.92409">
        <ele>42</ele>
        <time>2021-05-08T08:39:49Z</time>
      </trkpt>
      <trkpt lat="43.54373" lon="-0.92411">
        <ele>42</ele>
        <time>2021-05-08T08:39:50Z</time>
      </trkpt>
      <trkpt lat="43.54375" lon="-0.92414">
        <ele>42</ele>
        <time>2021-05-08T08:39:51Z</time>
      </trkpt>
      <trkpt lat="43.54377" lon="-0.92417">
        <ele>42</ele>
        <time>2021-05-08T08:39:52Z</time>
      </trkpt>
      <trkpt lat="43.54378" lon="-0.92419">
        <ele>42</ele>
        <time>2021-05-08T08:39:53Z</time>
      </trkpt>
      <trkpt lat="43.5438" lon="-0.92422">
        <ele>42</ele>
        <time>2021-05-08T08:39:54Z</time>
      </trkpt>
      <trkpt lat="43.54382" lon="-0.92424">
        <ele>42</ele>
        <time>2021-05-08T08:39:55Z</time>
      </trkpt>
      <trkpt lat="43.54384" lon="-0.92426">
        <ele>42</ele>
        <time>2021-05-08T08:39:56Z</time>
      </trkpt>
      <trkpt lat="43.54385" lon="-0.92428">
        <ele>42</ele>
        <time>2021-05-08T08:39:57Z</time>
      </trkpt>
      <trkpt lat="43.54387" lon="-0.9243">
        <ele>42</ele>
        <time>2021-05-08T08:39:58Z</time>
      </trkpt>
      <trkpt lat="43.54388" lon="-0.92432">
        <ele>42</ele>
        <time>2021-05-08T08:39:59Z</time>
      </trkpt>
      <trkpt lat="43.5439" lon="-0.92434">
        <ele>42</ele>
        <time>2021-05-08T08:40:00Z</time>
      </trkpt>
      <trkpt lat="43.54391" lon="-0.92435">
        <ele>42</ele>
        <time>2021-05-08T08:40:01Z</time>
      </trkpt>
      <trkpt lat="43.54392" lon="-0.92437">
        <ele>42</ele>
        <time>2021-05-08T08:40:02Z</time>
      </trkpt>
      <trkpt lat="43.54393" lon="-0.92439">
        <ele>42</ele>
        <time>2021-05-08T08:40:03Z</time>
      </trkpt>
      <trkpt lat="43.54394" lon="-0.92442">
        <ele>42</ele>
        <time>2021-05-08T08:40:04Z</time>
      </trkpt>
      <trkpt lat="43.54395" lon="-0.92444">
        <ele>42</ele>
        <time>2021-05-08T08:40:05Z</time>
      </trkpt>
      <trkpt lat="43.54396" lon="-0.92446">
        <ele>42</ele>
        <time>2021-05-08T08:40:06Z</time>
      </trkpt>
      <trkpt lat="43.54397" lon="-0.92449">
        <ele>43</ele>
        <time>2021-05-08T08:40:07Z</time>
      </trkpt>
      <trkpt lat="43.54398" lon="-0.92451">
        <ele>43</ele>
        <time>2021-05-08T08:40:08Z</time>
      </trkpt>
      <trkpt lat="43.54398" lon="-0.92454">
        <ele>43</ele>
        <time>2021-05-08T08:40:09Z</time>
      </trkpt>
      <trkpt lat="43.54399" lon="-0.92456">
        <ele>43</ele>
        <time>2021-05-08T08:40:10Z</time>
      </trkpt>
      <trkpt lat="43.544" lon="-0.92458">
        <ele>43</ele>
        <time>2021-05-08T08:40:11Z</time>
      </trkpt>
      <trkpt lat="43.54401" lon="-0.92461">
        <ele>44</ele>
        <time>2021-05-08T08:40:12Z</time>
      </trkpt>
      <trkpt lat="43.54402" lon="-0.92463">
        <ele>44</ele>
        <time>2021-05-08T08:40:13Z</time>
      </trkpt>
      <trkpt lat="43.54403" lon="-0.92465">
        <ele>44</ele>
        <time>2021-05-08T08:40:14Z</time>
      </trkpt>
      <trkpt lat="43.54403" lon="-0.92467">
        <ele>44</ele>
        <time>2021-05-08T08:40:15Z</time>
      </trkpt>
      <trkpt lat="43.54404" lon="-0.9247">
        <ele>44</ele>
        <time>2021-05-08T08:40:16Z</time>
      </trkpt>
      <trkpt lat="43.54404" lon="-0.92472">
        <ele>44</ele>
        <time>2021-05-08T08:40:17Z</time>
      </trkpt>
      <trkpt lat="43.54403" lon="-0.92474">
        <ele>44</ele>
        <time>2021-05-08T08:40:18Z</time>
      </trkpt>
      <trkpt lat="43.54403" lon="-0.92477">
        <ele>44</ele>
        <time>2021-05-08T08:40:19Z</time>
      </trkpt>
      <trkpt lat="43.54403" lon="-0.92479">
        <ele>44</ele>
        <time>2021-05-08T08:40:20Z</time>
      </trkpt>
      <trkpt lat="43.54402" lon="-0.92481">
        <ele>44</ele>
        <time>2021-05-08T08:40:21Z</time>
      </trkpt>
      <trkpt lat="43.54401" lon="-0.92483">
        <ele>45</ele>
        <time>2021-05-08T08:40:22Z</time>
      </trkpt>
      <trkpt lat="43.544" lon="-0.92485">
        <ele>45</ele>
        <time>2021-05-08T08:40:23Z</time>
      </trkpt>
      <trkpt lat="43.54399" lon="-0.92487">
        <ele>45</ele>
        <time>2021-05-08T08:40:24Z</time>
      </trkpt>
      <trkpt lat="43.54397" lon="-0.92489">
        <ele>45</ele>
        <time>2021-05-08T08:40:25Z</time>
      </trkpt>
      <trkpt lat="43.54395" lon="-0.92491">
        <ele>45</ele>
        <time>2021-05-08T08:40:26Z</time>
      </trkpt>
      <trkpt lat="43.54392" lon="-0.92493">
        <ele>46</ele>
        <time>2021-05-08T08:40:27Z</time>
      </trkpt>
      <trkpt lat="43.5439" lon="-0.92495">
        <ele>46</ele>
        <time>2021-05-08T08:40:28Z</time>
      </trkpt>
      <trkpt lat="43.54387" lon="-0.92496">
        <ele>46</ele>
        <time>2021-05-08T08:40:29Z</time>
      </trkpt>
      <trkpt lat="43.54385" lon="-0.92498">
        <ele>46</ele>
        <time>2021-05-08T08:40:30Z</time>
      </trkpt>
      <trkpt lat="43.54382" lon="-0.92499">
        <ele>46</ele>
        <time>2021-05-08T08:40:31Z</time>
      </trkpt>
      <trkpt lat="43.5438" lon="-0.925">
        <ele>46</ele>
        <time>2021-05-08T08:40:32Z</time>
      </trkpt>
      <trkpt lat="43.54378" lon="-0.92502">
        <ele>46</ele>
        <time>2021-05-08T08:40:33Z</time>
      </trkpt>
      <trkpt lat="43.54376" lon="-0.92503">
        <ele>46</ele>
        <time>2021-05-08T08:40:34Z</time>
      </trkpt>
      <trkpt lat="43.54375" lon="-0.92505">
        <ele>46</ele>
        <time>2021-05-08T08:40:35Z</time>
      </trkpt>
      <trkpt lat="43.54374" lon="-0.92508">
        <ele>46</ele>
        <time>2021-05-08T08:40:36Z</time>
      </trkpt>
      <trkpt lat="43.54374" lon="-0.9251">
        <ele>46</ele>
        <time>2021-05-08T08:40:37Z</time>
      </trkpt>
      <trkpt lat="43.54375" lon="-0.92513">
        <ele>46</ele>
        <time>2021-05-08T08:40:38Z</time>
      </trkpt>
      <trkpt lat="43.54376" lon="-0.92516">
        <ele>46</ele>
        <time>2021-05-08T08:40:39Z</time>
      </trkpt>
      <trkpt lat="43.54378" lon="-0.92518">
        <ele>46</ele>
        <time>2021-05-08T08:40:40Z</time>
      </trkpt>
      <trkpt lat="43.5438" lon="-0.9252">
        <ele>46</ele>
        <time>2021-05-08T08:40:41Z</time>
      </trkpt>
      <trkpt lat="43.54383" lon="-0.92522">
        <ele>46</ele>
        <time>2021-05-08T08:40:42Z</time>
      </trkpt>
      <trkpt lat="43.54385" lon="-0.92524">
        <ele>46</ele>
        <time>2021-05-08T08:40:43Z</time>
      </trkpt>
      <trkpt lat="43.54388" lon="-0.92526">
        <ele>46</ele>
        <time>2021-05-08T08:40:44Z</time>
      </trkpt>
      <trkpt lat="43.5439" lon="-0.92527">
        <ele>46</ele>
        <time>2021-05-08T08:40:45Z</time>
      </trkpt>
      <trkpt lat="43.54393" lon="-0.92529">
        <ele>46</ele>
        <time>2021-05-08T08:40:46Z</time>
      </trkpt>
      <trkpt lat="43.54395" lon="-0.9253">
        <ele>46</ele>
        <time>2021-05-08T08:40:47Z</time>
      </trkpt>
      <trkpt lat="43.54398" lon="-0.9253">
        <ele>46</ele>
        <time>2021-05-08T08:40:48Z</time>
      </trkpt>
      <trkpt lat="43.544" lon="-0.92531">
        <ele>46</ele>
        <time>2021-05-08T08:40:49Z</time>
      </trkpt>
      <trkpt lat="43.54403" lon="-0.92531">
        <ele>46</ele>
        <time>2021-05-08T08:40:50Z</time>
      </trkpt>
      <trkpt lat="43.54406" lon="-0.92531">
        <ele>46</ele>
        <time>2021-05-08T08:40:51Z</time>
      </trkpt>
      <trkpt lat="43.54408" lon="-0.92531">
        <ele>46</ele>
        <time>2021-05-08T08:40:52Z</time>
      </trkpt>
      <trkpt lat="43.54411" lon="-0.92532">
        <ele>45</ele>
        <time>2021-05-08T08:40:53Z</time>
      </trkpt>
      <trkpt lat="43.54414" lon="-0.92532">
        <ele>45</ele>
        <time>2021-05-08T08:40:54Z</time>
      </trkpt>
      <trkpt lat="43.54416" lon="-0.92532">
        <ele>45</ele>
        <time>2021-05-08T08:40:55Z</time>
      </trkpt>
      <trkpt lat="43.54419" lon="-0.92532">
        <ele>45</ele>
        <time>2021-05-08T08:40:56Z</time>
      </trkpt>
      <trkpt lat="43.54421" lon="-0.92533">
        <ele>45</ele>
        <time>2021-05-08T08:40:57Z</time>
      </trkpt>
      <trkpt lat="43.54424" lon="-0.92533">
        <ele>45</ele>
        <time>2021-05-08T08:40:58Z</time>
      </trkpt>
      <trkpt lat="43.54426" lon="-0.92533">
        <ele>45</ele>
        <time>2021-05-08T08:40:59Z</time>
      </trkpt>
      <trkpt lat="43.54428" lon="-0.92533">
        <ele>45</ele>
        <time>2021-05-08T08:41:00Z</time>
      </trkpt>
      <trkpt lat="43.54431" lon="-0.92533">
        <ele>45</ele>
        <time>2021-05-08T08:41:01Z</time>
      </trkpt>
      <trkpt lat="43.54433" lon="-0.92534">
        <ele>45</ele>
        <time>2021-05-08T08:41:02Z</time>
      </trkpt>
      <trkpt lat="43.54436" lon="-0.92534">
        <ele>45</ele>
        <time>2021-05-08T08:41:03Z</time>
      </trkpt>
      <trkpt lat="43.54438" lon="-0.92534">
        <ele>45</ele>
        <time>2021-05-08T08:41:04Z</time>
      </trkpt>
      <trkpt lat="43.54441" lon="-0.92534">
        <ele>45</ele>
        <time>2021-05-08T08:41:05Z</time>
      </trkpt>
      <trkpt lat="43.54443" lon="-0.92534">
        <ele>45</ele>
        <time>2021-05-08T08:41:06Z</time>
      </trkpt>
      <trkpt lat="43.54446" lon="-0.92534">
        <ele>45</ele>
        <time>2021-05-08T08:41:07Z</time>
      </trkpt>
      <trkpt lat="43.54449" lon="-0.92535">
        <ele>45</ele>
        <time>2021-05-08T08:41:08Z</time>
      </trkpt>
      <trkpt lat="43.54451" lon="-0.92536">
        <ele>45</ele>
        <time>2021-05-08T08:41:09Z</time>
      </trkpt>
      <trkpt lat="43.54453" lon="-0.92538">
        <ele>45</ele>
        <time>2021-05-08T08:41:10Z</time>
      </trkpt>
      <trkpt lat="43.54456" lon="-0.9254">
        <ele>45</ele>
        <time>2021-05-08T08:41:11Z</time>
      </trkpt>
      <trkpt lat="43.54457" lon="-0.92543">
        <ele>45</ele>
        <time>2021-05-08T08:41:12Z</time>
      </trkpt>
      <trkpt lat="43.54458" lon="-0.92545">
        <ele>45</ele>
        <time>2021-05-08T08:41:13Z</time>
      </trkpt>
      <trkpt lat="43.54459" lon="-0.92548">
        <ele>45</ele>
        <time>2021-05-08T08:41:14Z</time>
      </trkpt>
      <trkpt lat="43.5446" lon="-0.92551">
        <ele>45</ele>
        <time>2021-05-08T08:41:15Z</time>
      </trkpt>
      <trkpt lat="43.5446" lon="-0.92555">
        <ele>45</ele>
        <time>2021-05-08T08:41:16Z</time>
      </trkpt>
      <trkpt lat="43.5446" lon="-0.92558">
        <ele>45</ele>
        <time>2021-05-08T08:41:17Z</time>
      </trkpt>
      <trkpt lat="43.54461" lon="-0.92562">
        <ele>44</ele>
        <time>2021-05-08T08:41:18Z</time>
      </trkpt>
      <trkpt lat="43.54461" lon="-0.92566">
        <ele>44</ele>
        <time>2021-05-08T08:41:19Z</time>
      </trkpt>
      <trkpt lat="43.54461" lon="-0.9257">
        <ele>44</ele>
        <time>2021-05-08T08:41:20Z</time>
      </trkpt>
      <trkpt lat="43.54461" lon="-0.92573">
        <ele>44</ele>
        <time>2021-05-08T08:41:21Z</time>
      </trkpt>
      <trkpt lat="43.54462" lon="-0.92577">
        <ele>44</ele>
        <time>2021-05-08T08:41:22Z</time>
      </trkpt>
      <trkpt lat="43.54462" lon="-0.92581">
        <ele>44</ele>
        <time>2021-05-08T08:41:23Z</time>
      </trkpt>
      <trkpt lat="43.54462" lon="-0.92585">
        <ele>44</ele>
        <time>2021-05-08T08:41:24Z</time>
      </trkpt>
      <trkpt lat="43.54463" lon="-0.92588">
        <ele>44</ele>
        <time>2021-05-08T08:41:25Z</time>
      </trkpt>
      <trkpt lat="43.54463" lon="-0.92592">
        <ele>44</ele>
        <time>2021-05-08T08:41:26Z</time>
      </trkpt>
      <trkpt lat="43.54463" lon="-0.92596">
        <ele>44</ele>
        <time>2021-05-08T08:41:27Z</time>
      </trkpt>
      <trkpt lat="43.54463" lon="-0.926">
        <ele>44</ele>
        <time>2021-05-08T08:41:28Z</time>
      </trkpt>
      <trkpt lat="43.54464" lon="-0.92603">
        <ele>44</ele>
        <time>2021-05-08T08:41:29Z</time>
      </trkpt>
      <trkpt lat="43.54464" lon="-0.92607">
        <ele>44</ele>
        <time>2021-05-08T08:41:30Z</time>
      </trkpt>
      <trkpt lat="43.54464" lon="-0.92611">
        <ele>44</ele>
        <time>2021-05-08T08:41:31Z</time>
      </trkpt>
      <trkpt lat="43.54464" lon="-0.92614">
        <ele>44</ele>
        <time>2021-05-08T08:41:32Z</time>
      </trkpt>
      <trkpt lat="43.54464" lon="-0.92618">
        <ele>44</ele>
        <time>2021-05-08T08:41:33Z</time>
      </trkpt>
      <trkpt lat="43.54464" lon="-0.92621">
        <ele>44</ele>
        <time>2021-05-08T08:41:34Z</time>
      </trkpt>
      <trkpt lat="43.54464" lon="-0.92625">
        <ele>44</ele>
        <time>2021-05-08T08:41:35Z</time>
      </trkpt>
      <trkpt lat="43.54464" lon="-0.92628">
        <ele>44</ele>
        <time>2021-05-08T08:41:36Z</time>
      </trkpt>
      <trkpt lat="43.54465" lon="-0.92632">
        <ele>45</ele>
        <time>2021-05-08T08:41:37Z</time>
      </trkpt>
      <trkpt lat="43.54465" lon="-0.92636">
        <ele>45</ele>
        <time>2021-05-08T08:41:38Z</time>
      </trkpt>
      <trkpt lat="43.54465" lon="-0.92639">
        <ele>45</ele>
        <time>2021-05-08T08:41:39Z</time>
      </trkpt>
      <trkpt lat="43.54466" lon="-0.92642">
        <ele>45</ele>
        <time>2021-05-08T08:41:40Z</time>
      </trkpt>
      <trkpt lat="43.54466" lon="-0.92646">
        <ele>45</ele>
        <time>2021-05-08T08:41:41Z</time>
      </trkpt>
      <trkpt lat="43.54467" lon="-0.92649">
        <ele>46</ele>
        <time>2021-05-08T08:41:42Z</time>
      </trkpt>
      <trkpt lat="43.54467" lon="-0.92652">
        <ele>45</ele>
        <time>2021-05-08T08:41:43Z</time>
      </trkpt>
      <trkpt lat="43.54467" lon="-0.92655">
        <ele>45</ele>
        <time>2021-05-08T08:41:44Z</time>
      </trkpt>
      <trkpt lat="43.54468" lon="-0.92659">
        <ele>45</ele>
        <time>2021-05-08T08:41:45Z</time>
      </trkpt>
      <trkpt lat="43.54468" lon="-0.92662">
        <ele>45</ele>
        <time>2021-05-08T08:41:46Z</time>
      </trkpt>
      <trkpt lat="43.54468" lon="-0.92665">
        <ele>45</ele>
        <time>2021-05-08T08:41:47Z</time>
      </trkpt>
      <trkpt lat="43.54468" lon="-0.92668">
        <ele>45</ele>
        <time>2021-05-08T08:41:48Z</time>
      </trkpt>
      <trkpt lat="43.54469" lon="-0.92671">
        <ele>45</ele>
        <time>2021-05-08T08:41:49Z</time>
      </trkpt>
      <trkpt lat="43.54469" lon="-0.92675">
        <ele>45</ele>
        <time>2021-05-08T08:41:50Z</time>
      </trkpt>
      <trkpt lat="43.54469" lon="-0.92678">
        <ele>45</ele>
        <time>2021-05-08T08:41:51Z</time>
      </trkpt>
      <trkpt lat="43.54469" lon="-0.92682">
        <ele>46</ele>
        <time>2021-05-08T08:41:52Z</time>
      </trkpt>
      <trkpt lat="43.5447" lon="-0.92686">
        <ele>46</ele>
        <time>2021-05-08T08:41:53Z</time>
      </trkpt>
      <trkpt lat="43.5447" lon="-0.9269">
        <ele>46</ele>
        <time>2021-05-08T08:41:54Z</time>
      </trkpt>
      <trkpt lat="43.5447" lon="-0.92693">
        <ele>46</ele>
        <time>2021-05-08T08:41:55Z</time>
      </trkpt>
      <trkpt lat="43.54469" lon="-0.92697">
        <ele>46</ele>
        <time>2021-05-08T08:41:56Z</time>
      </trkpt>
      <trkpt lat="43.54469" lon="-0.927">
        <ele>46</ele>
        <time>2021-05-08T08:41:57Z</time>
      </trkpt>
      <trkpt lat="43.54469" lon="-0.92704">
        <ele>46</ele>
        <time>2021-05-08T08:41:58Z</time>
      </trkpt>
      <trkpt lat="43.54469" lon="-0.92708">
        <ele>46</ele>
        <time>2021-05-08T08:41:59Z</time>
      </trkpt>
      <trkpt lat="43.54469" lon="-0.92711">
        <ele>46</ele>
        <time>2021-05-08T08:42:00Z</time>
      </trkpt>
      <trkpt lat="43.54469" lon="-0.92715">
        <ele>46</ele>
        <time>2021-05-08T08:42:01Z</time>
      </trkpt>
      <trkpt lat="43.54469" lon="-0.92718">
        <ele>46</ele>
        <time>2021-05-08T08:42:02Z</time>
      </trkpt>
      <trkpt lat="43.54469" lon="-0.92722">
        <ele>46</ele>
        <time>2021-05-08T08:42:03Z</time>
      </trkpt>
      <trkpt lat="43.54469" lon="-0.92726">
        <ele>46</ele>
        <time>2021-05-08T08:42:04Z</time>
      </trkpt>
      <trkpt lat="43.5447" lon="-0.92729">
        <ele>46</ele>
        <time>2021-05-08T08:42:05Z</time>
      </trkpt>
      <trkpt lat="43.5447" lon="-0.92733">
        <ele>46</ele>
        <time>2021-05-08T08:42:06Z</time>
      </trkpt>
      <trkpt lat="43.54471" lon="-0.92736">
        <ele>46</ele>
        <time>2021-05-08T08:42:07Z</time>
      </trkpt>
      <trkpt lat="43.54471" lon="-0.9274">
        <ele>46</ele>
        <time>2021-05-08T08:42:08Z</time>
      </trkpt>
      <trkpt lat="43.54471" lon="-0.92744">
        <ele>46</ele>
        <time>2021-05-08T08:42:09Z</time>
      </trkpt>
      <trkpt lat="43.54471" lon="-0.92747">
        <ele>46</ele>
        <time>2021-05-08T08:42:10Z</time>
      </trkpt>
      <trkpt lat="43.54471" lon="-0.92751">
        <ele>46</ele>
        <time>2021-05-08T08:42:11Z</time>
      </trkpt>
      <trkpt lat="43.54471" lon="-0.92754">
        <ele>47</ele>
        <time>2021-05-08T08:42:12Z</time>
      </trkpt>
      <trkpt lat="43.54472" lon="-0.92758">
        <ele>47</ele>
        <time>2021-05-08T08:42:13Z</time>
      </trkpt>
      <trkpt lat="43.54472" lon="-0.92761">
        <ele>47</ele>
        <time>2021-05-08T08:42:14Z</time>
      </trkpt>
      <trkpt lat="43.54473" lon="-0.92765">
        <ele>47</ele>
        <time>2021-05-08T08:42:15Z</time>
      </trkpt>
      <trkpt lat="43.54473" lon="-0.92768">
        <ele>47</ele>
        <time>2021-05-08T08:42:16Z</time>
      </trkpt>
      <trkpt lat="43.54474" lon="-0.92772">
        <ele>47</ele>
        <time>2021-05-08T08:42:17Z</time>
      </trkpt>
      <trkpt lat="43.54475" lon="-0.92776">
        <ele>47</ele>
        <time>2021-05-08T08:42:18Z</time>
      </trkpt>
      <trkpt lat="43.54477" lon="-0.92779">
        <ele>47</ele>
        <time>2021-05-08T08:42:19Z</time>
      </trkpt>
      <trkpt lat="43.54478" lon="-0.92783">
        <ele>47</ele>
        <time>2021-05-08T08:42:20Z</time>
      </trkpt>
      <trkpt lat="43.5448" lon="-0.92786">
        <ele>47</ele>
        <time>2021-05-08T08:42:21Z</time>
      </trkpt>
      <trkpt lat="43.54483" lon="-0.92788">
        <ele>48</ele>
        <time>2021-05-08T08:42:22Z</time>
      </trkpt>
      <trkpt lat="43.54485" lon="-0.9279">
        <ele>47</ele>
        <time>2021-05-08T08:42:23Z</time>
      </trkpt>
      <trkpt lat="43.54488" lon="-0.92791">
        <ele>47</ele>
        <time>2021-05-08T08:42:24Z</time>
      </trkpt>
      <trkpt lat="43.54491" lon="-0.92792">
        <ele>47</ele>
        <time>2021-05-08T08:42:25Z</time>
      </trkpt>
      <trkpt lat="43.54494" lon="-0.92792">
        <ele>47</ele>
        <time>2021-05-08T08:42:26Z</time>
      </trkpt>
      <trkpt lat="43.54498" lon="-0.92792">
        <ele>47</ele>
        <time>2021-05-08T08:42:27Z</time>
      </trkpt>
      <trkpt lat="43.54501" lon="-0.92791">
        <ele>47</ele>
        <time>2021-05-08T08:42:28Z</time>
      </trkpt>
      <trkpt lat="43.54505" lon="-0.92791">
        <ele>47</ele>
        <time>2021-05-08T08:42:29Z</time>
      </trkpt>
      <trkpt lat="43.54508" lon="-0.9279">
        <ele>47</ele>
        <time>2021-05-08T08:42:30Z</time>
      </trkpt>
      <trkpt lat="43.54511" lon="-0.92789">
        <ele>47</ele>
        <time>2021-05-08T08:42:31Z</time>
      </trkpt>
      <trkpt lat="43.54513" lon="-0.92789">
        <ele>47</ele>
        <time>2021-05-08T08:42:32Z</time>
      </trkpt>
      <trkpt lat="43.54516" lon="-0.92788">
        <ele>47</ele>
        <time>2021-05-08T08:42:33Z</time>
      </trkpt>
      <trkpt lat="43.54519" lon="-0.92787">
        <ele>47</ele>
        <time>2021-05-08T08:42:34Z</time>
      </trkpt>
      <trkpt lat="43.54521" lon="-0.92787">
        <ele>47</ele>
        <time>2021-05-08T08:42:35Z</time>
      </trkpt>
      <trkpt lat="43.54524" lon="-0.92786">
        <ele>47</ele>
        <time>2021-05-08T08:42:36Z</time>
      </trkpt>
      <trkpt lat="43.54527" lon="-0.92786">
        <ele>47</ele>
        <time>2021-05-08T08:42:37Z</time>
      </trkpt>
      <trkpt lat="43.54529" lon="-0.92785">
        <ele>47</ele>
        <time>2021-05-08T08:42:38Z</time>
      </trkpt>
      <trkpt lat="43.54532" lon="-0.92784">
        <ele>47</ele>
        <time>2021-05-08T08:42:39Z</time>
      </trkpt>
      <trkpt lat="43.54535" lon="-0.92784">
        <ele>47</ele>
        <time>2021-05-08T08:42:40Z</time>
      </trkpt>
      <trkpt lat="43.54538" lon="-0.92783">
        <ele>47</ele>
        <time>2021-05-08T08:42:41Z</time>
      </trkpt>
      <trkpt lat="43.54541" lon="-0.92782">
        <ele>47</ele>
        <time>2021-05-08T08:42:42Z</time>
      </trkpt>
      <trkpt lat="43.54543" lon="-0.92782">
        <ele>47</ele>
        <time>2021-05-08T08:42:43Z</time>
      </trkpt>
      <trkpt lat="43.54546" lon="-0.92781">
        <ele>47</ele>
        <time>2021-05-08T08:42:44Z</time>
      </trkpt>
      <trkpt lat="43.54548" lon="-0.9278">
        <ele>47</ele>
        <time>2021-05-08T08:42:45Z</time>
      </trkpt>
      <trkpt lat="43.54551" lon="-0.92779">
        <ele>47</ele>
        <time>2021-05-08T08:42:46Z</time>
      </trkpt>
      <trkpt lat="43.54554" lon="-0.92778">
        <ele>47</ele>
        <time>2021-05-08T08:42:47Z</time>
      </trkpt>
      <trkpt lat="43.54556" lon="-0.92778">
        <ele>46</ele>
        <time>2021-05-08T08:42:48Z</time>
      </trkpt>
      <trkpt lat="43.54559" lon="-0.92777">
        <ele>46</ele>
        <time>2021-05-08T08:42:49Z</time>
      </trkpt>
      <trkpt lat="43.54561" lon="-0.92776">
        <ele>46</ele>
        <time>2021-05-08T08:42:50Z</time>
      </trkpt>
      <trkpt lat="43.54564" lon="-0.92776">
        <ele>46</ele>
        <time>2021-05-08T08:42:51Z</time>
      </trkpt>
      <trkpt lat="43.54567" lon="-0.92775">
        <ele>46</ele>
        <time>2021-05-08T08:42:52Z</time>
      </trkpt>
      <trkpt lat="43.54569" lon="-0.92774">
        <ele>45</ele>
        <time>2021-05-08T08:42:53Z</time>
      </trkpt>
      <trkpt lat="43.54572" lon="-0.92774">
        <ele>45</ele>
        <time>2021-05-08T08:42:54Z</time>
      </trkpt>
      <trkpt lat="43.54574" lon="-0.92773">
        <ele>45</ele>
        <time>2021-05-08T08:42:55Z</time>
      </trkpt>
      <trkpt lat="43.54577" lon="-0.92772">
        <ele>45</ele>
        <time>2021-05-08T08:42:56Z</time>
      </trkpt>
      <trkpt lat="43.54579" lon="-0.92771">
        <ele>45</ele>
        <time>2021-05-08T08:42:57Z</time>
      </trkpt>
      <trkpt lat="43.54582" lon="-0.9277">
        <ele>45</ele>
        <time>2021-05-08T08:42:58Z</time>
      </trkpt>
      <trkpt lat="43.54585" lon="-0.9277">
        <ele>45</ele>
        <time>2021-05-08T08:42:59Z</time>
      </trkpt>
      <trkpt lat="43.54587" lon="-0.92769">
        <ele>45</ele>
        <time>2021-05-08T08:43:00Z</time>
      </trkpt>
      <trkpt lat="43.5459" lon="-0.92768">
        <ele>45</ele>
        <time>2021-05-08T08:43:01Z</time>
      </trkpt>
      <trkpt lat="43.54592" lon="-0.92767">
        <ele>45</ele>
        <time>2021-05-08T08:43:02Z</time>
      </trkpt>
      <trkpt lat="43.54595" lon="-0.92766">
        <ele>44</ele>
        <time>2021-05-08T08:43:03Z</time>
      </trkpt>
      <trkpt lat="43.54597" lon="-0.92765">
        <ele>44</ele>
        <time>2021-05-08T08:43:04Z</time>
      </trkpt>
      <trkpt lat="43.546" lon="-0.92765">
        <ele>44</ele>
        <time>2021-05-08T08:43:05Z</time>
      </trkpt>
      <trkpt lat="43.54603" lon="-0.92764">
        <ele>44</ele>
        <time>2021-05-08T08:43:06Z</time>
      </trkpt>
      <trkpt lat="43.54606" lon="-0.92763">
        <ele>44</ele>
        <time>2021-05-08T08:43:07Z</time>
      </trkpt>
      <trkpt lat="43.54609" lon="-0.92763">
        <ele>44</ele>
        <time>2021-05-08T08:43:08Z</time>
      </trkpt>
      <trkpt lat="43.54611" lon="-0.92762">
        <ele>44</ele>
        <time>2021-05-08T08:43:09Z</time>
      </trkpt>
      <trkpt lat="43.54614" lon="-0.92761">
        <ele>44</ele>
        <time>2021-05-08T08:43:10Z</time>
      </trkpt>
      <trkpt lat="43.54617" lon="-0.9276">
        <ele>44</ele>
        <time>2021-05-08T08:43:11Z</time>
      </trkpt>
      <trkpt lat="43.54619" lon="-0.9276">
        <ele>44</ele>
        <time>2021-05-08T08:43:12Z</time>
      </trkpt>
      <trkpt lat="43.54622" lon="-0.92759">
        <ele>43</ele>
        <time>2021-05-08T08:43:13Z</time>
      </trkpt>
      <trkpt lat="43.54624" lon="-0.92758">
        <ele>43</ele>
        <time>2021-05-08T08:43:14Z</time>
      </trkpt>
      <trkpt lat="43.54627" lon="-0.92758">
        <ele>43</ele>
        <time>2021-05-08T08:43:15Z</time>
      </trkpt>
      <trkpt lat="43.54629" lon="-0.92757">
        <ele>43</ele>
        <time>2021-05-08T08:43:16Z</time>
      </trkpt>
      <trkpt lat="43.54632" lon="-0.92756">
        <ele>43</ele>
        <time>2021-05-08T08:43:17Z</time>
      </trkpt>
      <trkpt lat="43.54634" lon="-0.92755">
        <ele>43</ele>
        <time>2021-05-08T08:43:18Z</time>
      </trkpt>
      <trkpt lat="43.54637" lon="-0.92754">
        <ele>43</ele>
        <time>2021-05-08T08:43:19Z</time>
      </trkpt>
      <trkpt lat="43.54639" lon="-0.92752">
        <ele>43</ele>
        <time>2021-05-08T08:43:20Z</time>
      </trkpt>
      <trkpt lat="43.54642" lon="-0.92751">
        <ele>43</ele>
        <time>2021-05-08T08:43:21Z</time>
      </trkpt>
      <trkpt lat="43.54644" lon="-0.9275">
        <ele>43</ele>
        <time>2021-05-08T08:43:22Z</time>
      </trkpt>
      <trkpt lat="43.54646" lon="-0.92748">
        <ele>43</ele>
        <time>2021-05-08T08:43:23Z</time>
      </trkpt>
      <trkpt lat="43.54648" lon="-0.92747">
        <ele>43</ele>
        <time>2021-05-08T08:43:24Z</time>
      </trkpt>
      <trkpt lat="43.5465" lon="-0.92747">
        <ele>43</ele>
        <time>2021-05-08T08:43:25Z</time>
      </trkpt>
      <trkpt lat="43.54651" lon="-0.92747">
        <ele>43</ele>
        <time>2021-05-08T08:43:26Z</time>
      </trkpt>
      <trkpt lat="43.54653" lon="-0.92748">
        <ele>43</ele>
        <time>2021-05-08T08:43:27Z</time>
      </trkpt>
      <trkpt lat="43.54654" lon="-0.92749">
        <ele>43</ele>
        <time>2021-05-08T08:43:28Z</time>
      </trkpt>
      <trkpt lat="43.54655" lon="-0.92751">
        <ele>43</ele>
        <time>2021-05-08T08:43:29Z</time>
      </trkpt>
      <trkpt lat="43.54655" lon="-0.92754">
        <ele>43</ele>
        <time>2021-05-08T08:43:30Z</time>
      </trkpt>
      <trkpt lat="43.54656" lon="-0.92757">
        <ele>43</ele>
        <time>2021-05-08T08:43:31Z</time>
      </trkpt>
      <trkpt lat="43.54656" lon="-0.9276">
        <ele>43</ele>
        <time>2021-05-08T08:43:32Z</time>
      </trkpt>
      <trkpt lat="43.54656" lon="-0.92764">
        <ele>42</ele>
        <time>2021-05-08T08:43:33Z</time>
      </trkpt>
      <trkpt lat="43.54656" lon="-0.92767">
        <ele>42</ele>
        <time>2021-05-08T08:43:34Z</time>
      </trkpt>
      <trkpt lat="43.54656" lon="-0.92771">
        <ele>42</ele>
        <time>2021-05-08T08:43:35Z</time>
      </trkpt>
      <trkpt lat="43.54655" lon="-0.92774">
        <ele>42</ele>
        <time>2021-05-08T08:43:36Z</time>
      </trkpt>
      <trkpt lat="43.54654" lon="-0.92777">
        <ele>42</ele>
        <time>2021-05-08T08:43:37Z</time>
      </trkpt>
      <trkpt lat="43.54653" lon="-0.92781">
        <ele>41</ele>
        <time>2021-05-08T08:43:38Z</time>
      </trkpt>
      <trkpt lat="43.54652" lon="-0.92784">
        <ele>41</ele>
        <time>2021-05-08T08:43:39Z</time>
      </trkpt>
      <trkpt lat="43.5465" lon="-0.92788">
        <ele>41</ele>
        <time>2021-05-08T08:43:40Z</time>
      </trkpt>
      <trkpt lat="43.5465" lon="-0.92791">
        <ele>41</ele>
        <time>2021-05-08T08:43:41Z</time>
      </trkpt>
      <trkpt lat="43.5465" lon="-0.92795">
        <ele>41</ele>
        <time>2021-05-08T08:43:42Z</time>
      </trkpt>
      <trkpt lat="43.5465" lon="-0.92798">
        <ele>40</ele>
        <time>2021-05-08T08:43:43Z</time>
      </trkpt>
      <trkpt lat="43.54651" lon="-0.92801">
        <ele>40</ele>
        <time>2021-05-08T08:43:44Z</time>
      </trkpt>
      <trkpt lat="43.54652" lon="-0.92804">
        <ele>40</ele>
        <time>2021-05-08T08:43:45Z</time>
      </trkpt>
      <trkpt lat="43.54653" lon="-0.92807">
        <ele>40</ele>
        <time>2021-05-08T08:43:46Z</time>
      </trkpt>
      <trkpt lat="43.54655" lon="-0.92811">
        <ele>40</ele>
        <time>2021-05-08T08:43:47Z</time>
      </trkpt>
      <trkpt lat="43.54656" lon="-0.92814">
        <ele>40</ele>
        <time>2021-05-08T08:43:48Z</time>
      </trkpt>
      <trkpt lat="43.54658" lon="-0.92816">
        <ele>40</ele>
        <time>2021-05-08T08:43:49Z</time>
      </trkpt>
      <trkpt lat="43.5466" lon="-0.92819">
        <ele>40</ele>
        <time>2021-05-08T08:43:50Z</time>
      </trkpt>
      <trkpt lat="43.54662" lon="-0.92822">
        <ele>40</ele>
        <time>2021-05-08T08:43:51Z</time>
      </trkpt>
      <trkpt lat="43.54664" lon="-0.92824">
        <ele>40</ele>
        <time>2021-05-08T08:43:52Z</time>
      </trkpt>
      <trkpt lat="43.54666" lon="-0.92827">
        <ele>40</ele>
        <time>2021-05-08T08:43:53Z</time>
      </trkpt>
      <trkpt lat="43.54668" lon="-0.92829">
        <ele>40</ele>
        <time>2021-05-08T08:43:54Z</time>
      </trkpt>
      <trkpt lat="43.5467" lon="-0.92831">
        <ele>40</ele>
        <time>2021-05-08T08:43:55Z</time>
      </trkpt>
      <trkpt lat="43.54672" lon="-0.92833">
        <ele>40</ele>
        <time>2021-05-08T08:43:56Z</time>
      </trkpt>
      <trkpt lat="43.54674" lon="-0.92835">
        <ele>40</ele>
        <time>2021-05-08T08:43:57Z</time>
      </trkpt>
      <trkpt lat="43.54676" lon="-0.92838">
        <ele>40</ele>
        <time>2021-05-08T08:43:58Z</time>
      </trkpt>
      <trkpt lat="43.54678" lon="-0.9284">
        <ele>40</ele>
        <time>2021-05-08T08:43:59Z</time>
      </trkpt>
      <trkpt lat="43.54679" lon="-0.92843">
        <ele>40</ele>
        <time>2021-05-08T08:44:00Z</time>
      </trkpt>
      <trkpt lat="43.5468" lon="-0.92846">
        <ele>40</ele>
        <time>2021-05-08T08:44:01Z</time>
      </trkpt>
      <trkpt lat="43.54681" lon="-0.92849">
        <ele>40</ele>
        <time>2021-05-08T08:44:02Z</time>
      </trkpt>
      <trkpt lat="43.54681" lon="-0.92852">
        <ele>40</ele>
        <time>2021-05-08T08:44:03Z</time>
      </trkpt>
      <trkpt lat="43.54682" lon="-0.92856">
        <ele>40</ele>
        <time>2021-05-08T08:44:04Z</time>
      </trkpt>
      <trkpt lat="43.54681" lon="-0.92859">
        <ele>40</ele>
        <time>2021-05-08T08:44:05Z</time>
      </trkpt>
      <trkpt lat="43.54681" lon="-0.92863">
        <ele>40</ele>
        <time>2021-05-08T08:44:06Z</time>
      </trkpt>
      <trkpt lat="43.54681" lon="-0.92866">
        <ele>40</ele>
        <time>2021-05-08T08:44:07Z</time>
      </trkpt>
      <trkpt lat="43.5468" lon="-0.9287">
        <ele>40</ele>
        <time>2021-05-08T08:44:08Z</time>
      </trkpt>
      <trkpt lat="43.5468" lon="-0.92873">
        <ele>40</ele>
        <time>2021-05-08T08:44:09Z</time>
      </trkpt>
      <trkpt lat="43.54679" lon="-0.92876">
        <ele>40</ele>
        <time>2021-05-08T08:44:10Z</time>
      </trkpt>
      <trkpt lat="43.54678" lon="-0.92879">
        <ele>40</ele>
        <time>2021-05-08T08:44:11Z</time>
      </trkpt>
      <trkpt lat="43.54677" lon="-0.92882">
        <ele>41</ele>
        <time>2021-05-08T08:44:12Z</time>
      </trkpt>
      <trkpt lat="43.54676" lon="-0.92884">
        <ele>41</ele>
        <time>2021-05-08T08:44:13Z</time>
      </trkpt>
      <trkpt lat="43.54675" lon="-0.92887">
        <ele>41</ele>
        <time>2021-05-08T08:44:14Z</time>
      </trkpt>
      <trkpt lat="43.54674" lon="-0.9289">
        <ele>41</ele>
        <time>2021-05-08T08:44:15Z</time>
      </trkpt>
      <trkpt lat="43.54673" lon="-0.92893">
        <ele>41</ele>
        <time>2021-05-08T08:44:16Z</time>
      </trkpt>
      <trkpt lat="43.54673" lon="-0.92896">
        <ele>41</ele>
        <time>2021-05-08T08:44:17Z</time>
      </trkpt>
      <trkpt lat="43.54672" lon="-0.92899">
        <ele>41</ele>
        <time>2021-05-08T08:44:18Z</time>
      </trkpt>
      <trkpt lat="43.54671" lon="-0.92902">
        <ele>41</ele>
        <time>2021-05-08T08:44:19Z</time>
      </trkpt>
      <trkpt lat="43.54671" lon="-0.92906">
        <ele>41</ele>
        <time>2021-05-08T08:44:20Z</time>
      </trkpt>
      <trkpt lat="43.5467" lon="-0.92909">
        <ele>41</ele>
        <time>2021-05-08T08:44:21Z</time>
      </trkpt>
      <trkpt lat="43.5467" lon="-0.92913">
        <ele>42</ele>
        <time>2021-05-08T08:44:22Z</time>
      </trkpt>
      <trkpt lat="43.54669" lon="-0.92917">
        <ele>42</ele>
        <time>2021-05-08T08:44:23Z</time>
      </trkpt>
      <trkpt lat="43.54669" lon="-0.9292">
        <ele>42</ele>
        <time>2021-05-08T08:44:24Z</time>
      </trkpt>
      <trkpt lat="43.54668" lon="-0.92924">
        <ele>42</ele>
        <time>2021-05-08T08:44:25Z</time>
      </trkpt>
      <trkpt lat="43.54668" lon="-0.92928">
        <ele>42</ele>
        <time>2021-05-08T08:44:26Z</time>
      </trkpt>
      <trkpt lat="43.54667" lon="-0.92932">
        <ele>42</ele>
        <time>2021-05-08T08:44:27Z</time>
      </trkpt>
      <trkpt lat="43.54666" lon="-0.92936">
        <ele>41</ele>
        <time>2021-05-08T08:44:28Z</time>
      </trkpt>
      <trkpt lat="43.54665" lon="-0.92939">
        <ele>41</ele>
        <time>2021-05-08T08:44:29Z</time>
      </trkpt>
      <trkpt lat="43.54664" lon="-0.92943">
        <ele>41</ele>
        <time>2021-05-08T08:44:30Z</time>
      </trkpt>
      <trkpt lat="43.54663" lon="-0.92947">
        <ele>41</ele>
        <time>2021-05-08T08:44:31Z</time>
      </trkpt>
      <trkpt lat="43.54662" lon="-0.9295">
        <ele>41</ele>
        <time>2021-05-08T08:44:32Z</time>
      </trkpt>
      <trkpt lat="43.54661" lon="-0.92954">
        <ele>41</ele>
        <time>2021-05-08T08:44:33Z</time>
      </trkpt>
      <trkpt lat="43.5466" lon="-0.92957">
        <ele>41</ele>
        <time>2021-05-08T08:44:34Z</time>
      </trkpt>
      <trkpt lat="43.54658" lon="-0.9296">
        <ele>41</ele>
        <time>2021-05-08T08:44:35Z</time>
      </trkpt>
      <trkpt lat="43.54657" lon="-0.92964">
        <ele>41</ele>
        <time>2021-05-08T08:44:36Z</time>
      </trkpt>
      <trkpt lat="43.54656" lon="-0.92967">
        <ele>41</ele>
        <time>2021-05-08T08:44:37Z</time>
      </trkpt>
      <trkpt lat="43.54654" lon="-0.9297">
        <ele>41</ele>
        <time>2021-05-08T08:44:38Z</time>
      </trkpt>
      <trkpt lat="43.54653" lon="-0.92973">
        <ele>41</ele>
        <time>2021-05-08T08:44:39Z</time>
      </trkpt>
      <trkpt lat="43.54651" lon="-0.92976">
        <ele>41</ele>
        <time>2021-05-08T08:44:40Z</time>
      </trkpt>
      <trkpt lat="43.54649" lon="-0.9298">
        <ele>41</ele>
        <time>2021-05-08T08:44:41Z</time>
      </trkpt>
      <trkpt lat="43.54648" lon="-0.92983">
        <ele>42</ele>
        <time>2021-05-08T08:44:42Z</time>
      </trkpt>
      <trkpt lat="43.54646" lon="-0.92987">
        <ele>41</ele>
        <time>2021-05-08T08:44:43Z</time>
      </trkpt>
      <trkpt lat="43.54645" lon="-0.9299">
        <ele>41</ele>
        <time>2021-05-08T08:44:44Z</time>
      </trkpt>
      <trkpt lat="43.54643" lon="-0.92993">
        <ele>41</ele>
        <time>2021-05-08T08:44:45Z</time>
      </trkpt>
      <trkpt lat="43.54641" lon="-0.92996">
        <ele>41</ele>
        <time>2021-05-08T08:44:46Z</time>
      </trkpt>
      <trkpt lat="43.5464" lon="-0.92999">
        <ele>41</ele>
        <time>2021-05-08T08:44:47Z</time>
      </trkpt>
      <trkpt lat="43.54638" lon="-0.93002">
        <ele>41</ele>
        <time>2021-05-08T08:44:48Z</time>
      </trkpt>
      <trkpt lat="43.54637" lon="-0.93005">
        <ele>41</ele>
        <time>2021-05-08T08:44:49Z</time>
      </trkpt>
      <trkpt lat="43.54635" lon="-0.93008">
        <ele>41</ele>
        <time>2021-05-08T08:44:50Z</time>
      </trkpt>
      <trkpt lat="43.54634" lon="-0.93011">
        <ele>41</ele>
        <time>2021-05-08T08:44:51Z</time>
      </trkpt>
      <trkpt lat="43.54633" lon="-0.93014">
        <ele>42</ele>
        <time>2021-05-08T08:44:52Z</time>
      </trkpt>
      <trkpt lat="43.54632" lon="-0.93017">
        <ele>42</ele>
        <time>2021-05-08T08:44:53Z</time>
      </trkpt>
      <trkpt lat="43.54632" lon="-0.9302">
        <ele>42</ele>
        <time>2021-05-08T08:44:54Z</time>
      </trkpt>
      <trkpt lat="43.54632" lon="-0.93024">
        <ele>42</ele>
        <time>2021-05-08T08:44:55Z</time>
      </trkpt>
      <trkpt lat="43.54632" lon="-0.93027">
        <ele>42</ele>
        <time>2021-05-08T08:44:56Z</time>
      </trkpt>
      <trkpt lat="43.54633" lon="-0.9303">
        <ele>42</ele>
        <time>2021-05-08T08:44:57Z</time>
      </trkpt>
      <trkpt lat="43.54634" lon="-0.93033">
        <ele>42</ele>
        <time>2021-05-08T08:44:58Z</time>
      </trkpt>
      <trkpt lat="43.54636" lon="-0.93036">
        <ele>42</ele>
        <time>2021-05-08T08:44:59Z</time>
      </trkpt>
      <trkpt lat="43.54638" lon="-0.93038">
        <ele>42</ele>
        <time>2021-05-08T08:45:00Z</time>
      </trkpt>
      <trkpt lat="43.5464" lon="-0.9304">
        <ele>42</ele>
        <time>2021-05-08T08:45:01Z</time>
      </trkpt>
      <trkpt lat="43.54642" lon="-0.93043">
        <ele>43</ele>
        <time>2021-05-08T08:45:02Z</time>
      </trkpt>
      <trkpt lat="43.54644" lon="-0.93045">
        <ele>43</ele>
        <time>2021-05-08T08:45:03Z</time>
      </trkpt>
      <trkpt lat="43.54646" lon="-0.93047">
        <ele>43</ele>
        <time>2021-05-08T08:45:04Z</time>
      </trkpt>
      <trkpt lat="43.54649" lon="-0.93049">
        <ele>43</ele>
        <time>2021-05-08T08:45:05Z</time>
      </trkpt>
      <trkpt lat="43.54651" lon="-0.93051">
        <ele>43</ele>
        <time>2021-05-08T08:45:06Z</time>
      </trkpt>
      <trkpt lat="43.54653" lon="-0.93053">
        <ele>43</ele>
        <time>2021-05-08T08:45:07Z</time>
      </trkpt>
      <trkpt lat="43.54655" lon="-0.93055">
        <ele>43</ele>
        <time>2021-05-08T08:45:08Z</time>
      </trkpt>
      <trkpt lat="43.54657" lon="-0.93057">
        <ele>43</ele>
        <time>2021-05-08T08:45:09Z</time>
      </trkpt>
      <trkpt lat="43.54659" lon="-0.93059">
        <ele>43</ele>
        <time>2021-05-08T08:45:10Z</time>
      </trkpt>
      <trkpt lat="43.54661" lon="-0.93061">
        <ele>43</ele>
        <time>2021-05-08T08:45:11Z</time>
      </trkpt>
      <trkpt lat="43.54663" lon="-0.93064">
        <ele>43</ele>
        <time>2021-05-08T08:45:12Z</time>
      </trkpt>
      <trkpt lat="43.54665" lon="-0.93066">
        <ele>43</ele>
        <time>2021-05-08T08:45:13Z</time>
      </trkpt>
      <trkpt lat="43.54667" lon="-0.93068">
        <ele>43</ele>
        <time>2021-05-08T08:45:14Z</time>
      </trkpt>
      <trkpt lat="43.54669" lon="-0.9307">
        <ele>43</ele>
        <time>2021-05-08T08:45:15Z</time>
      </trkpt>
      <trkpt lat="43.54671" lon="-0.93073">
        <ele>43</ele>
        <time>2021-05-08T08:45:16Z</time>
      </trkpt>
      <trkpt lat="43.54673" lon="-0.93075">
        <ele>44</ele>
        <time>2021-05-08T08:45:17Z</time>
      </trkpt>
      <trkpt lat="43.54675" lon="-0.93077">
        <ele>44</ele>
        <time>2021-05-08T08:45:18Z</time>
      </trkpt>
      <trkpt lat="43.54677" lon="-0.93079">
        <ele>44</ele>
        <time>2021-05-08T08:45:19Z</time>
      </trkpt>
      <trkpt lat="43.54679" lon="-0.93081">
        <ele>44</ele>
        <time>2021-05-08T08:45:20Z</time>
      </trkpt>
      <trkpt lat="43.54681" lon="-0.93084">
        <ele>44</ele>
        <time>2021-05-08T08:45:21Z</time>
      </trkpt>
      <trkpt lat="43.54683" lon="-0.93086">
        <ele>44</ele>
        <time>2021-05-08T08:45:22Z</time>
      </trkpt>
      <trkpt lat="43.54685" lon="-0.93088">
        <ele>44</ele>
        <time>2021-05-08T08:45:23Z</time>
      </trkpt>
      <trkpt lat="43.54687" lon="-0.9309">
        <ele>44</ele>
        <time>2021-05-08T08:45:24Z</time>
      </trkpt>
      <trkpt lat="43.54689" lon="-0.93092">
        <ele>44</ele>
        <time>2021-05-08T08:45:25Z</time>
      </trkpt>
      <trkpt lat="43.54691" lon="-0.93094">
        <ele>44</ele>
        <time>2021-05-08T08:45:26Z</time>
      </trkpt>
      <trkpt lat="43.54693" lon="-0.93096">
        <ele>44</ele>
        <time>2021-05-08T08:45:27Z</time>
      </trkpt>
      <trkpt lat="43.54695" lon="-0.93098">
        <ele>44</ele>
        <time>2021-05-08T08:45:28Z</time>
      </trkpt>
      <trkpt lat="43.54697" lon="-0.931">
        <ele>44</ele>
        <time>2021-05-08T08:45:29Z</time>
      </trkpt>
      <trkpt lat="43.54699" lon="-0.93102">
        <ele>44</ele>
        <time>2021-05-08T08:45:30Z</time>
      </trkpt>
      <trkpt lat="43.54702" lon="-0.93104">
        <ele>44</ele>
        <time>2021-05-08T08:45:31Z</time>
      </trkpt>
      <trkpt lat="43.54704" lon="-0.93106">
        <ele>44</ele>
        <time>2021-05-08T08:45:32Z</time>
      </trkpt>
      <trkpt lat="43.54706" lon="-0.93108">
        <ele>44</ele>
        <time>2021-05-08T08:45:33Z</time>
      </trkpt>
      <trkpt lat="43.54708" lon="-0.9311">
        <ele>44</ele>
        <time>2021-05-08T08:45:34Z</time>
      </trkpt>
      <trkpt lat="43.5471" lon="-0.93112">
        <ele>44</ele>
        <time>2021-05-08T08:45:35Z</time>
      </trkpt>
      <trkpt lat="43.54712" lon="-0.93114">
        <ele>44</ele>
        <time>2021-05-08T08:45:36Z</time>
      </trkpt>
      <trkpt lat="43.54714" lon="-0.93116">
        <ele>44</ele>
        <time>2021-05-08T08:45:37Z</time>
      </trkpt>
      <trkpt lat="43.54716" lon="-0.93118">
        <ele>44</ele>
        <time>2021-05-08T08:45:38Z</time>
      </trkpt>
      <trkpt lat="43.54719" lon="-0.9312">
        <ele>44</ele>
        <time>2021-05-08T08:45:39Z</time>
      </trkpt>
      <trkpt lat="43.54721" lon="-0.93122">
        <ele>44</ele>
        <time>2021-05-08T08:45:40Z</time>
      </trkpt>
      <trkpt lat="43.54723" lon="-0.93124">
        <ele>44</ele>
        <time>2021-05-08T08:45:41Z</time>
      </trkpt>
      <trkpt lat="43.54725" lon="-0.93126">
        <ele>44</ele>
        <time>2021-05-08T08:45:42Z</time>
      </trkpt>
      <trkpt lat="43.54727" lon="-0.93128">
        <ele>44</ele>
        <time>2021-05-08T08:45:43Z</time>
      </trkpt>
      <trkpt lat="43.54729" lon="-0.9313">
        <ele>44</ele>
        <time>2021-05-08T08:45:44Z</time>
      </trkpt>
      <trkpt lat="43.54731" lon="-0.93132">
        <ele>44</ele>
        <time>2021-05-08T08:45:45Z</time>
      </trkpt>
      <trkpt lat="43.54733" lon="-0.93135">
        <ele>44</ele>
        <time>2021-05-08T08:45:46Z</time>
      </trkpt>
      <trkpt lat="43.54735" lon="-0.93137">
        <ele>44</ele>
        <time>2021-05-08T08:45:47Z</time>
      </trkpt>
      <trkpt lat="43.54737" lon="-0.93139">
        <ele>44</ele>
        <time>2021-05-08T08:45:48Z</time>
      </trkpt>
      <trkpt lat="43.54739" lon="-0.93141">
        <ele>44</ele>
        <time>2021-05-08T08:45:49Z</time>
      </trkpt>
      <trkpt lat="43.54741" lon="-0.93144">
        <ele>44</ele>
        <time>2021-05-08T08:45:50Z</time>
      </trkpt>
      <trkpt lat="43.54743" lon="-0.93146">
        <ele>44</ele>
        <time>2021-05-08T08:45:51Z</time>
      </trkpt>
      <trkpt lat="43.54745" lon="-0.93148">
        <ele>44</ele>
        <time>2021-05-08T08:45:52Z</time>
      </trkpt>
      <trkpt lat="43.54747" lon="-0.93151">
        <ele>44</ele>
        <time>2021-05-08T08:45:53Z</time>
      </trkpt>
      <trkpt lat="43.54749" lon="-0.93154">
        <ele>44</ele>
        <time>2021-05-08T08:45:54Z</time>
      </trkpt>
      <trkpt lat="43.54751" lon="-0.93156">
        <ele>44</ele>
        <time>2021-05-08T08:45:55Z</time>
      </trkpt>
      <trkpt lat="43.54753" lon="-0.93159">
        <ele>44</ele>
        <time>2021-05-08T08:45:56Z</time>
      </trkpt>
      <trkpt lat="43.54755" lon="-0.93162">
        <ele>44</ele>
        <time>2021-05-08T08:45:57Z</time>
      </trkpt>
      <trkpt lat="43.54757" lon="-0.93164">
        <ele>44</ele>
        <time>2021-05-08T08:45:58Z</time>
      </trkpt>
      <trkpt lat="43.54759" lon="-0.93165">
        <ele>44</ele>
        <time>2021-05-08T08:45:59Z</time>
      </trkpt>
      <trkpt lat="43.54762" lon="-0.93166">
        <ele>44</ele>
        <time>2021-05-08T08:46:00Z</time>
      </trkpt>
      <trkpt lat="43.54764" lon="-0.93166">
        <ele>44</ele>
        <time>2021-05-08T08:46:01Z</time>
      </trkpt>
      <trkpt lat="43.54766" lon="-0.93165">
        <ele>44</ele>
        <time>2021-05-08T08:46:02Z</time>
      </trkpt>
      <trkpt lat="43.54768" lon="-0.93163">
        <ele>43</ele>
        <time>2021-05-08T08:46:03Z</time>
      </trkpt>
      <trkpt lat="43.5477" lon="-0.9316">
        <ele>43</ele>
        <time>2021-05-08T08:46:04Z</time>
      </trkpt>
      <trkpt lat="43.54772" lon="-0.93157">
        <ele>43</ele>
        <time>2021-05-08T08:46:05Z</time>
      </trkpt>
      <trkpt lat="43.54773" lon="-0.93154">
        <ele>43</ele>
        <time>2021-05-08T08:46:06Z</time>
      </trkpt>
      <trkpt lat="43.54775" lon="-0.93151">
        <ele>43</ele>
        <time>2021-05-08T08:46:07Z</time>
      </trkpt>
      <trkpt lat="43.54777" lon="-0.93148">
        <ele>43</ele>
        <time>2021-05-08T08:46:08Z</time>
      </trkpt>
      <trkpt lat="43.54778" lon="-0.93144">
        <ele>43</ele>
        <time>2021-05-08T08:46:09Z</time>
      </trkpt>
      <trkpt lat="43.5478" lon="-0.93141">
        <ele>43</ele>
        <time>2021-05-08T08:46:10Z</time>
      </trkpt>
      <trkpt lat="43.54781" lon="-0.93138">
        <ele>43</ele>
        <time>2021-05-08T08:46:11Z</time>
      </trkpt>
      <trkpt lat="43.54783" lon="-0.93135">
        <ele>44</ele>
        <time>2021-05-08T08:46:12Z</time>
      </trkpt>
      <trkpt lat="43.54784" lon="-0.93132">
        <ele>44</ele>
        <time>2021-05-08T08:46:13Z</time>
      </trkpt>
      <trkpt lat="43.54786" lon="-0.93129">
        <ele>44</ele>
        <time>2021-05-08T08:46:14Z</time>
      </trkpt>
      <trkpt lat="43.54788" lon="-0.93126">
        <ele>44</ele>
        <time>2021-05-08T08:46:15Z</time>
      </trkpt>
      <trkpt lat="43.54789" lon="-0.93124">
        <ele>44</ele>
        <time>2021-05-08T08:46:16Z</time>
      </trkpt>
      <trkpt lat="43.54791" lon="-0.93121">
        <ele>45</ele>
        <time>2021-05-08T08:46:17Z</time>
      </trkpt>
      <trkpt lat="43.54792" lon="-0.93119">
        <ele>45</ele>
        <time>2021-05-08T08:46:18Z</time>
      </trkpt>
      <trkpt lat="43.54794" lon="-0.93116">
        <ele>45</ele>
        <time>2021-05-08T08:46:19Z</time>
      </trkpt>
      <trkpt lat="43.54796" lon="-0.93113">
        <ele>45</ele>
        <time>2021-05-08T08:46:20Z</time>
      </trkpt>
      <trkpt lat="43.54798" lon="-0.9311">
        <ele>45</ele>
        <time>2021-05-08T08:46:21Z</time>
      </trkpt>
      <trkpt lat="43.54799" lon="-0.93107">
        <ele>45</ele>
        <time>2021-05-08T08:46:22Z</time>
      </trkpt>
      <trkpt lat="43.54801" lon="-0.93104">
        <ele>45</ele>
        <time>2021-05-08T08:46:23Z</time>
      </trkpt>
      <trkpt lat="43.54803" lon="-0.93101">
        <ele>45</ele>
        <time>2021-05-08T08:46:24Z</time>
      </trkpt>
      <trkpt lat="43.54804" lon="-0.93098">
        <ele>45</ele>
        <time>2021-05-08T08:46:25Z</time>
      </trkpt>
      <trkpt lat="43.54806" lon="-0.93095">
        <ele>45</ele>
        <time>2021-05-08T08:46:26Z</time>
      </trkpt>
      <trkpt lat="43.54808" lon="-0.93092">
        <ele>46</ele>
        <time>2021-05-08T08:46:27Z</time>
      </trkpt>
      <trkpt lat="43.5481" lon="-0.9309">
        <ele>46</ele>
        <time>2021-05-08T08:46:28Z</time>
      </trkpt>
      <trkpt lat="43.54811" lon="-0.93087">
        <ele>46</ele>
        <time>2021-05-08T08:46:29Z</time>
      </trkpt>
      <trkpt lat="43.54813" lon="-0.93084">
        <ele>46</ele>
        <time>2021-05-08T08:46:30Z</time>
      </trkpt>
      <trkpt lat="43.54815" lon="-0.93081">
        <ele>46</ele>
        <time>2021-05-08T08:46:31Z</time>
      </trkpt>
      <trkpt lat="43.54817" lon="-0.93078">
        <ele>46</ele>
        <time>2021-05-08T08:46:32Z</time>
      </trkpt>
      <trkpt lat="43.54818" lon="-0.93075">
        <ele>46</ele>
        <time>2021-05-08T08:46:33Z</time>
      </trkpt>
      <trkpt lat="43.5482" lon="-0.93073">
        <ele>46</ele>
        <time>2021-05-08T08:46:34Z</time>
      </trkpt>
      <trkpt lat="43.54822" lon="-0.9307">
        <ele>46</ele>
        <time>2021-05-08T08:46:35Z</time>
      </trkpt>
      <trkpt lat="43.54823" lon="-0.93067">
        <ele>46</ele>
        <time>2021-05-08T08:46:36Z</time>
      </trkpt>
      <trkpt lat="43.54825" lon="-0.93064">
        <ele>46</ele>
        <time>2021-05-08T08:46:37Z</time>
      </trkpt>
      <trkpt lat="43.54827" lon="-0.93062">
        <ele>46</ele>
        <time>2021-05-08T08:46:38Z</time>
      </trkpt>
      <trkpt lat="43.54829" lon="-0.93059">
        <ele>46</ele>
        <time>2021-05-08T08:46:39Z</time>
      </trkpt>
      <trkpt lat="43.5483" lon="-0.93056">
        <ele>46</ele>
        <time>2021-05-08T08:46:40Z</time>
      </trkpt>
      <trkpt lat="43.54832" lon="-0.93053">
        <ele>46</ele>
        <time>2021-05-08T08:46:41Z</time>
      </trkpt>
      <trkpt lat="43.54834" lon="-0.93051">
        <ele>47</ele>
        <time>2021-05-08T08:46:42Z</time>
      </trkpt>
      <trkpt lat="43.54836" lon="-0.93048">
        <ele>47</ele>
        <time>2021-05-08T08:46:43Z</time>
      </trkpt>
      <trkpt lat="43.54838" lon="-0.93045">
        <ele>47</ele>
        <time>2021-05-08T08:46:44Z</time>
      </trkpt>
      <trkpt lat="43.5484" lon="-0.93043">
        <ele>47</ele>
        <time>2021-05-08T08:46:45Z</time>
      </trkpt>
      <trkpt lat="43.54841" lon="-0.9304">
        <ele>47</ele>
        <time>2021-05-08T08:46:46Z</time>
      </trkpt>
      <trkpt lat="43.54843" lon="-0.93038">
        <ele>47</ele>
        <time>2021-05-08T08:46:47Z</time>
      </trkpt>
      <trkpt lat="43.54845" lon="-0.93036">
        <ele>47</ele>
        <time>2021-05-08T08:46:48Z</time>
      </trkpt>
      <trkpt lat="43.54847" lon="-0.93033">
        <ele>47</ele>
        <time>2021-05-08T08:46:49Z</time>
      </trkpt>
      <trkpt lat="43.54849" lon="-0.93031">
        <ele>47</ele>
        <time>2021-05-08T08:46:50Z</time>
      </trkpt>
      <trkpt lat="43.54851" lon="-0.93029">
        <ele>47</ele>
        <time>2021-05-08T08:46:51Z</time>
      </trkpt>
      <trkpt lat="43.54853" lon="-0.93027">
        <ele>47</ele>
        <time>2021-05-08T08:46:52Z</time>
      </trkpt>
      <trkpt lat="43.54855" lon="-0.93025">
        <ele>47</ele>
        <time>2021-05-08T08:46:53Z</time>
      </trkpt>
      <trkpt lat="43.54857" lon="-0.93023">
        <ele>47</ele>
        <time>2021-05-08T08:46:54Z</time>
      </trkpt>
      <trkpt lat="43.54859" lon="-0.93022">
        <ele>47</ele>
        <time>2021-05-08T08:46:55Z</time>
      </trkpt>
      <trkpt lat="43.54861" lon="-0.9302">
        <ele>47</ele>
        <time>2021-05-08T08:46:56Z</time>
      </trkpt>
      <trkpt lat="43.54863" lon="-0.93018">
        <ele>47</ele>
        <time>2021-05-08T08:46:57Z</time>
      </trkpt>
      <trkpt lat="43.54865" lon="-0.93016">
        <ele>47</ele>
        <time>2021-05-08T08:46:58Z</time>
      </trkpt>
      <trkpt lat="43.54867" lon="-0.93015">
        <ele>47</ele>
        <time>2021-05-08T08:46:59Z</time>
      </trkpt>
      <trkpt lat="43.54869" lon="-0.93013">
        <ele>47</ele>
        <time>2021-05-08T08:47:00Z</time>
      </trkpt>
      <trkpt lat="43.54872" lon="-0.93012">
        <ele>47</ele>
        <time>2021-05-08T08:47:01Z</time>
      </trkpt>
      <trkpt lat="43.54874" lon="-0.9301">
        <ele>47</ele>
        <time>2021-05-08T08:47:02Z</time>
      </trkpt>
      <trkpt lat="43.54876" lon="-0.93008">
        <ele>47</ele>
        <time>2021-05-08T08:47:03Z</time>
      </trkpt>
      <trkpt lat="43.54878" lon="-0.93006">
        <ele>47</ele>
        <time>2021-05-08T08:47:04Z</time>
      </trkpt>
      <trkpt lat="43.5488" lon="-0.93005">
        <ele>47</ele>
        <time>2021-05-08T08:47:05Z</time>
      </trkpt>
      <trkpt lat="43.54882" lon="-0.93003">
        <ele>47</ele>
        <time>2021-05-08T08:47:06Z</time>
      </trkpt>
      <trkpt lat="43.54884" lon="-0.93001">
        <ele>47</ele>
        <time>2021-05-08T08:47:07Z</time>
      </trkpt>
      <trkpt lat="43.54886" lon="-0.93">
        <ele>47</ele>
        <time>2021-05-08T08:47:08Z</time>
      </trkpt>
      <trkpt lat="43.54889" lon="-0.92998">
        <ele>47</ele>
        <time>2021-05-08T08:47:09Z</time>
      </trkpt>
      <trkpt lat="43.54891" lon="-0.92996">
        <ele>47</ele>
        <time>2021-05-08T08:47:10Z</time>
      </trkpt>
      <trkpt lat="43.54893" lon="-0.92995">
        <ele>47</ele>
        <time>2021-05-08T08:47:11Z</time>
      </trkpt>
      <trkpt lat="43.54895" lon="-0.92993">
        <ele>47</ele>
        <time>2021-05-08T08:47:12Z</time>
      </trkpt>
      <trkpt lat="43.54897" lon="-0.92992">
        <ele>47</ele>
        <time>2021-05-08T08:47:13Z</time>
      </trkpt>
      <trkpt lat="43.54899" lon="-0.92991">
        <ele>47</ele>
        <time>2021-05-08T08:47:14Z</time>
      </trkpt>
      <trkpt lat="43.54901" lon="-0.92989">
        <ele>47</ele>
        <time>2021-05-08T08:47:15Z</time>
      </trkpt>
      <trkpt lat="43.54904" lon="-0.92988">
        <ele>47</ele>
        <time>2021-05-08T08:47:16Z</time>
      </trkpt>
      <trkpt lat="43.54906" lon="-0.92986">
        <ele>47</ele>
        <time>2021-05-08T08:47:17Z</time>
      </trkpt>
      <trkpt lat="43.54908" lon="-0.92985">
        <ele>47</ele>
        <time>2021-05-08T08:47:18Z</time>
      </trkpt>
      <trkpt lat="43.5491" lon="-0.92984">
        <ele>47</ele>
        <time>2021-05-08T08:47:19Z</time>
      </trkpt>
      <trkpt lat="43.54912" lon="-0.92983">
        <ele>47</ele>
        <time>2021-05-08T08:47:20Z</time>
      </trkpt>
      <trkpt lat="43.54914" lon="-0.92982">
        <ele>47</ele>
        <time>2021-05-08T08:47:21Z</time>
      </trkpt>
      <trkpt lat="43.54917" lon="-0.9298">
        <ele>47</ele>
        <time>2021-05-08T08:47:22Z</time>
      </trkpt>
      <trkpt lat="43.54919" lon="-0.92979">
        <ele>47</ele>
        <time>2021-05-08T08:47:23Z</time>
      </trkpt>
      <trkpt lat="43.54921" lon="-0.92978">
        <ele>47</ele>
        <time>2021-05-08T08:47:24Z</time>
      </trkpt>
      <trkpt lat="43.54923" lon="-0.92977">
        <ele>47</ele>
        <time>2021-05-08T08:47:25Z</time>
      </trkpt>
      <trkpt lat="43.54926" lon="-0.92976">
        <ele>47</ele>
        <time>2021-05-08T08:47:26Z</time>
      </trkpt>
      <trkpt lat="43.54928" lon="-0.92975">
        <ele>47</ele>
        <time>2021-05-08T08:47:27Z</time>
      </trkpt>
      <trkpt lat="43.5493" lon="-0.92974">
        <ele>47</ele>
        <time>2021-05-08T08:47:28Z</time>
      </trkpt>
      <trkpt lat="43.54933" lon="-0.92973">
        <ele>47</ele>
        <time>2021-05-08T08:47:29Z</time>
      </trkpt>
      <trkpt lat="43.54935" lon="-0.92972">
        <ele>47</ele>
        <time>2021-05-08T08:47:30Z</time>
      </trkpt>
      <trkpt lat="43.54938" lon="-0.92972">
        <ele>47</ele>
        <time>2021-05-08T08:47:31Z</time>
      </trkpt>
      <trkpt lat="43.5494" lon="-0.92971">
        <ele>47</ele>
        <time>2021-05-08T08:47:32Z</time>
      </trkpt>
      <trkpt lat="43.54943" lon="-0.9297">
        <ele>47</ele>
        <time>2021-05-08T08:47:33Z</time>
      </trkpt>
      <trkpt lat="43.54945" lon="-0.92969">
        <ele>47</ele>
        <time>2021-05-08T08:47:34Z</time>
      </trkpt>
      <trkpt lat="43.54948" lon="-0.92968">
        <ele>47</ele>
        <time>2021-05-08T08:47:35Z</time>
      </trkpt>
      <trkpt lat="43.54951" lon="-0.92967">
        <ele>47</ele>
        <time>2021-05-08T08:47:36Z</time>
      </trkpt>
      <trkpt lat="43.54953" lon="-0.92966">
        <ele>47</ele>
        <time>2021-05-08T08:47:37Z</time>
      </trkpt>
      <trkpt lat="43.54955" lon="-0.92965">
        <ele>47</ele>
        <time>2021-05-08T08:47:38Z</time>
      </trkpt>
      <trkpt lat="43.54958" lon="-0.92963">
        <ele>47</ele>
        <time>2021-05-08T08:47:39Z</time>
      </trkpt>
      <trkpt lat="43.5496" lon="-0.92961">
        <ele>47</ele>
        <time>2021-05-08T08:47:40Z</time>
      </trkpt>
      <trkpt lat="43.54963" lon="-0.9296">
        <ele>47</ele>
        <time>2021-05-08T08:47:41Z</time>
      </trkpt>
      <trkpt lat="43.54965" lon="-0.92957">
        <ele>47</ele>
        <time>2021-05-08T08:47:42Z</time>
      </trkpt>
      <trkpt lat="43.54967" lon="-0.92955">
        <ele>47</ele>
        <time>2021-05-08T08:47:43Z</time>
      </trkpt>
      <trkpt lat="43.54969" lon="-0.92953">
        <ele>47</ele>
        <time>2021-05-08T08:47:44Z</time>
      </trkpt>
      <trkpt lat="43.54971" lon="-0.92951">
        <ele>47</ele>
        <time>2021-05-08T08:47:45Z</time>
      </trkpt>
      <trkpt lat="43.54973" lon="-0.92949">
        <ele>47</ele>
        <time>2021-05-08T08:47:46Z</time>
      </trkpt>
      <trkpt lat="43.54975" lon="-0.92947">
        <ele>47</ele>
        <time>2021-05-08T08:47:47Z</time>
      </trkpt>
      <trkpt lat="43.54977" lon="-0.92944">
        <ele>47</ele>
        <time>2021-05-08T08:47:48Z</time>
      </trkpt>
      <trkpt lat="43.54979" lon="-0.92942">
        <ele>47</ele>
        <time>2021-05-08T08:47:49Z</time>
      </trkpt>
      <trkpt lat="43.54981" lon="-0.9294">
        <ele>47</ele>
        <time>2021-05-08T08:47:50Z</time>
      </trkpt>
      <trkpt lat="43.54983" lon="-0.92938">
        <ele>47</ele>
        <time>2021-05-08T08:47:51Z</time>
      </trkpt>
      <trkpt lat="43.54985" lon="-0.92936">
        <ele>47</ele>
        <time>2021-05-08T08:47:52Z</time>
      </trkpt>
      <trkpt lat="43.54987" lon="-0.92934">
        <ele>47</ele>
        <time>2021-05-08T08:47:53Z</time>
      </trkpt>
      <trkpt lat="43.54989" lon="-0.92932">
        <ele>47</ele>
        <time>2021-05-08T08:47:54Z</time>
      </trkpt>
      <trkpt lat="43.54991" lon="-0.9293">
        <ele>47</ele>
        <time>2021-05-08T08:47:55Z</time>
      </trkpt>
      <trkpt lat="43.54994" lon="-0.92928">
        <ele>47</ele>
        <time>2021-05-08T08:47:56Z</time>
      </trkpt>
      <trkpt lat="43.54996" lon="-0.92926">
        <ele>47</ele>
        <time>2021-05-08T08:47:57Z</time>
      </trkpt>
      <trkpt lat="43.54998" lon="-0.92924">
        <ele>47</ele>
        <time>2021-05-08T08:47:58Z</time>
      </trkpt>
      <trkpt lat="43.55" lon="-0.92922">
        <ele>47</ele>
        <time>2021-05-08T08:47:59Z</time>
      </trkpt>
      <trkpt lat="43.55002" lon="-0.9292">
        <ele>47</ele>
        <time>2021-05-08T08:48:00Z</time>
      </trkpt>
      <trkpt lat="43.55004" lon="-0.92918">
        <ele>47</ele>
        <time>2021-05-08T08:48:01Z</time>
      </trkpt>
      <trkpt lat="43.55006" lon="-0.92916">
        <ele>48</ele>
        <time>2021-05-08T08:48:02Z</time>
      </trkpt>
      <trkpt lat="43.55008" lon="-0.92914">
        <ele>48</ele>
        <time>2021-05-08T08:48:03Z</time>
      </trkpt>
      <trkpt lat="43.5501" lon="-0.92912">
        <ele>48</ele>
        <time>2021-05-08T08:48:04Z</time>
      </trkpt>
      <trkpt lat="43.55013" lon="-0.9291">
        <ele>48</ele>
        <time>2021-05-08T08:48:05Z</time>
      </trkpt>
      <trkpt lat="43.55015" lon="-0.92908">
        <ele>48</ele>
        <time>2021-05-08T08:48:06Z</time>
      </trkpt>
      <trkpt lat="43.55017" lon="-0.92907">
        <ele>49</ele>
        <time>2021-05-08T08:48:07Z</time>
      </trkpt>
      <trkpt lat="43.55019" lon="-0.92906">
        <ele>49</ele>
        <time>2021-05-08T08:48:08Z</time>
      </trkpt>
      <trkpt lat="43.55021" lon="-0.92905">
        <ele>49</ele>
        <time>2021-05-08T08:48:09Z</time>
      </trkpt>
      <trkpt lat="43.55023" lon="-0.92906">
        <ele>49</ele>
        <time>2021-05-08T08:48:10Z</time>
      </trkpt>
      <trkpt lat="43.55025" lon="-0.92906">
        <ele>49</ele>
        <time>2021-05-08T08:48:11Z</time>
      </trkpt>
      <trkpt lat="43.55027" lon="-0.92907">
        <ele>49</ele>
        <time>2021-05-08T08:48:12Z</time>
      </trkpt>
      <trkpt lat="43.55029" lon="-0.92909">
        <ele>49</ele>
        <time>2021-05-08T08:48:13Z</time>
      </trkpt>
      <trkpt lat="43.55031" lon="-0.9291">
        <ele>49</ele>
        <time>2021-05-08T08:48:14Z</time>
      </trkpt>
      <trkpt lat="43.55033" lon="-0.92912">
        <ele>49</ele>
        <time>2021-05-08T08:48:15Z</time>
      </trkpt>
      <trkpt lat="43.55034" lon="-0.92913">
        <ele>49</ele>
        <time>2021-05-08T08:48:16Z</time>
      </trkpt>
      <trkpt lat="43.55036" lon="-0.92914">
        <ele>50</ele>
        <time>2021-05-08T08:48:17Z</time>
      </trkpt>
      <trkpt lat="43.55038" lon="-0.92915">
        <ele>50</ele>
        <time>2021-05-08T08:48:18Z</time>
      </trkpt>
      <trkpt lat="43.5504" lon="-0.92917">
        <ele>50</ele>
        <time>2021-05-08T08:48:19Z</time>
      </trkpt>
      <trkpt lat="43.55042" lon="-0.92918">
        <ele>50</ele>
        <time>2021-05-08T08:48:20Z</time>
      </trkpt>
      <trkpt lat="43.55043" lon="-0.9292">
        <ele>50</ele>
        <time>2021-05-08T08:48:21Z</time>
      </trkpt>
      <trkpt lat="43.55045" lon="-0.92922">
        <ele>50</ele>
        <time>2021-05-08T08:48:22Z</time>
      </trkpt>
      <trkpt lat="43.55047" lon="-0.92924">
        <ele>50</ele>
        <time>2021-05-08T08:48:23Z</time>
      </trkpt>
      <trkpt lat="43.55049" lon="-0.92926">
        <ele>50</ele>
        <time>2021-05-08T08:48:24Z</time>
      </trkpt>
      <trkpt lat="43.5505" lon="-0.92928">
        <ele>50</ele>
        <time>2021-05-08T08:48:25Z</time>
      </trkpt>
      <trkpt lat="43.55052" lon="-0.9293">
        <ele>50</ele>
        <time>2021-05-08T08:48:26Z</time>
      </trkpt>
      <trkpt lat="43.55054" lon="-0.92932">
        <ele>51</ele>
        <time>2021-05-08T08:48:27Z</time>
      </trkpt>
      <trkpt lat="43.55056" lon="-0.92934">
        <ele>51</ele>
        <time>2021-05-08T08:48:28Z</time>
      </trkpt>
      <trkpt lat="43.55058" lon="-0.92936">
        <ele>51</ele>
        <time>2021-05-08T08:48:29Z</time>
      </trkpt>
      <trkpt lat="43.5506" lon="-0.92938">
        <ele>51</ele>
        <time>2021-05-08T08:48:30Z</time>
      </trkpt>
      <trkpt lat="43.55062" lon="-0.9294">
        <ele>51</ele>
        <time>2021-05-08T08:48:31Z</time>
      </trkpt>
      <trkpt lat="43.55063" lon="-0.92942">
        <ele>52</ele>
        <time>2021-05-08T08:48:32Z</time>
      </trkpt>
      <trkpt lat="43.55065" lon="-0.92943">
        <ele>52</ele>
        <time>2021-05-08T08:48:33Z</time>
      </trkpt>
      <trkpt lat="43.55067" lon="-0.92945">
        <ele>52</ele>
        <time>2021-05-08T08:48:34Z</time>
      </trkpt>
      <trkpt lat="43.55069" lon="-0.92947">
        <ele>52</ele>
        <time>2021-05-08T08:48:35Z</time>
      </trkpt>
      <trkpt lat="43.5507" lon="-0.92949">
        <ele>52</ele>
        <time>2021-05-08T08:48:36Z</time>
      </trkpt>
      <trkpt lat="43.55072" lon="-0.92951">
        <ele>53</ele>
        <time>2021-05-08T08:48:37Z</time>
      </trkpt>
      <trkpt lat="43.55074" lon="-0.92953">
        <ele>53</ele>
        <time>2021-05-08T08:48:38Z</time>
      </trkpt>
      <trkpt lat="43.55075" lon="-0.92956">
        <ele>53</ele>
        <time>2021-05-08T08:48:39Z</time>
      </trkpt>
      <trkpt lat="43.55077" lon="-0.92958">
        <ele>53</ele>
        <time>2021-05-08T08:48:40Z</time>
      </trkpt>
      <trkpt lat="43.55078" lon="-0.9296">
        <ele>53</ele>
        <time>2021-05-08T08:48:41Z</time>
      </trkpt>
      <trkpt lat="43.5508" lon="-0.92962">
        <ele>54</ele>
        <time>2021-05-08T08:48:42Z</time>
      </trkpt>
      <trkpt lat="43.55082" lon="-0.92965">
        <ele>54</ele>
        <time>2021-05-08T08:48:43Z</time>
      </trkpt>
      <trkpt lat="43.55083" lon="-0.92967">
        <ele>54</ele>
        <time>2021-05-08T08:48:44Z</time>
      </trkpt>
      <trkpt lat="43.55085" lon="-0.92969">
        <ele>54</ele>
        <time>2021-05-08T08:48:45Z</time>
      </trkpt>
      <trkpt lat="43.55086" lon="-0.92971">
        <ele>54</ele>
        <time>2021-05-08T08:48:46Z</time>
      </trkpt>
      <trkpt lat="43.55088" lon="-0.92973">
        <ele>55</ele>
        <time>2021-05-08T08:48:47Z</time>
      </trkpt>
      <trkpt lat="43.55089" lon="-0.92975">
        <ele>55</ele>
        <time>2021-05-08T08:48:48Z</time>
      </trkpt>
      <trkpt lat="43.55091" lon="-0.92976">
        <ele>55</ele>
        <time>2021-05-08T08:48:49Z</time>
      </trkpt>
      <trkpt lat="43.55092" lon="-0.92978">
        <ele>55</ele>
        <time>2021-05-08T08:48:50Z</time>
      </trkpt>
      <trkpt lat="43.55094" lon="-0.9298">
        <ele>55</ele>
        <time>2021-05-08T08:48:51Z</time>
      </trkpt>
      <trkpt lat="43.55095" lon="-0.92982">
        <ele>56</ele>
        <time>2021-05-08T08:48:52Z</time>
      </trkpt>
      <trkpt lat="43.55097" lon="-0.92984">
        <ele>56</ele>
        <time>2021-05-08T08:48:53Z</time>
      </trkpt>
      <trkpt lat="43.55098" lon="-0.92986">
        <ele>56</ele>
        <time>2021-05-08T08:48:54Z</time>
      </trkpt>
      <trkpt lat="43.551" lon="-0.92988">
        <ele>56</ele>
        <time>2021-05-08T08:48:55Z</time>
      </trkpt>
      <trkpt lat="43.55101" lon="-0.9299">
        <ele>56</ele>
        <time>2021-05-08T08:48:56Z</time>
      </trkpt>
      <trkpt lat="43.55103" lon="-0.92992">
        <ele>57</ele>
        <time>2021-05-08T08:48:57Z</time>
      </trkpt>
      <trkpt lat="43.55104" lon="-0.92994">
        <ele>57</ele>
        <time>2021-05-08T08:48:58Z</time>
      </trkpt>
      <trkpt lat="43.55105" lon="-0.92996">
        <ele>57</ele>
        <time>2021-05-08T08:48:59Z</time>
      </trkpt>
      <trkpt lat="43.55107" lon="-0.92998">
        <ele>58</ele>
        <time>2021-05-08T08:49:00Z</time>
      </trkpt>
      <trkpt lat="43.55108" lon="-0.93">
        <ele>58</ele>
        <time>2021-05-08T08:49:01Z</time>
      </trkpt>
      <trkpt lat="43.5511" lon="-0.93002">
        <ele>59</ele>
        <time>2021-05-08T08:49:02Z</time>
      </trkpt>
      <trkpt lat="43.55111" lon="-0.93004">
        <ele>59</ele>
        <time>2021-05-08T08:49:03Z</time>
      </trkpt>
      <trkpt lat="43.55112" lon="-0.93006">
        <ele>59</ele>
        <time>2021-05-08T08:49:04Z</time>
      </trkpt>
      <trkpt lat="43.55114" lon="-0.93008">
        <ele>59</ele>
        <time>2021-05-08T08:49:05Z</time>
      </trkpt>
      <trkpt lat="43.55115" lon="-0.9301">
        <ele>59</ele>
        <time>2021-05-08T08:49:06Z</time>
      </trkpt>
      <trkpt lat="43.55116" lon="-0.93012">
        <ele>60</ele>
        <time>2021-05-08T08:49:07Z</time>
      </trkpt>
      <trkpt lat="43.55118" lon="-0.93014">
        <ele>60</ele>
        <time>2021-05-08T08:49:08Z</time>
      </trkpt>
      <trkpt lat="43.55119" lon="-0.93016">
        <ele>60</ele>
        <time>2021-05-08T08:49:09Z</time>
      </trkpt>
      <trkpt lat="43.5512" lon="-0.93018">
        <ele>61</ele>
        <time>2021-05-08T08:49:10Z</time>
      </trkpt>
      <trkpt lat="43.55122" lon="-0.9302">
        <ele>61</ele>
        <time>2021-05-08T08:49:11Z</time>
      </trkpt>
      <trkpt lat="43.55123" lon="-0.93021">
        <ele>62</ele>
        <time>2021-05-08T08:49:12Z</time>
      </trkpt>
      <trkpt lat="43.55124" lon="-0.93023">
        <ele>62</ele>
        <time>2021-05-08T08:49:13Z</time>
      </trkpt>
      <trkpt lat="43.55125" lon="-0.93025">
        <ele>62</ele>
        <time>2021-05-08T08:49:14Z</time>
      </trkpt>
      <trkpt lat="43.55126" lon="-0.93027">
        <ele>62</ele>
        <time>2021-05-08T08:49:15Z</time>
      </trkpt>
      <trkpt lat="43.55128" lon="-0.93029">
        <ele>62</ele>
        <time>2021-05-08T08:49:16Z</time>
      </trkpt>
      <trkpt lat="43.55129" lon="-0.93031">
        <ele>63</ele>
        <time>2021-05-08T08:49:17Z</time>
      </trkpt>
      <trkpt lat="43.5513" lon="-0.93033">
        <ele>63</ele>
        <time>2021-05-08T08:49:18Z</time>
      </trkpt>
      <trkpt lat="43.55131" lon="-0.93035">
        <ele>63</ele>
        <time>2021-05-08T08:49:19Z</time>
      </trkpt>
      <trkpt lat="43.55133" lon="-0.93036">
        <ele>63</ele>
        <time>2021-05-08T08:49:20Z</time>
      </trkpt>
      <trkpt lat="43.55134" lon="-0.93038">
        <ele>63</ele>
        <time>2021-05-08T08:49:21Z</time>
      </trkpt>
      <trkpt lat="43.55135" lon="-0.9304">
        <ele>64</ele>
        <time>2021-05-08T08:49:22Z</time>
      </trkpt>
      <trkpt lat="43.55136" lon="-0.93042">
        <ele>64</ele>
        <time>2021-05-08T08:49:23Z</time>
      </trkpt>
      <trkpt lat="43.55138" lon="-0.93043">
        <ele>64</ele>
        <time>2021-05-08T08:49:24Z</time>
      </trkpt>
      <trkpt lat="43.55139" lon="-0.93045">
        <ele>64</ele>
        <time>2021-05-08T08:49:25Z</time>
      </trkpt>
      <trkpt lat="43.55141" lon="-0.93047">
        <ele>64</ele>
        <time>2021-05-08T08:49:26Z</time>
      </trkpt>
      <trkpt lat="43.55143" lon="-0.93048">
        <ele>65</ele>
        <time>2021-05-08T08:49:27Z</time>
      </trkpt>
      <trkpt lat="43.55144" lon="-0.9305">
        <ele>65</ele>
        <time>2021-05-08T08:49:28Z</time>
      </trkpt>
      <trkpt lat="43.55146" lon="-0.93052">
        <ele>65</ele>
        <time>2021-05-08T08:49:29Z</time>
      </trkpt>
      <trkpt lat="43.55147" lon="-0.93053">
        <ele>65</ele>
        <time>2021-05-08T08:49:30Z</time>
      </trkpt>
      <trkpt lat="43.55148" lon="-0.93055">
        <ele>65</ele>
        <time>2021-05-08T08:49:31Z</time>
      </trkpt>
      <trkpt lat="43.55149" lon="-0.93056">
        <ele>66</ele>
        <time>2021-05-08T08:49:32Z</time>
      </trkpt>
      <trkpt lat="43.55151" lon="-0.93058">
        <ele>66</ele>
        <time>2021-05-08T08:49:33Z</time>
      </trkpt>
      <trkpt lat="43.55152" lon="-0.93059">
        <ele>66</ele>
        <time>2021-05-08T08:49:34Z</time>
      </trkpt>
      <trkpt lat="43.55153" lon="-0.93061">
        <ele>66</ele>
        <time>2021-05-08T08:49:35Z</time>
      </trkpt>
      <trkpt lat="43.55154" lon="-0.93062">
        <ele>66</ele>
        <time>2021-05-08T08:49:36Z</time>
      </trkpt>
      <trkpt lat="43.55156" lon="-0.93063">
        <ele>67</ele>
        <time>2021-05-08T08:49:37Z</time>
      </trkpt>
      <trkpt lat="43.55156" lon="-0.93065">
        <ele>67</ele>
        <time>2021-05-08T08:49:38Z</time>
      </trkpt>
      <trkpt lat="43.55157" lon="-0.93066">
        <ele>67</ele>
        <time>2021-05-08T08:49:39Z</time>
      </trkpt>
      <trkpt lat="43.55158" lon="-0.93068">
        <ele>67</ele>
        <time>2021-05-08T08:49:40Z</time>
      </trkpt>
      <trkpt lat="43.55158" lon="-0.93069">
        <ele>67</ele>
        <time>2021-05-08T08:49:41Z</time>
      </trkpt>
      <trkpt lat="43.55159" lon="-0.93071">
        <ele>68</ele>
        <time>2021-05-08T08:49:42Z</time>
      </trkpt>
      <trkpt lat="43.55159" lon="-0.93073">
        <ele>68</ele>
        <time>2021-05-08T08:49:43Z</time>
      </trkpt>
      <trkpt lat="43.5516" lon="-0.93076">
        <ele>68</ele>
        <time>2021-05-08T08:49:44Z</time>
      </trkpt>
      <trkpt lat="43.5516" lon="-0.93078">
        <ele>68</ele>
        <time>2021-05-08T08:49:45Z</time>
      </trkpt>
      <trkpt lat="43.5516" lon="-0.93081">
        <ele>68</ele>
        <time>2021-05-08T08:49:46Z</time>
      </trkpt>
      <trkpt lat="43.55161" lon="-0.93083">
        <ele>69</ele>
        <time>2021-05-08T08:49:47Z</time>
      </trkpt>
      <trkpt lat="43.55161" lon="-0.93086">
        <ele>69</ele>
        <time>2021-05-08T08:49:48Z</time>
      </trkpt>
      <trkpt lat="43.55161" lon="-0.93088">
        <ele>69</ele>
        <time>2021-05-08T08:49:49Z</time>
      </trkpt>
      <trkpt lat="43.55162" lon="-0.93091">
        <ele>69</ele>
        <time>2021-05-08T08:49:50Z</time>
      </trkpt>
      <trkpt lat="43.55162" lon="-0.93093">
        <ele>69</ele>
        <time>2021-05-08T08:49:51Z</time>
      </trkpt>
      <trkpt lat="43.55163" lon="-0.93096">
        <ele>69</ele>
        <time>2021-05-08T08:49:52Z</time>
      </trkpt>
      <trkpt lat="43.55164" lon="-0.93098">
        <ele>69</ele>
        <time>2021-05-08T08:49:53Z</time>
      </trkpt>
      <trkpt lat="43.55164" lon="-0.931">
        <ele>69</ele>
        <time>2021-05-08T08:49:54Z</time>
      </trkpt>
      <trkpt lat="43.55165" lon="-0.93103">
        <ele>69</ele>
        <time>2021-05-08T08:49:55Z</time>
      </trkpt>
      <trkpt lat="43.55166" lon="-0.93105">
        <ele>69</ele>
        <time>2021-05-08T08:49:56Z</time>
      </trkpt>
      <trkpt lat="43.55166" lon="-0.93107">
        <ele>70</ele>
        <time>2021-05-08T08:49:57Z</time>
      </trkpt>
      <trkpt lat="43.55167" lon="-0.93109">
        <ele>70</ele>
        <time>2021-05-08T08:49:58Z</time>
      </trkpt>
      <trkpt lat="43.55167" lon="-0.93112">
        <ele>70</ele>
        <time>2021-05-08T08:49:59Z</time>
      </trkpt>
      <trkpt lat="43.55167" lon="-0.93114">
        <ele>70</ele>
        <time>2021-05-08T08:50:00Z</time>
      </trkpt>
      <trkpt lat="43.55168" lon="-0.93116">
        <ele>70</ele>
        <time>2021-05-08T08:50:01Z</time>
      </trkpt>
      <trkpt lat="43.55168" lon="-0.93119">
        <ele>70</ele>
        <time>2021-05-08T08:50:02Z</time>
      </trkpt>
      <trkpt lat="43.55168" lon="-0.93121">
        <ele>70</ele>
        <time>2021-05-08T08:50:03Z</time>
      </trkpt>
      <trkpt lat="43.55169" lon="-0.93124">
        <ele>70</ele>
        <time>2021-05-08T08:50:04Z</time>
      </trkpt>
      <trkpt lat="43.55169" lon="-0.93126">
        <ele>70</ele>
        <time>2021-05-08T08:50:05Z</time>
      </trkpt>
      <trkpt lat="43.55169" lon="-0.93128">
        <ele>70</ele>
        <time>2021-05-08T08:50:06Z</time>
      </trkpt>
      <trkpt lat="43.5517" lon="-0.93131">
        <ele>71</ele>
        <time>2021-05-08T08:50:07Z</time>
      </trkpt>
      <trkpt lat="43.5517" lon="-0.93133">
        <ele>71</ele>
        <time>2021-05-08T08:50:08Z</time>
      </trkpt>
      <trkpt lat="43.55171" lon="-0.93135">
        <ele>71</ele>
        <time>2021-05-08T08:50:09Z</time>
      </trkpt>
      <trkpt lat="43.55171" lon="-0.93138">
        <ele>71</ele>
        <time>2021-05-08T08:50:10Z</time>
      </trkpt>
      <trkpt lat="43.55172" lon="-0.93141">
        <ele>71</ele>
        <time>2021-05-08T08:50:11Z</time>
      </trkpt>
      <trkpt lat="43.55172" lon="-0.93144">
        <ele>72</ele>
        <time>2021-05-08T08:50:12Z</time>
      </trkpt>
      <trkpt lat="43.55173" lon="-0.93147">
        <ele>72</ele>
        <time>2021-05-08T08:50:13Z</time>
      </trkpt>
      <trkpt lat="43.55173" lon="-0.9315">
        <ele>72</ele>
        <time>2021-05-08T08:50:14Z</time>
      </trkpt>
      <trkpt lat="43.55173" lon="-0.93153">
        <ele>72</ele>
        <time>2021-05-08T08:50:15Z</time>
      </trkpt>
      <trkpt lat="43.55173" lon="-0.93156">
        <ele>72</ele>
        <time>2021-05-08T08:50:16Z</time>
      </trkpt>
      <trkpt lat="43.55173" lon="-0.93159">
        <ele>72</ele>
        <time>2021-05-08T08:50:17Z</time>
      </trkpt>
      <trkpt lat="43.55173" lon="-0.93161">
        <ele>72</ele>
        <time>2021-05-08T08:50:18Z</time>
      </trkpt>
      <trkpt lat="43.55173" lon="-0.93164">
        <ele>72</ele>
        <time>2021-05-08T08:50:19Z</time>
      </trkpt>
      <trkpt lat="43.55173" lon="-0.93167">
        <ele>72</ele>
        <time>2021-05-08T08:50:20Z</time>
      </trkpt>
      <trkpt lat="43.55173" lon="-0.9317">
        <ele>72</ele>
        <time>2021-05-08T08:50:21Z</time>
      </trkpt>
      <trkpt lat="43.55173" lon="-0.93173">
        <ele>73</ele>
        <time>2021-05-08T08:50:22Z</time>
      </trkpt>
      <trkpt lat="43.55172" lon="-0.93177">
        <ele>73</ele>
        <time>2021-05-08T08:50:23Z</time>
      </trkpt>
      <trkpt lat="43.55172" lon="-0.93179">
        <ele>73</ele>
        <time>2021-05-08T08:50:24Z</time>
      </trkpt>
      <trkpt lat="43.55172" lon="-0.93182">
        <ele>73</ele>
        <time>2021-05-08T08:50:25Z</time>
      </trkpt>
      <trkpt lat="43.55172" lon="-0.93184">
        <ele>73</ele>
        <time>2021-05-08T08:50:26Z</time>
      </trkpt>
      <trkpt lat="43.55172" lon="-0.93186">
        <ele>73</ele>
        <time>2021-05-08T08:50:27Z</time>
      </trkpt>
      <trkpt lat="43.55172" lon="-0.93189">
        <ele>73</ele>
        <time>2021-05-08T08:50:28Z</time>
      </trkpt>
      <trkpt lat="43.55172" lon="-0.93191">
        <ele>73</ele>
        <time>2021-05-08T08:50:29Z</time>
      </trkpt>
      <trkpt lat="43.55172" lon="-0.93193">
        <ele>73</ele>
        <time>2021-05-08T08:50:30Z</time>
      </trkpt>
      <trkpt lat="43.55172" lon="-0.93195">
        <ele>73</ele>
        <time>2021-05-08T08:50:31Z</time>
      </trkpt>
      <trkpt lat="43.55172" lon="-0.93197">
        <ele>74</ele>
        <time>2021-05-08T08:50:32Z</time>
      </trkpt>
      <trkpt lat="43.55173" lon="-0.93199">
        <ele>74</ele>
        <time>2021-05-08T08:50:33Z</time>
      </trkpt>
      <trkpt lat="43.55173" lon="-0.93201">
        <ele>74</ele>
        <time>2021-05-08T08:50:34Z</time>
      </trkpt>
      <trkpt lat="43.55174" lon="-0.93203">
        <ele>75</ele>
        <time>2021-05-08T08:50:35Z</time>
      </trkpt>
      <trkpt lat="43.55174" lon="-0.93205">
        <ele>75</ele>
        <time>2021-05-08T08:50:36Z</time>
      </trkpt>
      <trkpt lat="43.55174" lon="-0.93207">
        <ele>76</ele>
        <time>2021-05-08T08:50:37Z</time>
      </trkpt>
      <trkpt lat="43.55173" lon="-0.93209">
        <ele>76</ele>
        <time>2021-05-08T08:50:38Z</time>
      </trkpt>
      <trkpt lat="43.55173" lon="-0.93211">
        <ele>76</ele>
        <time>2021-05-08T08:50:39Z</time>
      </trkpt>
      <trkpt lat="43.55173" lon="-0.93213">
        <ele>76</ele>
        <time>2021-05-08T08:50:40Z</time>
      </trkpt>
      <trkpt lat="43.55173" lon="-0.93215">
        <ele>76</ele>
        <time>2021-05-08T08:50:41Z</time>
      </trkpt>
      <trkpt lat="43.55172" lon="-0.93218">
        <ele>77</ele>
        <time>2021-05-08T08:50:42Z</time>
      </trkpt>
      <trkpt lat="43.55172" lon="-0.9322">
        <ele>77</ele>
        <time>2021-05-08T08:50:43Z</time>
      </trkpt>
      <trkpt lat="43.55172" lon="-0.93223">
        <ele>77</ele>
        <time>2021-05-08T08:50:44Z</time>
      </trkpt>
      <trkpt lat="43.55172" lon="-0.93225">
        <ele>77</ele>
        <time>2021-05-08T08:50:45Z</time>
      </trkpt>
      <trkpt lat="43.55172" lon="-0.93227">
        <ele>77</ele>
        <time>2021-05-08T08:50:46Z</time>
      </trkpt>
      <trkpt lat="43.55171" lon="-0.93229">
        <ele>78</ele>
        <time>2021-05-08T08:50:47Z</time>
      </trkpt>
      <trkpt lat="43.55171" lon="-0.93231">
        <ele>78</ele>
        <time>2021-05-08T08:50:48Z</time>
      </trkpt>
      <trkpt lat="43.55171" lon="-0.93233">
        <ele>78</ele>
        <time>2021-05-08T08:50:49Z</time>
      </trkpt>
      <trkpt lat="43.55171" lon="-0.93234">
        <ele>78</ele>
        <time>2021-05-08T08:50:50Z</time>
      </trkpt>
      <trkpt lat="43.5517" lon="-0.93236">
        <ele>78</ele>
        <time>2021-05-08T08:50:51Z</time>
      </trkpt>
      <trkpt lat="43.5517" lon="-0.93237">
        <ele>79</ele>
        <time>2021-05-08T08:50:52Z</time>
      </trkpt>
      <trkpt lat="43.5517" lon="-0.93238">
        <ele>79</ele>
        <time>2021-05-08T08:50:53Z</time>
      </trkpt>
      <trkpt lat="43.55169" lon="-0.9324">
        <ele>79</ele>
        <time>2021-05-08T08:50:54Z</time>
      </trkpt>
      <trkpt lat="43.55169" lon="-0.93241">
        <ele>80</ele>
        <time>2021-05-08T08:50:55Z</time>
      </trkpt>
      <trkpt lat="43.55169" lon="-0.93242">
        <ele>80</ele>
        <time>2021-05-08T08:50:56Z</time>
      </trkpt>
      <trkpt lat="43.55169" lon="-0.93243">
        <ele>81</ele>
        <time>2021-05-08T08:50:57Z</time>
      </trkpt>
      <trkpt lat="43.55168" lon="-0.93244">
        <ele>81</ele>
        <time>2021-05-08T08:50:58Z</time>
      </trkpt>
      <trkpt lat="43.55168" lon="-0.93246">
        <ele>81</ele>
        <time>2021-05-08T08:50:59Z</time>
      </trkpt>
      <trkpt lat="43.55168" lon="-0.93247">
        <ele>81</ele>
        <time>2021-05-08T08:51:00Z</time>
      </trkpt>
      <trkpt lat="43.55167" lon="-0.93249">
        <ele>81</ele>
        <time>2021-05-08T08:51:01Z</time>
      </trkpt>
      <trkpt lat="43.55167" lon="-0.93251">
        <ele>82</ele>
        <time>2021-05-08T08:51:02Z</time>
      </trkpt>
      <trkpt lat="43.55167" lon="-0.93252">
        <ele>82</ele>
        <time>2021-05-08T08:51:03Z</time>
      </trkpt>
      <trkpt lat="43.55167" lon="-0.93254">
        <ele>82</ele>
        <time>2021-05-08T08:51:04Z</time>
      </trkpt>
      <trkpt lat="43.55167" lon="-0.93256">
        <ele>82</ele>
        <time>2021-05-08T08:51:05Z</time>
      </trkpt>
      <trkpt lat="43.55167" lon="-0.93257">
        <ele>82</ele>
        <time>2021-05-08T08:51:06Z</time>
      </trkpt>
      <trkpt lat="43.55167" lon="-0.9326">
        <ele>83</ele>
        <time>2021-05-08T08:51:07Z</time>
      </trkpt>
      <trkpt lat="43.55167" lon="-0.93262">
        <ele>83</ele>
        <time>2021-05-08T08:51:08Z</time>
      </trkpt>
      <trkpt lat="43.55167" lon="-0.93264">
        <ele>83</ele>
        <time>2021-05-08T08:51:09Z</time>
      </trkpt>
      <trkpt lat="43.55167" lon="-0.93267">
        <ele>83</ele>
        <time>2021-05-08T08:51:10Z</time>
      </trkpt>
      <trkpt lat="43.55167" lon="-0.93269">
        <ele>83</ele>
        <time>2021-05-08T08:51:11Z</time>
      </trkpt>
      <trkpt lat="43.55168" lon="-0.93271">
        <ele>84</ele>
        <time>2021-05-08T08:51:12Z</time>
      </trkpt>
      <trkpt lat="43.55168" lon="-0.93273">
        <ele>84</ele>
        <time>2021-05-08T08:51:13Z</time>
      </trkpt>
      <trkpt lat="43.55168" lon="-0.93275">
        <ele>84</ele>
        <time>2021-05-08T08:51:14Z</time>
      </trkpt>
      <trkpt lat="43.55169" lon="-0.93276">
        <ele>84</ele>
        <time>2021-05-08T08:51:15Z</time>
      </trkpt>
      <trkpt lat="43.55169" lon="-0.93278">
        <ele>84</ele>
        <time>2021-05-08T08:51:16Z</time>
      </trkpt>
      <trkpt lat="43.5517" lon="-0.9328">
        <ele>85</ele>
        <time>2021-05-08T08:51:17Z</time>
      </trkpt>
      <trkpt lat="43.5517" lon="-0.93282">
        <ele>85</ele>
        <time>2021-05-08T08:51:18Z</time>
      </trkpt>
      <trkpt lat="43.55171" lon="-0.93284">
        <ele>85</ele>
        <time>2021-05-08T08:51:19Z</time>
      </trkpt>
      <trkpt lat="43.55171" lon="-0.93286">
        <ele>85</ele>
        <time>2021-05-08T08:51:20Z</time>
      </trkpt>
      <trkpt lat="43.55172" lon="-0.93288">
        <ele>85</ele>
        <time>2021-05-08T08:51:21Z</time>
      </trkpt>
      <trkpt lat="43.55172" lon="-0.9329">
        <ele>85</ele>
        <time>2021-05-08T08:51:22Z</time>
      </trkpt>
      <trkpt lat="43.55173" lon="-0.93292">
        <ele>85</ele>
        <time>2021-05-08T08:51:23Z</time>
      </trkpt>
      <trkpt lat="43.55173" lon="-0.93293">
        <ele>85</ele>
        <time>2021-05-08T08:51:24Z</time>
      </trkpt>
      <trkpt lat="43.55174" lon="-0.93295">
        <ele>86</ele>
        <time>2021-05-08T08:51:25Z</time>
      </trkpt>
      <trkpt lat="43.55174" lon="-0.93297">
        <ele>86</ele>
        <time>2021-05-08T08:51:26Z</time>
      </trkpt>
      <trkpt lat="43.55175" lon="-0.93299">
        <ele>87</ele>
        <time>2021-05-08T08:51:27Z</time>
      </trkpt>
      <trkpt lat="43.55176" lon="-0.93301">
        <ele>87</ele>
        <time>2021-05-08T08:51:28Z</time>
      </trkpt>
      <trkpt lat="43.55176" lon="-0.93303">
        <ele>87</ele>
        <time>2021-05-08T08:51:29Z</time>
      </trkpt>
      <trkpt lat="43.55177" lon="-0.93306">
        <ele>87</ele>
        <time>2021-05-08T08:51:30Z</time>
      </trkpt>
      <trkpt lat="43.55178" lon="-0.93308">
        <ele>87</ele>
        <time>2021-05-08T08:51:31Z</time>
      </trkpt>
      <trkpt lat="43.55178" lon="-0.9331">
        <ele>88</ele>
        <time>2021-05-08T08:51:32Z</time>
      </trkpt>
      <trkpt lat="43.55179" lon="-0.93313">
        <ele>88</ele>
        <time>2021-05-08T08:51:33Z</time>
      </trkpt>
      <trkpt lat="43.5518" lon="-0.93315">
        <ele>88</ele>
        <time>2021-05-08T08:51:34Z</time>
      </trkpt>
      <trkpt lat="43.55181" lon="-0.93318">
        <ele>88</ele>
        <time>2021-05-08T08:51:35Z</time>
      </trkpt>
      <trkpt lat="43.55181" lon="-0.93321">
        <ele>88</ele>
        <time>2021-05-08T08:51:36Z</time>
      </trkpt>
      <trkpt lat="43.55182" lon="-0.93323">
        <ele>89</ele>
        <time>2021-05-08T08:51:37Z</time>
      </trkpt>
      <trkpt lat="43.55183" lon="-0.93325">
        <ele>89</ele>
        <time>2021-05-08T08:51:38Z</time>
      </trkpt>
      <trkpt lat="43.55184" lon="-0.93327">
        <ele>89</ele>
        <time>2021-05-08T08:51:39Z</time>
      </trkpt>
      <trkpt lat="43.55185" lon="-0.93329">
        <ele>89</ele>
        <time>2021-05-08T08:51:40Z</time>
      </trkpt>
      <trkpt lat="43.55186" lon="-0.9333">
        <ele>89</ele>
        <time>2021-05-08T08:51:41Z</time>
      </trkpt>
      <trkpt lat="43.55187" lon="-0.93332">
        <ele>90</ele>
        <time>2021-05-08T08:51:42Z</time>
      </trkpt>
      <trkpt lat="43.55188" lon="-0.93333">
        <ele>90</ele>
        <time>2021-05-08T08:51:43Z</time>
      </trkpt>
      <trkpt lat="43.55189" lon="-0.93334">
        <ele>90</ele>
        <time>2021-05-08T08:51:44Z</time>
      </trkpt>
      <trkpt lat="43.5519" lon="-0.93335">
        <ele>90</ele>
        <time>2021-05-08T08:51:45Z</time>
      </trkpt>
      <trkpt lat="43.55191" lon="-0.93336">
        <ele>90</ele>
        <time>2021-05-08T08:51:46Z</time>
      </trkpt>
      <trkpt lat="43.55192" lon="-0.93338">
        <ele>91</ele>
        <time>2021-05-08T08:51:47Z</time>
      </trkpt>
      <trkpt lat="43.55193" lon="-0.93339">
        <ele>91</ele>
        <time>2021-05-08T08:51:48Z</time>
      </trkpt>
      <trkpt lat="43.55194" lon="-0.9334">
        <ele>91</ele>
        <time>2021-05-08T08:51:49Z</time>
      </trkpt>
      <trkpt lat="43.55196" lon="-0.93341">
        <ele>91</ele>
        <time>2021-05-08T08:51:50Z</time>
      </trkpt>
      <trkpt lat="43.55197" lon="-0.93343">
        <ele>91</ele>
        <time>2021-05-08T08:51:51Z</time>
      </trkpt>
      <trkpt lat="43.55198" lon="-0.93344">
        <ele>91</ele>
        <time>2021-05-08T08:51:52Z</time>
      </trkpt>
      <trkpt lat="43.55199" lon="-0.93346">
        <ele>91</ele>
        <time>2021-05-08T08:51:53Z</time>
      </trkpt>
      <trkpt lat="43.55201" lon="-0.93348">
        <ele>91</ele>
        <time>2021-05-08T08:51:54Z</time>
      </trkpt>
      <trkpt lat="43.55202" lon="-0.9335">
        <ele>91</ele>
        <time>2021-05-08T08:51:55Z</time>
      </trkpt>
      <trkpt lat="43.55204" lon="-0.93351">
        <ele>91</ele>
        <time>2021-05-08T08:51:56Z</time>
      </trkpt>
      <trkpt lat="43.55206" lon="-0.93353">
        <ele>92</ele>
        <time>2021-05-08T08:51:57Z</time>
      </trkpt>
      <trkpt lat="43.55207" lon="-0.93355">
        <ele>92</ele>
        <time>2021-05-08T08:51:58Z</time>
      </trkpt>
      <trkpt lat="43.55209" lon="-0.93357">
        <ele>92</ele>
        <time>2021-05-08T08:51:59Z</time>
      </trkpt>
      <trkpt lat="43.55211" lon="-0.93358">
        <ele>92</ele>
        <time>2021-05-08T08:52:00Z</time>
      </trkpt>
      <trkpt lat="43.55213" lon="-0.93359">
        <ele>92</ele>
        <time>2021-05-08T08:52:01Z</time>
      </trkpt>
      <trkpt lat="43.55215" lon="-0.93361">
        <ele>92</ele>
        <time>2021-05-08T08:52:02Z</time>
      </trkpt>
      <trkpt lat="43.55217" lon="-0.93362">
        <ele>91</ele>
        <time>2021-05-08T08:52:03Z</time>
      </trkpt>
      <trkpt lat="43.55219" lon="-0.93363">
        <ele>91</ele>
        <time>2021-05-08T08:52:04Z</time>
      </trkpt>
      <trkpt lat="43.55221" lon="-0.93365">
        <ele>91</ele>
        <time>2021-05-08T08:52:05Z</time>
      </trkpt>
      <trkpt lat="43.55223" lon="-0.93366">
        <ele>91</ele>
        <time>2021-05-08T08:52:06Z</time>
      </trkpt>
      <trkpt lat="43.55224" lon="-0.93368">
        <ele>91</ele>
        <time>2021-05-08T08:52:07Z</time>
      </trkpt>
      <trkpt lat="43.55226" lon="-0.9337">
        <ele>91</ele>
        <time>2021-05-08T08:52:08Z</time>
      </trkpt>
      <trkpt lat="43.55228" lon="-0.93372">
        <ele>91</ele>
        <time>2021-05-08T08:52:09Z</time>
      </trkpt>
      <trkpt lat="43.5523" lon="-0.93374">
        <ele>91</ele>
        <time>2021-05-08T08:52:10Z</time>
      </trkpt>
      <trkpt lat="43.55232" lon="-0.93376">
        <ele>91</ele>
        <time>2021-05-08T08:52:11Z</time>
      </trkpt>
      <trkpt lat="43.55234" lon="-0.93378">
        <ele>91</ele>
        <time>2021-05-08T08:52:12Z</time>
      </trkpt>
      <trkpt lat="43.55236" lon="-0.9338">
        <ele>91</ele>
        <time>2021-05-08T08:52:13Z</time>
      </trkpt>
      <trkpt lat="43.55238" lon="-0.93383">
        <ele>91</ele>
        <time>2021-05-08T08:52:14Z</time>
      </trkpt>
      <trkpt lat="43.5524" lon="-0.93385">
        <ele>91</ele>
        <time>2021-05-08T08:52:15Z</time>
      </trkpt>
      <trkpt lat="43.55242" lon="-0.93387">
        <ele>91</ele>
        <time>2021-05-08T08:52:16Z</time>
      </trkpt>
      <trkpt lat="43.55244" lon="-0.93389">
        <ele>91</ele>
        <time>2021-05-08T08:52:17Z</time>
      </trkpt>
      <trkpt lat="43.55245" lon="-0.93391">
        <ele>91</ele>
        <time>2021-05-08T08:52:18Z</time>
      </trkpt>
      <trkpt lat="43.55247" lon="-0.93393">
        <ele>91</ele>
        <time>2021-05-08T08:52:19Z</time>
      </trkpt>
      <trkpt lat="43.55249" lon="-0.93395">
        <ele>91</ele>
        <time>2021-05-08T08:52:20Z</time>
      </trkpt>
      <trkpt lat="43.55251" lon="-0.93397">
        <ele>91</ele>
        <time>2021-05-08T08:52:21Z</time>
      </trkpt>
      <trkpt lat="43.55253" lon="-0.93399">
        <ele>91</ele>
        <time>2021-05-08T08:52:22Z</time>
      </trkpt>
      <trkpt lat="43.55254" lon="-0.93401">
        <ele>91</ele>
        <time>2021-05-08T08:52:23Z</time>
      </trkpt>
      <trkpt lat="43.55256" lon="-0.93403">
        <ele>91</ele>
        <time>2021-05-08T08:52:24Z</time>
      </trkpt>
      <trkpt lat="43.55258" lon="-0.93405">
        <ele>91</ele>
        <time>2021-05-08T08:52:25Z</time>
      </trkpt>
      <trkpt lat="43.5526" lon="-0.93407">
        <ele>91</ele>
        <time>2021-05-08T08:52:26Z</time>
      </trkpt>
      <trkpt lat="43.55262" lon="-0.93409">
        <ele>91</ele>
        <time>2021-05-08T08:52:27Z</time>
      </trkpt>
      <trkpt lat="43.55263" lon="-0.93411">
        <ele>91</ele>
        <time>2021-05-08T08:52:28Z</time>
      </trkpt>
      <trkpt lat="43.55265" lon="-0.93413">
        <ele>91</ele>
        <time>2021-05-08T08:52:29Z</time>
      </trkpt>
      <trkpt lat="43.55266" lon="-0.93416">
        <ele>91</ele>
        <time>2021-05-08T08:52:30Z</time>
      </trkpt>
      <trkpt lat="43.55267" lon="-0.93418">
        <ele>91</ele>
        <time>2021-05-08T08:52:31Z</time>
      </trkpt>
      <trkpt lat="43.55269" lon="-0.93421">
        <ele>92</ele>
        <time>2021-05-08T08:52:32Z</time>
      </trkpt>
      <trkpt lat="43.5527" lon="-0.93423">
        <ele>92</ele>
        <time>2021-05-08T08:52:33Z</time>
      </trkpt>
      <trkpt lat="43.55271" lon="-0.93425">
        <ele>92</ele>
        <time>2021-05-08T08:52:34Z</time>
      </trkpt>
      <trkpt lat="43.55272" lon="-0.93428">
        <ele>92</ele>
        <time>2021-05-08T08:52:35Z</time>
      </trkpt>
      <trkpt lat="43.55272" lon="-0.93431">
        <ele>92</ele>
        <time>2021-05-08T08:52:36Z</time>
      </trkpt>
      <trkpt lat="43.55273" lon="-0.93433">
        <ele>92</ele>
        <time>2021-05-08T08:52:37Z</time>
      </trkpt>
      <trkpt lat="43.55274" lon="-0.93436">
        <ele>92</ele>
        <time>2021-05-08T08:52:38Z</time>
      </trkpt>
      <trkpt lat="43.55275" lon="-0.93439">
        <ele>92</ele>
        <time>2021-05-08T08:52:39Z</time>
      </trkpt>
      <trkpt lat="43.55275" lon="-0.93442">
        <ele>92</ele>
        <time>2021-05-08T08:52:40Z</time>
      </trkpt>
      <trkpt lat="43.55276" lon="-0.93445">
        <ele>92</ele>
        <time>2021-05-08T08:52:41Z</time>
      </trkpt>
      <trkpt lat="43.55276" lon="-0.93448">
        <ele>93</ele>
        <time>2021-05-08T08:52:42Z</time>
      </trkpt>
      <trkpt lat="43.55277" lon="-0.93451">
        <ele>93</ele>
        <time>2021-05-08T08:52:43Z</time>
      </trkpt>
      <trkpt lat="43.55277" lon="-0.93454">
        <ele>93</ele>
        <time>2021-05-08T08:52:44Z</time>
      </trkpt>
      <trkpt lat="43.55277" lon="-0.93457">
        <ele>93</ele>
        <time>2021-05-08T08:52:45Z</time>
      </trkpt>
      <trkpt lat="43.55277" lon="-0.9346">
        <ele>93</ele>
        <time>2021-05-08T08:52:46Z</time>
      </trkpt>
      <trkpt lat="43.55278" lon="-0.93463">
        <ele>94</ele>
        <time>2021-05-08T08:52:47Z</time>
      </trkpt>
      <trkpt lat="43.55278" lon="-0.93466">
        <ele>94</ele>
        <time>2021-05-08T08:52:48Z</time>
      </trkpt>
      <trkpt lat="43.55278" lon="-0.93469">
        <ele>94</ele>
        <time>2021-05-08T08:52:49Z</time>
      </trkpt>
      <trkpt lat="43.55279" lon="-0.93471">
        <ele>94</ele>
        <time>2021-05-08T08:52:50Z</time>
      </trkpt>
      <trkpt lat="43.55279" lon="-0.93474">
        <ele>94</ele>
        <time>2021-05-08T08:52:51Z</time>
      </trkpt>
      <trkpt lat="43.55279" lon="-0.93476">
        <ele>95</ele>
        <time>2021-05-08T08:52:52Z</time>
      </trkpt>
      <trkpt lat="43.5528" lon="-0.93479">
        <ele>95</ele>
        <time>2021-05-08T08:52:53Z</time>
      </trkpt>
      <trkpt lat="43.5528" lon="-0.93481">
        <ele>95</ele>
        <time>2021-05-08T08:52:54Z</time>
      </trkpt>
      <trkpt lat="43.55281" lon="-0.93484">
        <ele>95</ele>
        <time>2021-05-08T08:52:55Z</time>
      </trkpt>
      <trkpt lat="43.55281" lon="-0.93486">
        <ele>95</ele>
        <time>2021-05-08T08:52:56Z</time>
      </trkpt>
      <trkpt lat="43.55281" lon="-0.93489">
        <ele>95</ele>
        <time>2021-05-08T08:52:57Z</time>
      </trkpt>
      <trkpt lat="43.55281" lon="-0.93491">
        <ele>95</ele>
        <time>2021-05-08T08:52:58Z</time>
      </trkpt>
      <trkpt lat="43.55282" lon="-0.93494">
        <ele>95</ele>
        <time>2021-05-08T08:52:59Z</time>
      </trkpt>
      <trkpt lat="43.55282" lon="-0.93496">
        <ele>95</ele>
        <time>2021-05-08T08:53:00Z</time>
      </trkpt>
      <trkpt lat="43.55282" lon="-0.93499">
        <ele>95</ele>
        <time>2021-05-08T08:53:01Z</time>
      </trkpt>
      <trkpt lat="43.55282" lon="-0.93502">
        <ele>96</ele>
        <time>2021-05-08T08:53:02Z</time>
      </trkpt>
      <trkpt lat="43.55282" lon="-0.93504">
        <ele>96</ele>
        <time>2021-05-08T08:53:03Z</time>
      </trkpt>
      <trkpt lat="43.55282" lon="-0.93507">
        <ele>96</ele>
        <time>2021-05-08T08:53:04Z</time>
      </trkpt>
      <trkpt lat="43.55282" lon="-0.9351">
        <ele>97</ele>
        <time>2021-05-08T08:53:05Z</time>
      </trkpt>
      <trkpt lat="43.55282" lon="-0.93513">
        <ele>97</ele>
        <time>2021-05-08T08:53:06Z</time>
      </trkpt>
      <trkpt lat="43.55282" lon="-0.93515">
        <ele>98</ele>
        <time>2021-05-08T08:53:07Z</time>
      </trkpt>
      <trkpt lat="43.55282" lon="-0.93518">
        <ele>98</ele>
        <time>2021-05-08T08:53:08Z</time>
      </trkpt>
      <trkpt lat="43.55283" lon="-0.9352">
        <ele>98</ele>
        <time>2021-05-08T08:53:09Z</time>
      </trkpt>
      <trkpt lat="43.55283" lon="-0.93523">
        <ele>98</ele>
        <time>2021-05-08T08:53:10Z</time>
      </trkpt>
      <trkpt lat="43.55283" lon="-0.93525">
        <ele>98</ele>
        <time>2021-05-08T08:53:11Z</time>
      </trkpt>
      <trkpt lat="43.55283" lon="-0.93528">
        <ele>99</ele>
        <time>2021-05-08T08:53:12Z</time>
      </trkpt>
      <trkpt lat="43.55283" lon="-0.93531">
        <ele>99</ele>
        <time>2021-05-08T08:53:13Z</time>
      </trkpt>
      <trkpt lat="43.55283" lon="-0.93533">
        <ele>99</ele>
        <time>2021-05-08T08:53:14Z</time>
      </trkpt>
      <trkpt lat="43.55284" lon="-0.93536">
        <ele>100</ele>
        <time>2021-05-08T08:53:15Z</time>
      </trkpt>
      <trkpt lat="43.55284" lon="-0.93538">
        <ele>100</ele>
        <time>2021-05-08T08:53:16Z</time>
      </trkpt>
      <trkpt lat="43.55284" lon="-0.93541">
        <ele>101</ele>
        <time>2021-05-08T08:53:17Z</time>
      </trkpt>
      <trkpt lat="43.55284" lon="-0.93543">
        <ele>101</ele>
        <time>2021-05-08T08:53:18Z</time>
      </trkpt>
      <trkpt lat="43.55284" lon="-0.93546">
        <ele>102</ele>
        <time>2021-05-08T08:53:19Z</time>
      </trkpt>
      <trkpt lat="43.55284" lon="-0.93548">
        <ele>102</ele>
        <time>2021-05-08T08:53:20Z</time>
      </trkpt>
      <trkpt lat="43.55284" lon="-0.93551">
        <ele>103</ele>
        <time>2021-05-08T08:53:21Z</time>
      </trkpt>
      <trkpt lat="43.55284" lon="-0.93553">
        <ele>104</ele>
        <time>2021-05-08T08:53:22Z</time>
      </trkpt>
      <trkpt lat="43.55284" lon="-0.93555">
        <ele>104</ele>
        <time>2021-05-08T08:53:23Z</time>
      </trkpt>
      <trkpt lat="43.55284" lon="-0.93558">
        <ele>104</ele>
        <time>2021-05-08T08:53:24Z</time>
      </trkpt>
      <trkpt lat="43.55285" lon="-0.9356">
        <ele>104</ele>
        <time>2021-05-08T08:53:25Z</time>
      </trkpt>
      <trkpt lat="43.55285" lon="-0.93563">
        <ele>104</ele>
        <time>2021-05-08T08:53:26Z</time>
      </trkpt>
      <trkpt lat="43.55285" lon="-0.93565">
        <ele>105</ele>
        <time>2021-05-08T08:53:27Z</time>
      </trkpt>
      <trkpt lat="43.55285" lon="-0.93568">
        <ele>105</ele>
        <time>2021-05-08T08:53:28Z</time>
      </trkpt>
      <trkpt lat="43.55285" lon="-0.9357">
        <ele>105</ele>
        <time>2021-05-08T08:53:29Z</time>
      </trkpt>
      <trkpt lat="43.55285" lon="-0.93573">
        <ele>106</ele>
        <time>2021-05-08T08:53:30Z</time>
      </trkpt>
      <trkpt lat="43.55285" lon="-0.93575">
        <ele>106</ele>
        <time>2021-05-08T08:53:31Z</time>
      </trkpt>
      <trkpt lat="43.55285" lon="-0.93578">
        <ele>107</ele>
        <time>2021-05-08T08:53:32Z</time>
      </trkpt>
      <trkpt lat="43.55285" lon="-0.93581">
        <ele>107</ele>
        <time>2021-05-08T08:53:33Z</time>
      </trkpt>
      <trkpt lat="43.55285" lon="-0.93584">
        <ele>107</ele>
        <time>2021-05-08T08:53:34Z</time>
      </trkpt>
      <trkpt lat="43.55285" lon="-0.93586">
        <ele>107</ele>
        <time>2021-05-08T08:53:35Z</time>
      </trkpt>
      <trkpt lat="43.55285" lon="-0.93589">
        <ele>107</ele>
        <time>2021-05-08T08:53:36Z</time>
      </trkpt>
      <trkpt lat="43.55285" lon="-0.93592">
        <ele>108</ele>
        <time>2021-05-08T08:53:37Z</time>
      </trkpt>
      <trkpt lat="43.55285" lon="-0.93595">
        <ele>108</ele>
        <time>2021-05-08T08:53:38Z</time>
      </trkpt>
      <trkpt lat="43.55284" lon="-0.93598">
        <ele>108</ele>
        <time>2021-05-08T08:53:39Z</time>
      </trkpt>
      <trkpt lat="43.55284" lon="-0.93601">
        <ele>108</ele>
        <time>2021-05-08T08:53:40Z</time>
      </trkpt>
      <trkpt lat="43.55284" lon="-0.93604">
        <ele>108</ele>
        <time>2021-05-08T08:53:41Z</time>
      </trkpt>
      <trkpt lat="43.55284" lon="-0.93608">
        <ele>109</ele>
        <time>2021-05-08T08:53:42Z</time>
      </trkpt>
      <trkpt lat="43.55284" lon="-0.93611">
        <ele>109</ele>
        <time>2021-05-08T08:53:43Z</time>
      </trkpt>
      <trkpt lat="43.55285" lon="-0.93614">
        <ele>109</ele>
        <time>2021-05-08T08:53:44Z</time>
      </trkpt>
      <trkpt lat="43.55285" lon="-0.93617">
        <ele>109</ele>
        <time>2021-05-08T08:53:45Z</time>
      </trkpt>
      <trkpt lat="43.55285" lon="-0.9362">
        <ele>109</ele>
        <time>2021-05-08T08:53:46Z</time>
      </trkpt>
      <trkpt lat="43.55285" lon="-0.93624">
        <ele>109</ele>
        <time>2021-05-08T08:53:47Z</time>
      </trkpt>
      <trkpt lat="43.55285" lon="-0.93627">
        <ele>108</ele>
        <time>2021-05-08T08:53:48Z</time>
      </trkpt>
      <trkpt lat="43.55284" lon="-0.9363">
        <ele>108</ele>
        <time>2021-05-08T08:53:49Z</time>
      </trkpt>
      <trkpt lat="43.55284" lon="-0.93633">
        <ele>108</ele>
        <time>2021-05-08T08:53:50Z</time>
      </trkpt>
      <trkpt lat="43.55284" lon="-0.93637">
        <ele>108</ele>
        <time>2021-05-08T08:53:51Z</time>
      </trkpt>
      <trkpt lat="43.55284" lon="-0.9364">
        <ele>108</ele>
        <time>2021-05-08T08:53:52Z</time>
      </trkpt>
      <trkpt lat="43.55284" lon="-0.93643">
        <ele>108</ele>
        <time>2021-05-08T08:53:53Z</time>
      </trkpt>
      <trkpt lat="43.55284" lon="-0.93646">
        <ele>108</ele>
        <time>2021-05-08T08:53:54Z</time>
      </trkpt>
      <trkpt lat="43.55284" lon="-0.93649">
        <ele>108</ele>
        <time>2021-05-08T08:53:55Z</time>
      </trkpt>
      <trkpt lat="43.55284" lon="-0.93652">
        <ele>108</ele>
        <time>2021-05-08T08:53:56Z</time>
      </trkpt>
      <trkpt lat="43.55284" lon="-0.93655">
        <ele>109</ele>
        <time>2021-05-08T08:53:57Z</time>
      </trkpt>
      <trkpt lat="43.55284" lon="-0.93659">
        <ele>109</ele>
        <time>2021-05-08T08:53:58Z</time>
      </trkpt>
      <trkpt lat="43.55284" lon="-0.93662">
        <ele>109</ele>
        <time>2021-05-08T08:53:59Z</time>
      </trkpt>
      <trkpt lat="43.55284" lon="-0.93666">
        <ele>109</ele>
        <time>2021-05-08T08:54:00Z</time>
      </trkpt>
      <trkpt lat="43.55284" lon="-0.93669">
        <ele>109</ele>
        <time>2021-05-08T08:54:01Z</time>
      </trkpt>
      <trkpt lat="43.55284" lon="-0.93672">
        <ele>109</ele>
        <time>2021-05-08T08:54:02Z</time>
      </trkpt>
      <trkpt lat="43.55284" lon="-0.93676">
        <ele>109</ele>
        <time>2021-05-08T08:54:03Z</time>
      </trkpt>
      <trkpt lat="43.55284" lon="-0.9368">
        <ele>109</ele>
        <time>2021-05-08T08:54:04Z</time>
      </trkpt>
      <trkpt lat="43.55285" lon="-0.93683">
        <ele>109</ele>
        <time>2021-05-08T08:54:05Z</time>
      </trkpt>
      <trkpt lat="43.55284" lon="-0.93687">
        <ele>109</ele>
        <time>2021-05-08T08:54:06Z</time>
      </trkpt>
      <trkpt lat="43.55284" lon="-0.9369">
        <ele>109</ele>
        <time>2021-05-08T08:54:07Z</time>
      </trkpt>
      <trkpt lat="43.55284" lon="-0.93694">
        <ele>109</ele>
        <time>2021-05-08T08:54:08Z</time>
      </trkpt>
      <trkpt lat="43.55285" lon="-0.93698">
        <ele>109</ele>
        <time>2021-05-08T08:54:09Z</time>
      </trkpt>
      <trkpt lat="43.55285" lon="-0.93701">
        <ele>109</ele>
        <time>2021-05-08T08:54:10Z</time>
      </trkpt>
      <trkpt lat="43.55285" lon="-0.93705">
        <ele>109</ele>
        <time>2021-05-08T08:54:11Z</time>
      </trkpt>
      <trkpt lat="43.55285" lon="-0.93709">
        <ele>109</ele>
        <time>2021-05-08T08:54:12Z</time>
      </trkpt>
      <trkpt lat="43.55285" lon="-0.93713">
        <ele>109</ele>
        <time>2021-05-08T08:54:13Z</time>
      </trkpt>
      <trkpt lat="43.55285" lon="-0.93716">
        <ele>109</ele>
        <time>2021-05-08T08:54:14Z</time>
      </trkpt>
      <trkpt lat="43.55285" lon="-0.9372">
        <ele>109</ele>
        <time>2021-05-08T08:54:15Z</time>
      </trkpt>
      <trkpt lat="43.55285" lon="-0.93723">
        <ele>109</ele>
        <time>2021-05-08T08:54:16Z</time>
      </trkpt>
      <trkpt lat="43.55285" lon="-0.93727">
        <ele>110</ele>
        <time>2021-05-08T08:54:17Z</time>
      </trkpt>
      <trkpt lat="43.55286" lon="-0.93731">
        <ele>110</ele>
        <time>2021-05-08T08:54:18Z</time>
      </trkpt>
      <trkpt lat="43.55286" lon="-0.93734">
        <ele>110</ele>
        <time>2021-05-08T08:54:19Z</time>
      </trkpt>
      <trkpt lat="43.55286" lon="-0.93738">
        <ele>110</ele>
        <time>2021-05-08T08:54:20Z</time>
      </trkpt>
      <trkpt lat="43.55286" lon="-0.93742">
        <ele>110</ele>
        <time>2021-05-08T08:54:21Z</time>
      </trkpt>
      <trkpt lat="43.55287" lon="-0.93745">
        <ele>110</ele>
        <time>2021-05-08T08:54:22Z</time>
      </trkpt>
      <trkpt lat="43.55287" lon="-0.93749">
        <ele>110</ele>
        <time>2021-05-08T08:54:23Z</time>
      </trkpt>
      <trkpt lat="43.55287" lon="-0.93753">
        <ele>110</ele>
        <time>2021-05-08T08:54:24Z</time>
      </trkpt>
      <trkpt lat="43.55287" lon="-0.93757">
        <ele>110</ele>
        <time>2021-05-08T08:54:25Z</time>
      </trkpt>
      <trkpt lat="43.55288" lon="-0.9376">
        <ele>110</ele>
        <time>2021-05-08T08:54:26Z</time>
      </trkpt>
      <trkpt lat="43.55288" lon="-0.93764">
        <ele>110</ele>
        <time>2021-05-08T08:54:27Z</time>
      </trkpt>
      <trkpt lat="43.55289" lon="-0.93768">
        <ele>110</ele>
        <time>2021-05-08T08:54:28Z</time>
      </trkpt>
      <trkpt lat="43.55289" lon="-0.93771">
        <ele>110</ele>
        <time>2021-05-08T08:54:29Z</time>
      </trkpt>
      <trkpt lat="43.55289" lon="-0.93775">
        <ele>110</ele>
        <time>2021-05-08T08:54:30Z</time>
      </trkpt>
      <trkpt lat="43.5529" lon="-0.93779">
        <ele>110</ele>
        <time>2021-05-08T08:54:31Z</time>
      </trkpt>
      <trkpt lat="43.5529" lon="-0.93782">
        <ele>110</ele>
        <time>2021-05-08T08:54:32Z</time>
      </trkpt>
      <trkpt lat="43.55291" lon="-0.93786">
        <ele>109</ele>
        <time>2021-05-08T08:54:33Z</time>
      </trkpt>
      <trkpt lat="43.55291" lon="-0.93789">
        <ele>109</ele>
        <time>2021-05-08T08:54:34Z</time>
      </trkpt>
      <trkpt lat="43.55292" lon="-0.93793">
        <ele>109</ele>
        <time>2021-05-08T08:54:35Z</time>
      </trkpt>
      <trkpt lat="43.55292" lon="-0.93797">
        <ele>109</ele>
        <time>2021-05-08T08:54:36Z</time>
      </trkpt>
      <trkpt lat="43.55293" lon="-0.938">
        <ele>109</ele>
        <time>2021-05-08T08:54:37Z</time>
      </trkpt>
      <trkpt lat="43.55293" lon="-0.93804">
        <ele>109</ele>
        <time>2021-05-08T08:54:38Z</time>
      </trkpt>
      <trkpt lat="43.55294" lon="-0.93807">
        <ele>109</ele>
        <time>2021-05-08T08:54:39Z</time>
      </trkpt>
      <trkpt lat="43.55295" lon="-0.93811">
        <ele>109</ele>
        <time>2021-05-08T08:54:40Z</time>
      </trkpt>
      <trkpt lat="43.55296" lon="-0.93814">
        <ele>109</ele>
        <time>2021-05-08T08:54:41Z</time>
      </trkpt>
      <trkpt lat="43.55296" lon="-0.93817">
        <ele>109</ele>
        <time>2021-05-08T08:54:42Z</time>
      </trkpt>
      <trkpt lat="43.55297" lon="-0.9382">
        <ele>109</ele>
        <time>2021-05-08T08:54:43Z</time>
      </trkpt>
      <trkpt lat="43.55298" lon="-0.93824">
        <ele>109</ele>
        <time>2021-05-08T08:54:44Z</time>
      </trkpt>
      <trkpt lat="43.55298" lon="-0.93827">
        <ele>109</ele>
        <time>2021-05-08T08:54:45Z</time>
      </trkpt>
      <trkpt lat="43.55299" lon="-0.9383">
        <ele>109</ele>
        <time>2021-05-08T08:54:46Z</time>
      </trkpt>
      <trkpt lat="43.553" lon="-0.93833">
        <ele>109</ele>
        <time>2021-05-08T08:54:47Z</time>
      </trkpt>
      <trkpt lat="43.553" lon="-0.93837">
        <ele>109</ele>
        <time>2021-05-08T08:54:48Z</time>
      </trkpt>
      <trkpt lat="43.55301" lon="-0.9384">
        <ele>109</ele>
        <time>2021-05-08T08:54:49Z</time>
      </trkpt>
      <trkpt lat="43.55301" lon="-0.93843">
        <ele>109</ele>
        <time>2021-05-08T08:54:50Z</time>
      </trkpt>
      <trkpt lat="43.55302" lon="-0.93846">
        <ele>109</ele>
        <time>2021-05-08T08:54:51Z</time>
      </trkpt>
      <trkpt lat="43.55302" lon="-0.93849">
        <ele>109</ele>
        <time>2021-05-08T08:54:52Z</time>
      </trkpt>
      <trkpt lat="43.55303" lon="-0.93852">
        <ele>109</ele>
        <time>2021-05-08T08:54:53Z</time>
      </trkpt>
      <trkpt lat="43.55303" lon="-0.93855">
        <ele>109</ele>
        <time>2021-05-08T08:54:54Z</time>
      </trkpt>
      <trkpt lat="43.55304" lon="-0.93858">
        <ele>109</ele>
        <time>2021-05-08T08:54:55Z</time>
      </trkpt>
      <trkpt lat="43.55305" lon="-0.93861">
        <ele>109</ele>
        <time>2021-05-08T08:54:56Z</time>
      </trkpt>
      <trkpt lat="43.55306" lon="-0.93864">
        <ele>110</ele>
        <time>2021-05-08T08:54:57Z</time>
      </trkpt>
      <trkpt lat="43.55306" lon="-0.93867">
        <ele>110</ele>
        <time>2021-05-08T08:54:58Z</time>
      </trkpt>
      <trkpt lat="43.55307" lon="-0.9387">
        <ele>110</ele>
        <time>2021-05-08T08:54:59Z</time>
      </trkpt>
      <trkpt lat="43.55308" lon="-0.93873">
        <ele>110</ele>
        <time>2021-05-08T08:55:00Z</time>
      </trkpt>
      <trkpt lat="43.55309" lon="-0.93876">
        <ele>110</ele>
        <time>2021-05-08T08:55:01Z</time>
      </trkpt>
      <trkpt lat="43.5531" lon="-0.93879">
        <ele>110</ele>
        <time>2021-05-08T08:55:02Z</time>
      </trkpt>
      <trkpt lat="43.5531" lon="-0.93882">
        <ele>110</ele>
        <time>2021-05-08T08:55:03Z</time>
      </trkpt>
      <trkpt lat="43.55311" lon="-0.93885">
        <ele>110</ele>
        <time>2021-05-08T08:55:04Z</time>
      </trkpt>
      <trkpt lat="43.55313" lon="-0.93888">
        <ele>110</ele>
        <time>2021-05-08T08:55:05Z</time>
      </trkpt>
      <trkpt lat="43.55314" lon="-0.93891">
        <ele>110</ele>
        <time>2021-05-08T08:55:06Z</time>
      </trkpt>
      <trkpt lat="43.55315" lon="-0.93894">
        <ele>111</ele>
        <time>2021-05-08T08:55:07Z</time>
      </trkpt>
      <trkpt lat="43.55316" lon="-0.93897">
        <ele>111</ele>
        <time>2021-05-08T08:55:08Z</time>
      </trkpt>
      <trkpt lat="43.55318" lon="-0.939">
        <ele>111</ele>
        <time>2021-05-08T08:55:09Z</time>
      </trkpt>
      <trkpt lat="43.55319" lon="-0.93903">
        <ele>111</ele>
        <time>2021-05-08T08:55:10Z</time>
      </trkpt>
      <trkpt lat="43.5532" lon="-0.93906">
        <ele>111</ele>
        <time>2021-05-08T08:55:11Z</time>
      </trkpt>
      <trkpt lat="43.55322" lon="-0.93908">
        <ele>112</ele>
        <time>2021-05-08T08:55:12Z</time>
      </trkpt>
      <trkpt lat="43.55324" lon="-0.93911">
        <ele>112</ele>
        <time>2021-05-08T08:55:13Z</time>
      </trkpt>
      <trkpt lat="43.55325" lon="-0.93914">
        <ele>112</ele>
        <time>2021-05-08T08:55:14Z</time>
      </trkpt>
      <trkpt lat="43.55327" lon="-0.93916">
        <ele>112</ele>
        <time>2021-05-08T08:55:15Z</time>
      </trkpt>
      <trkpt lat="43.55329" lon="-0.93919">
        <ele>112</ele>
        <time>2021-05-08T08:55:16Z</time>
      </trkpt>
      <trkpt lat="43.55331" lon="-0.93921">
        <ele>112</ele>
        <time>2021-05-08T08:55:17Z</time>
      </trkpt>
      <trkpt lat="43.55333" lon="-0.93924">
        <ele>111</ele>
        <time>2021-05-08T08:55:18Z</time>
      </trkpt>
      <trkpt lat="43.55335" lon="-0.93926">
        <ele>111</ele>
        <time>2021-05-08T08:55:19Z</time>
      </trkpt>
      <trkpt lat="43.55337" lon="-0.93928">
        <ele>111</ele>
        <time>2021-05-08T08:55:20Z</time>
      </trkpt>
      <trkpt lat="43.55339" lon="-0.9393">
        <ele>111</ele>
        <time>2021-05-08T08:55:21Z</time>
      </trkpt>
      <trkpt lat="43.55342" lon="-0.93931">
        <ele>111</ele>
        <time>2021-05-08T08:55:22Z</time>
      </trkpt>
      <trkpt lat="43.55344" lon="-0.93933">
        <ele>110</ele>
        <time>2021-05-08T08:55:23Z</time>
      </trkpt>
      <trkpt lat="43.55347" lon="-0.93934">
        <ele>110</ele>
        <time>2021-05-08T08:55:24Z</time>
      </trkpt>
      <trkpt lat="43.5535" lon="-0.93935">
        <ele>110</ele>
        <time>2021-05-08T08:55:25Z</time>
      </trkpt>
      <trkpt lat="43.55353" lon="-0.93937">
        <ele>110</ele>
        <time>2021-05-08T08:55:26Z</time>
      </trkpt>
      <trkpt lat="43.55356" lon="-0.93938">
        <ele>110</ele>
        <time>2021-05-08T08:55:27Z</time>
      </trkpt>
      <trkpt lat="43.55359" lon="-0.93939">
        <ele>109</ele>
        <time>2021-05-08T08:55:28Z</time>
      </trkpt>
      <trkpt lat="43.55362" lon="-0.9394">
        <ele>109</ele>
        <time>2021-05-08T08:55:29Z</time>
      </trkpt>
      <trkpt lat="43.55365" lon="-0.93941">
        <ele>109</ele>
        <time>2021-05-08T08:55:30Z</time>
      </trkpt>
      <trkpt lat="43.55367" lon="-0.93942">
        <ele>109</ele>
        <time>2021-05-08T08:55:31Z</time>
      </trkpt>
      <trkpt lat="43.5537" lon="-0.93943">
        <ele>109</ele>
        <time>2021-05-08T08:55:32Z</time>
      </trkpt>
      <trkpt lat="43.55373" lon="-0.93944">
        <ele>108</ele>
        <time>2021-05-08T08:55:33Z</time>
      </trkpt>
      <trkpt lat="43.55376" lon="-0.93945">
        <ele>108</ele>
        <time>2021-05-08T08:55:34Z</time>
      </trkpt>
      <trkpt lat="43.55378" lon="-0.93946">
        <ele>108</ele>
        <time>2021-05-08T08:55:35Z</time>
      </trkpt>
      <trkpt lat="43.55381" lon="-0.93947">
        <ele>108</ele>
        <time>2021-05-08T08:55:36Z</time>
      </trkpt>
      <trkpt lat="43.55384" lon="-0.93947">
        <ele>108</ele>
        <time>2021-05-08T08:55:37Z</time>
      </trkpt>
      <trkpt lat="43.55387" lon="-0.93948">
        <ele>107</ele>
        <time>2021-05-08T08:55:38Z</time>
      </trkpt>
      <trkpt lat="43.5539" lon="-0.93949">
        <ele>107</ele>
        <time>2021-05-08T08:55:39Z</time>
      </trkpt>
      <trkpt lat="43.55392" lon="-0.9395">
        <ele>107</ele>
        <time>2021-05-08T08:55:40Z</time>
      </trkpt>
      <trkpt lat="43.55395" lon="-0.93951">
        <ele>107</ele>
        <time>2021-05-08T08:55:41Z</time>
      </trkpt>
      <trkpt lat="43.55398" lon="-0.93951">
        <ele>107</ele>
        <time>2021-05-08T08:55:42Z</time>
      </trkpt>
      <trkpt lat="43.55401" lon="-0.93952">
        <ele>107</ele>
        <time>2021-05-08T08:55:43Z</time>
      </trkpt>
      <trkpt lat="43.55404" lon="-0.93953">
        <ele>107</ele>
        <time>2021-05-08T08:55:44Z</time>
      </trkpt>
      <trkpt lat="43.55407" lon="-0.93954">
        <ele>107</ele>
        <time>2021-05-08T08:55:45Z</time>
      </trkpt>
      <trkpt lat="43.55409" lon="-0.93955">
        <ele>107</ele>
        <time>2021-05-08T08:55:46Z</time>
      </trkpt>
      <trkpt lat="43.55412" lon="-0.93956">
        <ele>107</ele>
        <time>2021-05-08T08:55:47Z</time>
      </trkpt>
      <trkpt lat="43.55414" lon="-0.93957">
        <ele>107</ele>
        <time>2021-05-08T08:55:48Z</time>
      </trkpt>
      <trkpt lat="43.55417" lon="-0.93958">
        <ele>107</ele>
        <time>2021-05-08T08:55:49Z</time>
      </trkpt>
      <trkpt lat="43.5542" lon="-0.93959">
        <ele>107</ele>
        <time>2021-05-08T08:55:50Z</time>
      </trkpt>
      <trkpt lat="43.55422" lon="-0.9396">
        <ele>107</ele>
        <time>2021-05-08T08:55:51Z</time>
      </trkpt>
      <trkpt lat="43.55425" lon="-0.93961">
        <ele>107</ele>
        <time>2021-05-08T08:55:52Z</time>
      </trkpt>
      <trkpt lat="43.55427" lon="-0.93962">
        <ele>107</ele>
        <time>2021-05-08T08:55:53Z</time>
      </trkpt>
      <trkpt lat="43.5543" lon="-0.93963">
        <ele>107</ele>
        <time>2021-05-08T08:55:54Z</time>
      </trkpt>
      <trkpt lat="43.55432" lon="-0.93964">
        <ele>107</ele>
        <time>2021-05-08T08:55:55Z</time>
      </trkpt>
      <trkpt lat="43.55435" lon="-0.93965">
        <ele>107</ele>
        <time>2021-05-08T08:55:56Z</time>
      </trkpt>
      <trkpt lat="43.55437" lon="-0.93966">
        <ele>107</ele>
        <time>2021-05-08T08:55:57Z</time>
      </trkpt>
      <trkpt lat="43.55439" lon="-0.93967">
        <ele>107</ele>
        <time>2021-05-08T08:55:58Z</time>
      </trkpt>
      <trkpt lat="43.55442" lon="-0.93968">
        <ele>107</ele>
        <time>2021-05-08T08:55:59Z</time>
      </trkpt>
      <trkpt lat="43.55444" lon="-0.93969">
        <ele>107</ele>
        <time>2021-05-08T08:56:00Z</time>
      </trkpt>
      <trkpt lat="43.55446" lon="-0.9397">
        <ele>107</ele>
        <time>2021-05-08T08:56:01Z</time>
      </trkpt>
      <trkpt lat="43.55449" lon="-0.93971">
        <ele>108</ele>
        <time>2021-05-08T08:56:02Z</time>
      </trkpt>
      <trkpt lat="43.55451" lon="-0.93973">
        <ele>107</ele>
        <time>2021-05-08T08:56:03Z</time>
      </trkpt>
      <trkpt lat="43.55453" lon="-0.93974">
        <ele>107</ele>
        <time>2021-05-08T08:56:04Z</time>
      </trkpt>
      <trkpt lat="43.55455" lon="-0.93976">
        <ele>107</ele>
        <time>2021-05-08T08:56:05Z</time>
      </trkpt>
      <trkpt lat="43.55458" lon="-0.93978">
        <ele>107</ele>
        <time>2021-05-08T08:56:06Z</time>
      </trkpt>
      <trkpt lat="43.5546" lon="-0.93979">
        <ele>107</ele>
        <time>2021-05-08T08:56:07Z</time>
      </trkpt>
      <trkpt lat="43.55462" lon="-0.93981">
        <ele>107</ele>
        <time>2021-05-08T08:56:08Z</time>
      </trkpt>
      <trkpt lat="43.55464" lon="-0.93983">
        <ele>107</ele>
        <time>2021-05-08T08:56:09Z</time>
      </trkpt>
      <trkpt lat="43.55466" lon="-0.93985">
        <ele>107</ele>
        <time>2021-05-08T08:56:10Z</time>
      </trkpt>
      <trkpt lat="43.55468" lon="-0.93987">
        <ele>107</ele>
        <time>2021-05-08T08:56:11Z</time>
      </trkpt>
      <trkpt lat="43.5547" lon="-0.93989">
        <ele>108</ele>
        <time>2021-05-08T08:56:12Z</time>
      </trkpt>
      <trkpt lat="43.55472" lon="-0.93991">
        <ele>108</ele>
        <time>2021-05-08T08:56:13Z</time>
      </trkpt>
      <trkpt lat="43.55473" lon="-0.93994">
        <ele>108</ele>
        <time>2021-05-08T08:56:14Z</time>
      </trkpt>
      <trkpt lat="43.55475" lon="-0.93996">
        <ele>108</ele>
        <time>2021-05-08T08:56:15Z</time>
      </trkpt>
      <trkpt lat="43.55477" lon="-0.93998">
        <ele>108</ele>
        <time>2021-05-08T08:56:16Z</time>
      </trkpt>
      <trkpt lat="43.55479" lon="-0.94">
        <ele>108</ele>
        <time>2021-05-08T08:56:17Z</time>
      </trkpt>
      <trkpt lat="43.5548" lon="-0.94002">
        <ele>108</ele>
        <time>2021-05-08T08:56:18Z</time>
      </trkpt>
      <trkpt lat="43.55482" lon="-0.94005">
        <ele>108</ele>
        <time>2021-05-08T08:56:19Z</time>
      </trkpt>
      <trkpt lat="43.55484" lon="-0.94007">
        <ele>108</ele>
        <time>2021-05-08T08:56:20Z</time>
      </trkpt>
      <trkpt lat="43.55486" lon="-0.94009">
        <ele>108</ele>
        <time>2021-05-08T08:56:21Z</time>
      </trkpt>
      <trkpt lat="43.55487" lon="-0.94012">
        <ele>108</ele>
        <time>2021-05-08T08:56:22Z</time>
      </trkpt>
      <trkpt lat="43.55489" lon="-0.94014">
        <ele>108</ele>
        <time>2021-05-08T08:56:23Z</time>
      </trkpt>
      <trkpt lat="43.55491" lon="-0.94017">
        <ele>108</ele>
        <time>2021-05-08T08:56:24Z</time>
      </trkpt>
      <trkpt lat="43.55493" lon="-0.94019">
        <ele>108</ele>
        <time>2021-05-08T08:56:25Z</time>
      </trkpt>
      <trkpt lat="43.55494" lon="-0.94021">
        <ele>108</ele>
        <time>2021-05-08T08:56:26Z</time>
      </trkpt>
      <trkpt lat="43.55496" lon="-0.94024">
        <ele>109</ele>
        <time>2021-05-08T08:56:27Z</time>
      </trkpt>
      <trkpt lat="43.55498" lon="-0.94026">
        <ele>109</ele>
        <time>2021-05-08T08:56:28Z</time>
      </trkpt>
      <trkpt lat="43.55499" lon="-0.94028">
        <ele>109</ele>
        <time>2021-05-08T08:56:29Z</time>
      </trkpt>
      <trkpt lat="43.55501" lon="-0.9403">
        <ele>109</ele>
        <time>2021-05-08T08:56:30Z</time>
      </trkpt>
      <trkpt lat="43.55503" lon="-0.94033">
        <ele>109</ele>
        <time>2021-05-08T08:56:31Z</time>
      </trkpt>
      <trkpt lat="43.55505" lon="-0.94035">
        <ele>109</ele>
        <time>2021-05-08T08:56:32Z</time>
      </trkpt>
      <trkpt lat="43.55506" lon="-0.94037">
        <ele>109</ele>
        <time>2021-05-08T08:56:33Z</time>
      </trkpt>
      <trkpt lat="43.55508" lon="-0.9404">
        <ele>109</ele>
        <time>2021-05-08T08:56:34Z</time>
      </trkpt>
      <trkpt lat="43.5551" lon="-0.94042">
        <ele>109</ele>
        <time>2021-05-08T08:56:35Z</time>
      </trkpt>
      <trkpt lat="43.55511" lon="-0.94045">
        <ele>109</ele>
        <time>2021-05-08T08:56:36Z</time>
      </trkpt>
      <trkpt lat="43.55513" lon="-0.94047">
        <ele>109</ele>
        <time>2021-05-08T08:56:37Z</time>
      </trkpt>
      <trkpt lat="43.55514" lon="-0.94049">
        <ele>109</ele>
        <time>2021-05-08T08:56:38Z</time>
      </trkpt>
      <trkpt lat="43.55516" lon="-0.94052">
        <ele>109</ele>
        <time>2021-05-08T08:56:39Z</time>
      </trkpt>
      <trkpt lat="43.55517" lon="-0.94054">
        <ele>109</ele>
        <time>2021-05-08T08:56:40Z</time>
      </trkpt>
      <trkpt lat="43.55519" lon="-0.94056">
        <ele>109</ele>
        <time>2021-05-08T08:56:41Z</time>
      </trkpt>
      <trkpt lat="43.5552" lon="-0.94058">
        <ele>109</ele>
        <time>2021-05-08T08:56:42Z</time>
      </trkpt>
      <trkpt lat="43.55522" lon="-0.94061">
        <ele>109</ele>
        <time>2021-05-08T08:56:43Z</time>
      </trkpt>
      <trkpt lat="43.55524" lon="-0.94063">
        <ele>109</ele>
        <time>2021-05-08T08:56:44Z</time>
      </trkpt>
      <trkpt lat="43.55526" lon="-0.94066">
        <ele>109</ele>
        <time>2021-05-08T08:56:45Z</time>
      </trkpt>
      <trkpt lat="43.55528" lon="-0.94068">
        <ele>109</ele>
        <time>2021-05-08T08:56:46Z</time>
      </trkpt>
      <trkpt lat="43.5553" lon="-0.9407">
        <ele>109</ele>
        <time>2021-05-08T08:56:47Z</time>
      </trkpt>
      <trkpt lat="43.55532" lon="-0.94072">
        <ele>109</ele>
        <time>2021-05-08T08:56:48Z</time>
      </trkpt>
      <trkpt lat="43.55534" lon="-0.94074">
        <ele>109</ele>
        <time>2021-05-08T08:56:49Z</time>
      </trkpt>
      <trkpt lat="43.55537" lon="-0.94076">
        <ele>109</ele>
        <time>2021-05-08T08:56:50Z</time>
      </trkpt>
      <trkpt lat="43.55539" lon="-0.94078">
        <ele>109</ele>
        <time>2021-05-08T08:56:51Z</time>
      </trkpt>
      <trkpt lat="43.55542" lon="-0.94079">
        <ele>109</ele>
        <time>2021-05-08T08:56:52Z</time>
      </trkpt>
      <trkpt lat="43.55544" lon="-0.94081">
        <ele>109</ele>
        <time>2021-05-08T08:56:53Z</time>
      </trkpt>
      <trkpt lat="43.55547" lon="-0.94082">
        <ele>109</ele>
        <time>2021-05-08T08:56:54Z</time>
      </trkpt>
      <trkpt lat="43.55549" lon="-0.94083">
        <ele>109</ele>
        <time>2021-05-08T08:56:55Z</time>
      </trkpt>
      <trkpt lat="43.55552" lon="-0.94084">
        <ele>109</ele>
        <time>2021-05-08T08:56:56Z</time>
      </trkpt>
      <trkpt lat="43.55554" lon="-0.94085">
        <ele>109</ele>
        <time>2021-05-08T08:56:57Z</time>
      </trkpt>
      <trkpt lat="43.55557" lon="-0.94085">
        <ele>109</ele>
        <time>2021-05-08T08:56:58Z</time>
      </trkpt>
      <trkpt lat="43.55559" lon="-0.94086">
        <ele>109</ele>
        <time>2021-05-08T08:56:59Z</time>
      </trkpt>
      <trkpt lat="43.55562" lon="-0.94087">
        <ele>109</ele>
        <time>2021-05-08T08:57:00Z</time>
      </trkpt>
      <trkpt lat="43.55564" lon="-0.94088">
        <ele>109</ele>
        <time>2021-05-08T08:57:01Z</time>
      </trkpt>
      <trkpt lat="43.55567" lon="-0.94089">
        <ele>109</ele>
        <time>2021-05-08T08:57:02Z</time>
      </trkpt>
      <trkpt lat="43.5557" lon="-0.9409">
        <ele>109</ele>
        <time>2021-05-08T08:57:03Z</time>
      </trkpt>
      <trkpt lat="43.55572" lon="-0.94091">
        <ele>109</ele>
        <time>2021-05-08T08:57:04Z</time>
      </trkpt>
      <trkpt lat="43.55575" lon="-0.94093">
        <ele>109</ele>
        <time>2021-05-08T08:57:05Z</time>
      </trkpt>
      <trkpt lat="43.55577" lon="-0.94094">
        <ele>109</ele>
        <time>2021-05-08T08:57:06Z</time>
      </trkpt>
      <trkpt lat="43.5558" lon="-0.94095">
        <ele>109</ele>
        <time>2021-05-08T08:57:07Z</time>
      </trkpt>
      <trkpt lat="43.55582" lon="-0.94097">
        <ele>109</ele>
        <time>2021-05-08T08:57:08Z</time>
      </trkpt>
      <trkpt lat="43.55585" lon="-0.94099">
        <ele>109</ele>
        <time>2021-05-08T08:57:09Z</time>
      </trkpt>
      <trkpt lat="43.55587" lon="-0.94101">
        <ele>109</ele>
        <time>2021-05-08T08:57:10Z</time>
      </trkpt>
      <trkpt lat="43.55589" lon="-0.94102">
        <ele>109</ele>
        <time>2021-05-08T08:57:11Z</time>
      </trkpt>
      <trkpt lat="43.55592" lon="-0.94104">
        <ele>109</ele>
        <time>2021-05-08T08:57:12Z</time>
      </trkpt>
      <trkpt lat="43.55594" lon="-0.94106">
        <ele>108</ele>
        <time>2021-05-08T08:57:13Z</time>
      </trkpt>
      <trkpt lat="43.55596" lon="-0.94108">
        <ele>108</ele>
        <time>2021-05-08T08:57:14Z</time>
      </trkpt>
      <trkpt lat="43.55599" lon="-0.9411">
        <ele>108</ele>
        <time>2021-05-08T08:57:15Z</time>
      </trkpt>
      <trkpt lat="43.55601" lon="-0.94111">
        <ele>108</ele>
        <time>2021-05-08T08:57:16Z</time>
      </trkpt>
      <trkpt lat="43.55604" lon="-0.94113">
        <ele>108</ele>
        <time>2021-05-08T08:57:17Z</time>
      </trkpt>
      <trkpt lat="43.55606" lon="-0.94114">
        <ele>108</ele>
        <time>2021-05-08T08:57:18Z</time>
      </trkpt>
      <trkpt lat="43.55609" lon="-0.94116">
        <ele>108</ele>
        <time>2021-05-08T08:57:19Z</time>
      </trkpt>
      <trkpt lat="43.55612" lon="-0.94117">
        <ele>108</ele>
        <time>2021-05-08T08:57:20Z</time>
      </trkpt>
      <trkpt lat="43.55615" lon="-0.94118">
        <ele>108</ele>
        <time>2021-05-08T08:57:21Z</time>
      </trkpt>
      <trkpt lat="43.55617" lon="-0.94119">
        <ele>108</ele>
        <time>2021-05-08T08:57:22Z</time>
      </trkpt>
      <trkpt lat="43.5562" lon="-0.94119">
        <ele>108</ele>
        <time>2021-05-08T08:57:23Z</time>
      </trkpt>
      <trkpt lat="43.55623" lon="-0.9412">
        <ele>108</ele>
        <time>2021-05-08T08:57:24Z</time>
      </trkpt>
      <trkpt lat="43.55626" lon="-0.94121">
        <ele>108</ele>
        <time>2021-05-08T08:57:25Z</time>
      </trkpt>
      <trkpt lat="43.55629" lon="-0.94121">
        <ele>108</ele>
        <time>2021-05-08T08:57:26Z</time>
      </trkpt>
      <trkpt lat="43.55632" lon="-0.94122">
        <ele>108</ele>
        <time>2021-05-08T08:57:27Z</time>
      </trkpt>
      <trkpt lat="43.55635" lon="-0.94122">
        <ele>108</ele>
        <time>2021-05-08T08:57:28Z</time>
      </trkpt>
      <trkpt lat="43.55637" lon="-0.94122">
        <ele>108</ele>
        <time>2021-05-08T08:57:29Z</time>
      </trkpt>
      <trkpt lat="43.5564" lon="-0.94121">
        <ele>108</ele>
        <time>2021-05-08T08:57:30Z</time>
      </trkpt>
      <trkpt lat="43.55643" lon="-0.94121">
        <ele>108</ele>
        <time>2021-05-08T08:57:31Z</time>
      </trkpt>
      <trkpt lat="43.55645" lon="-0.94121">
        <ele>108</ele>
        <time>2021-05-08T08:57:32Z</time>
      </trkpt>
      <trkpt lat="43.55648" lon="-0.9412">
        <ele>108</ele>
        <time>2021-05-08T08:57:33Z</time>
      </trkpt>
      <trkpt lat="43.55651" lon="-0.94119">
        <ele>108</ele>
        <time>2021-05-08T08:57:34Z</time>
      </trkpt>
      <trkpt lat="43.55653" lon="-0.94119">
        <ele>108</ele>
        <time>2021-05-08T08:57:35Z</time>
      </trkpt>
      <trkpt lat="43.55656" lon="-0.94118">
        <ele>108</ele>
        <time>2021-05-08T08:57:36Z</time>
      </trkpt>
      <trkpt lat="43.55658" lon="-0.94117">
        <ele>108</ele>
        <time>2021-05-08T08:57:37Z</time>
      </trkpt>
      <trkpt lat="43.55661" lon="-0.94116">
        <ele>108</ele>
        <time>2021-05-08T08:57:38Z</time>
      </trkpt>
      <trkpt lat="43.55663" lon="-0.94115">
        <ele>108</ele>
        <time>2021-05-08T08:57:39Z</time>
      </trkpt>
      <trkpt lat="43.55666" lon="-0.94114">
        <ele>108</ele>
        <time>2021-05-08T08:57:40Z</time>
      </trkpt>
      <trkpt lat="43.55668" lon="-0.94113">
        <ele>108</ele>
        <time>2021-05-08T08:57:41Z</time>
      </trkpt>
      <trkpt lat="43.5567" lon="-0.94112">
        <ele>108</ele>
        <time>2021-05-08T08:57:42Z</time>
      </trkpt>
      <trkpt lat="43.55673" lon="-0.94112">
        <ele>108</ele>
        <time>2021-05-08T08:57:43Z</time>
      </trkpt>
      <trkpt lat="43.55675" lon="-0.94111">
        <ele>108</ele>
        <time>2021-05-08T08:57:44Z</time>
      </trkpt>
      <trkpt lat="43.55678" lon="-0.94111">
        <ele>108</ele>
        <time>2021-05-08T08:57:45Z</time>
      </trkpt>
      <trkpt lat="43.5568" lon="-0.9411">
        <ele>108</ele>
        <time>2021-05-08T08:57:46Z</time>
      </trkpt>
      <trkpt lat="43.55683" lon="-0.9411">
        <ele>108</ele>
        <time>2021-05-08T08:57:47Z</time>
      </trkpt>
      <trkpt lat="43.55686" lon="-0.94109">
        <ele>108</ele>
        <time>2021-05-08T08:57:48Z</time>
      </trkpt>
      <trkpt lat="43.55688" lon="-0.94108">
        <ele>108</ele>
        <time>2021-05-08T08:57:49Z</time>
      </trkpt>
      <trkpt lat="43.55691" lon="-0.94107">
        <ele>108</ele>
        <time>2021-05-08T08:57:50Z</time>
      </trkpt>
      <trkpt lat="43.55693" lon="-0.94107">
        <ele>108</ele>
        <time>2021-05-08T08:57:51Z</time>
      </trkpt>
      <trkpt lat="43.55696" lon="-0.94106">
        <ele>108</ele>
        <time>2021-05-08T08:57:52Z</time>
      </trkpt>
      <trkpt lat="43.55698" lon="-0.94105">
        <ele>108</ele>
        <time>2021-05-08T08:57:53Z</time>
      </trkpt>
      <trkpt lat="43.55701" lon="-0.94104">
        <ele>108</ele>
        <time>2021-05-08T08:57:54Z</time>
      </trkpt>
      <trkpt lat="43.55703" lon="-0.94103">
        <ele>108</ele>
        <time>2021-05-08T08:57:55Z</time>
      </trkpt>
      <trkpt lat="43.55706" lon="-0.94102">
        <ele>108</ele>
        <time>2021-05-08T08:57:56Z</time>
      </trkpt>
      <trkpt lat="43.55708" lon="-0.94101">
        <ele>108</ele>
        <time>2021-05-08T08:57:57Z</time>
      </trkpt>
      <trkpt lat="43.55711" lon="-0.941">
        <ele>108</ele>
        <time>2021-05-08T08:57:58Z</time>
      </trkpt>
      <trkpt lat="43.55714" lon="-0.94099">
        <ele>108</ele>
        <time>2021-05-08T08:57:59Z</time>
      </trkpt>
      <trkpt lat="43.55716" lon="-0.94098">
        <ele>108</ele>
        <time>2021-05-08T08:58:00Z</time>
      </trkpt>
      <trkpt lat="43.55719" lon="-0.94097">
        <ele>108</ele>
        <time>2021-05-08T08:58:01Z</time>
      </trkpt>
      <trkpt lat="43.55721" lon="-0.94096">
        <ele>108</ele>
        <time>2021-05-08T08:58:02Z</time>
      </trkpt>
      <trkpt lat="43.55723" lon="-0.94095">
        <ele>108</ele>
        <time>2021-05-08T08:58:03Z</time>
      </trkpt>
      <trkpt lat="43.55726" lon="-0.94094">
        <ele>108</ele>
        <time>2021-05-08T08:58:04Z</time>
      </trkpt>
      <trkpt lat="43.55728" lon="-0.94093">
        <ele>108</ele>
        <time>2021-05-08T08:58:05Z</time>
      </trkpt>
      <trkpt lat="43.5573" lon="-0.94092">
        <ele>108</ele>
        <time>2021-05-08T08:58:06Z</time>
      </trkpt>
      <trkpt lat="43.55733" lon="-0.94092">
        <ele>108</ele>
        <time>2021-05-08T08:58:07Z</time>
      </trkpt>
      <trkpt lat="43.55736" lon="-0.94091">
        <ele>108</ele>
        <time>2021-05-08T08:58:08Z</time>
      </trkpt>
      <trkpt lat="43.55738" lon="-0.9409">
        <ele>108</ele>
        <time>2021-05-08T08:58:09Z</time>
      </trkpt>
      <trkpt lat="43.55741" lon="-0.94088">
        <ele>108</ele>
        <time>2021-05-08T08:58:10Z</time>
      </trkpt>
      <trkpt lat="43.55743" lon="-0.94087">
        <ele>108</ele>
        <time>2021-05-08T08:58:11Z</time>
      </trkpt>
      <trkpt lat="43.55746" lon="-0.94085">
        <ele>108</ele>
        <time>2021-05-08T08:58:12Z</time>
      </trkpt>
      <trkpt lat="43.55749" lon="-0.94084">
        <ele>108</ele>
        <time>2021-05-08T08:58:13Z</time>
      </trkpt>
      <trkpt lat="43.55751" lon="-0.94082">
        <ele>108</ele>
        <time>2021-05-08T08:58:14Z</time>
      </trkpt>
      <trkpt lat="43.55754" lon="-0.9408">
        <ele>108</ele>
        <time>2021-05-08T08:58:15Z</time>
      </trkpt>
      <trkpt lat="43.55756" lon="-0.94079">
        <ele>108</ele>
        <time>2021-05-08T08:58:16Z</time>
      </trkpt>
      <trkpt lat="43.55758" lon="-0.94077">
        <ele>108</ele>
        <time>2021-05-08T08:58:17Z</time>
      </trkpt>
      <trkpt lat="43.5576" lon="-0.94074">
        <ele>108</ele>
        <time>2021-05-08T08:58:18Z</time>
      </trkpt>
      <trkpt lat="43.55763" lon="-0.94072">
        <ele>108</ele>
        <time>2021-05-08T08:58:19Z</time>
      </trkpt>
      <trkpt lat="43.55764" lon="-0.9407">
        <ele>108</ele>
        <time>2021-05-08T08:58:20Z</time>
      </trkpt>
      <trkpt lat="43.55766" lon="-0.94068">
        <ele>108</ele>
        <time>2021-05-08T08:58:21Z</time>
      </trkpt>
      <trkpt lat="43.55768" lon="-0.94065">
        <ele>108</ele>
        <time>2021-05-08T08:58:22Z</time>
      </trkpt>
      <trkpt lat="43.5577" lon="-0.94063">
        <ele>107</ele>
        <time>2021-05-08T08:58:23Z</time>
      </trkpt>
      <trkpt lat="43.55772" lon="-0.9406">
        <ele>107</ele>
        <time>2021-05-08T08:58:24Z</time>
      </trkpt>
      <trkpt lat="43.55774" lon="-0.94057">
        <ele>107</ele>
        <time>2021-05-08T08:58:25Z</time>
      </trkpt>
      <trkpt lat="43.55777" lon="-0.94055">
        <ele>107</ele>
        <time>2021-05-08T08:58:26Z</time>
      </trkpt>
      <trkpt lat="43.55779" lon="-0.94052">
        <ele>107</ele>
        <time>2021-05-08T08:58:27Z</time>
      </trkpt>
      <trkpt lat="43.55781" lon="-0.9405">
        <ele>107</ele>
        <time>2021-05-08T08:58:28Z</time>
      </trkpt>
      <trkpt lat="43.55783" lon="-0.94047">
        <ele>107</ele>
        <time>2021-05-08T08:58:29Z</time>
      </trkpt>
      <trkpt lat="43.55785" lon="-0.94045">
        <ele>107</ele>
        <time>2021-05-08T08:58:30Z</time>
      </trkpt>
      <trkpt lat="43.55787" lon="-0.94042">
        <ele>107</ele>
        <time>2021-05-08T08:58:31Z</time>
      </trkpt>
      <trkpt lat="43.55789" lon="-0.9404">
        <ele>107</ele>
        <time>2021-05-08T08:58:32Z</time>
      </trkpt>
      <trkpt lat="43.55791" lon="-0.94037">
        <ele>107</ele>
        <time>2021-05-08T08:58:33Z</time>
      </trkpt>
      <trkpt lat="43.55793" lon="-0.94035">
        <ele>107</ele>
        <time>2021-05-08T08:58:34Z</time>
      </trkpt>
      <trkpt lat="43.55795" lon="-0.94033">
        <ele>107</ele>
        <time>2021-05-08T08:58:35Z</time>
      </trkpt>
      <trkpt lat="43.55797" lon="-0.9403">
        <ele>107</ele>
        <time>2021-05-08T08:58:36Z</time>
      </trkpt>
      <trkpt lat="43.55799" lon="-0.94028">
        <ele>107</ele>
        <time>2021-05-08T08:58:37Z</time>
      </trkpt>
      <trkpt lat="43.558" lon="-0.94026">
        <ele>107</ele>
        <time>2021-05-08T08:58:38Z</time>
      </trkpt>
      <trkpt lat="43.55802" lon="-0.94023">
        <ele>107</ele>
        <time>2021-05-08T08:58:39Z</time>
      </trkpt>
      <trkpt lat="43.55804" lon="-0.94023">
        <ele>107</ele>
        <time>2021-05-08T08:58:40Z</time>
      </trkpt>
      <trkpt lat="43.55806" lon="-0.94022">
        <ele>107</ele>
        <time>2021-05-08T08:58:41Z</time>
      </trkpt>
      <trkpt lat="43.55807" lon="-0.94023">
        <ele>107</ele>
        <time>2021-05-08T08:58:42Z</time>
      </trkpt>
      <trkpt lat="43.55809" lon="-0.94024">
        <ele>107</ele>
        <time>2021-05-08T08:58:43Z</time>
      </trkpt>
      <trkpt lat="43.5581" lon="-0.94026">
        <ele>107</ele>
        <time>2021-05-08T08:58:44Z</time>
      </trkpt>
      <trkpt lat="43.55812" lon="-0.94028">
        <ele>107</ele>
        <time>2021-05-08T08:58:45Z</time>
      </trkpt>
      <trkpt lat="43.55814" lon="-0.94031">
        <ele>107</ele>
        <time>2021-05-08T08:58:46Z</time>
      </trkpt>
      <trkpt lat="43.55815" lon="-0.94033">
        <ele>107</ele>
        <time>2021-05-08T08:58:47Z</time>
      </trkpt>
      <trkpt lat="43.55817" lon="-0.94035">
        <ele>107</ele>
        <time>2021-05-08T08:58:48Z</time>
      </trkpt>
      <trkpt lat="43.55819" lon="-0.94038">
        <ele>107</ele>
        <time>2021-05-08T08:58:49Z</time>
      </trkpt>
      <trkpt lat="43.55821" lon="-0.9404">
        <ele>107</ele>
        <time>2021-05-08T08:58:50Z</time>
      </trkpt>
      <trkpt lat="43.55823" lon="-0.94042">
        <ele>107</ele>
        <time>2021-05-08T08:58:51Z</time>
      </trkpt>
      <trkpt lat="43.55825" lon="-0.94043">
        <ele>108</ele>
        <time>2021-05-08T08:58:52Z</time>
      </trkpt>
      <trkpt lat="43.55828" lon="-0.94045">
        <ele>108</ele>
        <time>2021-05-08T08:58:53Z</time>
      </trkpt>
      <trkpt lat="43.5583" lon="-0.94047">
        <ele>108</ele>
        <time>2021-05-08T08:58:54Z</time>
      </trkpt>
      <trkpt lat="43.55832" lon="-0.94049">
        <ele>108</ele>
        <time>2021-05-08T08:58:55Z</time>
      </trkpt>
      <trkpt lat="43.55835" lon="-0.94051">
        <ele>108</ele>
        <time>2021-05-08T08:58:56Z</time>
      </trkpt>
      <trkpt lat="43.55837" lon="-0.94052">
        <ele>108</ele>
        <time>2021-05-08T08:58:57Z</time>
      </trkpt>
      <trkpt lat="43.55839" lon="-0.94054">
        <ele>108</ele>
        <time>2021-05-08T08:58:58Z</time>
      </trkpt>
      <trkpt lat="43.55842" lon="-0.94056">
        <ele>108</ele>
        <time>2021-05-08T08:58:59Z</time>
      </trkpt>
      <trkpt lat="43.55844" lon="-0.94058">
        <ele>108</ele>
        <time>2021-05-08T08:59:00Z</time>
      </trkpt>
      <trkpt lat="43.55846" lon="-0.9406">
        <ele>108</ele>
        <time>2021-05-08T08:59:01Z</time>
      </trkpt>
      <trkpt lat="43.55848" lon="-0.94062">
        <ele>108</ele>
        <time>2021-05-08T08:59:02Z</time>
      </trkpt>
      <trkpt lat="43.5585" lon="-0.94064">
        <ele>108</ele>
        <time>2021-05-08T08:59:03Z</time>
      </trkpt>
      <trkpt lat="43.55852" lon="-0.94066">
        <ele>108</ele>
        <time>2021-05-08T08:59:04Z</time>
      </trkpt>
      <trkpt lat="43.55854" lon="-0.94069">
        <ele>108</ele>
        <time>2021-05-08T08:59:05Z</time>
      </trkpt>
      <trkpt lat="43.55855" lon="-0.94071">
        <ele>108</ele>
        <time>2021-05-08T08:59:06Z</time>
      </trkpt>
      <trkpt lat="43.55857" lon="-0.94074">
        <ele>108</ele>
        <time>2021-05-08T08:59:07Z</time>
      </trkpt>
      <trkpt lat="43.55858" lon="-0.94077">
        <ele>107</ele>
        <time>2021-05-08T08:59:08Z</time>
      </trkpt>
      <trkpt lat="43.55859" lon="-0.9408">
        <ele>107</ele>
        <time>2021-05-08T08:59:09Z</time>
      </trkpt>
      <trkpt lat="43.55861" lon="-0.94083">
        <ele>107</ele>
        <time>2021-05-08T08:59:10Z</time>
      </trkpt>
      <trkpt lat="43.55862" lon="-0.94086">
        <ele>107</ele>
        <time>2021-05-08T08:59:11Z</time>
      </trkpt>
      <trkpt lat="43.55863" lon="-0.94089">
        <ele>107</ele>
        <time>2021-05-08T08:59:12Z</time>
      </trkpt>
      <trkpt lat="43.55864" lon="-0.94093">
        <ele>107</ele>
        <time>2021-05-08T08:59:13Z</time>
      </trkpt>
      <trkpt lat="43.55865" lon="-0.94096">
        <ele>107</ele>
        <time>2021-05-08T08:59:14Z</time>
      </trkpt>
      <trkpt lat="43.55866" lon="-0.94099">
        <ele>107</ele>
        <time>2021-05-08T08:59:15Z</time>
      </trkpt>
      <trkpt lat="43.55867" lon="-0.94103">
        <ele>107</ele>
        <time>2021-05-08T08:59:16Z</time>
      </trkpt>
      <trkpt lat="43.55868" lon="-0.94106">
        <ele>107</ele>
        <time>2021-05-08T08:59:17Z</time>
      </trkpt>
      <trkpt lat="43.55869" lon="-0.94109">
        <ele>107</ele>
        <time>2021-05-08T08:59:18Z</time>
      </trkpt>
      <trkpt lat="43.5587" lon="-0.94113">
        <ele>107</ele>
        <time>2021-05-08T08:59:19Z</time>
      </trkpt>
      <trkpt lat="43.55872" lon="-0.94116">
        <ele>107</ele>
        <time>2021-05-08T08:59:20Z</time>
      </trkpt>
      <trkpt lat="43.55873" lon="-0.94119">
        <ele>107</ele>
        <time>2021-05-08T08:59:21Z</time>
      </trkpt>
      <trkpt lat="43.55874" lon="-0.94122">
        <ele>107</ele>
        <time>2021-05-08T08:59:22Z</time>
      </trkpt>
      <trkpt lat="43.55876" lon="-0.94125">
        <ele>106</ele>
        <time>2021-05-08T08:59:23Z</time>
      </trkpt>
      <trkpt lat="43.55877" lon="-0.94128">
        <ele>106</ele>
        <time>2021-05-08T08:59:24Z</time>
      </trkpt>
      <trkpt lat="43.55878" lon="-0.94131">
        <ele>106</ele>
        <time>2021-05-08T08:59:25Z</time>
      </trkpt>
      <trkpt lat="43.5588" lon="-0.94134">
        <ele>106</ele>
        <time>2021-05-08T08:59:26Z</time>
      </trkpt>
      <trkpt lat="43.55881" lon="-0.94136">
        <ele>106</ele>
        <time>2021-05-08T08:59:27Z</time>
      </trkpt>
      <trkpt lat="43.55883" lon="-0.94139">
        <ele>106</ele>
        <time>2021-05-08T08:59:28Z</time>
      </trkpt>
      <trkpt lat="43.55884" lon="-0.94142">
        <ele>106</ele>
        <time>2021-05-08T08:59:29Z</time>
      </trkpt>
      <trkpt lat="43.55886" lon="-0.94145">
        <ele>106</ele>
        <time>2021-05-08T08:59:30Z</time>
      </trkpt>
      <trkpt lat="43.55887" lon="-0.94148">
        <ele>106</ele>
        <time>2021-05-08T08:59:31Z</time>
      </trkpt>
      <trkpt lat="43.55889" lon="-0.94151">
        <ele>106</ele>
        <time>2021-05-08T08:59:32Z</time>
      </trkpt>
      <trkpt lat="43.55891" lon="-0.94154">
        <ele>105</ele>
        <time>2021-05-08T08:59:33Z</time>
      </trkpt>
      <trkpt lat="43.55893" lon="-0.94157">
        <ele>105</ele>
        <time>2021-05-08T08:59:34Z</time>
      </trkpt>
      <trkpt lat="43.55894" lon="-0.9416">
        <ele>105</ele>
        <time>2021-05-08T08:59:35Z</time>
      </trkpt>
      <trkpt lat="43.55896" lon="-0.94163">
        <ele>105</ele>
        <time>2021-05-08T08:59:36Z</time>
      </trkpt>
      <trkpt lat="43.55897" lon="-0.94166">
        <ele>105</ele>
        <time>2021-05-08T08:59:37Z</time>
      </trkpt>
      <trkpt lat="43.55899" lon="-0.94169">
        <ele>105</ele>
        <time>2021-05-08T08:59:38Z</time>
      </trkpt>
      <trkpt lat="43.559" lon="-0.94172">
        <ele>105</ele>
        <time>2021-05-08T08:59:39Z</time>
      </trkpt>
      <trkpt lat="43.55901" lon="-0.94175">
        <ele>105</ele>
        <time>2021-05-08T08:59:40Z</time>
      </trkpt>
      <trkpt lat="43.55902" lon="-0.94179">
        <ele>105</ele>
        <time>2021-05-08T08:59:41Z</time>
      </trkpt>
      <trkpt lat="43.55902" lon="-0.94182">
        <ele>105</ele>
        <time>2021-05-08T08:59:42Z</time>
      </trkpt>
      <trkpt lat="43.55902" lon="-0.94185">
        <ele>104</ele>
        <time>2021-05-08T08:59:43Z</time>
      </trkpt>
      <trkpt lat="43.55901" lon="-0.94188">
        <ele>104</ele>
        <time>2021-05-08T08:59:44Z</time>
      </trkpt>
      <trkpt lat="43.55901" lon="-0.94192">
        <ele>103</ele>
        <time>2021-05-08T08:59:45Z</time>
      </trkpt>
      <trkpt lat="43.559" lon="-0.94195">
        <ele>103</ele>
        <time>2021-05-08T08:59:46Z</time>
      </trkpt>
      <trkpt lat="43.55899" lon="-0.94198">
        <ele>103</ele>
        <time>2021-05-08T08:59:47Z</time>
      </trkpt>
      <trkpt lat="43.55897" lon="-0.94202">
        <ele>102</ele>
        <time>2021-05-08T08:59:48Z</time>
      </trkpt>
      <trkpt lat="43.55896" lon="-0.94205">
        <ele>102</ele>
        <time>2021-05-08T08:59:49Z</time>
      </trkpt>
      <trkpt lat="43.55895" lon="-0.94208">
        <ele>102</ele>
        <time>2021-05-08T08:59:50Z</time>
      </trkpt>
      <trkpt lat="43.55893" lon="-0.94211">
        <ele>102</ele>
        <time>2021-05-08T08:59:51Z</time>
      </trkpt>
      <trkpt lat="43.55892" lon="-0.94215">
        <ele>102</ele>
        <time>2021-05-08T08:59:52Z</time>
      </trkpt>
      <trkpt lat="43.55891" lon="-0.94218">
        <ele>101</ele>
        <time>2021-05-08T08:59:53Z</time>
      </trkpt>
      <trkpt lat="43.5589" lon="-0.94222">
        <ele>101</ele>
        <time>2021-05-08T08:59:54Z</time>
      </trkpt>
      <trkpt lat="43.55889" lon="-0.94225">
        <ele>100</ele>
        <time>2021-05-08T08:59:55Z</time>
      </trkpt>
      <trkpt lat="43.55889" lon="-0.94228">
        <ele>100</ele>
        <time>2021-05-08T08:59:56Z</time>
      </trkpt>
      <trkpt lat="43.55888" lon="-0.94231">
        <ele>100</ele>
        <time>2021-05-08T08:59:57Z</time>
      </trkpt>
      <trkpt lat="43.55888" lon="-0.94235">
        <ele>99</ele>
        <time>2021-05-08T08:59:58Z</time>
      </trkpt>
      <trkpt lat="43.55887" lon="-0.94239">
        <ele>99</ele>
        <time>2021-05-08T08:59:59Z</time>
      </trkpt>
      <trkpt lat="43.55887" lon="-0.94242">
        <ele>98</ele>
        <time>2021-05-08T09:00:00Z</time>
      </trkpt>
      <trkpt lat="43.55886" lon="-0.94246">
        <ele>98</ele>
        <time>2021-05-08T09:00:01Z</time>
      </trkpt>
      <trkpt lat="43.55886" lon="-0.9425">
        <ele>98</ele>
        <time>2021-05-08T09:00:02Z</time>
      </trkpt>
      <trkpt lat="43.55886" lon="-0.94253">
        <ele>97</ele>
        <time>2021-05-08T09:00:03Z</time>
      </trkpt>
      <trkpt lat="43.55886" lon="-0.94257">
        <ele>97</ele>
        <time>2021-05-08T09:00:04Z</time>
      </trkpt>
      <trkpt lat="43.55886" lon="-0.94261">
        <ele>97</ele>
        <time>2021-05-08T09:00:05Z</time>
      </trkpt>
      <trkpt lat="43.55886" lon="-0.94263">
        <ele>97</ele>
        <time>2021-05-08T09:00:06Z</time>
      </trkpt>
      <trkpt lat="43.55885" lon="-0.94266">
        <ele>97</ele>
        <time>2021-05-08T09:00:07Z</time>
      </trkpt>
      <trkpt lat="43.55884" lon="-0.94269">
        <ele>96</ele>
        <time>2021-05-08T09:00:08Z</time>
      </trkpt>
      <trkpt lat="43.55883" lon="-0.94272">
        <ele>95</ele>
        <time>2021-05-08T09:00:09Z</time>
      </trkpt>
      <trkpt lat="43.55881" lon="-0.94274">
        <ele>95</ele>
        <time>2021-05-08T09:00:10Z</time>
      </trkpt>
      <trkpt lat="43.5588" lon="-0.94276">
        <ele>94</ele>
        <time>2021-05-08T09:00:11Z</time>
      </trkpt>
      <trkpt lat="43.55879" lon="-0.94279">
        <ele>94</ele>
        <time>2021-05-08T09:00:12Z</time>
      </trkpt>
      <trkpt lat="43.55877" lon="-0.94281">
        <ele>93</ele>
        <time>2021-05-08T09:00:13Z</time>
      </trkpt>
      <trkpt lat="43.55876" lon="-0.94284">
        <ele>93</ele>
        <time>2021-05-08T09:00:14Z</time>
      </trkpt>
      <trkpt lat="43.55875" lon="-0.94286">
        <ele>92</ele>
        <time>2021-05-08T09:00:15Z</time>
      </trkpt>
      <trkpt lat="43.55876" lon="-0.94289">
        <ele>92</ele>
        <time>2021-05-08T09:00:16Z</time>
      </trkpt>
      <trkpt lat="43.55876" lon="-0.94291">
        <ele>92</ele>
        <time>2021-05-08T09:00:17Z</time>
      </trkpt>
      <trkpt lat="43.55877" lon="-0.94294">
        <ele>91</ele>
        <time>2021-05-08T09:00:18Z</time>
      </trkpt>
      <trkpt lat="43.55878" lon="-0.94296">
        <ele>91</ele>
        <time>2021-05-08T09:00:19Z</time>
      </trkpt>
      <trkpt lat="43.5588" lon="-0.94299">
        <ele>90</ele>
        <time>2021-05-08T09:00:20Z</time>
      </trkpt>
      <trkpt lat="43.55882" lon="-0.94301">
        <ele>90</ele>
        <time>2021-05-08T09:00:21Z</time>
      </trkpt>
      <trkpt lat="43.55883" lon="-0.94304">
        <ele>90</ele>
        <time>2021-05-08T09:00:22Z</time>
      </trkpt>
      <trkpt lat="43.55885" lon="-0.94306">
        <ele>89</ele>
        <time>2021-05-08T09:00:23Z</time>
      </trkpt>
      <trkpt lat="43.55887" lon="-0.94308">
        <ele>89</ele>
        <time>2021-05-08T09:00:24Z</time>
      </trkpt>
      <trkpt lat="43.55889" lon="-0.9431">
        <ele>88</ele>
        <time>2021-05-08T09:00:25Z</time>
      </trkpt>
      <trkpt lat="43.55892" lon="-0.94313">
        <ele>88</ele>
        <time>2021-05-08T09:00:26Z</time>
      </trkpt>
      <trkpt lat="43.55894" lon="-0.94315">
        <ele>88</ele>
        <time>2021-05-08T09:00:27Z</time>
      </trkpt>
      <trkpt lat="43.55896" lon="-0.94317">
        <ele>87</ele>
        <time>2021-05-08T09:00:28Z</time>
      </trkpt>
      <trkpt lat="43.55898" lon="-0.94319">
        <ele>87</ele>
        <time>2021-05-08T09:00:29Z</time>
      </trkpt>
      <trkpt lat="43.559" lon="-0.9432">
        <ele>86</ele>
        <time>2021-05-08T09:00:30Z</time>
      </trkpt>
      <trkpt lat="43.55903" lon="-0.94322">
        <ele>86</ele>
        <time>2021-05-08T09:00:31Z</time>
      </trkpt>
      <trkpt lat="43.55904" lon="-0.94323">
        <ele>86</ele>
        <time>2021-05-08T09:00:32Z</time>
      </trkpt>
      <trkpt lat="43.55906" lon="-0.94325">
        <ele>85</ele>
        <time>2021-05-08T09:00:33Z</time>
      </trkpt>
      <trkpt lat="43.55908" lon="-0.94327">
        <ele>85</ele>
        <time>2021-05-08T09:00:34Z</time>
      </trkpt>
      <trkpt lat="43.5591" lon="-0.94329">
        <ele>85</ele>
        <time>2021-05-08T09:00:35Z</time>
      </trkpt>
      <trkpt lat="43.55911" lon="-0.94331">
        <ele>85</ele>
        <time>2021-05-08T09:00:36Z</time>
      </trkpt>
      <trkpt lat="43.55913" lon="-0.94333">
        <ele>85</ele>
        <time>2021-05-08T09:00:37Z</time>
      </trkpt>
      <trkpt lat="43.55914" lon="-0.94335">
        <ele>84</ele>
        <time>2021-05-08T09:00:38Z</time>
      </trkpt>
      <trkpt lat="43.55915" lon="-0.94337">
        <ele>84</ele>
        <time>2021-05-08T09:00:39Z</time>
      </trkpt>
      <trkpt lat="43.55916" lon="-0.94339">
        <ele>83</ele>
        <time>2021-05-08T09:00:40Z</time>
      </trkpt>
      <trkpt lat="43.55917" lon="-0.94342">
        <ele>83</ele>
        <time>2021-05-08T09:00:41Z</time>
      </trkpt>
      <trkpt lat="43.55917" lon="-0.94345">
        <ele>83</ele>
        <time>2021-05-08T09:00:42Z</time>
      </trkpt>
      <trkpt lat="43.55918" lon="-0.94348">
        <ele>82</ele>
        <time>2021-05-08T09:00:43Z</time>
      </trkpt>
      <trkpt lat="43.55918" lon="-0.94352">
        <ele>82</ele>
        <time>2021-05-08T09:00:44Z</time>
      </trkpt>
      <trkpt lat="43.55918" lon="-0.94355">
        <ele>81</ele>
        <time>2021-05-08T09:00:45Z</time>
      </trkpt>
      <trkpt lat="43.55918" lon="-0.94358">
        <ele>81</ele>
        <time>2021-05-08T09:00:46Z</time>
      </trkpt>
      <trkpt lat="43.55918" lon="-0.94362">
        <ele>81</ele>
        <time>2021-05-08T09:00:47Z</time>
      </trkpt>
      <trkpt lat="43.55918" lon="-0.94364">
        <ele>80</ele>
        <time>2021-05-08T09:00:48Z</time>
      </trkpt>
      <trkpt lat="43.55918" lon="-0.94367">
        <ele>80</ele>
        <time>2021-05-08T09:00:49Z</time>
      </trkpt>
      <trkpt lat="43.55919" lon="-0.9437">
        <ele>79</ele>
        <time>2021-05-08T09:00:50Z</time>
      </trkpt>
      <trkpt lat="43.5592" lon="-0.94373">
        <ele>79</ele>
        <time>2021-05-08T09:00:51Z</time>
      </trkpt>
      <trkpt lat="43.55922" lon="-0.94375">
        <ele>79</ele>
        <time>2021-05-08T09:00:52Z</time>
      </trkpt>
      <trkpt lat="43.55923" lon="-0.94377">
        <ele>78</ele>
        <time>2021-05-08T09:00:53Z</time>
      </trkpt>
      <trkpt lat="43.55926" lon="-0.94378">
        <ele>78</ele>
        <time>2021-05-08T09:00:54Z</time>
      </trkpt>
      <trkpt lat="43.55928" lon="-0.9438">
        <ele>78</ele>
        <time>2021-05-08T09:00:55Z</time>
      </trkpt>
      <trkpt lat="43.55931" lon="-0.94381">
        <ele>78</ele>
        <time>2021-05-08T09:00:56Z</time>
      </trkpt>
      <trkpt lat="43.55933" lon="-0.94381">
        <ele>78</ele>
        <time>2021-05-08T09:00:57Z</time>
      </trkpt>
      <trkpt lat="43.55936" lon="-0.94382">
        <ele>78</ele>
        <time>2021-05-08T09:00:58Z</time>
      </trkpt>
      <trkpt lat="43.55938" lon="-0.94383">
        <ele>78</ele>
        <time>2021-05-08T09:00:59Z</time>
      </trkpt>
      <trkpt lat="43.5594" lon="-0.94384">
        <ele>78</ele>
        <time>2021-05-08T09:01:00Z</time>
      </trkpt>
      <trkpt lat="43.55942" lon="-0.94385">
        <ele>78</ele>
        <time>2021-05-08T09:01:01Z</time>
      </trkpt>
      <trkpt lat="43.55944" lon="-0.94387">
        <ele>78</ele>
        <time>2021-05-08T09:01:02Z</time>
      </trkpt>
      <trkpt lat="43.55947" lon="-0.94388">
        <ele>77</ele>
        <time>2021-05-08T09:01:03Z</time>
      </trkpt>
      <trkpt lat="43.55948" lon="-0.9439">
        <ele>77</ele>
        <time>2021-05-08T09:01:04Z</time>
      </trkpt>
      <trkpt lat="43.5595" lon="-0.94391">
        <ele>77</ele>
        <time>2021-05-08T09:01:05Z</time>
      </trkpt>
      <trkpt lat="43.55952" lon="-0.94393">
        <ele>77</ele>
        <time>2021-05-08T09:01:06Z</time>
      </trkpt>
      <trkpt lat="43.55954" lon="-0.94395">
        <ele>77</ele>
        <time>2021-05-08T09:01:07Z</time>
      </trkpt>
      <trkpt lat="43.55956" lon="-0.94397">
        <ele>76</ele>
        <time>2021-05-08T09:01:08Z</time>
      </trkpt>
      <trkpt lat="43.55958" lon="-0.94399">
        <ele>76</ele>
        <time>2021-05-08T09:01:09Z</time>
      </trkpt>
      <trkpt lat="43.55959" lon="-0.94401">
        <ele>75</ele>
        <time>2021-05-08T09:01:10Z</time>
      </trkpt>
      <trkpt lat="43.5596" lon="-0.94403">
        <ele>75</ele>
        <time>2021-05-08T09:01:11Z</time>
      </trkpt>
      <trkpt lat="43.55961" lon="-0.94406">
        <ele>75</ele>
        <time>2021-05-08T09:01:12Z</time>
      </trkpt>
      <trkpt lat="43.55962" lon="-0.94408">
        <ele>74</ele>
        <time>2021-05-08T09:01:13Z</time>
      </trkpt>
      <trkpt lat="43.55963" lon="-0.94411">
        <ele>74</ele>
        <time>2021-05-08T09:01:14Z</time>
      </trkpt>
      <trkpt lat="43.55964" lon="-0.94414">
        <ele>74</ele>
        <time>2021-05-08T09:01:15Z</time>
      </trkpt>
      <trkpt lat="43.55965" lon="-0.94417">
        <ele>74</ele>
        <time>2021-05-08T09:01:16Z</time>
      </trkpt>
      <trkpt lat="43.55965" lon="-0.9442">
        <ele>74</ele>
        <time>2021-05-08T09:01:17Z</time>
      </trkpt>
      <trkpt lat="43.55966" lon="-0.94423">
        <ele>73</ele>
        <time>2021-05-08T09:01:18Z</time>
      </trkpt>
      <trkpt lat="43.55967" lon="-0.94426">
        <ele>73</ele>
        <time>2021-05-08T09:01:19Z</time>
      </trkpt>
      <trkpt lat="43.55967" lon="-0.94429">
        <ele>72</ele>
        <time>2021-05-08T09:01:20Z</time>
      </trkpt>
      <trkpt lat="43.55968" lon="-0.94432">
        <ele>72</ele>
        <time>2021-05-08T09:01:21Z</time>
      </trkpt>
      <trkpt lat="43.5597" lon="-0.94435">
        <ele>72</ele>
        <time>2021-05-08T09:01:22Z</time>
      </trkpt>
      <trkpt lat="43.55971" lon="-0.94438">
        <ele>71</ele>
        <time>2021-05-08T09:01:23Z</time>
      </trkpt>
      <trkpt lat="43.55974" lon="-0.94441">
        <ele>71</ele>
        <time>2021-05-08T09:01:24Z</time>
      </trkpt>
      <trkpt lat="43.55976" lon="-0.94444">
        <ele>70</ele>
        <time>2021-05-08T09:01:25Z</time>
      </trkpt>
      <trkpt lat="43.55978" lon="-0.94446">
        <ele>70</ele>
        <time>2021-05-08T09:01:26Z</time>
      </trkpt>
      <trkpt lat="43.55981" lon="-0.94449">
        <ele>70</ele>
        <time>2021-05-08T09:01:27Z</time>
      </trkpt>
      <trkpt lat="43.55983" lon="-0.94451">
        <ele>69</ele>
        <time>2021-05-08T09:01:28Z</time>
      </trkpt>
      <trkpt lat="43.55985" lon="-0.94453">
        <ele>69</ele>
        <time>2021-05-08T09:01:29Z</time>
      </trkpt>
      <trkpt lat="43.55987" lon="-0.94455">
        <ele>69</ele>
        <time>2021-05-08T09:01:30Z</time>
      </trkpt>
      <trkpt lat="43.5599" lon="-0.94457">
        <ele>69</ele>
        <time>2021-05-08T09:01:31Z</time>
      </trkpt>
      <trkpt lat="43.55991" lon="-0.94459">
        <ele>69</ele>
        <time>2021-05-08T09:01:32Z</time>
      </trkpt>
      <trkpt lat="43.55993" lon="-0.94461">
        <ele>68</ele>
        <time>2021-05-08T09:01:33Z</time>
      </trkpt>
      <trkpt lat="43.55995" lon="-0.94463">
        <ele>68</ele>
        <time>2021-05-08T09:01:34Z</time>
      </trkpt>
      <trkpt lat="43.55997" lon="-0.94465">
        <ele>68</ele>
        <time>2021-05-08T09:01:35Z</time>
      </trkpt>
      <trkpt lat="43.55999" lon="-0.94467">
        <ele>68</ele>
        <time>2021-05-08T09:01:36Z</time>
      </trkpt>
      <trkpt lat="43.56001" lon="-0.94468">
        <ele>68</ele>
        <time>2021-05-08T09:01:37Z</time>
      </trkpt>
      <trkpt lat="43.56004" lon="-0.9447">
        <ele>68</ele>
        <time>2021-05-08T09:01:38Z</time>
      </trkpt>
      <trkpt lat="43.56006" lon="-0.94472">
        <ele>68</ele>
        <time>2021-05-08T09:01:39Z</time>
      </trkpt>
      <trkpt lat="43.56008" lon="-0.94474">
        <ele>68</ele>
        <time>2021-05-08T09:01:40Z</time>
      </trkpt>
      <trkpt lat="43.5601" lon="-0.94476">
        <ele>68</ele>
        <time>2021-05-08T09:01:41Z</time>
      </trkpt>
      <trkpt lat="43.56011" lon="-0.94479">
        <ele>68</ele>
        <time>2021-05-08T09:01:42Z</time>
      </trkpt>
      <trkpt lat="43.56013" lon="-0.94481">
        <ele>67</ele>
        <time>2021-05-08T09:01:43Z</time>
      </trkpt>
      <trkpt lat="43.56015" lon="-0.94484">
        <ele>67</ele>
        <time>2021-05-08T09:01:44Z</time>
      </trkpt>
      <trkpt lat="43.56016" lon="-0.94487">
        <ele>67</ele>
        <time>2021-05-08T09:01:45Z</time>
      </trkpt>
      <trkpt lat="43.56018" lon="-0.9449">
        <ele>67</ele>
        <time>2021-05-08T09:01:46Z</time>
      </trkpt>
      <trkpt lat="43.5602" lon="-0.94493">
        <ele>67</ele>
        <time>2021-05-08T09:01:47Z</time>
      </trkpt>
      <trkpt lat="43.56022" lon="-0.94495">
        <ele>66</ele>
        <time>2021-05-08T09:01:48Z</time>
      </trkpt>
      <trkpt lat="43.56024" lon="-0.94497">
        <ele>66</ele>
        <time>2021-05-08T09:01:49Z</time>
      </trkpt>
      <trkpt lat="43.56026" lon="-0.94498">
        <ele>66</ele>
        <time>2021-05-08T09:01:50Z</time>
      </trkpt>
      <trkpt lat="43.56027" lon="-0.945">
        <ele>66</ele>
        <time>2021-05-08T09:01:51Z</time>
      </trkpt>
      <trkpt lat="43.56029" lon="-0.94501">
        <ele>66</ele>
        <time>2021-05-08T09:01:52Z</time>
      </trkpt>
      <trkpt lat="43.5603" lon="-0.94502">
        <ele>65</ele>
        <time>2021-05-08T09:01:53Z</time>
      </trkpt>
      <trkpt lat="43.56032" lon="-0.94504">
        <ele>65</ele>
        <time>2021-05-08T09:01:54Z</time>
      </trkpt>
      <trkpt lat="43.56033" lon="-0.94505">
        <ele>65</ele>
        <time>2021-05-08T09:01:55Z</time>
      </trkpt>
      <trkpt lat="43.56035" lon="-0.94506">
        <ele>65</ele>
        <time>2021-05-08T09:01:56Z</time>
      </trkpt>
      <trkpt lat="43.56037" lon="-0.94508">
        <ele>65</ele>
        <time>2021-05-08T09:01:57Z</time>
      </trkpt>
      <trkpt lat="43.56039" lon="-0.9451">
        <ele>65</ele>
        <time>2021-05-08T09:01:58Z</time>
      </trkpt>
      <trkpt lat="43.56041" lon="-0.94512">
        <ele>65</ele>
        <time>2021-05-08T09:01:59Z</time>
      </trkpt>
      <trkpt lat="43.56043" lon="-0.94514">
        <ele>65</ele>
        <time>2021-05-08T09:02:00Z</time>
      </trkpt>
      <trkpt lat="43.56046" lon="-0.94516">
        <ele>65</ele>
        <time>2021-05-08T09:02:01Z</time>
      </trkpt>
      <trkpt lat="43.56048" lon="-0.94517">
        <ele>65</ele>
        <time>2021-05-08T09:02:02Z</time>
      </trkpt>
      <trkpt lat="43.5605" lon="-0.94519">
        <ele>65</ele>
        <time>2021-05-08T09:02:03Z</time>
      </trkpt>
      <trkpt lat="43.56052" lon="-0.94521">
        <ele>65</ele>
        <time>2021-05-08T09:02:04Z</time>
      </trkpt>
      <trkpt lat="43.56054" lon="-0.94523">
        <ele>65</ele>
        <time>2021-05-08T09:02:05Z</time>
      </trkpt>
      <trkpt lat="43.56056" lon="-0.94525">
        <ele>65</ele>
        <time>2021-05-08T09:02:06Z</time>
      </trkpt>
      <trkpt lat="43.56058" lon="-0.94528">
        <ele>65</ele>
        <time>2021-05-08T09:02:07Z</time>
      </trkpt>
      <trkpt lat="43.5606" lon="-0.9453">
        <ele>64</ele>
        <time>2021-05-08T09:02:08Z</time>
      </trkpt>
      <trkpt lat="43.56062" lon="-0.94533">
        <ele>64</ele>
        <time>2021-05-08T09:02:09Z</time>
      </trkpt>
      <trkpt lat="43.56064" lon="-0.94536">
        <ele>64</ele>
        <time>2021-05-08T09:02:10Z</time>
      </trkpt>
      <trkpt lat="43.56065" lon="-0.94539">
        <ele>64</ele>
        <time>2021-05-08T09:02:11Z</time>
      </trkpt>
      <trkpt lat="43.56067" lon="-0.94541">
        <ele>64</ele>
        <time>2021-05-08T09:02:12Z</time>
      </trkpt>
      <trkpt lat="43.56068" lon="-0.94544">
        <ele>64</ele>
        <time>2021-05-08T09:02:13Z</time>
      </trkpt>
      <trkpt lat="43.56069" lon="-0.94547">
        <ele>64</ele>
        <time>2021-05-08T09:02:14Z</time>
      </trkpt>
      <trkpt lat="43.5607" lon="-0.94549">
        <ele>64</ele>
        <time>2021-05-08T09:02:15Z</time>
      </trkpt>
      <trkpt lat="43.5607" lon="-0.94552">
        <ele>64</ele>
        <time>2021-05-08T09:02:16Z</time>
      </trkpt>
      <trkpt lat="43.5607" lon="-0.94555">
        <ele>64</ele>
        <time>2021-05-08T09:02:17Z</time>
      </trkpt>
      <trkpt lat="43.5607" lon="-0.94558">
        <ele>64</ele>
        <time>2021-05-08T09:02:18Z</time>
      </trkpt>
      <trkpt lat="43.56069" lon="-0.94562">
        <ele>64</ele>
        <time>2021-05-08T09:02:19Z</time>
      </trkpt>
      <trkpt lat="43.56069" lon="-0.94565">
        <ele>64</ele>
        <time>2021-05-08T09:02:20Z</time>
      </trkpt>
      <trkpt lat="43.56069" lon="-0.94568">
        <ele>64</ele>
        <time>2021-05-08T09:02:21Z</time>
      </trkpt>
      <trkpt lat="43.56069" lon="-0.94571">
        <ele>64</ele>
        <time>2021-05-08T09:02:22Z</time>
      </trkpt>
      <trkpt lat="43.5607" lon="-0.94575">
        <ele>63</ele>
        <time>2021-05-08T09:02:23Z</time>
      </trkpt>
      <trkpt lat="43.5607" lon="-0.94577">
        <ele>63</ele>
        <time>2021-05-08T09:02:24Z</time>
      </trkpt>
      <trkpt lat="43.56071" lon="-0.9458">
        <ele>63</ele>
        <time>2021-05-08T09:02:25Z</time>
      </trkpt>
      <trkpt lat="43.56072" lon="-0.94583">
        <ele>63</ele>
        <time>2021-05-08T09:02:26Z</time>
      </trkpt>
      <trkpt lat="43.56073" lon="-0.94586">
        <ele>63</ele>
        <time>2021-05-08T09:02:27Z</time>
      </trkpt>
      <trkpt lat="43.56074" lon="-0.9459">
        <ele>63</ele>
        <time>2021-05-08T09:02:28Z</time>
      </trkpt>
      <trkpt lat="43.56075" lon="-0.94593">
        <ele>63</ele>
        <time>2021-05-08T09:02:29Z</time>
      </trkpt>
      <trkpt lat="43.56076" lon="-0.94596">
        <ele>63</ele>
        <time>2021-05-08T09:02:30Z</time>
      </trkpt>
      <trkpt lat="43.56078" lon="-0.94599">
        <ele>63</ele>
        <time>2021-05-08T09:02:31Z</time>
      </trkpt>
      <trkpt lat="43.5608" lon="-0.94602">
        <ele>63</ele>
        <time>2021-05-08T09:02:32Z</time>
      </trkpt>
      <trkpt lat="43.56081" lon="-0.94605">
        <ele>63</ele>
        <time>2021-05-08T09:02:33Z</time>
      </trkpt>
      <trkpt lat="43.56084" lon="-0.94607">
        <ele>63</ele>
        <time>2021-05-08T09:02:34Z</time>
      </trkpt>
      <trkpt lat="43.56086" lon="-0.94608">
        <ele>63</ele>
        <time>2021-05-08T09:02:35Z</time>
      </trkpt>
      <trkpt lat="43.56088" lon="-0.94608">
        <ele>63</ele>
        <time>2021-05-08T09:02:36Z</time>
      </trkpt>
      <trkpt lat="43.5609" lon="-0.94608">
        <ele>63</ele>
        <time>2021-05-08T09:02:37Z</time>
      </trkpt>
      <trkpt lat="43.56092" lon="-0.94606">
        <ele>63</ele>
        <time>2021-05-08T09:02:38Z</time>
      </trkpt>
      <trkpt lat="43.56094" lon="-0.94604">
        <ele>63</ele>
        <time>2021-05-08T09:02:39Z</time>
      </trkpt>
      <trkpt lat="43.56096" lon="-0.94602">
        <ele>63</ele>
        <time>2021-05-08T09:02:40Z</time>
      </trkpt>
      <trkpt lat="43.56098" lon="-0.946">
        <ele>63</ele>
        <time>2021-05-08T09:02:41Z</time>
      </trkpt>
      <trkpt lat="43.561" lon="-0.94598">
        <ele>63</ele>
        <time>2021-05-08T09:02:42Z</time>
      </trkpt>
      <trkpt lat="43.56102" lon="-0.94596">
        <ele>63</ele>
        <time>2021-05-08T09:02:43Z</time>
      </trkpt>
      <trkpt lat="43.56104" lon="-0.94594">
        <ele>63</ele>
        <time>2021-05-08T09:02:44Z</time>
      </trkpt>
      <trkpt lat="43.56105" lon="-0.94592">
        <ele>63</ele>
        <time>2021-05-08T09:02:45Z</time>
      </trkpt>
      <trkpt lat="43.56107" lon="-0.9459">
        <ele>63</ele>
        <time>2021-05-08T09:02:46Z</time>
      </trkpt>
      <trkpt lat="43.56109" lon="-0.94588">
        <ele>64</ele>
        <time>2021-05-08T09:02:47Z</time>
      </trkpt>
      <trkpt lat="43.5611" lon="-0.94587">
        <ele>64</ele>
        <time>2021-05-08T09:02:48Z</time>
      </trkpt>
      <trkpt lat="43.56112" lon="-0.94585">
        <ele>64</ele>
        <time>2021-05-08T09:02:49Z</time>
      </trkpt>
      <trkpt lat="43.56113" lon="-0.94584">
        <ele>64</ele>
        <time>2021-05-08T09:02:50Z</time>
      </trkpt>
      <trkpt lat="43.56114" lon="-0.94582">
        <ele>64</ele>
        <time>2021-05-08T09:02:51Z</time>
      </trkpt>
      <trkpt lat="43.56115" lon="-0.9458">
        <ele>64</ele>
        <time>2021-05-08T09:02:52Z</time>
      </trkpt>
      <trkpt lat="43.56116" lon="-0.94578">
        <ele>64</ele>
        <time>2021-05-08T09:02:53Z</time>
      </trkpt>
      <trkpt lat="43.56118" lon="-0.94577">
        <ele>64</ele>
        <time>2021-05-08T09:02:54Z</time>
      </trkpt>
      <trkpt lat="43.56119" lon="-0.94575">
        <ele>64</ele>
        <time>2021-05-08T09:02:55Z</time>
      </trkpt>
      <trkpt lat="43.5612" lon="-0.94573">
        <ele>64</ele>
        <time>2021-05-08T09:02:56Z</time>
      </trkpt>
      <trkpt lat="43.56121" lon="-0.94572">
        <ele>65</ele>
        <time>2021-05-08T09:02:57Z</time>
      </trkpt>
      <trkpt lat="43.56122" lon="-0.94571">
        <ele>65</ele>
        <time>2021-05-08T09:02:58Z</time>
      </trkpt>
      <trkpt lat="43.56124" lon="-0.94569">
        <ele>65</ele>
        <time>2021-05-08T09:02:59Z</time>
      </trkpt>
      <trkpt lat="43.56125" lon="-0.94568">
        <ele>66</ele>
        <time>2021-05-08T09:03:00Z</time>
      </trkpt>
      <trkpt lat="43.56126" lon="-0.94567">
        <ele>66</ele>
        <time>2021-05-08T09:03:01Z</time>
      </trkpt>
      <trkpt lat="43.56127" lon="-0.94565">
        <ele>67</ele>
        <time>2021-05-08T09:03:02Z</time>
      </trkpt>
      <trkpt lat="43.56128" lon="-0.94564">
        <ele>67</ele>
        <time>2021-05-08T09:03:03Z</time>
      </trkpt>
      <trkpt lat="43.56129" lon="-0.94562">
        <ele>67</ele>
        <time>2021-05-08T09:03:04Z</time>
      </trkpt>
      <trkpt lat="43.5613" lon="-0.94561">
        <ele>67</ele>
        <time>2021-05-08T09:03:05Z</time>
      </trkpt>
      <trkpt lat="43.56132" lon="-0.9456">
        <ele>67</ele>
        <time>2021-05-08T09:03:06Z</time>
      </trkpt>
      <trkpt lat="43.56133" lon="-0.94558">
        <ele>68</ele>
        <time>2021-05-08T09:03:07Z</time>
      </trkpt>
      <trkpt lat="43.56134" lon="-0.94557">
        <ele>68</ele>
        <time>2021-05-08T09:03:08Z</time>
      </trkpt>
      <trkpt lat="43.56135" lon="-0.94555">
        <ele>68</ele>
        <time>2021-05-08T09:03:09Z</time>
      </trkpt>
      <trkpt lat="43.56136" lon="-0.94553">
        <ele>69</ele>
        <time>2021-05-08T09:03:10Z</time>
      </trkpt>
      <trkpt lat="43.56137" lon="-0.94552">
        <ele>69</ele>
        <time>2021-05-08T09:03:11Z</time>
      </trkpt>
      <trkpt lat="43.56138" lon="-0.9455">
        <ele>70</ele>
        <time>2021-05-08T09:03:12Z</time>
      </trkpt>
      <trkpt lat="43.56139" lon="-0.94548">
        <ele>70</ele>
        <time>2021-05-08T09:03:13Z</time>
      </trkpt>
      <trkpt lat="43.5614" lon="-0.94547">
        <ele>70</ele>
        <time>2021-05-08T09:03:14Z</time>
      </trkpt>
      <trkpt lat="43.56142" lon="-0.94545">
        <ele>70</ele>
        <time>2021-05-08T09:03:15Z</time>
      </trkpt>
      <trkpt lat="43.56143" lon="-0.94543">
        <ele>70</ele>
        <time>2021-05-08T09:03:16Z</time>
      </trkpt>
      <trkpt lat="43.56144" lon="-0.94542">
        <ele>71</ele>
        <time>2021-05-08T09:03:17Z</time>
      </trkpt>
      <trkpt lat="43.56145" lon="-0.9454">
        <ele>71</ele>
        <time>2021-05-08T09:03:18Z</time>
      </trkpt>
      <trkpt lat="43.56146" lon="-0.94538">
        <ele>71</ele>
        <time>2021-05-08T09:03:19Z</time>
      </trkpt>
      <trkpt lat="43.56147" lon="-0.94536">
        <ele>71</ele>
        <time>2021-05-08T09:03:20Z</time>
      </trkpt>
      <trkpt lat="43.56148" lon="-0.94534">
        <ele>71</ele>
        <time>2021-05-08T09:03:21Z</time>
      </trkpt>
      <trkpt lat="43.56149" lon="-0.94533">
        <ele>72</ele>
        <time>2021-05-08T09:03:22Z</time>
      </trkpt>
      <trkpt lat="43.56151" lon="-0.94531">
        <ele>72</ele>
        <time>2021-05-08T09:03:23Z</time>
      </trkpt>
      <trkpt lat="43.56152" lon="-0.94529">
        <ele>72</ele>
        <time>2021-05-08T09:03:24Z</time>
      </trkpt>
      <trkpt lat="43.56153" lon="-0.94527">
        <ele>72</ele>
        <time>2021-05-08T09:03:25Z</time>
      </trkpt>
      <trkpt lat="43.56154" lon="-0.94526">
        <ele>72</ele>
        <time>2021-05-08T09:03:26Z</time>
      </trkpt>
      <trkpt lat="43.56155" lon="-0.94524">
        <ele>73</ele>
        <time>2021-05-08T09:03:27Z</time>
      </trkpt>
      <trkpt lat="43.56156" lon="-0.94522">
        <ele>73</ele>
        <time>2021-05-08T09:03:28Z</time>
      </trkpt>
      <trkpt lat="43.56157" lon="-0.94521">
        <ele>73</ele>
        <time>2021-05-08T09:03:29Z</time>
      </trkpt>
      <trkpt lat="43.56158" lon="-0.94519">
        <ele>73</ele>
        <time>2021-05-08T09:03:30Z</time>
      </trkpt>
      <trkpt lat="43.56159" lon="-0.94518">
        <ele>73</ele>
        <time>2021-05-08T09:03:31Z</time>
      </trkpt>
      <trkpt lat="43.5616" lon="-0.94516">
        <ele>74</ele>
        <time>2021-05-08T09:03:32Z</time>
      </trkpt>
      <trkpt lat="43.56161" lon="-0.94514">
        <ele>74</ele>
        <time>2021-05-08T09:03:33Z</time>
      </trkpt>
      <trkpt lat="43.56162" lon="-0.94513">
        <ele>74</ele>
        <time>2021-05-08T09:03:34Z</time>
      </trkpt>
      <trkpt lat="43.56164" lon="-0.94511">
        <ele>74</ele>
        <time>2021-05-08T09:03:35Z</time>
      </trkpt>
      <trkpt lat="43.56165" lon="-0.9451">
        <ele>74</ele>
        <time>2021-05-08T09:03:36Z</time>
      </trkpt>
      <trkpt lat="43.56166" lon="-0.94508">
        <ele>75</ele>
        <time>2021-05-08T09:03:37Z</time>
      </trkpt>
      <trkpt lat="43.56168" lon="-0.94507">
        <ele>75</ele>
        <time>2021-05-08T09:03:38Z</time>
      </trkpt>
      <trkpt lat="43.56169" lon="-0.94506">
        <ele>75</ele>
        <time>2021-05-08T09:03:39Z</time>
      </trkpt>
      <trkpt lat="43.56171" lon="-0.94505">
        <ele>75</ele>
        <time>2021-05-08T09:03:40Z</time>
      </trkpt>
      <trkpt lat="43.56172" lon="-0.94503">
        <ele>75</ele>
        <time>2021-05-08T09:03:41Z</time>
      </trkpt>
      <trkpt lat="43.56173" lon="-0.94502">
        <ele>76</ele>
        <time>2021-05-08T09:03:42Z</time>
      </trkpt>
      <trkpt lat="43.56175" lon="-0.94501">
        <ele>76</ele>
        <time>2021-05-08T09:03:43Z</time>
      </trkpt>
      <trkpt lat="43.56176" lon="-0.94499">
        <ele>76</ele>
        <time>2021-05-08T09:03:44Z</time>
      </trkpt>
      <trkpt lat="43.56177" lon="-0.94498">
        <ele>77</ele>
        <time>2021-05-08T09:03:45Z</time>
      </trkpt>
      <trkpt lat="43.56178" lon="-0.94496">
        <ele>77</ele>
        <time>2021-05-08T09:03:46Z</time>
      </trkpt>
      <trkpt lat="43.56179" lon="-0.94495">
        <ele>78</ele>
        <time>2021-05-08T09:03:47Z</time>
      </trkpt>
      <trkpt lat="43.5618" lon="-0.94493">
        <ele>78</ele>
        <time>2021-05-08T09:03:48Z</time>
      </trkpt>
      <trkpt lat="43.56181" lon="-0.94492">
        <ele>78</ele>
        <time>2021-05-08T09:03:49Z</time>
      </trkpt>
      <trkpt lat="43.56182" lon="-0.94491">
        <ele>78</ele>
        <time>2021-05-08T09:03:50Z</time>
      </trkpt>
      <trkpt lat="43.56183" lon="-0.94489">
        <ele>78</ele>
        <time>2021-05-08T09:03:51Z</time>
      </trkpt>
      <trkpt lat="43.56184" lon="-0.94488">
        <ele>79</ele>
        <time>2021-05-08T09:03:52Z</time>
      </trkpt>
      <trkpt lat="43.56185" lon="-0.94487">
        <ele>79</ele>
        <time>2021-05-08T09:03:53Z</time>
      </trkpt>
      <trkpt lat="43.56186" lon="-0.94485">
        <ele>79</ele>
        <time>2021-05-08T09:03:54Z</time>
      </trkpt>
      <trkpt lat="43.56187" lon="-0.94484">
        <ele>80</ele>
        <time>2021-05-08T09:03:55Z</time>
      </trkpt>
      <trkpt lat="43.56188" lon="-0.94482">
        <ele>80</ele>
        <time>2021-05-08T09:03:56Z</time>
      </trkpt>
      <trkpt lat="43.56189" lon="-0.94481">
        <ele>81</ele>
        <time>2021-05-08T09:03:57Z</time>
      </trkpt>
      <trkpt lat="43.5619" lon="-0.9448">
        <ele>81</ele>
        <time>2021-05-08T09:03:58Z</time>
      </trkpt>
      <trkpt lat="43.56191" lon="-0.94479">
        <ele>81</ele>
        <time>2021-05-08T09:03:59Z</time>
      </trkpt>
      <trkpt lat="43.56192" lon="-0.94477">
        <ele>81</ele>
        <time>2021-05-08T09:04:00Z</time>
      </trkpt>
      <trkpt lat="43.56193" lon="-0.94476">
        <ele>81</ele>
        <time>2021-05-08T09:04:01Z</time>
      </trkpt>
      <trkpt lat="43.56194" lon="-0.94475">
        <ele>82</ele>
        <time>2021-05-08T09:04:02Z</time>
      </trkpt>
      <trkpt lat="43.56195" lon="-0.94474">
        <ele>82</ele>
        <time>2021-05-08T09:04:03Z</time>
      </trkpt>
      <trkpt lat="43.56196" lon="-0.94473">
        <ele>82</ele>
        <time>2021-05-08T09:04:04Z</time>
      </trkpt>
      <trkpt lat="43.56197" lon="-0.94472">
        <ele>82</ele>
        <time>2021-05-08T09:04:05Z</time>
      </trkpt>
      <trkpt lat="43.56199" lon="-0.9447">
        <ele>82</ele>
        <time>2021-05-08T09:04:06Z</time>
      </trkpt>
      <trkpt lat="43.562" lon="-0.94469">
        <ele>83</ele>
        <time>2021-05-08T09:04:07Z</time>
      </trkpt>
      <trkpt lat="43.56201" lon="-0.94469">
        <ele>83</ele>
        <time>2021-05-08T09:04:08Z</time>
      </trkpt>
      <trkpt lat="43.56203" lon="-0.94468">
        <ele>83</ele>
        <time>2021-05-08T09:04:09Z</time>
      </trkpt>
      <trkpt lat="43.56204" lon="-0.94468">
        <ele>83</ele>
        <time>2021-05-08T09:04:10Z</time>
      </trkpt>
      <trkpt lat="43.56205" lon="-0.94469">
        <ele>83</ele>
        <time>2021-05-08T09:04:11Z</time>
      </trkpt>
      <trkpt lat="43.56206" lon="-0.9447">
        <ele>84</ele>
        <time>2021-05-08T09:04:12Z</time>
      </trkpt>
      <trkpt lat="43.56207" lon="-0.94471">
        <ele>84</ele>
        <time>2021-05-08T09:04:13Z</time>
      </trkpt>
      <trkpt lat="43.56208" lon="-0.94474">
        <ele>84</ele>
        <time>2021-05-08T09:04:14Z</time>
      </trkpt>
      <trkpt lat="43.56209" lon="-0.94476">
        <ele>84</ele>
        <time>2021-05-08T09:04:15Z</time>
      </trkpt>
      <trkpt lat="43.5621" lon="-0.94478">
        <ele>84</ele>
        <time>2021-05-08T09:04:16Z</time>
      </trkpt>
      <trkpt lat="43.5621" lon="-0.9448">
        <ele>84</ele>
        <time>2021-05-08T09:04:17Z</time>
      </trkpt>
      <trkpt lat="43.56211" lon="-0.94483">
        <ele>83</ele>
        <time>2021-05-08T09:04:18Z</time>
      </trkpt>
      <trkpt lat="43.56211" lon="-0.94486">
        <ele>83</ele>
        <time>2021-05-08T09:04:19Z</time>
      </trkpt>
      <trkpt lat="43.56212" lon="-0.94489">
        <ele>83</ele>
        <time>2021-05-08T09:04:20Z</time>
      </trkpt>
      <trkpt lat="43.56212" lon="-0.94491">
        <ele>83</ele>
        <time>2021-05-08T09:04:21Z</time>
      </trkpt>
      <trkpt lat="43.56213" lon="-0.94494">
        <ele>83</ele>
        <time>2021-05-08T09:04:22Z</time>
      </trkpt>
      <trkpt lat="43.56214" lon="-0.94497">
        <ele>82</ele>
        <time>2021-05-08T09:04:23Z</time>
      </trkpt>
      <trkpt lat="43.56215" lon="-0.94499">
        <ele>82</ele>
        <time>2021-05-08T09:04:24Z</time>
      </trkpt>
      <trkpt lat="43.56216" lon="-0.94502">
        <ele>81</ele>
        <time>2021-05-08T09:04:25Z</time>
      </trkpt>
      <trkpt lat="43.56217" lon="-0.94504">
        <ele>81</ele>
        <time>2021-05-08T09:04:26Z</time>
      </trkpt>
      <trkpt lat="43.56217" lon="-0.94507">
        <ele>81</ele>
        <time>2021-05-08T09:04:27Z</time>
      </trkpt>
      <trkpt lat="43.56218" lon="-0.94509">
        <ele>81</ele>
        <time>2021-05-08T09:04:28Z</time>
      </trkpt>
      <trkpt lat="43.56219" lon="-0.94512">
        <ele>81</ele>
        <time>2021-05-08T09:04:29Z</time>
      </trkpt>
      <trkpt lat="43.5622" lon="-0.94515">
        <ele>81</ele>
        <time>2021-05-08T09:04:30Z</time>
      </trkpt>
      <trkpt lat="43.56221" lon="-0.94518">
        <ele>81</ele>
        <time>2021-05-08T09:04:31Z</time>
      </trkpt>
      <trkpt lat="43.56221" lon="-0.94521">
        <ele>81</ele>
        <time>2021-05-08T09:04:32Z</time>
      </trkpt>
      <trkpt lat="43.56222" lon="-0.94524">
        <ele>81</ele>
        <time>2021-05-08T09:04:33Z</time>
      </trkpt>
      <trkpt lat="43.56223" lon="-0.94527">
        <ele>81</ele>
        <time>2021-05-08T09:04:34Z</time>
      </trkpt>
      <trkpt lat="43.56224" lon="-0.94529">
        <ele>81</ele>
        <time>2021-05-08T09:04:35Z</time>
      </trkpt>
      <trkpt lat="43.56225" lon="-0.94532">
        <ele>81</ele>
        <time>2021-05-08T09:04:36Z</time>
      </trkpt>
      <trkpt lat="43.56227" lon="-0.94533">
        <ele>81</ele>
        <time>2021-05-08T09:04:37Z</time>
      </trkpt>
      <trkpt lat="43.56228" lon="-0.94535">
        <ele>81</ele>
        <time>2021-05-08T09:04:38Z</time>
      </trkpt>
      <trkpt lat="43.5623" lon="-0.94535">
        <ele>81</ele>
        <time>2021-05-08T09:04:39Z</time>
      </trkpt>
      <trkpt lat="43.56231" lon="-0.94535">
        <ele>81</ele>
        <time>2021-05-08T09:04:40Z</time>
      </trkpt>
      <trkpt lat="43.56233" lon="-0.94534">
        <ele>81</ele>
        <time>2021-05-08T09:04:41Z</time>
      </trkpt>
      <trkpt lat="43.56235" lon="-0.94533">
        <ele>81</ele>
        <time>2021-05-08T09:04:42Z</time>
      </trkpt>
      <trkpt lat="43.56237" lon="-0.94531">
        <ele>81</ele>
        <time>2021-05-08T09:04:43Z</time>
      </trkpt>
      <trkpt lat="43.56238" lon="-0.9453">
        <ele>81</ele>
        <time>2021-05-08T09:04:44Z</time>
      </trkpt>
      <trkpt lat="43.5624" lon="-0.94528">
        <ele>81</ele>
        <time>2021-05-08T09:04:45Z</time>
      </trkpt>
      <trkpt lat="43.56242" lon="-0.94527">
        <ele>81</ele>
        <time>2021-05-08T09:04:46Z</time>
      </trkpt>
      <trkpt lat="43.56244" lon="-0.94526">
        <ele>82</ele>
        <time>2021-05-08T09:04:47Z</time>
      </trkpt>
      <trkpt lat="43.56246" lon="-0.94525">
        <ele>82</ele>
        <time>2021-05-08T09:04:48Z</time>
      </trkpt>
      <trkpt lat="43.56247" lon="-0.94523">
        <ele>82</ele>
        <time>2021-05-08T09:04:49Z</time>
      </trkpt>
      <trkpt lat="43.56249" lon="-0.94522">
        <ele>83</ele>
        <time>2021-05-08T09:04:50Z</time>
      </trkpt>
      <trkpt lat="43.56251" lon="-0.94521">
        <ele>83</ele>
        <time>2021-05-08T09:04:51Z</time>
      </trkpt>
      <trkpt lat="43.56252" lon="-0.9452">
        <ele>84</ele>
        <time>2021-05-08T09:04:52Z</time>
      </trkpt>
      <trkpt lat="43.56254" lon="-0.94519">
        <ele>84</ele>
        <time>2021-05-08T09:04:53Z</time>
      </trkpt>
      <trkpt lat="43.56255" lon="-0.94518">
        <ele>84</ele>
        <time>2021-05-08T09:04:54Z</time>
      </trkpt>
      <trkpt lat="43.56257" lon="-0.94517">
        <ele>84</ele>
        <time>2021-05-08T09:04:55Z</time>
      </trkpt>
      <trkpt lat="43.56258" lon="-0.94516">
        <ele>84</ele>
        <time>2021-05-08T09:04:56Z</time>
      </trkpt>
      <trkpt lat="43.5626" lon="-0.94514">
        <ele>85</ele>
        <time>2021-05-08T09:04:57Z</time>
      </trkpt>
      <trkpt lat="43.56261" lon="-0.94513">
        <ele>85</ele>
        <time>2021-05-08T09:04:58Z</time>
      </trkpt>
      <trkpt lat="43.56262" lon="-0.94512">
        <ele>85</ele>
        <time>2021-05-08T09:04:59Z</time>
      </trkpt>
      <trkpt lat="43.56263" lon="-0.9451">
        <ele>85</ele>
        <time>2021-05-08T09:05:00Z</time>
      </trkpt>
      <trkpt lat="43.56264" lon="-0.94509">
        <ele>85</ele>
        <time>2021-05-08T09:05:01Z</time>
      </trkpt>
      <trkpt lat="43.56265" lon="-0.94508">
        <ele>86</ele>
        <time>2021-05-08T09:05:02Z</time>
      </trkpt>
      <trkpt lat="43.56267" lon="-0.94507">
        <ele>86</ele>
        <time>2021-05-08T09:05:03Z</time>
      </trkpt>
      <trkpt lat="43.56268" lon="-0.94506">
        <ele>86</ele>
        <time>2021-05-08T09:05:04Z</time>
      </trkpt>
      <trkpt lat="43.56269" lon="-0.94505">
        <ele>86</ele>
        <time>2021-05-08T09:05:05Z</time>
      </trkpt>
      <trkpt lat="43.56271" lon="-0.94503">
        <ele>86</ele>
        <time>2021-05-08T09:05:06Z</time>
      </trkpt>
      <trkpt lat="43.56272" lon="-0.94502">
        <ele>86</ele>
        <time>2021-05-08T09:05:07Z</time>
      </trkpt>
      <trkpt lat="43.56274" lon="-0.94501">
        <ele>86</ele>
        <time>2021-05-08T09:05:08Z</time>
      </trkpt>
      <trkpt lat="43.56275" lon="-0.945">
        <ele>86</ele>
        <time>2021-05-08T09:05:09Z</time>
      </trkpt>
      <trkpt lat="43.56277" lon="-0.94498">
        <ele>86</ele>
        <time>2021-05-08T09:05:10Z</time>
      </trkpt>
      <trkpt lat="43.56278" lon="-0.94497">
        <ele>86</ele>
        <time>2021-05-08T09:05:11Z</time>
      </trkpt>
      <trkpt lat="43.5628" lon="-0.94495">
        <ele>87</ele>
        <time>2021-05-08T09:05:12Z</time>
      </trkpt>
      <trkpt lat="43.56281" lon="-0.94494">
        <ele>86</ele>
        <time>2021-05-08T09:05:13Z</time>
      </trkpt>
      <trkpt lat="43.56283" lon="-0.94492">
        <ele>86</ele>
        <time>2021-05-08T09:05:14Z</time>
      </trkpt>
      <trkpt lat="43.56284" lon="-0.94491">
        <ele>86</ele>
        <time>2021-05-08T09:05:15Z</time>
      </trkpt>
      <trkpt lat="43.56285" lon="-0.94489">
        <ele>86</ele>
        <time>2021-05-08T09:05:16Z</time>
      </trkpt>
      <trkpt lat="43.56287" lon="-0.94488">
        <ele>86</ele>
        <time>2021-05-08T09:05:17Z</time>
      </trkpt>
      <trkpt lat="43.56288" lon="-0.94486">
        <ele>86</ele>
        <time>2021-05-08T09:05:18Z</time>
      </trkpt>
      <trkpt lat="43.5629" lon="-0.94484">
        <ele>86</ele>
        <time>2021-05-08T09:05:19Z</time>
      </trkpt>
      <trkpt lat="43.56291" lon="-0.94483">
        <ele>86</ele>
        <time>2021-05-08T09:05:20Z</time>
      </trkpt>
      <trkpt lat="43.56293" lon="-0.94481">
        <ele>86</ele>
        <time>2021-05-08T09:05:21Z</time>
      </trkpt>
      <trkpt lat="43.56295" lon="-0.9448">
        <ele>86</ele>
        <time>2021-05-08T09:05:22Z</time>
      </trkpt>
      <trkpt lat="43.56296" lon="-0.94478">
        <ele>86</ele>
        <time>2021-05-08T09:05:23Z</time>
      </trkpt>
      <trkpt lat="43.56298" lon="-0.94477">
        <ele>86</ele>
        <time>2021-05-08T09:05:24Z</time>
      </trkpt>
      <trkpt lat="43.56299" lon="-0.94475">
        <ele>86</ele>
        <time>2021-05-08T09:05:25Z</time>
      </trkpt>
      <trkpt lat="43.56301" lon="-0.94474">
        <ele>86</ele>
        <time>2021-05-08T09:05:26Z</time>
      </trkpt>
      <trkpt lat="43.56302" lon="-0.94472">
        <ele>86</ele>
        <time>2021-05-08T09:05:27Z</time>
      </trkpt>
      <trkpt lat="43.56304" lon="-0.94471">
        <ele>86</ele>
        <time>2021-05-08T09:05:28Z</time>
      </trkpt>
      <trkpt lat="43.56306" lon="-0.9447">
        <ele>86</ele>
        <time>2021-05-08T09:05:29Z</time>
      </trkpt>
      <trkpt lat="43.56307" lon="-0.94468">
        <ele>86</ele>
        <time>2021-05-08T09:05:30Z</time>
      </trkpt>
      <trkpt lat="43.56309" lon="-0.94467">
        <ele>86</ele>
        <time>2021-05-08T09:05:31Z</time>
      </trkpt>
      <trkpt lat="43.56311" lon="-0.94466">
        <ele>86</ele>
        <time>2021-05-08T09:05:32Z</time>
      </trkpt>
      <trkpt lat="43.56312" lon="-0.94464">
        <ele>86</ele>
        <time>2021-05-08T09:05:33Z</time>
      </trkpt>
      <trkpt lat="43.56314" lon="-0.94463">
        <ele>86</ele>
        <time>2021-05-08T09:05:34Z</time>
      </trkpt>
      <trkpt lat="43.56315" lon="-0.94462">
        <ele>86</ele>
        <time>2021-05-08T09:05:35Z</time>
      </trkpt>
      <trkpt lat="43.56316" lon="-0.9446">
        <ele>86</ele>
        <time>2021-05-08T09:05:36Z</time>
      </trkpt>
      <trkpt lat="43.56318" lon="-0.94459">
        <ele>87</ele>
        <time>2021-05-08T09:05:37Z</time>
      </trkpt>
      <trkpt lat="43.56319" lon="-0.94458">
        <ele>87</ele>
        <time>2021-05-08T09:05:38Z</time>
      </trkpt>
      <trkpt lat="43.56321" lon="-0.94456">
        <ele>87</ele>
        <time>2021-05-08T09:05:39Z</time>
      </trkpt>
      <trkpt lat="43.56322" lon="-0.94455">
        <ele>87</ele>
        <time>2021-05-08T09:05:40Z</time>
      </trkpt>
      <trkpt lat="43.56324" lon="-0.94454">
        <ele>87</ele>
        <time>2021-05-08T09:05:41Z</time>
      </trkpt>
      <trkpt lat="43.56325" lon="-0.94452">
        <ele>87</ele>
        <time>2021-05-08T09:05:42Z</time>
      </trkpt>
      <trkpt lat="43.56327" lon="-0.94451">
        <ele>87</ele>
        <time>2021-05-08T09:05:43Z</time>
      </trkpt>
      <trkpt lat="43.56328" lon="-0.9445">
        <ele>87</ele>
        <time>2021-05-08T09:05:44Z</time>
      </trkpt>
      <trkpt lat="43.5633" lon="-0.94449">
        <ele>88</ele>
        <time>2021-05-08T09:05:45Z</time>
      </trkpt>
      <trkpt lat="43.56331" lon="-0.94447">
        <ele>88</ele>
        <time>2021-05-08T09:05:46Z</time>
      </trkpt>
      <trkpt lat="43.56333" lon="-0.94446">
        <ele>89</ele>
        <time>2021-05-08T09:05:47Z</time>
      </trkpt>
      <trkpt lat="43.56334" lon="-0.94445">
        <ele>89</ele>
        <time>2021-05-08T09:05:48Z</time>
      </trkpt>
      <trkpt lat="43.56335" lon="-0.94443">
        <ele>89</ele>
        <time>2021-05-08T09:05:49Z</time>
      </trkpt>
      <trkpt lat="43.56337" lon="-0.94442">
        <ele>89</ele>
        <time>2021-05-08T09:05:50Z</time>
      </trkpt>
      <trkpt lat="43.56338" lon="-0.94441">
        <ele>89</ele>
        <time>2021-05-08T09:05:51Z</time>
      </trkpt>
      <trkpt lat="43.5634" lon="-0.9444">
        <ele>90</ele>
        <time>2021-05-08T09:05:52Z</time>
      </trkpt>
      <trkpt lat="43.56341" lon="-0.94438">
        <ele>90</ele>
        <time>2021-05-08T09:05:53Z</time>
      </trkpt>
      <trkpt lat="43.56342" lon="-0.94437">
        <ele>90</ele>
        <time>2021-05-08T09:05:54Z</time>
      </trkpt>
      <trkpt lat="43.56344" lon="-0.94436">
        <ele>91</ele>
        <time>2021-05-08T09:05:55Z</time>
      </trkpt>
      <trkpt lat="43.56345" lon="-0.94434">
        <ele>91</ele>
        <time>2021-05-08T09:05:56Z</time>
      </trkpt>
      <trkpt lat="43.56346" lon="-0.94433">
        <ele>92</ele>
        <time>2021-05-08T09:05:57Z</time>
      </trkpt>
      <trkpt lat="43.56348" lon="-0.94432">
        <ele>92</ele>
        <time>2021-05-08T09:05:58Z</time>
      </trkpt>
      <trkpt lat="43.56349" lon="-0.9443">
        <ele>92</ele>
        <time>2021-05-08T09:05:59Z</time>
      </trkpt>
      <trkpt lat="43.5635" lon="-0.94429">
        <ele>92</ele>
        <time>2021-05-08T09:06:00Z</time>
      </trkpt>
      <trkpt lat="43.56352" lon="-0.94428">
        <ele>92</ele>
        <time>2021-05-08T09:06:01Z</time>
      </trkpt>
      <trkpt lat="43.56353" lon="-0.94427">
        <ele>93</ele>
        <time>2021-05-08T09:06:02Z</time>
      </trkpt>
      <trkpt lat="43.56355" lon="-0.94425">
        <ele>93</ele>
        <time>2021-05-08T09:06:03Z</time>
      </trkpt>
      <trkpt lat="43.56356" lon="-0.94424">
        <ele>93</ele>
        <time>2021-05-08T09:06:04Z</time>
      </trkpt>
      <trkpt lat="43.56358" lon="-0.94422">
        <ele>93</ele>
        <time>2021-05-08T09:06:05Z</time>
      </trkpt>
      <trkpt lat="43.56359" lon="-0.94421">
        <ele>93</ele>
        <time>2021-05-08T09:06:06Z</time>
      </trkpt>
      <trkpt lat="43.56361" lon="-0.94419">
        <ele>94</ele>
        <time>2021-05-08T09:06:07Z</time>
      </trkpt>
      <trkpt lat="43.56362" lon="-0.94418">
        <ele>94</ele>
        <time>2021-05-08T09:06:08Z</time>
      </trkpt>
      <trkpt lat="43.56363" lon="-0.94417">
        <ele>94</ele>
        <time>2021-05-08T09:06:09Z</time>
      </trkpt>
      <trkpt lat="43.56365" lon="-0.94416">
        <ele>94</ele>
        <time>2021-05-08T09:06:10Z</time>
      </trkpt>
      <trkpt lat="43.56366" lon="-0.94414">
        <ele>94</ele>
        <time>2021-05-08T09:06:11Z</time>
      </trkpt>
      <trkpt lat="43.56367" lon="-0.94413">
        <ele>95</ele>
        <time>2021-05-08T09:06:12Z</time>
      </trkpt>
      <trkpt lat="43.56369" lon="-0.94412">
        <ele>95</ele>
        <time>2021-05-08T09:06:13Z</time>
      </trkpt>
      <trkpt lat="43.5637" lon="-0.94411">
        <ele>95</ele>
        <time>2021-05-08T09:06:14Z</time>
      </trkpt>
      <trkpt lat="43.56372" lon="-0.9441">
        <ele>95</ele>
        <time>2021-05-08T09:06:15Z</time>
      </trkpt>
      <trkpt lat="43.56373" lon="-0.94409">
        <ele>95</ele>
        <time>2021-05-08T09:06:16Z</time>
      </trkpt>
      <trkpt lat="43.56375" lon="-0.94407">
        <ele>96</ele>
        <time>2021-05-08T09:06:17Z</time>
      </trkpt>
      <trkpt lat="43.56377" lon="-0.94406">
        <ele>96</ele>
        <time>2021-05-08T09:06:18Z</time>
      </trkpt>
      <trkpt lat="43.56378" lon="-0.94405">
        <ele>96</ele>
        <time>2021-05-08T09:06:19Z</time>
      </trkpt>
      <trkpt lat="43.5638" lon="-0.94403">
        <ele>96</ele>
        <time>2021-05-08T09:06:20Z</time>
      </trkpt>
      <trkpt lat="43.56381" lon="-0.94402">
        <ele>96</ele>
        <time>2021-05-08T09:06:21Z</time>
      </trkpt>
      <trkpt lat="43.56383" lon="-0.94401">
        <ele>97</ele>
        <time>2021-05-08T09:06:22Z</time>
      </trkpt>
      <trkpt lat="43.56384" lon="-0.94399">
        <ele>97</ele>
        <time>2021-05-08T09:06:23Z</time>
      </trkpt>
      <trkpt lat="43.56386" lon="-0.94398">
        <ele>97</ele>
        <time>2021-05-08T09:06:24Z</time>
      </trkpt>
      <trkpt lat="43.56388" lon="-0.94397">
        <ele>97</ele>
        <time>2021-05-08T09:06:25Z</time>
      </trkpt>
      <trkpt lat="43.56389" lon="-0.94395">
        <ele>97</ele>
        <time>2021-05-08T09:06:26Z</time>
      </trkpt>
      <trkpt lat="43.56391" lon="-0.94394">
        <ele>97</ele>
        <time>2021-05-08T09:06:27Z</time>
      </trkpt>
      <trkpt lat="43.56392" lon="-0.94393">
        <ele>97</ele>
        <time>2021-05-08T09:06:28Z</time>
      </trkpt>
      <trkpt lat="43.56394" lon="-0.94392">
        <ele>97</ele>
        <time>2021-05-08T09:06:29Z</time>
      </trkpt>
      <trkpt lat="43.56395" lon="-0.94391">
        <ele>97</ele>
        <time>2021-05-08T09:06:30Z</time>
      </trkpt>
      <trkpt lat="43.56397" lon="-0.9439">
        <ele>97</ele>
        <time>2021-05-08T09:06:31Z</time>
      </trkpt>
      <trkpt lat="43.56398" lon="-0.94389">
        <ele>98</ele>
        <time>2021-05-08T09:06:32Z</time>
      </trkpt>
      <trkpt lat="43.564" lon="-0.94388">
        <ele>98</ele>
        <time>2021-05-08T09:06:33Z</time>
      </trkpt>
      <trkpt lat="43.56402" lon="-0.94387">
        <ele>98</ele>
        <time>2021-05-08T09:06:34Z</time>
      </trkpt>
      <trkpt lat="43.56404" lon="-0.94386">
        <ele>98</ele>
        <time>2021-05-08T09:06:35Z</time>
      </trkpt>
      <trkpt lat="43.56406" lon="-0.94385">
        <ele>98</ele>
        <time>2021-05-08T09:06:36Z</time>
      </trkpt>
      <trkpt lat="43.56408" lon="-0.94384">
        <ele>98</ele>
        <time>2021-05-08T09:06:37Z</time>
      </trkpt>
      <trkpt lat="43.5641" lon="-0.94383">
        <ele>98</ele>
        <time>2021-05-08T09:06:38Z</time>
      </trkpt>
      <trkpt lat="43.56411" lon="-0.94382">
        <ele>98</ele>
        <time>2021-05-08T09:06:39Z</time>
      </trkpt>
      <trkpt lat="43.56413" lon="-0.9438">
        <ele>98</ele>
        <time>2021-05-08T09:06:40Z</time>
      </trkpt>
      <trkpt lat="43.56415" lon="-0.94378">
        <ele>98</ele>
        <time>2021-05-08T09:06:41Z</time>
      </trkpt>
      <trkpt lat="43.56416" lon="-0.94377">
        <ele>98</ele>
        <time>2021-05-08T09:06:42Z</time>
      </trkpt>
      <trkpt lat="43.56418" lon="-0.94375">
        <ele>98</ele>
        <time>2021-05-08T09:06:43Z</time>
      </trkpt>
      <trkpt lat="43.56419" lon="-0.94374">
        <ele>98</ele>
        <time>2021-05-08T09:06:44Z</time>
      </trkpt>
      <trkpt lat="43.5642" lon="-0.94372">
        <ele>98</ele>
        <time>2021-05-08T09:06:45Z</time>
      </trkpt>
      <trkpt lat="43.56422" lon="-0.9437">
        <ele>98</ele>
        <time>2021-05-08T09:06:46Z</time>
      </trkpt>
      <trkpt lat="43.56424" lon="-0.94369">
        <ele>99</ele>
        <time>2021-05-08T09:06:47Z</time>
      </trkpt>
      <trkpt lat="43.56425" lon="-0.94368">
        <ele>99</ele>
        <time>2021-05-08T09:06:48Z</time>
      </trkpt>
      <trkpt lat="43.56427" lon="-0.94366">
        <ele>99</ele>
        <time>2021-05-08T09:06:49Z</time>
      </trkpt>
      <trkpt lat="43.56429" lon="-0.94364">
        <ele>99</ele>
        <time>2021-05-08T09:06:50Z</time>
      </trkpt>
      <trkpt lat="43.56431" lon="-0.94363">
        <ele>99</ele>
        <time>2021-05-08T09:06:51Z</time>
      </trkpt>
      <trkpt lat="43.56433" lon="-0.94361">
        <ele>99</ele>
        <time>2021-05-08T09:06:52Z</time>
      </trkpt>
      <trkpt lat="43.56435" lon="-0.94359">
        <ele>98</ele>
        <time>2021-05-08T09:06:53Z</time>
      </trkpt>
      <trkpt lat="43.56437" lon="-0.94357">
        <ele>98</ele>
        <time>2021-05-08T09:06:54Z</time>
      </trkpt>
      <trkpt lat="43.56438" lon="-0.94355">
        <ele>98</ele>
        <time>2021-05-08T09:06:55Z</time>
      </trkpt>
      <trkpt lat="43.5644" lon="-0.94352">
        <ele>98</ele>
        <time>2021-05-08T09:06:56Z</time>
      </trkpt>
      <trkpt lat="43.56442" lon="-0.9435">
        <ele>98</ele>
        <time>2021-05-08T09:06:57Z</time>
      </trkpt>
      <trkpt lat="43.56444" lon="-0.94348">
        <ele>97</ele>
        <time>2021-05-08T09:06:58Z</time>
      </trkpt>
      <trkpt lat="43.56446" lon="-0.94346">
        <ele>97</ele>
        <time>2021-05-08T09:06:59Z</time>
      </trkpt>
      <trkpt lat="43.56448" lon="-0.94344">
        <ele>97</ele>
        <time>2021-05-08T09:07:00Z</time>
      </trkpt>
      <trkpt lat="43.5645" lon="-0.94342">
        <ele>97</ele>
        <time>2021-05-08T09:07:01Z</time>
      </trkpt>
      <trkpt lat="43.56452" lon="-0.94341">
        <ele>97</ele>
        <time>2021-05-08T09:07:02Z</time>
      </trkpt>
      <trkpt lat="43.56454" lon="-0.9434">
        <ele>97</ele>
        <time>2021-05-08T09:07:03Z</time>
      </trkpt>
      <trkpt lat="43.56456" lon="-0.94339">
        <ele>97</ele>
        <time>2021-05-08T09:07:04Z</time>
      </trkpt>
      <trkpt lat="43.56458" lon="-0.94339">
        <ele>97</ele>
        <time>2021-05-08T09:07:05Z</time>
      </trkpt>
      <trkpt lat="43.5646" lon="-0.94339">
        <ele>97</ele>
        <time>2021-05-08T09:07:06Z</time>
      </trkpt>
      <trkpt lat="43.56461" lon="-0.94338">
        <ele>97</ele>
        <time>2021-05-08T09:07:07Z</time>
      </trkpt>
      <trkpt lat="43.56463" lon="-0.94338">
        <ele>96</ele>
        <time>2021-05-08T09:07:08Z</time>
      </trkpt>
      <trkpt lat="43.56465" lon="-0.94337">
        <ele>96</ele>
        <time>2021-05-08T09:07:09Z</time>
      </trkpt>
      <trkpt lat="43.56466" lon="-0.94335">
        <ele>96</ele>
        <time>2021-05-08T09:07:10Z</time>
      </trkpt>
      <trkpt lat="43.56468" lon="-0.94334">
        <ele>96</ele>
        <time>2021-05-08T09:07:11Z</time>
      </trkpt>
      <trkpt lat="43.56469" lon="-0.94332">
        <ele>96</ele>
        <time>2021-05-08T09:07:12Z</time>
      </trkpt>
      <trkpt lat="43.56471" lon="-0.9433">
        <ele>95</ele>
        <time>2021-05-08T09:07:13Z</time>
      </trkpt>
      <trkpt lat="43.56473" lon="-0.94328">
        <ele>95</ele>
        <time>2021-05-08T09:07:14Z</time>
      </trkpt>
      <trkpt lat="43.56475" lon="-0.94325">
        <ele>95</ele>
        <time>2021-05-08T09:07:15Z</time>
      </trkpt>
      <trkpt lat="43.56477" lon="-0.94323">
        <ele>95</ele>
        <time>2021-05-08T09:07:16Z</time>
      </trkpt>
      <trkpt lat="43.56479" lon="-0.9432">
        <ele>95</ele>
        <time>2021-05-08T09:07:17Z</time>
      </trkpt>
      <trkpt lat="43.56481" lon="-0.94318">
        <ele>94</ele>
        <time>2021-05-08T09:07:18Z</time>
      </trkpt>
      <trkpt lat="43.56483" lon="-0.94316">
        <ele>94</ele>
        <time>2021-05-08T09:07:19Z</time>
      </trkpt>
      <trkpt lat="43.56485" lon="-0.94313">
        <ele>93</ele>
        <time>2021-05-08T09:07:20Z</time>
      </trkpt>
      <trkpt lat="43.56487" lon="-0.94311">
        <ele>93</ele>
        <time>2021-05-08T09:07:21Z</time>
      </trkpt>
      <trkpt lat="43.56489" lon="-0.94309">
        <ele>93</ele>
        <time>2021-05-08T09:07:22Z</time>
      </trkpt>
      <trkpt lat="43.56491" lon="-0.94307">
        <ele>92</ele>
        <time>2021-05-08T09:07:23Z</time>
      </trkpt>
      <trkpt lat="43.56493" lon="-0.94305">
        <ele>92</ele>
        <time>2021-05-08T09:07:24Z</time>
      </trkpt>
      <trkpt lat="43.56495" lon="-0.94303">
        <ele>92</ele>
        <time>2021-05-08T09:07:25Z</time>
      </trkpt>
      <trkpt lat="43.56497" lon="-0.94301">
        <ele>92</ele>
        <time>2021-05-08T09:07:26Z</time>
      </trkpt>
      <trkpt lat="43.56499" lon="-0.94298">
        <ele>92</ele>
        <time>2021-05-08T09:07:27Z</time>
      </trkpt>
      <trkpt lat="43.56501" lon="-0.94296">
        <ele>91</ele>
        <time>2021-05-08T09:07:28Z</time>
      </trkpt>
      <trkpt lat="43.56502" lon="-0.94294">
        <ele>91</ele>
        <time>2021-05-08T09:07:29Z</time>
      </trkpt>
      <trkpt lat="43.56504" lon="-0.94292">
        <ele>91</ele>
        <time>2021-05-08T09:07:30Z</time>
      </trkpt>
      <trkpt lat="43.56506" lon="-0.9429">
        <ele>91</ele>
        <time>2021-05-08T09:07:31Z</time>
      </trkpt>
      <trkpt lat="43.56508" lon="-0.94288">
        <ele>91</ele>
        <time>2021-05-08T09:07:32Z</time>
      </trkpt>
      <trkpt lat="43.5651" lon="-0.94286">
        <ele>90</ele>
        <time>2021-05-08T09:07:33Z</time>
      </trkpt>
      <trkpt lat="43.56512" lon="-0.94284">
        <ele>90</ele>
        <time>2021-05-08T09:07:34Z</time>
      </trkpt>
      <trkpt lat="43.56514" lon="-0.94282">
        <ele>90</ele>
        <time>2021-05-08T09:07:35Z</time>
      </trkpt>
      <trkpt lat="43.56516" lon="-0.9428">
        <ele>90</ele>
        <time>2021-05-08T09:07:36Z</time>
      </trkpt>
      <trkpt lat="43.56517" lon="-0.94278">
        <ele>90</ele>
        <time>2021-05-08T09:07:37Z</time>
      </trkpt>
      <trkpt lat="43.56519" lon="-0.94276">
        <ele>89</ele>
        <time>2021-05-08T09:07:38Z</time>
      </trkpt>
      <trkpt lat="43.56521" lon="-0.94273">
        <ele>89</ele>
        <time>2021-05-08T09:07:39Z</time>
      </trkpt>
      <trkpt lat="43.56523" lon="-0.94271">
        <ele>88</ele>
        <time>2021-05-08T09:07:40Z</time>
      </trkpt>
      <trkpt lat="43.56525" lon="-0.9427">
        <ele>88</ele>
        <time>2021-05-08T09:07:41Z</time>
      </trkpt>
      <trkpt lat="43.56527" lon="-0.94268">
        <ele>88</ele>
        <time>2021-05-08T09:07:42Z</time>
      </trkpt>
      <trkpt lat="43.5653" lon="-0.94266">
        <ele>87</ele>
        <time>2021-05-08T09:07:43Z</time>
      </trkpt>
      <trkpt lat="43.56532" lon="-0.94264">
        <ele>87</ele>
        <time>2021-05-08T09:07:44Z</time>
      </trkpt>
      <trkpt lat="43.56534" lon="-0.94262">
        <ele>87</ele>
        <time>2021-05-08T09:07:45Z</time>
      </trkpt>
      <trkpt lat="43.56536" lon="-0.9426">
        <ele>87</ele>
        <time>2021-05-08T09:07:46Z</time>
      </trkpt>
      <trkpt lat="43.56538" lon="-0.94257">
        <ele>87</ele>
        <time>2021-05-08T09:07:47Z</time>
      </trkpt>
      <trkpt lat="43.5654" lon="-0.94254">
        <ele>87</ele>
        <time>2021-05-08T09:07:48Z</time>
      </trkpt>
      <trkpt lat="43.56542" lon="-0.94251">
        <ele>87</ele>
        <time>2021-05-08T09:07:49Z</time>
      </trkpt>
      <trkpt lat="43.56543" lon="-0.94249">
        <ele>87</ele>
        <time>2021-05-08T09:07:50Z</time>
      </trkpt>
      <trkpt lat="43.56544" lon="-0.94245">
        <ele>87</ele>
        <time>2021-05-08T09:07:51Z</time>
      </trkpt>
      <trkpt lat="43.56545" lon="-0.94242">
        <ele>87</ele>
        <time>2021-05-08T09:07:52Z</time>
      </trkpt>
      <trkpt lat="43.56546" lon="-0.94239">
        <ele>87</ele>
        <time>2021-05-08T09:07:53Z</time>
      </trkpt>
      <trkpt lat="43.56547" lon="-0.94236">
        <ele>87</ele>
        <time>2021-05-08T09:07:54Z</time>
      </trkpt>
      <trkpt lat="43.56548" lon="-0.94232">
        <ele>87</ele>
        <time>2021-05-08T09:07:55Z</time>
      </trkpt>
      <trkpt lat="43.56548" lon="-0.94229">
        <ele>87</ele>
        <time>2021-05-08T09:07:56Z</time>
      </trkpt>
      <trkpt lat="43.56549" lon="-0.94226">
        <ele>87</ele>
        <time>2021-05-08T09:07:57Z</time>
      </trkpt>
      <trkpt lat="43.5655" lon="-0.94223">
        <ele>87</ele>
        <time>2021-05-08T09:07:58Z</time>
      </trkpt>
      <trkpt lat="43.56551" lon="-0.9422">
        <ele>87</ele>
        <time>2021-05-08T09:07:59Z</time>
      </trkpt>
      <trkpt lat="43.56552" lon="-0.94216">
        <ele>87</ele>
        <time>2021-05-08T09:08:00Z</time>
      </trkpt>
      <trkpt lat="43.56553" lon="-0.94213">
        <ele>87</ele>
        <time>2021-05-08T09:08:01Z</time>
      </trkpt>
      <trkpt lat="43.56554" lon="-0.9421">
        <ele>87</ele>
        <time>2021-05-08T09:08:02Z</time>
      </trkpt>
      <trkpt lat="43.56555" lon="-0.94207">
        <ele>87</ele>
        <time>2021-05-08T09:08:03Z</time>
      </trkpt>
      <trkpt lat="43.56556" lon="-0.94204">
        <ele>87</ele>
        <time>2021-05-08T09:08:04Z</time>
      </trkpt>
      <trkpt lat="43.56557" lon="-0.94202">
        <ele>87</ele>
        <time>2021-05-08T09:08:05Z</time>
      </trkpt>
      <trkpt lat="43.56558" lon="-0.94199">
        <ele>87</ele>
        <time>2021-05-08T09:08:06Z</time>
      </trkpt>
      <trkpt lat="43.56559" lon="-0.94197">
        <ele>87</ele>
        <time>2021-05-08T09:08:07Z</time>
      </trkpt>
      <trkpt lat="43.56561" lon="-0.94194">
        <ele>87</ele>
        <time>2021-05-08T09:08:08Z</time>
      </trkpt>
      <trkpt lat="43.56562" lon="-0.94192">
        <ele>87</ele>
        <time>2021-05-08T09:08:09Z</time>
      </trkpt>
      <trkpt lat="43.56563" lon="-0.94189">
        <ele>87</ele>
        <time>2021-05-08T09:08:10Z</time>
      </trkpt>
      <trkpt lat="43.56565" lon="-0.94187">
        <ele>87</ele>
        <time>2021-05-08T09:08:11Z</time>
      </trkpt>
      <trkpt lat="43.56567" lon="-0.94185">
        <ele>87</ele>
        <time>2021-05-08T09:08:12Z</time>
      </trkpt>
      <trkpt lat="43.56568" lon="-0.94182">
        <ele>86</ele>
        <time>2021-05-08T09:08:13Z</time>
      </trkpt>
      <trkpt lat="43.5657" lon="-0.94179">
        <ele>86</ele>
        <time>2021-05-08T09:08:14Z</time>
      </trkpt>
      <trkpt lat="43.56571" lon="-0.94177">
        <ele>86</ele>
        <time>2021-05-08T09:08:15Z</time>
      </trkpt>
      <trkpt lat="43.56573" lon="-0.94174">
        <ele>86</ele>
        <time>2021-05-08T09:08:16Z</time>
      </trkpt>
      <trkpt lat="43.56574" lon="-0.94171">
        <ele>86</ele>
        <time>2021-05-08T09:08:17Z</time>
      </trkpt>
      <trkpt lat="43.56576" lon="-0.94168">
        <ele>86</ele>
        <time>2021-05-08T09:08:18Z</time>
      </trkpt>
      <trkpt lat="43.56577" lon="-0.94165">
        <ele>86</ele>
        <time>2021-05-08T09:08:19Z</time>
      </trkpt>
      <trkpt lat="43.56578" lon="-0.94162">
        <ele>86</ele>
        <time>2021-05-08T09:08:20Z</time>
      </trkpt>
      <trkpt lat="43.56579" lon="-0.94159">
        <ele>86</ele>
        <time>2021-05-08T09:08:21Z</time>
      </trkpt>
      <trkpt lat="43.5658" lon="-0.94156">
        <ele>86</ele>
        <time>2021-05-08T09:08:22Z</time>
      </trkpt>
      <trkpt lat="43.56582" lon="-0.94153">
        <ele>86</ele>
        <time>2021-05-08T09:08:23Z</time>
      </trkpt>
      <trkpt lat="43.56583" lon="-0.9415">
        <ele>86</ele>
        <time>2021-05-08T09:08:24Z</time>
      </trkpt>
      <trkpt lat="43.56584" lon="-0.94147">
        <ele>86</ele>
        <time>2021-05-08T09:08:25Z</time>
      </trkpt>
      <trkpt lat="43.56585" lon="-0.94144">
        <ele>86</ele>
        <time>2021-05-08T09:08:26Z</time>
      </trkpt>
      <trkpt lat="43.56586" lon="-0.94141">
        <ele>87</ele>
        <time>2021-05-08T09:08:27Z</time>
      </trkpt>
      <trkpt lat="43.56588" lon="-0.94138">
        <ele>87</ele>
        <time>2021-05-08T09:08:28Z</time>
      </trkpt>
      <trkpt lat="43.56589" lon="-0.94135">
        <ele>87</ele>
        <time>2021-05-08T09:08:29Z</time>
      </trkpt>
      <trkpt lat="43.5659" lon="-0.94132">
        <ele>87</ele>
        <time>2021-05-08T09:08:30Z</time>
      </trkpt>
      <trkpt lat="43.56591" lon="-0.94129">
        <ele>87</ele>
        <time>2021-05-08T09:08:31Z</time>
      </trkpt>
      <trkpt lat="43.56592" lon="-0.94126">
        <ele>88</ele>
        <time>2021-05-08T09:08:32Z</time>
      </trkpt>
      <trkpt lat="43.56593" lon="-0.94123">
        <ele>88</ele>
        <time>2021-05-08T09:08:33Z</time>
      </trkpt>
      <trkpt lat="43.56594" lon="-0.9412">
        <ele>88</ele>
        <time>2021-05-08T09:08:34Z</time>
      </trkpt>
      <trkpt lat="43.56595" lon="-0.94117">
        <ele>88</ele>
        <time>2021-05-08T09:08:35Z</time>
      </trkpt>
      <trkpt lat="43.56596" lon="-0.94114">
        <ele>88</ele>
        <time>2021-05-08T09:08:36Z</time>
      </trkpt>
      <trkpt lat="43.56598" lon="-0.94112">
        <ele>89</ele>
        <time>2021-05-08T09:08:37Z</time>
      </trkpt>
      <trkpt lat="43.56599" lon="-0.94109">
        <ele>89</ele>
        <time>2021-05-08T09:08:38Z</time>
      </trkpt>
      <trkpt lat="43.56601" lon="-0.94107">
        <ele>89</ele>
        <time>2021-05-08T09:08:39Z</time>
      </trkpt>
      <trkpt lat="43.56602" lon="-0.94104">
        <ele>89</ele>
        <time>2021-05-08T09:08:40Z</time>
      </trkpt>
      <trkpt lat="43.56604" lon="-0.94102">
        <ele>89</ele>
        <time>2021-05-08T09:08:41Z</time>
      </trkpt>
      <trkpt lat="43.56605" lon="-0.94099">
        <ele>89</ele>
        <time>2021-05-08T09:08:42Z</time>
      </trkpt>
      <trkpt lat="43.56607" lon="-0.94097">
        <ele>89</ele>
        <time>2021-05-08T09:08:43Z</time>
      </trkpt>
      <trkpt lat="43.56608" lon="-0.94094">
        <ele>89</ele>
        <time>2021-05-08T09:08:44Z</time>
      </trkpt>
      <trkpt lat="43.5661" lon="-0.94092">
        <ele>89</ele>
        <time>2021-05-08T09:08:45Z</time>
      </trkpt>
      <trkpt lat="43.56611" lon="-0.9409">
        <ele>89</ele>
        <time>2021-05-08T09:08:46Z</time>
      </trkpt>
      <trkpt lat="43.56613" lon="-0.94087">
        <ele>89</ele>
        <time>2021-05-08T09:08:47Z</time>
      </trkpt>
      <trkpt lat="43.56615" lon="-0.94085">
        <ele>89</ele>
        <time>2021-05-08T09:08:48Z</time>
      </trkpt>
      <trkpt lat="43.56616" lon="-0.94082">
        <ele>89</ele>
        <time>2021-05-08T09:08:49Z</time>
      </trkpt>
      <trkpt lat="43.56618" lon="-0.9408">
        <ele>89</ele>
        <time>2021-05-08T09:08:50Z</time>
      </trkpt>
      <trkpt lat="43.5662" lon="-0.94078">
        <ele>89</ele>
        <time>2021-05-08T09:08:51Z</time>
      </trkpt>
      <trkpt lat="43.56622" lon="-0.94075">
        <ele>89</ele>
        <time>2021-05-08T09:08:52Z</time>
      </trkpt>
      <trkpt lat="43.56623" lon="-0.94073">
        <ele>88</ele>
        <time>2021-05-08T09:08:53Z</time>
      </trkpt>
      <trkpt lat="43.56625" lon="-0.94071">
        <ele>88</ele>
        <time>2021-05-08T09:08:54Z</time>
      </trkpt>
      <trkpt lat="43.56627" lon="-0.94069">
        <ele>88</ele>
        <time>2021-05-08T09:08:55Z</time>
      </trkpt>
      <trkpt lat="43.56629" lon="-0.94068">
        <ele>88</ele>
        <time>2021-05-08T09:08:56Z</time>
      </trkpt>
      <trkpt lat="43.56631" lon="-0.94068">
        <ele>88</ele>
        <time>2021-05-08T09:08:57Z</time>
      </trkpt>
      <trkpt lat="43.56633" lon="-0.94069">
        <ele>88</ele>
        <time>2021-05-08T09:08:58Z</time>
      </trkpt>
      <trkpt lat="43.56635" lon="-0.9407">
        <ele>88</ele>
        <time>2021-05-08T09:08:59Z</time>
      </trkpt>
      <trkpt lat="43.56636" lon="-0.94072">
        <ele>88</ele>
        <time>2021-05-08T09:09:00Z</time>
      </trkpt>
      <trkpt lat="43.56637" lon="-0.94074">
        <ele>88</ele>
        <time>2021-05-08T09:09:01Z</time>
      </trkpt>
      <trkpt lat="43.56638" lon="-0.94077">
        <ele>88</ele>
        <time>2021-05-08T09:09:02Z</time>
      </trkpt>
      <trkpt lat="43.56639" lon="-0.94079">
        <ele>88</ele>
        <time>2021-05-08T09:09:03Z</time>
      </trkpt>
      <trkpt lat="43.5664" lon="-0.94081">
        <ele>88</ele>
        <time>2021-05-08T09:09:04Z</time>
      </trkpt>
      <trkpt lat="43.5664" lon="-0.94084">
        <ele>88</ele>
        <time>2021-05-08T09:09:05Z</time>
      </trkpt>
      <trkpt lat="43.56641" lon="-0.94086">
        <ele>88</ele>
        <time>2021-05-08T09:09:06Z</time>
      </trkpt>
      <trkpt lat="43.56641" lon="-0.94089">
        <ele>88</ele>
        <time>2021-05-08T09:09:07Z</time>
      </trkpt>
      <trkpt lat="43.56642" lon="-0.94091">
        <ele>88</ele>
        <time>2021-05-08T09:09:08Z</time>
      </trkpt>
      <trkpt lat="43.56642" lon="-0.94094">
        <ele>88</ele>
        <time>2021-05-08T09:09:09Z</time>
      </trkpt>
      <trkpt lat="43.56643" lon="-0.94097">
        <ele>88</ele>
        <time>2021-05-08T09:09:10Z</time>
      </trkpt>
      <trkpt lat="43.56643" lon="-0.94101">
        <ele>88</ele>
        <time>2021-05-08T09:09:11Z</time>
      </trkpt>
      <trkpt lat="43.56644" lon="-0.94104">
        <ele>88</ele>
        <time>2021-05-08T09:09:12Z</time>
      </trkpt>
      <trkpt lat="43.56645" lon="-0.94107">
        <ele>88</ele>
        <time>2021-05-08T09:09:13Z</time>
      </trkpt>
      <trkpt lat="43.56645" lon="-0.9411">
        <ele>88</ele>
        <time>2021-05-08T09:09:14Z</time>
      </trkpt>
      <trkpt lat="43.56646" lon="-0.94113">
        <ele>88</ele>
        <time>2021-05-08T09:09:15Z</time>
      </trkpt>
      <trkpt lat="43.56647" lon="-0.94116">
        <ele>88</ele>
        <time>2021-05-08T09:09:16Z</time>
      </trkpt>
      <trkpt lat="43.56648" lon="-0.94119">
        <ele>89</ele>
        <time>2021-05-08T09:09:17Z</time>
      </trkpt>
      <trkpt lat="43.5665" lon="-0.94121">
        <ele>89</ele>
        <time>2021-05-08T09:09:18Z</time>
      </trkpt>
      <trkpt lat="43.56651" lon="-0.94123">
        <ele>89</ele>
        <time>2021-05-08T09:09:19Z</time>
      </trkpt>
      <trkpt lat="43.56653" lon="-0.94125">
        <ele>89</ele>
        <time>2021-05-08T09:09:20Z</time>
      </trkpt>
      <trkpt lat="43.56655" lon="-0.94127">
        <ele>89</ele>
        <time>2021-05-08T09:09:21Z</time>
      </trkpt>
      <trkpt lat="43.56656" lon="-0.94128">
        <ele>90</ele>
        <time>2021-05-08T09:09:22Z</time>
      </trkpt>
      <trkpt lat="43.56658" lon="-0.94129">
        <ele>90</ele>
        <time>2021-05-08T09:09:23Z</time>
      </trkpt>
      <trkpt lat="43.5666" lon="-0.9413">
        <ele>90</ele>
        <time>2021-05-08T09:09:24Z</time>
      </trkpt>
      <trkpt lat="43.56662" lon="-0.94131">
        <ele>90</ele>
        <time>2021-05-08T09:09:25Z</time>
      </trkpt>
      <trkpt lat="43.56664" lon="-0.94132">
        <ele>90</ele>
        <time>2021-05-08T09:09:26Z</time>
      </trkpt>
      <trkpt lat="43.56666" lon="-0.94133">
        <ele>91</ele>
        <time>2021-05-08T09:09:27Z</time>
      </trkpt>
      <trkpt lat="43.56668" lon="-0.94134">
        <ele>91</ele>
        <time>2021-05-08T09:09:28Z</time>
      </trkpt>
      <trkpt lat="43.5667" lon="-0.94135">
        <ele>91</ele>
        <time>2021-05-08T09:09:29Z</time>
      </trkpt>
      <trkpt lat="43.56672" lon="-0.94136">
        <ele>91</ele>
        <time>2021-05-08T09:09:30Z</time>
      </trkpt>
      <trkpt lat="43.56673" lon="-0.94137">
        <ele>91</ele>
        <time>2021-05-08T09:09:31Z</time>
      </trkpt>
      <trkpt lat="43.56675" lon="-0.94138">
        <ele>91</ele>
        <time>2021-05-08T09:09:32Z</time>
      </trkpt>
      <trkpt lat="43.56677" lon="-0.94139">
        <ele>91</ele>
        <time>2021-05-08T09:09:33Z</time>
      </trkpt>
      <trkpt lat="43.56679" lon="-0.9414">
        <ele>91</ele>
        <time>2021-05-08T09:09:34Z</time>
      </trkpt>
      <trkpt lat="43.56681" lon="-0.94141">
        <ele>91</ele>
        <time>2021-05-08T09:09:35Z</time>
      </trkpt>
      <trkpt lat="43.56682" lon="-0.94141">
        <ele>91</ele>
        <time>2021-05-08T09:09:36Z</time>
      </trkpt>
      <trkpt lat="43.56684" lon="-0.94142">
        <ele>92</ele>
        <time>2021-05-08T09:09:37Z</time>
      </trkpt>
      <trkpt lat="43.56686" lon="-0.94143">
        <ele>92</ele>
        <time>2021-05-08T09:09:38Z</time>
      </trkpt>
      <trkpt lat="43.56688" lon="-0.94144">
        <ele>92</ele>
        <time>2021-05-08T09:09:39Z</time>
      </trkpt>
      <trkpt lat="43.56689" lon="-0.94145">
        <ele>92</ele>
        <time>2021-05-08T09:09:40Z</time>
      </trkpt>
      <trkpt lat="43.56691" lon="-0.94145">
        <ele>92</ele>
        <time>2021-05-08T09:09:41Z</time>
      </trkpt>
      <trkpt lat="43.56693" lon="-0.94146">
        <ele>93</ele>
        <time>2021-05-08T09:09:42Z</time>
      </trkpt>
      <trkpt lat="43.56695" lon="-0.94147">
        <ele>93</ele>
        <time>2021-05-08T09:09:43Z</time>
      </trkpt>
      <trkpt lat="43.56697" lon="-0.94147">
        <ele>93</ele>
        <time>2021-05-08T09:09:44Z</time>
      </trkpt>
      <trkpt lat="43.56698" lon="-0.94148">
        <ele>94</ele>
        <time>2021-05-08T09:09:45Z</time>
      </trkpt>
      <trkpt lat="43.567" lon="-0.94149">
        <ele>94</ele>
        <time>2021-05-08T09:09:46Z</time>
      </trkpt>
      <trkpt lat="43.56702" lon="-0.94149">
        <ele>95</ele>
        <time>2021-05-08T09:09:47Z</time>
      </trkpt>
      <trkpt lat="43.56704" lon="-0.9415">
        <ele>95</ele>
        <time>2021-05-08T09:09:48Z</time>
      </trkpt>
      <trkpt lat="43.56706" lon="-0.94151">
        <ele>95</ele>
        <time>2021-05-08T09:09:49Z</time>
      </trkpt>
      <trkpt lat="43.56707" lon="-0.94152">
        <ele>95</ele>
        <time>2021-05-08T09:09:50Z</time>
      </trkpt>
      <trkpt lat="43.56709" lon="-0.94152">
        <ele>95</ele>
        <time>2021-05-08T09:09:51Z</time>
      </trkpt>
      <trkpt lat="43.56711" lon="-0.94153">
        <ele>96</ele>
        <time>2021-05-08T09:09:52Z</time>
      </trkpt>
      <trkpt lat="43.56713" lon="-0.94154">
        <ele>96</ele>
        <time>2021-05-08T09:09:53Z</time>
      </trkpt>
      <trkpt lat="43.56714" lon="-0.94154">
        <ele>96</ele>
        <time>2021-05-08T09:09:54Z</time>
      </trkpt>
      <trkpt lat="43.56716" lon="-0.94155">
        <ele>96</ele>
        <time>2021-05-08T09:09:55Z</time>
      </trkpt>
      <trkpt lat="43.56718" lon="-0.94156">
        <ele>96</ele>
        <time>2021-05-08T09:09:56Z</time>
      </trkpt>
      <trkpt lat="43.5672" lon="-0.94156">
        <ele>97</ele>
        <time>2021-05-08T09:09:57Z</time>
      </trkpt>
      <trkpt lat="43.56721" lon="-0.94157">
        <ele>97</ele>
        <time>2021-05-08T09:09:58Z</time>
      </trkpt>
      <trkpt lat="43.56723" lon="-0.94157">
        <ele>97</ele>
        <time>2021-05-08T09:09:59Z</time>
      </trkpt>
      <trkpt lat="43.56725" lon="-0.94158">
        <ele>97</ele>
        <time>2021-05-08T09:10:00Z</time>
      </trkpt>
      <trkpt lat="43.56726" lon="-0.94159">
        <ele>97</ele>
        <time>2021-05-08T09:10:01Z</time>
      </trkpt>
      <trkpt lat="43.56728" lon="-0.94159">
        <ele>98</ele>
        <time>2021-05-08T09:10:02Z</time>
      </trkpt>
      <trkpt lat="43.5673" lon="-0.9416">
        <ele>98</ele>
        <time>2021-05-08T09:10:03Z</time>
      </trkpt>
      <trkpt lat="43.56732" lon="-0.9416">
        <ele>98</ele>
        <time>2021-05-08T09:10:04Z</time>
      </trkpt>
      <trkpt lat="43.56734" lon="-0.94161">
        <ele>98</ele>
        <time>2021-05-08T09:10:05Z</time>
      </trkpt>
      <trkpt lat="43.56735" lon="-0.94162">
        <ele>98</ele>
        <time>2021-05-08T09:10:06Z</time>
      </trkpt>
      <trkpt lat="43.56737" lon="-0.94162">
        <ele>99</ele>
        <time>2021-05-08T09:10:07Z</time>
      </trkpt>
      <trkpt lat="43.56739" lon="-0.94163">
        <ele>99</ele>
        <time>2021-05-08T09:10:08Z</time>
      </trkpt>
      <trkpt lat="43.56741" lon="-0.94163">
        <ele>99</ele>
        <time>2021-05-08T09:10:09Z</time>
      </trkpt>
      <trkpt lat="43.56743" lon="-0.94163">
        <ele>99</ele>
        <time>2021-05-08T09:10:10Z</time>
      </trkpt>
      <trkpt lat="43.56744" lon="-0.94163">
        <ele>99</ele>
        <time>2021-05-08T09:10:11Z</time>
      </trkpt>
      <trkpt lat="43.56746" lon="-0.94163">
        <ele>99</ele>
        <time>2021-05-08T09:10:12Z</time>
      </trkpt>
      <trkpt lat="43.56748" lon="-0.94163">
        <ele>99</ele>
        <time>2021-05-08T09:10:13Z</time>
      </trkpt>
      <trkpt lat="43.5675" lon="-0.94163">
        <ele>99</ele>
        <time>2021-05-08T09:10:14Z</time>
      </trkpt>
      <trkpt lat="43.56752" lon="-0.94162">
        <ele>99</ele>
        <time>2021-05-08T09:10:15Z</time>
      </trkpt>
      <trkpt lat="43.56754" lon="-0.94162">
        <ele>99</ele>
        <time>2021-05-08T09:10:16Z</time>
      </trkpt>
      <trkpt lat="43.56756" lon="-0.94161">
        <ele>100</ele>
        <time>2021-05-08T09:10:17Z</time>
      </trkpt>
      <trkpt lat="43.56758" lon="-0.94161">
        <ele>100</ele>
        <time>2021-05-08T09:10:18Z</time>
      </trkpt>
      <trkpt lat="43.5676" lon="-0.94161">
        <ele>100</ele>
        <time>2021-05-08T09:10:19Z</time>
      </trkpt>
      <trkpt lat="43.56762" lon="-0.9416">
        <ele>100</ele>
        <time>2021-05-08T09:10:20Z</time>
      </trkpt>
      <trkpt lat="43.56763" lon="-0.9416">
        <ele>100</ele>
        <time>2021-05-08T09:10:21Z</time>
      </trkpt>
      <trkpt lat="43.56765" lon="-0.9416">
        <ele>101</ele>
        <time>2021-05-08T09:10:22Z</time>
      </trkpt>
      <trkpt lat="43.56767" lon="-0.94161">
        <ele>101</ele>
        <time>2021-05-08T09:10:23Z</time>
      </trkpt>
      <trkpt lat="43.56769" lon="-0.94161">
        <ele>101</ele>
        <time>2021-05-08T09:10:24Z</time>
      </trkpt>
      <trkpt lat="43.5677" lon="-0.94161">
        <ele>101</ele>
        <time>2021-05-08T09:10:25Z</time>
      </trkpt>
      <trkpt lat="43.56772" lon="-0.94161">
        <ele>101</ele>
        <time>2021-05-08T09:10:26Z</time>
      </trkpt>
      <trkpt lat="43.56774" lon="-0.94162">
        <ele>102</ele>
        <time>2021-05-08T09:10:27Z</time>
      </trkpt>
      <trkpt lat="43.56776" lon="-0.94162">
        <ele>102</ele>
        <time>2021-05-08T09:10:28Z</time>
      </trkpt>
      <trkpt lat="43.56778" lon="-0.94163">
        <ele>102</ele>
        <time>2021-05-08T09:10:29Z</time>
      </trkpt>
      <trkpt lat="43.5678" lon="-0.94163">
        <ele>102</ele>
        <time>2021-05-08T09:10:30Z</time>
      </trkpt>
      <trkpt lat="43.56782" lon="-0.94163">
        <ele>102</ele>
        <time>2021-05-08T09:10:31Z</time>
      </trkpt>
      <trkpt lat="43.56784" lon="-0.94163">
        <ele>102</ele>
        <time>2021-05-08T09:10:32Z</time>
      </trkpt>
      <trkpt lat="43.56786" lon="-0.94161">
        <ele>102</ele>
        <time>2021-05-08T09:10:33Z</time>
      </trkpt>
      <trkpt lat="43.56788" lon="-0.9416">
        <ele>102</ele>
        <time>2021-05-08T09:10:34Z</time>
      </trkpt>
      <trkpt lat="43.56789" lon="-0.94158">
        <ele>102</ele>
        <time>2021-05-08T09:10:35Z</time>
      </trkpt>
      <trkpt lat="43.5679" lon="-0.94156">
        <ele>102</ele>
        <time>2021-05-08T09:10:36Z</time>
      </trkpt>
      <trkpt lat="43.56791" lon="-0.94153">
        <ele>103</ele>
        <time>2021-05-08T09:10:37Z</time>
      </trkpt>
      <trkpt lat="43.56792" lon="-0.9415">
        <ele>103</ele>
        <time>2021-05-08T09:10:38Z</time>
      </trkpt>
      <trkpt lat="43.56793" lon="-0.94147">
        <ele>103</ele>
        <time>2021-05-08T09:10:39Z</time>
      </trkpt>
      <trkpt lat="43.56793" lon="-0.94144">
        <ele>103</ele>
        <time>2021-05-08T09:10:40Z</time>
      </trkpt>
      <trkpt lat="43.56794" lon="-0.94141">
        <ele>103</ele>
        <time>2021-05-08T09:10:41Z</time>
      </trkpt>
      <trkpt lat="43.56794" lon="-0.94138">
        <ele>104</ele>
        <time>2021-05-08T09:10:42Z</time>
      </trkpt>
      <trkpt lat="43.56795" lon="-0.94135">
        <ele>104</ele>
        <time>2021-05-08T09:10:43Z</time>
      </trkpt>
      <trkpt lat="43.56796" lon="-0.94132">
        <ele>104</ele>
        <time>2021-05-08T09:10:44Z</time>
      </trkpt>
      <trkpt lat="43.56796" lon="-0.9413">
        <ele>104</ele>
        <time>2021-05-08T09:10:45Z</time>
      </trkpt>
      <trkpt lat="43.56797" lon="-0.94127">
        <ele>104</ele>
        <time>2021-05-08T09:10:46Z</time>
      </trkpt>
      <trkpt lat="43.56799" lon="-0.94125">
        <ele>105</ele>
        <time>2021-05-08T09:10:47Z</time>
      </trkpt>
      <trkpt lat="43.568" lon="-0.94123">
        <ele>105</ele>
        <time>2021-05-08T09:10:48Z</time>
      </trkpt>
      <trkpt lat="43.56801" lon="-0.94122">
        <ele>105</ele>
        <time>2021-05-08T09:10:49Z</time>
      </trkpt>
      <trkpt lat="43.56802" lon="-0.94121">
        <ele>105</ele>
        <time>2021-05-08T09:10:50Z</time>
      </trkpt>
      <trkpt lat="43.56804" lon="-0.94123">
        <ele>105</ele>
        <time>2021-05-08T09:10:51Z</time>
      </trkpt>
      <trkpt lat="43.56805" lon="-0.94124">
        <ele>105</ele>
        <time>2021-05-08T09:10:52Z</time>
      </trkpt>
      <trkpt lat="43.56806" lon="-0.94126">
        <ele>105</ele>
        <time>2021-05-08T09:10:53Z</time>
      </trkpt>
      <trkpt lat="43.56808" lon="-0.94129">
        <ele>105</ele>
        <time>2021-05-08T09:10:54Z</time>
      </trkpt>
      <trkpt lat="43.56809" lon="-0.94132">
        <ele>105</ele>
        <time>2021-05-08T09:10:55Z</time>
      </trkpt>
      <trkpt lat="43.5681" lon="-0.94135">
        <ele>105</ele>
        <time>2021-05-08T09:10:56Z</time>
      </trkpt>
      <trkpt lat="43.56811" lon="-0.94138">
        <ele>105</ele>
        <time>2021-05-08T09:10:57Z</time>
      </trkpt>
      <trkpt lat="43.56812" lon="-0.94141">
        <ele>104</ele>
        <time>2021-05-08T09:10:58Z</time>
      </trkpt>
      <trkpt lat="43.56814" lon="-0.94145">
        <ele>104</ele>
        <time>2021-05-08T09:10:59Z</time>
      </trkpt>
      <trkpt lat="43.56815" lon="-0.94148">
        <ele>104</ele>
        <time>2021-05-08T09:11:00Z</time>
      </trkpt>
      <trkpt lat="43.56816" lon="-0.94151">
        <ele>104</ele>
        <time>2021-05-08T09:11:01Z</time>
      </trkpt>
      <trkpt lat="43.56817" lon="-0.94154">
        <ele>104</ele>
        <time>2021-05-08T09:11:02Z</time>
      </trkpt>
      <trkpt lat="43.56818" lon="-0.94157">
        <ele>104</ele>
        <time>2021-05-08T09:11:03Z</time>
      </trkpt>
      <trkpt lat="43.56819" lon="-0.9416">
        <ele>104</ele>
        <time>2021-05-08T09:11:04Z</time>
      </trkpt>
      <trkpt lat="43.5682" lon="-0.94163">
        <ele>104</ele>
        <time>2021-05-08T09:11:05Z</time>
      </trkpt>
      <trkpt lat="43.56822" lon="-0.94166">
        <ele>104</ele>
        <time>2021-05-08T09:11:06Z</time>
      </trkpt>
      <trkpt lat="43.56823" lon="-0.9417">
        <ele>104</ele>
        <time>2021-05-08T09:11:07Z</time>
      </trkpt>
      <trkpt lat="43.56824" lon="-0.94173">
        <ele>104</ele>
        <time>2021-05-08T09:11:08Z</time>
      </trkpt>
      <trkpt lat="43.56825" lon="-0.94176">
        <ele>104</ele>
        <time>2021-05-08T09:11:09Z</time>
      </trkpt>
      <trkpt lat="43.56825" lon="-0.94179">
        <ele>104</ele>
        <time>2021-05-08T09:11:10Z</time>
      </trkpt>
      <trkpt lat="43.56826" lon="-0.94183">
        <ele>104</ele>
        <time>2021-05-08T09:11:11Z</time>
      </trkpt>
      <trkpt lat="43.56827" lon="-0.94186">
        <ele>104</ele>
        <time>2021-05-08T09:11:12Z</time>
      </trkpt>
      <trkpt lat="43.56828" lon="-0.9419">
        <ele>103</ele>
        <time>2021-05-08T09:11:13Z</time>
      </trkpt>
      <trkpt lat="43.56829" lon="-0.94193">
        <ele>103</ele>
        <time>2021-05-08T09:11:14Z</time>
      </trkpt>
      <trkpt lat="43.5683" lon="-0.94197">
        <ele>103</ele>
        <time>2021-05-08T09:11:15Z</time>
      </trkpt>
      <trkpt lat="43.56831" lon="-0.94201">
        <ele>103</ele>
        <time>2021-05-08T09:11:16Z</time>
      </trkpt>
      <trkpt lat="43.56832" lon="-0.94204">
        <ele>103</ele>
        <time>2021-05-08T09:11:17Z</time>
      </trkpt>
      <trkpt lat="43.56833" lon="-0.94207">
        <ele>102</ele>
        <time>2021-05-08T09:11:18Z</time>
      </trkpt>
      <trkpt lat="43.56834" lon="-0.94211">
        <ele>102</ele>
        <time>2021-05-08T09:11:19Z</time>
      </trkpt>
      <trkpt lat="43.56835" lon="-0.94214">
        <ele>102</ele>
        <time>2021-05-08T09:11:20Z</time>
      </trkpt>
      <trkpt lat="43.56835" lon="-0.94217">
        <ele>102</ele>
        <time>2021-05-08T09:11:21Z</time>
      </trkpt>
      <trkpt lat="43.56836" lon="-0.94221">
        <ele>102</ele>
        <time>2021-05-08T09:11:22Z</time>
      </trkpt>
      <trkpt lat="43.56837" lon="-0.94224">
        <ele>102</ele>
        <time>2021-05-08T09:11:23Z</time>
      </trkpt>
      <trkpt lat="43.56838" lon="-0.94228">
        <ele>102</ele>
        <time>2021-05-08T09:11:24Z</time>
      </trkpt>
      <trkpt lat="43.56838" lon="-0.94232">
        <ele>102</ele>
        <time>2021-05-08T09:11:25Z</time>
      </trkpt>
      <trkpt lat="43.56839" lon="-0.94235">
        <ele>102</ele>
        <time>2021-05-08T09:11:26Z</time>
      </trkpt>
      <trkpt lat="43.5684" lon="-0.94239">
        <ele>102</ele>
        <time>2021-05-08T09:11:27Z</time>
      </trkpt>
      <trkpt lat="43.56841" lon="-0.94243">
        <ele>101</ele>
        <time>2021-05-08T09:11:28Z</time>
      </trkpt>
      <trkpt lat="43.56841" lon="-0.94246">
        <ele>101</ele>
        <time>2021-05-08T09:11:29Z</time>
      </trkpt>
      <trkpt lat="43.56842" lon="-0.9425">
        <ele>101</ele>
        <time>2021-05-08T09:11:30Z</time>
      </trkpt>
      <trkpt lat="43.56843" lon="-0.94253">
        <ele>101</ele>
        <time>2021-05-08T09:11:31Z</time>
      </trkpt>
      <trkpt lat="43.56844" lon="-0.94257">
        <ele>101</ele>
        <time>2021-05-08T09:11:32Z</time>
      </trkpt>
      <trkpt lat="43.56845" lon="-0.94261">
        <ele>101</ele>
        <time>2021-05-08T09:11:33Z</time>
      </trkpt>
      <trkpt lat="43.56846" lon="-0.94264">
        <ele>101</ele>
        <time>2021-05-08T09:11:34Z</time>
      </trkpt>
      <trkpt lat="43.56847" lon="-0.94268">
        <ele>101</ele>
        <time>2021-05-08T09:11:35Z</time>
      </trkpt>
      <trkpt lat="43.56847" lon="-0.94271">
        <ele>101</ele>
        <time>2021-05-08T09:11:36Z</time>
      </trkpt>
      <trkpt lat="43.56848" lon="-0.94275">
        <ele>102</ele>
        <time>2021-05-08T09:11:37Z</time>
      </trkpt>
      <trkpt lat="43.56849" lon="-0.94279">
        <ele>102</ele>
        <time>2021-05-08T09:11:38Z</time>
      </trkpt>
      <trkpt lat="43.56849" lon="-0.94282">
        <ele>102</ele>
        <time>2021-05-08T09:11:39Z</time>
      </trkpt>
      <trkpt lat="43.5685" lon="-0.94286">
        <ele>102</ele>
        <time>2021-05-08T09:11:40Z</time>
      </trkpt>
      <trkpt lat="43.5685" lon="-0.94289">
        <ele>102</ele>
        <time>2021-05-08T09:11:41Z</time>
      </trkpt>
      <trkpt lat="43.56851" lon="-0.94293">
        <ele>102</ele>
        <time>2021-05-08T09:11:42Z</time>
      </trkpt>
      <trkpt lat="43.56851" lon="-0.94296">
        <ele>102</ele>
        <time>2021-05-08T09:11:43Z</time>
      </trkpt>
      <trkpt lat="43.56852" lon="-0.94299">
        <ele>102</ele>
        <time>2021-05-08T09:11:44Z</time>
      </trkpt>
      <trkpt lat="43.56852" lon="-0.94303">
        <ele>102</ele>
        <time>2021-05-08T09:11:45Z</time>
      </trkpt>
      <trkpt lat="43.56852" lon="-0.94306">
        <ele>102</ele>
        <time>2021-05-08T09:11:46Z</time>
      </trkpt>
      <trkpt lat="43.56853" lon="-0.94309">
        <ele>102</ele>
        <time>2021-05-08T09:11:47Z</time>
      </trkpt>
      <trkpt lat="43.56853" lon="-0.94313">
        <ele>102</ele>
        <time>2021-05-08T09:11:48Z</time>
      </trkpt>
      <trkpt lat="43.56854" lon="-0.94316">
        <ele>102</ele>
        <time>2021-05-08T09:11:49Z</time>
      </trkpt>
      <trkpt lat="43.56854" lon="-0.94319">
        <ele>102</ele>
        <time>2021-05-08T09:11:50Z</time>
      </trkpt>
      <trkpt lat="43.56855" lon="-0.94322">
        <ele>102</ele>
        <time>2021-05-08T09:11:51Z</time>
      </trkpt>
      <trkpt lat="43.56855" lon="-0.94325">
        <ele>103</ele>
        <time>2021-05-08T09:11:52Z</time>
      </trkpt>
      <trkpt lat="43.56855" lon="-0.94328">
        <ele>103</ele>
        <time>2021-05-08T09:11:53Z</time>
      </trkpt>
      <trkpt lat="43.56856" lon="-0.94331">
        <ele>103</ele>
        <time>2021-05-08T09:11:54Z</time>
      </trkpt>
      <trkpt lat="43.56856" lon="-0.94334">
        <ele>103</ele>
        <time>2021-05-08T09:11:55Z</time>
      </trkpt>
      <trkpt lat="43.56856" lon="-0.94337">
        <ele>103</ele>
        <time>2021-05-08T09:11:56Z</time>
      </trkpt>
      <trkpt lat="43.56857" lon="-0.94341">
        <ele>103</ele>
        <time>2021-05-08T09:11:57Z</time>
      </trkpt>
      <trkpt lat="43.56857" lon="-0.94344">
        <ele>103</ele>
        <time>2021-05-08T09:11:58Z</time>
      </trkpt>
      <trkpt lat="43.56857" lon="-0.94347">
        <ele>103</ele>
        <time>2021-05-08T09:11:59Z</time>
      </trkpt>
      <trkpt lat="43.56857" lon="-0.9435">
        <ele>103</ele>
        <time>2021-05-08T09:12:00Z</time>
      </trkpt>
      <trkpt lat="43.56858" lon="-0.94354">
        <ele>103</ele>
        <time>2021-05-08T09:12:01Z</time>
      </trkpt>
      <trkpt lat="43.56858" lon="-0.94357">
        <ele>103</ele>
        <time>2021-05-08T09:12:02Z</time>
      </trkpt>
      <trkpt lat="43.56858" lon="-0.9436">
        <ele>102</ele>
        <time>2021-05-08T09:12:03Z</time>
      </trkpt>
      <trkpt lat="43.56859" lon="-0.94364">
        <ele>102</ele>
        <time>2021-05-08T09:12:04Z</time>
      </trkpt>
      <trkpt lat="43.56859" lon="-0.94367">
        <ele>102</ele>
        <time>2021-05-08T09:12:05Z</time>
      </trkpt>
      <trkpt lat="43.5686" lon="-0.9437">
        <ele>102</ele>
        <time>2021-05-08T09:12:06Z</time>
      </trkpt>
      <trkpt lat="43.5686" lon="-0.94374">
        <ele>102</ele>
        <time>2021-05-08T09:12:07Z</time>
      </trkpt>
      <trkpt lat="43.5686" lon="-0.94377">
        <ele>102</ele>
        <time>2021-05-08T09:12:08Z</time>
      </trkpt>
      <trkpt lat="43.56861" lon="-0.9438">
        <ele>102</ele>
        <time>2021-05-08T09:12:09Z</time>
      </trkpt>
      <trkpt lat="43.56861" lon="-0.94384">
        <ele>102</ele>
        <time>2021-05-08T09:12:10Z</time>
      </trkpt>
      <trkpt lat="43.56861" lon="-0.94387">
        <ele>102</ele>
        <time>2021-05-08T09:12:11Z</time>
      </trkpt>
      <trkpt lat="43.56862" lon="-0.9439">
        <ele>102</ele>
        <time>2021-05-08T09:12:12Z</time>
      </trkpt>
      <trkpt lat="43.56862" lon="-0.94394">
        <ele>102</ele>
        <time>2021-05-08T09:12:13Z</time>
      </trkpt>
      <trkpt lat="43.56862" lon="-0.94397">
        <ele>102</ele>
        <time>2021-05-08T09:12:14Z</time>
      </trkpt>
      <trkpt lat="43.56862" lon="-0.94401">
        <ele>102</ele>
        <time>2021-05-08T09:12:15Z</time>
      </trkpt>
      <trkpt lat="43.56863" lon="-0.94405">
        <ele>102</ele>
        <time>2021-05-08T09:12:16Z</time>
      </trkpt>
      <trkpt lat="43.56863" lon="-0.94408">
        <ele>102</ele>
        <time>2021-05-08T09:12:17Z</time>
      </trkpt>
      <trkpt lat="43.56864" lon="-0.94411">
        <ele>102</ele>
        <time>2021-05-08T09:12:18Z</time>
      </trkpt>
      <trkpt lat="43.56864" lon="-0.94415">
        <ele>102</ele>
        <time>2021-05-08T09:12:19Z</time>
      </trkpt>
      <trkpt lat="43.56865" lon="-0.94418">
        <ele>102</ele>
        <time>2021-05-08T09:12:20Z</time>
      </trkpt>
      <trkpt lat="43.56865" lon="-0.94422">
        <ele>102</ele>
        <time>2021-05-08T09:12:21Z</time>
      </trkpt>
      <trkpt lat="43.56866" lon="-0.94425">
        <ele>102</ele>
        <time>2021-05-08T09:12:22Z</time>
      </trkpt>
      <trkpt lat="43.56867" lon="-0.94428">
        <ele>102</ele>
        <time>2021-05-08T09:12:23Z</time>
      </trkpt>
      <trkpt lat="43.56867" lon="-0.94432">
        <ele>102</ele>
        <time>2021-05-08T09:12:24Z</time>
      </trkpt>
      <trkpt lat="43.56868" lon="-0.94435">
        <ele>102</ele>
        <time>2021-05-08T09:12:25Z</time>
      </trkpt>
      <trkpt lat="43.56868" lon="-0.94439">
        <ele>102</ele>
        <time>2021-05-08T09:12:26Z</time>
      </trkpt>
      <trkpt lat="43.56869" lon="-0.94442">
        <ele>102</ele>
        <time>2021-05-08T09:12:27Z</time>
      </trkpt>
      <trkpt lat="43.56869" lon="-0.94445">
        <ele>102</ele>
        <time>2021-05-08T09:12:28Z</time>
      </trkpt>
      <trkpt lat="43.5687" lon="-0.94448">
        <ele>102</ele>
        <time>2021-05-08T09:12:29Z</time>
      </trkpt>
      <trkpt lat="43.5687" lon="-0.94452">
        <ele>102</ele>
        <time>2021-05-08T09:12:30Z</time>
      </trkpt>
      <trkpt lat="43.56871" lon="-0.94455">
        <ele>102</ele>
        <time>2021-05-08T09:12:31Z</time>
      </trkpt>
      <trkpt lat="43.56872" lon="-0.94458">
        <ele>103</ele>
        <time>2021-05-08T09:12:32Z</time>
      </trkpt>
      <trkpt lat="43.56872" lon="-0.94461">
        <ele>103</ele>
        <time>2021-05-08T09:12:33Z</time>
      </trkpt>
      <trkpt lat="43.56873" lon="-0.94465">
        <ele>103</ele>
        <time>2021-05-08T09:12:34Z</time>
      </trkpt>
      <trkpt lat="43.56874" lon="-0.94468">
        <ele>103</ele>
        <time>2021-05-08T09:12:35Z</time>
      </trkpt>
      <trkpt lat="43.56875" lon="-0.94471">
        <ele>103</ele>
        <time>2021-05-08T09:12:36Z</time>
      </trkpt>
      <trkpt lat="43.56875" lon="-0.94474">
        <ele>103</ele>
        <time>2021-05-08T09:12:37Z</time>
      </trkpt>
      <trkpt lat="43.56876" lon="-0.94477">
        <ele>103</ele>
        <time>2021-05-08T09:12:38Z</time>
      </trkpt>
      <trkpt lat="43.56877" lon="-0.9448">
        <ele>103</ele>
        <time>2021-05-08T09:12:39Z</time>
      </trkpt>
      <trkpt lat="43.56878" lon="-0.94483">
        <ele>103</ele>
        <time>2021-05-08T09:12:40Z</time>
      </trkpt>
      <trkpt lat="43.56878" lon="-0.94486">
        <ele>103</ele>
        <time>2021-05-08T09:12:41Z</time>
      </trkpt>
      <trkpt lat="43.56879" lon="-0.94489">
        <ele>103</ele>
        <time>2021-05-08T09:12:42Z</time>
      </trkpt>
      <trkpt lat="43.56879" lon="-0.94492">
        <ele>102</ele>
        <time>2021-05-08T09:12:43Z</time>
      </trkpt>
      <trkpt lat="43.5688" lon="-0.94495">
        <ele>102</ele>
        <time>2021-05-08T09:12:44Z</time>
      </trkpt>
      <trkpt lat="43.56881" lon="-0.94498">
        <ele>102</ele>
        <time>2021-05-08T09:12:45Z</time>
      </trkpt>
      <trkpt lat="43.56881" lon="-0.94501">
        <ele>102</ele>
        <time>2021-05-08T09:12:46Z</time>
      </trkpt>
      <trkpt lat="43.56882" lon="-0.94505">
        <ele>102</ele>
        <time>2021-05-08T09:12:47Z</time>
      </trkpt>
      <trkpt lat="43.56882" lon="-0.94508">
        <ele>102</ele>
        <time>2021-05-08T09:12:48Z</time>
      </trkpt>
      <trkpt lat="43.56883" lon="-0.94511">
        <ele>102</ele>
        <time>2021-05-08T09:12:49Z</time>
      </trkpt>
      <trkpt lat="43.56883" lon="-0.94515">
        <ele>102</ele>
        <time>2021-05-08T09:12:50Z</time>
      </trkpt>
      <trkpt lat="43.56884" lon="-0.94518">
        <ele>102</ele>
        <time>2021-05-08T09:12:51Z</time>
      </trkpt>
      <trkpt lat="43.56884" lon="-0.94522">
        <ele>102</ele>
        <time>2021-05-08T09:12:52Z</time>
      </trkpt>
      <trkpt lat="43.56885" lon="-0.94525">
        <ele>101</ele>
        <time>2021-05-08T09:12:53Z</time>
      </trkpt>
      <trkpt lat="43.56886" lon="-0.94528">
        <ele>101</ele>
        <time>2021-05-08T09:12:54Z</time>
      </trkpt>
      <trkpt lat="43.56886" lon="-0.94532">
        <ele>101</ele>
        <time>2021-05-08T09:12:55Z</time>
      </trkpt>
      <trkpt lat="43.56887" lon="-0.94535">
        <ele>101</ele>
        <time>2021-05-08T09:12:56Z</time>
      </trkpt>
      <trkpt lat="43.56888" lon="-0.94539">
        <ele>101</ele>
        <time>2021-05-08T09:12:57Z</time>
      </trkpt>
      <trkpt lat="43.56888" lon="-0.94542">
        <ele>101</ele>
        <time>2021-05-08T09:12:58Z</time>
      </trkpt>
      <trkpt lat="43.56889" lon="-0.94546">
        <ele>101</ele>
        <time>2021-05-08T09:12:59Z</time>
      </trkpt>
      <trkpt lat="43.56889" lon="-0.94549">
        <ele>101</ele>
        <time>2021-05-08T09:13:00Z</time>
      </trkpt>
      <trkpt lat="43.5689" lon="-0.94553">
        <ele>101</ele>
        <time>2021-05-08T09:13:01Z</time>
      </trkpt>
      <trkpt lat="43.5689" lon="-0.94556">
        <ele>101</ele>
        <time>2021-05-08T09:13:02Z</time>
      </trkpt>
      <trkpt lat="43.56891" lon="-0.94559">
        <ele>100</ele>
        <time>2021-05-08T09:13:03Z</time>
      </trkpt>
      <trkpt lat="43.56891" lon="-0.94563">
        <ele>100</ele>
        <time>2021-05-08T09:13:04Z</time>
      </trkpt>
      <trkpt lat="43.56892" lon="-0.94566">
        <ele>100</ele>
        <time>2021-05-08T09:13:05Z</time>
      </trkpt>
      <trkpt lat="43.56892" lon="-0.9457">
        <ele>100</ele>
        <time>2021-05-08T09:13:06Z</time>
      </trkpt>
      <trkpt lat="43.56892" lon="-0.94573">
        <ele>100</ele>
        <time>2021-05-08T09:13:07Z</time>
      </trkpt>
      <trkpt lat="43.56893" lon="-0.94576">
        <ele>100</ele>
        <time>2021-05-08T09:13:08Z</time>
      </trkpt>
      <trkpt lat="43.56893" lon="-0.9458">
        <ele>100</ele>
        <time>2021-05-08T09:13:09Z</time>
      </trkpt>
      <trkpt lat="43.56894" lon="-0.94583">
        <ele>100</ele>
        <time>2021-05-08T09:13:10Z</time>
      </trkpt>
      <trkpt lat="43.56894" lon="-0.94587">
        <ele>100</ele>
        <time>2021-05-08T09:13:11Z</time>
      </trkpt>
      <trkpt lat="43.56895" lon="-0.9459">
        <ele>100</ele>
        <time>2021-05-08T09:13:12Z</time>
      </trkpt>
      <trkpt lat="43.56895" lon="-0.94594">
        <ele>100</ele>
        <time>2021-05-08T09:13:13Z</time>
      </trkpt>
      <trkpt lat="43.56896" lon="-0.94597">
        <ele>100</ele>
        <time>2021-05-08T09:13:14Z</time>
      </trkpt>
      <trkpt lat="43.56896" lon="-0.946">
        <ele>100</ele>
        <time>2021-05-08T09:13:15Z</time>
      </trkpt>
      <trkpt lat="43.56897" lon="-0.94603">
        <ele>100</ele>
        <time>2021-05-08T09:13:16Z</time>
      </trkpt>
      <trkpt lat="43.56897" lon="-0.94607">
        <ele>100</ele>
        <time>2021-05-08T09:13:17Z</time>
      </trkpt>
      <trkpt lat="43.56898" lon="-0.9461">
        <ele>100</ele>
        <time>2021-05-08T09:13:18Z</time>
      </trkpt>
      <trkpt lat="43.56898" lon="-0.94613">
        <ele>100</ele>
        <time>2021-05-08T09:13:19Z</time>
      </trkpt>
      <trkpt lat="43.56899" lon="-0.94616">
        <ele>100</ele>
        <time>2021-05-08T09:13:20Z</time>
      </trkpt>
      <trkpt lat="43.56899" lon="-0.94619">
        <ele>100</ele>
        <time>2021-05-08T09:13:21Z</time>
      </trkpt>
      <trkpt lat="43.569" lon="-0.94622">
        <ele>100</ele>
        <time>2021-05-08T09:13:22Z</time>
      </trkpt>
      <trkpt lat="43.569" lon="-0.94625">
        <ele>100</ele>
        <time>2021-05-08T09:13:23Z</time>
      </trkpt>
      <trkpt lat="43.56901" lon="-0.94628">
        <ele>100</ele>
        <time>2021-05-08T09:13:24Z</time>
      </trkpt>
      <trkpt lat="43.56901" lon="-0.94632">
        <ele>100</ele>
        <time>2021-05-08T09:13:25Z</time>
      </trkpt>
      <trkpt lat="43.56901" lon="-0.94635">
        <ele>100</ele>
        <time>2021-05-08T09:13:26Z</time>
      </trkpt>
      <trkpt lat="43.56902" lon="-0.94638">
        <ele>100</ele>
        <time>2021-05-08T09:13:27Z</time>
      </trkpt>
      <trkpt lat="43.56902" lon="-0.94641">
        <ele>100</ele>
        <time>2021-05-08T09:13:28Z</time>
      </trkpt>
      <trkpt lat="43.56903" lon="-0.94644">
        <ele>100</ele>
        <time>2021-05-08T09:13:29Z</time>
      </trkpt>
      <trkpt lat="43.56903" lon="-0.94648">
        <ele>100</ele>
        <time>2021-05-08T09:13:30Z</time>
      </trkpt>
      <trkpt lat="43.56903" lon="-0.94651">
        <ele>100</ele>
        <time>2021-05-08T09:13:31Z</time>
      </trkpt>
      <trkpt lat="43.56904" lon="-0.94654">
        <ele>100</ele>
        <time>2021-05-08T09:13:32Z</time>
      </trkpt>
      <trkpt lat="43.56904" lon="-0.94657">
        <ele>100</ele>
        <time>2021-05-08T09:13:33Z</time>
      </trkpt>
      <trkpt lat="43.56905" lon="-0.9466">
        <ele>100</ele>
        <time>2021-05-08T09:13:34Z</time>
      </trkpt>
      <trkpt lat="43.56905" lon="-0.94664">
        <ele>100</ele>
        <time>2021-05-08T09:13:35Z</time>
      </trkpt>
      <trkpt lat="43.56906" lon="-0.94667">
        <ele>100</ele>
        <time>2021-05-08T09:13:36Z</time>
      </trkpt>
      <trkpt lat="43.56906" lon="-0.94671">
        <ele>100</ele>
        <time>2021-05-08T09:13:37Z</time>
      </trkpt>
      <trkpt lat="43.56907" lon="-0.94674">
        <ele>99</ele>
        <time>2021-05-08T09:13:38Z</time>
      </trkpt>
      <trkpt lat="43.56908" lon="-0.94678">
        <ele>99</ele>
        <time>2021-05-08T09:13:39Z</time>
      </trkpt>
      <trkpt lat="43.56908" lon="-0.94681">
        <ele>98</ele>
        <time>2021-05-08T09:13:40Z</time>
      </trkpt>
      <trkpt lat="43.56909" lon="-0.94685">
        <ele>98</ele>
        <time>2021-05-08T09:13:41Z</time>
      </trkpt>
      <trkpt lat="43.5691" lon="-0.94689">
        <ele>98</ele>
        <time>2021-05-08T09:13:42Z</time>
      </trkpt>
      <trkpt lat="43.56911" lon="-0.94692">
        <ele>97</ele>
        <time>2021-05-08T09:13:43Z</time>
      </trkpt>
      <trkpt lat="43.56911" lon="-0.94696">
        <ele>97</ele>
        <time>2021-05-08T09:13:44Z</time>
      </trkpt>
      <trkpt lat="43.56912" lon="-0.94699">
        <ele>97</ele>
        <time>2021-05-08T09:13:45Z</time>
      </trkpt>
      <trkpt lat="43.56912" lon="-0.94702">
        <ele>97</ele>
        <time>2021-05-08T09:13:46Z</time>
      </trkpt>
      <trkpt lat="43.56913" lon="-0.94706">
        <ele>97</ele>
        <time>2021-05-08T09:13:47Z</time>
      </trkpt>
      <trkpt lat="43.56914" lon="-0.94709">
        <ele>96</ele>
        <time>2021-05-08T09:13:48Z</time>
      </trkpt>
      <trkpt lat="43.56914" lon="-0.94712">
        <ele>96</ele>
        <time>2021-05-08T09:13:49Z</time>
      </trkpt>
      <trkpt lat="43.56914" lon="-0.94716">
        <ele>96</ele>
        <time>2021-05-08T09:13:50Z</time>
      </trkpt>
      <trkpt lat="43.56915" lon="-0.94719">
        <ele>96</ele>
        <time>2021-05-08T09:13:51Z</time>
      </trkpt>
      <trkpt lat="43.56915" lon="-0.94723">
        <ele>96</ele>
        <time>2021-05-08T09:13:52Z</time>
      </trkpt>
      <trkpt lat="43.56915" lon="-0.94726">
        <ele>95</ele>
        <time>2021-05-08T09:13:53Z</time>
      </trkpt>
      <trkpt lat="43.56916" lon="-0.9473">
        <ele>95</ele>
        <time>2021-05-08T09:13:54Z</time>
      </trkpt>
      <trkpt lat="43.56916" lon="-0.94734">
        <ele>95</ele>
        <time>2021-05-08T09:13:55Z</time>
      </trkpt>
      <trkpt lat="43.56916" lon="-0.94737">
        <ele>95</ele>
        <time>2021-05-08T09:13:56Z</time>
      </trkpt>
      <trkpt lat="43.56916" lon="-0.94741">
        <ele>95</ele>
        <time>2021-05-08T09:13:57Z</time>
      </trkpt>
      <trkpt lat="43.56917" lon="-0.94745">
        <ele>94</ele>
        <time>2021-05-08T09:13:58Z</time>
      </trkpt>
      <trkpt lat="43.56917" lon="-0.94749">
        <ele>94</ele>
        <time>2021-05-08T09:13:59Z</time>
      </trkpt>
      <trkpt lat="43.56917" lon="-0.94752">
        <ele>94</ele>
        <time>2021-05-08T09:14:00Z</time>
      </trkpt>
      <trkpt lat="43.56916" lon="-0.94756">
        <ele>94</ele>
        <time>2021-05-08T09:14:01Z</time>
      </trkpt>
      <trkpt lat="43.56916" lon="-0.94759">
        <ele>94</ele>
        <time>2021-05-08T09:14:02Z</time>
      </trkpt>
      <trkpt lat="43.56916" lon="-0.94763">
        <ele>93</ele>
        <time>2021-05-08T09:14:03Z</time>
      </trkpt>
      <trkpt lat="43.56916" lon="-0.94766">
        <ele>93</ele>
        <time>2021-05-08T09:14:04Z</time>
      </trkpt>
      <trkpt lat="43.56915" lon="-0.9477">
        <ele>92</ele>
        <time>2021-05-08T09:14:05Z</time>
      </trkpt>
      <trkpt lat="43.56915" lon="-0.94773">
        <ele>92</ele>
        <time>2021-05-08T09:14:06Z</time>
      </trkpt>
      <trkpt lat="43.56914" lon="-0.94777">
        <ele>92</ele>
        <time>2021-05-08T09:14:07Z</time>
      </trkpt>
      <trkpt lat="43.56914" lon="-0.9478">
        <ele>91</ele>
        <time>2021-05-08T09:14:08Z</time>
      </trkpt>
      <trkpt lat="43.56913" lon="-0.94784">
        <ele>91</ele>
        <time>2021-05-08T09:14:09Z</time>
      </trkpt>
      <trkpt lat="43.56913" lon="-0.94788">
        <ele>91</ele>
        <time>2021-05-08T09:14:10Z</time>
      </trkpt>
      <trkpt lat="43.56912" lon="-0.94791">
        <ele>91</ele>
        <time>2021-05-08T09:14:11Z</time>
      </trkpt>
      <trkpt lat="43.56912" lon="-0.94795">
        <ele>91</ele>
        <time>2021-05-08T09:14:12Z</time>
      </trkpt>
      <trkpt lat="43.56911" lon="-0.94799">
        <ele>90</ele>
        <time>2021-05-08T09:14:13Z</time>
      </trkpt>
      <trkpt lat="43.56911" lon="-0.94802">
        <ele>90</ele>
        <time>2021-05-08T09:14:14Z</time>
      </trkpt>
      <trkpt lat="43.5691" lon="-0.94806">
        <ele>90</ele>
        <time>2021-05-08T09:14:15Z</time>
      </trkpt>
      <trkpt lat="43.5691" lon="-0.94809">
        <ele>90</ele>
        <time>2021-05-08T09:14:16Z</time>
      </trkpt>
      <trkpt lat="43.56909" lon="-0.94813">
        <ele>90</ele>
        <time>2021-05-08T09:14:17Z</time>
      </trkpt>
      <trkpt lat="43.56909" lon="-0.94816">
        <ele>89</ele>
        <time>2021-05-08T09:14:18Z</time>
      </trkpt>
      <trkpt lat="43.56908" lon="-0.9482">
        <ele>89</ele>
        <time>2021-05-08T09:14:19Z</time>
      </trkpt>
      <trkpt lat="43.56908" lon="-0.94823">
        <ele>89</ele>
        <time>2021-05-08T09:14:20Z</time>
      </trkpt>
      <trkpt lat="43.56907" lon="-0.94827">
        <ele>89</ele>
        <time>2021-05-08T09:14:21Z</time>
      </trkpt>
      <trkpt lat="43.56907" lon="-0.9483">
        <ele>89</ele>
        <time>2021-05-08T09:14:22Z</time>
      </trkpt>
      <trkpt lat="43.56906" lon="-0.94834">
        <ele>89</ele>
        <time>2021-05-08T09:14:23Z</time>
      </trkpt>
      <trkpt lat="43.56906" lon="-0.94837">
        <ele>89</ele>
        <time>2021-05-08T09:14:24Z</time>
      </trkpt>
      <trkpt lat="43.56905" lon="-0.9484">
        <ele>89</ele>
        <time>2021-05-08T09:14:25Z</time>
      </trkpt>
      <trkpt lat="43.56904" lon="-0.94844">
        <ele>89</ele>
        <time>2021-05-08T09:14:26Z</time>
      </trkpt>
      <trkpt lat="43.56903" lon="-0.94846">
        <ele>89</ele>
        <time>2021-05-08T09:14:27Z</time>
      </trkpt>
      <trkpt lat="43.56902" lon="-0.94849">
        <ele>88</ele>
        <time>2021-05-08T09:14:28Z</time>
      </trkpt>
      <trkpt lat="43.56901" lon="-0.94851">
        <ele>88</ele>
        <time>2021-05-08T09:14:29Z</time>
      </trkpt>
      <trkpt lat="43.56899" lon="-0.94853">
        <ele>88</ele>
        <time>2021-05-08T09:14:30Z</time>
      </trkpt>
      <trkpt lat="43.56897" lon="-0.94853">
        <ele>88</ele>
        <time>2021-05-08T09:14:31Z</time>
      </trkpt>
      <trkpt lat="43.56895" lon="-0.94854">
        <ele>88</ele>
        <time>2021-05-08T09:14:32Z</time>
      </trkpt>
      <trkpt lat="43.56893" lon="-0.94854">
        <ele>88</ele>
        <time>2021-05-08T09:14:33Z</time>
      </trkpt>
      <trkpt lat="43.56891" lon="-0.94854">
        <ele>88</ele>
        <time>2021-05-08T09:14:34Z</time>
      </trkpt>
      <trkpt lat="43.56889" lon="-0.94853">
        <ele>88</ele>
        <time>2021-05-08T09:14:35Z</time>
      </trkpt>
      <trkpt lat="43.56886" lon="-0.94852">
        <ele>88</ele>
        <time>2021-05-08T09:14:36Z</time>
      </trkpt>
      <trkpt lat="43.56884" lon="-0.94851">
        <ele>89</ele>
        <time>2021-05-08T09:14:37Z</time>
      </trkpt>
      <trkpt lat="43.56882" lon="-0.9485">
        <ele>89</ele>
        <time>2021-05-08T09:14:38Z</time>
      </trkpt>
      <trkpt lat="43.5688" lon="-0.94849">
        <ele>89</ele>
        <time>2021-05-08T09:14:39Z</time>
      </trkpt>
      <trkpt lat="43.56878" lon="-0.94848">
        <ele>89</ele>
        <time>2021-05-08T09:14:40Z</time>
      </trkpt>
      <trkpt lat="43.56876" lon="-0.94847">
        <ele>89</ele>
        <time>2021-05-08T09:14:41Z</time>
      </trkpt>
      <trkpt lat="43.56874" lon="-0.94846">
        <ele>89</ele>
        <time>2021-05-08T09:14:42Z</time>
      </trkpt>
      <trkpt lat="43.56872" lon="-0.94845">
        <ele>89</ele>
        <time>2021-05-08T09:14:43Z</time>
      </trkpt>
      <trkpt lat="43.56869" lon="-0.94844">
        <ele>89</ele>
        <time>2021-05-08T09:14:44Z</time>
      </trkpt>
      <trkpt lat="43.56867" lon="-0.94843">
        <ele>90</ele>
        <time>2021-05-08T09:14:45Z</time>
      </trkpt>
      <trkpt lat="43.56865" lon="-0.94843">
        <ele>90</ele>
        <time>2021-05-08T09:14:46Z</time>
      </trkpt>
      <trkpt lat="43.56863" lon="-0.94842">
        <ele>91</ele>
        <time>2021-05-08T09:14:47Z</time>
      </trkpt>
      <trkpt lat="43.56861" lon="-0.94842">
        <ele>91</ele>
        <time>2021-05-08T09:14:48Z</time>
      </trkpt>
      <trkpt lat="43.56859" lon="-0.94841">
        <ele>91</ele>
        <time>2021-05-08T09:14:49Z</time>
      </trkpt>
      <trkpt lat="43.56857" lon="-0.94841">
        <ele>91</ele>
        <time>2021-05-08T09:14:50Z</time>
      </trkpt>
      <trkpt lat="43.56854" lon="-0.94841">
        <ele>91</ele>
        <time>2021-05-08T09:14:51Z</time>
      </trkpt>
      <trkpt lat="43.56852" lon="-0.94841">
        <ele>92</ele>
        <time>2021-05-08T09:14:52Z</time>
      </trkpt>
      <trkpt lat="43.5685" lon="-0.9484">
        <ele>92</ele>
        <time>2021-05-08T09:14:53Z</time>
      </trkpt>
      <trkpt lat="43.56847" lon="-0.9484">
        <ele>92</ele>
        <time>2021-05-08T09:14:54Z</time>
      </trkpt>
      <trkpt lat="43.56845" lon="-0.9484">
        <ele>93</ele>
        <time>2021-05-08T09:14:55Z</time>
      </trkpt>
      <trkpt lat="43.56842" lon="-0.94841">
        <ele>93</ele>
        <time>2021-05-08T09:14:56Z</time>
      </trkpt>
      <trkpt lat="43.5684" lon="-0.94841">
        <ele>94</ele>
        <time>2021-05-08T09:14:57Z</time>
      </trkpt>
      <trkpt lat="43.56838" lon="-0.94842">
        <ele>94</ele>
        <time>2021-05-08T09:14:58Z</time>
      </trkpt>
      <trkpt lat="43.56836" lon="-0.94843">
        <ele>94</ele>
        <time>2021-05-08T09:14:59Z</time>
      </trkpt>
      <trkpt lat="43.56833" lon="-0.94844">
        <ele>94</ele>
        <time>2021-05-08T09:15:00Z</time>
      </trkpt>
      <trkpt lat="43.56831" lon="-0.94846">
        <ele>94</ele>
        <time>2021-05-08T09:15:01Z</time>
      </trkpt>
      <trkpt lat="43.56829" lon="-0.94847">
        <ele>94</ele>
        <time>2021-05-08T09:15:02Z</time>
      </trkpt>
      <trkpt lat="43.56827" lon="-0.94849">
        <ele>94</ele>
        <time>2021-05-08T09:15:03Z</time>
      </trkpt>
      <trkpt lat="43.56825" lon="-0.94851">
        <ele>94</ele>
        <time>2021-05-08T09:15:04Z</time>
      </trkpt>
      <trkpt lat="43.56824" lon="-0.94854">
        <ele>94</ele>
        <time>2021-05-08T09:15:05Z</time>
      </trkpt>
      <trkpt lat="43.56822" lon="-0.94856">
        <ele>94</ele>
        <time>2021-05-08T09:15:06Z</time>
      </trkpt>
      <trkpt lat="43.56821" lon="-0.94859">
        <ele>95</ele>
        <time>2021-05-08T09:15:07Z</time>
      </trkpt>
      <trkpt lat="43.5682" lon="-0.94862">
        <ele>94</ele>
        <time>2021-05-08T09:15:08Z</time>
      </trkpt>
      <trkpt lat="43.56819" lon="-0.94866">
        <ele>94</ele>
        <time>2021-05-08T09:15:09Z</time>
      </trkpt>
      <trkpt lat="43.56818" lon="-0.94869">
        <ele>94</ele>
        <time>2021-05-08T09:15:10Z</time>
      </trkpt>
      <trkpt lat="43.56817" lon="-0.94872">
        <ele>94</ele>
        <time>2021-05-08T09:15:11Z</time>
      </trkpt>
      <trkpt lat="43.56816" lon="-0.94876">
        <ele>94</ele>
        <time>2021-05-08T09:15:12Z</time>
      </trkpt>
      <trkpt lat="43.56815" lon="-0.94879">
        <ele>93</ele>
        <time>2021-05-08T09:15:13Z</time>
      </trkpt>
      <trkpt lat="43.56814" lon="-0.94882">
        <ele>93</ele>
        <time>2021-05-08T09:15:14Z</time>
      </trkpt>
      <trkpt lat="43.56813" lon="-0.94885">
        <ele>92</ele>
        <time>2021-05-08T09:15:15Z</time>
      </trkpt>
      <trkpt lat="43.56812" lon="-0.94888">
        <ele>92</ele>
        <time>2021-05-08T09:15:16Z</time>
      </trkpt>
      <trkpt lat="43.56811" lon="-0.94891">
        <ele>92</ele>
        <time>2021-05-08T09:15:17Z</time>
      </trkpt>
      <trkpt lat="43.5681" lon="-0.94894">
        <ele>91</ele>
        <time>2021-05-08T09:15:18Z</time>
      </trkpt>
      <trkpt lat="43.56809" lon="-0.94897">
        <ele>91</ele>
        <time>2021-05-08T09:15:19Z</time>
      </trkpt>
      <trkpt lat="43.56808" lon="-0.949">
        <ele>91</ele>
        <time>2021-05-08T09:15:20Z</time>
      </trkpt>
      <trkpt lat="43.56807" lon="-0.94904">
        <ele>91</ele>
        <time>2021-05-08T09:15:21Z</time>
      </trkpt>
      <trkpt lat="43.56806" lon="-0.94907">
        <ele>91</ele>
        <time>2021-05-08T09:15:22Z</time>
      </trkpt>
      <trkpt lat="43.56805" lon="-0.9491">
        <ele>90</ele>
        <time>2021-05-08T09:15:23Z</time>
      </trkpt>
      <trkpt lat="43.56804" lon="-0.94914">
        <ele>90</ele>
        <time>2021-05-08T09:15:24Z</time>
      </trkpt>
      <trkpt lat="43.56803" lon="-0.94917">
        <ele>89</ele>
        <time>2021-05-08T09:15:25Z</time>
      </trkpt>
      <trkpt lat="43.56802" lon="-0.9492">
        <ele>89</ele>
        <time>2021-05-08T09:15:26Z</time>
      </trkpt>
      <trkpt lat="43.568" lon="-0.94923">
        <ele>89</ele>
        <time>2021-05-08T09:15:27Z</time>
      </trkpt>
      <trkpt lat="43.56799" lon="-0.94926">
        <ele>88</ele>
        <time>2021-05-08T09:15:28Z</time>
      </trkpt>
      <trkpt lat="43.56798" lon="-0.94929">
        <ele>88</ele>
        <time>2021-05-08T09:15:29Z</time>
      </trkpt>
      <trkpt lat="43.56797" lon="-0.94932">
        <ele>88</ele>
        <time>2021-05-08T09:15:30Z</time>
      </trkpt>
      <trkpt lat="43.56796" lon="-0.94935">
        <ele>88</ele>
        <time>2021-05-08T09:15:31Z</time>
      </trkpt>
      <trkpt lat="43.56795" lon="-0.94938">
        <ele>88</ele>
        <time>2021-05-08T09:15:32Z</time>
      </trkpt>
      <trkpt lat="43.56795" lon="-0.94941">
        <ele>87</ele>
        <time>2021-05-08T09:15:33Z</time>
      </trkpt>
      <trkpt lat="43.56794" lon="-0.94944">
        <ele>87</ele>
        <time>2021-05-08T09:15:34Z</time>
      </trkpt>
      <trkpt lat="43.56794" lon="-0.94947">
        <ele>87</ele>
        <time>2021-05-08T09:15:35Z</time>
      </trkpt>
      <trkpt lat="43.56794" lon="-0.9495">
        <ele>87</ele>
        <time>2021-05-08T09:15:36Z</time>
      </trkpt>
      <trkpt lat="43.56795" lon="-0.94953">
        <ele>87</ele>
        <time>2021-05-08T09:15:37Z</time>
      </trkpt>
      <trkpt lat="43.56795" lon="-0.94956">
        <ele>87</ele>
        <time>2021-05-08T09:15:38Z</time>
      </trkpt>
      <trkpt lat="43.56796" lon="-0.94958">
        <ele>87</ele>
        <time>2021-05-08T09:15:39Z</time>
      </trkpt>
      <trkpt lat="43.56797" lon="-0.94961">
        <ele>87</ele>
        <time>2021-05-08T09:15:40Z</time>
      </trkpt>
      <trkpt lat="43.56797" lon="-0.94964">
        <ele>87</ele>
        <time>2021-05-08T09:15:41Z</time>
      </trkpt>
      <trkpt lat="43.56798" lon="-0.94967">
        <ele>87</ele>
        <time>2021-05-08T09:15:42Z</time>
      </trkpt>
      <trkpt lat="43.56799" lon="-0.94969">
        <ele>87</ele>
        <time>2021-05-08T09:15:43Z</time>
      </trkpt>
      <trkpt lat="43.568" lon="-0.94972">
        <ele>87</ele>
        <time>2021-05-08T09:15:44Z</time>
      </trkpt>
      <trkpt lat="43.56801" lon="-0.94974">
        <ele>87</ele>
        <time>2021-05-08T09:15:45Z</time>
      </trkpt>
      <trkpt lat="43.56802" lon="-0.94977">
        <ele>87</ele>
        <time>2021-05-08T09:15:46Z</time>
      </trkpt>
      <trkpt lat="43.56803" lon="-0.9498">
        <ele>87</ele>
        <time>2021-05-08T09:15:47Z</time>
      </trkpt>
      <trkpt lat="43.56804" lon="-0.94983">
        <ele>86</ele>
        <time>2021-05-08T09:15:48Z</time>
      </trkpt>
      <trkpt lat="43.56804" lon="-0.94986">
        <ele>86</ele>
        <time>2021-05-08T09:15:49Z</time>
      </trkpt>
      <trkpt lat="43.56805" lon="-0.94989">
        <ele>86</ele>
        <time>2021-05-08T09:15:50Z</time>
      </trkpt>
      <trkpt lat="43.56805" lon="-0.94992">
        <ele>86</ele>
        <time>2021-05-08T09:15:51Z</time>
      </trkpt>
      <trkpt lat="43.56806" lon="-0.94995">
        <ele>86</ele>
        <time>2021-05-08T09:15:52Z</time>
      </trkpt>
      <trkpt lat="43.56806" lon="-0.94998">
        <ele>86</ele>
        <time>2021-05-08T09:15:53Z</time>
      </trkpt>
      <trkpt lat="43.56806" lon="-0.95002">
        <ele>86</ele>
        <time>2021-05-08T09:15:54Z</time>
      </trkpt>
      <trkpt lat="43.56807" lon="-0.95006">
        <ele>86</ele>
        <time>2021-05-08T09:15:55Z</time>
      </trkpt>
      <trkpt lat="43.56807" lon="-0.95009">
        <ele>86</ele>
        <time>2021-05-08T09:15:56Z</time>
      </trkpt>
      <trkpt lat="43.56808" lon="-0.95013">
        <ele>86</ele>
        <time>2021-05-08T09:15:57Z</time>
      </trkpt>
      <trkpt lat="43.56809" lon="-0.95017">
        <ele>85</ele>
        <time>2021-05-08T09:15:58Z</time>
      </trkpt>
      <trkpt lat="43.5681" lon="-0.9502">
        <ele>85</ele>
        <time>2021-05-08T09:15:59Z</time>
      </trkpt>
      <trkpt lat="43.5681" lon="-0.95023">
        <ele>85</ele>
        <time>2021-05-08T09:16:00Z</time>
      </trkpt>
      <trkpt lat="43.56811" lon="-0.95026">
        <ele>85</ele>
        <time>2021-05-08T09:16:01Z</time>
      </trkpt>
      <trkpt lat="43.56812" lon="-0.95029">
        <ele>85</ele>
        <time>2021-05-08T09:16:02Z</time>
      </trkpt>
      <trkpt lat="43.56813" lon="-0.95032">
        <ele>85</ele>
        <time>2021-05-08T09:16:03Z</time>
      </trkpt>
      <trkpt lat="43.56813" lon="-0.95035">
        <ele>85</ele>
        <time>2021-05-08T09:16:04Z</time>
      </trkpt>
      <trkpt lat="43.56814" lon="-0.95038">
        <ele>85</ele>
        <time>2021-05-08T09:16:05Z</time>
      </trkpt>
      <trkpt lat="43.56814" lon="-0.95041">
        <ele>85</ele>
        <time>2021-05-08T09:16:06Z</time>
      </trkpt>
      <trkpt lat="43.56815" lon="-0.95044">
        <ele>85</ele>
        <time>2021-05-08T09:16:07Z</time>
      </trkpt>
      <trkpt lat="43.56816" lon="-0.95047">
        <ele>84</ele>
        <time>2021-05-08T09:16:08Z</time>
      </trkpt>
      <trkpt lat="43.56816" lon="-0.9505">
        <ele>84</ele>
        <time>2021-05-08T09:16:09Z</time>
      </trkpt>
      <trkpt lat="43.56817" lon="-0.95053">
        <ele>84</ele>
        <time>2021-05-08T09:16:10Z</time>
      </trkpt>
      <trkpt lat="43.56817" lon="-0.95056">
        <ele>84</ele>
        <time>2021-05-08T09:16:11Z</time>
      </trkpt>
      <trkpt lat="43.56818" lon="-0.95059">
        <ele>84</ele>
        <time>2021-05-08T09:16:12Z</time>
      </trkpt>
      <trkpt lat="43.56818" lon="-0.95062">
        <ele>84</ele>
        <time>2021-05-08T09:16:13Z</time>
      </trkpt>
      <trkpt lat="43.56819" lon="-0.95065">
        <ele>84</ele>
        <time>2021-05-08T09:16:14Z</time>
      </trkpt>
      <trkpt lat="43.5682" lon="-0.95069">
        <ele>84</ele>
        <time>2021-05-08T09:16:15Z</time>
      </trkpt>
      <trkpt lat="43.5682" lon="-0.95072">
        <ele>84</ele>
        <time>2021-05-08T09:16:16Z</time>
      </trkpt>
      <trkpt lat="43.56821" lon="-0.95075">
        <ele>84</ele>
        <time>2021-05-08T09:16:17Z</time>
      </trkpt>
      <trkpt lat="43.56822" lon="-0.95079">
        <ele>83</ele>
        <time>2021-05-08T09:16:18Z</time>
      </trkpt>
      <trkpt lat="43.56823" lon="-0.95082">
        <ele>83</ele>
        <time>2021-05-08T09:16:19Z</time>
      </trkpt>
      <trkpt lat="43.56823" lon="-0.95086">
        <ele>83</ele>
        <time>2021-05-08T09:16:20Z</time>
      </trkpt>
      <trkpt lat="43.56824" lon="-0.95089">
        <ele>83</ele>
        <time>2021-05-08T09:16:21Z</time>
      </trkpt>
      <trkpt lat="43.56825" lon="-0.95093">
        <ele>83</ele>
        <time>2021-05-08T09:16:22Z</time>
      </trkpt>
      <trkpt lat="43.56826" lon="-0.95096">
        <ele>83</ele>
        <time>2021-05-08T09:16:23Z</time>
      </trkpt>
      <trkpt lat="43.56827" lon="-0.951">
        <ele>83</ele>
        <time>2021-05-08T09:16:24Z</time>
      </trkpt>
      <trkpt lat="43.56827" lon="-0.95103">
        <ele>83</ele>
        <time>2021-05-08T09:16:25Z</time>
      </trkpt>
      <trkpt lat="43.56828" lon="-0.95107">
        <ele>83</ele>
        <time>2021-05-08T09:16:26Z</time>
      </trkpt>
      <trkpt lat="43.56828" lon="-0.9511">
        <ele>83</ele>
        <time>2021-05-08T09:16:27Z</time>
      </trkpt>
      <trkpt lat="43.56829" lon="-0.95113">
        <ele>83</ele>
        <time>2021-05-08T09:16:28Z</time>
      </trkpt>
      <trkpt lat="43.56829" lon="-0.95117">
        <ele>83</ele>
        <time>2021-05-08T09:16:29Z</time>
      </trkpt>
      <trkpt lat="43.5683" lon="-0.9512">
        <ele>83</ele>
        <time>2021-05-08T09:16:30Z</time>
      </trkpt>
      <trkpt lat="43.5683" lon="-0.95124">
        <ele>83</ele>
        <time>2021-05-08T09:16:31Z</time>
      </trkpt>
      <trkpt lat="43.56831" lon="-0.95127">
        <ele>83</ele>
        <time>2021-05-08T09:16:32Z</time>
      </trkpt>
      <trkpt lat="43.56831" lon="-0.95131">
        <ele>83</ele>
        <time>2021-05-08T09:16:33Z</time>
      </trkpt>
      <trkpt lat="43.56832" lon="-0.95134">
        <ele>83</ele>
        <time>2021-05-08T09:16:34Z</time>
      </trkpt>
      <trkpt lat="43.56833" lon="-0.95137">
        <ele>83</ele>
        <time>2021-05-08T09:16:35Z</time>
      </trkpt>
      <trkpt lat="43.56833" lon="-0.95141">
        <ele>83</ele>
        <time>2021-05-08T09:16:36Z</time>
      </trkpt>
      <trkpt lat="43.56834" lon="-0.95144">
        <ele>83</ele>
        <time>2021-05-08T09:16:37Z</time>
      </trkpt>
      <trkpt lat="43.56835" lon="-0.95148">
        <ele>83</ele>
        <time>2021-05-08T09:16:38Z</time>
      </trkpt>
      <trkpt lat="43.56835" lon="-0.95151">
        <ele>83</ele>
        <time>2021-05-08T09:16:39Z</time>
      </trkpt>
      <trkpt lat="43.56836" lon="-0.95154">
        <ele>83</ele>
        <time>2021-05-08T09:16:40Z</time>
      </trkpt>
      <trkpt lat="43.56837" lon="-0.95157">
        <ele>83</ele>
        <time>2021-05-08T09:16:41Z</time>
      </trkpt>
      <trkpt lat="43.56837" lon="-0.95161">
        <ele>83</ele>
        <time>2021-05-08T09:16:42Z</time>
      </trkpt>
      <trkpt lat="43.56838" lon="-0.95164">
        <ele>82</ele>
        <time>2021-05-08T09:16:43Z</time>
      </trkpt>
      <trkpt lat="43.56839" lon="-0.95167">
        <ele>82</ele>
        <time>2021-05-08T09:16:44Z</time>
      </trkpt>
      <trkpt lat="43.56839" lon="-0.9517">
        <ele>82</ele>
        <time>2021-05-08T09:16:45Z</time>
      </trkpt>
      <trkpt lat="43.5684" lon="-0.95173">
        <ele>82</ele>
        <time>2021-05-08T09:16:46Z</time>
      </trkpt>
      <trkpt lat="43.56841" lon="-0.95177">
        <ele>82</ele>
        <time>2021-05-08T09:16:47Z</time>
      </trkpt>
      <trkpt lat="43.56842" lon="-0.9518">
        <ele>82</ele>
        <time>2021-05-08T09:16:48Z</time>
      </trkpt>
      <trkpt lat="43.56842" lon="-0.95183">
        <ele>82</ele>
        <time>2021-05-08T09:16:49Z</time>
      </trkpt>
      <trkpt lat="43.56843" lon="-0.95186">
        <ele>82</ele>
        <time>2021-05-08T09:16:50Z</time>
      </trkpt>
      <trkpt lat="43.56843" lon="-0.9519">
        <ele>82</ele>
        <time>2021-05-08T09:16:51Z</time>
      </trkpt>
      <trkpt lat="43.56844" lon="-0.95193">
        <ele>82</ele>
        <time>2021-05-08T09:16:52Z</time>
      </trkpt>
      <trkpt lat="43.56844" lon="-0.95196">
        <ele>81</ele>
        <time>2021-05-08T09:16:53Z</time>
      </trkpt>
      <trkpt lat="43.56844" lon="-0.95199">
        <ele>81</ele>
        <time>2021-05-08T09:16:54Z</time>
      </trkpt>
      <trkpt lat="43.56843" lon="-0.95202">
        <ele>81</ele>
        <time>2021-05-08T09:16:55Z</time>
      </trkpt>
      <trkpt lat="43.56843" lon="-0.95205">
        <ele>81</ele>
        <time>2021-05-08T09:16:56Z</time>
      </trkpt>
      <trkpt lat="43.56842" lon="-0.95208">
        <ele>81</ele>
        <time>2021-05-08T09:16:57Z</time>
      </trkpt>
      <trkpt lat="43.56842" lon="-0.95211">
        <ele>80</ele>
        <time>2021-05-08T09:16:58Z</time>
      </trkpt>
      <trkpt lat="43.56842" lon="-0.95214">
        <ele>80</ele>
        <time>2021-05-08T09:16:59Z</time>
      </trkpt>
      <trkpt lat="43.56842" lon="-0.95217">
        <ele>80</ele>
        <time>2021-05-08T09:17:00Z</time>
      </trkpt>
      <trkpt lat="43.56841" lon="-0.9522">
        <ele>80</ele>
        <time>2021-05-08T09:17:01Z</time>
      </trkpt>
      <trkpt lat="43.56841" lon="-0.95223">
        <ele>80</ele>
        <time>2021-05-08T09:17:02Z</time>
      </trkpt>
      <trkpt lat="43.56841" lon="-0.95225">
        <ele>79</ele>
        <time>2021-05-08T09:17:03Z</time>
      </trkpt>
      <trkpt lat="43.56841" lon="-0.95228">
        <ele>79</ele>
        <time>2021-05-08T09:17:04Z</time>
      </trkpt>
      <trkpt lat="43.5684" lon="-0.95231">
        <ele>79</ele>
        <time>2021-05-08T09:17:05Z</time>
      </trkpt>
      <trkpt lat="43.5684" lon="-0.95233">
        <ele>79</ele>
        <time>2021-05-08T09:17:06Z</time>
      </trkpt>
      <trkpt lat="43.5684" lon="-0.95236">
        <ele>79</ele>
        <time>2021-05-08T09:17:07Z</time>
      </trkpt>
      <trkpt lat="43.56839" lon="-0.95238">
        <ele>78</ele>
        <time>2021-05-08T09:17:08Z</time>
      </trkpt>
      <trkpt lat="43.56839" lon="-0.95241">
        <ele>78</ele>
        <time>2021-05-08T09:17:09Z</time>
      </trkpt>
      <trkpt lat="43.56838" lon="-0.95244">
        <ele>78</ele>
        <time>2021-05-08T09:17:10Z</time>
      </trkpt>
      <trkpt lat="43.56838" lon="-0.95247">
        <ele>78</ele>
        <time>2021-05-08T09:17:11Z</time>
      </trkpt>
      <trkpt lat="43.56837" lon="-0.9525">
        <ele>78</ele>
        <time>2021-05-08T09:17:12Z</time>
      </trkpt>
      <trkpt lat="43.56836" lon="-0.95253">
        <ele>77</ele>
        <time>2021-05-08T09:17:13Z</time>
      </trkpt>
      <trkpt lat="43.56835" lon="-0.95257">
        <ele>77</ele>
        <time>2021-05-08T09:17:14Z</time>
      </trkpt>
      <trkpt lat="43.56835" lon="-0.95261">
        <ele>77</ele>
        <time>2021-05-08T09:17:15Z</time>
      </trkpt>
      <trkpt lat="43.56835" lon="-0.95265">
        <ele>77</ele>
        <time>2021-05-08T09:17:16Z</time>
      </trkpt>
      <trkpt lat="43.56835" lon="-0.95268">
        <ele>77</ele>
        <time>2021-05-08T09:17:17Z</time>
      </trkpt>
      <trkpt lat="43.56835" lon="-0.95272">
        <ele>76</ele>
        <time>2021-05-08T09:17:18Z</time>
      </trkpt>
      <trkpt lat="43.56835" lon="-0.95274">
        <ele>76</ele>
        <time>2021-05-08T09:17:19Z</time>
      </trkpt>
      <trkpt lat="43.56835" lon="-0.95277">
        <ele>76</ele>
        <time>2021-05-08T09:17:20Z</time>
      </trkpt>
      <trkpt lat="43.56836" lon="-0.95279">
        <ele>76</ele>
        <time>2021-05-08T09:17:21Z</time>
      </trkpt>
      <trkpt lat="43.56837" lon="-0.95281">
        <ele>76</ele>
        <time>2021-05-08T09:17:22Z</time>
      </trkpt>
      <trkpt lat="43.56837" lon="-0.95284">
        <ele>75</ele>
        <time>2021-05-08T09:17:23Z</time>
      </trkpt>
      <trkpt lat="43.56838" lon="-0.95286">
        <ele>75</ele>
        <time>2021-05-08T09:17:24Z</time>
      </trkpt>
      <trkpt lat="43.56839" lon="-0.95289">
        <ele>75</ele>
        <time>2021-05-08T09:17:25Z</time>
      </trkpt>
      <trkpt lat="43.5684" lon="-0.95292">
        <ele>75</ele>
        <time>2021-05-08T09:17:26Z</time>
      </trkpt>
      <trkpt lat="43.56841" lon="-0.95294">
        <ele>75</ele>
        <time>2021-05-08T09:17:27Z</time>
      </trkpt>
      <trkpt lat="43.56841" lon="-0.95297">
        <ele>74</ele>
        <time>2021-05-08T09:17:28Z</time>
      </trkpt>
      <trkpt lat="43.56842" lon="-0.953">
        <ele>74</ele>
        <time>2021-05-08T09:17:29Z</time>
      </trkpt>
      <trkpt lat="43.56843" lon="-0.95302">
        <ele>74</ele>
        <time>2021-05-08T09:17:30Z</time>
      </trkpt>
      <trkpt lat="43.56844" lon="-0.95305">
        <ele>74</ele>
        <time>2021-05-08T09:17:31Z</time>
      </trkpt>
      <trkpt lat="43.56845" lon="-0.95308">
        <ele>74</ele>
        <time>2021-05-08T09:17:32Z</time>
      </trkpt>
      <trkpt lat="43.56845" lon="-0.9531">
        <ele>73</ele>
        <time>2021-05-08T09:17:33Z</time>
      </trkpt>
      <trkpt lat="43.56846" lon="-0.95313">
        <ele>73</ele>
        <time>2021-05-08T09:17:34Z</time>
      </trkpt>
      <trkpt lat="43.56846" lon="-0.95316">
        <ele>73</ele>
        <time>2021-05-08T09:17:35Z</time>
      </trkpt>
      <trkpt lat="43.56847" lon="-0.95319">
        <ele>73</ele>
        <time>2021-05-08T09:17:36Z</time>
      </trkpt>
      <trkpt lat="43.56847" lon="-0.95322">
        <ele>73</ele>
        <time>2021-05-08T09:17:37Z</time>
      </trkpt>
      <trkpt lat="43.56847" lon="-0.95325">
        <ele>72</ele>
        <time>2021-05-08T09:17:38Z</time>
      </trkpt>
      <trkpt lat="43.56848" lon="-0.95329">
        <ele>72</ele>
        <time>2021-05-08T09:17:39Z</time>
      </trkpt>
      <trkpt lat="43.56848" lon="-0.95332">
        <ele>71</ele>
        <time>2021-05-08T09:17:40Z</time>
      </trkpt>
      <trkpt lat="43.56848" lon="-0.95336">
        <ele>71</ele>
        <time>2021-05-08T09:17:41Z</time>
      </trkpt>
      <trkpt lat="43.56849" lon="-0.9534">
        <ele>71</ele>
        <time>2021-05-08T09:17:42Z</time>
      </trkpt>
      <trkpt lat="43.56849" lon="-0.95344">
        <ele>70</ele>
        <time>2021-05-08T09:17:43Z</time>
      </trkpt>
      <trkpt lat="43.56849" lon="-0.95348">
        <ele>70</ele>
        <time>2021-05-08T09:17:44Z</time>
      </trkpt>
      <trkpt lat="43.5685" lon="-0.95352">
        <ele>70</ele>
        <time>2021-05-08T09:17:45Z</time>
      </trkpt>
      <trkpt lat="43.56851" lon="-0.95356">
        <ele>70</ele>
        <time>2021-05-08T09:17:46Z</time>
      </trkpt>
      <trkpt lat="43.56852" lon="-0.95359">
        <ele>70</ele>
        <time>2021-05-08T09:17:47Z</time>
      </trkpt>
      <trkpt lat="43.56853" lon="-0.95363">
        <ele>70</ele>
        <time>2021-05-08T09:17:48Z</time>
      </trkpt>
      <trkpt lat="43.56853" lon="-0.95366">
        <ele>70</ele>
        <time>2021-05-08T09:17:49Z</time>
      </trkpt>
      <trkpt lat="43.56853" lon="-0.95369">
        <ele>70</ele>
        <time>2021-05-08T09:17:50Z</time>
      </trkpt>
      <trkpt lat="43.56852" lon="-0.95371">
        <ele>70</ele>
        <time>2021-05-08T09:17:51Z</time>
      </trkpt>
      <trkpt lat="43.56851" lon="-0.95373">
        <ele>70</ele>
        <time>2021-05-08T09:17:52Z</time>
      </trkpt>
      <trkpt lat="43.56849" lon="-0.95373">
        <ele>69</ele>
        <time>2021-05-08T09:17:53Z</time>
      </trkpt>
      <trkpt lat="43.56847" lon="-0.95374">
        <ele>69</ele>
        <time>2021-05-08T09:17:54Z</time>
      </trkpt>
      <trkpt lat="43.56844" lon="-0.95373">
        <ele>68</ele>
        <time>2021-05-08T09:17:55Z</time>
      </trkpt>
      <trkpt lat="43.56842" lon="-0.95372">
        <ele>68</ele>
        <time>2021-05-08T09:17:56Z</time>
      </trkpt>
      <trkpt lat="43.5684" lon="-0.95371">
        <ele>68</ele>
        <time>2021-05-08T09:17:57Z</time>
      </trkpt>
      <trkpt lat="43.56838" lon="-0.95369">
        <ele>67</ele>
        <time>2021-05-08T09:17:58Z</time>
      </trkpt>
      <trkpt lat="43.56837" lon="-0.95368">
        <ele>67</ele>
        <time>2021-05-08T09:17:59Z</time>
      </trkpt>
      <trkpt lat="43.56835" lon="-0.95366">
        <ele>67</ele>
        <time>2021-05-08T09:18:00Z</time>
      </trkpt>
      <trkpt lat="43.56834" lon="-0.95365">
        <ele>67</ele>
        <time>2021-05-08T09:18:01Z</time>
      </trkpt>
      <trkpt lat="43.56832" lon="-0.95363">
        <ele>67</ele>
        <time>2021-05-08T09:18:02Z</time>
      </trkpt>
      <trkpt lat="43.56831" lon="-0.95362">
        <ele>67</ele>
        <time>2021-05-08T09:18:03Z</time>
      </trkpt>
      <trkpt lat="43.5683" lon="-0.95361">
        <ele>67</ele>
        <time>2021-05-08T09:18:04Z</time>
      </trkpt>
      <trkpt lat="43.56828" lon="-0.95359">
        <ele>67</ele>
        <time>2021-05-08T09:18:05Z</time>
      </trkpt>
      <trkpt lat="43.56826" lon="-0.95358">
        <ele>67</ele>
        <time>2021-05-08T09:18:06Z</time>
      </trkpt>
      <trkpt lat="43.56825" lon="-0.95357">
        <ele>67</ele>
        <time>2021-05-08T09:18:07Z</time>
      </trkpt>
      <trkpt lat="43.56823" lon="-0.95356">
        <ele>66</ele>
        <time>2021-05-08T09:18:08Z</time>
      </trkpt>
      <trkpt lat="43.56821" lon="-0.95355">
        <ele>66</ele>
        <time>2021-05-08T09:18:09Z</time>
      </trkpt>
      <trkpt lat="43.56819" lon="-0.95354">
        <ele>66</ele>
        <time>2021-05-08T09:18:10Z</time>
      </trkpt>
      <trkpt lat="43.56816" lon="-0.95353">
        <ele>66</ele>
        <time>2021-05-08T09:18:11Z</time>
      </trkpt>
      <trkpt lat="43.56814" lon="-0.95352">
        <ele>66</ele>
        <time>2021-05-08T09:18:12Z</time>
      </trkpt>
      <trkpt lat="43.56812" lon="-0.95353">
        <ele>66</ele>
        <time>2021-05-08T09:18:13Z</time>
      </trkpt>
      <trkpt lat="43.56809" lon="-0.95353">
        <ele>66</ele>
        <time>2021-05-08T09:18:14Z</time>
      </trkpt>
      <trkpt lat="43.56807" lon="-0.95355">
        <ele>66</ele>
        <time>2021-05-08T09:18:15Z</time>
      </trkpt>
      <trkpt lat="43.56805" lon="-0.95356">
        <ele>66</ele>
        <time>2021-05-08T09:18:16Z</time>
      </trkpt>
      <trkpt lat="43.56803" lon="-0.9536">
        <ele>66</ele>
        <time>2021-05-08T09:18:17Z</time>
      </trkpt>
      <trkpt lat="43.56801" lon="-0.95363">
        <ele>65</ele>
        <time>2021-05-08T09:18:18Z</time>
      </trkpt>
      <trkpt lat="43.568" lon="-0.95366">
        <ele>65</ele>
        <time>2021-05-08T09:18:19Z</time>
      </trkpt>
      <trkpt lat="43.56799" lon="-0.9537">
        <ele>65</ele>
        <time>2021-05-08T09:18:20Z</time>
      </trkpt>
      <trkpt lat="43.56798" lon="-0.95374">
        <ele>65</ele>
        <time>2021-05-08T09:18:21Z</time>
      </trkpt>
      <trkpt lat="43.56797" lon="-0.95378">
        <ele>65</ele>
        <time>2021-05-08T09:18:22Z</time>
      </trkpt>
      <trkpt lat="43.56796" lon="-0.95382">
        <ele>65</ele>
        <time>2021-05-08T09:18:23Z</time>
      </trkpt>
      <trkpt lat="43.56795" lon="-0.95386">
        <ele>65</ele>
        <time>2021-05-08T09:18:24Z</time>
      </trkpt>
      <trkpt lat="43.56795" lon="-0.9539">
        <ele>65</ele>
        <time>2021-05-08T09:18:25Z</time>
      </trkpt>
      <trkpt lat="43.56794" lon="-0.95394">
        <ele>65</ele>
        <time>2021-05-08T09:18:26Z</time>
      </trkpt>
      <trkpt lat="43.56794" lon="-0.95397">
        <ele>65</ele>
        <time>2021-05-08T09:18:27Z</time>
      </trkpt>
      <trkpt lat="43.56793" lon="-0.954">
        <ele>65</ele>
        <time>2021-05-08T09:18:28Z</time>
      </trkpt>
      <trkpt lat="43.56793" lon="-0.95403">
        <ele>65</ele>
        <time>2021-05-08T09:18:29Z</time>
      </trkpt>
      <trkpt lat="43.56793" lon="-0.95406">
        <ele>65</ele>
        <time>2021-05-08T09:18:30Z</time>
      </trkpt>
      <trkpt lat="43.56793" lon="-0.95409">
        <ele>65</ele>
        <time>2021-05-08T09:18:31Z</time>
      </trkpt>
      <trkpt lat="43.56793" lon="-0.95412">
        <ele>65</ele>
        <time>2021-05-08T09:18:32Z</time>
      </trkpt>
      <trkpt lat="43.56793" lon="-0.95414">
        <ele>65</ele>
        <time>2021-05-08T09:18:33Z</time>
      </trkpt>
      <trkpt lat="43.56792" lon="-0.95417">
        <ele>65</ele>
        <time>2021-05-08T09:18:34Z</time>
      </trkpt>
      <trkpt lat="43.56792" lon="-0.9542">
        <ele>65</ele>
        <time>2021-05-08T09:18:35Z</time>
      </trkpt>
      <trkpt lat="43.56792" lon="-0.95422">
        <ele>65</ele>
        <time>2021-05-08T09:18:36Z</time>
      </trkpt>
      <trkpt lat="43.56792" lon="-0.95425">
        <ele>65</ele>
        <time>2021-05-08T09:18:37Z</time>
      </trkpt>
      <trkpt lat="43.56791" lon="-0.95428">
        <ele>65</ele>
        <time>2021-05-08T09:18:38Z</time>
      </trkpt>
      <trkpt lat="43.56792" lon="-0.95431">
        <ele>65</ele>
        <time>2021-05-08T09:18:39Z</time>
      </trkpt>
      <trkpt lat="43.56792" lon="-0.95434">
        <ele>65</ele>
        <time>2021-05-08T09:18:40Z</time>
      </trkpt>
      <trkpt lat="43.56792" lon="-0.95437">
        <ele>65</ele>
        <time>2021-05-08T09:18:41Z</time>
      </trkpt>
      <trkpt lat="43.56793" lon="-0.9544">
        <ele>65</ele>
        <time>2021-05-08T09:18:42Z</time>
      </trkpt>
      <trkpt lat="43.56794" lon="-0.95443">
        <ele>65</ele>
        <time>2021-05-08T09:18:43Z</time>
      </trkpt>
      <trkpt lat="43.56795" lon="-0.95446">
        <ele>65</ele>
        <time>2021-05-08T09:18:44Z</time>
      </trkpt>
      <trkpt lat="43.56796" lon="-0.95448">
        <ele>65</ele>
        <time>2021-05-08T09:18:45Z</time>
      </trkpt>
      <trkpt lat="43.56798" lon="-0.95451">
        <ele>65</ele>
        <time>2021-05-08T09:18:46Z</time>
      </trkpt>
      <trkpt lat="43.56799" lon="-0.95453">
        <ele>65</ele>
        <time>2021-05-08T09:18:47Z</time>
      </trkpt>
      <trkpt lat="43.56801" lon="-0.95456">
        <ele>65</ele>
        <time>2021-05-08T09:18:48Z</time>
      </trkpt>
      <trkpt lat="43.56802" lon="-0.95458">
        <ele>65</ele>
        <time>2021-05-08T09:18:49Z</time>
      </trkpt>
      <trkpt lat="43.56804" lon="-0.9546">
        <ele>65</ele>
        <time>2021-05-08T09:18:50Z</time>
      </trkpt>
      <trkpt lat="43.56806" lon="-0.95462">
        <ele>65</ele>
        <time>2021-05-08T09:18:51Z</time>
      </trkpt>
      <trkpt lat="43.56807" lon="-0.95464">
        <ele>66</ele>
        <time>2021-05-08T09:18:52Z</time>
      </trkpt>
      <trkpt lat="43.56809" lon="-0.95466">
        <ele>66</ele>
        <time>2021-05-08T09:18:53Z</time>
      </trkpt>
      <trkpt lat="43.5681" lon="-0.95469">
        <ele>66</ele>
        <time>2021-05-08T09:18:54Z</time>
      </trkpt>
      <trkpt lat="43.56812" lon="-0.95471">
        <ele>66</ele>
        <time>2021-05-08T09:18:55Z</time>
      </trkpt>
      <trkpt lat="43.56813" lon="-0.95473">
        <ele>66</ele>
        <time>2021-05-08T09:18:56Z</time>
      </trkpt>
      <trkpt lat="43.56814" lon="-0.95476">
        <ele>66</ele>
        <time>2021-05-08T09:18:57Z</time>
      </trkpt>
      <trkpt lat="43.56815" lon="-0.95478">
        <ele>66</ele>
        <time>2021-05-08T09:18:58Z</time>
      </trkpt>
      <trkpt lat="43.56815" lon="-0.95481">
        <ele>66</ele>
        <time>2021-05-08T09:18:59Z</time>
      </trkpt>
      <trkpt lat="43.56816" lon="-0.95484">
        <ele>66</ele>
        <time>2021-05-08T09:19:00Z</time>
      </trkpt>
      <trkpt lat="43.56816" lon="-0.95486">
        <ele>66</ele>
        <time>2021-05-08T09:19:01Z</time>
      </trkpt>
      <trkpt lat="43.56816" lon="-0.95489">
        <ele>66</ele>
        <time>2021-05-08T09:19:02Z</time>
      </trkpt>
      <trkpt lat="43.56816" lon="-0.95491">
        <ele>66</ele>
        <time>2021-05-08T09:19:03Z</time>
      </trkpt>
      <trkpt lat="43.56816" lon="-0.95494">
        <ele>66</ele>
        <time>2021-05-08T09:19:04Z</time>
      </trkpt>
      <trkpt lat="43.56816" lon="-0.95496">
        <ele>66</ele>
        <time>2021-05-08T09:19:05Z</time>
      </trkpt>
      <trkpt lat="43.56816" lon="-0.95498">
        <ele>66</ele>
        <time>2021-05-08T09:19:06Z</time>
      </trkpt>
      <trkpt lat="43.56817" lon="-0.95501">
        <ele>66</ele>
        <time>2021-05-08T09:19:07Z</time>
      </trkpt>
      <trkpt lat="43.56817" lon="-0.95504">
        <ele>66</ele>
        <time>2021-05-08T09:19:08Z</time>
      </trkpt>
      <trkpt lat="43.56817" lon="-0.95506">
        <ele>66</ele>
        <time>2021-05-08T09:19:09Z</time>
      </trkpt>
      <trkpt lat="43.56817" lon="-0.95509">
        <ele>66</ele>
        <time>2021-05-08T09:19:10Z</time>
      </trkpt>
      <trkpt lat="43.56818" lon="-0.95511">
        <ele>66</ele>
        <time>2021-05-08T09:19:11Z</time>
      </trkpt>
      <trkpt lat="43.56818" lon="-0.95514">
        <ele>66</ele>
        <time>2021-05-08T09:19:12Z</time>
      </trkpt>
      <trkpt lat="43.56818" lon="-0.95516">
        <ele>65</ele>
        <time>2021-05-08T09:19:13Z</time>
      </trkpt>
      <trkpt lat="43.56819" lon="-0.95519">
        <ele>65</ele>
        <time>2021-05-08T09:19:14Z</time>
      </trkpt>
      <trkpt lat="43.56819" lon="-0.95521">
        <ele>65</ele>
        <time>2021-05-08T09:19:15Z</time>
      </trkpt>
      <trkpt lat="43.5682" lon="-0.95524">
        <ele>65</ele>
        <time>2021-05-08T09:19:16Z</time>
      </trkpt>
      <trkpt lat="43.5682" lon="-0.95527">
        <ele>65</ele>
        <time>2021-05-08T09:19:17Z</time>
      </trkpt>
      <trkpt lat="43.56821" lon="-0.9553">
        <ele>65</ele>
        <time>2021-05-08T09:19:18Z</time>
      </trkpt>
      <trkpt lat="43.56822" lon="-0.95533">
        <ele>65</ele>
        <time>2021-05-08T09:19:19Z</time>
      </trkpt>
      <trkpt lat="43.56822" lon="-0.95536">
        <ele>65</ele>
        <time>2021-05-08T09:19:20Z</time>
      </trkpt>
      <trkpt lat="43.56823" lon="-0.9554">
        <ele>65</ele>
        <time>2021-05-08T09:19:21Z</time>
      </trkpt>
      <trkpt lat="43.56823" lon="-0.95544">
        <ele>65</ele>
        <time>2021-05-08T09:19:22Z</time>
      </trkpt>
      <trkpt lat="43.56823" lon="-0.95548">
        <ele>65</ele>
        <time>2021-05-08T09:19:23Z</time>
      </trkpt>
      <trkpt lat="43.56824" lon="-0.95552">
        <ele>65</ele>
        <time>2021-05-08T09:19:24Z</time>
      </trkpt>
      <trkpt lat="43.56824" lon="-0.95556">
        <ele>65</ele>
        <time>2021-05-08T09:19:25Z</time>
      </trkpt>
      <trkpt lat="43.56825" lon="-0.95559">
        <ele>65</ele>
        <time>2021-05-08T09:19:26Z</time>
      </trkpt>
      <trkpt lat="43.56826" lon="-0.95563">
        <ele>65</ele>
        <time>2021-05-08T09:19:27Z</time>
      </trkpt>
      <trkpt lat="43.56826" lon="-0.95566">
        <ele>64</ele>
        <time>2021-05-08T09:19:28Z</time>
      </trkpt>
      <trkpt lat="43.56827" lon="-0.95569">
        <ele>64</ele>
        <time>2021-05-08T09:19:29Z</time>
      </trkpt>
      <trkpt lat="43.56828" lon="-0.95572">
        <ele>64</ele>
        <time>2021-05-08T09:19:30Z</time>
      </trkpt>
      <trkpt lat="43.56828" lon="-0.95574">
        <ele>64</ele>
        <time>2021-05-08T09:19:31Z</time>
      </trkpt>
      <trkpt lat="43.56829" lon="-0.95577">
        <ele>64</ele>
        <time>2021-05-08T09:19:32Z</time>
      </trkpt>
      <trkpt lat="43.56829" lon="-0.95579">
        <ele>64</ele>
        <time>2021-05-08T09:19:33Z</time>
      </trkpt>
      <trkpt lat="43.5683" lon="-0.95581">
        <ele>64</ele>
        <time>2021-05-08T09:19:34Z</time>
      </trkpt>
      <trkpt lat="43.56831" lon="-0.95584">
        <ele>64</ele>
        <time>2021-05-08T09:19:35Z</time>
      </trkpt>
      <trkpt lat="43.56831" lon="-0.95586">
        <ele>64</ele>
        <time>2021-05-08T09:19:36Z</time>
      </trkpt>
      <trkpt lat="43.56832" lon="-0.95588">
        <ele>64</ele>
        <time>2021-05-08T09:19:37Z</time>
      </trkpt>
      <trkpt lat="43.56833" lon="-0.9559">
        <ele>63</ele>
        <time>2021-05-08T09:19:38Z</time>
      </trkpt>
      <trkpt lat="43.56833" lon="-0.95593">
        <ele>63</ele>
        <time>2021-05-08T09:19:39Z</time>
      </trkpt>
      <trkpt lat="43.56834" lon="-0.95595">
        <ele>63</ele>
        <time>2021-05-08T09:19:40Z</time>
      </trkpt>
      <trkpt lat="43.56835" lon="-0.95597">
        <ele>63</ele>
        <time>2021-05-08T09:19:41Z</time>
      </trkpt>
      <trkpt lat="43.56835" lon="-0.956">
        <ele>63</ele>
        <time>2021-05-08T09:19:42Z</time>
      </trkpt>
      <trkpt lat="43.56837" lon="-0.95603">
        <ele>63</ele>
        <time>2021-05-08T09:19:43Z</time>
      </trkpt>
      <trkpt lat="43.56838" lon="-0.95606">
        <ele>63</ele>
        <time>2021-05-08T09:19:44Z</time>
      </trkpt>
      <trkpt lat="43.56839" lon="-0.95609">
        <ele>63</ele>
        <time>2021-05-08T09:19:45Z</time>
      </trkpt>
      <trkpt lat="43.56841" lon="-0.95612">
        <ele>63</ele>
        <time>2021-05-08T09:19:46Z</time>
      </trkpt>
      <trkpt lat="43.56843" lon="-0.95614">
        <ele>63</ele>
        <time>2021-05-08T09:19:47Z</time>
      </trkpt>
      <trkpt lat="43.56844" lon="-0.95617">
        <ele>62</ele>
        <time>2021-05-08T09:19:48Z</time>
      </trkpt>
      <trkpt lat="43.56847" lon="-0.95619">
        <ele>62</ele>
        <time>2021-05-08T09:19:49Z</time>
      </trkpt>
      <trkpt lat="43.56849" lon="-0.95621">
        <ele>62</ele>
        <time>2021-05-08T09:19:50Z</time>
      </trkpt>
      <trkpt lat="43.56851" lon="-0.95622">
        <ele>62</ele>
        <time>2021-05-08T09:19:51Z</time>
      </trkpt>
      <trkpt lat="43.56854" lon="-0.95624">
        <ele>62</ele>
        <time>2021-05-08T09:19:52Z</time>
      </trkpt>
      <trkpt lat="43.56856" lon="-0.95624">
        <ele>62</ele>
        <time>2021-05-08T09:19:53Z</time>
      </trkpt>
      <trkpt lat="43.56858" lon="-0.95624">
        <ele>62</ele>
        <time>2021-05-08T09:19:54Z</time>
      </trkpt>
      <trkpt lat="43.5686" lon="-0.95625">
        <ele>62</ele>
        <time>2021-05-08T09:19:55Z</time>
      </trkpt>
      <trkpt lat="43.56863" lon="-0.95625">
        <ele>62</ele>
        <time>2021-05-08T09:19:56Z</time>
      </trkpt>
      <trkpt lat="43.56865" lon="-0.95625">
        <ele>62</ele>
        <time>2021-05-08T09:19:57Z</time>
      </trkpt>
      <trkpt lat="43.56867" lon="-0.95625">
        <ele>62</ele>
        <time>2021-05-08T09:19:58Z</time>
      </trkpt>
      <trkpt lat="43.56869" lon="-0.95624">
        <ele>62</ele>
        <time>2021-05-08T09:19:59Z</time>
      </trkpt>
      <trkpt lat="43.56871" lon="-0.95624">
        <ele>62</ele>
        <time>2021-05-08T09:20:00Z</time>
      </trkpt>
      <trkpt lat="43.56873" lon="-0.95624">
        <ele>62</ele>
        <time>2021-05-08T09:20:01Z</time>
      </trkpt>
      <trkpt lat="43.56875" lon="-0.95623">
        <ele>62</ele>
        <time>2021-05-08T09:20:02Z</time>
      </trkpt>
      <trkpt lat="43.56877" lon="-0.95622">
        <ele>62</ele>
        <time>2021-05-08T09:20:03Z</time>
      </trkpt>
      <trkpt lat="43.56879" lon="-0.95622">
        <ele>62</ele>
        <time>2021-05-08T09:20:04Z</time>
      </trkpt>
      <trkpt lat="43.56881" lon="-0.95621">
        <ele>62</ele>
        <time>2021-05-08T09:20:05Z</time>
      </trkpt>
      <trkpt lat="43.56883" lon="-0.95621">
        <ele>62</ele>
        <time>2021-05-08T09:20:06Z</time>
      </trkpt>
      <trkpt lat="43.56885" lon="-0.95621">
        <ele>63</ele>
        <time>2021-05-08T09:20:07Z</time>
      </trkpt>
      <trkpt lat="43.56887" lon="-0.95621">
        <ele>63</ele>
        <time>2021-05-08T09:20:08Z</time>
      </trkpt>
      <trkpt lat="43.56889" lon="-0.95621">
        <ele>63</ele>
        <time>2021-05-08T09:20:09Z</time>
      </trkpt>
      <trkpt lat="43.56891" lon="-0.95621">
        <ele>63</ele>
        <time>2021-05-08T09:20:10Z</time>
      </trkpt>
      <trkpt lat="43.56893" lon="-0.95621">
        <ele>63</ele>
        <time>2021-05-08T09:20:11Z</time>
      </trkpt>
      <trkpt lat="43.56895" lon="-0.9562">
        <ele>64</ele>
        <time>2021-05-08T09:20:12Z</time>
      </trkpt>
      <trkpt lat="43.56897" lon="-0.9562">
        <ele>64</ele>
        <time>2021-05-08T09:20:13Z</time>
      </trkpt>
      <trkpt lat="43.56899" lon="-0.95619">
        <ele>64</ele>
        <time>2021-05-08T09:20:14Z</time>
      </trkpt>
      <trkpt lat="43.56901" lon="-0.95618">
        <ele>64</ele>
        <time>2021-05-08T09:20:15Z</time>
      </trkpt>
      <trkpt lat="43.56903" lon="-0.95617">
        <ele>64</ele>
        <time>2021-05-08T09:20:16Z</time>
      </trkpt>
      <trkpt lat="43.56905" lon="-0.95616">
        <ele>64</ele>
        <time>2021-05-08T09:20:17Z</time>
      </trkpt>
      <trkpt lat="43.56907" lon="-0.95615">
        <ele>64</ele>
        <time>2021-05-08T09:20:18Z</time>
      </trkpt>
      <trkpt lat="43.56909" lon="-0.95613">
        <ele>64</ele>
        <time>2021-05-08T09:20:19Z</time>
      </trkpt>
      <trkpt lat="43.56911" lon="-0.95611">
        <ele>64</ele>
        <time>2021-05-08T09:20:20Z</time>
      </trkpt>
      <trkpt lat="43.56913" lon="-0.95609">
        <ele>64</ele>
        <time>2021-05-08T09:20:21Z</time>
      </trkpt>
      <trkpt lat="43.56914" lon="-0.95607">
        <ele>64</ele>
        <time>2021-05-08T09:20:22Z</time>
      </trkpt>
      <trkpt lat="43.56916" lon="-0.95605">
        <ele>64</ele>
        <time>2021-05-08T09:20:23Z</time>
      </trkpt>
      <trkpt lat="43.56918" lon="-0.95604">
        <ele>64</ele>
        <time>2021-05-08T09:20:24Z</time>
      </trkpt>
      <trkpt lat="43.56919" lon="-0.95602">
        <ele>64</ele>
        <time>2021-05-08T09:20:25Z</time>
      </trkpt>
      <trkpt lat="43.56921" lon="-0.95601">
        <ele>64</ele>
        <time>2021-05-08T09:20:26Z</time>
      </trkpt>
      <trkpt lat="43.56923" lon="-0.95601">
        <ele>64</ele>
        <time>2021-05-08T09:20:27Z</time>
      </trkpt>
      <trkpt lat="43.56925" lon="-0.95601">
        <ele>63</ele>
        <time>2021-05-08T09:20:28Z</time>
      </trkpt>
      <trkpt lat="43.56926" lon="-0.95601">
        <ele>63</ele>
        <time>2021-05-08T09:20:29Z</time>
      </trkpt>
      <trkpt lat="43.56928" lon="-0.95601">
        <ele>63</ele>
        <time>2021-05-08T09:20:30Z</time>
      </trkpt>
      <trkpt lat="43.56929" lon="-0.95602">
        <ele>63</ele>
        <time>2021-05-08T09:20:31Z</time>
      </trkpt>
      <trkpt lat="43.56931" lon="-0.95603">
        <ele>63</ele>
        <time>2021-05-08T09:20:32Z</time>
      </trkpt>
      <trkpt lat="43.56933" lon="-0.95603">
        <ele>63</ele>
        <time>2021-05-08T09:20:33Z</time>
      </trkpt>
      <trkpt lat="43.56935" lon="-0.95604">
        <ele>63</ele>
        <time>2021-05-08T09:20:34Z</time>
      </trkpt>
      <trkpt lat="43.56937" lon="-0.95604">
        <ele>63</ele>
        <time>2021-05-08T09:20:35Z</time>
      </trkpt>
      <trkpt lat="43.56939" lon="-0.95603">
        <ele>63</ele>
        <time>2021-05-08T09:20:36Z</time>
      </trkpt>
      <trkpt lat="43.56941" lon="-0.95602">
        <ele>63</ele>
        <time>2021-05-08T09:20:37Z</time>
      </trkpt>
      <trkpt lat="43.56943" lon="-0.95602">
        <ele>62</ele>
        <time>2021-05-08T09:20:38Z</time>
      </trkpt>
      <trkpt lat="43.56945" lon="-0.95601">
        <ele>62</ele>
        <time>2021-05-08T09:20:39Z</time>
      </trkpt>
      <trkpt lat="43.56947" lon="-0.95599">
        <ele>62</ele>
        <time>2021-05-08T09:20:40Z</time>
      </trkpt>
      <trkpt lat="43.56949" lon="-0.95599">
        <ele>62</ele>
        <time>2021-05-08T09:20:41Z</time>
      </trkpt>
      <trkpt lat="43.56951" lon="-0.95598">
        <ele>62</ele>
        <time>2021-05-08T09:20:42Z</time>
      </trkpt>
      <trkpt lat="43.56954" lon="-0.95598">
        <ele>62</ele>
        <time>2021-05-08T09:20:43Z</time>
      </trkpt>
      <trkpt lat="43.56956" lon="-0.95598">
        <ele>62</ele>
        <time>2021-05-08T09:20:44Z</time>
      </trkpt>
      <trkpt lat="43.56958" lon="-0.95599">
        <ele>62</ele>
        <time>2021-05-08T09:20:45Z</time>
      </trkpt>
      <trkpt lat="43.5696" lon="-0.95599">
        <ele>62</ele>
        <time>2021-05-08T09:20:46Z</time>
      </trkpt>
      <trkpt lat="43.56962" lon="-0.95601">
        <ele>63</ele>
        <time>2021-05-08T09:20:47Z</time>
      </trkpt>
      <trkpt lat="43.56964" lon="-0.95602">
        <ele>63</ele>
        <time>2021-05-08T09:20:48Z</time>
      </trkpt>
      <trkpt lat="43.56966" lon="-0.95604">
        <ele>63</ele>
        <time>2021-05-08T09:20:49Z</time>
      </trkpt>
      <trkpt lat="43.56967" lon="-0.95606">
        <ele>63</ele>
        <time>2021-05-08T09:20:50Z</time>
      </trkpt>
      <trkpt lat="43.56969" lon="-0.95607">
        <ele>63</ele>
        <time>2021-05-08T09:20:51Z</time>
      </trkpt>
      <trkpt lat="43.56971" lon="-0.95609">
        <ele>64</ele>
        <time>2021-05-08T09:20:52Z</time>
      </trkpt>
      <trkpt lat="43.56972" lon="-0.9561">
        <ele>64</ele>
        <time>2021-05-08T09:20:53Z</time>
      </trkpt>
      <trkpt lat="43.56974" lon="-0.95612">
        <ele>64</ele>
        <time>2021-05-08T09:20:54Z</time>
      </trkpt>
      <trkpt lat="43.56976" lon="-0.95613">
        <ele>64</ele>
        <time>2021-05-08T09:20:55Z</time>
      </trkpt>
      <trkpt lat="43.56978" lon="-0.95615">
        <ele>64</ele>
        <time>2021-05-08T09:20:56Z</time>
      </trkpt>
      <trkpt lat="43.5698" lon="-0.95616">
        <ele>64</ele>
        <time>2021-05-08T09:20:57Z</time>
      </trkpt>
      <trkpt lat="43.56981" lon="-0.95617">
        <ele>64</ele>
        <time>2021-05-08T09:20:58Z</time>
      </trkpt>
      <trkpt lat="43.56983" lon="-0.95618">
        <ele>64</ele>
        <time>2021-05-08T09:20:59Z</time>
      </trkpt>
      <trkpt lat="43.56985" lon="-0.95619">
        <ele>64</ele>
        <time>2021-05-08T09:21:00Z</time>
      </trkpt>
      <trkpt lat="43.56986" lon="-0.9562">
        <ele>64</ele>
        <time>2021-05-08T09:21:01Z</time>
      </trkpt>
      <trkpt lat="43.56988" lon="-0.95621">
        <ele>65</ele>
        <time>2021-05-08T09:21:02Z</time>
      </trkpt>
      <trkpt lat="43.56989" lon="-0.95621">
        <ele>65</ele>
        <time>2021-05-08T09:21:03Z</time>
      </trkpt>
      <trkpt lat="43.56991" lon="-0.95621">
        <ele>65</ele>
        <time>2021-05-08T09:21:04Z</time>
      </trkpt>
      <trkpt lat="43.56992" lon="-0.9562">
        <ele>65</ele>
        <time>2021-05-08T09:21:05Z</time>
      </trkpt>
      <trkpt lat="43.56994" lon="-0.9562">
        <ele>65</ele>
        <time>2021-05-08T09:21:06Z</time>
      </trkpt>
      <trkpt lat="43.56995" lon="-0.95619">
        <ele>65</ele>
        <time>2021-05-08T09:21:07Z</time>
      </trkpt>
      <trkpt lat="43.56997" lon="-0.95618">
        <ele>65</ele>
        <time>2021-05-08T09:21:08Z</time>
      </trkpt>
      <trkpt lat="43.56998" lon="-0.95618">
        <ele>65</ele>
        <time>2021-05-08T09:21:09Z</time>
      </trkpt>
      <trkpt lat="43.57" lon="-0.95618">
        <ele>65</ele>
        <time>2021-05-08T09:21:10Z</time>
      </trkpt>
      <trkpt lat="43.57002" lon="-0.95618">
        <ele>65</ele>
        <time>2021-05-08T09:21:11Z</time>
      </trkpt>
      <trkpt lat="43.57004" lon="-0.95619">
        <ele>65</ele>
        <time>2021-05-08T09:21:12Z</time>
      </trkpt>
      <trkpt lat="43.57006" lon="-0.95619">
        <ele>65</ele>
        <time>2021-05-08T09:21:13Z</time>
      </trkpt>
      <trkpt lat="43.57008" lon="-0.95619">
        <ele>65</ele>
        <time>2021-05-08T09:21:14Z</time>
      </trkpt>
      <trkpt lat="43.5701" lon="-0.95618">
        <ele>65</ele>
        <time>2021-05-08T09:21:15Z</time>
      </trkpt>
      <trkpt lat="43.57013" lon="-0.95618">
        <ele>65</ele>
        <time>2021-05-08T09:21:16Z</time>
      </trkpt>
      <trkpt lat="43.57015" lon="-0.95617">
        <ele>65</ele>
        <time>2021-05-08T09:21:17Z</time>
      </trkpt>
      <trkpt lat="43.57017" lon="-0.95616">
        <ele>64</ele>
        <time>2021-05-08T09:21:18Z</time>
      </trkpt>
      <trkpt lat="43.57018" lon="-0.95614">
        <ele>64</ele>
        <time>2021-05-08T09:21:19Z</time>
      </trkpt>
      <trkpt lat="43.5702" lon="-0.95612">
        <ele>64</ele>
        <time>2021-05-08T09:21:20Z</time>
      </trkpt>
      <trkpt lat="43.57021" lon="-0.9561">
        <ele>64</ele>
        <time>2021-05-08T09:21:21Z</time>
      </trkpt>
      <trkpt lat="43.57022" lon="-0.95607">
        <ele>64</ele>
        <time>2021-05-08T09:21:22Z</time>
      </trkpt>
      <trkpt lat="43.57022" lon="-0.95604">
        <ele>63</ele>
        <time>2021-05-08T09:21:23Z</time>
      </trkpt>
      <trkpt lat="43.57023" lon="-0.95601">
        <ele>63</ele>
        <time>2021-05-08T09:21:24Z</time>
      </trkpt>
      <trkpt lat="43.57023" lon="-0.95599">
        <ele>63</ele>
        <time>2021-05-08T09:21:25Z</time>
      </trkpt>
      <trkpt lat="43.57024" lon="-0.95596">
        <ele>63</ele>
        <time>2021-05-08T09:21:26Z</time>
      </trkpt>
      <trkpt lat="43.57025" lon="-0.95595">
        <ele>63</ele>
        <time>2021-05-08T09:21:27Z</time>
      </trkpt>
      <trkpt lat="43.57026" lon="-0.95593">
        <ele>62</ele>
        <time>2021-05-08T09:21:28Z</time>
      </trkpt>
      <trkpt lat="43.57027" lon="-0.95591">
        <ele>62</ele>
        <time>2021-05-08T09:21:29Z</time>
      </trkpt>
      <trkpt lat="43.57029" lon="-0.95589">
        <ele>62</ele>
        <time>2021-05-08T09:21:30Z</time>
      </trkpt>
      <trkpt lat="43.5703" lon="-0.95587">
        <ele>62</ele>
        <time>2021-05-08T09:21:31Z</time>
      </trkpt>
      <trkpt lat="43.5703" lon="-0.95585">
        <ele>62</ele>
        <time>2021-05-08T09:21:32Z</time>
      </trkpt>
      <trkpt lat="43.57031" lon="-0.95582">
        <ele>61</ele>
        <time>2021-05-08T09:21:33Z</time>
      </trkpt>
      <trkpt lat="43.57031" lon="-0.9558">
        <ele>61</ele>
        <time>2021-05-08T09:21:34Z</time>
      </trkpt>
      <trkpt lat="43.57031" lon="-0.95577">
        <ele>61</ele>
        <time>2021-05-08T09:21:35Z</time>
      </trkpt>
      <trkpt lat="43.57031" lon="-0.95575">
        <ele>61</ele>
        <time>2021-05-08T09:21:36Z</time>
      </trkpt>
      <trkpt lat="43.57031" lon="-0.95572">
        <ele>61</ele>
        <time>2021-05-08T09:21:37Z</time>
      </trkpt>
      <trkpt lat="43.57031" lon="-0.95569">
        <ele>61</ele>
        <time>2021-05-08T09:21:38Z</time>
      </trkpt>
      <trkpt lat="43.57031" lon="-0.95566">
        <ele>61</ele>
        <time>2021-05-08T09:21:39Z</time>
      </trkpt>
      <trkpt lat="43.57031" lon="-0.95564">
        <ele>61</ele>
        <time>2021-05-08T09:21:40Z</time>
      </trkpt>
      <trkpt lat="43.57032" lon="-0.95561">
        <ele>61</ele>
        <time>2021-05-08T09:21:41Z</time>
      </trkpt>
      <trkpt lat="43.57033" lon="-0.95559">
        <ele>61</ele>
        <time>2021-05-08T09:21:42Z</time>
      </trkpt>
      <trkpt lat="43.57035" lon="-0.95556">
        <ele>60</ele>
        <time>2021-05-08T09:21:43Z</time>
      </trkpt>
      <trkpt lat="43.57036" lon="-0.95554">
        <ele>60</ele>
        <time>2021-05-08T09:21:44Z</time>
      </trkpt>
      <trkpt lat="43.57037" lon="-0.95551">
        <ele>60</ele>
        <time>2021-05-08T09:21:45Z</time>
      </trkpt>
      <trkpt lat="43.57039" lon="-0.95549">
        <ele>60</ele>
        <time>2021-05-08T09:21:46Z</time>
      </trkpt>
      <trkpt lat="43.57041" lon="-0.95547">
        <ele>60</ele>
        <time>2021-05-08T09:21:47Z</time>
      </trkpt>
      <trkpt lat="43.57043" lon="-0.95544">
        <ele>59</ele>
        <time>2021-05-08T09:21:48Z</time>
      </trkpt>
      <trkpt lat="43.57044" lon="-0.95543">
        <ele>59</ele>
        <time>2021-05-08T09:21:49Z</time>
      </trkpt>
      <trkpt lat="43.57046" lon="-0.95541">
        <ele>59</ele>
        <time>2021-05-08T09:21:50Z</time>
      </trkpt>
      <trkpt lat="43.57048" lon="-0.95541">
        <ele>59</ele>
        <time>2021-05-08T09:21:51Z</time>
      </trkpt>
      <trkpt lat="43.5705" lon="-0.9554">
        <ele>59</ele>
        <time>2021-05-08T09:21:52Z</time>
      </trkpt>
      <trkpt lat="43.57053" lon="-0.95541">
        <ele>58</ele>
        <time>2021-05-08T09:21:53Z</time>
      </trkpt>
      <trkpt lat="43.57055" lon="-0.95541">
        <ele>58</ele>
        <time>2021-05-08T09:21:54Z</time>
      </trkpt>
      <trkpt lat="43.57057" lon="-0.95542">
        <ele>58</ele>
        <time>2021-05-08T09:21:55Z</time>
      </trkpt>
      <trkpt lat="43.57059" lon="-0.95542">
        <ele>58</ele>
        <time>2021-05-08T09:21:56Z</time>
      </trkpt>
      <trkpt lat="43.57061" lon="-0.95543">
        <ele>58</ele>
        <time>2021-05-08T09:21:57Z</time>
      </trkpt>
      <trkpt lat="43.57064" lon="-0.95543">
        <ele>57</ele>
        <time>2021-05-08T09:21:58Z</time>
      </trkpt>
      <trkpt lat="43.57066" lon="-0.95544">
        <ele>57</ele>
        <time>2021-05-08T09:21:59Z</time>
      </trkpt>
      <trkpt lat="43.57068" lon="-0.95544">
        <ele>57</ele>
        <time>2021-05-08T09:22:00Z</time>
      </trkpt>
      <trkpt lat="43.5707" lon="-0.95544">
        <ele>57</ele>
        <time>2021-05-08T09:22:01Z</time>
      </trkpt>
      <trkpt lat="43.57073" lon="-0.95545">
        <ele>57</ele>
        <time>2021-05-08T09:22:02Z</time>
      </trkpt>
      <trkpt lat="43.57075" lon="-0.95545">
        <ele>56</ele>
        <time>2021-05-08T09:22:03Z</time>
      </trkpt>
      <trkpt lat="43.57077" lon="-0.95545">
        <ele>56</ele>
        <time>2021-05-08T09:22:04Z</time>
      </trkpt>
      <trkpt lat="43.57079" lon="-0.95545">
        <ele>56</ele>
        <time>2021-05-08T09:22:05Z</time>
      </trkpt>
      <trkpt lat="43.57082" lon="-0.95546">
        <ele>56</ele>
        <time>2021-05-08T09:22:06Z</time>
      </trkpt>
      <trkpt lat="43.57084" lon="-0.95546">
        <ele>56</ele>
        <time>2021-05-08T09:22:07Z</time>
      </trkpt>
      <trkpt lat="43.57086" lon="-0.95547">
        <ele>55</ele>
        <time>2021-05-08T09:22:08Z</time>
      </trkpt>
      <trkpt lat="43.57088" lon="-0.95547">
        <ele>55</ele>
        <time>2021-05-08T09:22:09Z</time>
      </trkpt>
      <trkpt lat="43.5709" lon="-0.95548">
        <ele>55</ele>
        <time>2021-05-08T09:22:10Z</time>
      </trkpt>
      <trkpt lat="43.57092" lon="-0.95548">
        <ele>55</ele>
        <time>2021-05-08T09:22:11Z</time>
      </trkpt>
      <trkpt lat="43.57094" lon="-0.95549">
        <ele>55</ele>
        <time>2021-05-08T09:22:12Z</time>
      </trkpt>
      <trkpt lat="43.57096" lon="-0.9555">
        <ele>55</ele>
        <time>2021-05-08T09:22:13Z</time>
      </trkpt>
      <trkpt lat="43.57099" lon="-0.95551">
        <ele>55</ele>
        <time>2021-05-08T09:22:14Z</time>
      </trkpt>
      <trkpt lat="43.57101" lon="-0.95551">
        <ele>55</ele>
        <time>2021-05-08T09:22:15Z</time>
      </trkpt>
      <trkpt lat="43.57103" lon="-0.95552">
        <ele>55</ele>
        <time>2021-05-08T09:22:16Z</time>
      </trkpt>
      <trkpt lat="43.57105" lon="-0.95553">
        <ele>55</ele>
        <time>2021-05-08T09:22:17Z</time>
      </trkpt>
      <trkpt lat="43.57107" lon="-0.95553">
        <ele>55</ele>
        <time>2021-05-08T09:22:18Z</time>
      </trkpt>
      <trkpt lat="43.5711" lon="-0.95554">
        <ele>55</ele>
        <time>2021-05-08T09:22:19Z</time>
      </trkpt>
      <trkpt lat="43.57112" lon="-0.95554">
        <ele>55</ele>
        <time>2021-05-08T09:22:20Z</time>
      </trkpt>
      <trkpt lat="43.57114" lon="-0.95554">
        <ele>55</ele>
        <time>2021-05-08T09:22:21Z</time>
      </trkpt>
      <trkpt lat="43.57117" lon="-0.95555">
        <ele>55</ele>
        <time>2021-05-08T09:22:22Z</time>
      </trkpt>
      <trkpt lat="43.57119" lon="-0.95555">
        <ele>55</ele>
        <time>2021-05-08T09:22:23Z</time>
      </trkpt>
      <trkpt lat="43.57121" lon="-0.95556">
        <ele>55</ele>
        <time>2021-05-08T09:22:24Z</time>
      </trkpt>
      <trkpt lat="43.57123" lon="-0.95556">
        <ele>55</ele>
        <time>2021-05-08T09:22:25Z</time>
      </trkpt>
      <trkpt lat="43.57125" lon="-0.95557">
        <ele>55</ele>
        <time>2021-05-08T09:22:26Z</time>
      </trkpt>
      <trkpt lat="43.57127" lon="-0.95557">
        <ele>55</ele>
        <time>2021-05-08T09:22:27Z</time>
      </trkpt>
      <trkpt lat="43.57129" lon="-0.95557">
        <ele>55</ele>
        <time>2021-05-08T09:22:28Z</time>
      </trkpt>
      <trkpt lat="43.57131" lon="-0.95558">
        <ele>55</ele>
        <time>2021-05-08T09:22:29Z</time>
      </trkpt>
      <trkpt lat="43.57133" lon="-0.95558">
        <ele>55</ele>
        <time>2021-05-08T09:22:30Z</time>
      </trkpt>
      <trkpt lat="43.57135" lon="-0.95558">
        <ele>55</ele>
        <time>2021-05-08T09:22:31Z</time>
      </trkpt>
      <trkpt lat="43.57137" lon="-0.95559">
        <ele>55</ele>
        <time>2021-05-08T09:22:32Z</time>
      </trkpt>
      <trkpt lat="43.5714" lon="-0.95559">
        <ele>55</ele>
        <time>2021-05-08T09:22:33Z</time>
      </trkpt>
      <trkpt lat="43.57142" lon="-0.95559">
        <ele>55</ele>
        <time>2021-05-08T09:22:34Z</time>
      </trkpt>
      <trkpt lat="43.57145" lon="-0.9556">
        <ele>55</ele>
        <time>2021-05-08T09:22:35Z</time>
      </trkpt>
      <trkpt lat="43.57147" lon="-0.9556">
        <ele>55</ele>
        <time>2021-05-08T09:22:36Z</time>
      </trkpt>
      <trkpt lat="43.57149" lon="-0.95561">
        <ele>55</ele>
        <time>2021-05-08T09:22:37Z</time>
      </trkpt>
      <trkpt lat="43.57152" lon="-0.95561">
        <ele>55</ele>
        <time>2021-05-08T09:22:38Z</time>
      </trkpt>
      <trkpt lat="43.57154" lon="-0.95562">
        <ele>55</ele>
        <time>2021-05-08T09:22:39Z</time>
      </trkpt>
      <trkpt lat="43.57156" lon="-0.95563">
        <ele>55</ele>
        <time>2021-05-08T09:22:40Z</time>
      </trkpt>
      <trkpt lat="43.57158" lon="-0.95564">
        <ele>55</ele>
        <time>2021-05-08T09:22:41Z</time>
      </trkpt>
      <trkpt lat="43.57161" lon="-0.95564">
        <ele>55</ele>
        <time>2021-05-08T09:22:42Z</time>
      </trkpt>
      <trkpt lat="43.57163" lon="-0.95565">
        <ele>54</ele>
        <time>2021-05-08T09:22:43Z</time>
      </trkpt>
      <trkpt lat="43.57166" lon="-0.95565">
        <ele>54</ele>
        <time>2021-05-08T09:22:44Z</time>
      </trkpt>
      <trkpt lat="43.57168" lon="-0.95566">
        <ele>54</ele>
        <time>2021-05-08T09:22:45Z</time>
      </trkpt>
      <trkpt lat="43.5717" lon="-0.95566">
        <ele>54</ele>
        <time>2021-05-08T09:22:46Z</time>
      </trkpt>
      <trkpt lat="43.57172" lon="-0.95566">
        <ele>54</ele>
        <time>2021-05-08T09:22:47Z</time>
      </trkpt>
      <trkpt lat="43.57175" lon="-0.95567">
        <ele>54</ele>
        <time>2021-05-08T09:22:48Z</time>
      </trkpt>
      <trkpt lat="43.57177" lon="-0.95567">
        <ele>54</ele>
        <time>2021-05-08T09:22:49Z</time>
      </trkpt>
      <trkpt lat="43.57179" lon="-0.95567">
        <ele>54</ele>
        <time>2021-05-08T09:22:50Z</time>
      </trkpt>
      <trkpt lat="43.57181" lon="-0.95568">
        <ele>54</ele>
        <time>2021-05-08T09:22:51Z</time>
      </trkpt>
      <trkpt lat="43.57183" lon="-0.95568">
        <ele>54</ele>
        <time>2021-05-08T09:22:52Z</time>
      </trkpt>
      <trkpt lat="43.57185" lon="-0.95569">
        <ele>54</ele>
        <time>2021-05-08T09:22:53Z</time>
      </trkpt>
      <trkpt lat="43.57188" lon="-0.95569">
        <ele>54</ele>
        <time>2021-05-08T09:22:54Z</time>
      </trkpt>
      <trkpt lat="43.5719" lon="-0.9557">
        <ele>54</ele>
        <time>2021-05-08T09:22:55Z</time>
      </trkpt>
      <trkpt lat="43.57192" lon="-0.9557">
        <ele>54</ele>
        <time>2021-05-08T09:22:56Z</time>
      </trkpt>
      <trkpt lat="43.57194" lon="-0.95571">
        <ele>54</ele>
        <time>2021-05-08T09:22:57Z</time>
      </trkpt>
      <trkpt lat="43.57196" lon="-0.95572">
        <ele>54</ele>
        <time>2021-05-08T09:22:58Z</time>
      </trkpt>
      <trkpt lat="43.57198" lon="-0.95573">
        <ele>54</ele>
        <time>2021-05-08T09:22:59Z</time>
      </trkpt>
      <trkpt lat="43.572" lon="-0.95573">
        <ele>54</ele>
        <time>2021-05-08T09:23:00Z</time>
      </trkpt>
      <trkpt lat="43.57202" lon="-0.95574">
        <ele>54</ele>
        <time>2021-05-08T09:23:01Z</time>
      </trkpt>
      <trkpt lat="43.57204" lon="-0.95574">
        <ele>54</ele>
        <time>2021-05-08T09:23:02Z</time>
      </trkpt>
      <trkpt lat="43.57207" lon="-0.95575">
        <ele>54</ele>
        <time>2021-05-08T09:23:03Z</time>
      </trkpt>
      <trkpt lat="43.57209" lon="-0.95576">
        <ele>54</ele>
        <time>2021-05-08T09:23:04Z</time>
      </trkpt>
      <trkpt lat="43.57211" lon="-0.95576">
        <ele>54</ele>
        <time>2021-05-08T09:23:05Z</time>
      </trkpt>
      <trkpt lat="43.57214" lon="-0.95577">
        <ele>54</ele>
        <time>2021-05-08T09:23:06Z</time>
      </trkpt>
      <trkpt lat="43.57216" lon="-0.95578">
        <ele>54</ele>
        <time>2021-05-08T09:23:07Z</time>
      </trkpt>
      <trkpt lat="43.57219" lon="-0.95578">
        <ele>54</ele>
        <time>2021-05-08T09:23:08Z</time>
      </trkpt>
      <trkpt lat="43.57221" lon="-0.95579">
        <ele>54</ele>
        <time>2021-05-08T09:23:09Z</time>
      </trkpt>
      <trkpt lat="43.57223" lon="-0.95579">
        <ele>54</ele>
        <time>2021-05-08T09:23:10Z</time>
      </trkpt>
      <trkpt lat="43.57226" lon="-0.9558">
        <ele>54</ele>
        <time>2021-05-08T09:23:11Z</time>
      </trkpt>
      <trkpt lat="43.57228" lon="-0.9558">
        <ele>54</ele>
        <time>2021-05-08T09:23:12Z</time>
      </trkpt>
      <trkpt lat="43.5723" lon="-0.95581">
        <ele>54</ele>
        <time>2021-05-08T09:23:13Z</time>
      </trkpt>
      <trkpt lat="43.57233" lon="-0.95581">
        <ele>54</ele>
        <time>2021-05-08T09:23:14Z</time>
      </trkpt>
      <trkpt lat="43.57235" lon="-0.95582">
        <ele>54</ele>
        <time>2021-05-08T09:23:15Z</time>
      </trkpt>
      <trkpt lat="43.57237" lon="-0.95582">
        <ele>54</ele>
        <time>2021-05-08T09:23:16Z</time>
      </trkpt>
      <trkpt lat="43.57239" lon="-0.95583">
        <ele>55</ele>
        <time>2021-05-08T09:23:17Z</time>
      </trkpt>
      <trkpt lat="43.57242" lon="-0.95584">
        <ele>55</ele>
        <time>2021-05-08T09:23:18Z</time>
      </trkpt>
      <trkpt lat="43.57244" lon="-0.95584">
        <ele>55</ele>
        <time>2021-05-08T09:23:19Z</time>
      </trkpt>
      <trkpt lat="43.57246" lon="-0.95585">
        <ele>55</ele>
        <time>2021-05-08T09:23:20Z</time>
      </trkpt>
      <trkpt lat="43.57249" lon="-0.95586">
        <ele>55</ele>
        <time>2021-05-08T09:23:21Z</time>
      </trkpt>
      <trkpt lat="43.57251" lon="-0.95587">
        <ele>55</ele>
        <time>2021-05-08T09:23:22Z</time>
      </trkpt>
      <trkpt lat="43.57254" lon="-0.95587">
        <ele>55</ele>
        <time>2021-05-08T09:23:23Z</time>
      </trkpt>
      <trkpt lat="43.57256" lon="-0.95588">
        <ele>55</ele>
        <time>2021-05-08T09:23:24Z</time>
      </trkpt>
      <trkpt lat="43.57258" lon="-0.95588">
        <ele>55</ele>
        <time>2021-05-08T09:23:25Z</time>
      </trkpt>
      <trkpt lat="43.57261" lon="-0.95589">
        <ele>55</ele>
        <time>2021-05-08T09:23:26Z</time>
      </trkpt>
      <trkpt lat="43.57263" lon="-0.95589">
        <ele>55</ele>
        <time>2021-05-08T09:23:27Z</time>
      </trkpt>
      <trkpt lat="43.57265" lon="-0.9559">
        <ele>55</ele>
        <time>2021-05-08T09:23:28Z</time>
      </trkpt>
      <trkpt lat="43.57267" lon="-0.9559">
        <ele>55</ele>
        <time>2021-05-08T09:23:29Z</time>
      </trkpt>
      <trkpt lat="43.57269" lon="-0.9559">
        <ele>55</ele>
        <time>2021-05-08T09:23:30Z</time>
      </trkpt>
      <trkpt lat="43.57271" lon="-0.95591">
        <ele>55</ele>
        <time>2021-05-08T09:23:31Z</time>
      </trkpt>
      <trkpt lat="43.57273" lon="-0.95591">
        <ele>55</ele>
        <time>2021-05-08T09:23:32Z</time>
      </trkpt>
      <trkpt lat="43.57275" lon="-0.95591">
        <ele>55</ele>
        <time>2021-05-08T09:23:33Z</time>
      </trkpt>
      <trkpt lat="43.57277" lon="-0.95592">
        <ele>55</ele>
        <time>2021-05-08T09:23:34Z</time>
      </trkpt>
      <trkpt lat="43.57279" lon="-0.95593">
        <ele>55</ele>
        <time>2021-05-08T09:23:35Z</time>
      </trkpt>
      <trkpt lat="43.57281" lon="-0.95593">
        <ele>55</ele>
        <time>2021-05-08T09:23:36Z</time>
      </trkpt>
      <trkpt lat="43.57283" lon="-0.95594">
        <ele>55</ele>
        <time>2021-05-08T09:23:37Z</time>
      </trkpt>
      <trkpt lat="43.57286" lon="-0.95595">
        <ele>54</ele>
        <time>2021-05-08T09:23:38Z</time>
      </trkpt>
      <trkpt lat="43.57288" lon="-0.95596">
        <ele>54</ele>
        <time>2021-05-08T09:23:39Z</time>
      </trkpt>
      <trkpt lat="43.5729" lon="-0.95597">
        <ele>54</ele>
        <time>2021-05-08T09:23:40Z</time>
      </trkpt>
      <trkpt lat="43.57291" lon="-0.95599">
        <ele>54</ele>
        <time>2021-05-08T09:23:41Z</time>
      </trkpt>
      <trkpt lat="43.57293" lon="-0.95601">
        <ele>54</ele>
        <time>2021-05-08T09:23:42Z</time>
      </trkpt>
      <trkpt lat="43.57295" lon="-0.95602">
        <ele>54</ele>
        <time>2021-05-08T09:23:43Z</time>
      </trkpt>
      <trkpt lat="43.57297" lon="-0.95604">
        <ele>54</ele>
        <time>2021-05-08T09:23:44Z</time>
      </trkpt>
      <trkpt lat="43.57298" lon="-0.95605">
        <ele>54</ele>
        <time>2021-05-08T09:23:45Z</time>
      </trkpt>
      <trkpt lat="43.573" lon="-0.95606">
        <ele>54</ele>
        <time>2021-05-08T09:23:46Z</time>
      </trkpt>
      <trkpt lat="43.57301" lon="-0.95606">
        <ele>54</ele>
        <time>2021-05-08T09:23:47Z</time>
      </trkpt>
      <trkpt lat="43.57302" lon="-0.95607">
        <ele>54</ele>
        <time>2021-05-08T09:23:48Z</time>
      </trkpt>
      <trkpt lat="43.57303" lon="-0.95606">
        <ele>54</ele>
        <time>2021-05-08T09:23:49Z</time>
      </trkpt>
      <trkpt lat="43.57304" lon="-0.95605">
        <ele>54</ele>
        <time>2021-05-08T09:23:50Z</time>
      </trkpt>
      <trkpt lat="43.57305" lon="-0.95603">
        <ele>54</ele>
        <time>2021-05-08T09:23:51Z</time>
      </trkpt>
      <trkpt lat="43.57307" lon="-0.95602">
        <ele>54</ele>
        <time>2021-05-08T09:23:52Z</time>
      </trkpt>
      <trkpt lat="43.57309" lon="-0.956">
        <ele>54</ele>
        <time>2021-05-08T09:23:53Z</time>
      </trkpt>
      <trkpt lat="43.57311" lon="-0.95598">
        <ele>54</ele>
        <time>2021-05-08T09:23:54Z</time>
      </trkpt>
      <trkpt lat="43.57313" lon="-0.95596">
        <ele>54</ele>
        <time>2021-05-08T09:23:55Z</time>
      </trkpt>
      <trkpt lat="43.57315" lon="-0.95594">
        <ele>54</ele>
        <time>2021-05-08T09:23:56Z</time>
      </trkpt>
      <trkpt lat="43.57316" lon="-0.95592">
        <ele>54</ele>
        <time>2021-05-08T09:23:57Z</time>
      </trkpt>
      <trkpt lat="43.57318" lon="-0.9559">
        <ele>53</ele>
        <time>2021-05-08T09:23:58Z</time>
      </trkpt>
      <trkpt lat="43.5732" lon="-0.95588">
        <ele>53</ele>
        <time>2021-05-08T09:23:59Z</time>
      </trkpt>
      <trkpt lat="43.57321" lon="-0.95586">
        <ele>53</ele>
        <time>2021-05-08T09:24:00Z</time>
      </trkpt>
      <trkpt lat="43.57322" lon="-0.95585">
        <ele>53</ele>
        <time>2021-05-08T09:24:01Z</time>
      </trkpt>
      <trkpt lat="43.57323" lon="-0.95584">
        <ele>53</ele>
        <time>2021-05-08T09:24:02Z</time>
      </trkpt>
      <trkpt lat="43.57325" lon="-0.95584">
        <ele>53</ele>
        <time>2021-05-08T09:24:03Z</time>
      </trkpt>
      <trkpt lat="43.57327" lon="-0.95584">
        <ele>53</ele>
        <time>2021-05-08T09:24:04Z</time>
      </trkpt>
      <trkpt lat="43.57328" lon="-0.95583">
        <ele>53</ele>
        <time>2021-05-08T09:24:05Z</time>
      </trkpt>
      <trkpt lat="43.5733" lon="-0.95582">
        <ele>53</ele>
        <time>2021-05-08T09:24:06Z</time>
      </trkpt>
      <trkpt lat="43.57332" lon="-0.95581">
        <ele>53</ele>
        <time>2021-05-08T09:24:07Z</time>
      </trkpt>
      <trkpt lat="43.57334" lon="-0.95579">
        <ele>53</ele>
        <time>2021-05-08T09:24:08Z</time>
      </trkpt>
      <trkpt lat="43.57336" lon="-0.95577">
        <ele>53</ele>
        <time>2021-05-08T09:24:09Z</time>
      </trkpt>
      <trkpt lat="43.57338" lon="-0.95575">
        <ele>53</ele>
        <time>2021-05-08T09:24:10Z</time>
      </trkpt>
      <trkpt lat="43.5734" lon="-0.95572">
        <ele>53</ele>
        <time>2021-05-08T09:24:11Z</time>
      </trkpt>
      <trkpt lat="43.57341" lon="-0.9557">
        <ele>53</ele>
        <time>2021-05-08T09:24:12Z</time>
      </trkpt>
      <trkpt lat="43.57341" lon="-0.95567">
        <ele>53</ele>
        <time>2021-05-08T09:24:13Z</time>
      </trkpt>
      <trkpt lat="43.57342" lon="-0.95565">
        <ele>53</ele>
        <time>2021-05-08T09:24:14Z</time>
      </trkpt>
      <trkpt lat="43.57342" lon="-0.95563">
        <ele>53</ele>
        <time>2021-05-08T09:24:15Z</time>
      </trkpt>
      <trkpt lat="43.57342" lon="-0.95561">
        <ele>53</ele>
        <time>2021-05-08T09:24:16Z</time>
      </trkpt>
      <trkpt lat="43.57342" lon="-0.95558">
        <ele>53</ele>
        <time>2021-05-08T09:24:17Z</time>
      </trkpt>
      <trkpt lat="43.57342" lon="-0.95555">
        <ele>53</ele>
        <time>2021-05-08T09:24:18Z</time>
      </trkpt>
      <trkpt lat="43.57342" lon="-0.95552">
        <ele>53</ele>
        <time>2021-05-08T09:24:19Z</time>
      </trkpt>
      <trkpt lat="43.57342" lon="-0.95548">
        <ele>53</ele>
        <time>2021-05-08T09:24:20Z</time>
      </trkpt>
      <trkpt lat="43.57342" lon="-0.95545">
        <ele>53</ele>
        <time>2021-05-08T09:24:21Z</time>
      </trkpt>
      <trkpt lat="43.57343" lon="-0.95543">
        <ele>53</ele>
        <time>2021-05-08T09:24:22Z</time>
      </trkpt>
      <trkpt lat="43.57344" lon="-0.95539">
        <ele>50</ele>
        <time>2021-05-08T09:24:32Z</time>
      </trkpt>
      <trkpt lat="43.57344" lon="-0.95538">
        <ele>49</ele>
        <time>2021-05-08T09:24:33Z</time>
      </trkpt>
      <trkpt lat="43.57345" lon="-0.95537">
        <ele>49</ele>
        <time>2021-05-08T09:24:34Z</time>
      </trkpt>
      <trkpt lat="43.57345" lon="-0.95536">
        <ele>49</ele>
        <time>2021-05-08T09:24:35Z</time>
      </trkpt>
      <trkpt lat="43.57346" lon="-0.95535">
        <ele>49</ele>
        <time>2021-05-08T09:24:36Z</time>
      </trkpt>
      <trkpt lat="43.57347" lon="-0.95535">
        <ele>49</ele>
        <time>2021-05-08T09:24:37Z</time>
      </trkpt>
      <trkpt lat="43.57348" lon="-0.95535">
        <ele>49</ele>
        <time>2021-05-08T09:24:38Z</time>
      </trkpt>
      <trkpt lat="43.57349" lon="-0.95535">
        <ele>49</ele>
        <time>2021-05-08T09:24:39Z</time>
      </trkpt>
      <trkpt lat="43.5735" lon="-0.95535">
        <ele>49</ele>
        <time>2021-05-08T09:24:40Z</time>
      </trkpt>
      <trkpt lat="43.57352" lon="-0.95534">
        <ele>49</ele>
        <time>2021-05-08T09:24:41Z</time>
      </trkpt>
      <trkpt lat="43.57354" lon="-0.95534">
        <ele>50</ele>
        <time>2021-05-08T09:24:42Z</time>
      </trkpt>
      <trkpt lat="43.57355" lon="-0.95533">
        <ele>50</ele>
        <time>2021-05-08T09:24:43Z</time>
      </trkpt>
      <trkpt lat="43.57357" lon="-0.95532">
        <ele>50</ele>
        <time>2021-05-08T09:24:44Z</time>
      </trkpt>
      <trkpt lat="43.57359" lon="-0.95531">
        <ele>50</ele>
        <time>2021-05-08T09:24:45Z</time>
      </trkpt>
      <trkpt lat="43.57361" lon="-0.9553">
        <ele>50</ele>
        <time>2021-05-08T09:24:46Z</time>
      </trkpt>
      <trkpt lat="43.57363" lon="-0.9553">
        <ele>50</ele>
        <time>2021-05-08T09:24:47Z</time>
      </trkpt>
      <trkpt lat="43.57365" lon="-0.95529">
        <ele>50</ele>
        <time>2021-05-08T09:24:48Z</time>
      </trkpt>
      <trkpt lat="43.57367" lon="-0.95529">
        <ele>50</ele>
        <time>2021-05-08T09:24:49Z</time>
      </trkpt>
      <trkpt lat="43.57368" lon="-0.95529">
        <ele>50</ele>
        <time>2021-05-08T09:24:50Z</time>
      </trkpt>
      <trkpt lat="43.57369" lon="-0.95529">
        <ele>50</ele>
        <time>2021-05-08T09:24:51Z</time>
      </trkpt>
      <trkpt lat="43.5737" lon="-0.95529">
        <ele>50</ele>
        <time>2021-05-08T09:24:52Z</time>
      </trkpt>
      <trkpt lat="43.5737" lon="-0.95529">
        <ele>50</ele>
        <time>2021-05-08T09:24:53Z</time>
      </trkpt>
      <trkpt lat="43.5737" lon="-0.95529">
        <ele>50</ele>
        <time>2021-05-08T09:24:54Z</time>
      </trkpt>
      <trkpt lat="43.5737" lon="-0.95529">
        <ele>50</ele>
        <time>2021-05-08T09:24:55Z</time>
      </trkpt>
      <trkpt lat="43.5737" lon="-0.9553">
        <ele>50</ele>
        <time>2021-05-08T09:24:56Z</time>
      </trkpt>
      <trkpt lat="43.57371" lon="-0.9553">
        <ele>50</ele>
        <time>2021-05-08T09:24:57Z</time>
      </trkpt>
      <trkpt lat="43.57371" lon="-0.95531">
        <ele>49</ele>
        <time>2021-05-08T09:24:58Z</time>
      </trkpt>
      <trkpt lat="43.57371" lon="-0.95532">
        <ele>49</ele>
        <time>2021-05-08T09:24:59Z</time>
      </trkpt>
      <trkpt lat="43.57372" lon="-0.95533">
        <ele>49</ele>
        <time>2021-05-08T09:25:00Z</time>
      </trkpt>
      <trkpt lat="43.57372" lon="-0.95533">
        <ele>49</ele>
        <time>2021-05-08T09:25:01Z</time>
      </trkpt>
      <trkpt lat="43.57373" lon="-0.95534">
        <ele>49</ele>
        <time>2021-05-08T09:25:02Z</time>
      </trkpt>
      <trkpt lat="43.57373" lon="-0.95535">
        <ele>49</ele>
        <time>2021-05-08T09:25:03Z</time>
      </trkpt>
      <trkpt lat="43.57374" lon="-0.95535">
        <ele>49</ele>
        <time>2021-05-08T09:25:04Z</time>
      </trkpt>
      <trkpt lat="43.57375" lon="-0.95536">
        <ele>49</ele>
        <time>2021-05-08T09:25:05Z</time>
      </trkpt>
      <trkpt lat="43.57376" lon="-0.95536">
        <ele>49</ele>
        <time>2021-05-08T09:25:06Z</time>
      </trkpt>
      <trkpt lat="43.57377" lon="-0.95537">
        <ele>50</ele>
        <time>2021-05-08T09:25:07Z</time>
      </trkpt>
      <trkpt lat="43.57378" lon="-0.95537">
        <ele>50</ele>
        <time>2021-05-08T09:25:08Z</time>
      </trkpt>
      <trkpt lat="43.57379" lon="-0.95538">
        <ele>50</ele>
        <time>2021-05-08T09:25:09Z</time>
      </trkpt>
      <trkpt lat="43.5738" lon="-0.95538">
        <ele>50</ele>
        <time>2021-05-08T09:25:10Z</time>
      </trkpt>
      <trkpt lat="43.57382" lon="-0.95538">
        <ele>50</ele>
        <time>2021-05-08T09:25:11Z</time>
      </trkpt>
      <trkpt lat="43.57383" lon="-0.95538">
        <ele>51</ele>
        <time>2021-05-08T09:25:12Z</time>
      </trkpt>
      <trkpt lat="43.57385" lon="-0.95538">
        <ele>50</ele>
        <time>2021-05-08T09:25:13Z</time>
      </trkpt>
      <trkpt lat="43.57387" lon="-0.95537">
        <ele>50</ele>
        <time>2021-05-08T09:25:14Z</time>
      </trkpt>
      <trkpt lat="43.57388" lon="-0.95537">
        <ele>50</ele>
        <time>2021-05-08T09:25:15Z</time>
      </trkpt>
      <trkpt lat="43.5739" lon="-0.95536">
        <ele>50</ele>
        <time>2021-05-08T09:25:16Z</time>
      </trkpt>
      <trkpt lat="43.57391" lon="-0.95536">
        <ele>50</ele>
        <time>2021-05-08T09:25:17Z</time>
      </trkpt>
      <trkpt lat="43.57392" lon="-0.95535">
        <ele>50</ele>
        <time>2021-05-08T09:25:18Z</time>
      </trkpt>
      <trkpt lat="43.57392" lon="-0.95535">
        <ele>50</ele>
        <time>2021-05-08T09:25:19Z</time>
      </trkpt>
      <trkpt lat="43.57393" lon="-0.95535">
        <ele>50</ele>
        <time>2021-05-08T09:25:20Z</time>
      </trkpt>
      <trkpt lat="43.57393" lon="-0.95534">
        <ele>50</ele>
        <time>2021-05-08T09:25:21Z</time>
      </trkpt>
      <trkpt lat="43.57394" lon="-0.95534">
        <ele>51</ele>
        <time>2021-05-08T09:25:22Z</time>
      </trkpt>
      <trkpt lat="43.57395" lon="-0.95533">
        <ele>50</ele>
        <time>2021-05-08T09:25:23Z</time>
      </trkpt>
      <trkpt lat="43.57395" lon="-0.95532">
        <ele>50</ele>
        <time>2021-05-08T09:25:24Z</time>
      </trkpt>
      <trkpt lat="43.57396" lon="-0.95532">
        <ele>50</ele>
        <time>2021-05-08T09:25:25Z</time>
      </trkpt>
      <trkpt lat="43.57396" lon="-0.95531">
        <ele>50</ele>
        <time>2021-05-08T09:25:26Z</time>
      </trkpt>
      <trkpt lat="43.57397" lon="-0.9553">
        <ele>50</ele>
        <time>2021-05-08T09:25:27Z</time>
      </trkpt>
      <trkpt lat="43.57397" lon="-0.9553">
        <ele>50</ele>
        <time>2021-05-08T09:25:28Z</time>
      </trkpt>
      <trkpt lat="43.57398" lon="-0.95529">
        <ele>50</ele>
        <time>2021-05-08T09:25:29Z</time>
      </trkpt>
      <trkpt lat="43.57399" lon="-0.95528">
        <ele>50</ele>
        <time>2021-05-08T09:25:30Z</time>
      </trkpt>
      <trkpt lat="43.574" lon="-0.95528">
        <ele>50</ele>
        <time>2021-05-08T09:25:31Z</time>
      </trkpt>
      <trkpt lat="43.57401" lon="-0.95527">
        <ele>50</ele>
        <time>2021-05-08T09:25:32Z</time>
      </trkpt>
      <trkpt lat="43.57402" lon="-0.95526">
        <ele>50</ele>
        <time>2021-05-08T09:25:33Z</time>
      </trkpt>
      <trkpt lat="43.57404" lon="-0.95526">
        <ele>50</ele>
        <time>2021-05-08T09:25:34Z</time>
      </trkpt>
      <trkpt lat="43.57406" lon="-0.95525">
        <ele>50</ele>
        <time>2021-05-08T09:25:35Z</time>
      </trkpt>
      <trkpt lat="43.57407" lon="-0.95524">
        <ele>50</ele>
        <time>2021-05-08T09:25:36Z</time>
      </trkpt>
      <trkpt lat="43.57409" lon="-0.95522">
        <ele>50</ele>
        <time>2021-05-08T09:25:37Z</time>
      </trkpt>
      <trkpt lat="43.57411" lon="-0.95521">
        <ele>50</ele>
        <time>2021-05-08T09:25:38Z</time>
      </trkpt>
      <trkpt lat="43.57413" lon="-0.95519">
        <ele>50</ele>
        <time>2021-05-08T09:25:39Z</time>
      </trkpt>
      <trkpt lat="43.57415" lon="-0.95517">
        <ele>50</ele>
        <time>2021-05-08T09:25:40Z</time>
      </trkpt>
      <trkpt lat="43.57417" lon="-0.95516">
        <ele>50</ele>
        <time>2021-05-08T09:25:41Z</time>
      </trkpt>
      <trkpt lat="43.57419" lon="-0.95515">
        <ele>50</ele>
        <time>2021-05-08T09:25:42Z</time>
      </trkpt>
      <trkpt lat="43.57421" lon="-0.95514">
        <ele>49</ele>
        <time>2021-05-08T09:25:43Z</time>
      </trkpt>
      <trkpt lat="43.57423" lon="-0.95513">
        <ele>49</ele>
        <time>2021-05-08T09:25:44Z</time>
      </trkpt>
      <trkpt lat="43.57425" lon="-0.95513">
        <ele>49</ele>
        <time>2021-05-08T09:25:45Z</time>
      </trkpt>
      <trkpt lat="43.57427" lon="-0.95512">
        <ele>49</ele>
        <time>2021-05-08T09:25:46Z</time>
      </trkpt>
      <trkpt lat="43.57428" lon="-0.95511">
        <ele>49</ele>
        <time>2021-05-08T09:25:47Z</time>
      </trkpt>
      <trkpt lat="43.5743" lon="-0.95511">
        <ele>49</ele>
        <time>2021-05-08T09:25:48Z</time>
      </trkpt>
      <trkpt lat="43.57432" lon="-0.95509">
        <ele>49</ele>
        <time>2021-05-08T09:25:49Z</time>
      </trkpt>
      <trkpt lat="43.57434" lon="-0.95508">
        <ele>49</ele>
        <time>2021-05-08T09:25:50Z</time>
      </trkpt>
      <trkpt lat="43.57435" lon="-0.95506">
        <ele>49</ele>
        <time>2021-05-08T09:25:51Z</time>
      </trkpt>
      <trkpt lat="43.57437" lon="-0.95504">
        <ele>50</ele>
        <time>2021-05-08T09:25:52Z</time>
      </trkpt>
      <trkpt lat="43.57438" lon="-0.95502">
        <ele>50</ele>
        <time>2021-05-08T09:25:53Z</time>
      </trkpt>
      <trkpt lat="43.5744" lon="-0.95499">
        <ele>50</ele>
        <time>2021-05-08T09:25:54Z</time>
      </trkpt>
      <trkpt lat="43.57441" lon="-0.95498">
        <ele>50</ele>
        <time>2021-05-08T09:25:55Z</time>
      </trkpt>
      <trkpt lat="43.57443" lon="-0.95496">
        <ele>50</ele>
        <time>2021-05-08T09:25:56Z</time>
      </trkpt>
      <trkpt lat="43.57445" lon="-0.95494">
        <ele>50</ele>
        <time>2021-05-08T09:25:57Z</time>
      </trkpt>
      <trkpt lat="43.57446" lon="-0.95492">
        <ele>50</ele>
        <time>2021-05-08T09:25:58Z</time>
      </trkpt>
      <trkpt lat="43.57447" lon="-0.95489">
        <ele>50</ele>
        <time>2021-05-08T09:25:59Z</time>
      </trkpt>
      <trkpt lat="43.57448" lon="-0.95487">
        <ele>50</ele>
        <time>2021-05-08T09:26:00Z</time>
      </trkpt>
      <trkpt lat="43.57448" lon="-0.95484">
        <ele>50</ele>
        <time>2021-05-08T09:26:01Z</time>
      </trkpt>
      <trkpt lat="43.57448" lon="-0.95481">
        <ele>50</ele>
        <time>2021-05-08T09:26:02Z</time>
      </trkpt>
      <trkpt lat="43.57449" lon="-0.95478">
        <ele>50</ele>
        <time>2021-05-08T09:26:03Z</time>
      </trkpt>
      <trkpt lat="43.57449" lon="-0.95475">
        <ele>50</ele>
        <time>2021-05-08T09:26:04Z</time>
      </trkpt>
      <trkpt lat="43.5745" lon="-0.95472">
        <ele>50</ele>
        <time>2021-05-08T09:26:05Z</time>
      </trkpt>
      <trkpt lat="43.57451" lon="-0.95469">
        <ele>50</ele>
        <time>2021-05-08T09:26:06Z</time>
      </trkpt>
      <trkpt lat="43.57453" lon="-0.95467">
        <ele>50</ele>
        <time>2021-05-08T09:26:07Z</time>
      </trkpt>
      <trkpt lat="43.57454" lon="-0.95464">
        <ele>50</ele>
        <time>2021-05-08T09:26:08Z</time>
      </trkpt>
      <trkpt lat="43.57456" lon="-0.95462">
        <ele>50</ele>
        <time>2021-05-08T09:26:09Z</time>
      </trkpt>
      <trkpt lat="43.57458" lon="-0.9546">
        <ele>50</ele>
        <time>2021-05-08T09:26:10Z</time>
      </trkpt>
      <trkpt lat="43.57461" lon="-0.95458">
        <ele>50</ele>
        <time>2021-05-08T09:26:11Z</time>
      </trkpt>
      <trkpt lat="43.57463" lon="-0.95456">
        <ele>51</ele>
        <time>2021-05-08T09:26:12Z</time>
      </trkpt>
      <trkpt lat="43.57465" lon="-0.95454">
        <ele>50</ele>
        <time>2021-05-08T09:26:13Z</time>
      </trkpt>
      <trkpt lat="43.57467" lon="-0.95452">
        <ele>50</ele>
        <time>2021-05-08T09:26:14Z</time>
      </trkpt>
      <trkpt lat="43.57469" lon="-0.9545">
        <ele>50</ele>
        <time>2021-05-08T09:26:15Z</time>
      </trkpt>
      <trkpt lat="43.57471" lon="-0.95449">
        <ele>50</ele>
        <time>2021-05-08T09:26:16Z</time>
      </trkpt>
      <trkpt lat="43.57473" lon="-0.95447">
        <ele>50</ele>
        <time>2021-05-08T09:26:17Z</time>
      </trkpt>
      <trkpt lat="43.57476" lon="-0.95445">
        <ele>50</ele>
        <time>2021-05-08T09:26:18Z</time>
      </trkpt>
      <trkpt lat="43.57478" lon="-0.95443">
        <ele>50</ele>
        <time>2021-05-08T09:26:19Z</time>
      </trkpt>
      <trkpt lat="43.5748" lon="-0.95441">
        <ele>50</ele>
        <time>2021-05-08T09:26:20Z</time>
      </trkpt>
      <trkpt lat="43.57481" lon="-0.95438">
        <ele>50</ele>
        <time>2021-05-08T09:26:21Z</time>
      </trkpt>
      <trkpt lat="43.57483" lon="-0.95436">
        <ele>50</ele>
        <time>2021-05-08T09:26:22Z</time>
      </trkpt>
      <trkpt lat="43.57485" lon="-0.95434">
        <ele>50</ele>
        <time>2021-05-08T09:26:23Z</time>
      </trkpt>
      <trkpt lat="43.57487" lon="-0.95432">
        <ele>50</ele>
        <time>2021-05-08T09:26:24Z</time>
      </trkpt>
      <trkpt lat="43.57489" lon="-0.9543">
        <ele>50</ele>
        <time>2021-05-08T09:26:25Z</time>
      </trkpt>
      <trkpt lat="43.57492" lon="-0.95429">
        <ele>50</ele>
        <time>2021-05-08T09:26:26Z</time>
      </trkpt>
      <trkpt lat="43.57494" lon="-0.95427">
        <ele>50</ele>
        <time>2021-05-08T09:26:27Z</time>
      </trkpt>
      <trkpt lat="43.57496" lon="-0.95426">
        <ele>50</ele>
        <time>2021-05-08T09:26:28Z</time>
      </trkpt>
      <trkpt lat="43.57498" lon="-0.95424">
        <ele>50</ele>
        <time>2021-05-08T09:26:29Z</time>
      </trkpt>
      <trkpt lat="43.575" lon="-0.95423">
        <ele>50</ele>
        <time>2021-05-08T09:26:30Z</time>
      </trkpt>
      <trkpt lat="43.57502" lon="-0.95422">
        <ele>50</ele>
        <time>2021-05-08T09:26:31Z</time>
      </trkpt>
      <trkpt lat="43.57505" lon="-0.95421">
        <ele>50</ele>
        <time>2021-05-08T09:26:32Z</time>
      </trkpt>
      <trkpt lat="43.57507" lon="-0.9542">
        <ele>49</ele>
        <time>2021-05-08T09:26:33Z</time>
      </trkpt>
      <trkpt lat="43.57509" lon="-0.95419">
        <ele>49</ele>
        <time>2021-05-08T09:26:34Z</time>
      </trkpt>
      <trkpt lat="43.57512" lon="-0.95419">
        <ele>49</ele>
        <time>2021-05-08T09:26:35Z</time>
      </trkpt>
      <trkpt lat="43.57514" lon="-0.95418">
        <ele>49</ele>
        <time>2021-05-08T09:26:36Z</time>
      </trkpt>
      <trkpt lat="43.57516" lon="-0.95417">
        <ele>49</ele>
        <time>2021-05-08T09:26:37Z</time>
      </trkpt>
      <trkpt lat="43.57519" lon="-0.95417">
        <ele>49</ele>
        <time>2021-05-08T09:26:38Z</time>
      </trkpt>
      <trkpt lat="43.57521" lon="-0.95416">
        <ele>49</ele>
        <time>2021-05-08T09:26:39Z</time>
      </trkpt>
      <trkpt lat="43.57523" lon="-0.95414">
        <ele>49</ele>
        <time>2021-05-08T09:26:40Z</time>
      </trkpt>
      <trkpt lat="43.57526" lon="-0.95413">
        <ele>49</ele>
        <time>2021-05-08T09:26:41Z</time>
      </trkpt>
      <trkpt lat="43.57528" lon="-0.95412">
        <ele>49</ele>
        <time>2021-05-08T09:26:42Z</time>
      </trkpt>
      <trkpt lat="43.5753" lon="-0.9541">
        <ele>49</ele>
        <time>2021-05-08T09:26:43Z</time>
      </trkpt>
      <trkpt lat="43.57532" lon="-0.95409">
        <ele>49</ele>
        <time>2021-05-08T09:26:44Z</time>
      </trkpt>
      <trkpt lat="43.57534" lon="-0.95407">
        <ele>49</ele>
        <time>2021-05-08T09:26:45Z</time>
      </trkpt>
      <trkpt lat="43.57536" lon="-0.95406">
        <ele>49</ele>
        <time>2021-05-08T09:26:46Z</time>
      </trkpt>
      <trkpt lat="43.57538" lon="-0.95404">
        <ele>49</ele>
        <time>2021-05-08T09:26:47Z</time>
      </trkpt>
      <trkpt lat="43.5754" lon="-0.95402">
        <ele>49</ele>
        <time>2021-05-08T09:26:48Z</time>
      </trkpt>
      <trkpt lat="43.57542" lon="-0.95401">
        <ele>49</ele>
        <time>2021-05-08T09:26:49Z</time>
      </trkpt>
      <trkpt lat="43.57544" lon="-0.95399">
        <ele>49</ele>
        <time>2021-05-08T09:26:50Z</time>
      </trkpt>
      <trkpt lat="43.57546" lon="-0.95397">
        <ele>49</ele>
        <time>2021-05-08T09:26:51Z</time>
      </trkpt>
      <trkpt lat="43.57548" lon="-0.95395">
        <ele>49</ele>
        <time>2021-05-08T09:26:52Z</time>
      </trkpt>
      <trkpt lat="43.5755" lon="-0.95393">
        <ele>49</ele>
        <time>2021-05-08T09:26:53Z</time>
      </trkpt>
      <trkpt lat="43.57552" lon="-0.95391">
        <ele>49</ele>
        <time>2021-05-08T09:26:54Z</time>
      </trkpt>
      <trkpt lat="43.57553" lon="-0.95389">
        <ele>49</ele>
        <time>2021-05-08T09:26:55Z</time>
      </trkpt>
      <trkpt lat="43.57555" lon="-0.95387">
        <ele>49</ele>
        <time>2021-05-08T09:26:56Z</time>
      </trkpt>
      <trkpt lat="43.57557" lon="-0.95385">
        <ele>49</ele>
        <time>2021-05-08T09:26:57Z</time>
      </trkpt>
      <trkpt lat="43.57558" lon="-0.95383">
        <ele>48</ele>
        <time>2021-05-08T09:26:58Z</time>
      </trkpt>
      <trkpt lat="43.5756" lon="-0.95381">
        <ele>48</ele>
        <time>2021-05-08T09:26:59Z</time>
      </trkpt>
      <trkpt lat="43.57561" lon="-0.95379">
        <ele>48</ele>
        <time>2021-05-08T09:27:00Z</time>
      </trkpt>
      <trkpt lat="43.57563" lon="-0.95377">
        <ele>48</ele>
        <time>2021-05-08T09:27:01Z</time>
      </trkpt>
      <trkpt lat="43.57564" lon="-0.95374">
        <ele>48</ele>
        <time>2021-05-08T09:27:02Z</time>
      </trkpt>
      <trkpt lat="43.57566" lon="-0.95372">
        <ele>48</ele>
        <time>2021-05-08T09:27:03Z</time>
      </trkpt>
      <trkpt lat="43.57567" lon="-0.9537">
        <ele>48</ele>
        <time>2021-05-08T09:27:04Z</time>
      </trkpt>
      <trkpt lat="43.57569" lon="-0.95368">
        <ele>48</ele>
        <time>2021-05-08T09:27:05Z</time>
      </trkpt>
      <trkpt lat="43.57571" lon="-0.95365">
        <ele>48</ele>
        <time>2021-05-08T09:27:06Z</time>
      </trkpt>
      <trkpt lat="43.57572" lon="-0.95363">
        <ele>48</ele>
        <time>2021-05-08T09:27:07Z</time>
      </trkpt>
      <trkpt lat="43.57574" lon="-0.95361">
        <ele>48</ele>
        <time>2021-05-08T09:27:08Z</time>
      </trkpt>
      <trkpt lat="43.57575" lon="-0.95359">
        <ele>48</ele>
        <time>2021-05-08T09:27:09Z</time>
      </trkpt>
      <trkpt lat="43.57577" lon="-0.95357">
        <ele>48</ele>
        <time>2021-05-08T09:27:10Z</time>
      </trkpt>
      <trkpt lat="43.57579" lon="-0.95355">
        <ele>48</ele>
        <time>2021-05-08T09:27:11Z</time>
      </trkpt>
      <trkpt lat="43.5758" lon="-0.95353">
        <ele>49</ele>
        <time>2021-05-08T09:27:12Z</time>
      </trkpt>
      <trkpt lat="43.57582" lon="-0.95351">
        <ele>48</ele>
        <time>2021-05-08T09:27:13Z</time>
      </trkpt>
      <trkpt lat="43.57584" lon="-0.95349">
        <ele>48</ele>
        <time>2021-05-08T09:27:14Z</time>
      </trkpt>
      <trkpt lat="43.57586" lon="-0.95348">
        <ele>48</ele>
        <time>2021-05-08T09:27:15Z</time>
      </trkpt>
      <trkpt lat="43.57587" lon="-0.95346">
        <ele>48</ele>
        <time>2021-05-08T09:27:16Z</time>
      </trkpt>
      <trkpt lat="43.57589" lon="-0.95343">
        <ele>48</ele>
        <time>2021-05-08T09:27:17Z</time>
      </trkpt>
      <trkpt lat="43.5759" lon="-0.95341">
        <ele>48</ele>
        <time>2021-05-08T09:27:18Z</time>
      </trkpt>
      <trkpt lat="43.57592" lon="-0.95339">
        <ele>48</ele>
        <time>2021-05-08T09:27:19Z</time>
      </trkpt>
      <trkpt lat="43.57593" lon="-0.95337">
        <ele>48</ele>
        <time>2021-05-08T09:27:20Z</time>
      </trkpt>
      <trkpt lat="43.57595" lon="-0.95334">
        <ele>48</ele>
        <time>2021-05-08T09:27:21Z</time>
      </trkpt>
      <trkpt lat="43.57596" lon="-0.95332">
        <ele>48</ele>
        <time>2021-05-08T09:27:22Z</time>
      </trkpt>
      <trkpt lat="43.57598" lon="-0.9533">
        <ele>48</ele>
        <time>2021-05-08T09:27:23Z</time>
      </trkpt>
      <trkpt lat="43.576" lon="-0.95328">
        <ele>48</ele>
        <time>2021-05-08T09:27:24Z</time>
      </trkpt>
      <trkpt lat="43.57601" lon="-0.95326">
        <ele>48</ele>
        <time>2021-05-08T09:27:25Z</time>
      </trkpt>
      <trkpt lat="43.57603" lon="-0.95324">
        <ele>48</ele>
        <time>2021-05-08T09:27:26Z</time>
      </trkpt>
      <trkpt lat="43.57604" lon="-0.95322">
        <ele>48</ele>
        <time>2021-05-08T09:27:27Z</time>
      </trkpt>
      <trkpt lat="43.57606" lon="-0.9532">
        <ele>47</ele>
        <time>2021-05-08T09:27:28Z</time>
      </trkpt>
      <trkpt lat="43.57608" lon="-0.95318">
        <ele>47</ele>
        <time>2021-05-08T09:27:29Z</time>
      </trkpt>
      <trkpt lat="43.57609" lon="-0.95316">
        <ele>47</ele>
        <time>2021-05-08T09:27:30Z</time>
      </trkpt>
      <trkpt lat="43.57611" lon="-0.95314">
        <ele>47</ele>
        <time>2021-05-08T09:27:31Z</time>
      </trkpt>
      <trkpt lat="43.57613" lon="-0.95313">
        <ele>47</ele>
        <time>2021-05-08T09:27:32Z</time>
      </trkpt>
      <trkpt lat="43.57615" lon="-0.95311">
        <ele>47</ele>
        <time>2021-05-08T09:27:33Z</time>
      </trkpt>
      <trkpt lat="43.57617" lon="-0.95309">
        <ele>47</ele>
        <time>2021-05-08T09:27:34Z</time>
      </trkpt>
      <trkpt lat="43.57619" lon="-0.95307">
        <ele>47</ele>
        <time>2021-05-08T09:27:35Z</time>
      </trkpt>
      <trkpt lat="43.57621" lon="-0.95306">
        <ele>47</ele>
        <time>2021-05-08T09:27:36Z</time>
      </trkpt>
      <trkpt lat="43.57623" lon="-0.95304">
        <ele>47</ele>
        <time>2021-05-08T09:27:37Z</time>
      </trkpt>
      <trkpt lat="43.57625" lon="-0.95302">
        <ele>47</ele>
        <time>2021-05-08T09:27:38Z</time>
      </trkpt>
      <trkpt lat="43.57626" lon="-0.95299">
        <ele>47</ele>
        <time>2021-05-08T09:27:39Z</time>
      </trkpt>
      <trkpt lat="43.57628" lon="-0.95297">
        <ele>47</ele>
        <time>2021-05-08T09:27:40Z</time>
      </trkpt>
      <trkpt lat="43.57629" lon="-0.95295">
        <ele>47</ele>
        <time>2021-05-08T09:27:41Z</time>
      </trkpt>
      <trkpt lat="43.57631" lon="-0.95293">
        <ele>48</ele>
        <time>2021-05-08T09:27:42Z</time>
      </trkpt>
      <trkpt lat="43.57633" lon="-0.9529">
        <ele>48</ele>
        <time>2021-05-08T09:27:43Z</time>
      </trkpt>
      <trkpt lat="43.57634" lon="-0.95288">
        <ele>48</ele>
        <time>2021-05-08T09:27:44Z</time>
      </trkpt>
      <trkpt lat="43.57635" lon="-0.95286">
        <ele>48</ele>
        <time>2021-05-08T09:27:45Z</time>
      </trkpt>
      <trkpt lat="43.57637" lon="-0.95284">
        <ele>48</ele>
        <time>2021-05-08T09:27:46Z</time>
      </trkpt>
      <trkpt lat="43.57638" lon="-0.95281">
        <ele>48</ele>
        <time>2021-05-08T09:27:47Z</time>
      </trkpt>
      <trkpt lat="43.5764" lon="-0.95279">
        <ele>48</ele>
        <time>2021-05-08T09:27:48Z</time>
      </trkpt>
      <trkpt lat="43.57641" lon="-0.95277">
        <ele>48</ele>
        <time>2021-05-08T09:27:49Z</time>
      </trkpt>
      <trkpt lat="43.57643" lon="-0.95275">
        <ele>48</ele>
        <time>2021-05-08T09:27:50Z</time>
      </trkpt>
      <trkpt lat="43.57644" lon="-0.95272">
        <ele>48</ele>
        <time>2021-05-08T09:27:51Z</time>
      </trkpt>
      <trkpt lat="43.57646" lon="-0.9527">
        <ele>48</ele>
        <time>2021-05-08T09:27:52Z</time>
      </trkpt>
      <trkpt lat="43.57647" lon="-0.95268">
        <ele>48</ele>
        <time>2021-05-08T09:27:53Z</time>
      </trkpt>
      <trkpt lat="43.57649" lon="-0.95265">
        <ele>48</ele>
        <time>2021-05-08T09:27:54Z</time>
      </trkpt>
      <trkpt lat="43.57651" lon="-0.95263">
        <ele>48</ele>
        <time>2021-05-08T09:27:55Z</time>
      </trkpt>
      <trkpt lat="43.57652" lon="-0.95261">
        <ele>48</ele>
        <time>2021-05-08T09:27:56Z</time>
      </trkpt>
      <trkpt lat="43.57654" lon="-0.95259">
        <ele>48</ele>
        <time>2021-05-08T09:27:57Z</time>
      </trkpt>
      <trkpt lat="43.57655" lon="-0.95256">
        <ele>48</ele>
        <time>2021-05-08T09:27:58Z</time>
      </trkpt>
      <trkpt lat="43.57657" lon="-0.95254">
        <ele>48</ele>
        <time>2021-05-08T09:27:59Z</time>
      </trkpt>
      <trkpt lat="43.57659" lon="-0.95252">
        <ele>48</ele>
        <time>2021-05-08T09:28:00Z</time>
      </trkpt>
      <trkpt lat="43.5766" lon="-0.9525">
        <ele>48</ele>
        <time>2021-05-08T09:28:01Z</time>
      </trkpt>
      <trkpt lat="43.57662" lon="-0.95248">
        <ele>48</ele>
        <time>2021-05-08T09:28:02Z</time>
      </trkpt>
      <trkpt lat="43.57663" lon="-0.95245">
        <ele>48</ele>
        <time>2021-05-08T09:28:03Z</time>
      </trkpt>
      <trkpt lat="43.57665" lon="-0.95243">
        <ele>48</ele>
        <time>2021-05-08T09:28:04Z</time>
      </trkpt>
      <trkpt lat="43.57666" lon="-0.9524">
        <ele>48</ele>
        <time>2021-05-08T09:28:05Z</time>
      </trkpt>
      <trkpt lat="43.57667" lon="-0.95237">
        <ele>48</ele>
        <time>2021-05-08T09:28:06Z</time>
      </trkpt>
      <trkpt lat="43.57668" lon="-0.95234">
        <ele>49</ele>
        <time>2021-05-08T09:28:07Z</time>
      </trkpt>
      <trkpt lat="43.5767" lon="-0.95231">
        <ele>49</ele>
        <time>2021-05-08T09:28:08Z</time>
      </trkpt>
      <trkpt lat="43.57671" lon="-0.95229">
        <ele>49</ele>
        <time>2021-05-08T09:28:09Z</time>
      </trkpt>
      <trkpt lat="43.57672" lon="-0.95226">
        <ele>49</ele>
        <time>2021-05-08T09:28:10Z</time>
      </trkpt>
      <trkpt lat="43.57673" lon="-0.95223">
        <ele>49</ele>
        <time>2021-05-08T09:28:11Z</time>
      </trkpt>
      <trkpt lat="43.57674" lon="-0.95221">
        <ele>49</ele>
        <time>2021-05-08T09:28:12Z</time>
      </trkpt>
      <trkpt lat="43.57675" lon="-0.95218">
        <ele>49</ele>
        <time>2021-05-08T09:28:13Z</time>
      </trkpt>
      <trkpt lat="43.57676" lon="-0.95216">
        <ele>49</ele>
        <time>2021-05-08T09:28:14Z</time>
      </trkpt>
      <trkpt lat="43.57677" lon="-0.95213">
        <ele>50</ele>
        <time>2021-05-08T09:28:15Z</time>
      </trkpt>
      <trkpt lat="43.57679" lon="-0.9521">
        <ele>50</ele>
        <time>2021-05-08T09:28:16Z</time>
      </trkpt>
      <trkpt lat="43.5768" lon="-0.95208">
        <ele>51</ele>
        <time>2021-05-08T09:28:17Z</time>
      </trkpt>
      <trkpt lat="43.57681" lon="-0.95205">
        <ele>50</ele>
        <time>2021-05-08T09:28:18Z</time>
      </trkpt>
      <trkpt lat="43.57682" lon="-0.95202">
        <ele>50</ele>
        <time>2021-05-08T09:28:19Z</time>
      </trkpt>
      <trkpt lat="43.57683" lon="-0.952">
        <ele>50</ele>
        <time>2021-05-08T09:28:20Z</time>
      </trkpt>
      <trkpt lat="43.57684" lon="-0.95197">
        <ele>50</ele>
        <time>2021-05-08T09:28:21Z</time>
      </trkpt>
      <trkpt lat="43.57686" lon="-0.95195">
        <ele>50</ele>
        <time>2021-05-08T09:28:22Z</time>
      </trkpt>
      <trkpt lat="43.57687" lon="-0.95192">
        <ele>50</ele>
        <time>2021-05-08T09:28:23Z</time>
      </trkpt>
      <trkpt lat="43.57688" lon="-0.9519">
        <ele>50</ele>
        <time>2021-05-08T09:28:24Z</time>
      </trkpt>
      <trkpt lat="43.5769" lon="-0.95187">
        <ele>50</ele>
        <time>2021-05-08T09:28:25Z</time>
      </trkpt>
      <trkpt lat="43.57691" lon="-0.95185">
        <ele>50</ele>
        <time>2021-05-08T09:28:26Z</time>
      </trkpt>
      <trkpt lat="43.57692" lon="-0.95182">
        <ele>51</ele>
        <time>2021-05-08T09:28:27Z</time>
      </trkpt>
      <trkpt lat="43.57694" lon="-0.9518">
        <ele>51</ele>
        <time>2021-05-08T09:28:28Z</time>
      </trkpt>
      <trkpt lat="43.57695" lon="-0.95177">
        <ele>51</ele>
        <time>2021-05-08T09:28:29Z</time>
      </trkpt>
      <trkpt lat="43.57696" lon="-0.95175">
        <ele>51</ele>
        <time>2021-05-08T09:28:30Z</time>
      </trkpt>
      <trkpt lat="43.57697" lon="-0.95172">
        <ele>51</ele>
        <time>2021-05-08T09:28:31Z</time>
      </trkpt>
      <trkpt lat="43.57698" lon="-0.95169">
        <ele>51</ele>
        <time>2021-05-08T09:28:32Z</time>
      </trkpt>
      <trkpt lat="43.577" lon="-0.95167">
        <ele>50</ele>
        <time>2021-05-08T09:28:33Z</time>
      </trkpt>
      <trkpt lat="43.57701" lon="-0.95164">
        <ele>50</ele>
        <time>2021-05-08T09:28:34Z</time>
      </trkpt>
      <trkpt lat="43.57702" lon="-0.95162">
        <ele>50</ele>
        <time>2021-05-08T09:28:35Z</time>
      </trkpt>
      <trkpt lat="43.57703" lon="-0.95159">
        <ele>50</ele>
        <time>2021-05-08T09:28:36Z</time>
      </trkpt>
      <trkpt lat="43.57704" lon="-0.95157">
        <ele>50</ele>
        <time>2021-05-08T09:28:37Z</time>
      </trkpt>
      <trkpt lat="43.57705" lon="-0.95154">
        <ele>50</ele>
        <time>2021-05-08T09:28:38Z</time>
      </trkpt>
      <trkpt lat="43.57707" lon="-0.95152">
        <ele>50</ele>
        <time>2021-05-08T09:28:39Z</time>
      </trkpt>
      <trkpt lat="43.57708" lon="-0.95149">
        <ele>50</ele>
        <time>2021-05-08T09:28:40Z</time>
      </trkpt>
      <trkpt lat="43.5771" lon="-0.95147">
        <ele>50</ele>
        <time>2021-05-08T09:28:41Z</time>
      </trkpt>
      <trkpt lat="43.57711" lon="-0.95144">
        <ele>50</ele>
        <time>2021-05-08T09:28:42Z</time>
      </trkpt>
      <trkpt lat="43.57712" lon="-0.95142">
        <ele>50</ele>
        <time>2021-05-08T09:28:43Z</time>
      </trkpt>
      <trkpt lat="43.57714" lon="-0.95139">
        <ele>50</ele>
        <time>2021-05-08T09:28:44Z</time>
      </trkpt>
      <trkpt lat="43.57715" lon="-0.95137">
        <ele>50</ele>
        <time>2021-05-08T09:28:45Z</time>
      </trkpt>
      <trkpt lat="43.57716" lon="-0.95134">
        <ele>50</ele>
        <time>2021-05-08T09:28:46Z</time>
      </trkpt>
      <trkpt lat="43.57718" lon="-0.95131">
        <ele>50</ele>
        <time>2021-05-08T09:28:47Z</time>
      </trkpt>
      <trkpt lat="43.57719" lon="-0.95129">
        <ele>49</ele>
        <time>2021-05-08T09:28:48Z</time>
      </trkpt>
      <trkpt lat="43.5772" lon="-0.95126">
        <ele>49</ele>
        <time>2021-05-08T09:28:49Z</time>
      </trkpt>
      <trkpt lat="43.57722" lon="-0.95124">
        <ele>49</ele>
        <time>2021-05-08T09:28:50Z</time>
      </trkpt>
      <trkpt lat="43.57723" lon="-0.95121">
        <ele>49</ele>
        <time>2021-05-08T09:28:51Z</time>
      </trkpt>
      <trkpt lat="43.57724" lon="-0.95119">
        <ele>49</ele>
        <time>2021-05-08T09:28:52Z</time>
      </trkpt>
      <trkpt lat="43.57726" lon="-0.95116">
        <ele>49</ele>
        <time>2021-05-08T09:28:53Z</time>
      </trkpt>
      <trkpt lat="43.57727" lon="-0.95114">
        <ele>49</ele>
        <time>2021-05-08T09:28:54Z</time>
      </trkpt>
      <trkpt lat="43.57728" lon="-0.95111">
        <ele>49</ele>
        <time>2021-05-08T09:28:55Z</time>
      </trkpt>
      <trkpt lat="43.57729" lon="-0.95108">
        <ele>49</ele>
        <time>2021-05-08T09:28:56Z</time>
      </trkpt>
      <trkpt lat="43.57731" lon="-0.95106">
        <ele>49</ele>
        <time>2021-05-08T09:28:57Z</time>
      </trkpt>
      <trkpt lat="43.57732" lon="-0.95103">
        <ele>49</ele>
        <time>2021-05-08T09:28:58Z</time>
      </trkpt>
      <trkpt lat="43.57733" lon="-0.951">
        <ele>49</ele>
        <time>2021-05-08T09:28:59Z</time>
      </trkpt>
      <trkpt lat="43.57734" lon="-0.95097">
        <ele>49</ele>
        <time>2021-05-08T09:29:00Z</time>
      </trkpt>
      <trkpt lat="43.57735" lon="-0.95095">
        <ele>49</ele>
        <time>2021-05-08T09:29:01Z</time>
      </trkpt>
      <trkpt lat="43.57736" lon="-0.95092">
        <ele>49</ele>
        <time>2021-05-08T09:29:02Z</time>
      </trkpt>
      <trkpt lat="43.57736" lon="-0.95089">
        <ele>49</ele>
        <time>2021-05-08T09:29:03Z</time>
      </trkpt>
      <trkpt lat="43.57737" lon="-0.95086">
        <ele>49</ele>
        <time>2021-05-08T09:29:04Z</time>
      </trkpt>
      <trkpt lat="43.57738" lon="-0.95083">
        <ele>49</ele>
        <time>2021-05-08T09:29:05Z</time>
      </trkpt>
      <trkpt lat="43.57738" lon="-0.9508">
        <ele>49</ele>
        <time>2021-05-08T09:29:06Z</time>
      </trkpt>
      <trkpt lat="43.57738" lon="-0.95077">
        <ele>49</ele>
        <time>2021-05-08T09:29:07Z</time>
      </trkpt>
      <trkpt lat="43.57739" lon="-0.95074">
        <ele>49</ele>
        <time>2021-05-08T09:29:08Z</time>
      </trkpt>
      <trkpt lat="43.57739" lon="-0.95071">
        <ele>49</ele>
        <time>2021-05-08T09:29:09Z</time>
      </trkpt>
      <trkpt lat="43.57739" lon="-0.95068">
        <ele>49</ele>
        <time>2021-05-08T09:29:10Z</time>
      </trkpt>
      <trkpt lat="43.5774" lon="-0.95065">
        <ele>49</ele>
        <time>2021-05-08T09:29:11Z</time>
      </trkpt>
      <trkpt lat="43.5774" lon="-0.95062">
        <ele>50</ele>
        <time>2021-05-08T09:29:12Z</time>
      </trkpt>
      <trkpt lat="43.57741" lon="-0.95059">
        <ele>50</ele>
        <time>2021-05-08T09:29:13Z</time>
      </trkpt>
      <trkpt lat="43.57741" lon="-0.95057">
        <ele>50</ele>
        <time>2021-05-08T09:29:14Z</time>
      </trkpt>
      <trkpt lat="43.57742" lon="-0.95054">
        <ele>50</ele>
        <time>2021-05-08T09:29:15Z</time>
      </trkpt>
      <trkpt lat="43.57742" lon="-0.95051">
        <ele>50</ele>
        <time>2021-05-08T09:29:16Z</time>
      </trkpt>
      <trkpt lat="43.57743" lon="-0.95048">
        <ele>51</ele>
        <time>2021-05-08T09:29:17Z</time>
      </trkpt>
      <trkpt lat="43.57743" lon="-0.95045">
        <ele>51</ele>
        <time>2021-05-08T09:29:18Z</time>
      </trkpt>
      <trkpt lat="43.57744" lon="-0.95042">
        <ele>51</ele>
        <time>2021-05-08T09:29:19Z</time>
      </trkpt>
      <trkpt lat="43.57744" lon="-0.95039">
        <ele>51</ele>
        <time>2021-05-08T09:29:20Z</time>
      </trkpt>
      <trkpt lat="43.57745" lon="-0.95036">
        <ele>51</ele>
        <time>2021-05-08T09:29:21Z</time>
      </trkpt>
      <trkpt lat="43.57745" lon="-0.95033">
        <ele>51</ele>
        <time>2021-05-08T09:29:22Z</time>
      </trkpt>
      <trkpt lat="43.57746" lon="-0.95031">
        <ele>51</ele>
        <time>2021-05-08T09:29:23Z</time>
      </trkpt>
      <trkpt lat="43.57746" lon="-0.95028">
        <ele>51</ele>
        <time>2021-05-08T09:29:24Z</time>
      </trkpt>
      <trkpt lat="43.57748" lon="-0.95025">
        <ele>51</ele>
        <time>2021-05-08T09:29:25Z</time>
      </trkpt>
      <trkpt lat="43.57749" lon="-0.95022">
        <ele>51</ele>
        <time>2021-05-08T09:29:26Z</time>
      </trkpt>
      <trkpt lat="43.5775" lon="-0.9502">
        <ele>51</ele>
        <time>2021-05-08T09:29:27Z</time>
      </trkpt>
      <trkpt lat="43.57752" lon="-0.95018">
        <ele>51</ele>
        <time>2021-05-08T09:29:28Z</time>
      </trkpt>
      <trkpt lat="43.57754" lon="-0.95016">
        <ele>51</ele>
        <time>2021-05-08T09:29:29Z</time>
      </trkpt>
      <trkpt lat="43.57755" lon="-0.95015">
        <ele>51</ele>
        <time>2021-05-08T09:29:30Z</time>
      </trkpt>
      <trkpt lat="43.57757" lon="-0.95013">
        <ele>51</ele>
        <time>2021-05-08T09:29:31Z</time>
      </trkpt>
      <trkpt lat="43.57759" lon="-0.95011">
        <ele>51</ele>
        <time>2021-05-08T09:29:32Z</time>
      </trkpt>
      <trkpt lat="43.57761" lon="-0.9501">
        <ele>50</ele>
        <time>2021-05-08T09:29:33Z</time>
      </trkpt>
      <trkpt lat="43.57763" lon="-0.95008">
        <ele>50</ele>
        <time>2021-05-08T09:29:34Z</time>
      </trkpt>
      <trkpt lat="43.57765" lon="-0.95007">
        <ele>50</ele>
        <time>2021-05-08T09:29:35Z</time>
      </trkpt>
      <trkpt lat="43.57767" lon="-0.95005">
        <ele>50</ele>
        <time>2021-05-08T09:29:36Z</time>
      </trkpt>
      <trkpt lat="43.57769" lon="-0.95003">
        <ele>50</ele>
        <time>2021-05-08T09:29:37Z</time>
      </trkpt>
      <trkpt lat="43.57771" lon="-0.95001">
        <ele>50</ele>
        <time>2021-05-08T09:29:38Z</time>
      </trkpt>
      <trkpt lat="43.57772" lon="-0.94999">
        <ele>50</ele>
        <time>2021-05-08T09:29:39Z</time>
      </trkpt>
      <trkpt lat="43.57774" lon="-0.94997">
        <ele>50</ele>
        <time>2021-05-08T09:29:40Z</time>
      </trkpt>
      <trkpt lat="43.57776" lon="-0.94995">
        <ele>50</ele>
        <time>2021-05-08T09:29:41Z</time>
      </trkpt>
      <trkpt lat="43.57778" lon="-0.94993">
        <ele>50</ele>
        <time>2021-05-08T09:29:42Z</time>
      </trkpt>
      <trkpt lat="43.57779" lon="-0.94991">
        <ele>49</ele>
        <time>2021-05-08T09:29:43Z</time>
      </trkpt>
      <trkpt lat="43.57781" lon="-0.94988">
        <ele>49</ele>
        <time>2021-05-08T09:29:44Z</time>
      </trkpt>
      <trkpt lat="43.57782" lon="-0.94986">
        <ele>49</ele>
        <time>2021-05-08T09:29:45Z</time>
      </trkpt>
      <trkpt lat="43.57784" lon="-0.94983">
        <ele>49</ele>
        <time>2021-05-08T09:29:46Z</time>
      </trkpt>
      <trkpt lat="43.57785" lon="-0.94981">
        <ele>49</ele>
        <time>2021-05-08T09:29:47Z</time>
      </trkpt>
      <trkpt lat="43.57787" lon="-0.94978">
        <ele>48</ele>
        <time>2021-05-08T09:29:48Z</time>
      </trkpt>
      <trkpt lat="43.57788" lon="-0.94976">
        <ele>48</ele>
        <time>2021-05-08T09:29:49Z</time>
      </trkpt>
      <trkpt lat="43.5779" lon="-0.94973">
        <ele>48</ele>
        <time>2021-05-08T09:29:50Z</time>
      </trkpt>
      <trkpt lat="43.57791" lon="-0.94971">
        <ele>48</ele>
        <time>2021-05-08T09:29:51Z</time>
      </trkpt>
      <trkpt lat="43.57792" lon="-0.94968">
        <ele>48</ele>
        <time>2021-05-08T09:29:52Z</time>
      </trkpt>
      <trkpt lat="43.57793" lon="-0.94965">
        <ele>48</ele>
        <time>2021-05-08T09:29:53Z</time>
      </trkpt>
      <trkpt lat="43.57795" lon="-0.94962">
        <ele>48</ele>
        <time>2021-05-08T09:29:54Z</time>
      </trkpt>
      <trkpt lat="43.57796" lon="-0.94959">
        <ele>48</ele>
        <time>2021-05-08T09:29:55Z</time>
      </trkpt>
      <trkpt lat="43.57797" lon="-0.94957">
        <ele>48</ele>
        <time>2021-05-08T09:29:56Z</time>
      </trkpt>
      <trkpt lat="43.57798" lon="-0.94954">
        <ele>48</ele>
        <time>2021-05-08T09:29:57Z</time>
      </trkpt>
      <trkpt lat="43.57799" lon="-0.94951">
        <ele>47</ele>
        <time>2021-05-08T09:29:58Z</time>
      </trkpt>
      <trkpt lat="43.57801" lon="-0.94948">
        <ele>47</ele>
        <time>2021-05-08T09:29:59Z</time>
      </trkpt>
      <trkpt lat="43.57802" lon="-0.94945">
        <ele>47</ele>
        <time>2021-05-08T09:30:00Z</time>
      </trkpt>
      <trkpt lat="43.57803" lon="-0.94943">
        <ele>47</ele>
        <time>2021-05-08T09:30:01Z</time>
      </trkpt>
      <trkpt lat="43.57804" lon="-0.9494">
        <ele>47</ele>
        <time>2021-05-08T09:30:02Z</time>
      </trkpt>
      <trkpt lat="43.57805" lon="-0.94937">
        <ele>47</ele>
        <time>2021-05-08T09:30:03Z</time>
      </trkpt>
      <trkpt lat="43.57806" lon="-0.94935">
        <ele>47</ele>
        <time>2021-05-08T09:30:04Z</time>
      </trkpt>
      <trkpt lat="43.57808" lon="-0.94933">
        <ele>47</ele>
        <time>2021-05-08T09:30:05Z</time>
      </trkpt>
      <trkpt lat="43.5781" lon="-0.9493">
        <ele>47</ele>
        <time>2021-05-08T09:30:06Z</time>
      </trkpt>
      <trkpt lat="43.57811" lon="-0.94928">
        <ele>47</ele>
        <time>2021-05-08T09:30:07Z</time>
      </trkpt>
      <trkpt lat="43.57813" lon="-0.94926">
        <ele>47</ele>
        <time>2021-05-08T09:30:08Z</time>
      </trkpt>
      <trkpt lat="43.57815" lon="-0.94924">
        <ele>47</ele>
        <time>2021-05-08T09:30:09Z</time>
      </trkpt>
      <trkpt lat="43.57816" lon="-0.94922">
        <ele>47</ele>
        <time>2021-05-08T09:30:10Z</time>
      </trkpt>
      <trkpt lat="43.57818" lon="-0.94921">
        <ele>47</ele>
        <time>2021-05-08T09:30:11Z</time>
      </trkpt>
      <trkpt lat="43.5782" lon="-0.94919">
        <ele>48</ele>
        <time>2021-05-08T09:30:12Z</time>
      </trkpt>
      <trkpt lat="43.57822" lon="-0.94917">
        <ele>48</ele>
        <time>2021-05-08T09:30:13Z</time>
      </trkpt>
      <trkpt lat="43.57825" lon="-0.94916">
        <ele>48</ele>
        <time>2021-05-08T09:30:14Z</time>
      </trkpt>
      <trkpt lat="43.57827" lon="-0.94914">
        <ele>48</ele>
        <time>2021-05-08T09:30:15Z</time>
      </trkpt>
      <trkpt lat="43.57829" lon="-0.94913">
        <ele>48</ele>
        <time>2021-05-08T09:30:16Z</time>
      </trkpt>
      <trkpt lat="43.57831" lon="-0.94911">
        <ele>49</ele>
        <time>2021-05-08T09:30:17Z</time>
      </trkpt>
      <trkpt lat="43.57833" lon="-0.9491">
        <ele>49</ele>
        <time>2021-05-08T09:30:18Z</time>
      </trkpt>
      <trkpt lat="43.57835" lon="-0.94909">
        <ele>49</ele>
        <time>2021-05-08T09:30:19Z</time>
      </trkpt>
      <trkpt lat="43.57837" lon="-0.94908">
        <ele>49</ele>
        <time>2021-05-08T09:30:20Z</time>
      </trkpt>
      <trkpt lat="43.57839" lon="-0.94907">
        <ele>49</ele>
        <time>2021-05-08T09:30:21Z</time>
      </trkpt>
      <trkpt lat="43.57842" lon="-0.94906">
        <ele>49</ele>
        <time>2021-05-08T09:30:22Z</time>
      </trkpt>
      <trkpt lat="43.57844" lon="-0.94905">
        <ele>48</ele>
        <time>2021-05-08T09:30:23Z</time>
      </trkpt>
      <trkpt lat="43.57846" lon="-0.94905">
        <ele>48</ele>
        <time>2021-05-08T09:30:24Z</time>
      </trkpt>
      <trkpt lat="43.57848" lon="-0.94904">
        <ele>48</ele>
        <time>2021-05-08T09:30:25Z</time>
      </trkpt>
      <trkpt lat="43.5785" lon="-0.94903">
        <ele>48</ele>
        <time>2021-05-08T09:30:26Z</time>
      </trkpt>
      <trkpt lat="43.57852" lon="-0.94903">
        <ele>48</ele>
        <time>2021-05-08T09:30:27Z</time>
      </trkpt>
      <trkpt lat="43.57854" lon="-0.94902">
        <ele>48</ele>
        <time>2021-05-08T09:30:28Z</time>
      </trkpt>
      <trkpt lat="43.57857" lon="-0.94901">
        <ele>48</ele>
        <time>2021-05-08T09:30:29Z</time>
      </trkpt>
      <trkpt lat="43.57859" lon="-0.94901">
        <ele>48</ele>
        <time>2021-05-08T09:30:30Z</time>
      </trkpt>
      <trkpt lat="43.57861" lon="-0.94901">
        <ele>48</ele>
        <time>2021-05-08T09:30:31Z</time>
      </trkpt>
      <trkpt lat="43.57863" lon="-0.94901">
        <ele>48</ele>
        <time>2021-05-08T09:30:32Z</time>
      </trkpt>
      <trkpt lat="43.57866" lon="-0.94901">
        <ele>48</ele>
        <time>2021-05-08T09:30:33Z</time>
      </trkpt>
      <trkpt lat="43.57868" lon="-0.94902">
        <ele>48</ele>
        <time>2021-05-08T09:30:34Z</time>
      </trkpt>
      <trkpt lat="43.5787" lon="-0.94901">
        <ele>48</ele>
        <time>2021-05-08T09:30:35Z</time>
      </trkpt>
      <trkpt lat="43.57872" lon="-0.94901">
        <ele>48</ele>
        <time>2021-05-08T09:30:36Z</time>
      </trkpt>
      <trkpt lat="43.57874" lon="-0.94901">
        <ele>48</ele>
        <time>2021-05-08T09:30:37Z</time>
      </trkpt>
      <trkpt lat="43.57876" lon="-0.94901">
        <ele>48</ele>
        <time>2021-05-08T09:30:38Z</time>
      </trkpt>
      <trkpt lat="43.57878" lon="-0.94902">
        <ele>48</ele>
        <time>2021-05-08T09:30:39Z</time>
      </trkpt>
      <trkpt lat="43.5788" lon="-0.94902">
        <ele>48</ele>
        <time>2021-05-08T09:30:40Z</time>
      </trkpt>
      <trkpt lat="43.57881" lon="-0.94904">
        <ele>48</ele>
        <time>2021-05-08T09:30:41Z</time>
      </trkpt>
      <trkpt lat="43.57882" lon="-0.94906">
        <ele>48</ele>
        <time>2021-05-08T09:30:42Z</time>
      </trkpt>
      <trkpt lat="43.57883" lon="-0.94909">
        <ele>48</ele>
        <time>2021-05-08T09:30:43Z</time>
      </trkpt>
      <trkpt lat="43.57884" lon="-0.94912">
        <ele>48</ele>
        <time>2021-05-08T09:30:44Z</time>
      </trkpt>
      <trkpt lat="43.57885" lon="-0.94915">
        <ele>48</ele>
        <time>2021-05-08T09:30:45Z</time>
      </trkpt>
      <trkpt lat="43.57886" lon="-0.94918">
        <ele>48</ele>
        <time>2021-05-08T09:30:46Z</time>
      </trkpt>
      <trkpt lat="43.57887" lon="-0.94921">
        <ele>48</ele>
        <time>2021-05-08T09:30:47Z</time>
      </trkpt>
      <trkpt lat="43.57887" lon="-0.94925">
        <ele>47</ele>
        <time>2021-05-08T09:30:48Z</time>
      </trkpt>
      <trkpt lat="43.57888" lon="-0.94928">
        <ele>47</ele>
        <time>2021-05-08T09:30:49Z</time>
      </trkpt>
      <trkpt lat="43.57889" lon="-0.94931">
        <ele>47</ele>
        <time>2021-05-08T09:30:50Z</time>
      </trkpt>
      <trkpt lat="43.57889" lon="-0.94934">
        <ele>47</ele>
        <time>2021-05-08T09:30:51Z</time>
      </trkpt>
      <trkpt lat="43.5789" lon="-0.94937">
        <ele>47</ele>
        <time>2021-05-08T09:30:52Z</time>
      </trkpt>
      <trkpt lat="43.57891" lon="-0.9494">
        <ele>47</ele>
        <time>2021-05-08T09:30:53Z</time>
      </trkpt>
      <trkpt lat="43.57892" lon="-0.94943">
        <ele>47</ele>
        <time>2021-05-08T09:30:54Z</time>
      </trkpt>
      <trkpt lat="43.57893" lon="-0.94946">
        <ele>47</ele>
        <time>2021-05-08T09:30:55Z</time>
      </trkpt>
      <trkpt lat="43.57894" lon="-0.94949">
        <ele>47</ele>
        <time>2021-05-08T09:30:56Z</time>
      </trkpt>
      <trkpt lat="43.57894" lon="-0.94951">
        <ele>47</ele>
        <time>2021-05-08T09:30:57Z</time>
      </trkpt>
      <trkpt lat="43.57895" lon="-0.94954">
        <ele>47</ele>
        <time>2021-05-08T09:30:58Z</time>
      </trkpt>
      <trkpt lat="43.57896" lon="-0.94957">
        <ele>47</ele>
        <time>2021-05-08T09:30:59Z</time>
      </trkpt>
      <trkpt lat="43.57897" lon="-0.9496">
        <ele>47</ele>
        <time>2021-05-08T09:31:00Z</time>
      </trkpt>
      <trkpt lat="43.57897" lon="-0.94963">
        <ele>47</ele>
        <time>2021-05-08T09:31:01Z</time>
      </trkpt>
      <trkpt lat="43.57898" lon="-0.94966">
        <ele>47</ele>
        <time>2021-05-08T09:31:02Z</time>
      </trkpt>
      <trkpt lat="43.57899" lon="-0.94969">
        <ele>47</ele>
        <time>2021-05-08T09:31:03Z</time>
      </trkpt>
      <trkpt lat="43.579" lon="-0.94972">
        <ele>47</ele>
        <time>2021-05-08T09:31:04Z</time>
      </trkpt>
      <trkpt lat="43.579" lon="-0.94975">
        <ele>47</ele>
        <time>2021-05-08T09:31:05Z</time>
      </trkpt>
      <trkpt lat="43.57901" lon="-0.94978">
        <ele>47</ele>
        <time>2021-05-08T09:31:06Z</time>
      </trkpt>
      <trkpt lat="43.57902" lon="-0.94981">
        <ele>47</ele>
        <time>2021-05-08T09:31:07Z</time>
      </trkpt>
      <trkpt lat="43.57903" lon="-0.94984">
        <ele>47</ele>
        <time>2021-05-08T09:31:08Z</time>
      </trkpt>
      <trkpt lat="43.57903" lon="-0.94987">
        <ele>47</ele>
        <time>2021-05-08T09:31:09Z</time>
      </trkpt>
      <trkpt lat="43.57904" lon="-0.9499">
        <ele>47</ele>
        <time>2021-05-08T09:31:10Z</time>
      </trkpt>
      <trkpt lat="43.57905" lon="-0.94993">
        <ele>47</ele>
        <time>2021-05-08T09:31:11Z</time>
      </trkpt>
      <trkpt lat="43.57905" lon="-0.94996">
        <ele>47</ele>
        <time>2021-05-08T09:31:12Z</time>
      </trkpt>
      <trkpt lat="43.57906" lon="-0.94998">
        <ele>47</ele>
        <time>2021-05-08T09:31:13Z</time>
      </trkpt>
      <trkpt lat="43.57907" lon="-0.95001">
        <ele>47</ele>
        <time>2021-05-08T09:31:14Z</time>
      </trkpt>
      <trkpt lat="43.57908" lon="-0.95004">
        <ele>47</ele>
        <time>2021-05-08T09:31:15Z</time>
      </trkpt>
      <trkpt lat="43.57908" lon="-0.95007">
        <ele>47</ele>
        <time>2021-05-08T09:31:16Z</time>
      </trkpt>
      <trkpt lat="43.57909" lon="-0.9501">
        <ele>48</ele>
        <time>2021-05-08T09:31:17Z</time>
      </trkpt>
      <trkpt lat="43.5791" lon="-0.95013">
        <ele>48</ele>
        <time>2021-05-08T09:31:18Z</time>
      </trkpt>
      <trkpt lat="43.5791" lon="-0.95016">
        <ele>48</ele>
        <time>2021-05-08T09:31:19Z</time>
      </trkpt>
      <trkpt lat="43.57911" lon="-0.95019">
        <ele>48</ele>
        <time>2021-05-08T09:31:20Z</time>
      </trkpt>
      <trkpt lat="43.57912" lon="-0.95022">
        <ele>48</ele>
        <time>2021-05-08T09:31:21Z</time>
      </trkpt>
      <trkpt lat="43.57913" lon="-0.95025">
        <ele>48</ele>
        <time>2021-05-08T09:31:22Z</time>
      </trkpt>
      <trkpt lat="43.57913" lon="-0.95028">
        <ele>48</ele>
        <time>2021-05-08T09:31:23Z</time>
      </trkpt>
      <trkpt lat="43.57914" lon="-0.95031">
        <ele>48</ele>
        <time>2021-05-08T09:31:24Z</time>
      </trkpt>
      <trkpt lat="43.57915" lon="-0.95033">
        <ele>48</ele>
        <time>2021-05-08T09:31:25Z</time>
      </trkpt>
      <trkpt lat="43.57916" lon="-0.95036">
        <ele>48</ele>
        <time>2021-05-08T09:31:26Z</time>
      </trkpt>
      <trkpt lat="43.57917" lon="-0.95039">
        <ele>49</ele>
        <time>2021-05-08T09:31:27Z</time>
      </trkpt>
      <trkpt lat="43.57917" lon="-0.95041">
        <ele>49</ele>
        <time>2021-05-08T09:31:28Z</time>
      </trkpt>
      <trkpt lat="43.57918" lon="-0.95044">
        <ele>49</ele>
        <time>2021-05-08T09:31:29Z</time>
      </trkpt>
      <trkpt lat="43.57919" lon="-0.95047">
        <ele>49</ele>
        <time>2021-05-08T09:31:30Z</time>
      </trkpt>
      <trkpt lat="43.5792" lon="-0.95049">
        <ele>49</ele>
        <time>2021-05-08T09:31:31Z</time>
      </trkpt>
      <trkpt lat="43.57921" lon="-0.95051">
        <ele>49</ele>
        <time>2021-05-08T09:31:32Z</time>
      </trkpt>
      <trkpt lat="43.57922" lon="-0.95054">
        <ele>49</ele>
        <time>2021-05-08T09:31:33Z</time>
      </trkpt>
      <trkpt lat="43.57924" lon="-0.95056">
        <ele>49</ele>
        <time>2021-05-08T09:31:34Z</time>
      </trkpt>
      <trkpt lat="43.57925" lon="-0.95059">
        <ele>49</ele>
        <time>2021-05-08T09:31:35Z</time>
      </trkpt>
      <trkpt lat="43.57926" lon="-0.95061">
        <ele>49</ele>
        <time>2021-05-08T09:31:36Z</time>
      </trkpt>
      <trkpt lat="43.57927" lon="-0.95064">
        <ele>49</ele>
        <time>2021-05-08T09:31:37Z</time>
      </trkpt>
      <trkpt lat="43.57928" lon="-0.95066">
        <ele>49</ele>
        <time>2021-05-08T09:31:38Z</time>
      </trkpt>
      <trkpt lat="43.57929" lon="-0.95068">
        <ele>49</ele>
        <time>2021-05-08T09:31:39Z</time>
      </trkpt>
      <trkpt lat="43.57931" lon="-0.95071">
        <ele>49</ele>
        <time>2021-05-08T09:31:40Z</time>
      </trkpt>
      <trkpt lat="43.57932" lon="-0.95073">
        <ele>49</ele>
        <time>2021-05-08T09:31:41Z</time>
      </trkpt>
      <trkpt lat="43.57933" lon="-0.95076">
        <ele>49</ele>
        <time>2021-05-08T09:31:42Z</time>
      </trkpt>
      <trkpt lat="43.57934" lon="-0.95078">
        <ele>49</ele>
        <time>2021-05-08T09:31:43Z</time>
      </trkpt>
      <trkpt lat="43.57936" lon="-0.9508">
        <ele>49</ele>
        <time>2021-05-08T09:31:44Z</time>
      </trkpt>
      <trkpt lat="43.57937" lon="-0.95083">
        <ele>49</ele>
        <time>2021-05-08T09:31:45Z</time>
      </trkpt>
      <trkpt lat="43.57938" lon="-0.95085">
        <ele>49</ele>
        <time>2021-05-08T09:31:46Z</time>
      </trkpt>
      <trkpt lat="43.5794" lon="-0.95088">
        <ele>49</ele>
        <time>2021-05-08T09:31:47Z</time>
      </trkpt>
      <trkpt lat="43.57941" lon="-0.9509">
        <ele>49</ele>
        <time>2021-05-08T09:31:48Z</time>
      </trkpt>
      <trkpt lat="43.57942" lon="-0.95093">
        <ele>49</ele>
        <time>2021-05-08T09:31:49Z</time>
      </trkpt>
      <trkpt lat="43.57944" lon="-0.95095">
        <ele>49</ele>
        <time>2021-05-08T09:31:50Z</time>
      </trkpt>
      <trkpt lat="43.57945" lon="-0.95098">
        <ele>49</ele>
        <time>2021-05-08T09:31:51Z</time>
      </trkpt>
      <trkpt lat="43.57946" lon="-0.951">
        <ele>49</ele>
        <time>2021-05-08T09:31:52Z</time>
      </trkpt>
      <trkpt lat="43.57947" lon="-0.95103">
        <ele>49</ele>
        <time>2021-05-08T09:31:53Z</time>
      </trkpt>
      <trkpt lat="43.57948" lon="-0.95106">
        <ele>49</ele>
        <time>2021-05-08T09:31:54Z</time>
      </trkpt>
      <trkpt lat="43.57949" lon="-0.95109">
        <ele>49</ele>
        <time>2021-05-08T09:31:55Z</time>
      </trkpt>
      <trkpt lat="43.5795" lon="-0.95111">
        <ele>49</ele>
        <time>2021-05-08T09:31:56Z</time>
      </trkpt>
      <trkpt lat="43.57951" lon="-0.95114">
        <ele>49</ele>
        <time>2021-05-08T09:31:57Z</time>
      </trkpt>
      <trkpt lat="43.57952" lon="-0.95117">
        <ele>49</ele>
        <time>2021-05-08T09:31:58Z</time>
      </trkpt>
      <trkpt lat="43.57953" lon="-0.95119">
        <ele>49</ele>
        <time>2021-05-08T09:31:59Z</time>
      </trkpt>
      <trkpt lat="43.57954" lon="-0.95122">
        <ele>49</ele>
        <time>2021-05-08T09:32:00Z</time>
      </trkpt>
      <trkpt lat="43.57954" lon="-0.95125">
        <ele>49</ele>
        <time>2021-05-08T09:32:01Z</time>
      </trkpt>
      <trkpt lat="43.57955" lon="-0.95128">
        <ele>50</ele>
        <time>2021-05-08T09:32:02Z</time>
      </trkpt>
      <trkpt lat="43.57956" lon="-0.9513">
        <ele>50</ele>
        <time>2021-05-08T09:32:03Z</time>
      </trkpt>
      <trkpt lat="43.57956" lon="-0.95133">
        <ele>50</ele>
        <time>2021-05-08T09:32:04Z</time>
      </trkpt>
      <trkpt lat="43.57957" lon="-0.95136">
        <ele>50</ele>
        <time>2021-05-08T09:32:05Z</time>
      </trkpt>
      <trkpt lat="43.57958" lon="-0.95139">
        <ele>50</ele>
        <time>2021-05-08T09:32:06Z</time>
      </trkpt>
      <trkpt lat="43.57958" lon="-0.95142">
        <ele>50</ele>
        <time>2021-05-08T09:32:07Z</time>
      </trkpt>
      <trkpt lat="43.57959" lon="-0.95144">
        <ele>50</ele>
        <time>2021-05-08T09:32:08Z</time>
      </trkpt>
      <trkpt lat="43.5796" lon="-0.95147">
        <ele>50</ele>
        <time>2021-05-08T09:32:09Z</time>
      </trkpt>
      <trkpt lat="43.5796" lon="-0.9515">
        <ele>50</ele>
        <time>2021-05-08T09:32:10Z</time>
      </trkpt>
      <trkpt lat="43.57961" lon="-0.95152">
        <ele>50</ele>
        <time>2021-05-08T09:32:11Z</time>
      </trkpt>
      <trkpt lat="43.57962" lon="-0.95155">
        <ele>50</ele>
        <time>2021-05-08T09:32:12Z</time>
      </trkpt>
      <trkpt lat="43.57962" lon="-0.95157">
        <ele>50</ele>
        <time>2021-05-08T09:32:13Z</time>
      </trkpt>
      <trkpt lat="43.57963" lon="-0.9516">
        <ele>50</ele>
        <time>2021-05-08T09:32:14Z</time>
      </trkpt>
      <trkpt lat="43.57964" lon="-0.95162">
        <ele>50</ele>
        <time>2021-05-08T09:32:15Z</time>
      </trkpt>
      <trkpt lat="43.57965" lon="-0.95165">
        <ele>50</ele>
        <time>2021-05-08T09:32:16Z</time>
      </trkpt>
      <trkpt lat="43.57965" lon="-0.95167">
        <ele>50</ele>
        <time>2021-05-08T09:32:17Z</time>
      </trkpt>
      <trkpt lat="43.57966" lon="-0.9517">
        <ele>50</ele>
        <time>2021-05-08T09:32:18Z</time>
      </trkpt>
      <trkpt lat="43.57966" lon="-0.95172">
        <ele>50</ele>
        <time>2021-05-08T09:32:19Z</time>
      </trkpt>
      <trkpt lat="43.57967" lon="-0.95175">
        <ele>51</ele>
        <time>2021-05-08T09:32:20Z</time>
      </trkpt>
      <trkpt lat="43.57967" lon="-0.95178">
        <ele>51</ele>
        <time>2021-05-08T09:32:21Z</time>
      </trkpt>
      <trkpt lat="43.57968" lon="-0.95181">
        <ele>52</ele>
        <time>2021-05-08T09:32:22Z</time>
      </trkpt>
      <trkpt lat="43.57968" lon="-0.95184">
        <ele>52</ele>
        <time>2021-05-08T09:32:23Z</time>
      </trkpt>
      <trkpt lat="43.57969" lon="-0.95186">
        <ele>52</ele>
        <time>2021-05-08T09:32:24Z</time>
      </trkpt>
      <trkpt lat="43.57969" lon="-0.95189">
        <ele>52</ele>
        <time>2021-05-08T09:32:25Z</time>
      </trkpt>
      <trkpt lat="43.57969" lon="-0.95192">
        <ele>52</ele>
        <time>2021-05-08T09:32:26Z</time>
      </trkpt>
      <trkpt lat="43.5797" lon="-0.95195">
        <ele>53</ele>
        <time>2021-05-08T09:32:27Z</time>
      </trkpt>
      <trkpt lat="43.5797" lon="-0.95198">
        <ele>53</ele>
        <time>2021-05-08T09:32:28Z</time>
      </trkpt>
      <trkpt lat="43.57971" lon="-0.952">
        <ele>53</ele>
        <time>2021-05-08T09:32:29Z</time>
      </trkpt>
      <trkpt lat="43.57971" lon="-0.95203">
        <ele>53</ele>
        <time>2021-05-08T09:32:30Z</time>
      </trkpt>
      <trkpt lat="43.57972" lon="-0.95206">
        <ele>53</ele>
        <time>2021-05-08T09:32:31Z</time>
      </trkpt>
      <trkpt lat="43.57973" lon="-0.95208">
        <ele>54</ele>
        <time>2021-05-08T09:32:32Z</time>
      </trkpt>
      <trkpt lat="43.57974" lon="-0.95211">
        <ele>54</ele>
        <time>2021-05-08T09:32:33Z</time>
      </trkpt>
      <trkpt lat="43.57975" lon="-0.95214">
        <ele>54</ele>
        <time>2021-05-08T09:32:34Z</time>
      </trkpt>
      <trkpt lat="43.57975" lon="-0.95217">
        <ele>54</ele>
        <time>2021-05-08T09:32:35Z</time>
      </trkpt>
      <trkpt lat="43.57976" lon="-0.9522">
        <ele>54</ele>
        <time>2021-05-08T09:32:36Z</time>
      </trkpt>
      <trkpt lat="43.57977" lon="-0.95223">
        <ele>54</ele>
        <time>2021-05-08T09:32:37Z</time>
      </trkpt>
      <trkpt lat="43.57978" lon="-0.95226">
        <ele>54</ele>
        <time>2021-05-08T09:32:38Z</time>
      </trkpt>
      <trkpt lat="43.57979" lon="-0.95229">
        <ele>54</ele>
        <time>2021-05-08T09:32:39Z</time>
      </trkpt>
      <trkpt lat="43.5798" lon="-0.95232">
        <ele>54</ele>
        <time>2021-05-08T09:32:40Z</time>
      </trkpt>
      <trkpt lat="43.57981" lon="-0.95234">
        <ele>54</ele>
        <time>2021-05-08T09:32:41Z</time>
      </trkpt>
      <trkpt lat="43.57983" lon="-0.95236">
        <ele>55</ele>
        <time>2021-05-08T09:32:42Z</time>
      </trkpt>
      <trkpt lat="43.57984" lon="-0.95237">
        <ele>55</ele>
        <time>2021-05-08T09:32:43Z</time>
      </trkpt>
      <trkpt lat="43.57986" lon="-0.95238">
        <ele>55</ele>
        <time>2021-05-08T09:32:44Z</time>
      </trkpt>
      <trkpt lat="43.57988" lon="-0.95238">
        <ele>55</ele>
        <time>2021-05-08T09:32:45Z</time>
      </trkpt>
      <trkpt lat="43.5799" lon="-0.95238">
        <ele>55</ele>
        <time>2021-05-08T09:32:46Z</time>
      </trkpt>
      <trkpt lat="43.57992" lon="-0.95237">
        <ele>55</ele>
        <time>2021-05-08T09:32:47Z</time>
      </trkpt>
      <trkpt lat="43.57994" lon="-0.95237">
        <ele>55</ele>
        <time>2021-05-08T09:32:48Z</time>
      </trkpt>
      <trkpt lat="43.57996" lon="-0.95235">
        <ele>55</ele>
        <time>2021-05-08T09:32:49Z</time>
      </trkpt>
      <trkpt lat="43.57998" lon="-0.95234">
        <ele>55</ele>
        <time>2021-05-08T09:32:50Z</time>
      </trkpt>
      <trkpt lat="43.58" lon="-0.95233">
        <ele>55</ele>
        <time>2021-05-08T09:32:51Z</time>
      </trkpt>
      <trkpt lat="43.58002" lon="-0.95232">
        <ele>56</ele>
        <time>2021-05-08T09:32:52Z</time>
      </trkpt>
      <trkpt lat="43.58004" lon="-0.9523">
        <ele>56</ele>
        <time>2021-05-08T09:32:53Z</time>
      </trkpt>
      <trkpt lat="43.58006" lon="-0.95229">
        <ele>56</ele>
        <time>2021-05-08T09:32:54Z</time>
      </trkpt>
      <trkpt lat="43.58007" lon="-0.95227">
        <ele>56</ele>
        <time>2021-05-08T09:32:55Z</time>
      </trkpt>
      <trkpt lat="43.58009" lon="-0.95225">
        <ele>56</ele>
        <time>2021-05-08T09:32:56Z</time>
      </trkpt>
      <trkpt lat="43.58011" lon="-0.95224">
        <ele>57</ele>
        <time>2021-05-08T09:32:57Z</time>
      </trkpt>
      <trkpt lat="43.58013" lon="-0.95222">
        <ele>57</ele>
        <time>2021-05-08T09:32:58Z</time>
      </trkpt>
      <trkpt lat="43.58015" lon="-0.9522">
        <ele>57</ele>
        <time>2021-05-08T09:32:59Z</time>
      </trkpt>
      <trkpt lat="43.58016" lon="-0.95218">
        <ele>57</ele>
        <time>2021-05-08T09:33:00Z</time>
      </trkpt>
      <trkpt lat="43.58018" lon="-0.95217">
        <ele>57</ele>
        <time>2021-05-08T09:33:01Z</time>
      </trkpt>
      <trkpt lat="43.5802" lon="-0.95215">
        <ele>58</ele>
        <time>2021-05-08T09:33:02Z</time>
      </trkpt>
      <trkpt lat="43.58021" lon="-0.95214">
        <ele>58</ele>
        <time>2021-05-08T09:33:03Z</time>
      </trkpt>
      <trkpt lat="43.58023" lon="-0.95212">
        <ele>58</ele>
        <time>2021-05-08T09:33:04Z</time>
      </trkpt>
      <trkpt lat="43.58025" lon="-0.95211">
        <ele>58</ele>
        <time>2021-05-08T09:33:05Z</time>
      </trkpt>
      <trkpt lat="43.58027" lon="-0.95209">
        <ele>58</ele>
        <time>2021-05-08T09:33:06Z</time>
      </trkpt>
      <trkpt lat="43.58029" lon="-0.95208">
        <ele>58</ele>
        <time>2021-05-08T09:33:07Z</time>
      </trkpt>
      <trkpt lat="43.58031" lon="-0.95207">
        <ele>58</ele>
        <time>2021-05-08T09:33:08Z</time>
      </trkpt>
      <trkpt lat="43.58033" lon="-0.95205">
        <ele>58</ele>
        <time>2021-05-08T09:33:09Z</time>
      </trkpt>
      <trkpt lat="43.58035" lon="-0.95204">
        <ele>58</ele>
        <time>2021-05-08T09:33:10Z</time>
      </trkpt>
      <trkpt lat="43.58037" lon="-0.95203">
        <ele>58</ele>
        <time>2021-05-08T09:33:11Z</time>
      </trkpt>
      <trkpt lat="43.58039" lon="-0.95202">
        <ele>58</ele>
        <time>2021-05-08T09:33:12Z</time>
      </trkpt>
      <trkpt lat="43.58041" lon="-0.95201">
        <ele>58</ele>
        <time>2021-05-08T09:33:13Z</time>
      </trkpt>
      <trkpt lat="43.58043" lon="-0.952">
        <ele>58</ele>
        <time>2021-05-08T09:33:14Z</time>
      </trkpt>
      <trkpt lat="43.58045" lon="-0.95199">
        <ele>58</ele>
        <time>2021-05-08T09:33:15Z</time>
      </trkpt>
      <trkpt lat="43.58047" lon="-0.95199">
        <ele>58</ele>
        <time>2021-05-08T09:33:16Z</time>
      </trkpt>
      <trkpt lat="43.5805" lon="-0.95199">
        <ele>58</ele>
        <time>2021-05-08T09:33:17Z</time>
      </trkpt>
      <trkpt lat="43.58052" lon="-0.952">
        <ele>58</ele>
        <time>2021-05-08T09:33:18Z</time>
      </trkpt>
      <trkpt lat="43.58054" lon="-0.95201">
        <ele>58</ele>
        <time>2021-05-08T09:33:19Z</time>
      </trkpt>
      <trkpt lat="43.58056" lon="-0.95202">
        <ele>58</ele>
        <time>2021-05-08T09:33:20Z</time>
      </trkpt>
      <trkpt lat="43.58058" lon="-0.95203">
        <ele>58</ele>
        <time>2021-05-08T09:33:21Z</time>
      </trkpt>
      <trkpt lat="43.5806" lon="-0.95205">
        <ele>58</ele>
        <time>2021-05-08T09:33:22Z</time>
      </trkpt>
      <trkpt lat="43.58062" lon="-0.95207">
        <ele>58</ele>
        <time>2021-05-08T09:33:23Z</time>
      </trkpt>
      <trkpt lat="43.58064" lon="-0.95209">
        <ele>58</ele>
        <time>2021-05-08T09:33:24Z</time>
      </trkpt>
      <trkpt lat="43.58065" lon="-0.95212">
        <ele>58</ele>
        <time>2021-05-08T09:33:25Z</time>
      </trkpt>
      <trkpt lat="43.58067" lon="-0.95214">
        <ele>58</ele>
        <time>2021-05-08T09:33:26Z</time>
      </trkpt>
      <trkpt lat="43.58068" lon="-0.95217">
        <ele>58</ele>
        <time>2021-05-08T09:33:27Z</time>
      </trkpt>
      <trkpt lat="43.5807" lon="-0.95219">
        <ele>58</ele>
        <time>2021-05-08T09:33:28Z</time>
      </trkpt>
      <trkpt lat="43.58071" lon="-0.95222">
        <ele>58</ele>
        <time>2021-05-08T09:33:29Z</time>
      </trkpt>
      <trkpt lat="43.58073" lon="-0.95225">
        <ele>58</ele>
        <time>2021-05-08T09:33:30Z</time>
      </trkpt>
      <trkpt lat="43.58074" lon="-0.95227">
        <ele>58</ele>
        <time>2021-05-08T09:33:31Z</time>
      </trkpt>
      <trkpt lat="43.58075" lon="-0.9523">
        <ele>58</ele>
        <time>2021-05-08T09:33:32Z</time>
      </trkpt>
      <trkpt lat="43.58077" lon="-0.95232">
        <ele>58</ele>
        <time>2021-05-08T09:33:33Z</time>
      </trkpt>
      <trkpt lat="43.58078" lon="-0.95235">
        <ele>58</ele>
        <time>2021-05-08T09:33:34Z</time>
      </trkpt>
      <trkpt lat="43.5808" lon="-0.95237">
        <ele>58</ele>
        <time>2021-05-08T09:33:35Z</time>
      </trkpt>
      <trkpt lat="43.58082" lon="-0.95239">
        <ele>58</ele>
        <time>2021-05-08T09:33:36Z</time>
      </trkpt>
      <trkpt lat="43.58084" lon="-0.9524">
        <ele>59</ele>
        <time>2021-05-08T09:33:37Z</time>
      </trkpt>
      <trkpt lat="43.58086" lon="-0.95241">
        <ele>59</ele>
        <time>2021-05-08T09:33:38Z</time>
      </trkpt>
      <trkpt lat="43.58088" lon="-0.9524">
        <ele>59</ele>
        <time>2021-05-08T09:33:39Z</time>
      </trkpt>
      <trkpt lat="43.5809" lon="-0.95239">
        <ele>59</ele>
        <time>2021-05-08T09:33:40Z</time>
      </trkpt>
      <trkpt lat="43.58092" lon="-0.95237">
        <ele>59</ele>
        <time>2021-05-08T09:33:41Z</time>
      </trkpt>
      <trkpt lat="43.58094" lon="-0.95235">
        <ele>59</ele>
        <time>2021-05-08T09:33:42Z</time>
      </trkpt>
      <trkpt lat="43.58096" lon="-0.95232">
        <ele>59</ele>
        <time>2021-05-08T09:33:43Z</time>
      </trkpt>
      <trkpt lat="43.58097" lon="-0.95229">
        <ele>59</ele>
        <time>2021-05-08T09:33:44Z</time>
      </trkpt>
      <trkpt lat="43.58099" lon="-0.95226">
        <ele>59</ele>
        <time>2021-05-08T09:33:45Z</time>
      </trkpt>
      <trkpt lat="43.581" lon="-0.95223">
        <ele>59</ele>
        <time>2021-05-08T09:33:46Z</time>
      </trkpt>
      <trkpt lat="43.58102" lon="-0.9522">
        <ele>59</ele>
        <time>2021-05-08T09:33:47Z</time>
      </trkpt>
      <trkpt lat="43.58104" lon="-0.95217">
        <ele>59</ele>
        <time>2021-05-08T09:33:48Z</time>
      </trkpt>
      <trkpt lat="43.58105" lon="-0.95214">
        <ele>59</ele>
        <time>2021-05-08T09:33:49Z</time>
      </trkpt>
      <trkpt lat="43.58107" lon="-0.95211">
        <ele>59</ele>
        <time>2021-05-08T09:33:50Z</time>
      </trkpt>
      <trkpt lat="43.58109" lon="-0.95208">
        <ele>59</ele>
        <time>2021-05-08T09:33:51Z</time>
      </trkpt>
      <trkpt lat="43.58111" lon="-0.95205">
        <ele>59</ele>
        <time>2021-05-08T09:33:52Z</time>
      </trkpt>
      <trkpt lat="43.58112" lon="-0.95202">
        <ele>58</ele>
        <time>2021-05-08T09:33:53Z</time>
      </trkpt>
      <trkpt lat="43.58114" lon="-0.95199">
        <ele>58</ele>
        <time>2021-05-08T09:33:54Z</time>
      </trkpt>
      <trkpt lat="43.58116" lon="-0.95196">
        <ele>57</ele>
        <time>2021-05-08T09:33:55Z</time>
      </trkpt>
      <trkpt lat="43.58118" lon="-0.95193">
        <ele>57</ele>
        <time>2021-05-08T09:33:56Z</time>
      </trkpt>
      <trkpt lat="43.58119" lon="-0.9519">
        <ele>57</ele>
        <time>2021-05-08T09:33:57Z</time>
      </trkpt>
      <trkpt lat="43.58121" lon="-0.95187">
        <ele>56</ele>
        <time>2021-05-08T09:33:58Z</time>
      </trkpt>
      <trkpt lat="43.58123" lon="-0.95183">
        <ele>56</ele>
        <time>2021-05-08T09:33:59Z</time>
      </trkpt>
      <trkpt lat="43.58124" lon="-0.9518">
        <ele>56</ele>
        <time>2021-05-08T09:34:00Z</time>
      </trkpt>
      <trkpt lat="43.58126" lon="-0.95177">
        <ele>56</ele>
        <time>2021-05-08T09:34:01Z</time>
      </trkpt>
      <trkpt lat="43.58127" lon="-0.95174">
        <ele>56</ele>
        <time>2021-05-08T09:34:02Z</time>
      </trkpt>
      <trkpt lat="43.58129" lon="-0.9517">
        <ele>55</ele>
        <time>2021-05-08T09:34:03Z</time>
      </trkpt>
      <trkpt lat="43.58131" lon="-0.95167">
        <ele>55</ele>
        <time>2021-05-08T09:34:04Z</time>
      </trkpt>
      <trkpt lat="43.58133" lon="-0.95163">
        <ele>55</ele>
        <time>2021-05-08T09:34:05Z</time>
      </trkpt>
      <trkpt lat="43.58134" lon="-0.9516">
        <ele>55</ele>
        <time>2021-05-08T09:34:06Z</time>
      </trkpt>
      <trkpt lat="43.58136" lon="-0.95157">
        <ele>55</ele>
        <time>2021-05-08T09:34:07Z</time>
      </trkpt>
      <trkpt lat="43.58138" lon="-0.95153">
        <ele>55</ele>
        <time>2021-05-08T09:34:08Z</time>
      </trkpt>
      <trkpt lat="43.5814" lon="-0.9515">
        <ele>55</ele>
        <time>2021-05-08T09:34:09Z</time>
      </trkpt>
      <trkpt lat="43.58141" lon="-0.95147">
        <ele>55</ele>
        <time>2021-05-08T09:34:10Z</time>
      </trkpt>
      <trkpt lat="43.58143" lon="-0.95143">
        <ele>55</ele>
        <time>2021-05-08T09:34:11Z</time>
      </trkpt>
      <trkpt lat="43.58145" lon="-0.9514">
        <ele>55</ele>
        <time>2021-05-08T09:34:12Z</time>
      </trkpt>
      <trkpt lat="43.58147" lon="-0.95137">
        <ele>54</ele>
        <time>2021-05-08T09:34:13Z</time>
      </trkpt>
      <trkpt lat="43.58148" lon="-0.95134">
        <ele>54</ele>
        <time>2021-05-08T09:34:14Z</time>
      </trkpt>
      <trkpt lat="43.5815" lon="-0.95131">
        <ele>54</ele>
        <time>2021-05-08T09:34:15Z</time>
      </trkpt>
      <trkpt lat="43.58152" lon="-0.95128">
        <ele>54</ele>
        <time>2021-05-08T09:34:16Z</time>
      </trkpt>
      <trkpt lat="43.58154" lon="-0.95125">
        <ele>54</ele>
        <time>2021-05-08T09:34:17Z</time>
      </trkpt>
      <trkpt lat="43.58155" lon="-0.95123">
        <ele>53</ele>
        <time>2021-05-08T09:34:18Z</time>
      </trkpt>
      <trkpt lat="43.58157" lon="-0.9512">
        <ele>53</ele>
        <time>2021-05-08T09:34:19Z</time>
      </trkpt>
      <trkpt lat="43.58159" lon="-0.95117">
        <ele>53</ele>
        <time>2021-05-08T09:34:20Z</time>
      </trkpt>
      <trkpt lat="43.5816" lon="-0.95115">
        <ele>53</ele>
        <time>2021-05-08T09:34:21Z</time>
      </trkpt>
      <trkpt lat="43.58162" lon="-0.95112">
        <ele>53</ele>
        <time>2021-05-08T09:34:22Z</time>
      </trkpt>
      <trkpt lat="43.58163" lon="-0.9511">
        <ele>53</ele>
        <time>2021-05-08T09:34:23Z</time>
      </trkpt>
      <trkpt lat="43.58165" lon="-0.95108">
        <ele>53</ele>
        <time>2021-05-08T09:34:24Z</time>
      </trkpt>
      <trkpt lat="43.58167" lon="-0.95106">
        <ele>53</ele>
        <time>2021-05-08T09:34:25Z</time>
      </trkpt>
      <trkpt lat="43.58168" lon="-0.95104">
        <ele>53</ele>
        <time>2021-05-08T09:34:26Z</time>
      </trkpt>
      <trkpt lat="43.5817" lon="-0.95102">
        <ele>53</ele>
        <time>2021-05-08T09:34:27Z</time>
      </trkpt>
      <trkpt lat="43.58171" lon="-0.951">
        <ele>53</ele>
        <time>2021-05-08T09:34:28Z</time>
      </trkpt>
      <trkpt lat="43.58173" lon="-0.95099">
        <ele>53</ele>
        <time>2021-05-08T09:34:29Z</time>
      </trkpt>
      <trkpt lat="43.58175" lon="-0.95097">
        <ele>53</ele>
        <time>2021-05-08T09:34:30Z</time>
      </trkpt>
      <trkpt lat="43.58177" lon="-0.95095">
        <ele>53</ele>
        <time>2021-05-08T09:34:31Z</time>
      </trkpt>
      <trkpt lat="43.58178" lon="-0.95094">
        <ele>54</ele>
        <time>2021-05-08T09:34:32Z</time>
      </trkpt>
      <trkpt lat="43.5818" lon="-0.95092">
        <ele>54</ele>
        <time>2021-05-08T09:34:33Z</time>
      </trkpt>
      <trkpt lat="43.58182" lon="-0.95091">
        <ele>54</ele>
        <time>2021-05-08T09:34:34Z</time>
      </trkpt>
      <trkpt lat="43.58184" lon="-0.95089">
        <ele>54</ele>
        <time>2021-05-08T09:34:35Z</time>
      </trkpt>
      <trkpt lat="43.58185" lon="-0.95088">
        <ele>54</ele>
        <time>2021-05-08T09:34:36Z</time>
      </trkpt>
      <trkpt lat="43.58187" lon="-0.95087">
        <ele>54</ele>
        <time>2021-05-08T09:34:37Z</time>
      </trkpt>
      <trkpt lat="43.58189" lon="-0.95085">
        <ele>54</ele>
        <time>2021-05-08T09:34:38Z</time>
      </trkpt>
      <trkpt lat="43.58191" lon="-0.95084">
        <ele>54</ele>
        <time>2021-05-08T09:34:39Z</time>
      </trkpt>
      <trkpt lat="43.58193" lon="-0.95083">
        <ele>54</ele>
        <time>2021-05-08T09:34:40Z</time>
      </trkpt>
      <trkpt lat="43.58195" lon="-0.95081">
        <ele>54</ele>
        <time>2021-05-08T09:34:41Z</time>
      </trkpt>
      <trkpt lat="43.58197" lon="-0.9508">
        <ele>55</ele>
        <time>2021-05-08T09:34:42Z</time>
      </trkpt>
      <trkpt lat="43.58199" lon="-0.95079">
        <ele>55</ele>
        <time>2021-05-08T09:34:43Z</time>
      </trkpt>
      <trkpt lat="43.58201" lon="-0.95077">
        <ele>55</ele>
        <time>2021-05-08T09:34:44Z</time>
      </trkpt>
      <trkpt lat="43.58202" lon="-0.95076">
        <ele>55</ele>
        <time>2021-05-08T09:34:45Z</time>
      </trkpt>
      <trkpt lat="43.58204" lon="-0.95075">
        <ele>55</ele>
        <time>2021-05-08T09:34:46Z</time>
      </trkpt>
      <trkpt lat="43.58206" lon="-0.95073">
        <ele>56</ele>
        <time>2021-05-08T09:34:47Z</time>
      </trkpt>
      <trkpt lat="43.58208" lon="-0.95072">
        <ele>56</ele>
        <time>2021-05-08T09:34:48Z</time>
      </trkpt>
      <trkpt lat="43.5821" lon="-0.95071">
        <ele>56</ele>
        <time>2021-05-08T09:34:49Z</time>
      </trkpt>
      <trkpt lat="43.58212" lon="-0.95069">
        <ele>56</ele>
        <time>2021-05-08T09:34:50Z</time>
      </trkpt>
      <trkpt lat="43.58214" lon="-0.95068">
        <ele>56</ele>
        <time>2021-05-08T09:34:51Z</time>
      </trkpt>
      <trkpt lat="43.58216" lon="-0.95066">
        <ele>57</ele>
        <time>2021-05-08T09:34:52Z</time>
      </trkpt>
      <trkpt lat="43.58218" lon="-0.95065">
        <ele>57</ele>
        <time>2021-05-08T09:34:53Z</time>
      </trkpt>
      <trkpt lat="43.5822" lon="-0.95063">
        <ele>57</ele>
        <time>2021-05-08T09:34:54Z</time>
      </trkpt>
      <trkpt lat="43.58222" lon="-0.95062">
        <ele>57</ele>
        <time>2021-05-08T09:34:55Z</time>
      </trkpt>
      <trkpt lat="43.58224" lon="-0.9506">
        <ele>57</ele>
        <time>2021-05-08T09:34:56Z</time>
      </trkpt>
      <trkpt lat="43.58226" lon="-0.95059">
        <ele>57</ele>
        <time>2021-05-08T09:34:57Z</time>
      </trkpt>
      <trkpt lat="43.58228" lon="-0.95058">
        <ele>57</ele>
        <time>2021-05-08T09:34:58Z</time>
      </trkpt>
      <trkpt lat="43.5823" lon="-0.95056">
        <ele>57</ele>
        <time>2021-05-08T09:34:59Z</time>
      </trkpt>
      <trkpt lat="43.58232" lon="-0.95055">
        <ele>57</ele>
        <time>2021-05-08T09:35:00Z</time>
      </trkpt>
      <trkpt lat="43.58234" lon="-0.95053">
        <ele>57</ele>
        <time>2021-05-08T09:35:01Z</time>
      </trkpt>
      <trkpt lat="43.58236" lon="-0.95051">
        <ele>57</ele>
        <time>2021-05-08T09:35:02Z</time>
      </trkpt>
      <trkpt lat="43.58238" lon="-0.9505">
        <ele>57</ele>
        <time>2021-05-08T09:35:03Z</time>
      </trkpt>
      <trkpt lat="43.58239" lon="-0.95048">
        <ele>57</ele>
        <time>2021-05-08T09:35:04Z</time>
      </trkpt>
      <trkpt lat="43.58242" lon="-0.95046">
        <ele>57</ele>
        <time>2021-05-08T09:35:05Z</time>
      </trkpt>
      <trkpt lat="43.58244" lon="-0.95044">
        <ele>57</ele>
        <time>2021-05-08T09:35:06Z</time>
      </trkpt>
      <trkpt lat="43.58246" lon="-0.95042">
        <ele>57</ele>
        <time>2021-05-08T09:35:07Z</time>
      </trkpt>
      <trkpt lat="43.58248" lon="-0.9504">
        <ele>57</ele>
        <time>2021-05-08T09:35:08Z</time>
      </trkpt>
      <trkpt lat="43.5825" lon="-0.95038">
        <ele>57</ele>
        <time>2021-05-08T09:35:09Z</time>
      </trkpt>
      <trkpt lat="43.58253" lon="-0.95037">
        <ele>57</ele>
        <time>2021-05-08T09:35:10Z</time>
      </trkpt>
      <trkpt lat="43.58255" lon="-0.95035">
        <ele>57</ele>
        <time>2021-05-08T09:35:11Z</time>
      </trkpt>
      <trkpt lat="43.58257" lon="-0.95033">
        <ele>58</ele>
        <time>2021-05-08T09:35:12Z</time>
      </trkpt>
      <trkpt lat="43.5826" lon="-0.95032">
        <ele>57</ele>
        <time>2021-05-08T09:35:13Z</time>
      </trkpt>
      <trkpt lat="43.58262" lon="-0.9503">
        <ele>57</ele>
        <time>2021-05-08T09:35:14Z</time>
      </trkpt>
      <trkpt lat="43.58264" lon="-0.95029">
        <ele>57</ele>
        <time>2021-05-08T09:35:15Z</time>
      </trkpt>
      <trkpt lat="43.58266" lon="-0.95028">
        <ele>57</ele>
        <time>2021-05-08T09:35:16Z</time>
      </trkpt>
      <trkpt lat="43.58269" lon="-0.95027">
        <ele>57</ele>
        <time>2021-05-08T09:35:17Z</time>
      </trkpt>
      <trkpt lat="43.58271" lon="-0.95026">
        <ele>57</ele>
        <time>2021-05-08T09:35:18Z</time>
      </trkpt>
      <trkpt lat="43.58273" lon="-0.95025">
        <ele>57</ele>
        <time>2021-05-08T09:35:19Z</time>
      </trkpt>
      <trkpt lat="43.58276" lon="-0.95025">
        <ele>57</ele>
        <time>2021-05-08T09:35:20Z</time>
      </trkpt>
      <trkpt lat="43.58278" lon="-0.95024">
        <ele>57</ele>
        <time>2021-05-08T09:35:21Z</time>
      </trkpt>
      <trkpt lat="43.5828" lon="-0.95023">
        <ele>57</ele>
        <time>2021-05-08T09:35:22Z</time>
      </trkpt>
      <trkpt lat="43.58282" lon="-0.95022">
        <ele>57</ele>
        <time>2021-05-08T09:35:23Z</time>
      </trkpt>
      <trkpt lat="43.58284" lon="-0.95021">
        <ele>57</ele>
        <time>2021-05-08T09:35:24Z</time>
      </trkpt>
      <trkpt lat="43.58287" lon="-0.9502">
        <ele>57</ele>
        <time>2021-05-08T09:35:25Z</time>
      </trkpt>
      <trkpt lat="43.58289" lon="-0.95019">
        <ele>57</ele>
        <time>2021-05-08T09:35:26Z</time>
      </trkpt>
      <trkpt lat="43.58291" lon="-0.95018">
        <ele>57</ele>
        <time>2021-05-08T09:35:27Z</time>
      </trkpt>
      <trkpt lat="43.58293" lon="-0.95017">
        <ele>57</ele>
        <time>2021-05-08T09:35:28Z</time>
      </trkpt>
      <trkpt lat="43.58295" lon="-0.95016">
        <ele>57</ele>
        <time>2021-05-08T09:35:29Z</time>
      </trkpt>
      <trkpt lat="43.58297" lon="-0.95016">
        <ele>57</ele>
        <time>2021-05-08T09:35:30Z</time>
      </trkpt>
      <trkpt lat="43.583" lon="-0.95015">
        <ele>57</ele>
        <time>2021-05-08T09:35:31Z</time>
      </trkpt>
      <trkpt lat="43.58302" lon="-0.95014">
        <ele>58</ele>
        <time>2021-05-08T09:35:32Z</time>
      </trkpt>
      <trkpt lat="43.58304" lon="-0.95013">
        <ele>58</ele>
        <time>2021-05-08T09:35:33Z</time>
      </trkpt>
      <trkpt lat="43.58306" lon="-0.95012">
        <ele>58</ele>
        <time>2021-05-08T09:35:34Z</time>
      </trkpt>
      <trkpt lat="43.58308" lon="-0.9501">
        <ele>58</ele>
        <time>2021-05-08T09:35:35Z</time>
      </trkpt>
      <trkpt lat="43.5831" lon="-0.95009">
        <ele>58</ele>
        <time>2021-05-08T09:35:36Z</time>
      </trkpt>
      <trkpt lat="43.58312" lon="-0.95006">
        <ele>58</ele>
        <time>2021-05-08T09:35:37Z</time>
      </trkpt>
      <trkpt lat="43.58314" lon="-0.95004">
        <ele>58</ele>
        <time>2021-05-08T09:35:38Z</time>
      </trkpt>
      <trkpt lat="43.58315" lon="-0.95001">
        <ele>58</ele>
        <time>2021-05-08T09:35:39Z</time>
      </trkpt>
      <trkpt lat="43.58317" lon="-0.94998">
        <ele>58</ele>
        <time>2021-05-08T09:35:40Z</time>
      </trkpt>
      <trkpt lat="43.58318" lon="-0.94995">
        <ele>58</ele>
        <time>2021-05-08T09:35:41Z</time>
      </trkpt>
      <trkpt lat="43.58318" lon="-0.94992">
        <ele>59</ele>
        <time>2021-05-08T09:35:42Z</time>
      </trkpt>
      <trkpt lat="43.58319" lon="-0.94988">
        <ele>58</ele>
        <time>2021-05-08T09:35:43Z</time>
      </trkpt>
      <trkpt lat="43.58319" lon="-0.94985">
        <ele>58</ele>
        <time>2021-05-08T09:35:44Z</time>
      </trkpt>
      <trkpt lat="43.58319" lon="-0.94981">
        <ele>58</ele>
        <time>2021-05-08T09:35:45Z</time>
      </trkpt>
      <trkpt lat="43.58319" lon="-0.94978">
        <ele>58</ele>
        <time>2021-05-08T09:35:46Z</time>
      </trkpt>
      <trkpt lat="43.58318" lon="-0.94975">
        <ele>58</ele>
        <time>2021-05-08T09:35:47Z</time>
      </trkpt>
      <trkpt lat="43.58317" lon="-0.94972">
        <ele>58</ele>
        <time>2021-05-08T09:35:48Z</time>
      </trkpt>
      <trkpt lat="43.58316" lon="-0.94969">
        <ele>58</ele>
        <time>2021-05-08T09:35:49Z</time>
      </trkpt>
      <trkpt lat="43.58315" lon="-0.94966">
        <ele>58</ele>
        <time>2021-05-08T09:35:50Z</time>
      </trkpt>
      <trkpt lat="43.58314" lon="-0.94963">
        <ele>58</ele>
        <time>2021-05-08T09:35:51Z</time>
      </trkpt>
      <trkpt lat="43.58312" lon="-0.9496">
        <ele>59</ele>
        <time>2021-05-08T09:35:52Z</time>
      </trkpt>
      <trkpt lat="43.58311" lon="-0.94958">
        <ele>59</ele>
        <time>2021-05-08T09:35:53Z</time>
      </trkpt>
      <trkpt lat="43.5831" lon="-0.94955">
        <ele>59</ele>
        <time>2021-05-08T09:35:54Z</time>
      </trkpt>
      <trkpt lat="43.58308" lon="-0.94953">
        <ele>59</ele>
        <time>2021-05-08T09:35:55Z</time>
      </trkpt>
      <trkpt lat="43.58307" lon="-0.9495">
        <ele>59</ele>
        <time>2021-05-08T09:35:56Z</time>
      </trkpt>
      <trkpt lat="43.58306" lon="-0.94948">
        <ele>60</ele>
        <time>2021-05-08T09:35:57Z</time>
      </trkpt>
      <trkpt lat="43.58304" lon="-0.94945">
        <ele>59</ele>
        <time>2021-05-08T09:35:58Z</time>
      </trkpt>
      <trkpt lat="43.58303" lon="-0.94942">
        <ele>59</ele>
        <time>2021-05-08T09:35:59Z</time>
      </trkpt>
      <trkpt lat="43.58302" lon="-0.9494">
        <ele>59</ele>
        <time>2021-05-08T09:36:00Z</time>
      </trkpt>
      <trkpt lat="43.58301" lon="-0.94937">
        <ele>59</ele>
        <time>2021-05-08T09:36:01Z</time>
      </trkpt>
      <trkpt lat="43.58299" lon="-0.94934">
        <ele>59</ele>
        <time>2021-05-08T09:36:02Z</time>
      </trkpt>
      <trkpt lat="43.58298" lon="-0.94931">
        <ele>58</ele>
        <time>2021-05-08T09:36:03Z</time>
      </trkpt>
      <trkpt lat="43.58297" lon="-0.94928">
        <ele>58</ele>
        <time>2021-05-08T09:36:04Z</time>
      </trkpt>
      <trkpt lat="43.58296" lon="-0.94925">
        <ele>58</ele>
        <time>2021-05-08T09:36:05Z</time>
      </trkpt>
      <trkpt lat="43.58295" lon="-0.94921">
        <ele>58</ele>
        <time>2021-05-08T09:36:06Z</time>
      </trkpt>
      <trkpt lat="43.58294" lon="-0.94918">
        <ele>58</ele>
        <time>2021-05-08T09:36:07Z</time>
      </trkpt>
      <trkpt lat="43.58293" lon="-0.94915">
        <ele>57</ele>
        <time>2021-05-08T09:36:08Z</time>
      </trkpt>
      <trkpt lat="43.58293" lon="-0.94911">
        <ele>57</ele>
        <time>2021-05-08T09:36:09Z</time>
      </trkpt>
      <trkpt lat="43.58292" lon="-0.94908">
        <ele>56</ele>
        <time>2021-05-08T09:36:10Z</time>
      </trkpt>
      <trkpt lat="43.58293" lon="-0.94904">
        <ele>56</ele>
        <time>2021-05-08T09:36:11Z</time>
      </trkpt>
      <trkpt lat="43.58293" lon="-0.94901">
        <ele>56</ele>
        <time>2021-05-08T09:36:12Z</time>
      </trkpt>
      <trkpt lat="43.58294" lon="-0.94897">
        <ele>55</ele>
        <time>2021-05-08T09:36:13Z</time>
      </trkpt>
      <trkpt lat="43.58295" lon="-0.94894">
        <ele>55</ele>
        <time>2021-05-08T09:36:14Z</time>
      </trkpt>
      <trkpt lat="43.58297" lon="-0.94891">
        <ele>55</ele>
        <time>2021-05-08T09:36:15Z</time>
      </trkpt>
      <trkpt lat="43.58298" lon="-0.94887">
        <ele>55</ele>
        <time>2021-05-08T09:36:16Z</time>
      </trkpt>
      <trkpt lat="43.583" lon="-0.94884">
        <ele>55</ele>
        <time>2021-05-08T09:36:17Z</time>
      </trkpt>
      <trkpt lat="43.58302" lon="-0.94881">
        <ele>54</ele>
        <time>2021-05-08T09:36:18Z</time>
      </trkpt>
      <trkpt lat="43.58303" lon="-0.94878">
        <ele>54</ele>
        <time>2021-05-08T09:36:19Z</time>
      </trkpt>
      <trkpt lat="43.58305" lon="-0.94875">
        <ele>54</ele>
        <time>2021-05-08T09:36:20Z</time>
      </trkpt>
      <trkpt lat="43.58307" lon="-0.94873">
        <ele>54</ele>
        <time>2021-05-08T09:36:21Z</time>
      </trkpt>
      <trkpt lat="43.58308" lon="-0.9487">
        <ele>54</ele>
        <time>2021-05-08T09:36:22Z</time>
      </trkpt>
      <trkpt lat="43.5831" lon="-0.94867">
        <ele>53</ele>
        <time>2021-05-08T09:36:23Z</time>
      </trkpt>
      <trkpt lat="43.58312" lon="-0.94864">
        <ele>53</ele>
        <time>2021-05-08T09:36:24Z</time>
      </trkpt>
      <trkpt lat="43.58313" lon="-0.94862">
        <ele>52</ele>
        <time>2021-05-08T09:36:25Z</time>
      </trkpt>
      <trkpt lat="43.58315" lon="-0.94859">
        <ele>52</ele>
        <time>2021-05-08T09:36:26Z</time>
      </trkpt>
      <trkpt lat="43.58316" lon="-0.94856">
        <ele>52</ele>
        <time>2021-05-08T09:36:27Z</time>
      </trkpt>
      <trkpt lat="43.58318" lon="-0.94854">
        <ele>52</ele>
        <time>2021-05-08T09:36:28Z</time>
      </trkpt>
      <trkpt lat="43.5832" lon="-0.94851">
        <ele>52</ele>
        <time>2021-05-08T09:36:29Z</time>
      </trkpt>
      <trkpt lat="43.58321" lon="-0.94848">
        <ele>52</ele>
        <time>2021-05-08T09:36:30Z</time>
      </trkpt>
      <trkpt lat="43.58323" lon="-0.94845">
        <ele>52</ele>
        <time>2021-05-08T09:36:31Z</time>
      </trkpt>
      <trkpt lat="43.58325" lon="-0.94842">
        <ele>52</ele>
        <time>2021-05-08T09:36:32Z</time>
      </trkpt>
      <trkpt lat="43.58326" lon="-0.9484">
        <ele>52</ele>
        <time>2021-05-08T09:36:33Z</time>
      </trkpt>
      <trkpt lat="43.58328" lon="-0.94837">
        <ele>52</ele>
        <time>2021-05-08T09:36:34Z</time>
      </trkpt>
      <trkpt lat="43.58329" lon="-0.94834">
        <ele>52</ele>
        <time>2021-05-08T09:36:35Z</time>
      </trkpt>
      <trkpt lat="43.58331" lon="-0.94832">
        <ele>52</ele>
        <time>2021-05-08T09:36:36Z</time>
      </trkpt>
      <trkpt lat="43.58332" lon="-0.94829">
        <ele>52</ele>
        <time>2021-05-08T09:36:37Z</time>
      </trkpt>
      <trkpt lat="43.58334" lon="-0.94827">
        <ele>52</ele>
        <time>2021-05-08T09:36:38Z</time>
      </trkpt>
      <trkpt lat="43.58335" lon="-0.94824">
        <ele>52</ele>
        <time>2021-05-08T09:36:39Z</time>
      </trkpt>
      <trkpt lat="43.58337" lon="-0.94822">
        <ele>52</ele>
        <time>2021-05-08T09:36:40Z</time>
      </trkpt>
      <trkpt lat="43.58338" lon="-0.94819">
        <ele>52</ele>
        <time>2021-05-08T09:36:41Z</time>
      </trkpt>
      <trkpt lat="43.5834" lon="-0.94817">
        <ele>52</ele>
        <time>2021-05-08T09:36:42Z</time>
      </trkpt>
      <trkpt lat="43.58341" lon="-0.94814">
        <ele>51</ele>
        <time>2021-05-08T09:36:43Z</time>
      </trkpt>
      <trkpt lat="43.58343" lon="-0.94812">
        <ele>51</ele>
        <time>2021-05-08T09:36:44Z</time>
      </trkpt>
      <trkpt lat="43.58344" lon="-0.94809">
        <ele>51</ele>
        <time>2021-05-08T09:36:45Z</time>
      </trkpt>
      <trkpt lat="43.58346" lon="-0.94807">
        <ele>51</ele>
        <time>2021-05-08T09:36:46Z</time>
      </trkpt>
      <trkpt lat="43.58348" lon="-0.94804">
        <ele>51</ele>
        <time>2021-05-08T09:36:47Z</time>
      </trkpt>
      <trkpt lat="43.58349" lon="-0.94802">
        <ele>50</ele>
        <time>2021-05-08T09:36:48Z</time>
      </trkpt>
      <trkpt lat="43.58351" lon="-0.948">
        <ele>50</ele>
        <time>2021-05-08T09:36:49Z</time>
      </trkpt>
      <trkpt lat="43.58353" lon="-0.94798">
        <ele>50</ele>
        <time>2021-05-08T09:36:50Z</time>
      </trkpt>
      <trkpt lat="43.58355" lon="-0.94795">
        <ele>50</ele>
        <time>2021-05-08T09:36:51Z</time>
      </trkpt>
      <trkpt lat="43.58357" lon="-0.94793">
        <ele>50</ele>
        <time>2021-05-08T09:36:52Z</time>
      </trkpt>
      <trkpt lat="43.58358" lon="-0.94791">
        <ele>50</ele>
        <time>2021-05-08T09:36:53Z</time>
      </trkpt>
      <trkpt lat="43.5836" lon="-0.94789">
        <ele>50</ele>
        <time>2021-05-08T09:36:54Z</time>
      </trkpt>
      <trkpt lat="43.58362" lon="-0.94787">
        <ele>50</ele>
        <time>2021-05-08T09:36:55Z</time>
      </trkpt>
      <trkpt lat="43.58364" lon="-0.94785">
        <ele>50</ele>
        <time>2021-05-08T09:36:56Z</time>
      </trkpt>
      <trkpt lat="43.58366" lon="-0.94783">
        <ele>51</ele>
        <time>2021-05-08T09:36:57Z</time>
      </trkpt>
      <trkpt lat="43.58368" lon="-0.94781">
        <ele>50</ele>
        <time>2021-05-08T09:36:58Z</time>
      </trkpt>
      <trkpt lat="43.5837" lon="-0.94778">
        <ele>50</ele>
        <time>2021-05-08T09:36:59Z</time>
      </trkpt>
      <trkpt lat="43.58372" lon="-0.94776">
        <ele>50</ele>
        <time>2021-05-08T09:37:00Z</time>
      </trkpt>
      <trkpt lat="43.58374" lon="-0.94774">
        <ele>50</ele>
        <time>2021-05-08T09:37:01Z</time>
      </trkpt>
      <trkpt lat="43.58376" lon="-0.94772">
        <ele>50</ele>
        <time>2021-05-08T09:37:02Z</time>
      </trkpt>
      <trkpt lat="43.58378" lon="-0.9477">
        <ele>50</ele>
        <time>2021-05-08T09:37:03Z</time>
      </trkpt>
      <trkpt lat="43.5838" lon="-0.94768">
        <ele>50</ele>
        <time>2021-05-08T09:37:04Z</time>
      </trkpt>
      <trkpt lat="43.58382" lon="-0.94766">
        <ele>50</ele>
        <time>2021-05-08T09:37:05Z</time>
      </trkpt>
      <trkpt lat="43.58383" lon="-0.94763">
        <ele>50</ele>
        <time>2021-05-08T09:37:06Z</time>
      </trkpt>
      <trkpt lat="43.58385" lon="-0.94761">
        <ele>50</ele>
        <time>2021-05-08T09:37:07Z</time>
      </trkpt>
      <trkpt lat="43.58387" lon="-0.94759">
        <ele>50</ele>
        <time>2021-05-08T09:37:08Z</time>
      </trkpt>
      <trkpt lat="43.58389" lon="-0.94757">
        <ele>50</ele>
        <time>2021-05-08T09:37:09Z</time>
      </trkpt>
      <trkpt lat="43.58391" lon="-0.94755">
        <ele>50</ele>
        <time>2021-05-08T09:37:10Z</time>
      </trkpt>
      <trkpt lat="43.58393" lon="-0.94753">
        <ele>50</ele>
        <time>2021-05-08T09:37:11Z</time>
      </trkpt>
      <trkpt lat="43.58395" lon="-0.94751">
        <ele>50</ele>
        <time>2021-05-08T09:37:12Z</time>
      </trkpt>
      <trkpt lat="43.58397" lon="-0.94748">
        <ele>49</ele>
        <time>2021-05-08T09:37:13Z</time>
      </trkpt>
      <trkpt lat="43.58399" lon="-0.94746">
        <ele>49</ele>
        <time>2021-05-08T09:37:14Z</time>
      </trkpt>
      <trkpt lat="43.584" lon="-0.94744">
        <ele>49</ele>
        <time>2021-05-08T09:37:15Z</time>
      </trkpt>
      <trkpt lat="43.58402" lon="-0.94741">
        <ele>49</ele>
        <time>2021-05-08T09:37:16Z</time>
      </trkpt>
      <trkpt lat="43.58404" lon="-0.94739">
        <ele>49</ele>
        <time>2021-05-08T09:37:17Z</time>
      </trkpt>
      <trkpt lat="43.58406" lon="-0.94737">
        <ele>49</ele>
        <time>2021-05-08T09:37:18Z</time>
      </trkpt>
      <trkpt lat="43.58408" lon="-0.94735">
        <ele>49</ele>
        <time>2021-05-08T09:37:19Z</time>
      </trkpt>
      <trkpt lat="43.5841" lon="-0.94732">
        <ele>49</ele>
        <time>2021-05-08T09:37:20Z</time>
      </trkpt>
      <trkpt lat="43.58412" lon="-0.9473">
        <ele>49</ele>
        <time>2021-05-08T09:37:21Z</time>
      </trkpt>
      <trkpt lat="43.58413" lon="-0.94727">
        <ele>50</ele>
        <time>2021-05-08T09:37:22Z</time>
      </trkpt>
      <trkpt lat="43.58415" lon="-0.94725">
        <ele>50</ele>
        <time>2021-05-08T09:37:23Z</time>
      </trkpt>
      <trkpt lat="43.58416" lon="-0.94722">
        <ele>50</ele>
        <time>2021-05-08T09:37:24Z</time>
      </trkpt>
      <trkpt lat="43.58418" lon="-0.9472">
        <ele>50</ele>
        <time>2021-05-08T09:37:25Z</time>
      </trkpt>
      <trkpt lat="43.58419" lon="-0.94717">
        <ele>50</ele>
        <time>2021-05-08T09:37:26Z</time>
      </trkpt>
      <trkpt lat="43.58421" lon="-0.94715">
        <ele>50</ele>
        <time>2021-05-08T09:37:27Z</time>
      </trkpt>
      <trkpt lat="43.58422" lon="-0.94712">
        <ele>49</ele>
        <time>2021-05-08T09:37:28Z</time>
      </trkpt>
      <trkpt lat="43.58424" lon="-0.94709">
        <ele>49</ele>
        <time>2021-05-08T09:37:29Z</time>
      </trkpt>
      <trkpt lat="43.58426" lon="-0.94707">
        <ele>49</ele>
        <time>2021-05-08T09:37:30Z</time>
      </trkpt>
      <trkpt lat="43.58427" lon="-0.94704">
        <ele>49</ele>
        <time>2021-05-08T09:37:31Z</time>
      </trkpt>
      <trkpt lat="43.58429" lon="-0.94701">
        <ele>49</ele>
        <time>2021-05-08T09:37:32Z</time>
      </trkpt>
      <trkpt lat="43.5843" lon="-0.94699">
        <ele>49</ele>
        <time>2021-05-08T09:37:33Z</time>
      </trkpt>
      <trkpt lat="43.58432" lon="-0.94696">
        <ele>49</ele>
        <time>2021-05-08T09:37:34Z</time>
      </trkpt>
      <trkpt lat="43.58433" lon="-0.94693">
        <ele>49</ele>
        <time>2021-05-08T09:37:35Z</time>
      </trkpt>
      <trkpt lat="43.58435" lon="-0.94691">
        <ele>49</ele>
        <time>2021-05-08T09:37:36Z</time>
      </trkpt>
      <trkpt lat="43.58436" lon="-0.94688">
        <ele>49</ele>
        <time>2021-05-08T09:37:37Z</time>
      </trkpt>
      <trkpt lat="43.58438" lon="-0.94686">
        <ele>49</ele>
        <time>2021-05-08T09:37:38Z</time>
      </trkpt>
      <trkpt lat="43.58439" lon="-0.94683">
        <ele>49</ele>
        <time>2021-05-08T09:37:39Z</time>
      </trkpt>
      <trkpt lat="43.58441" lon="-0.9468">
        <ele>49</ele>
        <time>2021-05-08T09:37:40Z</time>
      </trkpt>
      <trkpt lat="43.58442" lon="-0.94678">
        <ele>49</ele>
        <time>2021-05-08T09:37:41Z</time>
      </trkpt>
      <trkpt lat="43.58444" lon="-0.94675">
        <ele>49</ele>
        <time>2021-05-08T09:37:42Z</time>
      </trkpt>
      <trkpt lat="43.58445" lon="-0.94673">
        <ele>49</ele>
        <time>2021-05-08T09:37:43Z</time>
      </trkpt>
      <trkpt lat="43.58447" lon="-0.9467">
        <ele>49</ele>
        <time>2021-05-08T09:37:44Z</time>
      </trkpt>
      <trkpt lat="43.58448" lon="-0.94668">
        <ele>49</ele>
        <time>2021-05-08T09:37:45Z</time>
      </trkpt>
      <trkpt lat="43.5845" lon="-0.94665">
        <ele>49</ele>
        <time>2021-05-08T09:37:46Z</time>
      </trkpt>
      <trkpt lat="43.58451" lon="-0.94663">
        <ele>50</ele>
        <time>2021-05-08T09:37:47Z</time>
      </trkpt>
      <trkpt lat="43.58453" lon="-0.9466">
        <ele>50</ele>
        <time>2021-05-08T09:37:48Z</time>
      </trkpt>
      <trkpt lat="43.58454" lon="-0.94658">
        <ele>50</ele>
        <time>2021-05-08T09:37:49Z</time>
      </trkpt>
      <trkpt lat="43.58456" lon="-0.94655">
        <ele>50</ele>
        <time>2021-05-08T09:37:50Z</time>
      </trkpt>
      <trkpt lat="43.58457" lon="-0.94652">
        <ele>50</ele>
        <time>2021-05-08T09:37:51Z</time>
      </trkpt>
      <trkpt lat="43.58459" lon="-0.9465">
        <ele>51</ele>
        <time>2021-05-08T09:37:52Z</time>
      </trkpt>
      <trkpt lat="43.5846" lon="-0.94647">
        <ele>51</ele>
        <time>2021-05-08T09:37:53Z</time>
      </trkpt>
      <trkpt lat="43.58462" lon="-0.94645">
        <ele>51</ele>
        <time>2021-05-08T09:37:54Z</time>
      </trkpt>
      <trkpt lat="43.58463" lon="-0.94642">
        <ele>51</ele>
        <time>2021-05-08T09:37:55Z</time>
      </trkpt>
      <trkpt lat="43.58465" lon="-0.9464">
        <ele>51</ele>
        <time>2021-05-08T09:37:56Z</time>
      </trkpt>
      <trkpt lat="43.58466" lon="-0.94638">
        <ele>52</ele>
        <time>2021-05-08T09:37:57Z</time>
      </trkpt>
      <trkpt lat="43.58468" lon="-0.94635">
        <ele>51</ele>
        <time>2021-05-08T09:37:58Z</time>
      </trkpt>
      <trkpt lat="43.58469" lon="-0.94633">
        <ele>51</ele>
        <time>2021-05-08T09:37:59Z</time>
      </trkpt>
      <trkpt lat="43.58471" lon="-0.9463">
        <ele>51</ele>
        <time>2021-05-08T09:38:00Z</time>
      </trkpt>
      <trkpt lat="43.58472" lon="-0.94628">
        <ele>51</ele>
        <time>2021-05-08T09:38:01Z</time>
      </trkpt>
      <trkpt lat="43.58474" lon="-0.94625">
        <ele>51</ele>
        <time>2021-05-08T09:38:02Z</time>
      </trkpt>
      <trkpt lat="43.58475" lon="-0.94623">
        <ele>51</ele>
        <time>2021-05-08T09:38:03Z</time>
      </trkpt>
      <trkpt lat="43.58477" lon="-0.9462">
        <ele>51</ele>
        <time>2021-05-08T09:38:04Z</time>
      </trkpt>
      <trkpt lat="43.58478" lon="-0.94618">
        <ele>51</ele>
        <time>2021-05-08T09:38:05Z</time>
      </trkpt>
      <trkpt lat="43.5848" lon="-0.94615">
        <ele>51</ele>
        <time>2021-05-08T09:38:06Z</time>
      </trkpt>
      <trkpt lat="43.58481" lon="-0.94613">
        <ele>51</ele>
        <time>2021-05-08T09:38:07Z</time>
      </trkpt>
      <trkpt lat="43.58483" lon="-0.9461">
        <ele>51</ele>
        <time>2021-05-08T09:38:08Z</time>
      </trkpt>
      <trkpt lat="43.58484" lon="-0.94608">
        <ele>51</ele>
        <time>2021-05-08T09:38:09Z</time>
      </trkpt>
      <trkpt lat="43.58486" lon="-0.94605">
        <ele>51</ele>
        <time>2021-05-08T09:38:10Z</time>
      </trkpt>
      <trkpt lat="43.58488" lon="-0.94603">
        <ele>51</ele>
        <time>2021-05-08T09:38:11Z</time>
      </trkpt>
      <trkpt lat="43.58489" lon="-0.946">
        <ele>51</ele>
        <time>2021-05-08T09:38:12Z</time>
      </trkpt>
      <trkpt lat="43.58491" lon="-0.94598">
        <ele>50</ele>
        <time>2021-05-08T09:38:13Z</time>
      </trkpt>
      <trkpt lat="43.58492" lon="-0.94596">
        <ele>50</ele>
        <time>2021-05-08T09:38:14Z</time>
      </trkpt>
      <trkpt lat="43.58494" lon="-0.94594">
        <ele>50</ele>
        <time>2021-05-08T09:38:15Z</time>
      </trkpt>
      <trkpt lat="43.58495" lon="-0.94591">
        <ele>50</ele>
        <time>2021-05-08T09:38:16Z</time>
      </trkpt>
      <trkpt lat="43.58497" lon="-0.94589">
        <ele>50</ele>
        <time>2021-05-08T09:38:17Z</time>
      </trkpt>
      <trkpt lat="43.58499" lon="-0.94587">
        <ele>50</ele>
        <time>2021-05-08T09:38:18Z</time>
      </trkpt>
      <trkpt lat="43.585" lon="-0.94585">
        <ele>50</ele>
        <time>2021-05-08T09:38:19Z</time>
      </trkpt>
      <trkpt lat="43.58502" lon="-0.94584">
        <ele>50</ele>
        <time>2021-05-08T09:38:20Z</time>
      </trkpt>
      <trkpt lat="43.58503" lon="-0.94582">
        <ele>50</ele>
        <time>2021-05-08T09:38:21Z</time>
      </trkpt>
      <trkpt lat="43.58505" lon="-0.9458">
        <ele>50</ele>
        <time>2021-05-08T09:38:22Z</time>
      </trkpt>
      <trkpt lat="43.58506" lon="-0.94578">
        <ele>50</ele>
        <time>2021-05-08T09:38:23Z</time>
      </trkpt>
      <trkpt lat="43.58508" lon="-0.94577">
        <ele>50</ele>
        <time>2021-05-08T09:38:24Z</time>
      </trkpt>
      <trkpt lat="43.58509" lon="-0.94575">
        <ele>50</ele>
        <time>2021-05-08T09:38:25Z</time>
      </trkpt>
      <trkpt lat="43.58511" lon="-0.94573">
        <ele>50</ele>
        <time>2021-05-08T09:38:26Z</time>
      </trkpt>
      <trkpt lat="43.58512" lon="-0.94572">
        <ele>50</ele>
        <time>2021-05-08T09:38:27Z</time>
      </trkpt>
      <trkpt lat="43.58513" lon="-0.9457">
        <ele>50</ele>
        <time>2021-05-08T09:38:28Z</time>
      </trkpt>
      <trkpt lat="43.58515" lon="-0.94569">
        <ele>50</ele>
        <time>2021-05-08T09:38:29Z</time>
      </trkpt>
      <trkpt lat="43.58516" lon="-0.94567">
        <ele>50</ele>
        <time>2021-05-08T09:38:30Z</time>
      </trkpt>
      <trkpt lat="43.58518" lon="-0.94565">
        <ele>50</ele>
        <time>2021-05-08T09:38:31Z</time>
      </trkpt>
      <trkpt lat="43.5852" lon="-0.94564">
        <ele>51</ele>
        <time>2021-05-08T09:38:32Z</time>
      </trkpt>
      <trkpt lat="43.58522" lon="-0.94563">
        <ele>51</ele>
        <time>2021-05-08T09:38:33Z</time>
      </trkpt>
      <trkpt lat="43.58524" lon="-0.94562">
        <ele>51</ele>
        <time>2021-05-08T09:38:34Z</time>
      </trkpt>
      <trkpt lat="43.58526" lon="-0.9456">
        <ele>51</ele>
        <time>2021-05-08T09:38:35Z</time>
      </trkpt>
      <trkpt lat="43.58529" lon="-0.94559">
        <ele>51</ele>
        <time>2021-05-08T09:38:36Z</time>
      </trkpt>
      <trkpt lat="43.58531" lon="-0.94558">
        <ele>51</ele>
        <time>2021-05-08T09:38:37Z</time>
      </trkpt>
      <trkpt lat="43.58533" lon="-0.94557">
        <ele>51</ele>
        <time>2021-05-08T09:38:38Z</time>
      </trkpt>
      <trkpt lat="43.58535" lon="-0.94556">
        <ele>51</ele>
        <time>2021-05-08T09:38:39Z</time>
      </trkpt>
      <trkpt lat="43.58537" lon="-0.94555">
        <ele>51</ele>
        <time>2021-05-08T09:38:40Z</time>
      </trkpt>
      <trkpt lat="43.58539" lon="-0.94554">
        <ele>51</ele>
        <time>2021-05-08T09:38:41Z</time>
      </trkpt>
      <trkpt lat="43.58541" lon="-0.94553">
        <ele>51</ele>
        <time>2021-05-08T09:38:42Z</time>
      </trkpt>
      <trkpt lat="43.58543" lon="-0.94552">
        <ele>51</ele>
        <time>2021-05-08T09:38:43Z</time>
      </trkpt>
      <trkpt lat="43.58545" lon="-0.9455">
        <ele>51</ele>
        <time>2021-05-08T09:38:44Z</time>
      </trkpt>
      <trkpt lat="43.58547" lon="-0.94549">
        <ele>51</ele>
        <time>2021-05-08T09:38:45Z</time>
      </trkpt>
      <trkpt lat="43.58549" lon="-0.94547">
        <ele>51</ele>
        <time>2021-05-08T09:38:46Z</time>
      </trkpt>
      <trkpt lat="43.58551" lon="-0.94545">
        <ele>52</ele>
        <time>2021-05-08T09:38:47Z</time>
      </trkpt>
      <trkpt lat="43.58553" lon="-0.94544">
        <ele>51</ele>
        <time>2021-05-08T09:38:48Z</time>
      </trkpt>
      <trkpt lat="43.58555" lon="-0.94542">
        <ele>51</ele>
        <time>2021-05-08T09:38:49Z</time>
      </trkpt>
      <trkpt lat="43.58557" lon="-0.9454">
        <ele>51</ele>
        <time>2021-05-08T09:38:50Z</time>
      </trkpt>
      <trkpt lat="43.58559" lon="-0.94537">
        <ele>51</ele>
        <time>2021-05-08T09:38:51Z</time>
      </trkpt>
      <trkpt lat="43.58561" lon="-0.94535">
        <ele>51</ele>
        <time>2021-05-08T09:38:52Z</time>
      </trkpt>
      <trkpt lat="43.58563" lon="-0.94533">
        <ele>51</ele>
        <time>2021-05-08T09:38:53Z</time>
      </trkpt>
      <trkpt lat="43.58565" lon="-0.94531">
        <ele>51</ele>
        <time>2021-05-08T09:38:54Z</time>
      </trkpt>
      <trkpt lat="43.58567" lon="-0.94529">
        <ele>51</ele>
        <time>2021-05-08T09:38:55Z</time>
      </trkpt>
      <trkpt lat="43.58568" lon="-0.94527">
        <ele>51</ele>
        <time>2021-05-08T09:38:56Z</time>
      </trkpt>
      <trkpt lat="43.5857" lon="-0.94525">
        <ele>51</ele>
        <time>2021-05-08T09:38:57Z</time>
      </trkpt>
      <trkpt lat="43.58572" lon="-0.94522">
        <ele>50</ele>
        <time>2021-05-08T09:38:58Z</time>
      </trkpt>
      <trkpt lat="43.58573" lon="-0.9452">
        <ele>50</ele>
        <time>2021-05-08T09:38:59Z</time>
      </trkpt>
      <trkpt lat="43.58575" lon="-0.94518">
        <ele>50</ele>
        <time>2021-05-08T09:39:00Z</time>
      </trkpt>
      <trkpt lat="43.58576" lon="-0.94515">
        <ele>50</ele>
        <time>2021-05-08T09:39:01Z</time>
      </trkpt>
      <trkpt lat="43.58578" lon="-0.94513">
        <ele>50</ele>
        <time>2021-05-08T09:39:02Z</time>
      </trkpt>
      <trkpt lat="43.58579" lon="-0.9451">
        <ele>50</ele>
        <time>2021-05-08T09:39:03Z</time>
      </trkpt>
      <trkpt lat="43.5858" lon="-0.94508">
        <ele>50</ele>
        <time>2021-05-08T09:39:04Z</time>
      </trkpt>
      <trkpt lat="43.58582" lon="-0.94505">
        <ele>50</ele>
        <time>2021-05-08T09:39:05Z</time>
      </trkpt>
      <trkpt lat="43.58583" lon="-0.94502">
        <ele>50</ele>
        <time>2021-05-08T09:39:06Z</time>
      </trkpt>
      <trkpt lat="43.58584" lon="-0.94499">
        <ele>50</ele>
        <time>2021-05-08T09:39:07Z</time>
      </trkpt>
      <trkpt lat="43.58586" lon="-0.94496">
        <ele>50</ele>
        <time>2021-05-08T09:39:08Z</time>
      </trkpt>
      <trkpt lat="43.58587" lon="-0.94493">
        <ele>50</ele>
        <time>2021-05-08T09:39:09Z</time>
      </trkpt>
      <trkpt lat="43.58588" lon="-0.94491">
        <ele>50</ele>
        <time>2021-05-08T09:39:10Z</time>
      </trkpt>
      <trkpt lat="43.5859" lon="-0.94488">
        <ele>50</ele>
        <time>2021-05-08T09:39:11Z</time>
      </trkpt>
      <trkpt lat="43.58591" lon="-0.94485">
        <ele>50</ele>
        <time>2021-05-08T09:39:12Z</time>
      </trkpt>
      <trkpt lat="43.58592" lon="-0.94482">
        <ele>49</ele>
        <time>2021-05-08T09:39:13Z</time>
      </trkpt>
      <trkpt lat="43.58594" lon="-0.94479">
        <ele>49</ele>
        <time>2021-05-08T09:39:14Z</time>
      </trkpt>
      <trkpt lat="43.58595" lon="-0.94476">
        <ele>49</ele>
        <time>2021-05-08T09:39:15Z</time>
      </trkpt>
      <trkpt lat="43.58596" lon="-0.94473">
        <ele>49</ele>
        <time>2021-05-08T09:39:16Z</time>
      </trkpt>
      <trkpt lat="43.58597" lon="-0.9447">
        <ele>49</ele>
        <time>2021-05-08T09:39:17Z</time>
      </trkpt>
      <trkpt lat="43.58599" lon="-0.94467">
        <ele>49</ele>
        <time>2021-05-08T09:39:18Z</time>
      </trkpt>
      <trkpt lat="43.586" lon="-0.94465">
        <ele>49</ele>
        <time>2021-05-08T09:39:19Z</time>
      </trkpt>
      <trkpt lat="43.58601" lon="-0.94462">
        <ele>49</ele>
        <time>2021-05-08T09:39:20Z</time>
      </trkpt>
      <trkpt lat="43.58603" lon="-0.94459">
        <ele>49</ele>
        <time>2021-05-08T09:39:21Z</time>
      </trkpt>
      <trkpt lat="43.58604" lon="-0.94456">
        <ele>49</ele>
        <time>2021-05-08T09:39:22Z</time>
      </trkpt>
      <trkpt lat="43.58605" lon="-0.94454">
        <ele>49</ele>
        <time>2021-05-08T09:39:23Z</time>
      </trkpt>
      <trkpt lat="43.58607" lon="-0.94451">
        <ele>49</ele>
        <time>2021-05-08T09:39:24Z</time>
      </trkpt>
      <trkpt lat="43.58608" lon="-0.94448">
        <ele>49</ele>
        <time>2021-05-08T09:39:25Z</time>
      </trkpt>
      <trkpt lat="43.58609" lon="-0.94445">
        <ele>49</ele>
        <time>2021-05-08T09:39:26Z</time>
      </trkpt>
      <trkpt lat="43.58611" lon="-0.94442">
        <ele>49</ele>
        <time>2021-05-08T09:39:27Z</time>
      </trkpt>
      <trkpt lat="43.58612" lon="-0.94439">
        <ele>49</ele>
        <time>2021-05-08T09:39:28Z</time>
      </trkpt>
      <trkpt lat="43.58613" lon="-0.94436">
        <ele>49</ele>
        <time>2021-05-08T09:39:29Z</time>
      </trkpt>
      <trkpt lat="43.58614" lon="-0.94433">
        <ele>49</ele>
        <time>2021-05-08T09:39:30Z</time>
      </trkpt>
      <trkpt lat="43.58616" lon="-0.94431">
        <ele>49</ele>
        <time>2021-05-08T09:39:31Z</time>
      </trkpt>
      <trkpt lat="43.58617" lon="-0.94428">
        <ele>49</ele>
        <time>2021-05-08T09:39:32Z</time>
      </trkpt>
      <trkpt lat="43.58618" lon="-0.94425">
        <ele>49</ele>
        <time>2021-05-08T09:39:33Z</time>
      </trkpt>
      <trkpt lat="43.5862" lon="-0.94422">
        <ele>49</ele>
        <time>2021-05-08T09:39:34Z</time>
      </trkpt>
      <trkpt lat="43.58621" lon="-0.9442">
        <ele>49</ele>
        <time>2021-05-08T09:39:35Z</time>
      </trkpt>
      <trkpt lat="43.58623" lon="-0.94417">
        <ele>49</ele>
        <time>2021-05-08T09:39:36Z</time>
      </trkpt>
      <trkpt lat="43.58624" lon="-0.94414">
        <ele>49</ele>
        <time>2021-05-08T09:39:37Z</time>
      </trkpt>
      <trkpt lat="43.58626" lon="-0.94412">
        <ele>49</ele>
        <time>2021-05-08T09:39:38Z</time>
      </trkpt>
      <trkpt lat="43.58627" lon="-0.94409">
        <ele>49</ele>
        <time>2021-05-08T09:39:39Z</time>
      </trkpt>
      <trkpt lat="43.58629" lon="-0.94407">
        <ele>49</ele>
        <time>2021-05-08T09:39:40Z</time>
      </trkpt>
      <trkpt lat="43.5863" lon="-0.94405">
        <ele>49</ele>
        <time>2021-05-08T09:39:41Z</time>
      </trkpt>
      <trkpt lat="43.58631" lon="-0.94402">
        <ele>50</ele>
        <time>2021-05-08T09:39:42Z</time>
      </trkpt>
      <trkpt lat="43.58632" lon="-0.94399">
        <ele>50</ele>
        <time>2021-05-08T09:39:43Z</time>
      </trkpt>
      <trkpt lat="43.58634" lon="-0.94397">
        <ele>50</ele>
        <time>2021-05-08T09:39:44Z</time>
      </trkpt>
      <trkpt lat="43.58635" lon="-0.94394">
        <ele>50</ele>
        <time>2021-05-08T09:39:45Z</time>
      </trkpt>
      <trkpt lat="43.58636" lon="-0.94391">
        <ele>50</ele>
        <time>2021-05-08T09:39:46Z</time>
      </trkpt>
      <trkpt lat="43.58637" lon="-0.94388">
        <ele>50</ele>
        <time>2021-05-08T09:39:47Z</time>
      </trkpt>
      <trkpt lat="43.58638" lon="-0.94385">
        <ele>50</ele>
        <time>2021-05-08T09:39:48Z</time>
      </trkpt>
      <trkpt lat="43.58638" lon="-0.94383">
        <ele>50</ele>
        <time>2021-05-08T09:39:49Z</time>
      </trkpt>
      <trkpt lat="43.58639" lon="-0.9438">
        <ele>50</ele>
        <time>2021-05-08T09:39:50Z</time>
      </trkpt>
      <trkpt lat="43.58639" lon="-0.94377">
        <ele>50</ele>
        <time>2021-05-08T09:39:51Z</time>
      </trkpt>
      <trkpt lat="43.58639" lon="-0.94374">
        <ele>51</ele>
        <time>2021-05-08T09:39:52Z</time>
      </trkpt>
      <trkpt lat="43.58639" lon="-0.94371">
        <ele>50</ele>
        <time>2021-05-08T09:39:53Z</time>
      </trkpt>
      <trkpt lat="43.58639" lon="-0.94368">
        <ele>50</ele>
        <time>2021-05-08T09:39:54Z</time>
      </trkpt>
      <trkpt lat="43.58638" lon="-0.94366">
        <ele>50</ele>
        <time>2021-05-08T09:39:55Z</time>
      </trkpt>
      <trkpt lat="43.58637" lon="-0.94363">
        <ele>50</ele>
        <time>2021-05-08T09:39:56Z</time>
      </trkpt>
      <trkpt lat="43.58635" lon="-0.94361">
        <ele>50</ele>
        <time>2021-05-08T09:39:57Z</time>
      </trkpt>
      <trkpt lat="43.58633" lon="-0.94359">
        <ele>49</ele>
        <time>2021-05-08T09:39:58Z</time>
      </trkpt>
      <trkpt lat="43.5863" lon="-0.94358">
        <ele>49</ele>
        <time>2021-05-08T09:39:59Z</time>
      </trkpt>
      <trkpt lat="43.58628" lon="-0.94357">
        <ele>49</ele>
        <time>2021-05-08T09:40:00Z</time>
      </trkpt>
      <trkpt lat="43.58625" lon="-0.94356">
        <ele>49</ele>
        <time>2021-05-08T09:40:01Z</time>
      </trkpt>
      <trkpt lat="43.58622" lon="-0.94356">
        <ele>49</ele>
        <time>2021-05-08T09:40:02Z</time>
      </trkpt>
      <trkpt lat="43.58619" lon="-0.94356">
        <ele>48</ele>
        <time>2021-05-08T09:40:03Z</time>
      </trkpt>
      <trkpt lat="43.58616" lon="-0.94356">
        <ele>48</ele>
        <time>2021-05-08T09:40:04Z</time>
      </trkpt>
      <trkpt lat="43.58613" lon="-0.94356">
        <ele>48</ele>
        <time>2021-05-08T09:40:05Z</time>
      </trkpt>
      <trkpt lat="43.5861" lon="-0.94356">
        <ele>48</ele>
        <time>2021-05-08T09:40:06Z</time>
      </trkpt>
      <trkpt lat="43.58607" lon="-0.94356">
        <ele>48</ele>
        <time>2021-05-08T09:40:07Z</time>
      </trkpt>
      <trkpt lat="43.58605" lon="-0.94356">
        <ele>48</ele>
        <time>2021-05-08T09:40:08Z</time>
      </trkpt>
      <trkpt lat="43.58602" lon="-0.94355">
        <ele>48</ele>
        <time>2021-05-08T09:40:09Z</time>
      </trkpt>
      <trkpt lat="43.586" lon="-0.94355">
        <ele>48</ele>
        <time>2021-05-08T09:40:10Z</time>
      </trkpt>
      <trkpt lat="43.58598" lon="-0.94354">
        <ele>48</ele>
        <time>2021-05-08T09:40:11Z</time>
      </trkpt>
      <trkpt lat="43.58596" lon="-0.94353">
        <ele>48</ele>
        <time>2021-05-08T09:40:12Z</time>
      </trkpt>
      <trkpt lat="43.58594" lon="-0.94352">
        <ele>48</ele>
        <time>2021-05-08T09:40:13Z</time>
      </trkpt>
      <trkpt lat="43.58592" lon="-0.94351">
        <ele>48</ele>
        <time>2021-05-08T09:40:14Z</time>
      </trkpt>
      <trkpt lat="43.58589" lon="-0.9435">
        <ele>48</ele>
        <time>2021-05-08T09:40:15Z</time>
      </trkpt>
      <trkpt lat="43.58587" lon="-0.94348">
        <ele>48</ele>
        <time>2021-05-08T09:40:16Z</time>
      </trkpt>
      <trkpt lat="43.58585" lon="-0.94347">
        <ele>49</ele>
        <time>2021-05-08T09:40:17Z</time>
      </trkpt>
      <trkpt lat="43.58582" lon="-0.94346">
        <ele>49</ele>
        <time>2021-05-08T09:40:18Z</time>
      </trkpt>
      <trkpt lat="43.5858" lon="-0.94345">
        <ele>49</ele>
        <time>2021-05-08T09:40:19Z</time>
      </trkpt>
      <trkpt lat="43.58578" lon="-0.94343">
        <ele>49</ele>
        <time>2021-05-08T09:40:20Z</time>
      </trkpt>
      <trkpt lat="43.58576" lon="-0.94342">
        <ele>49</ele>
        <time>2021-05-08T09:40:21Z</time>
      </trkpt>
      <trkpt lat="43.58574" lon="-0.94341">
        <ele>50</ele>
        <time>2021-05-08T09:40:22Z</time>
      </trkpt>
      <trkpt lat="43.58572" lon="-0.94339">
        <ele>50</ele>
        <time>2021-05-08T09:40:23Z</time>
      </trkpt>
      <trkpt lat="43.5857" lon="-0.94338">
        <ele>50</ele>
        <time>2021-05-08T09:40:24Z</time>
      </trkpt>
      <trkpt lat="43.58569" lon="-0.94337">
        <ele>50</ele>
        <time>2021-05-08T09:40:25Z</time>
      </trkpt>
      <trkpt lat="43.58567" lon="-0.94335">
        <ele>50</ele>
        <time>2021-05-08T09:40:26Z</time>
      </trkpt>
      <trkpt lat="43.58565" lon="-0.94334">
        <ele>51</ele>
        <time>2021-05-08T09:40:27Z</time>
      </trkpt>
      <trkpt lat="43.58563" lon="-0.94333">
        <ele>50</ele>
        <time>2021-05-08T09:40:28Z</time>
      </trkpt>
      <trkpt lat="43.58561" lon="-0.94331">
        <ele>50</ele>
        <time>2021-05-08T09:40:29Z</time>
      </trkpt>
      <trkpt lat="43.58559" lon="-0.9433">
        <ele>50</ele>
        <time>2021-05-08T09:40:30Z</time>
      </trkpt>
      <trkpt lat="43.58557" lon="-0.94328">
        <ele>50</ele>
        <time>2021-05-08T09:40:31Z</time>
      </trkpt>
      <trkpt lat="43.58555" lon="-0.94327">
        <ele>50</ele>
        <time>2021-05-08T09:40:32Z</time>
      </trkpt>
      <trkpt lat="43.58553" lon="-0.94325">
        <ele>50</ele>
        <time>2021-05-08T09:40:33Z</time>
      </trkpt>
      <trkpt lat="43.5855" lon="-0.94323">
        <ele>50</ele>
        <time>2021-05-08T09:40:34Z</time>
      </trkpt>
      <trkpt lat="43.58549" lon="-0.94322">
        <ele>50</ele>
        <time>2021-05-08T09:40:35Z</time>
      </trkpt>
      <trkpt lat="43.58547" lon="-0.9432">
        <ele>50</ele>
        <time>2021-05-08T09:40:36Z</time>
      </trkpt>
      <trkpt lat="43.58545" lon="-0.94318">
        <ele>50</ele>
        <time>2021-05-08T09:40:37Z</time>
      </trkpt>
      <trkpt lat="43.58543" lon="-0.94317">
        <ele>50</ele>
        <time>2021-05-08T09:40:38Z</time>
      </trkpt>
      <trkpt lat="43.58541" lon="-0.94315">
        <ele>50</ele>
        <time>2021-05-08T09:40:39Z</time>
      </trkpt>
      <trkpt lat="43.58539" lon="-0.94314">
        <ele>50</ele>
        <time>2021-05-08T09:40:40Z</time>
      </trkpt>
      <trkpt lat="43.58537" lon="-0.94312">
        <ele>50</ele>
        <time>2021-05-08T09:40:41Z</time>
      </trkpt>
      <trkpt lat="43.58535" lon="-0.94311">
        <ele>51</ele>
        <time>2021-05-08T09:40:42Z</time>
      </trkpt>
      <trkpt lat="43.58533" lon="-0.9431">
        <ele>51</ele>
        <time>2021-05-08T09:40:43Z</time>
      </trkpt>
      <trkpt lat="43.58532" lon="-0.94308">
        <ele>51</ele>
        <time>2021-05-08T09:40:44Z</time>
      </trkpt>
      <trkpt lat="43.5853" lon="-0.94307">
        <ele>51</ele>
        <time>2021-05-08T09:40:45Z</time>
      </trkpt>
      <trkpt lat="43.58528" lon="-0.94305">
        <ele>51</ele>
        <time>2021-05-08T09:40:46Z</time>
      </trkpt>
      <trkpt lat="43.58526" lon="-0.94304">
        <ele>51</ele>
        <time>2021-05-08T09:40:47Z</time>
      </trkpt>
      <trkpt lat="43.58524" lon="-0.94302">
        <ele>51</ele>
        <time>2021-05-08T09:40:48Z</time>
      </trkpt>
      <trkpt lat="43.58522" lon="-0.94301">
        <ele>51</ele>
        <time>2021-05-08T09:40:49Z</time>
      </trkpt>
      <trkpt lat="43.5852" lon="-0.94299">
        <ele>51</ele>
        <time>2021-05-08T09:40:50Z</time>
      </trkpt>
      <trkpt lat="43.58518" lon="-0.94298">
        <ele>51</ele>
        <time>2021-05-08T09:40:51Z</time>
      </trkpt>
      <trkpt lat="43.58516" lon="-0.94296">
        <ele>51</ele>
        <time>2021-05-08T09:40:52Z</time>
      </trkpt>
      <trkpt lat="43.58514" lon="-0.94294">
        <ele>51</ele>
        <time>2021-05-08T09:40:53Z</time>
      </trkpt>
      <trkpt lat="43.58512" lon="-0.94293">
        <ele>51</ele>
        <time>2021-05-08T09:40:54Z</time>
      </trkpt>
      <trkpt lat="43.5851" lon="-0.94291">
        <ele>51</ele>
        <time>2021-05-08T09:40:55Z</time>
      </trkpt>
      <trkpt lat="43.58508" lon="-0.9429">
        <ele>51</ele>
        <time>2021-05-08T09:40:56Z</time>
      </trkpt>
      <trkpt lat="43.58506" lon="-0.94288">
        <ele>51</ele>
        <time>2021-05-08T09:40:57Z</time>
      </trkpt>
      <trkpt lat="43.58504" lon="-0.94287">
        <ele>51</ele>
        <time>2021-05-08T09:40:58Z</time>
      </trkpt>
      <trkpt lat="43.58502" lon="-0.94286">
        <ele>51</ele>
        <time>2021-05-08T09:40:59Z</time>
      </trkpt>
      <trkpt lat="43.585" lon="-0.94284">
        <ele>51</ele>
        <time>2021-05-08T09:41:00Z</time>
      </trkpt>
      <trkpt lat="43.58498" lon="-0.94283">
        <ele>51</ele>
        <time>2021-05-08T09:41:01Z</time>
      </trkpt>
      <trkpt lat="43.58496" lon="-0.94282">
        <ele>51</ele>
        <time>2021-05-08T09:41:02Z</time>
      </trkpt>
      <trkpt lat="43.58494" lon="-0.94281">
        <ele>51</ele>
        <time>2021-05-08T09:41:03Z</time>
      </trkpt>
      <trkpt lat="43.58492" lon="-0.9428">
        <ele>51</ele>
        <time>2021-05-08T09:41:04Z</time>
      </trkpt>
      <trkpt lat="43.58491" lon="-0.94279">
        <ele>51</ele>
        <time>2021-05-08T09:41:05Z</time>
      </trkpt>
      <trkpt lat="43.58489" lon="-0.94278">
        <ele>51</ele>
        <time>2021-05-08T09:41:06Z</time>
      </trkpt>
      <trkpt lat="43.58488" lon="-0.94277">
        <ele>51</ele>
        <time>2021-05-08T09:41:07Z</time>
      </trkpt>
      <trkpt lat="43.58486" lon="-0.94276">
        <ele>51</ele>
        <time>2021-05-08T09:41:08Z</time>
      </trkpt>
      <trkpt lat="43.58485" lon="-0.94275">
        <ele>51</ele>
        <time>2021-05-08T09:41:09Z</time>
      </trkpt>
      <trkpt lat="43.58484" lon="-0.94274">
        <ele>51</ele>
        <time>2021-05-08T09:41:10Z</time>
      </trkpt>
      <trkpt lat="43.58483" lon="-0.94273">
        <ele>51</ele>
        <time>2021-05-08T09:41:11Z</time>
      </trkpt>
      <trkpt lat="43.58482" lon="-0.94272">
        <ele>52</ele>
        <time>2021-05-08T09:41:12Z</time>
      </trkpt>
      <trkpt lat="43.58482" lon="-0.94272">
        <ele>52</ele>
        <time>2021-05-08T09:41:13Z</time>
      </trkpt>
      <trkpt lat="43.58481" lon="-0.94272">
        <ele>52</ele>
        <time>2021-05-08T09:41:14Z</time>
      </trkpt>
      <trkpt lat="43.58481" lon="-0.94272">
        <ele>52</ele>
        <time>2021-05-08T09:41:15Z</time>
      </trkpt>
      <trkpt lat="43.58481" lon="-0.94271">
        <ele>52</ele>
        <time>2021-05-08T09:41:16Z</time>
      </trkpt>
      <trkpt lat="43.5848" lon="-0.94271">
        <ele>52</ele>
        <time>2021-05-08T09:41:17Z</time>
      </trkpt>
      <trkpt lat="43.58479" lon="-0.94271">
        <ele>52</ele>
        <time>2021-05-08T09:41:18Z</time>
      </trkpt>
      <trkpt lat="43.58479" lon="-0.9427">
        <ele>52</ele>
        <time>2021-05-08T09:41:19Z</time>
      </trkpt>
      <trkpt lat="43.58478" lon="-0.9427">
        <ele>53</ele>
        <time>2021-05-08T09:41:20Z</time>
      </trkpt>
      <trkpt lat="43.58477" lon="-0.9427">
        <ele>53</ele>
        <time>2021-05-08T09:41:21Z</time>
      </trkpt>
      <trkpt lat="43.58477" lon="-0.94269">
        <ele>54</ele>
        <time>2021-05-08T09:41:22Z</time>
      </trkpt>
      <trkpt lat="43.58476" lon="-0.94269">
        <ele>54</ele>
        <time>2021-05-08T09:41:23Z</time>
      </trkpt>
      <trkpt lat="43.58475" lon="-0.94268">
        <ele>54</ele>
        <time>2021-05-08T09:41:24Z</time>
      </trkpt>
      <trkpt lat="43.58474" lon="-0.94267">
        <ele>54</ele>
        <time>2021-05-08T09:41:25Z</time>
      </trkpt>
      <trkpt lat="43.58473" lon="-0.94266">
        <ele>54</ele>
        <time>2021-05-08T09:41:26Z</time>
      </trkpt>
      <trkpt lat="43.58472" lon="-0.94265">
        <ele>55</ele>
        <time>2021-05-08T09:41:27Z</time>
      </trkpt>
      <trkpt lat="43.5847" lon="-0.94264">
        <ele>55</ele>
        <time>2021-05-08T09:41:28Z</time>
      </trkpt>
      <trkpt lat="43.58469" lon="-0.94263">
        <ele>55</ele>
        <time>2021-05-08T09:41:29Z</time>
      </trkpt>
      <trkpt lat="43.58468" lon="-0.94263">
        <ele>55</ele>
        <time>2021-05-08T09:41:30Z</time>
      </trkpt>
      <trkpt lat="43.58467" lon="-0.94262">
        <ele>55</ele>
        <time>2021-05-08T09:41:31Z</time>
      </trkpt>
      <trkpt lat="43.58466" lon="-0.94261">
        <ele>56</ele>
        <time>2021-05-08T09:41:32Z</time>
      </trkpt>
      <trkpt lat="43.58464" lon="-0.94261">
        <ele>56</ele>
        <time>2021-05-08T09:41:33Z</time>
      </trkpt>
      <trkpt lat="43.58463" lon="-0.94261">
        <ele>56</ele>
        <time>2021-05-08T09:41:34Z</time>
      </trkpt>
      <trkpt lat="43.58462" lon="-0.9426">
        <ele>56</ele>
        <time>2021-05-08T09:41:35Z</time>
      </trkpt>
      <trkpt lat="43.58461" lon="-0.94259">
        <ele>56</ele>
        <time>2021-05-08T09:41:36Z</time>
      </trkpt>
      <trkpt lat="43.5846" lon="-0.94258">
        <ele>57</ele>
        <time>2021-05-08T09:41:37Z</time>
      </trkpt>
      <trkpt lat="43.58458" lon="-0.94257">
        <ele>57</ele>
        <time>2021-05-08T09:41:38Z</time>
      </trkpt>
      <trkpt lat="43.58456" lon="-0.94256">
        <ele>57</ele>
        <time>2021-05-08T09:41:39Z</time>
      </trkpt>
      <trkpt lat="43.58455" lon="-0.94256">
        <ele>57</ele>
        <time>2021-05-08T09:41:40Z</time>
      </trkpt>
      <trkpt lat="43.58453" lon="-0.94255">
        <ele>57</ele>
        <time>2021-05-08T09:41:41Z</time>
      </trkpt>
      <trkpt lat="43.58452" lon="-0.94254">
        <ele>58</ele>
        <time>2021-05-08T09:41:42Z</time>
      </trkpt>
      <trkpt lat="43.5845" lon="-0.94254">
        <ele>58</ele>
        <time>2021-05-08T09:41:43Z</time>
      </trkpt>
      <trkpt lat="43.58449" lon="-0.94253">
        <ele>58</ele>
        <time>2021-05-08T09:41:44Z</time>
      </trkpt>
      <trkpt lat="43.58448" lon="-0.94253">
        <ele>58</ele>
        <time>2021-05-08T09:41:45Z</time>
      </trkpt>
      <trkpt lat="43.58446" lon="-0.94252">
        <ele>58</ele>
        <time>2021-05-08T09:41:46Z</time>
      </trkpt>
      <trkpt lat="43.58445" lon="-0.94252">
        <ele>59</ele>
        <time>2021-05-08T09:41:47Z</time>
      </trkpt>
      <trkpt lat="43.58443" lon="-0.94251">
        <ele>59</ele>
        <time>2021-05-08T09:41:48Z</time>
      </trkpt>
      <trkpt lat="43.58442" lon="-0.94251">
        <ele>59</ele>
        <time>2021-05-08T09:41:49Z</time>
      </trkpt>
      <trkpt lat="43.5844" lon="-0.9425">
        <ele>59</ele>
        <time>2021-05-08T09:41:50Z</time>
      </trkpt>
      <trkpt lat="43.58439" lon="-0.94249">
        <ele>59</ele>
        <time>2021-05-08T09:41:51Z</time>
      </trkpt>
      <trkpt lat="43.58438" lon="-0.94248">
        <ele>60</ele>
        <time>2021-05-08T09:41:52Z</time>
      </trkpt>
      <trkpt lat="43.58436" lon="-0.94247">
        <ele>60</ele>
        <time>2021-05-08T09:41:53Z</time>
      </trkpt>
      <trkpt lat="43.58435" lon="-0.94246">
        <ele>61</ele>
        <time>2021-05-08T09:41:54Z</time>
      </trkpt>
      <trkpt lat="43.58435" lon="-0.94246">
        <ele>61</ele>
        <time>2021-05-08T09:41:55Z</time>
      </trkpt>
      <trkpt lat="43.58434" lon="-0.94245">
        <ele>62</ele>
        <time>2021-05-08T09:41:56Z</time>
      </trkpt>
      <trkpt lat="43.58433" lon="-0.94244">
        <ele>63</ele>
        <time>2021-05-08T09:41:57Z</time>
      </trkpt>
      <trkpt lat="43.58432" lon="-0.94244">
        <ele>63</ele>
        <time>2021-05-08T09:41:58Z</time>
      </trkpt>
      <trkpt lat="43.58431" lon="-0.94244">
        <ele>63</ele>
        <time>2021-05-08T09:41:59Z</time>
      </trkpt>
      <trkpt lat="43.58431" lon="-0.94244">
        <ele>64</ele>
        <time>2021-05-08T09:42:00Z</time>
      </trkpt>
      <trkpt lat="43.5843" lon="-0.94244">
        <ele>64</ele>
        <time>2021-05-08T09:42:01Z</time>
      </trkpt>
      <trkpt lat="43.58429" lon="-0.94244">
        <ele>65</ele>
        <time>2021-05-08T09:42:02Z</time>
      </trkpt>
      <trkpt lat="43.58427" lon="-0.94243">
        <ele>65</ele>
        <time>2021-05-08T09:42:03Z</time>
      </trkpt>
      <trkpt lat="43.58426" lon="-0.94243">
        <ele>65</ele>
        <time>2021-05-08T09:42:04Z</time>
      </trkpt>
      <trkpt lat="43.58425" lon="-0.94242">
        <ele>65</ele>
        <time>2021-05-08T09:42:05Z</time>
      </trkpt>
      <trkpt lat="43.58423" lon="-0.94241">
        <ele>65</ele>
        <time>2021-05-08T09:42:06Z</time>
      </trkpt>
      <trkpt lat="43.58422" lon="-0.94241">
        <ele>65</ele>
        <time>2021-05-08T09:42:07Z</time>
      </trkpt>
      <trkpt lat="43.58421" lon="-0.9424">
        <ele>65</ele>
        <time>2021-05-08T09:42:08Z</time>
      </trkpt>
      <trkpt lat="43.5842" lon="-0.9424">
        <ele>65</ele>
        <time>2021-05-08T09:42:09Z</time>
      </trkpt>
      <trkpt lat="43.58419" lon="-0.94239">
        <ele>65</ele>
        <time>2021-05-08T09:42:10Z</time>
      </trkpt>
      <trkpt lat="43.58417" lon="-0.94238">
        <ele>65</ele>
        <time>2021-05-08T09:42:11Z</time>
      </trkpt>
      <trkpt lat="43.58416" lon="-0.94237">
        <ele>66</ele>
        <time>2021-05-08T09:42:12Z</time>
      </trkpt>
      <trkpt lat="43.58415" lon="-0.94237">
        <ele>66</ele>
        <time>2021-05-08T09:42:13Z</time>
      </trkpt>
      <trkpt lat="43.58413" lon="-0.94236">
        <ele>66</ele>
        <time>2021-05-08T09:42:14Z</time>
      </trkpt>
      <trkpt lat="43.58412" lon="-0.94235">
        <ele>66</ele>
        <time>2021-05-08T09:42:15Z</time>
      </trkpt>
      <trkpt lat="43.58411" lon="-0.94234">
        <ele>66</ele>
        <time>2021-05-08T09:42:16Z</time>
      </trkpt>
      <trkpt lat="43.58409" lon="-0.94234">
        <ele>66</ele>
        <time>2021-05-08T09:42:17Z</time>
      </trkpt>
      <trkpt lat="43.58408" lon="-0.94233">
        <ele>66</ele>
        <time>2021-05-08T09:42:18Z</time>
      </trkpt>
      <trkpt lat="43.58406" lon="-0.94232">
        <ele>66</ele>
        <time>2021-05-08T09:42:19Z</time>
      </trkpt>
      <trkpt lat="43.58405" lon="-0.94231">
        <ele>66</ele>
        <time>2021-05-08T09:42:20Z</time>
      </trkpt>
      <trkpt lat="43.58404" lon="-0.9423">
        <ele>66</ele>
        <time>2021-05-08T09:42:21Z</time>
      </trkpt>
      <trkpt lat="43.58402" lon="-0.94229">
        <ele>66</ele>
        <time>2021-05-08T09:42:22Z</time>
      </trkpt>
      <trkpt lat="43.58401" lon="-0.94228">
        <ele>66</ele>
        <time>2021-05-08T09:42:23Z</time>
      </trkpt>
      <trkpt lat="43.584" lon="-0.94227">
        <ele>66</ele>
        <time>2021-05-08T09:42:24Z</time>
      </trkpt>
      <trkpt lat="43.58398" lon="-0.94226">
        <ele>67</ele>
        <time>2021-05-08T09:42:25Z</time>
      </trkpt>
      <trkpt lat="43.58397" lon="-0.94225">
        <ele>67</ele>
        <time>2021-05-08T09:42:26Z</time>
      </trkpt>
      <trkpt lat="43.58396" lon="-0.94224">
        <ele>68</ele>
        <time>2021-05-08T09:42:27Z</time>
      </trkpt>
      <trkpt lat="43.58395" lon="-0.94223">
        <ele>68</ele>
        <time>2021-05-08T09:42:28Z</time>
      </trkpt>
      <trkpt lat="43.58395" lon="-0.94222">
        <ele>68</ele>
        <time>2021-05-08T09:42:29Z</time>
      </trkpt>
      <trkpt lat="43.58394" lon="-0.94221">
        <ele>69</ele>
        <time>2021-05-08T09:42:30Z</time>
      </trkpt>
      <trkpt lat="43.58393" lon="-0.9422">
        <ele>69</ele>
        <time>2021-05-08T09:42:31Z</time>
      </trkpt>
      <trkpt lat="43.58392" lon="-0.94219">
        <ele>70</ele>
        <time>2021-05-08T09:42:32Z</time>
      </trkpt>
      <trkpt lat="43.58391" lon="-0.94218">
        <ele>70</ele>
        <time>2021-05-08T09:42:33Z</time>
      </trkpt>
      <trkpt lat="43.5839" lon="-0.94217">
        <ele>70</ele>
        <time>2021-05-08T09:42:34Z</time>
      </trkpt>
      <trkpt lat="43.58389" lon="-0.94215">
        <ele>70</ele>
        <time>2021-05-08T09:42:35Z</time>
      </trkpt>
      <trkpt lat="43.58389" lon="-0.94214">
        <ele>70</ele>
        <time>2021-05-08T09:42:36Z</time>
      </trkpt>
      <trkpt lat="43.58388" lon="-0.94213">
        <ele>71</ele>
        <time>2021-05-08T09:42:37Z</time>
      </trkpt>
      <trkpt lat="43.58386" lon="-0.94212">
        <ele>71</ele>
        <time>2021-05-08T09:42:38Z</time>
      </trkpt>
      <trkpt lat="43.58385" lon="-0.9421">
        <ele>71</ele>
        <time>2021-05-08T09:42:39Z</time>
      </trkpt>
      <trkpt lat="43.58384" lon="-0.94208">
        <ele>71</ele>
        <time>2021-05-08T09:42:40Z</time>
      </trkpt>
      <trkpt lat="43.58383" lon="-0.94207">
        <ele>71</ele>
        <time>2021-05-08T09:42:41Z</time>
      </trkpt>
      <trkpt lat="43.58381" lon="-0.94205">
        <ele>72</ele>
        <time>2021-05-08T09:42:42Z</time>
      </trkpt>
      <trkpt lat="43.5838" lon="-0.94204">
        <ele>72</ele>
        <time>2021-05-08T09:42:43Z</time>
      </trkpt>
      <trkpt lat="43.58378" lon="-0.94202">
        <ele>72</ele>
        <time>2021-05-08T09:42:44Z</time>
      </trkpt>
      <trkpt lat="43.58377" lon="-0.94201">
        <ele>72</ele>
        <time>2021-05-08T09:42:45Z</time>
      </trkpt>
      <trkpt lat="43.58376" lon="-0.942">
        <ele>72</ele>
        <time>2021-05-08T09:42:46Z</time>
      </trkpt>
      <trkpt lat="43.58375" lon="-0.94199">
        <ele>72</ele>
        <time>2021-05-08T09:42:47Z</time>
      </trkpt>
      <trkpt lat="43.58374" lon="-0.94198">
        <ele>72</ele>
        <time>2021-05-08T09:42:48Z</time>
      </trkpt>
      <trkpt lat="43.58373" lon="-0.94198">
        <ele>72</ele>
        <time>2021-05-08T09:42:49Z</time>
      </trkpt>
      <trkpt lat="43.58372" lon="-0.94197">
        <ele>72</ele>
        <time>2021-05-08T09:42:50Z</time>
      </trkpt>
      <trkpt lat="43.58371" lon="-0.94196">
        <ele>72</ele>
        <time>2021-05-08T09:42:51Z</time>
      </trkpt>
      <trkpt lat="43.5837" lon="-0.94195">
        <ele>72</ele>
        <time>2021-05-08T09:42:52Z</time>
      </trkpt>
      <trkpt lat="43.5837" lon="-0.94194">
        <ele>72</ele>
        <time>2021-05-08T09:42:53Z</time>
      </trkpt>
      <trkpt lat="43.58368" lon="-0.94193">
        <ele>72</ele>
        <time>2021-05-08T09:42:54Z</time>
      </trkpt>
      <trkpt lat="43.58367" lon="-0.94191">
        <ele>72</ele>
        <time>2021-05-08T09:42:55Z</time>
      </trkpt>
      <trkpt lat="43.58366" lon="-0.94189">
        <ele>72</ele>
        <time>2021-05-08T09:42:56Z</time>
      </trkpt>
      <trkpt lat="43.58364" lon="-0.94188">
        <ele>72</ele>
        <time>2021-05-08T09:42:57Z</time>
      </trkpt>
      <trkpt lat="43.58362" lon="-0.94186">
        <ele>72</ele>
        <time>2021-05-08T09:42:58Z</time>
      </trkpt>
      <trkpt lat="43.58361" lon="-0.94185">
        <ele>72</ele>
        <time>2021-05-08T09:42:59Z</time>
      </trkpt>
      <trkpt lat="43.58359" lon="-0.94183">
        <ele>72</ele>
        <time>2021-05-08T09:43:00Z</time>
      </trkpt>
      <trkpt lat="43.58357" lon="-0.94182">
        <ele>72</ele>
        <time>2021-05-08T09:43:01Z</time>
      </trkpt>
      <trkpt lat="43.58356" lon="-0.94181">
        <ele>73</ele>
        <time>2021-05-08T09:43:02Z</time>
      </trkpt>
      <trkpt lat="43.58354" lon="-0.9418">
        <ele>72</ele>
        <time>2021-05-08T09:43:03Z</time>
      </trkpt>
      <trkpt lat="43.58353" lon="-0.94179">
        <ele>72</ele>
        <time>2021-05-08T09:43:04Z</time>
      </trkpt>
      <trkpt lat="43.58352" lon="-0.94178">
        <ele>71</ele>
        <time>2021-05-08T09:43:05Z</time>
      </trkpt>
      <trkpt lat="43.5835" lon="-0.94177">
        <ele>71</ele>
        <time>2021-05-08T09:43:06Z</time>
      </trkpt>
      <trkpt lat="43.58349" lon="-0.94177">
        <ele>71</ele>
        <time>2021-05-08T09:43:07Z</time>
      </trkpt>
      <trkpt lat="43.58348" lon="-0.94176">
        <ele>71</ele>
        <time>2021-05-08T09:43:08Z</time>
      </trkpt>
      <trkpt lat="43.58347" lon="-0.94175">
        <ele>72</ele>
        <time>2021-05-08T09:43:09Z</time>
      </trkpt>
      <trkpt lat="43.58346" lon="-0.94174">
        <ele>72</ele>
        <time>2021-05-08T09:43:10Z</time>
      </trkpt>
      <trkpt lat="43.58345" lon="-0.94173">
        <ele>73</ele>
        <time>2021-05-08T09:43:11Z</time>
      </trkpt>
      <trkpt lat="43.58343" lon="-0.94172">
        <ele>74</ele>
        <time>2021-05-08T09:43:12Z</time>
      </trkpt>
      <trkpt lat="43.58342" lon="-0.94171">
        <ele>74</ele>
        <time>2021-05-08T09:43:13Z</time>
      </trkpt>
      <trkpt lat="43.58341" lon="-0.9417">
        <ele>75</ele>
        <time>2021-05-08T09:43:14Z</time>
      </trkpt>
      <trkpt lat="43.5834" lon="-0.94169">
        <ele>75</ele>
        <time>2021-05-08T09:43:15Z</time>
      </trkpt>
      <trkpt lat="43.58339" lon="-0.94168">
        <ele>76</ele>
        <time>2021-05-08T09:43:16Z</time>
      </trkpt>
      <trkpt lat="43.58338" lon="-0.94167">
        <ele>77</ele>
        <time>2021-05-08T09:43:17Z</time>
      </trkpt>
      <trkpt lat="43.58337" lon="-0.94166">
        <ele>77</ele>
        <time>2021-05-08T09:43:18Z</time>
      </trkpt>
      <trkpt lat="43.58336" lon="-0.94165">
        <ele>77</ele>
        <time>2021-05-08T09:43:19Z</time>
      </trkpt>
      <trkpt lat="43.58335" lon="-0.94164">
        <ele>77</ele>
        <time>2021-05-08T09:43:20Z</time>
      </trkpt>
      <trkpt lat="43.58334" lon="-0.94164">
        <ele>77</ele>
        <time>2021-05-08T09:43:21Z</time>
      </trkpt>
      <trkpt lat="43.58333" lon="-0.94163">
        <ele>78</ele>
        <time>2021-05-08T09:43:22Z</time>
      </trkpt>
      <trkpt lat="43.58331" lon="-0.94162">
        <ele>78</ele>
        <time>2021-05-08T09:43:23Z</time>
      </trkpt>
      <trkpt lat="43.5833" lon="-0.94161">
        <ele>78</ele>
        <time>2021-05-08T09:43:24Z</time>
      </trkpt>
      <trkpt lat="43.58329" lon="-0.94161">
        <ele>78</ele>
        <time>2021-05-08T09:43:25Z</time>
      </trkpt>
      <trkpt lat="43.58327" lon="-0.9416">
        <ele>78</ele>
        <time>2021-05-08T09:43:26Z</time>
      </trkpt>
      <trkpt lat="43.58326" lon="-0.9416">
        <ele>79</ele>
        <time>2021-05-08T09:43:27Z</time>
      </trkpt>
      <trkpt lat="43.58325" lon="-0.94159">
        <ele>78</ele>
        <time>2021-05-08T09:43:28Z</time>
      </trkpt>
      <trkpt lat="43.58323" lon="-0.94159">
        <ele>77</ele>
        <time>2021-05-08T09:43:29Z</time>
      </trkpt>
      <trkpt lat="43.58322" lon="-0.94158">
        <ele>77</ele>
        <time>2021-05-08T09:43:30Z</time>
      </trkpt>
      <trkpt lat="43.58321" lon="-0.94157">
        <ele>76</ele>
        <time>2021-05-08T09:43:31Z</time>
      </trkpt>
      <trkpt lat="43.5832" lon="-0.94156">
        <ele>76</ele>
        <time>2021-05-08T09:43:32Z</time>
      </trkpt>
      <trkpt lat="43.58319" lon="-0.94155">
        <ele>75</ele>
        <time>2021-05-08T09:43:33Z</time>
      </trkpt>
      <trkpt lat="43.58318" lon="-0.94155">
        <ele>75</ele>
        <time>2021-05-08T09:43:34Z</time>
      </trkpt>
      <trkpt lat="43.58316" lon="-0.94154">
        <ele>75</ele>
        <time>2021-05-08T09:43:35Z</time>
      </trkpt>
      <trkpt lat="43.58315" lon="-0.94153">
        <ele>75</ele>
        <time>2021-05-08T09:43:36Z</time>
      </trkpt>
      <trkpt lat="43.58314" lon="-0.94152">
        <ele>75</ele>
        <time>2021-05-08T09:43:37Z</time>
      </trkpt>
      <trkpt lat="43.58313" lon="-0.94152">
        <ele>74</ele>
        <time>2021-05-08T09:43:38Z</time>
      </trkpt>
      <trkpt lat="43.58312" lon="-0.94151">
        <ele>74</ele>
        <time>2021-05-08T09:43:39Z</time>
      </trkpt>
      <trkpt lat="43.58311" lon="-0.9415">
        <ele>74</ele>
        <time>2021-05-08T09:43:40Z</time>
      </trkpt>
      <trkpt lat="43.5831" lon="-0.94149">
        <ele>74</ele>
        <time>2021-05-08T09:43:41Z</time>
      </trkpt>
      <trkpt lat="43.58309" lon="-0.94148">
        <ele>74</ele>
        <time>2021-05-08T09:43:42Z</time>
      </trkpt>
      <trkpt lat="43.58308" lon="-0.94147">
        <ele>73</ele>
        <time>2021-05-08T09:43:43Z</time>
      </trkpt>
      <trkpt lat="43.58307" lon="-0.94146">
        <ele>73</ele>
        <time>2021-05-08T09:43:44Z</time>
      </trkpt>
      <trkpt lat="43.58306" lon="-0.94145">
        <ele>73</ele>
        <time>2021-05-08T09:43:45Z</time>
      </trkpt>
      <trkpt lat="43.58305" lon="-0.94144">
        <ele>73</ele>
        <time>2021-05-08T09:43:46Z</time>
      </trkpt>
      <trkpt lat="43.58304" lon="-0.94142">
        <ele>73</ele>
        <time>2021-05-08T09:43:47Z</time>
      </trkpt>
      <trkpt lat="43.58303" lon="-0.94142">
        <ele>72</ele>
        <time>2021-05-08T09:43:48Z</time>
      </trkpt>
      <trkpt lat="43.58301" lon="-0.94141">
        <ele>72</ele>
        <time>2021-05-08T09:43:49Z</time>
      </trkpt>
      <trkpt lat="43.583" lon="-0.9414">
        <ele>72</ele>
        <time>2021-05-08T09:43:50Z</time>
      </trkpt>
      <trkpt lat="43.58299" lon="-0.9414">
        <ele>72</ele>
        <time>2021-05-08T09:43:51Z</time>
      </trkpt>
      <trkpt lat="43.58298" lon="-0.94139">
        <ele>72</ele>
        <time>2021-05-08T09:43:52Z</time>
      </trkpt>
      <trkpt lat="43.58297" lon="-0.94138">
        <ele>72</ele>
        <time>2021-05-08T09:43:53Z</time>
      </trkpt>
      <trkpt lat="43.58296" lon="-0.94137">
        <ele>73</ele>
        <time>2021-05-08T09:43:54Z</time>
      </trkpt>
      <trkpt lat="43.58295" lon="-0.94136">
        <ele>74</ele>
        <time>2021-05-08T09:43:55Z</time>
      </trkpt>
      <trkpt lat="43.58294" lon="-0.94135">
        <ele>75</ele>
        <time>2021-05-08T09:43:56Z</time>
      </trkpt>
      <trkpt lat="43.58292" lon="-0.94134">
        <ele>76</ele>
        <time>2021-05-08T09:43:57Z</time>
      </trkpt>
      <trkpt lat="43.58291" lon="-0.94133">
        <ele>77</ele>
        <time>2021-05-08T09:43:58Z</time>
      </trkpt>
      <trkpt lat="43.5829" lon="-0.94132">
        <ele>78</ele>
        <time>2021-05-08T09:43:59Z</time>
      </trkpt>
      <trkpt lat="43.58289" lon="-0.9413">
        <ele>79</ele>
        <time>2021-05-08T09:44:00Z</time>
      </trkpt>
      <trkpt lat="43.58287" lon="-0.94129">
        <ele>80</ele>
        <time>2021-05-08T09:44:01Z</time>
      </trkpt>
      <trkpt lat="43.58286" lon="-0.94128">
        <ele>81</ele>
        <time>2021-05-08T09:44:02Z</time>
      </trkpt>
      <trkpt lat="43.58285" lon="-0.94126">
        <ele>81</ele>
        <time>2021-05-08T09:44:03Z</time>
      </trkpt>
      <trkpt lat="43.58283" lon="-0.94125">
        <ele>81</ele>
        <time>2021-05-08T09:44:04Z</time>
      </trkpt>
      <trkpt lat="43.58282" lon="-0.94123">
        <ele>82</ele>
        <time>2021-05-08T09:44:05Z</time>
      </trkpt>
      <trkpt lat="43.58281" lon="-0.94122">
        <ele>82</ele>
        <time>2021-05-08T09:44:06Z</time>
      </trkpt>
      <trkpt lat="43.5828" lon="-0.9412">
        <ele>83</ele>
        <time>2021-05-08T09:44:07Z</time>
      </trkpt>
      <trkpt lat="43.58278" lon="-0.94119">
        <ele>83</ele>
        <time>2021-05-08T09:44:08Z</time>
      </trkpt>
      <trkpt lat="43.58277" lon="-0.94118">
        <ele>84</ele>
        <time>2021-05-08T09:44:09Z</time>
      </trkpt>
      <trkpt lat="43.58276" lon="-0.94117">
        <ele>84</ele>
        <time>2021-05-08T09:44:10Z</time>
      </trkpt>
      <trkpt lat="43.58274" lon="-0.94116">
        <ele>85</ele>
        <time>2021-05-08T09:44:11Z</time>
      </trkpt>
      <trkpt lat="43.58273" lon="-0.94114">
        <ele>86</ele>
        <time>2021-05-08T09:44:12Z</time>
      </trkpt>
      <trkpt lat="43.58272" lon="-0.94113">
        <ele>86</ele>
        <time>2021-05-08T09:44:13Z</time>
      </trkpt>
      <trkpt lat="43.58271" lon="-0.94112">
        <ele>86</ele>
        <time>2021-05-08T09:44:14Z</time>
      </trkpt>
      <trkpt lat="43.5827" lon="-0.94111">
        <ele>86</ele>
        <time>2021-05-08T09:44:15Z</time>
      </trkpt>
      <trkpt lat="43.58269" lon="-0.9411">
        <ele>86</ele>
        <time>2021-05-08T09:44:16Z</time>
      </trkpt>
      <trkpt lat="43.58268" lon="-0.94109">
        <ele>86</ele>
        <time>2021-05-08T09:44:17Z</time>
      </trkpt>
      <trkpt lat="43.58267" lon="-0.94108">
        <ele>86</ele>
        <time>2021-05-08T09:44:18Z</time>
      </trkpt>
      <trkpt lat="43.58266" lon="-0.94108">
        <ele>86</ele>
        <time>2021-05-08T09:44:19Z</time>
      </trkpt>
      <trkpt lat="43.58265" lon="-0.94107">
        <ele>86</ele>
        <time>2021-05-08T09:44:20Z</time>
      </trkpt>
      <trkpt lat="43.58264" lon="-0.94106">
        <ele>86</ele>
        <time>2021-05-08T09:44:21Z</time>
      </trkpt>
      <trkpt lat="43.58263" lon="-0.94105">
        <ele>86</ele>
        <time>2021-05-08T09:44:22Z</time>
      </trkpt>
      <trkpt lat="43.58262" lon="-0.94103">
        <ele>85</ele>
        <time>2021-05-08T09:44:23Z</time>
      </trkpt>
      <trkpt lat="43.58261" lon="-0.94102">
        <ele>85</ele>
        <time>2021-05-08T09:44:24Z</time>
      </trkpt>
      <trkpt lat="43.5826" lon="-0.94101">
        <ele>85</ele>
        <time>2021-05-08T09:44:25Z</time>
      </trkpt>
      <trkpt lat="43.58259" lon="-0.941">
        <ele>85</ele>
        <time>2021-05-08T09:44:26Z</time>
      </trkpt>
      <trkpt lat="43.58258" lon="-0.94099">
        <ele>85</ele>
        <time>2021-05-08T09:44:27Z</time>
      </trkpt>
      <trkpt lat="43.58257" lon="-0.94098">
        <ele>85</ele>
        <time>2021-05-08T09:44:28Z</time>
      </trkpt>
      <trkpt lat="43.58255" lon="-0.94097">
        <ele>85</ele>
        <time>2021-05-08T09:44:29Z</time>
      </trkpt>
      <trkpt lat="43.58254" lon="-0.94096">
        <ele>85</ele>
        <time>2021-05-08T09:44:30Z</time>
      </trkpt>
      <trkpt lat="43.58253" lon="-0.94096">
        <ele>85</ele>
        <time>2021-05-08T09:44:31Z</time>
      </trkpt>
      <trkpt lat="43.58252" lon="-0.94095">
        <ele>85</ele>
        <time>2021-05-08T09:44:32Z</time>
      </trkpt>
      <trkpt lat="43.5825" lon="-0.94094">
        <ele>85</ele>
        <time>2021-05-08T09:44:33Z</time>
      </trkpt>
      <trkpt lat="43.58249" lon="-0.94093">
        <ele>85</ele>
        <time>2021-05-08T09:44:34Z</time>
      </trkpt>
      <trkpt lat="43.58247" lon="-0.94092">
        <ele>85</ele>
        <time>2021-05-08T09:44:35Z</time>
      </trkpt>
      <trkpt lat="43.58246" lon="-0.94091">
        <ele>85</ele>
        <time>2021-05-08T09:44:36Z</time>
      </trkpt>
      <trkpt lat="43.58244" lon="-0.9409">
        <ele>85</ele>
        <time>2021-05-08T09:44:37Z</time>
      </trkpt>
      <trkpt lat="43.58243" lon="-0.94089">
        <ele>85</ele>
        <time>2021-05-08T09:44:38Z</time>
      </trkpt>
      <trkpt lat="43.58241" lon="-0.94088">
        <ele>85</ele>
        <time>2021-05-08T09:44:39Z</time>
      </trkpt>
      <trkpt lat="43.5824" lon="-0.94087">
        <ele>85</ele>
        <time>2021-05-08T09:44:40Z</time>
      </trkpt>
      <trkpt lat="43.58238" lon="-0.94087">
        <ele>85</ele>
        <time>2021-05-08T09:44:41Z</time>
      </trkpt>
      <trkpt lat="43.58236" lon="-0.94086">
        <ele>85</ele>
        <time>2021-05-08T09:44:42Z</time>
      </trkpt>
      <trkpt lat="43.58235" lon="-0.94085">
        <ele>85</ele>
        <time>2021-05-08T09:44:43Z</time>
      </trkpt>
      <trkpt lat="43.58233" lon="-0.94084">
        <ele>85</ele>
        <time>2021-05-08T09:44:44Z</time>
      </trkpt>
      <trkpt lat="43.58231" lon="-0.94083">
        <ele>85</ele>
        <time>2021-05-08T09:44:45Z</time>
      </trkpt>
      <trkpt lat="43.5823" lon="-0.94082">
        <ele>85</ele>
        <time>2021-05-08T09:44:46Z</time>
      </trkpt>
      <trkpt lat="43.58228" lon="-0.94081">
        <ele>85</ele>
        <time>2021-05-08T09:44:47Z</time>
      </trkpt>
      <trkpt lat="43.58227" lon="-0.9408">
        <ele>85</ele>
        <time>2021-05-08T09:44:48Z</time>
      </trkpt>
      <trkpt lat="43.58225" lon="-0.94079">
        <ele>85</ele>
        <time>2021-05-08T09:44:49Z</time>
      </trkpt>
      <trkpt lat="43.58223" lon="-0.94078">
        <ele>85</ele>
        <time>2021-05-08T09:44:50Z</time>
      </trkpt>
      <trkpt lat="43.58222" lon="-0.94078">
        <ele>85</ele>
        <time>2021-05-08T09:44:51Z</time>
      </trkpt>
      <trkpt lat="43.5822" lon="-0.94077">
        <ele>85</ele>
        <time>2021-05-08T09:44:52Z</time>
      </trkpt>
      <trkpt lat="43.58219" lon="-0.94076">
        <ele>85</ele>
        <time>2021-05-08T09:44:53Z</time>
      </trkpt>
      <trkpt lat="43.58217" lon="-0.94075">
        <ele>85</ele>
        <time>2021-05-08T09:44:54Z</time>
      </trkpt>
      <trkpt lat="43.58216" lon="-0.94075">
        <ele>85</ele>
        <time>2021-05-08T09:44:55Z</time>
      </trkpt>
      <trkpt lat="43.58214" lon="-0.94074">
        <ele>85</ele>
        <time>2021-05-08T09:44:56Z</time>
      </trkpt>
      <trkpt lat="43.58212" lon="-0.94073">
        <ele>85</ele>
        <time>2021-05-08T09:44:57Z</time>
      </trkpt>
      <trkpt lat="43.58211" lon="-0.94072">
        <ele>85</ele>
        <time>2021-05-08T09:44:58Z</time>
      </trkpt>
      <trkpt lat="43.58209" lon="-0.94071">
        <ele>85</ele>
        <time>2021-05-08T09:44:59Z</time>
      </trkpt>
      <trkpt lat="43.58207" lon="-0.9407">
        <ele>85</ele>
        <time>2021-05-08T09:45:00Z</time>
      </trkpt>
      <trkpt lat="43.58206" lon="-0.94069">
        <ele>85</ele>
        <time>2021-05-08T09:45:01Z</time>
      </trkpt>
      <trkpt lat="43.58204" lon="-0.94069">
        <ele>85</ele>
        <time>2021-05-08T09:45:02Z</time>
      </trkpt>
      <trkpt lat="43.58202" lon="-0.94068">
        <ele>85</ele>
        <time>2021-05-08T09:45:03Z</time>
      </trkpt>
      <trkpt lat="43.582" lon="-0.94068">
        <ele>85</ele>
        <time>2021-05-08T09:45:04Z</time>
      </trkpt>
      <trkpt lat="43.58199" lon="-0.94067">
        <ele>85</ele>
        <time>2021-05-08T09:45:05Z</time>
      </trkpt>
      <trkpt lat="43.58197" lon="-0.94067">
        <ele>85</ele>
        <time>2021-05-08T09:45:06Z</time>
      </trkpt>
      <trkpt lat="43.58195" lon="-0.94066">
        <ele>86</ele>
        <time>2021-05-08T09:45:07Z</time>
      </trkpt>
      <trkpt lat="43.58194" lon="-0.94066">
        <ele>86</ele>
        <time>2021-05-08T09:45:08Z</time>
      </trkpt>
      <trkpt lat="43.58192" lon="-0.94065">
        <ele>86</ele>
        <time>2021-05-08T09:45:09Z</time>
      </trkpt>
      <trkpt lat="43.58191" lon="-0.94065">
        <ele>86</ele>
        <time>2021-05-08T09:45:10Z</time>
      </trkpt>
      <trkpt lat="43.58189" lon="-0.94064">
        <ele>86</ele>
        <time>2021-05-08T09:45:11Z</time>
      </trkpt>
      <trkpt lat="43.58187" lon="-0.94064">
        <ele>86</ele>
        <time>2021-05-08T09:45:12Z</time>
      </trkpt>
      <trkpt lat="43.58186" lon="-0.94063">
        <ele>86</ele>
        <time>2021-05-08T09:45:13Z</time>
      </trkpt>
      <trkpt lat="43.58184" lon="-0.94063">
        <ele>86</ele>
        <time>2021-05-08T09:45:14Z</time>
      </trkpt>
      <trkpt lat="43.58183" lon="-0.94063">
        <ele>86</ele>
        <time>2021-05-08T09:45:15Z</time>
      </trkpt>
      <trkpt lat="43.58182" lon="-0.94063">
        <ele>86</ele>
        <time>2021-05-08T09:45:16Z</time>
      </trkpt>
      <trkpt lat="43.5818" lon="-0.94062">
        <ele>87</ele>
        <time>2021-05-08T09:45:17Z</time>
      </trkpt>
      <trkpt lat="43.58178" lon="-0.94062">
        <ele>87</ele>
        <time>2021-05-08T09:45:18Z</time>
      </trkpt>
      <trkpt lat="43.58177" lon="-0.94062">
        <ele>87</ele>
        <time>2021-05-08T09:45:19Z</time>
      </trkpt>
      <trkpt lat="43.58175" lon="-0.94061">
        <ele>87</ele>
        <time>2021-05-08T09:45:20Z</time>
      </trkpt>
      <trkpt lat="43.58173" lon="-0.94061">
        <ele>87</ele>
        <time>2021-05-08T09:45:21Z</time>
      </trkpt>
      <trkpt lat="43.58171" lon="-0.9406">
        <ele>88</ele>
        <time>2021-05-08T09:45:22Z</time>
      </trkpt>
      <trkpt lat="43.58169" lon="-0.94059">
        <ele>88</ele>
        <time>2021-05-08T09:45:23Z</time>
      </trkpt>
      <trkpt lat="43.58167" lon="-0.94059">
        <ele>88</ele>
        <time>2021-05-08T09:45:24Z</time>
      </trkpt>
      <trkpt lat="43.58165" lon="-0.94058">
        <ele>88</ele>
        <time>2021-05-08T09:45:25Z</time>
      </trkpt>
      <trkpt lat="43.58164" lon="-0.94058">
        <ele>88</ele>
        <time>2021-05-08T09:45:26Z</time>
      </trkpt>
      <trkpt lat="43.58162" lon="-0.94057">
        <ele>88</ele>
        <time>2021-05-08T09:45:27Z</time>
      </trkpt>
      <trkpt lat="43.5816" lon="-0.94056">
        <ele>88</ele>
        <time>2021-05-08T09:45:28Z</time>
      </trkpt>
      <trkpt lat="43.58158" lon="-0.94056">
        <ele>88</ele>
        <time>2021-05-08T09:45:29Z</time>
      </trkpt>
      <trkpt lat="43.58156" lon="-0.94055">
        <ele>88</ele>
        <time>2021-05-08T09:45:30Z</time>
      </trkpt>
      <trkpt lat="43.58154" lon="-0.94054">
        <ele>88</ele>
        <time>2021-05-08T09:45:31Z</time>
      </trkpt>
      <trkpt lat="43.58152" lon="-0.94054">
        <ele>88</ele>
        <time>2021-05-08T09:45:32Z</time>
      </trkpt>
      <trkpt lat="43.5815" lon="-0.94053">
        <ele>88</ele>
        <time>2021-05-08T09:45:33Z</time>
      </trkpt>
      <trkpt lat="43.58148" lon="-0.94052">
        <ele>88</ele>
        <time>2021-05-08T09:45:34Z</time>
      </trkpt>
      <trkpt lat="43.58146" lon="-0.94052">
        <ele>88</ele>
        <time>2021-05-08T09:45:35Z</time>
      </trkpt>
      <trkpt lat="43.58145" lon="-0.94051">
        <ele>88</ele>
        <time>2021-05-08T09:45:36Z</time>
      </trkpt>
      <trkpt lat="43.58143" lon="-0.94051">
        <ele>89</ele>
        <time>2021-05-08T09:45:37Z</time>
      </trkpt>
      <trkpt lat="43.58141" lon="-0.9405">
        <ele>89</ele>
        <time>2021-05-08T09:45:38Z</time>
      </trkpt>
      <trkpt lat="43.58139" lon="-0.9405">
        <ele>89</ele>
        <time>2021-05-08T09:45:39Z</time>
      </trkpt>
      <trkpt lat="43.58137" lon="-0.94049">
        <ele>89</ele>
        <time>2021-05-08T09:45:40Z</time>
      </trkpt>
      <trkpt lat="43.58135" lon="-0.94049">
        <ele>89</ele>
        <time>2021-05-08T09:45:41Z</time>
      </trkpt>
      <trkpt lat="43.58133" lon="-0.94048">
        <ele>90</ele>
        <time>2021-05-08T09:45:42Z</time>
      </trkpt>
      <trkpt lat="43.58132" lon="-0.94048">
        <ele>90</ele>
        <time>2021-05-08T09:45:43Z</time>
      </trkpt>
      <trkpt lat="43.5813" lon="-0.94048">
        <ele>90</ele>
        <time>2021-05-08T09:45:44Z</time>
      </trkpt>
      <trkpt lat="43.58128" lon="-0.94047">
        <ele>90</ele>
        <time>2021-05-08T09:45:45Z</time>
      </trkpt>
      <trkpt lat="43.58126" lon="-0.94047">
        <ele>90</ele>
        <time>2021-05-08T09:45:46Z</time>
      </trkpt>
      <trkpt lat="43.58124" lon="-0.94047">
        <ele>91</ele>
        <time>2021-05-08T09:45:47Z</time>
      </trkpt>
      <trkpt lat="43.58122" lon="-0.94047">
        <ele>91</ele>
        <time>2021-05-08T09:45:48Z</time>
      </trkpt>
      <trkpt lat="43.58121" lon="-0.94046">
        <ele>91</ele>
        <time>2021-05-08T09:45:49Z</time>
      </trkpt>
      <trkpt lat="43.58119" lon="-0.94046">
        <ele>91</ele>
        <time>2021-05-08T09:45:50Z</time>
      </trkpt>
      <trkpt lat="43.58117" lon="-0.94046">
        <ele>91</ele>
        <time>2021-05-08T09:45:51Z</time>
      </trkpt>
      <trkpt lat="43.58116" lon="-0.94046">
        <ele>91</ele>
        <time>2021-05-08T09:45:52Z</time>
      </trkpt>
      <trkpt lat="43.58114" lon="-0.94046">
        <ele>91</ele>
        <time>2021-05-08T09:45:53Z</time>
      </trkpt>
      <trkpt lat="43.58112" lon="-0.94045">
        <ele>91</ele>
        <time>2021-05-08T09:45:54Z</time>
      </trkpt>
      <trkpt lat="43.5811" lon="-0.94045">
        <ele>91</ele>
        <time>2021-05-08T09:45:55Z</time>
      </trkpt>
      <trkpt lat="43.58108" lon="-0.94044">
        <ele>91</ele>
        <time>2021-05-08T09:45:56Z</time>
      </trkpt>
      <trkpt lat="43.58106" lon="-0.94044">
        <ele>91</ele>
        <time>2021-05-08T09:45:57Z</time>
      </trkpt>
      <trkpt lat="43.58104" lon="-0.94043">
        <ele>90</ele>
        <time>2021-05-08T09:45:58Z</time>
      </trkpt>
      <trkpt lat="43.58102" lon="-0.94042">
        <ele>90</ele>
        <time>2021-05-08T09:45:59Z</time>
      </trkpt>
      <trkpt lat="43.581" lon="-0.94042">
        <ele>90</ele>
        <time>2021-05-08T09:46:00Z</time>
      </trkpt>
      <trkpt lat="43.58099" lon="-0.94041">
        <ele>90</ele>
        <time>2021-05-08T09:46:01Z</time>
      </trkpt>
      <trkpt lat="43.58097" lon="-0.9404">
        <ele>90</ele>
        <time>2021-05-08T09:46:02Z</time>
      </trkpt>
      <trkpt lat="43.58095" lon="-0.9404">
        <ele>90</ele>
        <time>2021-05-08T09:46:03Z</time>
      </trkpt>
      <trkpt lat="43.58092" lon="-0.94038">
        <ele>90</ele>
        <time>2021-05-08T09:46:04Z</time>
      </trkpt>
      <trkpt lat="43.58089" lon="-0.94037">
        <ele>90</ele>
        <time>2021-05-08T09:46:05Z</time>
      </trkpt>
      <trkpt lat="43.58086" lon="-0.94034">
        <ele>90</ele>
        <time>2021-05-08T09:46:06Z</time>
      </trkpt>
      <trkpt lat="43.58083" lon="-0.94032">
        <ele>90</ele>
        <time>2021-05-08T09:46:07Z</time>
      </trkpt>
      <trkpt lat="43.5808" lon="-0.9403">
        <ele>89</ele>
        <time>2021-05-08T09:46:08Z</time>
      </trkpt>
      <trkpt lat="43.58077" lon="-0.94028">
        <ele>89</ele>
        <time>2021-05-08T09:46:09Z</time>
      </trkpt>
      <trkpt lat="43.58074" lon="-0.94026">
        <ele>89</ele>
        <time>2021-05-08T09:46:10Z</time>
      </trkpt>
      <trkpt lat="43.58072" lon="-0.94024">
        <ele>89</ele>
        <time>2021-05-08T09:46:11Z</time>
      </trkpt>
      <trkpt lat="43.58069" lon="-0.94022">
        <ele>89</ele>
        <time>2021-05-08T09:46:12Z</time>
      </trkpt>
      <trkpt lat="43.58067" lon="-0.9402">
        <ele>88</ele>
        <time>2021-05-08T09:46:13Z</time>
      </trkpt>
      <trkpt lat="43.58065" lon="-0.94018">
        <ele>88</ele>
        <time>2021-05-08T09:46:14Z</time>
      </trkpt>
      <trkpt lat="43.58063" lon="-0.94017">
        <ele>88</ele>
        <time>2021-05-08T09:46:15Z</time>
      </trkpt>
      <trkpt lat="43.58061" lon="-0.94015">
        <ele>88</ele>
        <time>2021-05-08T09:46:16Z</time>
      </trkpt>
      <trkpt lat="43.58058" lon="-0.94013">
        <ele>88</ele>
        <time>2021-05-08T09:46:17Z</time>
      </trkpt>
      <trkpt lat="43.58056" lon="-0.94011">
        <ele>87</ele>
        <time>2021-05-08T09:46:18Z</time>
      </trkpt>
      <trkpt lat="43.58054" lon="-0.94009">
        <ele>87</ele>
        <time>2021-05-08T09:46:19Z</time>
      </trkpt>
      <trkpt lat="43.58052" lon="-0.94007">
        <ele>87</ele>
        <time>2021-05-08T09:46:20Z</time>
      </trkpt>
      <trkpt lat="43.5805" lon="-0.94005">
        <ele>87</ele>
        <time>2021-05-08T09:46:21Z</time>
      </trkpt>
      <trkpt lat="43.58048" lon="-0.94003">
        <ele>87</ele>
        <time>2021-05-08T09:46:22Z</time>
      </trkpt>
      <trkpt lat="43.58045" lon="-0.94001">
        <ele>86</ele>
        <time>2021-05-08T09:46:23Z</time>
      </trkpt>
      <trkpt lat="43.58043" lon="-0.93999">
        <ele>86</ele>
        <time>2021-05-08T09:46:24Z</time>
      </trkpt>
      <trkpt lat="43.58041" lon="-0.93997">
        <ele>86</ele>
        <time>2021-05-08T09:46:25Z</time>
      </trkpt>
      <trkpt lat="43.58038" lon="-0.93995">
        <ele>86</ele>
        <time>2021-05-08T09:46:26Z</time>
      </trkpt>
      <trkpt lat="43.58036" lon="-0.93992">
        <ele>86</ele>
        <time>2021-05-08T09:46:27Z</time>
      </trkpt>
      <trkpt lat="43.58034" lon="-0.9399">
        <ele>85</ele>
        <time>2021-05-08T09:46:28Z</time>
      </trkpt>
      <trkpt lat="43.58032" lon="-0.93988">
        <ele>85</ele>
        <time>2021-05-08T09:46:29Z</time>
      </trkpt>
      <trkpt lat="43.5803" lon="-0.93986">
        <ele>85</ele>
        <time>2021-05-08T09:46:30Z</time>
      </trkpt>
      <trkpt lat="43.58028" lon="-0.93984">
        <ele>85</ele>
        <time>2021-05-08T09:46:31Z</time>
      </trkpt>
      <trkpt lat="43.58026" lon="-0.93982">
        <ele>85</ele>
        <time>2021-05-08T09:46:32Z</time>
      </trkpt>
      <trkpt lat="43.58024" lon="-0.9398">
        <ele>84</ele>
        <time>2021-05-08T09:46:33Z</time>
      </trkpt>
      <trkpt lat="43.58023" lon="-0.93978">
        <ele>84</ele>
        <time>2021-05-08T09:46:34Z</time>
      </trkpt>
      <trkpt lat="43.58021" lon="-0.93976">
        <ele>84</ele>
        <time>2021-05-08T09:46:35Z</time>
      </trkpt>
      <trkpt lat="43.5802" lon="-0.93973">
        <ele>84</ele>
        <time>2021-05-08T09:46:36Z</time>
      </trkpt>
      <trkpt lat="43.58018" lon="-0.93971">
        <ele>84</ele>
        <time>2021-05-08T09:46:37Z</time>
      </trkpt>
      <trkpt lat="43.58016" lon="-0.93969">
        <ele>84</ele>
        <time>2021-05-08T09:46:38Z</time>
      </trkpt>
      <trkpt lat="43.58015" lon="-0.93967">
        <ele>84</ele>
        <time>2021-05-08T09:46:39Z</time>
      </trkpt>
      <trkpt lat="43.58013" lon="-0.93964">
        <ele>84</ele>
        <time>2021-05-08T09:46:40Z</time>
      </trkpt>
      <trkpt lat="43.58012" lon="-0.93962">
        <ele>84</ele>
        <time>2021-05-08T09:46:41Z</time>
      </trkpt>
      <trkpt lat="43.5801" lon="-0.9396">
        <ele>84</ele>
        <time>2021-05-08T09:46:42Z</time>
      </trkpt>
      <trkpt lat="43.58008" lon="-0.93958">
        <ele>84</ele>
        <time>2021-05-08T09:46:43Z</time>
      </trkpt>
      <trkpt lat="43.58007" lon="-0.93956">
        <ele>84</ele>
        <time>2021-05-08T09:46:44Z</time>
      </trkpt>
      <trkpt lat="43.58005" lon="-0.93953">
        <ele>84</ele>
        <time>2021-05-08T09:46:45Z</time>
      </trkpt>
      <trkpt lat="43.58003" lon="-0.93951">
        <ele>84</ele>
        <time>2021-05-08T09:46:46Z</time>
      </trkpt>
      <trkpt lat="43.58001" lon="-0.93949">
        <ele>85</ele>
        <time>2021-05-08T09:46:47Z</time>
      </trkpt>
      <trkpt lat="43.58" lon="-0.93947">
        <ele>85</ele>
        <time>2021-05-08T09:46:48Z</time>
      </trkpt>
      <trkpt lat="43.57998" lon="-0.93944">
        <ele>85</ele>
        <time>2021-05-08T09:46:49Z</time>
      </trkpt>
      <trkpt lat="43.57996" lon="-0.93942">
        <ele>85</ele>
        <time>2021-05-08T09:46:50Z</time>
      </trkpt>
      <trkpt lat="43.57995" lon="-0.9394">
        <ele>85</ele>
        <time>2021-05-08T09:46:51Z</time>
      </trkpt>
      <trkpt lat="43.57993" lon="-0.93938">
        <ele>85</ele>
        <time>2021-05-08T09:46:52Z</time>
      </trkpt>
      <trkpt lat="43.57991" lon="-0.93936">
        <ele>85</ele>
        <time>2021-05-08T09:46:53Z</time>
      </trkpt>
      <trkpt lat="43.5799" lon="-0.93933">
        <ele>85</ele>
        <time>2021-05-08T09:46:54Z</time>
      </trkpt>
      <trkpt lat="43.57988" lon="-0.93931">
        <ele>85</ele>
        <time>2021-05-08T09:46:55Z</time>
      </trkpt>
      <trkpt lat="43.57986" lon="-0.93929">
        <ele>85</ele>
        <time>2021-05-08T09:46:56Z</time>
      </trkpt>
      <trkpt lat="43.57985" lon="-0.93927">
        <ele>85</ele>
        <time>2021-05-08T09:46:57Z</time>
      </trkpt>
      <trkpt lat="43.57983" lon="-0.93925">
        <ele>85</ele>
        <time>2021-05-08T09:46:58Z</time>
      </trkpt>
      <trkpt lat="43.57981" lon="-0.93922">
        <ele>85</ele>
        <time>2021-05-08T09:46:59Z</time>
      </trkpt>
      <trkpt lat="43.57979" lon="-0.9392">
        <ele>85</ele>
        <time>2021-05-08T09:47:00Z</time>
      </trkpt>
      <trkpt lat="43.57977" lon="-0.93918">
        <ele>85</ele>
        <time>2021-05-08T09:47:01Z</time>
      </trkpt>
      <trkpt lat="43.57976" lon="-0.93915">
        <ele>85</ele>
        <time>2021-05-08T09:47:02Z</time>
      </trkpt>
      <trkpt lat="43.57974" lon="-0.93913">
        <ele>85</ele>
        <time>2021-05-08T09:47:03Z</time>
      </trkpt>
      <trkpt lat="43.57973" lon="-0.93911">
        <ele>85</ele>
        <time>2021-05-08T09:47:04Z</time>
      </trkpt>
      <trkpt lat="43.57971" lon="-0.93908">
        <ele>85</ele>
        <time>2021-05-08T09:47:05Z</time>
      </trkpt>
      <trkpt lat="43.5797" lon="-0.93906">
        <ele>85</ele>
        <time>2021-05-08T09:47:06Z</time>
      </trkpt>
      <trkpt lat="43.57968" lon="-0.93904">
        <ele>85</ele>
        <time>2021-05-08T09:47:07Z</time>
      </trkpt>
      <trkpt lat="43.57967" lon="-0.93901">
        <ele>85</ele>
        <time>2021-05-08T09:47:08Z</time>
      </trkpt>
      <trkpt lat="43.57965" lon="-0.93899">
        <ele>85</ele>
        <time>2021-05-08T09:47:09Z</time>
      </trkpt>
      <trkpt lat="43.57964" lon="-0.93897">
        <ele>85</ele>
        <time>2021-05-08T09:47:10Z</time>
      </trkpt>
      <trkpt lat="43.57963" lon="-0.93894">
        <ele>85</ele>
        <time>2021-05-08T09:47:11Z</time>
      </trkpt>
      <trkpt lat="43.57962" lon="-0.93892">
        <ele>85</ele>
        <time>2021-05-08T09:47:12Z</time>
      </trkpt>
      <trkpt lat="43.5796" lon="-0.9389">
        <ele>85</ele>
        <time>2021-05-08T09:47:13Z</time>
      </trkpt>
      <trkpt lat="43.57959" lon="-0.93888">
        <ele>85</ele>
        <time>2021-05-08T09:47:14Z</time>
      </trkpt>
      <trkpt lat="43.57958" lon="-0.93885">
        <ele>85</ele>
        <time>2021-05-08T09:47:15Z</time>
      </trkpt>
      <trkpt lat="43.57957" lon="-0.93883">
        <ele>85</ele>
        <time>2021-05-08T09:47:16Z</time>
      </trkpt>
      <trkpt lat="43.57956" lon="-0.9388">
        <ele>86</ele>
        <time>2021-05-08T09:47:17Z</time>
      </trkpt>
      <trkpt lat="43.57955" lon="-0.93878">
        <ele>86</ele>
        <time>2021-05-08T09:47:18Z</time>
      </trkpt>
      <trkpt lat="43.57953" lon="-0.93875">
        <ele>86</ele>
        <time>2021-05-08T09:47:19Z</time>
      </trkpt>
      <trkpt lat="43.57952" lon="-0.93873">
        <ele>86</ele>
        <time>2021-05-08T09:47:20Z</time>
      </trkpt>
      <trkpt lat="43.57951" lon="-0.9387">
        <ele>86</ele>
        <time>2021-05-08T09:47:21Z</time>
      </trkpt>
      <trkpt lat="43.5795" lon="-0.93868">
        <ele>86</ele>
        <time>2021-05-08T09:47:22Z</time>
      </trkpt>
      <trkpt lat="43.57949" lon="-0.93865">
        <ele>86</ele>
        <time>2021-05-08T09:47:23Z</time>
      </trkpt>
      <trkpt lat="43.57948" lon="-0.93863">
        <ele>86</ele>
        <time>2021-05-08T09:47:24Z</time>
      </trkpt>
      <trkpt lat="43.57947" lon="-0.9386">
        <ele>86</ele>
        <time>2021-05-08T09:47:25Z</time>
      </trkpt>
      <trkpt lat="43.57945" lon="-0.93857">
        <ele>86</ele>
        <time>2021-05-08T09:47:26Z</time>
      </trkpt>
      <trkpt lat="43.57944" lon="-0.93855">
        <ele>86</ele>
        <time>2021-05-08T09:47:27Z</time>
      </trkpt>
      <trkpt lat="43.57943" lon="-0.93852">
        <ele>86</ele>
        <time>2021-05-08T09:47:28Z</time>
      </trkpt>
      <trkpt lat="43.57941" lon="-0.9385">
        <ele>86</ele>
        <time>2021-05-08T09:47:29Z</time>
      </trkpt>
      <trkpt lat="43.5794" lon="-0.93847">
        <ele>86</ele>
        <time>2021-05-08T09:47:30Z</time>
      </trkpt>
      <trkpt lat="43.57938" lon="-0.93845">
        <ele>86</ele>
        <time>2021-05-08T09:47:31Z</time>
      </trkpt>
      <trkpt lat="43.57937" lon="-0.93843">
        <ele>86</ele>
        <time>2021-05-08T09:47:32Z</time>
      </trkpt>
      <trkpt lat="43.57935" lon="-0.9384">
        <ele>86</ele>
        <time>2021-05-08T09:47:33Z</time>
      </trkpt>
      <trkpt lat="43.57934" lon="-0.93838">
        <ele>86</ele>
        <time>2021-05-08T09:47:34Z</time>
      </trkpt>
      <trkpt lat="43.57932" lon="-0.93836">
        <ele>86</ele>
        <time>2021-05-08T09:47:35Z</time>
      </trkpt>
      <trkpt lat="43.57931" lon="-0.93833">
        <ele>86</ele>
        <time>2021-05-08T09:47:36Z</time>
      </trkpt>
      <trkpt lat="43.5793" lon="-0.93831">
        <ele>86</ele>
        <time>2021-05-08T09:47:37Z</time>
      </trkpt>
      <trkpt lat="43.57929" lon="-0.93829">
        <ele>86</ele>
        <time>2021-05-08T09:47:38Z</time>
      </trkpt>
      <trkpt lat="43.57928" lon="-0.93827">
        <ele>86</ele>
        <time>2021-05-08T09:47:39Z</time>
      </trkpt>
      <trkpt lat="43.57927" lon="-0.93824">
        <ele>86</ele>
        <time>2021-05-08T09:47:40Z</time>
      </trkpt>
      <trkpt lat="43.57925" lon="-0.93822">
        <ele>86</ele>
        <time>2021-05-08T09:47:41Z</time>
      </trkpt>
      <trkpt lat="43.57924" lon="-0.9382">
        <ele>86</ele>
        <time>2021-05-08T09:47:42Z</time>
      </trkpt>
      <trkpt lat="43.57923" lon="-0.93818">
        <ele>86</ele>
        <time>2021-05-08T09:47:43Z</time>
      </trkpt>
      <trkpt lat="43.57923" lon="-0.93816">
        <ele>86</ele>
        <time>2021-05-08T09:47:44Z</time>
      </trkpt>
      <trkpt lat="43.57922" lon="-0.93814">
        <ele>86</ele>
        <time>2021-05-08T09:47:45Z</time>
      </trkpt>
      <trkpt lat="43.57921" lon="-0.93812">
        <ele>86</ele>
        <time>2021-05-08T09:47:46Z</time>
      </trkpt>
      <trkpt lat="43.5792" lon="-0.9381">
        <ele>86</ele>
        <time>2021-05-08T09:47:47Z</time>
      </trkpt>
      <trkpt lat="43.57919" lon="-0.93808">
        <ele>86</ele>
        <time>2021-05-08T09:47:48Z</time>
      </trkpt>
      <trkpt lat="43.57917" lon="-0.93806">
        <ele>86</ele>
        <time>2021-05-08T09:47:49Z</time>
      </trkpt>
      <trkpt lat="43.57916" lon="-0.93804">
        <ele>86</ele>
        <time>2021-05-08T09:47:50Z</time>
      </trkpt>
      <trkpt lat="43.57914" lon="-0.93802">
        <ele>86</ele>
        <time>2021-05-08T09:47:51Z</time>
      </trkpt>
      <trkpt lat="43.57912" lon="-0.938">
        <ele>86</ele>
        <time>2021-05-08T09:47:52Z</time>
      </trkpt>
      <trkpt lat="43.5791" lon="-0.93798">
        <ele>86</ele>
        <time>2021-05-08T09:47:53Z</time>
      </trkpt>
      <trkpt lat="43.57908" lon="-0.93796">
        <ele>86</ele>
        <time>2021-05-08T09:47:54Z</time>
      </trkpt>
      <trkpt lat="43.57906" lon="-0.93794">
        <ele>86</ele>
        <time>2021-05-08T09:47:55Z</time>
      </trkpt>
      <trkpt lat="43.57904" lon="-0.93792">
        <ele>86</ele>
        <time>2021-05-08T09:47:56Z</time>
      </trkpt>
      <trkpt lat="43.57902" lon="-0.9379">
        <ele>87</ele>
        <time>2021-05-08T09:47:57Z</time>
      </trkpt>
      <trkpt lat="43.579" lon="-0.93788">
        <ele>87</ele>
        <time>2021-05-08T09:47:58Z</time>
      </trkpt>
      <trkpt lat="43.57898" lon="-0.93787">
        <ele>87</ele>
        <time>2021-05-08T09:47:59Z</time>
      </trkpt>
      <trkpt lat="43.57896" lon="-0.93785">
        <ele>87</ele>
        <time>2021-05-08T09:48:00Z</time>
      </trkpt>
      <trkpt lat="43.57894" lon="-0.93784">
        <ele>87</ele>
        <time>2021-05-08T09:48:01Z</time>
      </trkpt>
      <trkpt lat="43.57892" lon="-0.93782">
        <ele>87</ele>
        <time>2021-05-08T09:48:02Z</time>
      </trkpt>
      <trkpt lat="43.5789" lon="-0.9378">
        <ele>87</ele>
        <time>2021-05-08T09:48:03Z</time>
      </trkpt>
      <trkpt lat="43.57888" lon="-0.93779">
        <ele>87</ele>
        <time>2021-05-08T09:48:04Z</time>
      </trkpt>
      <trkpt lat="43.57886" lon="-0.93777">
        <ele>87</ele>
        <time>2021-05-08T09:48:05Z</time>
      </trkpt>
      <trkpt lat="43.57884" lon="-0.93776">
        <ele>87</ele>
        <time>2021-05-08T09:48:06Z</time>
      </trkpt>
      <trkpt lat="43.57882" lon="-0.93774">
        <ele>88</ele>
        <time>2021-05-08T09:48:07Z</time>
      </trkpt>
      <trkpt lat="43.5788" lon="-0.93773">
        <ele>88</ele>
        <time>2021-05-08T09:48:08Z</time>
      </trkpt>
      <trkpt lat="43.57878" lon="-0.93771">
        <ele>88</ele>
        <time>2021-05-08T09:48:09Z</time>
      </trkpt>
      <trkpt lat="43.57876" lon="-0.9377">
        <ele>88</ele>
        <time>2021-05-08T09:48:10Z</time>
      </trkpt>
      <trkpt lat="43.57874" lon="-0.93769">
        <ele>88</ele>
        <time>2021-05-08T09:48:11Z</time>
      </trkpt>
      <trkpt lat="43.57873" lon="-0.93767">
        <ele>88</ele>
        <time>2021-05-08T09:48:12Z</time>
      </trkpt>
      <trkpt lat="43.57871" lon="-0.93766">
        <ele>88</ele>
        <time>2021-05-08T09:48:13Z</time>
      </trkpt>
      <trkpt lat="43.57869" lon="-0.93765">
        <ele>88</ele>
        <time>2021-05-08T09:48:14Z</time>
      </trkpt>
      <trkpt lat="43.57868" lon="-0.93763">
        <ele>88</ele>
        <time>2021-05-08T09:48:15Z</time>
      </trkpt>
      <trkpt lat="43.57866" lon="-0.93762">
        <ele>88</ele>
        <time>2021-05-08T09:48:16Z</time>
      </trkpt>
      <trkpt lat="43.57864" lon="-0.93761">
        <ele>88</ele>
        <time>2021-05-08T09:48:17Z</time>
      </trkpt>
      <trkpt lat="43.57862" lon="-0.9376">
        <ele>88</ele>
        <time>2021-05-08T09:48:18Z</time>
      </trkpt>
      <trkpt lat="43.5786" lon="-0.93758">
        <ele>88</ele>
        <time>2021-05-08T09:48:19Z</time>
      </trkpt>
      <trkpt lat="43.57859" lon="-0.93757">
        <ele>88</ele>
        <time>2021-05-08T09:48:20Z</time>
      </trkpt>
      <trkpt lat="43.57857" lon="-0.93756">
        <ele>88</ele>
        <time>2021-05-08T09:48:21Z</time>
      </trkpt>
      <trkpt lat="43.57855" lon="-0.93755">
        <ele>88</ele>
        <time>2021-05-08T09:48:22Z</time>
      </trkpt>
      <trkpt lat="43.57853" lon="-0.93753">
        <ele>88</ele>
        <time>2021-05-08T09:48:23Z</time>
      </trkpt>
      <trkpt lat="43.57851" lon="-0.93752">
        <ele>88</ele>
        <time>2021-05-08T09:48:24Z</time>
      </trkpt>
      <trkpt lat="43.5785" lon="-0.93751">
        <ele>88</ele>
        <time>2021-05-08T09:48:25Z</time>
      </trkpt>
      <trkpt lat="43.57848" lon="-0.9375">
        <ele>88</ele>
        <time>2021-05-08T09:48:26Z</time>
      </trkpt>
      <trkpt lat="43.57846" lon="-0.93749">
        <ele>89</ele>
        <time>2021-05-08T09:48:27Z</time>
      </trkpt>
      <trkpt lat="43.57844" lon="-0.93748">
        <ele>89</ele>
        <time>2021-05-08T09:48:28Z</time>
      </trkpt>
      <trkpt lat="43.57843" lon="-0.93746">
        <ele>89</ele>
        <time>2021-05-08T09:48:29Z</time>
      </trkpt>
      <trkpt lat="43.57841" lon="-0.93745">
        <ele>89</ele>
        <time>2021-05-08T09:48:30Z</time>
      </trkpt>
      <trkpt lat="43.57839" lon="-0.93744">
        <ele>89</ele>
        <time>2021-05-08T09:48:31Z</time>
      </trkpt>
      <trkpt lat="43.57837" lon="-0.93742">
        <ele>89</ele>
        <time>2021-05-08T09:48:32Z</time>
      </trkpt>
      <trkpt lat="43.57836" lon="-0.93741">
        <ele>89</ele>
        <time>2021-05-08T09:48:33Z</time>
      </trkpt>
      <trkpt lat="43.57834" lon="-0.9374">
        <ele>89</ele>
        <time>2021-05-08T09:48:34Z</time>
      </trkpt>
      <trkpt lat="43.57832" lon="-0.93739">
        <ele>89</ele>
        <time>2021-05-08T09:48:35Z</time>
      </trkpt>
      <trkpt lat="43.5783" lon="-0.93737">
        <ele>89</ele>
        <time>2021-05-08T09:48:36Z</time>
      </trkpt>
      <trkpt lat="43.57828" lon="-0.93736">
        <ele>89</ele>
        <time>2021-05-08T09:48:37Z</time>
      </trkpt>
      <trkpt lat="43.57826" lon="-0.93735">
        <ele>89</ele>
        <time>2021-05-08T09:48:38Z</time>
      </trkpt>
      <trkpt lat="43.57824" lon="-0.93734">
        <ele>89</ele>
        <time>2021-05-08T09:48:39Z</time>
      </trkpt>
      <trkpt lat="43.57822" lon="-0.93732">
        <ele>89</ele>
        <time>2021-05-08T09:48:40Z</time>
      </trkpt>
      <trkpt lat="43.5782" lon="-0.9373">
        <ele>89</ele>
        <time>2021-05-08T09:48:41Z</time>
      </trkpt>
      <trkpt lat="43.57818" lon="-0.93729">
        <ele>89</ele>
        <time>2021-05-08T09:48:42Z</time>
      </trkpt>
      <trkpt lat="43.57816" lon="-0.93727">
        <ele>89</ele>
        <time>2021-05-08T09:48:43Z</time>
      </trkpt>
      <trkpt lat="43.57815" lon="-0.93726">
        <ele>89</ele>
        <time>2021-05-08T09:48:44Z</time>
      </trkpt>
      <trkpt lat="43.57813" lon="-0.93724">
        <ele>89</ele>
        <time>2021-05-08T09:48:45Z</time>
      </trkpt>
      <trkpt lat="43.57811" lon="-0.93723">
        <ele>89</ele>
        <time>2021-05-08T09:48:46Z</time>
      </trkpt>
      <trkpt lat="43.57808" lon="-0.93721">
        <ele>90</ele>
        <time>2021-05-08T09:48:47Z</time>
      </trkpt>
      <trkpt lat="43.57806" lon="-0.9372">
        <ele>90</ele>
        <time>2021-05-08T09:48:48Z</time>
      </trkpt>
      <trkpt lat="43.57804" lon="-0.93719">
        <ele>90</ele>
        <time>2021-05-08T09:48:49Z</time>
      </trkpt>
      <trkpt lat="43.57803" lon="-0.93718">
        <ele>91</ele>
        <time>2021-05-08T09:48:50Z</time>
      </trkpt>
      <trkpt lat="43.57801" lon="-0.93716">
        <ele>91</ele>
        <time>2021-05-08T09:48:51Z</time>
      </trkpt>
      <trkpt lat="43.57799" lon="-0.93715">
        <ele>92</ele>
        <time>2021-05-08T09:48:52Z</time>
      </trkpt>
      <trkpt lat="43.57797" lon="-0.93714">
        <ele>92</ele>
        <time>2021-05-08T09:48:53Z</time>
      </trkpt>
      <trkpt lat="43.57795" lon="-0.93713">
        <ele>92</ele>
        <time>2021-05-08T09:48:54Z</time>
      </trkpt>
      <trkpt lat="43.57793" lon="-0.93712">
        <ele>92</ele>
        <time>2021-05-08T09:48:55Z</time>
      </trkpt>
      <trkpt lat="43.57791" lon="-0.9371">
        <ele>92</ele>
        <time>2021-05-08T09:48:56Z</time>
      </trkpt>
      <trkpt lat="43.57789" lon="-0.93709">
        <ele>92</ele>
        <time>2021-05-08T09:48:57Z</time>
      </trkpt>
      <trkpt lat="43.57788" lon="-0.93708">
        <ele>92</ele>
        <time>2021-05-08T09:48:58Z</time>
      </trkpt>
      <trkpt lat="43.57786" lon="-0.93706">
        <ele>92</ele>
        <time>2021-05-08T09:48:59Z</time>
      </trkpt>
      <trkpt lat="43.57784" lon="-0.93705">
        <ele>92</ele>
        <time>2021-05-08T09:49:00Z</time>
      </trkpt>
      <trkpt lat="43.57782" lon="-0.93704">
        <ele>92</ele>
        <time>2021-05-08T09:49:01Z</time>
      </trkpt>
      <trkpt lat="43.5778" lon="-0.93703">
        <ele>93</ele>
        <time>2021-05-08T09:49:02Z</time>
      </trkpt>
      <trkpt lat="43.57778" lon="-0.93701">
        <ele>93</ele>
        <time>2021-05-08T09:49:03Z</time>
      </trkpt>
      <trkpt lat="43.57776" lon="-0.937">
        <ele>93</ele>
        <time>2021-05-08T09:49:04Z</time>
      </trkpt>
      <trkpt lat="43.57774" lon="-0.93699">
        <ele>93</ele>
        <time>2021-05-08T09:49:05Z</time>
      </trkpt>
      <trkpt lat="43.57772" lon="-0.93698">
        <ele>93</ele>
        <time>2021-05-08T09:49:06Z</time>
      </trkpt>
      <trkpt lat="43.5777" lon="-0.93697">
        <ele>93</ele>
        <time>2021-05-08T09:49:07Z</time>
      </trkpt>
      <trkpt lat="43.57768" lon="-0.93696">
        <ele>93</ele>
        <time>2021-05-08T09:49:08Z</time>
      </trkpt>
      <trkpt lat="43.57766" lon="-0.93694">
        <ele>93</ele>
        <time>2021-05-08T09:49:09Z</time>
      </trkpt>
      <trkpt lat="43.57764" lon="-0.93693">
        <ele>93</ele>
        <time>2021-05-08T09:49:10Z</time>
      </trkpt>
      <trkpt lat="43.57762" lon="-0.93692">
        <ele>93</ele>
        <time>2021-05-08T09:49:11Z</time>
      </trkpt>
      <trkpt lat="43.5776" lon="-0.93691">
        <ele>93</ele>
        <time>2021-05-08T09:49:12Z</time>
      </trkpt>
      <trkpt lat="43.57758" lon="-0.9369">
        <ele>93</ele>
        <time>2021-05-08T09:49:13Z</time>
      </trkpt>
      <trkpt lat="43.57756" lon="-0.93688">
        <ele>93</ele>
        <time>2021-05-08T09:49:14Z</time>
      </trkpt>
      <trkpt lat="43.57754" lon="-0.93687">
        <ele>93</ele>
        <time>2021-05-08T09:49:15Z</time>
      </trkpt>
      <trkpt lat="43.57752" lon="-0.93686">
        <ele>93</ele>
        <time>2021-05-08T09:49:16Z</time>
      </trkpt>
      <trkpt lat="43.5775" lon="-0.93685">
        <ele>94</ele>
        <time>2021-05-08T09:49:17Z</time>
      </trkpt>
      <trkpt lat="43.57749" lon="-0.93683">
        <ele>94</ele>
        <time>2021-05-08T09:49:18Z</time>
      </trkpt>
      <trkpt lat="43.57746" lon="-0.93682">
        <ele>94</ele>
        <time>2021-05-08T09:49:19Z</time>
      </trkpt>
      <trkpt lat="43.57744" lon="-0.93681">
        <ele>94</ele>
        <time>2021-05-08T09:49:20Z</time>
      </trkpt>
      <trkpt lat="43.57742" lon="-0.93679">
        <ele>94</ele>
        <time>2021-05-08T09:49:21Z</time>
      </trkpt>
      <trkpt lat="43.5774" lon="-0.93678">
        <ele>95</ele>
        <time>2021-05-08T09:49:22Z</time>
      </trkpt>
      <trkpt lat="43.57738" lon="-0.93677">
        <ele>95</ele>
        <time>2021-05-08T09:49:23Z</time>
      </trkpt>
      <trkpt lat="43.57735" lon="-0.93676">
        <ele>95</ele>
        <time>2021-05-08T09:49:24Z</time>
      </trkpt>
      <trkpt lat="43.57733" lon="-0.93675">
        <ele>95</ele>
        <time>2021-05-08T09:49:25Z</time>
      </trkpt>
      <trkpt lat="43.57731" lon="-0.93674">
        <ele>95</ele>
        <time>2021-05-08T09:49:26Z</time>
      </trkpt>
      <trkpt lat="43.57729" lon="-0.93672">
        <ele>96</ele>
        <time>2021-05-08T09:49:27Z</time>
      </trkpt>
      <trkpt lat="43.57727" lon="-0.93671">
        <ele>96</ele>
        <time>2021-05-08T09:49:28Z</time>
      </trkpt>
      <trkpt lat="43.57725" lon="-0.9367">
        <ele>96</ele>
        <time>2021-05-08T09:49:29Z</time>
      </trkpt>
      <trkpt lat="43.57724" lon="-0.93669">
        <ele>96</ele>
        <time>2021-05-08T09:49:30Z</time>
      </trkpt>
      <trkpt lat="43.57722" lon="-0.93667">
        <ele>96</ele>
        <time>2021-05-08T09:49:31Z</time>
      </trkpt>
      <trkpt lat="43.5772" lon="-0.93666">
        <ele>97</ele>
        <time>2021-05-08T09:49:32Z</time>
      </trkpt>
      <trkpt lat="43.57718" lon="-0.93665">
        <ele>97</ele>
        <time>2021-05-08T09:49:33Z</time>
      </trkpt>
      <trkpt lat="43.57717" lon="-0.93664">
        <ele>97</ele>
        <time>2021-05-08T09:49:34Z</time>
      </trkpt>
      <trkpt lat="43.57715" lon="-0.93662">
        <ele>97</ele>
        <time>2021-05-08T09:49:35Z</time>
      </trkpt>
      <trkpt lat="43.57713" lon="-0.93661">
        <ele>97</ele>
        <time>2021-05-08T09:49:36Z</time>
      </trkpt>
      <trkpt lat="43.57711" lon="-0.9366">
        <ele>98</ele>
        <time>2021-05-08T09:49:37Z</time>
      </trkpt>
      <trkpt lat="43.57709" lon="-0.93659">
        <ele>98</ele>
        <time>2021-05-08T09:49:38Z</time>
      </trkpt>
      <trkpt lat="43.57707" lon="-0.93657">
        <ele>98</ele>
        <time>2021-05-08T09:49:39Z</time>
      </trkpt>
      <trkpt lat="43.57705" lon="-0.93656">
        <ele>98</ele>
        <time>2021-05-08T09:49:40Z</time>
      </trkpt>
      <trkpt lat="43.57703" lon="-0.93654">
        <ele>98</ele>
        <time>2021-05-08T09:49:41Z</time>
      </trkpt>
      <trkpt lat="43.57701" lon="-0.93653">
        <ele>98</ele>
        <time>2021-05-08T09:49:42Z</time>
      </trkpt>
      <trkpt lat="43.57699" lon="-0.93652">
        <ele>98</ele>
        <time>2021-05-08T09:49:43Z</time>
      </trkpt>
      <trkpt lat="43.57697" lon="-0.9365">
        <ele>98</ele>
        <time>2021-05-08T09:49:44Z</time>
      </trkpt>
      <trkpt lat="43.57696" lon="-0.93649">
        <ele>98</ele>
        <time>2021-05-08T09:49:45Z</time>
      </trkpt>
      <trkpt lat="43.57694" lon="-0.93648">
        <ele>98</ele>
        <time>2021-05-08T09:49:46Z</time>
      </trkpt>
      <trkpt lat="43.57692" lon="-0.93646">
        <ele>99</ele>
        <time>2021-05-08T09:49:47Z</time>
      </trkpt>
      <trkpt lat="43.5769" lon="-0.93645">
        <ele>99</ele>
        <time>2021-05-08T09:49:48Z</time>
      </trkpt>
      <trkpt lat="43.57688" lon="-0.93643">
        <ele>99</ele>
        <time>2021-05-08T09:49:49Z</time>
      </trkpt>
      <trkpt lat="43.57687" lon="-0.93642">
        <ele>99</ele>
        <time>2021-05-08T09:49:50Z</time>
      </trkpt>
      <trkpt lat="43.57685" lon="-0.9364">
        <ele>99</ele>
        <time>2021-05-08T09:49:51Z</time>
      </trkpt>
      <trkpt lat="43.57683" lon="-0.93639">
        <ele>100</ele>
        <time>2021-05-08T09:49:52Z</time>
      </trkpt>
      <trkpt lat="43.57681" lon="-0.93637">
        <ele>100</ele>
        <time>2021-05-08T09:49:53Z</time>
      </trkpt>
      <trkpt lat="43.57679" lon="-0.93635">
        <ele>100</ele>
        <time>2021-05-08T09:49:54Z</time>
      </trkpt>
      <trkpt lat="43.57677" lon="-0.93634">
        <ele>100</ele>
        <time>2021-05-08T09:49:55Z</time>
      </trkpt>
      <trkpt lat="43.57675" lon="-0.93632">
        <ele>100</ele>
        <time>2021-05-08T09:49:56Z</time>
      </trkpt>
      <trkpt lat="43.57673" lon="-0.93631">
        <ele>100</ele>
        <time>2021-05-08T09:49:57Z</time>
      </trkpt>
      <trkpt lat="43.57671" lon="-0.93629">
        <ele>100</ele>
        <time>2021-05-08T09:49:58Z</time>
      </trkpt>
      <trkpt lat="43.57669" lon="-0.93627">
        <ele>100</ele>
        <time>2021-05-08T09:49:59Z</time>
      </trkpt>
      <trkpt lat="43.57667" lon="-0.93626">
        <ele>100</ele>
        <time>2021-05-08T09:50:00Z</time>
      </trkpt>
      <trkpt lat="43.57665" lon="-0.93624">
        <ele>100</ele>
        <time>2021-05-08T09:50:01Z</time>
      </trkpt>
      <trkpt lat="43.57663" lon="-0.93622">
        <ele>101</ele>
        <time>2021-05-08T09:50:02Z</time>
      </trkpt>
      <trkpt lat="43.57661" lon="-0.93621">
        <ele>101</ele>
        <time>2021-05-08T09:50:03Z</time>
      </trkpt>
      <trkpt lat="43.57659" lon="-0.93619">
        <ele>101</ele>
        <time>2021-05-08T09:50:04Z</time>
      </trkpt>
      <trkpt lat="43.57657" lon="-0.93618">
        <ele>101</ele>
        <time>2021-05-08T09:50:05Z</time>
      </trkpt>
      <trkpt lat="43.57656" lon="-0.93616">
        <ele>101</ele>
        <time>2021-05-08T09:50:06Z</time>
      </trkpt>
      <trkpt lat="43.57654" lon="-0.93614">
        <ele>101</ele>
        <time>2021-05-08T09:50:07Z</time>
      </trkpt>
      <trkpt lat="43.57652" lon="-0.93613">
        <ele>100</ele>
        <time>2021-05-08T09:50:08Z</time>
      </trkpt>
      <trkpt lat="43.5765" lon="-0.93611">
        <ele>100</ele>
        <time>2021-05-08T09:50:09Z</time>
      </trkpt>
      <trkpt lat="43.57648" lon="-0.93609">
        <ele>100</ele>
        <time>2021-05-08T09:50:10Z</time>
      </trkpt>
      <trkpt lat="43.57646" lon="-0.93608">
        <ele>100</ele>
        <time>2021-05-08T09:50:11Z</time>
      </trkpt>
      <trkpt lat="43.57644" lon="-0.93606">
        <ele>100</ele>
        <time>2021-05-08T09:50:12Z</time>
      </trkpt>
      <trkpt lat="43.57642" lon="-0.93604">
        <ele>100</ele>
        <time>2021-05-08T09:50:13Z</time>
      </trkpt>
      <trkpt lat="43.5764" lon="-0.93603">
        <ele>100</ele>
        <time>2021-05-08T09:50:14Z</time>
      </trkpt>
      <trkpt lat="43.57638" lon="-0.93601">
        <ele>100</ele>
        <time>2021-05-08T09:50:15Z</time>
      </trkpt>
      <trkpt lat="43.57636" lon="-0.93599">
        <ele>100</ele>
        <time>2021-05-08T09:50:16Z</time>
      </trkpt>
      <trkpt lat="43.57634" lon="-0.93597">
        <ele>100</ele>
        <time>2021-05-08T09:50:17Z</time>
      </trkpt>
      <trkpt lat="43.57632" lon="-0.93596">
        <ele>100</ele>
        <time>2021-05-08T09:50:18Z</time>
      </trkpt>
      <trkpt lat="43.5763" lon="-0.93594">
        <ele>100</ele>
        <time>2021-05-08T09:50:19Z</time>
      </trkpt>
      <trkpt lat="43.57628" lon="-0.93592">
        <ele>100</ele>
        <time>2021-05-08T09:50:20Z</time>
      </trkpt>
      <trkpt lat="43.57626" lon="-0.93589">
        <ele>100</ele>
        <time>2021-05-08T09:50:21Z</time>
      </trkpt>
      <trkpt lat="43.57624" lon="-0.93587">
        <ele>100</ele>
        <time>2021-05-08T09:50:22Z</time>
      </trkpt>
      <trkpt lat="43.57622" lon="-0.93585">
        <ele>100</ele>
        <time>2021-05-08T09:50:23Z</time>
      </trkpt>
      <trkpt lat="43.5762" lon="-0.93583">
        <ele>100</ele>
        <time>2021-05-08T09:50:24Z</time>
      </trkpt>
      <trkpt lat="43.57618" lon="-0.93581">
        <ele>100</ele>
        <time>2021-05-08T09:50:25Z</time>
      </trkpt>
      <trkpt lat="43.57616" lon="-0.93579">
        <ele>100</ele>
        <time>2021-05-08T09:50:26Z</time>
      </trkpt>
      <trkpt lat="43.57614" lon="-0.93577">
        <ele>100</ele>
        <time>2021-05-08T09:50:27Z</time>
      </trkpt>
      <trkpt lat="43.57612" lon="-0.93576">
        <ele>100</ele>
        <time>2021-05-08T09:50:28Z</time>
      </trkpt>
      <trkpt lat="43.5761" lon="-0.93574">
        <ele>100</ele>
        <time>2021-05-08T09:50:29Z</time>
      </trkpt>
      <trkpt lat="43.57608" lon="-0.93573">
        <ele>100</ele>
        <time>2021-05-08T09:50:30Z</time>
      </trkpt>
      <trkpt lat="43.57606" lon="-0.93571">
        <ele>100</ele>
        <time>2021-05-08T09:50:31Z</time>
      </trkpt>
      <trkpt lat="43.57604" lon="-0.93569">
        <ele>100</ele>
        <time>2021-05-08T09:50:32Z</time>
      </trkpt>
      <trkpt lat="43.57603" lon="-0.93567">
        <ele>100</ele>
        <time>2021-05-08T09:50:33Z</time>
      </trkpt>
      <trkpt lat="43.57601" lon="-0.93565">
        <ele>100</ele>
        <time>2021-05-08T09:50:34Z</time>
      </trkpt>
      <trkpt lat="43.57599" lon="-0.93562">
        <ele>100</ele>
        <time>2021-05-08T09:50:35Z</time>
      </trkpt>
      <trkpt lat="43.57597" lon="-0.9356">
        <ele>100</ele>
        <time>2021-05-08T09:50:36Z</time>
      </trkpt>
      <trkpt lat="43.57596" lon="-0.93557">
        <ele>101</ele>
        <time>2021-05-08T09:50:37Z</time>
      </trkpt>
      <trkpt lat="43.57594" lon="-0.93555">
        <ele>101</ele>
        <time>2021-05-08T09:50:38Z</time>
      </trkpt>
      <trkpt lat="43.57592" lon="-0.93552">
        <ele>101</ele>
        <time>2021-05-08T09:50:39Z</time>
      </trkpt>
      <trkpt lat="43.57591" lon="-0.9355">
        <ele>101</ele>
        <time>2021-05-08T09:50:40Z</time>
      </trkpt>
      <trkpt lat="43.57589" lon="-0.93548">
        <ele>101</ele>
        <time>2021-05-08T09:50:41Z</time>
      </trkpt>
      <trkpt lat="43.57587" lon="-0.93545">
        <ele>101</ele>
        <time>2021-05-08T09:50:42Z</time>
      </trkpt>
      <trkpt lat="43.57585" lon="-0.93543">
        <ele>101</ele>
        <time>2021-05-08T09:50:43Z</time>
      </trkpt>
      <trkpt lat="43.57583" lon="-0.93541">
        <ele>101</ele>
        <time>2021-05-08T09:50:44Z</time>
      </trkpt>
      <trkpt lat="43.57582" lon="-0.93539">
        <ele>101</ele>
        <time>2021-05-08T09:50:45Z</time>
      </trkpt>
      <trkpt lat="43.5758" lon="-0.93537">
        <ele>101</ele>
        <time>2021-05-08T09:50:46Z</time>
      </trkpt>
      <trkpt lat="43.57578" lon="-0.93535">
        <ele>101</ele>
        <time>2021-05-08T09:50:47Z</time>
      </trkpt>
      <trkpt lat="43.57576" lon="-0.93533">
        <ele>101</ele>
        <time>2021-05-08T09:50:48Z</time>
      </trkpt>
      <trkpt lat="43.57574" lon="-0.93532">
        <ele>101</ele>
        <time>2021-05-08T09:50:49Z</time>
      </trkpt>
      <trkpt lat="43.57572" lon="-0.9353">
        <ele>101</ele>
        <time>2021-05-08T09:50:50Z</time>
      </trkpt>
      <trkpt lat="43.57571" lon="-0.93529">
        <ele>101</ele>
        <time>2021-05-08T09:50:51Z</time>
      </trkpt>
      <trkpt lat="43.57569" lon="-0.93528">
        <ele>101</ele>
        <time>2021-05-08T09:50:52Z</time>
      </trkpt>
      <trkpt lat="43.57567" lon="-0.93527">
        <ele>101</ele>
        <time>2021-05-08T09:50:53Z</time>
      </trkpt>
      <trkpt lat="43.57565" lon="-0.93526">
        <ele>101</ele>
        <time>2021-05-08T09:50:54Z</time>
      </trkpt>
      <trkpt lat="43.57563" lon="-0.93525">
        <ele>101</ele>
        <time>2021-05-08T09:50:55Z</time>
      </trkpt>
      <trkpt lat="43.57561" lon="-0.93524">
        <ele>101</ele>
        <time>2021-05-08T09:50:56Z</time>
      </trkpt>
      <trkpt lat="43.57559" lon="-0.93524">
        <ele>101</ele>
        <time>2021-05-08T09:50:57Z</time>
      </trkpt>
      <trkpt lat="43.57557" lon="-0.93523">
        <ele>101</ele>
        <time>2021-05-08T09:50:58Z</time>
      </trkpt>
      <trkpt lat="43.57555" lon="-0.93523">
        <ele>101</ele>
        <time>2021-05-08T09:50:59Z</time>
      </trkpt>
      <trkpt lat="43.57553" lon="-0.93523">
        <ele>101</ele>
        <time>2021-05-08T09:51:00Z</time>
      </trkpt>
      <trkpt lat="43.57551" lon="-0.93523">
        <ele>101</ele>
        <time>2021-05-08T09:51:01Z</time>
      </trkpt>
      <trkpt lat="43.57549" lon="-0.93523">
        <ele>102</ele>
        <time>2021-05-08T09:51:02Z</time>
      </trkpt>
      <trkpt lat="43.57547" lon="-0.93522">
        <ele>102</ele>
        <time>2021-05-08T09:51:03Z</time>
      </trkpt>
      <trkpt lat="43.57545" lon="-0.93522">
        <ele>102</ele>
        <time>2021-05-08T09:51:04Z</time>
      </trkpt>
      <trkpt lat="43.57542" lon="-0.93522">
        <ele>102</ele>
        <time>2021-05-08T09:51:05Z</time>
      </trkpt>
      <trkpt lat="43.5754" lon="-0.93521">
        <ele>102</ele>
        <time>2021-05-08T09:51:06Z</time>
      </trkpt>
      <trkpt lat="43.57538" lon="-0.9352">
        <ele>102</ele>
        <time>2021-05-08T09:51:07Z</time>
      </trkpt>
      <trkpt lat="43.57535" lon="-0.9352">
        <ele>102</ele>
        <time>2021-05-08T09:51:08Z</time>
      </trkpt>
      <trkpt lat="43.57533" lon="-0.93519">
        <ele>102</ele>
        <time>2021-05-08T09:51:09Z</time>
      </trkpt>
      <trkpt lat="43.5753" lon="-0.93518">
        <ele>102</ele>
        <time>2021-05-08T09:51:10Z</time>
      </trkpt>
      <trkpt lat="43.57528" lon="-0.93518">
        <ele>102</ele>
        <time>2021-05-08T09:51:11Z</time>
      </trkpt>
      <trkpt lat="43.57526" lon="-0.93517">
        <ele>103</ele>
        <time>2021-05-08T09:51:12Z</time>
      </trkpt>
      <trkpt lat="43.57524" lon="-0.93517">
        <ele>103</ele>
        <time>2021-05-08T09:51:13Z</time>
      </trkpt>
      <trkpt lat="43.57521" lon="-0.93516">
        <ele>103</ele>
        <time>2021-05-08T09:51:14Z</time>
      </trkpt>
      <trkpt lat="43.57519" lon="-0.93516">
        <ele>103</ele>
        <time>2021-05-08T09:51:15Z</time>
      </trkpt>
      <trkpt lat="43.57517" lon="-0.93515">
        <ele>103</ele>
        <time>2021-05-08T09:51:16Z</time>
      </trkpt>
      <trkpt lat="43.57515" lon="-0.93514">
        <ele>103</ele>
        <time>2021-05-08T09:51:17Z</time>
      </trkpt>
      <trkpt lat="43.57513" lon="-0.93514">
        <ele>103</ele>
        <time>2021-05-08T09:51:18Z</time>
      </trkpt>
      <trkpt lat="43.5751" lon="-0.93513">
        <ele>103</ele>
        <time>2021-05-08T09:51:19Z</time>
      </trkpt>
      <trkpt lat="43.57508" lon="-0.93513">
        <ele>103</ele>
        <time>2021-05-08T09:51:20Z</time>
      </trkpt>
      <trkpt lat="43.57506" lon="-0.93513">
        <ele>103</ele>
        <time>2021-05-08T09:51:21Z</time>
      </trkpt>
      <trkpt lat="43.57504" lon="-0.93513">
        <ele>104</ele>
        <time>2021-05-08T09:51:22Z</time>
      </trkpt>
      <trkpt lat="43.57502" lon="-0.93513">
        <ele>104</ele>
        <time>2021-05-08T09:51:23Z</time>
      </trkpt>
      <trkpt lat="43.575" lon="-0.93513">
        <ele>104</ele>
        <time>2021-05-08T09:51:24Z</time>
      </trkpt>
      <trkpt lat="43.57498" lon="-0.93512">
        <ele>104</ele>
        <time>2021-05-08T09:51:25Z</time>
      </trkpt>
      <trkpt lat="43.57496" lon="-0.93512">
        <ele>104</ele>
        <time>2021-05-08T09:51:26Z</time>
      </trkpt>
      <trkpt lat="43.57494" lon="-0.93512">
        <ele>105</ele>
        <time>2021-05-08T09:51:27Z</time>
      </trkpt>
      <trkpt lat="43.57491" lon="-0.93512">
        <ele>105</ele>
        <time>2021-05-08T09:51:28Z</time>
      </trkpt>
      <trkpt lat="43.57489" lon="-0.93511">
        <ele>105</ele>
        <time>2021-05-08T09:51:29Z</time>
      </trkpt>
      <trkpt lat="43.57486" lon="-0.93511">
        <ele>105</ele>
        <time>2021-05-08T09:51:30Z</time>
      </trkpt>
      <trkpt lat="43.57484" lon="-0.9351">
        <ele>105</ele>
        <time>2021-05-08T09:51:31Z</time>
      </trkpt>
      <trkpt lat="43.57481" lon="-0.9351">
        <ele>106</ele>
        <time>2021-05-08T09:51:32Z</time>
      </trkpt>
      <trkpt lat="43.57479" lon="-0.93509">
        <ele>105</ele>
        <time>2021-05-08T09:51:33Z</time>
      </trkpt>
      <trkpt lat="43.57477" lon="-0.93508">
        <ele>105</ele>
        <time>2021-05-08T09:51:34Z</time>
      </trkpt>
      <trkpt lat="43.57475" lon="-0.93507">
        <ele>105</ele>
        <time>2021-05-08T09:51:35Z</time>
      </trkpt>
      <trkpt lat="43.57473" lon="-0.93505">
        <ele>105</ele>
        <time>2021-05-08T09:51:36Z</time>
      </trkpt>
      <trkpt lat="43.57471" lon="-0.93503">
        <ele>105</ele>
        <time>2021-05-08T09:51:37Z</time>
      </trkpt>
      <trkpt lat="43.5747" lon="-0.93501">
        <ele>105</ele>
        <time>2021-05-08T09:51:38Z</time>
      </trkpt>
      <trkpt lat="43.57468" lon="-0.93498">
        <ele>105</ele>
        <time>2021-05-08T09:51:39Z</time>
      </trkpt>
      <trkpt lat="43.57467" lon="-0.93496">
        <ele>105</ele>
        <time>2021-05-08T09:51:40Z</time>
      </trkpt>
      <trkpt lat="43.57466" lon="-0.93493">
        <ele>105</ele>
        <time>2021-05-08T09:51:41Z</time>
      </trkpt>
      <trkpt lat="43.57465" lon="-0.9349">
        <ele>106</ele>
        <time>2021-05-08T09:51:42Z</time>
      </trkpt>
      <trkpt lat="43.57464" lon="-0.93488">
        <ele>106</ele>
        <time>2021-05-08T09:51:43Z</time>
      </trkpt>
      <trkpt lat="43.57462" lon="-0.93485">
        <ele>106</ele>
        <time>2021-05-08T09:51:44Z</time>
      </trkpt>
      <trkpt lat="43.57461" lon="-0.93482">
        <ele>106</ele>
        <time>2021-05-08T09:51:45Z</time>
      </trkpt>
      <trkpt lat="43.5746" lon="-0.93479">
        <ele>106</ele>
        <time>2021-05-08T09:51:46Z</time>
      </trkpt>
      <trkpt lat="43.57459" lon="-0.93476">
        <ele>106</ele>
        <time>2021-05-08T09:51:47Z</time>
      </trkpt>
      <trkpt lat="43.57458" lon="-0.93473">
        <ele>105</ele>
        <time>2021-05-08T09:51:48Z</time>
      </trkpt>
      <trkpt lat="43.57457" lon="-0.9347">
        <ele>105</ele>
        <time>2021-05-08T09:51:49Z</time>
      </trkpt>
      <trkpt lat="43.57455" lon="-0.93466">
        <ele>105</ele>
        <time>2021-05-08T09:51:50Z</time>
      </trkpt>
      <trkpt lat="43.57454" lon="-0.93463">
        <ele>105</ele>
        <time>2021-05-08T09:51:51Z</time>
      </trkpt>
      <trkpt lat="43.57453" lon="-0.9346">
        <ele>105</ele>
        <time>2021-05-08T09:51:52Z</time>
      </trkpt>
      <trkpt lat="43.57452" lon="-0.93457">
        <ele>105</ele>
        <time>2021-05-08T09:51:53Z</time>
      </trkpt>
      <trkpt lat="43.5745" lon="-0.93454">
        <ele>105</ele>
        <time>2021-05-08T09:51:54Z</time>
      </trkpt>
      <trkpt lat="43.57449" lon="-0.93451">
        <ele>105</ele>
        <time>2021-05-08T09:51:55Z</time>
      </trkpt>
      <trkpt lat="43.57448" lon="-0.93447">
        <ele>105</ele>
        <time>2021-05-08T09:51:56Z</time>
      </trkpt>
      <trkpt lat="43.57447" lon="-0.93444">
        <ele>105</ele>
        <time>2021-05-08T09:51:57Z</time>
      </trkpt>
      <trkpt lat="43.57445" lon="-0.93441">
        <ele>105</ele>
        <time>2021-05-08T09:51:58Z</time>
      </trkpt>
      <trkpt lat="43.57444" lon="-0.93438">
        <ele>105</ele>
        <time>2021-05-08T09:51:59Z</time>
      </trkpt>
      <trkpt lat="43.57443" lon="-0.93435">
        <ele>105</ele>
        <time>2021-05-08T09:52:00Z</time>
      </trkpt>
      <trkpt lat="43.57442" lon="-0.93432">
        <ele>105</ele>
        <time>2021-05-08T09:52:01Z</time>
      </trkpt>
      <trkpt lat="43.57441" lon="-0.93429">
        <ele>105</ele>
        <time>2021-05-08T09:52:02Z</time>
      </trkpt>
      <trkpt lat="43.5744" lon="-0.93426">
        <ele>105</ele>
        <time>2021-05-08T09:52:03Z</time>
      </trkpt>
      <trkpt lat="43.57439" lon="-0.93423">
        <ele>105</ele>
        <time>2021-05-08T09:52:04Z</time>
      </trkpt>
      <trkpt lat="43.57438" lon="-0.9342">
        <ele>105</ele>
        <time>2021-05-08T09:52:05Z</time>
      </trkpt>
      <trkpt lat="43.57437" lon="-0.93417">
        <ele>105</ele>
        <time>2021-05-08T09:52:06Z</time>
      </trkpt>
      <trkpt lat="43.57436" lon="-0.93414">
        <ele>105</ele>
        <time>2021-05-08T09:52:07Z</time>
      </trkpt>
      <trkpt lat="43.57435" lon="-0.93412">
        <ele>105</ele>
        <time>2021-05-08T09:52:08Z</time>
      </trkpt>
      <trkpt lat="43.57434" lon="-0.93409">
        <ele>105</ele>
        <time>2021-05-08T09:52:09Z</time>
      </trkpt>
      <trkpt lat="43.57433" lon="-0.93407">
        <ele>105</ele>
        <time>2021-05-08T09:52:10Z</time>
      </trkpt>
      <trkpt lat="43.57432" lon="-0.93404">
        <ele>105</ele>
        <time>2021-05-08T09:52:11Z</time>
      </trkpt>
      <trkpt lat="43.57432" lon="-0.93402">
        <ele>105</ele>
        <time>2021-05-08T09:52:12Z</time>
      </trkpt>
      <trkpt lat="43.57431" lon="-0.93399">
        <ele>105</ele>
        <time>2021-05-08T09:52:13Z</time>
      </trkpt>
      <trkpt lat="43.5743" lon="-0.93396">
        <ele>105</ele>
        <time>2021-05-08T09:52:14Z</time>
      </trkpt>
      <trkpt lat="43.57429" lon="-0.93393">
        <ele>105</ele>
        <time>2021-05-08T09:52:15Z</time>
      </trkpt>
      <trkpt lat="43.57429" lon="-0.9339">
        <ele>105</ele>
        <time>2021-05-08T09:52:16Z</time>
      </trkpt>
      <trkpt lat="43.57428" lon="-0.93387">
        <ele>105</ele>
        <time>2021-05-08T09:52:17Z</time>
      </trkpt>
      <trkpt lat="43.57427" lon="-0.93384">
        <ele>105</ele>
        <time>2021-05-08T09:52:18Z</time>
      </trkpt>
      <trkpt lat="43.57427" lon="-0.93381">
        <ele>105</ele>
        <time>2021-05-08T09:52:19Z</time>
      </trkpt>
      <trkpt lat="43.57426" lon="-0.93377">
        <ele>105</ele>
        <time>2021-05-08T09:52:20Z</time>
      </trkpt>
      <trkpt lat="43.57425" lon="-0.93374">
        <ele>105</ele>
        <time>2021-05-08T09:52:21Z</time>
      </trkpt>
      <trkpt lat="43.57424" lon="-0.93371">
        <ele>105</ele>
        <time>2021-05-08T09:52:22Z</time>
      </trkpt>
      <trkpt lat="43.57424" lon="-0.93368">
        <ele>105</ele>
        <time>2021-05-08T09:52:23Z</time>
      </trkpt>
      <trkpt lat="43.57423" lon="-0.93365">
        <ele>105</ele>
        <time>2021-05-08T09:52:24Z</time>
      </trkpt>
      <trkpt lat="43.57422" lon="-0.93362">
        <ele>105</ele>
        <time>2021-05-08T09:52:25Z</time>
      </trkpt>
      <trkpt lat="43.57421" lon="-0.93359">
        <ele>105</ele>
        <time>2021-05-08T09:52:26Z</time>
      </trkpt>
      <trkpt lat="43.57421" lon="-0.93356">
        <ele>105</ele>
        <time>2021-05-08T09:52:27Z</time>
      </trkpt>
      <trkpt lat="43.5742" lon="-0.93354">
        <ele>104</ele>
        <time>2021-05-08T09:52:28Z</time>
      </trkpt>
      <trkpt lat="43.57419" lon="-0.93351">
        <ele>104</ele>
        <time>2021-05-08T09:52:29Z</time>
      </trkpt>
      <trkpt lat="43.57419" lon="-0.93348">
        <ele>104</ele>
        <time>2021-05-08T09:52:30Z</time>
      </trkpt>
      <trkpt lat="43.57418" lon="-0.93346">
        <ele>104</ele>
        <time>2021-05-08T09:52:31Z</time>
      </trkpt>
      <trkpt lat="43.57417" lon="-0.93343">
        <ele>104</ele>
        <time>2021-05-08T09:52:32Z</time>
      </trkpt>
      <trkpt lat="43.57415" lon="-0.9334">
        <ele>104</ele>
        <time>2021-05-08T09:52:33Z</time>
      </trkpt>
      <trkpt lat="43.57414" lon="-0.93337">
        <ele>104</ele>
        <time>2021-05-08T09:52:34Z</time>
      </trkpt>
      <trkpt lat="43.57412" lon="-0.93335">
        <ele>104</ele>
        <time>2021-05-08T09:52:35Z</time>
      </trkpt>
      <trkpt lat="43.57411" lon="-0.93332">
        <ele>104</ele>
        <time>2021-05-08T09:52:36Z</time>
      </trkpt>
      <trkpt lat="43.5741" lon="-0.93329">
        <ele>104</ele>
        <time>2021-05-08T09:52:37Z</time>
      </trkpt>
      <trkpt lat="43.57408" lon="-0.93327">
        <ele>104</ele>
        <time>2021-05-08T09:52:38Z</time>
      </trkpt>
      <trkpt lat="43.57407" lon="-0.93325">
        <ele>104</ele>
        <time>2021-05-08T09:52:39Z</time>
      </trkpt>
      <trkpt lat="43.57405" lon="-0.93323">
        <ele>104</ele>
        <time>2021-05-08T09:52:40Z</time>
      </trkpt>
      <trkpt lat="43.57403" lon="-0.93321">
        <ele>104</ele>
        <time>2021-05-08T09:52:41Z</time>
      </trkpt>
      <trkpt lat="43.57401" lon="-0.93319">
        <ele>104</ele>
        <time>2021-05-08T09:52:42Z</time>
      </trkpt>
      <trkpt lat="43.57399" lon="-0.93318">
        <ele>104</ele>
        <time>2021-05-08T09:52:43Z</time>
      </trkpt>
      <trkpt lat="43.57397" lon="-0.93317">
        <ele>104</ele>
        <time>2021-05-08T09:52:44Z</time>
      </trkpt>
      <trkpt lat="43.57395" lon="-0.93316">
        <ele>104</ele>
        <time>2021-05-08T09:52:45Z</time>
      </trkpt>
      <trkpt lat="43.57392" lon="-0.93316">
        <ele>104</ele>
        <time>2021-05-08T09:52:46Z</time>
      </trkpt>
      <trkpt lat="43.5739" lon="-0.93315">
        <ele>104</ele>
        <time>2021-05-08T09:52:47Z</time>
      </trkpt>
      <trkpt lat="43.57387" lon="-0.93314">
        <ele>104</ele>
        <time>2021-05-08T09:52:48Z</time>
      </trkpt>
      <trkpt lat="43.57385" lon="-0.93314">
        <ele>104</ele>
        <time>2021-05-08T09:52:49Z</time>
      </trkpt>
      <trkpt lat="43.57382" lon="-0.93313">
        <ele>104</ele>
        <time>2021-05-08T09:52:50Z</time>
      </trkpt>
      <trkpt lat="43.5738" lon="-0.93313">
        <ele>104</ele>
        <time>2021-05-08T09:52:51Z</time>
      </trkpt>
      <trkpt lat="43.57378" lon="-0.93312">
        <ele>104</ele>
        <time>2021-05-08T09:52:52Z</time>
      </trkpt>
      <trkpt lat="43.57375" lon="-0.93312">
        <ele>104</ele>
        <time>2021-05-08T09:52:53Z</time>
      </trkpt>
      <trkpt lat="43.57373" lon="-0.93311">
        <ele>104</ele>
        <time>2021-05-08T09:52:54Z</time>
      </trkpt>
      <trkpt lat="43.57371" lon="-0.93311">
        <ele>104</ele>
        <time>2021-05-08T09:52:55Z</time>
      </trkpt>
      <trkpt lat="43.57369" lon="-0.9331">
        <ele>104</ele>
        <time>2021-05-08T09:52:56Z</time>
      </trkpt>
      <trkpt lat="43.57367" lon="-0.9331">
        <ele>104</ele>
        <time>2021-05-08T09:52:57Z</time>
      </trkpt>
      <trkpt lat="43.57365" lon="-0.93309">
        <ele>104</ele>
        <time>2021-05-08T09:52:58Z</time>
      </trkpt>
      <trkpt lat="43.57363" lon="-0.93309">
        <ele>104</ele>
        <time>2021-05-08T09:52:59Z</time>
      </trkpt>
      <trkpt lat="43.57361" lon="-0.93309">
        <ele>104</ele>
        <time>2021-05-08T09:53:00Z</time>
      </trkpt>
      <trkpt lat="43.57358" lon="-0.93308">
        <ele>104</ele>
        <time>2021-05-08T09:53:01Z</time>
      </trkpt>
      <trkpt lat="43.57356" lon="-0.93308">
        <ele>104</ele>
        <time>2021-05-08T09:53:02Z</time>
      </trkpt>
      <trkpt lat="43.57354" lon="-0.93307">
        <ele>103</ele>
        <time>2021-05-08T09:53:03Z</time>
      </trkpt>
      <trkpt lat="43.57352" lon="-0.93307">
        <ele>103</ele>
        <time>2021-05-08T09:53:04Z</time>
      </trkpt>
      <trkpt lat="43.5735" lon="-0.93307">
        <ele>103</ele>
        <time>2021-05-08T09:53:05Z</time>
      </trkpt>
      <trkpt lat="43.57348" lon="-0.93306">
        <ele>103</ele>
        <time>2021-05-08T09:53:06Z</time>
      </trkpt>
      <trkpt lat="43.57346" lon="-0.93306">
        <ele>103</ele>
        <time>2021-05-08T09:53:07Z</time>
      </trkpt>
      <trkpt lat="43.57343" lon="-0.93305">
        <ele>103</ele>
        <time>2021-05-08T09:53:08Z</time>
      </trkpt>
      <trkpt lat="43.57341" lon="-0.93305">
        <ele>103</ele>
        <time>2021-05-08T09:53:09Z</time>
      </trkpt>
      <trkpt lat="43.57338" lon="-0.93304">
        <ele>103</ele>
        <time>2021-05-08T09:53:10Z</time>
      </trkpt>
      <trkpt lat="43.57336" lon="-0.93304">
        <ele>103</ele>
        <time>2021-05-08T09:53:11Z</time>
      </trkpt>
      <trkpt lat="43.57333" lon="-0.93303">
        <ele>104</ele>
        <time>2021-05-08T09:53:12Z</time>
      </trkpt>
      <trkpt lat="43.57331" lon="-0.93303">
        <ele>104</ele>
        <time>2021-05-08T09:53:13Z</time>
      </trkpt>
      <trkpt lat="43.57328" lon="-0.93302">
        <ele>104</ele>
        <time>2021-05-08T09:53:14Z</time>
      </trkpt>
      <trkpt lat="43.57326" lon="-0.93302">
        <ele>104</ele>
        <time>2021-05-08T09:53:15Z</time>
      </trkpt>
      <trkpt lat="43.57324" lon="-0.93301">
        <ele>104</ele>
        <time>2021-05-08T09:53:16Z</time>
      </trkpt>
      <trkpt lat="43.57322" lon="-0.93301">
        <ele>104</ele>
        <time>2021-05-08T09:53:17Z</time>
      </trkpt>
      <trkpt lat="43.5732" lon="-0.933">
        <ele>104</ele>
        <time>2021-05-08T09:53:18Z</time>
      </trkpt>
      <trkpt lat="43.57318" lon="-0.933">
        <ele>104</ele>
        <time>2021-05-08T09:53:19Z</time>
      </trkpt>
      <trkpt lat="43.57316" lon="-0.933">
        <ele>104</ele>
        <time>2021-05-08T09:53:20Z</time>
      </trkpt>
      <trkpt lat="43.57314" lon="-0.93299">
        <ele>104</ele>
        <time>2021-05-08T09:53:21Z</time>
      </trkpt>
      <trkpt lat="43.57313" lon="-0.93299">
        <ele>105</ele>
        <time>2021-05-08T09:53:22Z</time>
      </trkpt>
      <trkpt lat="43.57311" lon="-0.93299">
        <ele>105</ele>
        <time>2021-05-08T09:53:23Z</time>
      </trkpt>
      <trkpt lat="43.57309" lon="-0.93298">
        <ele>105</ele>
        <time>2021-05-08T09:53:24Z</time>
      </trkpt>
      <trkpt lat="43.57307" lon="-0.93298">
        <ele>105</ele>
        <time>2021-05-08T09:53:25Z</time>
      </trkpt>
      <trkpt lat="43.57305" lon="-0.93298">
        <ele>105</ele>
        <time>2021-05-08T09:53:26Z</time>
      </trkpt>
      <trkpt lat="43.57302" lon="-0.93297">
        <ele>105</ele>
        <time>2021-05-08T09:53:27Z</time>
      </trkpt>
      <trkpt lat="43.573" lon="-0.93297">
        <ele>105</ele>
        <time>2021-05-08T09:53:28Z</time>
      </trkpt>
      <trkpt lat="43.57298" lon="-0.93297">
        <ele>105</ele>
        <time>2021-05-08T09:53:29Z</time>
      </trkpt>
      <trkpt lat="43.57296" lon="-0.93296">
        <ele>105</ele>
        <time>2021-05-08T09:53:30Z</time>
      </trkpt>
      <trkpt lat="43.57294" lon="-0.93296">
        <ele>105</ele>
        <time>2021-05-08T09:53:31Z</time>
      </trkpt>
      <trkpt lat="43.57292" lon="-0.93296">
        <ele>105</ele>
        <time>2021-05-08T09:53:32Z</time>
      </trkpt>
      <trkpt lat="43.5729" lon="-0.93296">
        <ele>105</ele>
        <time>2021-05-08T09:53:33Z</time>
      </trkpt>
      <trkpt lat="43.57288" lon="-0.93296">
        <ele>105</ele>
        <time>2021-05-08T09:53:34Z</time>
      </trkpt>
      <trkpt lat="43.57285" lon="-0.93296">
        <ele>105</ele>
        <time>2021-05-08T09:53:35Z</time>
      </trkpt>
      <trkpt lat="43.57283" lon="-0.93295">
        <ele>105</ele>
        <time>2021-05-08T09:53:36Z</time>
      </trkpt>
      <trkpt lat="43.57281" lon="-0.93295">
        <ele>105</ele>
        <time>2021-05-08T09:53:37Z</time>
      </trkpt>
      <trkpt lat="43.57278" lon="-0.93295">
        <ele>105</ele>
        <time>2021-05-08T09:53:38Z</time>
      </trkpt>
      <trkpt lat="43.57275" lon="-0.93295">
        <ele>105</ele>
        <time>2021-05-08T09:53:39Z</time>
      </trkpt>
      <trkpt lat="43.57273" lon="-0.93295">
        <ele>105</ele>
        <time>2021-05-08T09:53:40Z</time>
      </trkpt>
      <trkpt lat="43.5727" lon="-0.93297">
        <ele>105</ele>
        <time>2021-05-08T09:53:41Z</time>
      </trkpt>
      <trkpt lat="43.57268" lon="-0.93298">
        <ele>106</ele>
        <time>2021-05-08T09:53:42Z</time>
      </trkpt>
      <trkpt lat="43.57266" lon="-0.933">
        <ele>105</ele>
        <time>2021-05-08T09:53:43Z</time>
      </trkpt>
      <trkpt lat="43.57264" lon="-0.93302">
        <ele>105</ele>
        <time>2021-05-08T09:53:44Z</time>
      </trkpt>
      <trkpt lat="43.57262" lon="-0.93305">
        <ele>105</ele>
        <time>2021-05-08T09:53:45Z</time>
      </trkpt>
      <trkpt lat="43.57261" lon="-0.93308">
        <ele>105</ele>
        <time>2021-05-08T09:53:46Z</time>
      </trkpt>
      <trkpt lat="43.5726" lon="-0.93311">
        <ele>105</ele>
        <time>2021-05-08T09:53:47Z</time>
      </trkpt>
      <trkpt lat="43.57258" lon="-0.93313">
        <ele>105</ele>
        <time>2021-05-08T09:53:48Z</time>
      </trkpt>
      <trkpt lat="43.57257" lon="-0.93316">
        <ele>105</ele>
        <time>2021-05-08T09:53:49Z</time>
      </trkpt>
      <trkpt lat="43.57256" lon="-0.93319">
        <ele>105</ele>
        <time>2021-05-08T09:53:50Z</time>
      </trkpt>
      <trkpt lat="43.57255" lon="-0.93321">
        <ele>105</ele>
        <time>2021-05-08T09:53:51Z</time>
      </trkpt>
      <trkpt lat="43.57254" lon="-0.93324">
        <ele>105</ele>
        <time>2021-05-08T09:53:52Z</time>
      </trkpt>
      <trkpt lat="43.57252" lon="-0.93326">
        <ele>104</ele>
        <time>2021-05-08T09:53:53Z</time>
      </trkpt>
      <trkpt lat="43.57251" lon="-0.93329">
        <ele>104</ele>
        <time>2021-05-08T09:53:54Z</time>
      </trkpt>
      <trkpt lat="43.57249" lon="-0.93331">
        <ele>104</ele>
        <time>2021-05-08T09:53:55Z</time>
      </trkpt>
      <trkpt lat="43.57247" lon="-0.93333">
        <ele>104</ele>
        <time>2021-05-08T09:53:56Z</time>
      </trkpt>
      <trkpt lat="43.57245" lon="-0.93336">
        <ele>104</ele>
        <time>2021-05-08T09:53:57Z</time>
      </trkpt>
      <trkpt lat="43.57243" lon="-0.93338">
        <ele>104</ele>
        <time>2021-05-08T09:53:58Z</time>
      </trkpt>
      <trkpt lat="43.57241" lon="-0.9334">
        <ele>104</ele>
        <time>2021-05-08T09:53:59Z</time>
      </trkpt>
      <trkpt lat="43.57238" lon="-0.93342">
        <ele>104</ele>
        <time>2021-05-08T09:54:00Z</time>
      </trkpt>
      <trkpt lat="43.57236" lon="-0.93345">
        <ele>104</ele>
        <time>2021-05-08T09:54:01Z</time>
      </trkpt>
      <trkpt lat="43.57235" lon="-0.93347">
        <ele>104</ele>
        <time>2021-05-08T09:54:02Z</time>
      </trkpt>
      <trkpt lat="43.57233" lon="-0.93349">
        <ele>104</ele>
        <time>2021-05-08T09:54:03Z</time>
      </trkpt>
      <trkpt lat="43.57231" lon="-0.93351">
        <ele>104</ele>
        <time>2021-05-08T09:54:04Z</time>
      </trkpt>
      <trkpt lat="43.57229" lon="-0.93353">
        <ele>104</ele>
        <time>2021-05-08T09:54:05Z</time>
      </trkpt>
      <trkpt lat="43.57227" lon="-0.93355">
        <ele>104</ele>
        <time>2021-05-08T09:54:06Z</time>
      </trkpt>
      <trkpt lat="43.57225" lon="-0.93356">
        <ele>105</ele>
        <time>2021-05-08T09:54:07Z</time>
      </trkpt>
      <trkpt lat="43.57223" lon="-0.93358">
        <ele>104</ele>
        <time>2021-05-08T09:54:08Z</time>
      </trkpt>
      <trkpt lat="43.57221" lon="-0.93359">
        <ele>104</ele>
        <time>2021-05-08T09:54:09Z</time>
      </trkpt>
      <trkpt lat="43.57218" lon="-0.9336">
        <ele>104</ele>
        <time>2021-05-08T09:54:10Z</time>
      </trkpt>
      <trkpt lat="43.57216" lon="-0.93361">
        <ele>104</ele>
        <time>2021-05-08T09:54:11Z</time>
      </trkpt>
      <trkpt lat="43.57214" lon="-0.93362">
        <ele>104</ele>
        <time>2021-05-08T09:54:12Z</time>
      </trkpt>
      <trkpt lat="43.57211" lon="-0.93363">
        <ele>104</ele>
        <time>2021-05-08T09:54:13Z</time>
      </trkpt>
      <trkpt lat="43.57209" lon="-0.93365">
        <ele>104</ele>
        <time>2021-05-08T09:54:14Z</time>
      </trkpt>
      <trkpt lat="43.57207" lon="-0.93366">
        <ele>104</ele>
        <time>2021-05-08T09:54:15Z</time>
      </trkpt>
      <trkpt lat="43.57205" lon="-0.93367">
        <ele>104</ele>
        <time>2021-05-08T09:54:16Z</time>
      </trkpt>
      <trkpt lat="43.57203" lon="-0.93369">
        <ele>104</ele>
        <time>2021-05-08T09:54:17Z</time>
      </trkpt>
      <trkpt lat="43.572" lon="-0.9337">
        <ele>104</ele>
        <time>2021-05-08T09:54:18Z</time>
      </trkpt>
      <trkpt lat="43.57198" lon="-0.93372">
        <ele>104</ele>
        <time>2021-05-08T09:54:19Z</time>
      </trkpt>
      <trkpt lat="43.57197" lon="-0.93373">
        <ele>104</ele>
        <time>2021-05-08T09:54:20Z</time>
      </trkpt>
      <trkpt lat="43.57195" lon="-0.93375">
        <ele>104</ele>
        <time>2021-05-08T09:54:21Z</time>
      </trkpt>
      <trkpt lat="43.57193" lon="-0.93376">
        <ele>104</ele>
        <time>2021-05-08T09:54:22Z</time>
      </trkpt>
      <trkpt lat="43.57191" lon="-0.93378">
        <ele>104</ele>
        <time>2021-05-08T09:54:23Z</time>
      </trkpt>
      <trkpt lat="43.57189" lon="-0.93379">
        <ele>104</ele>
        <time>2021-05-08T09:54:24Z</time>
      </trkpt>
      <trkpt lat="43.57187" lon="-0.9338">
        <ele>104</ele>
        <time>2021-05-08T09:54:25Z</time>
      </trkpt>
      <trkpt lat="43.57185" lon="-0.93382">
        <ele>104</ele>
        <time>2021-05-08T09:54:26Z</time>
      </trkpt>
      <trkpt lat="43.57182" lon="-0.93383">
        <ele>104</ele>
        <time>2021-05-08T09:54:27Z</time>
      </trkpt>
      <trkpt lat="43.5718" lon="-0.93384">
        <ele>104</ele>
        <time>2021-05-08T09:54:28Z</time>
      </trkpt>
      <trkpt lat="43.57178" lon="-0.93386">
        <ele>104</ele>
        <time>2021-05-08T09:54:29Z</time>
      </trkpt>
      <trkpt lat="43.57176" lon="-0.93387">
        <ele>104</ele>
        <time>2021-05-08T09:54:30Z</time>
      </trkpt>
      <trkpt lat="43.57173" lon="-0.93389">
        <ele>104</ele>
        <time>2021-05-08T09:54:31Z</time>
      </trkpt>
      <trkpt lat="43.57171" lon="-0.9339">
        <ele>104</ele>
        <time>2021-05-08T09:54:32Z</time>
      </trkpt>
      <trkpt lat="43.57169" lon="-0.93392">
        <ele>104</ele>
        <time>2021-05-08T09:54:33Z</time>
      </trkpt>
      <trkpt lat="43.57166" lon="-0.93393">
        <ele>104</ele>
        <time>2021-05-08T09:54:34Z</time>
      </trkpt>
      <trkpt lat="43.57164" lon="-0.93394">
        <ele>104</ele>
        <time>2021-05-08T09:54:35Z</time>
      </trkpt>
      <trkpt lat="43.57161" lon="-0.93395">
        <ele>104</ele>
        <time>2021-05-08T09:54:36Z</time>
      </trkpt>
      <trkpt lat="43.57159" lon="-0.93396">
        <ele>104</ele>
        <time>2021-05-08T09:54:37Z</time>
      </trkpt>
      <trkpt lat="43.57156" lon="-0.93396">
        <ele>104</ele>
        <time>2021-05-08T09:54:38Z</time>
      </trkpt>
      <trkpt lat="43.57154" lon="-0.93397">
        <ele>104</ele>
        <time>2021-05-08T09:54:39Z</time>
      </trkpt>
      <trkpt lat="43.57152" lon="-0.93398">
        <ele>104</ele>
        <time>2021-05-08T09:54:40Z</time>
      </trkpt>
      <trkpt lat="43.57149" lon="-0.93399">
        <ele>104</ele>
        <time>2021-05-08T09:54:41Z</time>
      </trkpt>
      <trkpt lat="43.57147" lon="-0.93401">
        <ele>104</ele>
        <time>2021-05-08T09:54:42Z</time>
      </trkpt>
      <trkpt lat="43.57145" lon="-0.93402">
        <ele>104</ele>
        <time>2021-05-08T09:54:43Z</time>
      </trkpt>
      <trkpt lat="43.57143" lon="-0.93403">
        <ele>104</ele>
        <time>2021-05-08T09:54:44Z</time>
      </trkpt>
      <trkpt lat="43.5714" lon="-0.93405">
        <ele>104</ele>
        <time>2021-05-08T09:54:45Z</time>
      </trkpt>
      <trkpt lat="43.57138" lon="-0.93407">
        <ele>104</ele>
        <time>2021-05-08T09:54:46Z</time>
      </trkpt>
      <trkpt lat="43.57136" lon="-0.93408">
        <ele>104</ele>
        <time>2021-05-08T09:54:47Z</time>
      </trkpt>
      <trkpt lat="43.57134" lon="-0.9341">
        <ele>104</ele>
        <time>2021-05-08T09:54:48Z</time>
      </trkpt>
      <trkpt lat="43.57132" lon="-0.93412">
        <ele>104</ele>
        <time>2021-05-08T09:54:49Z</time>
      </trkpt>
      <trkpt lat="43.5713" lon="-0.93414">
        <ele>104</ele>
        <time>2021-05-08T09:54:50Z</time>
      </trkpt>
      <trkpt lat="43.57128" lon="-0.93415">
        <ele>104</ele>
        <time>2021-05-08T09:54:51Z</time>
      </trkpt>
      <trkpt lat="43.57125" lon="-0.93417">
        <ele>104</ele>
        <time>2021-05-08T09:54:52Z</time>
      </trkpt>
      <trkpt lat="43.57123" lon="-0.93418">
        <ele>103</ele>
        <time>2021-05-08T09:54:53Z</time>
      </trkpt>
      <trkpt lat="43.57121" lon="-0.9342">
        <ele>103</ele>
        <time>2021-05-08T09:54:54Z</time>
      </trkpt>
      <trkpt lat="43.57119" lon="-0.93422">
        <ele>103</ele>
        <time>2021-05-08T09:54:55Z</time>
      </trkpt>
      <trkpt lat="43.57116" lon="-0.93423">
        <ele>103</ele>
        <time>2021-05-08T09:54:56Z</time>
      </trkpt>
      <trkpt lat="43.57114" lon="-0.93425">
        <ele>103</ele>
        <time>2021-05-08T09:54:57Z</time>
      </trkpt>
      <trkpt lat="43.57112" lon="-0.93426">
        <ele>103</ele>
        <time>2021-05-08T09:54:58Z</time>
      </trkpt>
      <trkpt lat="43.5711" lon="-0.93427">
        <ele>103</ele>
        <time>2021-05-08T09:54:59Z</time>
      </trkpt>
      <trkpt lat="43.57108" lon="-0.93429">
        <ele>103</ele>
        <time>2021-05-08T09:55:00Z</time>
      </trkpt>
      <trkpt lat="43.57105" lon="-0.9343">
        <ele>103</ele>
        <time>2021-05-08T09:55:01Z</time>
      </trkpt>
      <trkpt lat="43.57103" lon="-0.93432">
        <ele>103</ele>
        <time>2021-05-08T09:55:02Z</time>
      </trkpt>
      <trkpt lat="43.57101" lon="-0.93433">
        <ele>103</ele>
        <time>2021-05-08T09:55:03Z</time>
      </trkpt>
      <trkpt lat="43.571" lon="-0.93435">
        <ele>103</ele>
        <time>2021-05-08T09:55:04Z</time>
      </trkpt>
      <trkpt lat="43.57098" lon="-0.93436">
        <ele>103</ele>
        <time>2021-05-08T09:55:05Z</time>
      </trkpt>
      <trkpt lat="43.57096" lon="-0.93438">
        <ele>103</ele>
        <time>2021-05-08T09:55:06Z</time>
      </trkpt>
      <trkpt lat="43.57094" lon="-0.93439">
        <ele>103</ele>
        <time>2021-05-08T09:55:07Z</time>
      </trkpt>
      <trkpt lat="43.57092" lon="-0.93441">
        <ele>103</ele>
        <time>2021-05-08T09:55:08Z</time>
      </trkpt>
      <trkpt lat="43.5709" lon="-0.93443">
        <ele>103</ele>
        <time>2021-05-08T09:55:09Z</time>
      </trkpt>
      <trkpt lat="43.57088" lon="-0.93444">
        <ele>103</ele>
        <time>2021-05-08T09:55:10Z</time>
      </trkpt>
      <trkpt lat="43.57086" lon="-0.93446">
        <ele>103</ele>
        <time>2021-05-08T09:55:11Z</time>
      </trkpt>
      <trkpt lat="43.57084" lon="-0.93447">
        <ele>103</ele>
        <time>2021-05-08T09:55:12Z</time>
      </trkpt>
      <trkpt lat="43.57083" lon="-0.93449">
        <ele>103</ele>
        <time>2021-05-08T09:55:13Z</time>
      </trkpt>
      <trkpt lat="43.57081" lon="-0.9345">
        <ele>103</ele>
        <time>2021-05-08T09:55:14Z</time>
      </trkpt>
      <trkpt lat="43.57079" lon="-0.93452">
        <ele>103</ele>
        <time>2021-05-08T09:55:15Z</time>
      </trkpt>
      <trkpt lat="43.57078" lon="-0.93453">
        <ele>103</ele>
        <time>2021-05-08T09:55:16Z</time>
      </trkpt>
      <trkpt lat="43.57076" lon="-0.93455">
        <ele>104</ele>
        <time>2021-05-08T09:55:17Z</time>
      </trkpt>
      <trkpt lat="43.57075" lon="-0.93456">
        <ele>104</ele>
        <time>2021-05-08T09:55:18Z</time>
      </trkpt>
      <trkpt lat="43.57073" lon="-0.93457">
        <ele>104</ele>
        <time>2021-05-08T09:55:19Z</time>
      </trkpt>
      <trkpt lat="43.57072" lon="-0.93459">
        <ele>104</ele>
        <time>2021-05-08T09:55:20Z</time>
      </trkpt>
      <trkpt lat="43.5707" lon="-0.93461">
        <ele>104</ele>
        <time>2021-05-08T09:55:21Z</time>
      </trkpt>
      <trkpt lat="43.57068" lon="-0.93462">
        <ele>104</ele>
        <time>2021-05-08T09:55:22Z</time>
      </trkpt>
      <trkpt lat="43.57066" lon="-0.93464">
        <ele>104</ele>
        <time>2021-05-08T09:55:23Z</time>
      </trkpt>
      <trkpt lat="43.57065" lon="-0.93466">
        <ele>104</ele>
        <time>2021-05-08T09:55:24Z</time>
      </trkpt>
      <trkpt lat="43.57063" lon="-0.93468">
        <ele>104</ele>
        <time>2021-05-08T09:55:25Z</time>
      </trkpt>
      <trkpt lat="43.57061" lon="-0.93471">
        <ele>104</ele>
        <time>2021-05-08T09:55:26Z</time>
      </trkpt>
      <trkpt lat="43.5706" lon="-0.93473">
        <ele>104</ele>
        <time>2021-05-08T09:55:27Z</time>
      </trkpt>
      <trkpt lat="43.57058" lon="-0.93475">
        <ele>104</ele>
        <time>2021-05-08T09:55:28Z</time>
      </trkpt>
      <trkpt lat="43.57057" lon="-0.93477">
        <ele>104</ele>
        <time>2021-05-08T09:55:29Z</time>
      </trkpt>
      <trkpt lat="43.57055" lon="-0.93479">
        <ele>104</ele>
        <time>2021-05-08T09:55:30Z</time>
      </trkpt>
      <trkpt lat="43.57054" lon="-0.93481">
        <ele>104</ele>
        <time>2021-05-08T09:55:31Z</time>
      </trkpt>
      <trkpt lat="43.57052" lon="-0.93483">
        <ele>104</ele>
        <time>2021-05-08T09:55:32Z</time>
      </trkpt>
      <trkpt lat="43.57051" lon="-0.93485">
        <ele>104</ele>
        <time>2021-05-08T09:55:33Z</time>
      </trkpt>
      <trkpt lat="43.5705" lon="-0.93486">
        <ele>104</ele>
        <time>2021-05-08T09:55:34Z</time>
      </trkpt>
      <trkpt lat="43.57048" lon="-0.93488">
        <ele>104</ele>
        <time>2021-05-08T09:55:35Z</time>
      </trkpt>
      <trkpt lat="43.57047" lon="-0.93489">
        <ele>104</ele>
        <time>2021-05-08T09:55:36Z</time>
      </trkpt>
      <trkpt lat="43.57045" lon="-0.9349">
        <ele>104</ele>
        <time>2021-05-08T09:55:37Z</time>
      </trkpt>
      <trkpt lat="43.57043" lon="-0.93492">
        <ele>104</ele>
        <time>2021-05-08T09:55:38Z</time>
      </trkpt>
      <trkpt lat="43.57042" lon="-0.93493">
        <ele>104</ele>
        <time>2021-05-08T09:55:39Z</time>
      </trkpt>
      <trkpt lat="43.5704" lon="-0.93494">
        <ele>104</ele>
        <time>2021-05-08T09:55:40Z</time>
      </trkpt>
      <trkpt lat="43.57039" lon="-0.93495">
        <ele>104</ele>
        <time>2021-05-08T09:55:41Z</time>
      </trkpt>
      <trkpt lat="43.57038" lon="-0.93497">
        <ele>105</ele>
        <time>2021-05-08T09:55:42Z</time>
      </trkpt>
      <trkpt lat="43.57036" lon="-0.93497">
        <ele>105</ele>
        <time>2021-05-08T09:55:43Z</time>
      </trkpt>
      <trkpt lat="43.57035" lon="-0.93497">
        <ele>105</ele>
        <time>2021-05-08T09:55:44Z</time>
      </trkpt>
      <trkpt lat="43.57034" lon="-0.93497">
        <ele>105</ele>
        <time>2021-05-08T09:55:45Z</time>
      </trkpt>
      <trkpt lat="43.57033" lon="-0.93496">
        <ele>105</ele>
        <time>2021-05-08T09:55:46Z</time>
      </trkpt>
      <trkpt lat="43.57032" lon="-0.93495">
        <ele>105</ele>
        <time>2021-05-08T09:55:47Z</time>
      </trkpt>
      <trkpt lat="43.57031" lon="-0.93494">
        <ele>105</ele>
        <time>2021-05-08T09:55:48Z</time>
      </trkpt>
      <trkpt lat="43.5703" lon="-0.93492">
        <ele>105</ele>
        <time>2021-05-08T09:55:49Z</time>
      </trkpt>
      <trkpt lat="43.57029" lon="-0.93491">
        <ele>105</ele>
        <time>2021-05-08T09:55:50Z</time>
      </trkpt>
      <trkpt lat="43.57028" lon="-0.93489">
        <ele>105</ele>
        <time>2021-05-08T09:55:51Z</time>
      </trkpt>
      <trkpt lat="43.57027" lon="-0.93487">
        <ele>106</ele>
        <time>2021-05-08T09:55:52Z</time>
      </trkpt>
      <trkpt lat="43.57026" lon="-0.93485">
        <ele>106</ele>
        <time>2021-05-08T09:55:53Z</time>
      </trkpt>
      <trkpt lat="43.57026" lon="-0.93483">
        <ele>106</ele>
        <time>2021-05-08T09:55:54Z</time>
      </trkpt>
      <trkpt lat="43.57025" lon="-0.93481">
        <ele>106</ele>
        <time>2021-05-08T09:55:55Z</time>
      </trkpt>
      <trkpt lat="43.57024" lon="-0.93479">
        <ele>106</ele>
        <time>2021-05-08T09:55:56Z</time>
      </trkpt>
      <trkpt lat="43.57023" lon="-0.93477">
        <ele>106</ele>
        <time>2021-05-08T09:55:57Z</time>
      </trkpt>
      <trkpt lat="43.57023" lon="-0.93475">
        <ele>106</ele>
        <time>2021-05-08T09:55:58Z</time>
      </trkpt>
      <trkpt lat="43.57022" lon="-0.93474">
        <ele>106</ele>
        <time>2021-05-08T09:55:59Z</time>
      </trkpt>
      <trkpt lat="43.57021" lon="-0.93472">
        <ele>106</ele>
        <time>2021-05-08T09:56:00Z</time>
      </trkpt>
      <trkpt lat="43.57021" lon="-0.9347">
        <ele>106</ele>
        <time>2021-05-08T09:56:01Z</time>
      </trkpt>
      <trkpt lat="43.5702" lon="-0.93468">
        <ele>107</ele>
        <time>2021-05-08T09:56:02Z</time>
      </trkpt>
      <trkpt lat="43.57019" lon="-0.93466">
        <ele>107</ele>
        <time>2021-05-08T09:56:03Z</time>
      </trkpt>
      <trkpt lat="43.57019" lon="-0.93463">
        <ele>107</ele>
        <time>2021-05-08T09:56:04Z</time>
      </trkpt>
      <trkpt lat="43.57018" lon="-0.93461">
        <ele>107</ele>
        <time>2021-05-08T09:56:05Z</time>
      </trkpt>
      <trkpt lat="43.57018" lon="-0.93458">
        <ele>107</ele>
        <time>2021-05-08T09:56:06Z</time>
      </trkpt>
      <trkpt lat="43.57017" lon="-0.93456">
        <ele>107</ele>
        <time>2021-05-08T09:56:07Z</time>
      </trkpt>
      <trkpt lat="43.57016" lon="-0.93454">
        <ele>107</ele>
        <time>2021-05-08T09:56:08Z</time>
      </trkpt>
      <trkpt lat="43.57016" lon="-0.93451">
        <ele>107</ele>
        <time>2021-05-08T09:56:09Z</time>
      </trkpt>
      <trkpt lat="43.57015" lon="-0.93448">
        <ele>107</ele>
        <time>2021-05-08T09:56:10Z</time>
      </trkpt>
      <trkpt lat="43.57014" lon="-0.93446">
        <ele>107</ele>
        <time>2021-05-08T09:56:11Z</time>
      </trkpt>
      <trkpt lat="43.57013" lon="-0.93443">
        <ele>108</ele>
        <time>2021-05-08T09:56:12Z</time>
      </trkpt>
      <trkpt lat="43.57012" lon="-0.9344">
        <ele>108</ele>
        <time>2021-05-08T09:56:13Z</time>
      </trkpt>
      <trkpt lat="43.57011" lon="-0.93437">
        <ele>108</ele>
        <time>2021-05-08T09:56:14Z</time>
      </trkpt>
      <trkpt lat="43.5701" lon="-0.93434">
        <ele>108</ele>
        <time>2021-05-08T09:56:15Z</time>
      </trkpt>
      <trkpt lat="43.57009" lon="-0.93431">
        <ele>108</ele>
        <time>2021-05-08T09:56:16Z</time>
      </trkpt>
      <trkpt lat="43.57008" lon="-0.93428">
        <ele>109</ele>
        <time>2021-05-08T09:56:17Z</time>
      </trkpt>
      <trkpt lat="43.57007" lon="-0.93425">
        <ele>109</ele>
        <time>2021-05-08T09:56:18Z</time>
      </trkpt>
      <trkpt lat="43.57006" lon="-0.93423">
        <ele>109</ele>
        <time>2021-05-08T09:56:19Z</time>
      </trkpt>
      <trkpt lat="43.57005" lon="-0.9342">
        <ele>109</ele>
        <time>2021-05-08T09:56:20Z</time>
      </trkpt>
      <trkpt lat="43.57004" lon="-0.93417">
        <ele>109</ele>
        <time>2021-05-08T09:56:21Z</time>
      </trkpt>
      <trkpt lat="43.57003" lon="-0.93415">
        <ele>110</ele>
        <time>2021-05-08T09:56:22Z</time>
      </trkpt>
      <trkpt lat="43.57002" lon="-0.93412">
        <ele>110</ele>
        <time>2021-05-08T09:56:23Z</time>
      </trkpt>
      <trkpt lat="43.57002" lon="-0.93409">
        <ele>110</ele>
        <time>2021-05-08T09:56:24Z</time>
      </trkpt>
      <trkpt lat="43.57001" lon="-0.93407">
        <ele>110</ele>
        <time>2021-05-08T09:56:25Z</time>
      </trkpt>
      <trkpt lat="43.57" lon="-0.93404">
        <ele>110</ele>
        <time>2021-05-08T09:56:26Z</time>
      </trkpt>
      <trkpt lat="43.56999" lon="-0.93401">
        <ele>110</ele>
        <time>2021-05-08T09:56:27Z</time>
      </trkpt>
      <trkpt lat="43.56998" lon="-0.93398">
        <ele>110</ele>
        <time>2021-05-08T09:56:28Z</time>
      </trkpt>
      <trkpt lat="43.56997" lon="-0.93395">
        <ele>110</ele>
        <time>2021-05-08T09:56:29Z</time>
      </trkpt>
      <trkpt lat="43.56996" lon="-0.93392">
        <ele>110</ele>
        <time>2021-05-08T09:56:30Z</time>
      </trkpt>
      <trkpt lat="43.56995" lon="-0.93389">
        <ele>110</ele>
        <time>2021-05-08T09:56:31Z</time>
      </trkpt>
      <trkpt lat="43.56993" lon="-0.93386">
        <ele>110</ele>
        <time>2021-05-08T09:56:32Z</time>
      </trkpt>
      <trkpt lat="43.56992" lon="-0.93383">
        <ele>110</ele>
        <time>2021-05-08T09:56:33Z</time>
      </trkpt>
      <trkpt lat="43.56991" lon="-0.9338">
        <ele>110</ele>
        <time>2021-05-08T09:56:34Z</time>
      </trkpt>
      <trkpt lat="43.5699" lon="-0.93377">
        <ele>110</ele>
        <time>2021-05-08T09:56:35Z</time>
      </trkpt>
      <trkpt lat="43.56989" lon="-0.93374">
        <ele>110</ele>
        <time>2021-05-08T09:56:36Z</time>
      </trkpt>
      <trkpt lat="43.56988" lon="-0.93371">
        <ele>110</ele>
        <time>2021-05-08T09:56:37Z</time>
      </trkpt>
      <trkpt lat="43.56987" lon="-0.93368">
        <ele>110</ele>
        <time>2021-05-08T09:56:38Z</time>
      </trkpt>
      <trkpt lat="43.56986" lon="-0.93365">
        <ele>110</ele>
        <time>2021-05-08T09:56:39Z</time>
      </trkpt>
      <trkpt lat="43.56986" lon="-0.93362">
        <ele>110</ele>
        <time>2021-05-08T09:56:40Z</time>
      </trkpt>
      <trkpt lat="43.56985" lon="-0.9336">
        <ele>110</ele>
        <time>2021-05-08T09:56:41Z</time>
      </trkpt>
      <trkpt lat="43.56984" lon="-0.93357">
        <ele>110</ele>
        <time>2021-05-08T09:56:42Z</time>
      </trkpt>
      <trkpt lat="43.56983" lon="-0.93354">
        <ele>110</ele>
        <time>2021-05-08T09:56:43Z</time>
      </trkpt>
      <trkpt lat="43.56982" lon="-0.93351">
        <ele>110</ele>
        <time>2021-05-08T09:56:44Z</time>
      </trkpt>
      <trkpt lat="43.56981" lon="-0.93349">
        <ele>110</ele>
        <time>2021-05-08T09:56:45Z</time>
      </trkpt>
      <trkpt lat="43.5698" lon="-0.93346">
        <ele>110</ele>
        <time>2021-05-08T09:56:46Z</time>
      </trkpt>
      <trkpt lat="43.56979" lon="-0.93344">
        <ele>111</ele>
        <time>2021-05-08T09:56:47Z</time>
      </trkpt>
      <trkpt lat="43.56978" lon="-0.93342">
        <ele>110</ele>
        <time>2021-05-08T09:56:48Z</time>
      </trkpt>
      <trkpt lat="43.56977" lon="-0.93339">
        <ele>110</ele>
        <time>2021-05-08T09:56:49Z</time>
      </trkpt>
      <trkpt lat="43.56976" lon="-0.93337">
        <ele>110</ele>
        <time>2021-05-08T09:56:50Z</time>
      </trkpt>
      <trkpt lat="43.56974" lon="-0.93335">
        <ele>110</ele>
        <time>2021-05-08T09:56:51Z</time>
      </trkpt>
      <trkpt lat="43.56973" lon="-0.93333">
        <ele>110</ele>
        <time>2021-05-08T09:56:52Z</time>
      </trkpt>
      <trkpt lat="43.56972" lon="-0.93331">
        <ele>110</ele>
        <time>2021-05-08T09:56:53Z</time>
      </trkpt>
      <trkpt lat="43.56971" lon="-0.93329">
        <ele>110</ele>
        <time>2021-05-08T09:56:54Z</time>
      </trkpt>
      <trkpt lat="43.5697" lon="-0.93327">
        <ele>110</ele>
        <time>2021-05-08T09:56:55Z</time>
      </trkpt>
      <trkpt lat="43.56969" lon="-0.93325">
        <ele>110</ele>
        <time>2021-05-08T09:56:56Z</time>
      </trkpt>
      <trkpt lat="43.56968" lon="-0.93322">
        <ele>110</ele>
        <time>2021-05-08T09:56:57Z</time>
      </trkpt>
      <trkpt lat="43.56967" lon="-0.9332">
        <ele>109</ele>
        <time>2021-05-08T09:56:58Z</time>
      </trkpt>
      <trkpt lat="43.56966" lon="-0.93318">
        <ele>109</ele>
        <time>2021-05-08T09:56:59Z</time>
      </trkpt>
      <trkpt lat="43.56965" lon="-0.93316">
        <ele>109</ele>
        <time>2021-05-08T09:57:00Z</time>
      </trkpt>
      <trkpt lat="43.56964" lon="-0.93314">
        <ele>109</ele>
        <time>2021-05-08T09:57:01Z</time>
      </trkpt>
      <trkpt lat="43.56963" lon="-0.93312">
        <ele>109</ele>
        <time>2021-05-08T09:57:02Z</time>
      </trkpt>
      <trkpt lat="43.56962" lon="-0.9331">
        <ele>108</ele>
        <time>2021-05-08T09:57:03Z</time>
      </trkpt>
      <trkpt lat="43.56961" lon="-0.93308">
        <ele>108</ele>
        <time>2021-05-08T09:57:04Z</time>
      </trkpt>
      <trkpt lat="43.56959" lon="-0.93306">
        <ele>108</ele>
        <time>2021-05-08T09:57:05Z</time>
      </trkpt>
      <trkpt lat="43.56958" lon="-0.93304">
        <ele>108</ele>
        <time>2021-05-08T09:57:06Z</time>
      </trkpt>
      <trkpt lat="43.56956" lon="-0.93301">
        <ele>108</ele>
        <time>2021-05-08T09:57:07Z</time>
      </trkpt>
      <trkpt lat="43.56954" lon="-0.93297">
        <ele>107</ele>
        <time>2021-05-08T09:57:08Z</time>
      </trkpt>
      <trkpt lat="43.56952" lon="-0.93294">
        <ele>107</ele>
        <time>2021-05-08T09:57:09Z</time>
      </trkpt>
      <trkpt lat="43.56949" lon="-0.93291">
        <ele>107</ele>
        <time>2021-05-08T09:57:10Z</time>
      </trkpt>
      <trkpt lat="43.56947" lon="-0.93289">
        <ele>107</ele>
        <time>2021-05-08T09:57:11Z</time>
      </trkpt>
      <trkpt lat="43.56944" lon="-0.93286">
        <ele>107</ele>
        <time>2021-05-08T09:57:12Z</time>
      </trkpt>
      <trkpt lat="43.56942" lon="-0.93284">
        <ele>106</ele>
        <time>2021-05-08T09:57:13Z</time>
      </trkpt>
      <trkpt lat="43.5694" lon="-0.93282">
        <ele>106</ele>
        <time>2021-05-08T09:57:14Z</time>
      </trkpt>
      <trkpt lat="43.56938" lon="-0.9328">
        <ele>106</ele>
        <time>2021-05-08T09:57:15Z</time>
      </trkpt>
      <trkpt lat="43.56936" lon="-0.93278">
        <ele>106</ele>
        <time>2021-05-08T09:57:16Z</time>
      </trkpt>
      <trkpt lat="43.56934" lon="-0.93277">
        <ele>106</ele>
        <time>2021-05-08T09:57:17Z</time>
      </trkpt>
      <trkpt lat="43.56932" lon="-0.93276">
        <ele>105</ele>
        <time>2021-05-08T09:57:18Z</time>
      </trkpt>
      <trkpt lat="43.56931" lon="-0.93275">
        <ele>105</ele>
        <time>2021-05-08T09:57:19Z</time>
      </trkpt>
      <trkpt lat="43.56929" lon="-0.93274">
        <ele>104</ele>
        <time>2021-05-08T09:57:20Z</time>
      </trkpt>
      <trkpt lat="43.56927" lon="-0.93273">
        <ele>104</ele>
        <time>2021-05-08T09:57:21Z</time>
      </trkpt>
      <trkpt lat="43.56926" lon="-0.93272">
        <ele>104</ele>
        <time>2021-05-08T09:57:22Z</time>
      </trkpt>
      <trkpt lat="43.56924" lon="-0.93271">
        <ele>103</ele>
        <time>2021-05-08T09:57:23Z</time>
      </trkpt>
      <trkpt lat="43.56922" lon="-0.93269">
        <ele>103</ele>
        <time>2021-05-08T09:57:24Z</time>
      </trkpt>
      <trkpt lat="43.5692" lon="-0.93267">
        <ele>102</ele>
        <time>2021-05-08T09:57:25Z</time>
      </trkpt>
      <trkpt lat="43.56918" lon="-0.93265">
        <ele>102</ele>
        <time>2021-05-08T09:57:26Z</time>
      </trkpt>
      <trkpt lat="43.56916" lon="-0.93262">
        <ele>102</ele>
        <time>2021-05-08T09:57:27Z</time>
      </trkpt>
      <trkpt lat="43.56914" lon="-0.93259">
        <ele>101</ele>
        <time>2021-05-08T09:57:28Z</time>
      </trkpt>
      <trkpt lat="43.56912" lon="-0.93257">
        <ele>101</ele>
        <time>2021-05-08T09:57:29Z</time>
      </trkpt>
      <trkpt lat="43.56911" lon="-0.93254">
        <ele>101</ele>
        <time>2021-05-08T09:57:30Z</time>
      </trkpt>
      <trkpt lat="43.5691" lon="-0.93251">
        <ele>101</ele>
        <time>2021-05-08T09:57:31Z</time>
      </trkpt>
      <trkpt lat="43.56909" lon="-0.93248">
        <ele>101</ele>
        <time>2021-05-08T09:57:32Z</time>
      </trkpt>
      <trkpt lat="43.56907" lon="-0.93245">
        <ele>100</ele>
        <time>2021-05-08T09:57:33Z</time>
      </trkpt>
      <trkpt lat="43.56906" lon="-0.93243">
        <ele>100</ele>
        <time>2021-05-08T09:57:34Z</time>
      </trkpt>
      <trkpt lat="43.56905" lon="-0.9324">
        <ele>99</ele>
        <time>2021-05-08T09:57:35Z</time>
      </trkpt>
      <trkpt lat="43.56905" lon="-0.93238">
        <ele>99</ele>
        <time>2021-05-08T09:57:36Z</time>
      </trkpt>
      <trkpt lat="43.56904" lon="-0.93236">
        <ele>99</ele>
        <time>2021-05-08T09:57:37Z</time>
      </trkpt>
      <trkpt lat="43.56903" lon="-0.93234">
        <ele>99</ele>
        <time>2021-05-08T09:57:38Z</time>
      </trkpt>
      <trkpt lat="43.56902" lon="-0.93232">
        <ele>99</ele>
        <time>2021-05-08T09:57:39Z</time>
      </trkpt>
      <trkpt lat="43.56901" lon="-0.93229">
        <ele>99</ele>
        <time>2021-05-08T09:57:40Z</time>
      </trkpt>
      <trkpt lat="43.569" lon="-0.93226">
        <ele>99</ele>
        <time>2021-05-08T09:57:41Z</time>
      </trkpt>
      <trkpt lat="43.569" lon="-0.93223">
        <ele>99</ele>
        <time>2021-05-08T09:57:42Z</time>
      </trkpt>
      <trkpt lat="43.56899" lon="-0.9322">
        <ele>98</ele>
        <time>2021-05-08T09:57:43Z</time>
      </trkpt>
      <trkpt lat="43.56899" lon="-0.93217">
        <ele>98</ele>
        <time>2021-05-08T09:57:44Z</time>
      </trkpt>
      <trkpt lat="43.56898" lon="-0.93214">
        <ele>98</ele>
        <time>2021-05-08T09:57:45Z</time>
      </trkpt>
      <trkpt lat="43.56898" lon="-0.93211">
        <ele>98</ele>
        <time>2021-05-08T09:57:46Z</time>
      </trkpt>
      <trkpt lat="43.56898" lon="-0.93208">
        <ele>98</ele>
        <time>2021-05-08T09:57:47Z</time>
      </trkpt>
      <trkpt lat="43.56897" lon="-0.93205">
        <ele>98</ele>
        <time>2021-05-08T09:57:48Z</time>
      </trkpt>
      <trkpt lat="43.56897" lon="-0.93201">
        <ele>98</ele>
        <time>2021-05-08T09:57:49Z</time>
      </trkpt>
      <trkpt lat="43.56897" lon="-0.93198">
        <ele>98</ele>
        <time>2021-05-08T09:57:50Z</time>
      </trkpt>
      <trkpt lat="43.56897" lon="-0.93195">
        <ele>98</ele>
        <time>2021-05-08T09:57:51Z</time>
      </trkpt>
      <trkpt lat="43.56897" lon="-0.93191">
        <ele>98</ele>
        <time>2021-05-08T09:57:52Z</time>
      </trkpt>
      <trkpt lat="43.56897" lon="-0.93187">
        <ele>98</ele>
        <time>2021-05-08T09:57:53Z</time>
      </trkpt>
      <trkpt lat="43.56897" lon="-0.93183">
        <ele>98</ele>
        <time>2021-05-08T09:57:54Z</time>
      </trkpt>
      <trkpt lat="43.56897" lon="-0.93179">
        <ele>98</ele>
        <time>2021-05-08T09:57:55Z</time>
      </trkpt>
      <trkpt lat="43.56898" lon="-0.93175">
        <ele>98</ele>
        <time>2021-05-08T09:57:56Z</time>
      </trkpt>
      <trkpt lat="43.56899" lon="-0.93172">
        <ele>98</ele>
        <time>2021-05-08T09:57:57Z</time>
      </trkpt>
      <trkpt lat="43.569" lon="-0.93168">
        <ele>97</ele>
        <time>2021-05-08T09:57:58Z</time>
      </trkpt>
      <trkpt lat="43.56901" lon="-0.93164">
        <ele>97</ele>
        <time>2021-05-08T09:57:59Z</time>
      </trkpt>
      <trkpt lat="43.56902" lon="-0.9316">
        <ele>97</ele>
        <time>2021-05-08T09:58:00Z</time>
      </trkpt>
      <trkpt lat="43.56902" lon="-0.93156">
        <ele>97</ele>
        <time>2021-05-08T09:58:01Z</time>
      </trkpt>
      <trkpt lat="43.56903" lon="-0.93152">
        <ele>97</ele>
        <time>2021-05-08T09:58:02Z</time>
      </trkpt>
      <trkpt lat="43.56904" lon="-0.93148">
        <ele>96</ele>
        <time>2021-05-08T09:58:03Z</time>
      </trkpt>
      <trkpt lat="43.56905" lon="-0.93144">
        <ele>96</ele>
        <time>2021-05-08T09:58:04Z</time>
      </trkpt>
      <trkpt lat="43.56905" lon="-0.9314">
        <ele>96</ele>
        <time>2021-05-08T09:58:05Z</time>
      </trkpt>
      <trkpt lat="43.56906" lon="-0.93136">
        <ele>96</ele>
        <time>2021-05-08T09:58:06Z</time>
      </trkpt>
      <trkpt lat="43.56906" lon="-0.93132">
        <ele>96</ele>
        <time>2021-05-08T09:58:07Z</time>
      </trkpt>
      <trkpt lat="43.56906" lon="-0.93129">
        <ele>95</ele>
        <time>2021-05-08T09:58:08Z</time>
      </trkpt>
      <trkpt lat="43.56907" lon="-0.93125">
        <ele>95</ele>
        <time>2021-05-08T09:58:09Z</time>
      </trkpt>
      <trkpt lat="43.56907" lon="-0.93121">
        <ele>95</ele>
        <time>2021-05-08T09:58:10Z</time>
      </trkpt>
      <trkpt lat="43.56908" lon="-0.93118">
        <ele>95</ele>
        <time>2021-05-08T09:58:11Z</time>
      </trkpt>
      <trkpt lat="43.56909" lon="-0.93114">
        <ele>95</ele>
        <time>2021-05-08T09:58:12Z</time>
      </trkpt>
      <trkpt lat="43.5691" lon="-0.93111">
        <ele>94</ele>
        <time>2021-05-08T09:58:13Z</time>
      </trkpt>
      <trkpt lat="43.5691" lon="-0.93108">
        <ele>94</ele>
        <time>2021-05-08T09:58:14Z</time>
      </trkpt>
      <trkpt lat="43.56911" lon="-0.93105">
        <ele>94</ele>
        <time>2021-05-08T09:58:15Z</time>
      </trkpt>
      <trkpt lat="43.56911" lon="-0.93101">
        <ele>94</ele>
        <time>2021-05-08T09:58:16Z</time>
      </trkpt>
      <trkpt lat="43.56911" lon="-0.93098">
        <ele>94</ele>
        <time>2021-05-08T09:58:17Z</time>
      </trkpt>
      <trkpt lat="43.56911" lon="-0.93095">
        <ele>93</ele>
        <time>2021-05-08T09:58:18Z</time>
      </trkpt>
      <trkpt lat="43.5691" lon="-0.93093">
        <ele>93</ele>
        <time>2021-05-08T09:58:19Z</time>
      </trkpt>
      <trkpt lat="43.56908" lon="-0.9309">
        <ele>93</ele>
        <time>2021-05-08T09:58:20Z</time>
      </trkpt>
      <trkpt lat="43.56907" lon="-0.93088">
        <ele>93</ele>
        <time>2021-05-08T09:58:21Z</time>
      </trkpt>
      <trkpt lat="43.56904" lon="-0.93087">
        <ele>93</ele>
        <time>2021-05-08T09:58:22Z</time>
      </trkpt>
      <trkpt lat="43.56902" lon="-0.93086">
        <ele>93</ele>
        <time>2021-05-08T09:58:23Z</time>
      </trkpt>
      <trkpt lat="43.56899" lon="-0.93085">
        <ele>93</ele>
        <time>2021-05-08T09:58:24Z</time>
      </trkpt>
      <trkpt lat="43.56897" lon="-0.93084">
        <ele>93</ele>
        <time>2021-05-08T09:58:25Z</time>
      </trkpt>
      <trkpt lat="43.56894" lon="-0.93083">
        <ele>93</ele>
        <time>2021-05-08T09:58:26Z</time>
      </trkpt>
      <trkpt lat="43.56891" lon="-0.93083">
        <ele>93</ele>
        <time>2021-05-08T09:58:27Z</time>
      </trkpt>
      <trkpt lat="43.56889" lon="-0.93083">
        <ele>92</ele>
        <time>2021-05-08T09:58:28Z</time>
      </trkpt>
      <trkpt lat="43.56886" lon="-0.93082">
        <ele>92</ele>
        <time>2021-05-08T09:58:29Z</time>
      </trkpt>
      <trkpt lat="43.56884" lon="-0.93082">
        <ele>92</ele>
        <time>2021-05-08T09:58:30Z</time>
      </trkpt>
      <trkpt lat="43.56881" lon="-0.93082">
        <ele>92</ele>
        <time>2021-05-08T09:58:31Z</time>
      </trkpt>
      <trkpt lat="43.56878" lon="-0.93082">
        <ele>92</ele>
        <time>2021-05-08T09:58:32Z</time>
      </trkpt>
      <trkpt lat="43.56875" lon="-0.93082">
        <ele>91</ele>
        <time>2021-05-08T09:58:33Z</time>
      </trkpt>
      <trkpt lat="43.56873" lon="-0.93082">
        <ele>91</ele>
        <time>2021-05-08T09:58:34Z</time>
      </trkpt>
      <trkpt lat="43.5687" lon="-0.93082">
        <ele>91</ele>
        <time>2021-05-08T09:58:35Z</time>
      </trkpt>
      <trkpt lat="43.56868" lon="-0.93082">
        <ele>91</ele>
        <time>2021-05-08T09:58:36Z</time>
      </trkpt>
      <trkpt lat="43.56865" lon="-0.93081">
        <ele>91</ele>
        <time>2021-05-08T09:58:37Z</time>
      </trkpt>
      <trkpt lat="43.56862" lon="-0.93081">
        <ele>90</ele>
        <time>2021-05-08T09:58:38Z</time>
      </trkpt>
      <trkpt lat="43.5686" lon="-0.9308">
        <ele>90</ele>
        <time>2021-05-08T09:58:39Z</time>
      </trkpt>
      <trkpt lat="43.56857" lon="-0.9308">
        <ele>90</ele>
        <time>2021-05-08T09:58:40Z</time>
      </trkpt>
      <trkpt lat="43.56855" lon="-0.93079">
        <ele>90</ele>
        <time>2021-05-08T09:58:41Z</time>
      </trkpt>
      <trkpt lat="43.56852" lon="-0.93079">
        <ele>90</ele>
        <time>2021-05-08T09:58:42Z</time>
      </trkpt>
      <trkpt lat="43.5685" lon="-0.93078">
        <ele>90</ele>
        <time>2021-05-08T09:58:43Z</time>
      </trkpt>
      <trkpt lat="43.56847" lon="-0.93078">
        <ele>90</ele>
        <time>2021-05-08T09:58:44Z</time>
      </trkpt>
      <trkpt lat="43.56845" lon="-0.93077">
        <ele>90</ele>
        <time>2021-05-08T09:58:45Z</time>
      </trkpt>
      <trkpt lat="43.56842" lon="-0.93077">
        <ele>90</ele>
        <time>2021-05-08T09:58:46Z</time>
      </trkpt>
      <trkpt lat="43.5684" lon="-0.93077">
        <ele>90</ele>
        <time>2021-05-08T09:58:47Z</time>
      </trkpt>
      <trkpt lat="43.56837" lon="-0.93077">
        <ele>90</ele>
        <time>2021-05-08T09:58:48Z</time>
      </trkpt>
      <trkpt lat="43.56835" lon="-0.93076">
        <ele>90</ele>
        <time>2021-05-08T09:58:49Z</time>
      </trkpt>
      <trkpt lat="43.56832" lon="-0.93076">
        <ele>90</ele>
        <time>2021-05-08T09:58:50Z</time>
      </trkpt>
      <trkpt lat="43.56829" lon="-0.93076">
        <ele>90</ele>
        <time>2021-05-08T09:58:51Z</time>
      </trkpt>
      <trkpt lat="43.56827" lon="-0.93076">
        <ele>90</ele>
        <time>2021-05-08T09:58:52Z</time>
      </trkpt>
      <trkpt lat="43.56824" lon="-0.93075">
        <ele>89</ele>
        <time>2021-05-08T09:58:53Z</time>
      </trkpt>
      <trkpt lat="43.56821" lon="-0.93075">
        <ele>89</ele>
        <time>2021-05-08T09:58:54Z</time>
      </trkpt>
      <trkpt lat="43.56818" lon="-0.93074">
        <ele>89</ele>
        <time>2021-05-08T09:58:55Z</time>
      </trkpt>
      <trkpt lat="43.56815" lon="-0.93074">
        <ele>89</ele>
        <time>2021-05-08T09:58:56Z</time>
      </trkpt>
      <trkpt lat="43.56812" lon="-0.93073">
        <ele>89</ele>
        <time>2021-05-08T09:58:57Z</time>
      </trkpt>
      <trkpt lat="43.56809" lon="-0.93073">
        <ele>88</ele>
        <time>2021-05-08T09:58:58Z</time>
      </trkpt>
      <trkpt lat="43.56807" lon="-0.93072">
        <ele>88</ele>
        <time>2021-05-08T09:58:59Z</time>
      </trkpt>
      <trkpt lat="43.56804" lon="-0.93072">
        <ele>88</ele>
        <time>2021-05-08T09:59:00Z</time>
      </trkpt>
      <trkpt lat="43.56801" lon="-0.93071">
        <ele>88</ele>
        <time>2021-05-08T09:59:01Z</time>
      </trkpt>
      <trkpt lat="43.56798" lon="-0.93071">
        <ele>88</ele>
        <time>2021-05-08T09:59:02Z</time>
      </trkpt>
      <trkpt lat="43.56795" lon="-0.9307">
        <ele>88</ele>
        <time>2021-05-08T09:59:03Z</time>
      </trkpt>
      <trkpt lat="43.56793" lon="-0.9307">
        <ele>88</ele>
        <time>2021-05-08T09:59:04Z</time>
      </trkpt>
      <trkpt lat="43.5679" lon="-0.93069">
        <ele>88</ele>
        <time>2021-05-08T09:59:05Z</time>
      </trkpt>
      <trkpt lat="43.56788" lon="-0.93069">
        <ele>88</ele>
        <time>2021-05-08T09:59:06Z</time>
      </trkpt>
      <trkpt lat="43.56785" lon="-0.93068">
        <ele>88</ele>
        <time>2021-05-08T09:59:07Z</time>
      </trkpt>
      <trkpt lat="43.56783" lon="-0.93067">
        <ele>87</ele>
        <time>2021-05-08T09:59:08Z</time>
      </trkpt>
      <trkpt lat="43.5678" lon="-0.93065">
        <ele>87</ele>
        <time>2021-05-08T09:59:09Z</time>
      </trkpt>
      <trkpt lat="43.56778" lon="-0.93064">
        <ele>87</ele>
        <time>2021-05-08T09:59:10Z</time>
      </trkpt>
      <trkpt lat="43.56776" lon="-0.93062">
        <ele>87</ele>
        <time>2021-05-08T09:59:11Z</time>
      </trkpt>
      <trkpt lat="43.56774" lon="-0.9306">
        <ele>87</ele>
        <time>2021-05-08T09:59:12Z</time>
      </trkpt>
      <trkpt lat="43.56771" lon="-0.93058">
        <ele>86</ele>
        <time>2021-05-08T09:59:13Z</time>
      </trkpt>
      <trkpt lat="43.56769" lon="-0.93057">
        <ele>86</ele>
        <time>2021-05-08T09:59:14Z</time>
      </trkpt>
      <trkpt lat="43.56767" lon="-0.93055">
        <ele>86</ele>
        <time>2021-05-08T09:59:15Z</time>
      </trkpt>
      <trkpt lat="43.56765" lon="-0.93053">
        <ele>86</ele>
        <time>2021-05-08T09:59:16Z</time>
      </trkpt>
      <trkpt lat="43.56764" lon="-0.93051">
        <ele>86</ele>
        <time>2021-05-08T09:59:17Z</time>
      </trkpt>
      <trkpt lat="43.56762" lon="-0.93049">
        <ele>86</ele>
        <time>2021-05-08T09:59:18Z</time>
      </trkpt>
      <trkpt lat="43.5676" lon="-0.93047">
        <ele>86</ele>
        <time>2021-05-08T09:59:19Z</time>
      </trkpt>
      <trkpt lat="43.56758" lon="-0.93045">
        <ele>86</ele>
        <time>2021-05-08T09:59:20Z</time>
      </trkpt>
      <trkpt lat="43.56756" lon="-0.93042">
        <ele>86</ele>
        <time>2021-05-08T09:59:21Z</time>
      </trkpt>
      <trkpt lat="43.56752" lon="-0.93039">
        <ele>86</ele>
        <time>2021-05-08T09:59:22Z</time>
      </trkpt>
      <trkpt lat="43.56749" lon="-0.93035">
        <ele>86</ele>
        <time>2021-05-08T09:59:23Z</time>
      </trkpt>
    </trkseg>
  </trk>
</gpx>